<?xml version='1.0' encoding='UTF-8'?><gpx version="1.1" creator="JPX - https://github.com/jenetics/jpx" xmlns="http://www.topografix.com/GPX/1/1"><trk><trkseg><trkpt lat="45.3095689" lon="9.2098908"><ele>88.99999999999999</ele><time>2026-03-21T08:49:21.131Z</time></trkpt><trkpt lat="45.3096302" lon="9.2098544"><ele>89.0</ele><time>2026-03-21T08:50:41.131Z</time></trkpt><trkpt lat="45.3096132" lon="9.2099408"><ele>89.0</ele><time>2026-03-21T08:51:19.132Z</time></trkpt><trkpt lat="45.3096833" lon="9.2098644"><ele>89.0</ele><time>2026-03-21T08:51:58.132Z</time></trkpt><trkpt lat="45.3097687" lon="9.2098616"><ele>89.0</ele><time>2026-03-21T08:52:01.132Z</time></trkpt><trkpt lat="45.3098399" lon="9.2098603"><ele>88.99999999999999</ele><time>2026-03-21T08:52:04.132Z</time></trkpt><trkpt lat="45.3099" lon="9.2098006"><ele>89.0</ele><time>2026-03-21T08:52:06.131Z</time></trkpt><trkpt lat="45.3099758" lon="9.209738"><ele>89.0</ele><time>2026-03-21T08:52:08.131Z</time></trkpt><trkpt lat="45.310081" lon="9.2096901"><ele>89.0</ele><time>2026-03-21T08:52:10.132Z</time></trkpt><trkpt lat="45.3101874" lon="9.2096415"><ele>89.0</ele><time>2026-03-21T08:52:12.131Z</time></trkpt><trkpt lat="45.310269" lon="9.2095453"><ele>89.0</ele><time>2026-03-21T08:52:14.132Z</time></trkpt><trkpt lat="45.3102888" lon="9.2093746"><ele>89.0</ele><time>2026-03-21T08:52:16.132Z</time></trkpt><trkpt lat="45.3102791" lon="9.2092664"><ele>89.0</ele><time>2026-03-21T08:52:17.132Z</time></trkpt><trkpt lat="45.3102737" lon="9.2091507"><ele>89.0</ele><time>2026-03-21T08:52:18.131Z</time></trkpt><trkpt lat="45.3102616" lon="9.2090288"><ele>89.0</ele><time>2026-03-21T08:52:19.131Z</time></trkpt><trkpt lat="45.3102478" lon="9.2088997"><ele>89.0</ele><time>2026-03-21T08:52:20.132Z</time></trkpt><trkpt lat="45.310237" lon="9.2087654"><ele>89.0</ele><time>2026-03-21T08:52:21.131Z</time></trkpt><trkpt lat="45.3102196" lon="9.2086346"><ele>89.0</ele><time>2026-03-21T08:52:22.131Z</time></trkpt><trkpt lat="45.310202" lon="9.208498"><ele>89.0</ele><time>2026-03-21T08:52:23.131Z</time></trkpt><trkpt lat="45.3101878" lon="9.20836"><ele>89.0</ele><time>2026-03-21T08:52:24.131Z</time></trkpt><trkpt lat="45.3101699" lon="9.2082211"><ele>89.0</ele><time>2026-03-21T08:52:25.132Z</time></trkpt><trkpt lat="45.3101535" lon="9.2080793"><ele>89.0</ele><time>2026-03-21T08:52:26.131Z</time></trkpt><trkpt lat="45.3101358" lon="9.2079454"><ele>89.0</ele><time>2026-03-21T08:52:27.132Z</time></trkpt><trkpt lat="45.3101225" lon="9.2078154"><ele>89.0</ele><time>2026-03-21T08:52:28.131Z</time></trkpt><trkpt lat="45.3101083" lon="9.2076997"><ele>89.0</ele><time>2026-03-21T08:52:29.131Z</time></trkpt><trkpt lat="45.3100994" lon="9.207598"><ele>89.0</ele><time>2026-03-21T08:52:30.132Z</time></trkpt><trkpt lat="45.3100885" lon="9.2074477"><ele>89.0</ele><time>2026-03-21T08:52:32.131Z</time></trkpt><trkpt lat="45.3101738" lon="9.2073333"><ele>88.80000000000001</ele><time>2026-03-21T08:52:34.132Z</time></trkpt><trkpt lat="45.3102574" lon="9.2072965"><ele>88.60000000000001</ele><time>2026-03-21T08:52:35.132Z</time></trkpt><trkpt lat="45.3103499" lon="9.2072676"><ele>88.4</ele><time>2026-03-21T08:52:36.131Z</time></trkpt><trkpt lat="45.3104493" lon="9.2072399"><ele>88.2</ele><time>2026-03-21T08:52:37.131Z</time></trkpt><trkpt lat="45.310555" lon="9.2072118"><ele>88.0</ele><time>2026-03-21T08:52:38.131Z</time></trkpt><trkpt lat="45.3106637" lon="9.2071825"><ele>88.4</ele><time>2026-03-21T08:52:39.132Z</time></trkpt><trkpt lat="45.3107761" lon="9.207155"><ele>88.80000000000001</ele><time>2026-03-21T08:52:40.131Z</time></trkpt><trkpt lat="45.310893" lon="9.2071347"><ele>89.2</ele><time>2026-03-21T08:52:41.131Z</time></trkpt><trkpt lat="45.3110011" lon="9.2071171"><ele>89.6</ele><time>2026-03-21T08:52:42.131Z</time></trkpt><trkpt lat="45.311094" lon="9.207112"><ele>90.0</ele><time>2026-03-21T08:52:43.131Z</time></trkpt><trkpt lat="45.3111722" lon="9.2071147"><ele>90.0</ele><time>2026-03-21T08:52:44.132Z</time></trkpt><trkpt lat="45.3112824" lon="9.2071339"><ele>90.0</ele><time>2026-03-21T08:52:46.131Z</time></trkpt><trkpt lat="45.3114055" lon="9.2071669"><ele>90.0</ele><time>2026-03-21T08:52:48.132Z</time></trkpt><trkpt lat="45.3114794" lon="9.2071697"><ele>90.0</ele><time>2026-03-21T08:52:49.131Z</time></trkpt><trkpt lat="45.3115541" lon="9.2071451"><ele>90.0</ele><time>2026-03-21T08:52:50.132Z</time></trkpt><trkpt lat="45.3116355" lon="9.2070924"><ele>89.8</ele><time>2026-03-21T08:52:51.131Z</time></trkpt><trkpt lat="45.3117209" lon="9.2070193"><ele>89.6</ele><time>2026-03-21T08:52:52.132Z</time></trkpt><trkpt lat="45.3118132" lon="9.206946"><ele>89.4</ele><time>2026-03-21T08:52:53.132Z</time></trkpt><trkpt lat="45.3119103" lon="9.2068785"><ele>89.2</ele><time>2026-03-21T08:52:54.132Z</time></trkpt><trkpt lat="45.3120152" lon="9.2068181"><ele>89.0</ele><time>2026-03-21T08:52:55.132Z</time></trkpt><trkpt lat="45.3121208" lon="9.2067595"><ele>89.0</ele><time>2026-03-21T08:52:56.131Z</time></trkpt><trkpt lat="45.3122286" lon="9.2067116"><ele>89.0</ele><time>2026-03-21T08:52:57.132Z</time></trkpt><trkpt lat="45.3123399" lon="9.2066684"><ele>89.0</ele><time>2026-03-21T08:52:58.131Z</time></trkpt><trkpt lat="45.3124472" lon="9.2066366"><ele>89.0</ele><time>2026-03-21T08:52:59.132Z</time></trkpt><trkpt lat="45.3125563" lon="9.206613"><ele>89.0</ele><time>2026-03-21T08:53:00.132Z</time></trkpt><trkpt lat="45.3126609" lon="9.2065879"><ele>88.83333333333334</ele><time>2026-03-21T08:53:01.132Z</time></trkpt><trkpt lat="45.3127593" lon="9.2065629"><ele>88.66666666666667</ele><time>2026-03-21T08:53:02.132Z</time></trkpt><trkpt lat="45.312851" lon="9.2065394"><ele>88.5</ele><time>2026-03-21T08:53:03.131Z</time></trkpt><trkpt lat="45.3129367" lon="9.2065257"><ele>88.33333333333333</ele><time>2026-03-21T08:53:04.131Z</time></trkpt><trkpt lat="45.3130217" lon="9.2065226"><ele>88.16666666666666</ele><time>2026-03-21T08:53:05.131Z</time></trkpt><trkpt lat="45.3131059" lon="9.2065113"><ele>88.0</ele><time>2026-03-21T08:53:06.131Z</time></trkpt><trkpt lat="45.3131824" lon="9.2064893"><ele>87.83333333333333</ele><time>2026-03-21T08:53:07.131Z</time></trkpt><trkpt lat="45.3132573" lon="9.2064612"><ele>87.66666666666666</ele><time>2026-03-21T08:53:08.132Z</time></trkpt><trkpt lat="45.3133256" lon="9.2064373"><ele>87.5</ele><time>2026-03-21T08:53:09.131Z</time></trkpt><trkpt lat="45.313445" lon="9.2064107"><ele>87.33333333333333</ele><time>2026-03-21T08:53:11.132Z</time></trkpt><trkpt lat="45.3135114" lon="9.2064176"><ele>87.16666666666667</ele><time>2026-03-21T08:53:13.132Z</time></trkpt><trkpt lat="45.3135456" lon="9.2064935"><ele>87.0</ele><time>2026-03-21T08:54:24.131Z</time></trkpt><trkpt lat="45.3134754" lon="9.20646"><ele>87.0</ele><time>2026-03-21T08:54:28.131Z</time></trkpt><trkpt lat="45.3135378" lon="9.2064012"><ele>87.0</ele><time>2026-03-21T08:54:29.131Z</time></trkpt><trkpt lat="45.313617" lon="9.2063761"><ele>87.0</ele><time>2026-03-21T08:54:31.131Z</time></trkpt><trkpt lat="45.3136903" lon="9.2064193"><ele>87.0</ele><time>2026-03-21T08:54:34.131Z</time></trkpt><trkpt lat="45.3137576" lon="9.2064406"><ele>87.0</ele><time>2026-03-21T08:54:37.132Z</time></trkpt><trkpt lat="45.3138282" lon="9.2064092"><ele>87.0</ele><time>2026-03-21T08:54:39.131Z</time></trkpt><trkpt lat="45.3138329" lon="9.2062972"><ele>87.0</ele><time>2026-03-21T08:54:42.132Z</time></trkpt><trkpt lat="45.3137651" lon="9.2061888"><ele>87.0</ele><time>2026-03-21T08:54:45.131Z</time></trkpt><trkpt lat="45.3136562" lon="9.2061833"><ele>87.0</ele><time>2026-03-21T08:54:47.131Z</time></trkpt><trkpt lat="45.3135936" lon="9.2062013"><ele>87.0</ele><time>2026-03-21T08:54:48.131Z</time></trkpt><trkpt lat="45.3135109" lon="9.2062262"><ele>87.0</ele><time>2026-03-21T08:54:49.132Z</time></trkpt><trkpt lat="45.3134181" lon="9.2062569"><ele>87.0</ele><time>2026-03-21T08:54:50.131Z</time></trkpt><trkpt lat="45.3133235" lon="9.2062846"><ele>87.0</ele><time>2026-03-21T08:54:51.131Z</time></trkpt><trkpt lat="45.3132265" lon="9.2063143"><ele>87.0</ele><time>2026-03-21T08:54:52.131Z</time></trkpt><trkpt lat="45.3131176" lon="9.2063499"><ele>87.0</ele><time>2026-03-21T08:54:53.131Z</time></trkpt><trkpt lat="45.3130075" lon="9.2063871"><ele>87.0</ele><time>2026-03-21T08:54:54.131Z</time></trkpt><trkpt lat="45.3128956" lon="9.2064236"><ele>87.25</ele><time>2026-03-21T08:54:55.131Z</time></trkpt><trkpt lat="45.312779" lon="9.2064627"><ele>87.5</ele><time>2026-03-21T08:54:56.132Z</time></trkpt><trkpt lat="45.312665" lon="9.2064969"><ele>87.75</ele><time>2026-03-21T08:54:57.132Z</time></trkpt><trkpt lat="45.3125482" lon="9.2065313"><ele>88.0</ele><time>2026-03-21T08:54:58.131Z</time></trkpt><trkpt lat="45.3124278" lon="9.2065701"><ele>88.0</ele><time>2026-03-21T08:54:59.132Z</time></trkpt><trkpt lat="45.3123081" lon="9.206601"><ele>88.0</ele><time>2026-03-21T08:55:00.132Z</time></trkpt><trkpt lat="45.3121863" lon="9.2066266"><ele>88.0</ele><time>2026-03-21T08:55:01.132Z</time></trkpt><trkpt lat="45.3120678" lon="9.2066347"><ele>88.0</ele><time>2026-03-21T08:55:02.132Z</time></trkpt><trkpt lat="45.3119428" lon="9.2066284"><ele>88.25</ele><time>2026-03-21T08:55:03.132Z</time></trkpt><trkpt lat="45.3118189" lon="9.2066137"><ele>88.5</ele><time>2026-03-21T08:55:04.132Z</time></trkpt><trkpt lat="45.3117016" lon="9.2066032"><ele>88.75</ele><time>2026-03-21T08:55:05.131Z</time></trkpt><trkpt lat="45.3115956" lon="9.2065952"><ele>89.0</ele><time>2026-03-21T08:55:06.131Z</time></trkpt><trkpt lat="45.3114908" lon="9.2066145"><ele>89.25</ele><time>2026-03-21T08:55:07.131Z</time></trkpt><trkpt lat="45.3113909" lon="9.2066693"><ele>89.5</ele><time>2026-03-21T08:55:08.131Z</time></trkpt><trkpt lat="45.3112898" lon="9.2067484"><ele>89.75</ele><time>2026-03-21T08:55:09.131Z</time></trkpt><trkpt lat="45.3111822" lon="9.2068362"><ele>90.0</ele><time>2026-03-21T08:55:10.131Z</time></trkpt><trkpt lat="45.3110636" lon="9.2069229"><ele>90.0</ele><time>2026-03-21T08:55:11.131Z</time></trkpt><trkpt lat="45.310933" lon="9.2070013"><ele>90.0</ele><time>2026-03-21T08:55:12.131Z</time></trkpt><trkpt lat="45.3107952" lon="9.2070721"><ele>90.0</ele><time>2026-03-21T08:55:13.132Z</time></trkpt><trkpt lat="45.3106554" lon="9.2071319"><ele>90.0</ele><time>2026-03-21T08:55:14.131Z</time></trkpt><trkpt lat="45.3105134" lon="9.2071779"><ele>89.66666666666667</ele><time>2026-03-21T08:55:15.132Z</time></trkpt><trkpt lat="45.3103655" lon="9.2072296"><ele>89.33333333333334</ele><time>2026-03-21T08:55:16.131Z</time></trkpt><trkpt lat="45.3102138" lon="9.2072821"><ele>89.0</ele><time>2026-03-21T08:55:17.132Z</time></trkpt><trkpt lat="45.3100564" lon="9.2073331"><ele>89.0</ele><time>2026-03-21T08:55:18.131Z</time></trkpt><trkpt lat="45.3098972" lon="9.2073857"><ele>89.0</ele><time>2026-03-21T08:55:19.132Z</time></trkpt><trkpt lat="45.3097386" lon="9.2074346"><ele>89.0</ele><time>2026-03-21T08:55:20.132Z</time></trkpt><trkpt lat="45.3095808" lon="9.207485"><ele>88.66666666666667</ele><time>2026-03-21T08:55:21.131Z</time></trkpt><trkpt lat="45.3094218" lon="9.2075324"><ele>88.33333333333333</ele><time>2026-03-21T08:55:22.132Z</time></trkpt><trkpt lat="45.3092612" lon="9.2075808"><ele>88.0</ele><time>2026-03-21T08:55:23.131Z</time></trkpt><trkpt lat="45.3091022" lon="9.2076347"><ele>88.0</ele><time>2026-03-21T08:55:24.131Z</time></trkpt><trkpt lat="45.3089457" lon="9.2076979"><ele>88.0</ele><time>2026-03-21T08:55:25.132Z</time></trkpt><trkpt lat="45.3087879" lon="9.2077674"><ele>88.0</ele><time>2026-03-21T08:55:26.131Z</time></trkpt><trkpt lat="45.3086343" lon="9.2078486"><ele>87.66666666666666</ele><time>2026-03-21T08:55:27.131Z</time></trkpt><trkpt lat="45.3084822" lon="9.2079411"><ele>87.33333333333333</ele><time>2026-03-21T08:55:28.131Z</time></trkpt><trkpt lat="45.3083327" lon="9.2080341"><ele>87.0</ele><time>2026-03-21T08:55:29.132Z</time></trkpt><trkpt lat="45.3081969" lon="9.2081292"><ele>87.0</ele><time>2026-03-21T08:55:30.131Z</time></trkpt><trkpt lat="45.3080649" lon="9.2082219"><ele>87.0</ele><time>2026-03-21T08:55:31.132Z</time></trkpt><trkpt lat="45.3079426" lon="9.2083027"><ele>87.0</ele><time>2026-03-21T08:55:32.131Z</time></trkpt><trkpt lat="45.3078288" lon="9.2083756"><ele>87.0</ele><time>2026-03-21T08:55:33.132Z</time></trkpt><trkpt lat="45.3077212" lon="9.2084433"><ele>87.0</ele><time>2026-03-21T08:55:34.131Z</time></trkpt><trkpt lat="45.3076282" lon="9.2085014"><ele>87.0</ele><time>2026-03-21T08:55:35.131Z</time></trkpt><trkpt lat="45.307544" lon="9.208552"><ele>87.0</ele><time>2026-03-21T08:55:36.131Z</time></trkpt><trkpt lat="45.3074728" lon="9.2085986"><ele>87.0</ele><time>2026-03-21T08:55:37.131Z</time></trkpt><trkpt lat="45.3073838" lon="9.2086529"><ele>87.0</ele><time>2026-03-21T08:55:39.132Z</time></trkpt><trkpt lat="45.3073382" lon="9.2087235"><ele>87.0</ele><time>2026-03-21T08:55:42.132Z</time></trkpt><trkpt lat="45.307344" lon="9.2088233"><ele>87.0</ele><time>2026-03-21T08:55:43.132Z</time></trkpt><trkpt lat="45.3073531" lon="9.2089579"><ele>87.0</ele><time>2026-03-21T08:55:44.131Z</time></trkpt><trkpt lat="45.3073471" lon="9.2091185"><ele>87.0</ele><time>2026-03-21T08:55:45.132Z</time></trkpt><trkpt lat="45.3073301" lon="9.2092777"><ele>87.0</ele><time>2026-03-21T08:55:46.132Z</time></trkpt><trkpt lat="45.3073071" lon="9.209442"><ele>87.0</ele><time>2026-03-21T08:55:47.131Z</time></trkpt><trkpt lat="45.3072837" lon="9.2096093"><ele>87.19999999999999</ele><time>2026-03-21T08:55:48.131Z</time></trkpt><trkpt lat="45.3072608" lon="9.2097659"><ele>87.4</ele><time>2026-03-21T08:55:49.132Z</time></trkpt><trkpt lat="45.3072367" lon="9.209927"><ele>87.6</ele><time>2026-03-21T08:55:50.131Z</time></trkpt><trkpt lat="45.307217" lon="9.2100355"><ele>87.80000000000001</ele><time>2026-03-21T08:55:51.132Z</time></trkpt><trkpt lat="45.3071797" lon="9.2101419"><ele>88.0</ele><time>2026-03-21T08:55:53.131Z</time></trkpt><trkpt lat="45.3071682" lon="9.2102777"><ele>88.0</ele><time>2026-03-21T08:56:07.132Z</time></trkpt><trkpt lat="45.3071494" lon="9.210466"><ele>88.0</ele><time>2026-03-21T08:56:09.131Z</time></trkpt><trkpt lat="45.3071321" lon="9.2105794"><ele>88.0</ele><time>2026-03-21T08:56:10.131Z</time></trkpt><trkpt lat="45.3071088" lon="9.2107034"><ele>88.0</ele><time>2026-03-21T08:56:11.132Z</time></trkpt><trkpt lat="45.3070856" lon="9.210845"><ele>88.0</ele><time>2026-03-21T08:56:12.132Z</time></trkpt><trkpt lat="45.3070626" lon="9.2109883"><ele>87.75</ele><time>2026-03-21T08:56:13.132Z</time></trkpt><trkpt lat="45.3070367" lon="9.2111418"><ele>87.5</ele><time>2026-03-21T08:56:14.131Z</time></trkpt><trkpt lat="45.3070099" lon="9.2113045"><ele>87.25</ele><time>2026-03-21T08:56:15.131Z</time></trkpt><trkpt lat="45.3069834" lon="9.211469"><ele>87.0</ele><time>2026-03-21T08:56:16.132Z</time></trkpt><trkpt lat="45.3069514" lon="9.2116373"><ele>87.0</ele><time>2026-03-21T08:56:17.132Z</time></trkpt><trkpt lat="45.3069118" lon="9.2118135"><ele>87.0</ele><time>2026-03-21T08:56:18.132Z</time></trkpt><trkpt lat="45.3068664" lon="9.2119973"><ele>87.0</ele><time>2026-03-21T08:56:19.132Z</time></trkpt><trkpt lat="45.3068107" lon="9.2121824"><ele>87.0</ele><time>2026-03-21T08:56:20.131Z</time></trkpt><trkpt lat="45.3067444" lon="9.2123645"><ele>87.0</ele><time>2026-03-21T08:56:21.132Z</time></trkpt><trkpt lat="45.3066716" lon="9.2125416"><ele>87.0</ele><time>2026-03-21T08:56:22.132Z</time></trkpt><trkpt lat="45.3065861" lon="9.2127075"><ele>87.0</ele><time>2026-03-21T08:56:23.132Z</time></trkpt><trkpt lat="45.3064938" lon="9.2128712"><ele>87.0</ele><time>2026-03-21T08:56:24.132Z</time></trkpt><trkpt lat="45.3063942" lon="9.2130351"><ele>87.33333333333333</ele><time>2026-03-21T08:56:25.132Z</time></trkpt><trkpt lat="45.3062863" lon="9.2131988"><ele>87.66666666666666</ele><time>2026-03-21T08:56:26.132Z</time></trkpt><trkpt lat="45.3061738" lon="9.2133608"><ele>88.0</ele><time>2026-03-21T08:56:27.131Z</time></trkpt><trkpt lat="45.3060571" lon="9.2135221"><ele>88.0</ele><time>2026-03-21T08:56:28.132Z</time></trkpt><trkpt lat="45.3059428" lon="9.2136792"><ele>88.0</ele><time>2026-03-21T08:56:29.132Z</time></trkpt><trkpt lat="45.305821" lon="9.2138411"><ele>88.0</ele><time>2026-03-21T08:56:30.132Z</time></trkpt><trkpt lat="45.3057007" lon="9.2140014"><ele>87.66666666666666</ele><time>2026-03-21T08:56:31.132Z</time></trkpt><trkpt lat="45.3055751" lon="9.2141602"><ele>87.33333333333333</ele><time>2026-03-21T08:56:32.132Z</time></trkpt><trkpt lat="45.305447" lon="9.2143236"><ele>87.0</ele><time>2026-03-21T08:56:33.131Z</time></trkpt><trkpt lat="45.305315" lon="9.2144912"><ele>87.0</ele><time>2026-03-21T08:56:34.131Z</time></trkpt><trkpt lat="45.3051826" lon="9.2146593"><ele>87.0</ele><time>2026-03-21T08:56:35.132Z</time></trkpt><trkpt lat="45.3050493" lon="9.2148263"><ele>87.0</ele><time>2026-03-21T08:56:36.131Z</time></trkpt><trkpt lat="45.3049121" lon="9.2150011"><ele>87.0</ele><time>2026-03-21T08:56:37.131Z</time></trkpt><trkpt lat="45.3047732" lon="9.215183"><ele>87.0</ele><time>2026-03-21T08:56:38.131Z</time></trkpt><trkpt lat="45.3046346" lon="9.2153618"><ele>87.0</ele><time>2026-03-21T08:56:39.132Z</time></trkpt><trkpt lat="45.3044922" lon="9.2155477"><ele>87.33333333333333</ele><time>2026-03-21T08:56:40.131Z</time></trkpt><trkpt lat="45.3043499" lon="9.2157341"><ele>87.66666666666666</ele><time>2026-03-21T08:56:41.131Z</time></trkpt><trkpt lat="45.3042088" lon="9.2159221"><ele>88.0</ele><time>2026-03-21T08:56:42.131Z</time></trkpt><trkpt lat="45.3040656" lon="9.2161168"><ele>88.0</ele><time>2026-03-21T08:56:43.132Z</time></trkpt><trkpt lat="45.3039245" lon="9.2163116"><ele>88.0</ele><time>2026-03-21T08:56:44.131Z</time></trkpt><trkpt lat="45.3037851" lon="9.2165111"><ele>88.0</ele><time>2026-03-21T08:56:45.131Z</time></trkpt><trkpt lat="45.3036441" lon="9.2167114"><ele>87.33333333333333</ele><time>2026-03-21T08:56:46.131Z</time></trkpt><trkpt lat="45.3035008" lon="9.2169072"><ele>86.66666666666667</ele><time>2026-03-21T08:56:47.131Z</time></trkpt><trkpt lat="45.303361" lon="9.2170965"><ele>86.0</ele><time>2026-03-21T08:56:48.131Z</time></trkpt><trkpt lat="45.3032297" lon="9.2173029"><ele>86.0</ele><time>2026-03-21T08:56:49.131Z</time></trkpt><trkpt lat="45.3031093" lon="9.2175193"><ele>86.0</ele><time>2026-03-21T08:56:50.132Z</time></trkpt><trkpt lat="45.3030011" lon="9.2177483"><ele>86.0</ele><time>2026-03-21T08:56:51.131Z</time></trkpt><trkpt lat="45.3029103" lon="9.2179935"><ele>86.0</ele><time>2026-03-21T08:56:52.132Z</time></trkpt><trkpt lat="45.3028233" lon="9.2182415"><ele>86.0</ele><time>2026-03-21T08:56:53.132Z</time></trkpt><trkpt lat="45.3027357" lon="9.2184933"><ele>86.0</ele><time>2026-03-21T08:56:54.132Z</time></trkpt><trkpt lat="45.3026479" lon="9.2187494"><ele>86.33333333333334</ele><time>2026-03-21T08:56:55.132Z</time></trkpt><trkpt lat="45.3025584" lon="9.2190036"><ele>86.66666666666667</ele><time>2026-03-21T08:56:56.131Z</time></trkpt><trkpt lat="45.3024695" lon="9.2192618"><ele>87.0</ele><time>2026-03-21T08:56:57.132Z</time></trkpt><trkpt lat="45.3023787" lon="9.2195151"><ele>87.0</ele><time>2026-03-21T08:56:58.131Z</time></trkpt><trkpt lat="45.3022885" lon="9.2197753"><ele>87.0</ele><time>2026-03-21T08:56:59.132Z</time></trkpt><trkpt lat="45.3022058" lon="9.2200302"><ele>87.0</ele><time>2026-03-21T08:57:00.132Z</time></trkpt><trkpt lat="45.3021338" lon="9.220294"><ele>87.0</ele><time>2026-03-21T08:57:01.132Z</time></trkpt><trkpt lat="45.3020914" lon="9.2205607"><ele>87.0</ele><time>2026-03-21T08:57:02.132Z</time></trkpt><trkpt lat="45.3020763" lon="9.2208147"><ele>87.0</ele><time>2026-03-21T08:57:03.132Z</time></trkpt><trkpt lat="45.302076" lon="9.2210561"><ele>87.0</ele><time>2026-03-21T08:57:04.132Z</time></trkpt><trkpt lat="45.3020665" lon="9.2212738"><ele>87.0</ele><time>2026-03-21T08:57:05.132Z</time></trkpt><trkpt lat="45.3020246" lon="9.2214555"><ele>87.0</ele><time>2026-03-21T08:57:06.132Z</time></trkpt><trkpt lat="45.3019446" lon="9.2216027"><ele>87.0</ele><time>2026-03-21T08:57:07.131Z</time></trkpt><trkpt lat="45.301835" lon="9.2216988"><ele>86.75</ele><time>2026-03-21T08:57:08.132Z</time></trkpt><trkpt lat="45.3017072" lon="9.2217648"><ele>86.5</ele><time>2026-03-21T08:57:09.132Z</time></trkpt><trkpt lat="45.3015728" lon="9.2218499"><ele>86.25</ele><time>2026-03-21T08:57:10.132Z</time></trkpt><trkpt lat="45.301436" lon="9.2219521"><ele>86.0</ele><time>2026-03-21T08:57:11.132Z</time></trkpt><trkpt lat="45.3012964" lon="9.2220621"><ele>86.0</ele><time>2026-03-21T08:57:12.132Z</time></trkpt><trkpt lat="45.3011542" lon="9.2221835"><ele>86.0</ele><time>2026-03-21T08:57:13.132Z</time></trkpt><trkpt lat="45.3010134" lon="9.2223195"><ele>86.0</ele><time>2026-03-21T08:57:14.132Z</time></trkpt><trkpt lat="45.3008744" lon="9.2224637"><ele>86.33333333333334</ele><time>2026-03-21T08:57:15.132Z</time></trkpt><trkpt lat="45.3007403" lon="9.22262"><ele>86.66666666666667</ele><time>2026-03-21T08:57:16.132Z</time></trkpt><trkpt lat="45.3006075" lon="9.2227861"><ele>87.0</ele><time>2026-03-21T08:57:17.131Z</time></trkpt><trkpt lat="45.3004733" lon="9.2229512"><ele>86.33333333333333</ele><time>2026-03-21T08:57:18.132Z</time></trkpt><trkpt lat="45.3003402" lon="9.2231172"><ele>85.66666666666666</ele><time>2026-03-21T08:57:19.131Z</time></trkpt><trkpt lat="45.3002031" lon="9.2232801"><ele>85.0</ele><time>2026-03-21T08:57:20.132Z</time></trkpt><trkpt lat="45.3000716" lon="9.2234462"><ele>85.0</ele><time>2026-03-21T08:57:21.132Z</time></trkpt><trkpt lat="45.2999509" lon="9.223622"><ele>85.0</ele><time>2026-03-21T08:57:22.131Z</time></trkpt><trkpt lat="45.2998434" lon="9.2237958"><ele>85.0</ele><time>2026-03-21T08:57:23.131Z</time></trkpt><trkpt lat="45.2997467" lon="9.2239649"><ele>85.5</ele><time>2026-03-21T08:57:24.132Z</time></trkpt><trkpt lat="45.2996542" lon="9.2241124"><ele>86.0</ele><time>2026-03-21T08:57:25.132Z</time></trkpt><trkpt lat="45.2995657" lon="9.2242393"><ele>86.5</ele><time>2026-03-21T08:57:26.131Z</time></trkpt><trkpt lat="45.2994803" lon="9.2243569"><ele>87.0</ele><time>2026-03-21T08:57:27.131Z</time></trkpt><trkpt lat="45.2993993" lon="9.2244712"><ele>87.0</ele><time>2026-03-21T08:57:28.131Z</time></trkpt><trkpt lat="45.2993185" lon="9.2245867"><ele>87.0</ele><time>2026-03-21T08:57:29.131Z</time></trkpt><trkpt lat="45.2992386" lon="9.2247087"><ele>87.0</ele><time>2026-03-21T08:57:30.131Z</time></trkpt><trkpt lat="45.2991586" lon="9.2248284"><ele>87.0</ele><time>2026-03-21T08:57:31.131Z</time></trkpt><trkpt lat="45.2990815" lon="9.2249557"><ele>87.0</ele><time>2026-03-21T08:57:32.131Z</time></trkpt><trkpt lat="45.2990085" lon="9.225086"><ele>87.0</ele><time>2026-03-21T08:57:33.132Z</time></trkpt><trkpt lat="45.2989362" lon="9.2252195"><ele>87.0</ele><time>2026-03-21T08:57:34.132Z</time></trkpt><trkpt lat="45.2988618" lon="9.2253502"><ele>87.0</ele><time>2026-03-21T08:57:35.132Z</time></trkpt><trkpt lat="45.2987785" lon="9.2254736"><ele>86.8</ele><time>2026-03-21T08:57:36.132Z</time></trkpt><trkpt lat="45.2986805" lon="9.2255705"><ele>86.6</ele><time>2026-03-21T08:57:37.132Z</time></trkpt><trkpt lat="45.2985743" lon="9.2256314"><ele>86.39999999999999</ele><time>2026-03-21T08:57:38.131Z</time></trkpt><trkpt lat="45.2984692" lon="9.2256734"><ele>86.19999999999999</ele><time>2026-03-21T08:57:39.132Z</time></trkpt><trkpt lat="45.2983711" lon="9.2257185"><ele>86.0</ele><time>2026-03-21T08:57:40.131Z</time></trkpt><trkpt lat="45.2982745" lon="9.2257707"><ele>86.4</ele><time>2026-03-21T08:57:41.132Z</time></trkpt><trkpt lat="45.2981992" lon="9.2258548"><ele>86.8</ele><time>2026-03-21T08:57:42.132Z</time></trkpt><trkpt lat="45.2981437" lon="9.2259586"><ele>87.2</ele><time>2026-03-21T08:57:43.131Z</time></trkpt><trkpt lat="45.2980982" lon="9.2260753"><ele>87.60000000000001</ele><time>2026-03-21T08:57:44.132Z</time></trkpt><trkpt lat="45.2980581" lon="9.2261864"><ele>88.0</ele><time>2026-03-21T08:57:45.132Z</time></trkpt><trkpt lat="45.2980025" lon="9.2262845"><ele>88.2</ele><time>2026-03-21T08:57:46.132Z</time></trkpt><trkpt lat="45.2979305" lon="9.2263487"><ele>88.4</ele><time>2026-03-21T08:57:47.132Z</time></trkpt><trkpt lat="45.2978366" lon="9.2263895"><ele>88.60000000000001</ele><time>2026-03-21T08:57:48.132Z</time></trkpt><trkpt lat="45.2977418" lon="9.2264169"><ele>88.80000000000001</ele><time>2026-03-21T08:57:49.132Z</time></trkpt><trkpt lat="45.2976336" lon="9.226439"><ele>89.0</ele><time>2026-03-21T08:57:50.132Z</time></trkpt><trkpt lat="45.2975276" lon="9.2264585"><ele>89.0</ele><time>2026-03-21T08:57:51.131Z</time></trkpt><trkpt lat="45.297427" lon="9.2264781"><ele>89.0</ele><time>2026-03-21T08:57:52.132Z</time></trkpt><trkpt lat="45.2973282" lon="9.2265011"><ele>89.0</ele><time>2026-03-21T08:57:53.131Z</time></trkpt><trkpt lat="45.2972355" lon="9.2265229"><ele>89.0</ele><time>2026-03-21T08:57:54.131Z</time></trkpt><trkpt lat="45.2971443" lon="9.2265477"><ele>89.0</ele><time>2026-03-21T08:57:55.132Z</time></trkpt><trkpt lat="45.2970591" lon="9.2265692"><ele>88.83333333333334</ele><time>2026-03-21T08:57:56.132Z</time></trkpt><trkpt lat="45.2969672" lon="9.2266"><ele>88.66666666666667</ele><time>2026-03-21T08:57:57.131Z</time></trkpt><trkpt lat="45.2968813" lon="9.2266388"><ele>88.5</ele><time>2026-03-21T08:57:58.131Z</time></trkpt><trkpt lat="45.2968033" lon="9.2266909"><ele>88.33333333333333</ele><time>2026-03-21T08:57:59.132Z</time></trkpt><trkpt lat="45.296731" lon="9.2267601"><ele>88.16666666666666</ele><time>2026-03-21T08:58:00.131Z</time></trkpt><trkpt lat="45.296682" lon="9.2268502"><ele>88.0</ele><time>2026-03-21T08:58:01.131Z</time></trkpt><trkpt lat="45.2966531" lon="9.2269652"><ele>88.0</ele><time>2026-03-21T08:58:02.132Z</time></trkpt><trkpt lat="45.2966406" lon="9.2270965"><ele>88.0</ele><time>2026-03-21T08:58:03.131Z</time></trkpt><trkpt lat="45.2966521" lon="9.2272292"><ele>88.0</ele><time>2026-03-21T08:58:04.131Z</time></trkpt><trkpt lat="45.2966688" lon="9.2273715"><ele>88.0</ele><time>2026-03-21T08:58:05.132Z</time></trkpt><trkpt lat="45.2966914" lon="9.2275172"><ele>88.0</ele><time>2026-03-21T08:58:06.131Z</time></trkpt><trkpt lat="45.2967177" lon="9.227669"><ele>88.2</ele><time>2026-03-21T08:58:07.131Z</time></trkpt><trkpt lat="45.2967347" lon="9.2278316"><ele>88.4</ele><time>2026-03-21T08:58:08.131Z</time></trkpt><trkpt lat="45.2967406" lon="9.2279934"><ele>88.60000000000001</ele><time>2026-03-21T08:58:09.131Z</time></trkpt><trkpt lat="45.2967267" lon="9.2281492"><ele>88.80000000000001</ele><time>2026-03-21T08:58:10.131Z</time></trkpt><trkpt lat="45.2966966" lon="9.2282876"><ele>89.0</ele><time>2026-03-21T08:58:11.132Z</time></trkpt><trkpt lat="45.2966547" lon="9.2284168"><ele>88.33333333333334</ele><time>2026-03-21T08:58:12.132Z</time></trkpt><trkpt lat="45.2966104" lon="9.2285349"><ele>87.66666666666667</ele><time>2026-03-21T08:58:13.132Z</time></trkpt><trkpt lat="45.2965758" lon="9.2286494"><ele>87.0</ele><time>2026-03-21T08:58:14.131Z</time></trkpt><trkpt lat="45.2965491" lon="9.2287656"><ele>86.33333333333333</ele><time>2026-03-21T08:58:15.132Z</time></trkpt><trkpt lat="45.2965365" lon="9.2288738"><ele>85.66666666666666</ele><time>2026-03-21T08:58:16.132Z</time></trkpt><trkpt lat="45.2965274" lon="9.2289852"><ele>85.0</ele><time>2026-03-21T08:58:17.132Z</time></trkpt><trkpt lat="45.2965195" lon="9.229102"><ele>85.0</ele><time>2026-03-21T08:58:18.132Z</time></trkpt><trkpt lat="45.2965181" lon="9.2292304"><ele>85.0</ele><time>2026-03-21T08:58:19.131Z</time></trkpt><trkpt lat="45.2965209" lon="9.229369"><ele>85.0</ele><time>2026-03-21T08:58:20.132Z</time></trkpt><trkpt lat="45.2965272" lon="9.2295166"><ele>85.0</ele><time>2026-03-21T08:58:21.132Z</time></trkpt><trkpt lat="45.2965303" lon="9.229665"><ele>85.0</ele><time>2026-03-21T08:58:22.132Z</time></trkpt><trkpt lat="45.2965339" lon="9.2298135"><ele>85.2</ele><time>2026-03-21T08:58:23.131Z</time></trkpt><trkpt lat="45.2965393" lon="9.2299577"><ele>85.4</ele><time>2026-03-21T08:58:24.131Z</time></trkpt><trkpt lat="45.296543" lon="9.2301005"><ele>85.6</ele><time>2026-03-21T08:58:25.132Z</time></trkpt><trkpt lat="45.296545" lon="9.2302401"><ele>85.8</ele><time>2026-03-21T08:58:26.132Z</time></trkpt><trkpt lat="45.2965474" lon="9.2303751"><ele>86.0</ele><time>2026-03-21T08:58:27.131Z</time></trkpt><trkpt lat="45.2965505" lon="9.2305027"><ele>86.0</ele><time>2026-03-21T08:58:28.132Z</time></trkpt><trkpt lat="45.2965544" lon="9.2306255"><ele>86.0</ele><time>2026-03-21T08:58:29.131Z</time></trkpt><trkpt lat="45.2965483" lon="9.2307442"><ele>86.0</ele><time>2026-03-21T08:58:30.132Z</time></trkpt><trkpt lat="45.2965261" lon="9.2308622"><ele>86.0</ele><time>2026-03-21T08:58:31.132Z</time></trkpt><trkpt lat="45.2964875" lon="9.2309698"><ele>86.0</ele><time>2026-03-21T08:58:32.131Z</time></trkpt><trkpt lat="45.2964296" lon="9.231053"><ele>86.0</ele><time>2026-03-21T08:58:33.132Z</time></trkpt><trkpt lat="45.2963634" lon="9.2311046"><ele>86.0</ele><time>2026-03-21T08:58:34.132Z</time></trkpt><trkpt lat="45.2962995" lon="9.2311384"><ele>86.0</ele><time>2026-03-21T08:58:35.131Z</time></trkpt><trkpt lat="45.2962272" lon="9.2311716"><ele>86.0</ele><time>2026-03-21T08:58:36.131Z</time></trkpt><trkpt lat="45.296135" lon="9.2312234"><ele>86.0</ele><time>2026-03-21T08:58:37.131Z</time></trkpt><trkpt lat="45.296034" lon="9.231292"><ele>86.0</ele><time>2026-03-21T08:58:38.131Z</time></trkpt><trkpt lat="45.2959085" lon="9.2313723"><ele>86.0</ele><time>2026-03-21T08:58:39.132Z</time></trkpt><trkpt lat="45.2957491" lon="9.2314648"><ele>86.0</ele><time>2026-03-21T08:58:40.131Z</time></trkpt><trkpt lat="45.2955743" lon="9.2315643"><ele>86.0</ele><time>2026-03-21T08:58:41.131Z</time></trkpt><trkpt lat="45.2954115" lon="9.2316568"><ele>86.0</ele><time>2026-03-21T08:58:42.131Z</time></trkpt><trkpt lat="45.2952518" lon="9.2317386"><ele>86.0</ele><time>2026-03-21T08:58:43.132Z</time></trkpt><trkpt lat="45.2950996" lon="9.2317825"><ele>86.0</ele><time>2026-03-21T08:58:44.132Z</time></trkpt><trkpt lat="45.294953" lon="9.2317917"><ele>86.0</ele><time>2026-03-21T08:58:45.132Z</time></trkpt><trkpt lat="45.2948176" lon="9.231776"><ele>86.0</ele><time>2026-03-21T08:58:46.132Z</time></trkpt><trkpt lat="45.2946857" lon="9.2317798"><ele>86.0</ele><time>2026-03-21T08:58:47.132Z</time></trkpt><trkpt lat="45.2945567" lon="9.2318159"><ele>86.0</ele><time>2026-03-21T08:58:48.131Z</time></trkpt><trkpt lat="45.294427" lon="9.2318882"><ele>86.0</ele><time>2026-03-21T08:58:49.132Z</time></trkpt><trkpt lat="45.2943074" lon="9.2319698"><ele>86.0</ele><time>2026-03-21T08:58:50.132Z</time></trkpt><trkpt lat="45.2941996" lon="9.2320462"><ele>86.0</ele><time>2026-03-21T08:58:51.132Z</time></trkpt><trkpt lat="45.2941048" lon="9.2321162"><ele>86.0</ele><time>2026-03-21T08:58:52.131Z</time></trkpt><trkpt lat="45.2940195" lon="9.2321774"><ele>86.0</ele><time>2026-03-21T08:58:53.131Z</time></trkpt><trkpt lat="45.2939372" lon="9.232232"><ele>86.0</ele><time>2026-03-21T08:58:54.132Z</time></trkpt><trkpt lat="45.2938533" lon="9.2322741"><ele>86.0</ele><time>2026-03-21T08:58:55.131Z</time></trkpt><trkpt lat="45.2937753" lon="9.2323004"><ele>86.0</ele><time>2026-03-21T08:58:56.132Z</time></trkpt><trkpt lat="45.2936955" lon="9.2323264"><ele>86.0</ele><time>2026-03-21T08:58:57.131Z</time></trkpt><trkpt lat="45.2936159" lon="9.2323554"><ele>86.0</ele><time>2026-03-21T08:58:58.132Z</time></trkpt><trkpt lat="45.2935395" lon="9.2323792"><ele>85.85714285714286</ele><time>2026-03-21T08:58:59.131Z</time></trkpt><trkpt lat="45.293464" lon="9.2323964"><ele>85.71428571428572</ele><time>2026-03-21T08:59:00.131Z</time></trkpt><trkpt lat="45.2933894" lon="9.2324211"><ele>85.57142857142858</ele><time>2026-03-21T08:59:01.132Z</time></trkpt><trkpt lat="45.2933188" lon="9.2324541"><ele>85.42857142857143</ele><time>2026-03-21T08:59:02.131Z</time></trkpt><trkpt lat="45.293262" lon="9.2325148"><ele>85.28571428571428</ele><time>2026-03-21T08:59:03.131Z</time></trkpt><trkpt lat="45.2932308" lon="9.2326005"><ele>85.14285714285715</ele><time>2026-03-21T08:59:04.132Z</time></trkpt><trkpt lat="45.293227" lon="9.2327155"><ele>85.0</ele><time>2026-03-21T08:59:05.132Z</time></trkpt><trkpt lat="45.2932235" lon="9.2328899"><ele>85.0</ele><time>2026-03-21T08:59:06.132Z</time></trkpt><trkpt lat="45.2932117" lon="9.2331006"><ele>85.0</ele><time>2026-03-21T08:59:07.131Z</time></trkpt><trkpt lat="45.293206" lon="9.2332711"><ele>85.0</ele><time>2026-03-21T08:59:08.132Z</time></trkpt><trkpt lat="45.2931973" lon="9.2334093"><ele>85.0</ele><time>2026-03-21T08:59:09.132Z</time></trkpt><trkpt lat="45.2931834" lon="9.2335182"><ele>85.0</ele><time>2026-03-21T08:59:10.131Z</time></trkpt><trkpt lat="45.2931712" lon="9.2336062"><ele>85.4</ele><time>2026-03-21T08:59:11.132Z</time></trkpt><trkpt lat="45.2931535" lon="9.2337617"><ele>85.8</ele><time>2026-03-21T08:59:13.131Z</time></trkpt><trkpt lat="45.293123" lon="9.233889"><ele>86.19999999999999</ele><time>2026-03-21T08:59:15.131Z</time></trkpt><trkpt lat="45.293056" lon="9.2339844"><ele>86.6</ele><time>2026-03-21T08:59:17.132Z</time></trkpt><trkpt lat="45.2929311" lon="9.2340916"><ele>87.0</ele><time>2026-03-21T08:59:19.131Z</time></trkpt><trkpt lat="45.2928489" lon="9.2341404"><ele>87.0</ele><time>2026-03-21T08:59:20.132Z</time></trkpt><trkpt lat="45.2927721" lon="9.2341825"><ele>87.0</ele><time>2026-03-21T08:59:21.131Z</time></trkpt><trkpt lat="45.2926963" lon="9.2342272"><ele>87.0</ele><time>2026-03-21T08:59:22.132Z</time></trkpt><trkpt lat="45.2926018" lon="9.234282"><ele>87.0</ele><time>2026-03-21T08:59:23.132Z</time></trkpt><trkpt lat="45.2924998" lon="9.2343273"><ele>87.0</ele><time>2026-03-21T08:59:24.132Z</time></trkpt><trkpt lat="45.2924062" lon="9.2343878"><ele>87.0</ele><time>2026-03-21T08:59:25.132Z</time></trkpt><trkpt lat="45.292297" lon="9.2344329"><ele>87.0</ele><time>2026-03-21T08:59:26.132Z</time></trkpt><trkpt lat="45.2921938" lon="9.2344785"><ele>87.0</ele><time>2026-03-21T08:59:27.132Z</time></trkpt><trkpt lat="45.292088" lon="9.2345148"><ele>87.0</ele><time>2026-03-21T08:59:28.132Z</time></trkpt><trkpt lat="45.2919887" lon="9.2345397"><ele>87.0</ele><time>2026-03-21T08:59:29.132Z</time></trkpt><trkpt lat="45.2918841" lon="9.2345562"><ele>86.6</ele><time>2026-03-21T08:59:30.132Z</time></trkpt><trkpt lat="45.2917768" lon="9.2345702"><ele>86.19999999999999</ele><time>2026-03-21T08:59:31.132Z</time></trkpt><trkpt lat="45.2916694" lon="9.2345841"><ele>85.8</ele><time>2026-03-21T08:59:32.132Z</time></trkpt><trkpt lat="45.2915586" lon="9.2345983"><ele>85.4</ele><time>2026-03-21T08:59:33.131Z</time></trkpt><trkpt lat="45.2914464" lon="9.2346072"><ele>85.0</ele><time>2026-03-21T08:59:34.132Z</time></trkpt><trkpt lat="45.2913219" lon="9.2346125"><ele>85.0</ele><time>2026-03-21T08:59:35.132Z</time></trkpt><trkpt lat="45.2911979" lon="9.2346289"><ele>85.0</ele><time>2026-03-21T08:59:36.132Z</time></trkpt><trkpt lat="45.2910774" lon="9.234643"><ele>85.0</ele><time>2026-03-21T08:59:37.132Z</time></trkpt><trkpt lat="45.2909633" lon="9.2346625"><ele>85.0</ele><time>2026-03-21T08:59:38.132Z</time></trkpt><trkpt lat="45.2908565" lon="9.2346865"><ele>85.0</ele><time>2026-03-21T08:59:39.131Z</time></trkpt><trkpt lat="45.2907645" lon="9.2347201"><ele>85.0</ele><time>2026-03-21T08:59:40.132Z</time></trkpt><trkpt lat="45.2906783" lon="9.2347751"><ele>85.0</ele><time>2026-03-21T08:59:41.131Z</time></trkpt><trkpt lat="45.2906068" lon="9.2348247"><ele>85.0</ele><time>2026-03-21T08:59:42.131Z</time></trkpt><trkpt lat="45.2905316" lon="9.234892"><ele>85.0</ele><time>2026-03-21T08:59:44.132Z</time></trkpt><trkpt lat="45.2904782" lon="9.234973"><ele>85.0</ele><time>2026-03-21T08:59:46.131Z</time></trkpt><trkpt lat="45.2904162" lon="9.2350404"><ele>85.5</ele><time>2026-03-21T08:59:47.132Z</time></trkpt><trkpt lat="45.2903301" lon="9.2351242"><ele>86.0</ele><time>2026-03-21T08:59:48.131Z</time></trkpt><trkpt lat="45.2902112" lon="9.2352227"><ele>86.5</ele><time>2026-03-21T08:59:49.132Z</time></trkpt><trkpt lat="45.2900829" lon="9.2353093"><ele>87.0</ele><time>2026-03-21T08:59:50.132Z</time></trkpt><trkpt lat="45.2899624" lon="9.235382"><ele>87.0</ele><time>2026-03-21T08:59:51.131Z</time></trkpt><trkpt lat="45.289846" lon="9.2354435"><ele>87.0</ele><time>2026-03-21T08:59:52.131Z</time></trkpt><trkpt lat="45.2897369" lon="9.2355117"><ele>87.0</ele><time>2026-03-21T08:59:53.131Z</time></trkpt><trkpt lat="45.2896392" lon="9.2355808"><ele>87.0</ele><time>2026-03-21T08:59:54.131Z</time></trkpt><trkpt lat="45.289539" lon="9.2356569"><ele>87.25</ele><time>2026-03-21T08:59:55.131Z</time></trkpt><trkpt lat="45.2894391" lon="9.2357402"><ele>87.5</ele><time>2026-03-21T08:59:56.132Z</time></trkpt><trkpt lat="45.2893431" lon="9.2358221"><ele>87.75</ele><time>2026-03-21T08:59:57.132Z</time></trkpt><trkpt lat="45.2892458" lon="9.2359128"><ele>88.0</ele><time>2026-03-21T08:59:58.132Z</time></trkpt><trkpt lat="45.2891522" lon="9.2359975"><ele>88.0</ele><time>2026-03-21T08:59:59.131Z</time></trkpt><trkpt lat="45.2890605" lon="9.23608"><ele>88.0</ele><time>2026-03-21T09:00:00.131Z</time></trkpt><trkpt lat="45.2889653" lon="9.236151"><ele>88.0</ele><time>2026-03-21T09:00:01.132Z</time></trkpt><trkpt lat="45.2888654" lon="9.2361991"><ele>88.0</ele><time>2026-03-21T09:00:02.132Z</time></trkpt><trkpt lat="45.2887555" lon="9.2362435"><ele>88.0</ele><time>2026-03-21T09:00:03.131Z</time></trkpt><trkpt lat="45.288648" lon="9.2362795"><ele>87.80000000000001</ele><time>2026-03-21T09:00:04.131Z</time></trkpt><trkpt lat="45.288536" lon="9.236311"><ele>87.6</ele><time>2026-03-21T09:00:05.132Z</time></trkpt><trkpt lat="45.2884357" lon="9.2363443"><ele>87.4</ele><time>2026-03-21T09:00:06.131Z</time></trkpt><trkpt lat="45.2883431" lon="9.2363748"><ele>87.19999999999999</ele><time>2026-03-21T09:00:07.132Z</time></trkpt><trkpt lat="45.2882626" lon="9.2364034"><ele>87.0</ele><time>2026-03-21T09:00:08.131Z</time></trkpt><trkpt lat="45.2881965" lon="9.2364304"><ele>87.0</ele><time>2026-03-21T09:00:09.132Z</time></trkpt><trkpt lat="45.2880938" lon="9.2364783"><ele>87.0</ele><time>2026-03-21T09:00:11.131Z</time></trkpt><trkpt lat="45.2880206" lon="9.2365125"><ele>87.0</ele><time>2026-03-21T09:00:12.131Z</time></trkpt><trkpt lat="45.2879389" lon="9.2365504"><ele>87.0</ele><time>2026-03-21T09:00:13.131Z</time></trkpt><trkpt lat="45.2878564" lon="9.2365936"><ele>87.0</ele><time>2026-03-21T09:00:14.132Z</time></trkpt><trkpt lat="45.2877591" lon="9.2366421"><ele>86.8</ele><time>2026-03-21T09:00:15.131Z</time></trkpt><trkpt lat="45.2876558" lon="9.2366985"><ele>86.6</ele><time>2026-03-21T09:00:16.132Z</time></trkpt><trkpt lat="45.2875486" lon="9.2367534"><ele>86.39999999999999</ele><time>2026-03-21T09:00:17.132Z</time></trkpt><trkpt lat="45.2874436" lon="9.2368031"><ele>86.19999999999999</ele><time>2026-03-21T09:00:18.132Z</time></trkpt><trkpt lat="45.2873383" lon="9.2368609"><ele>86.0</ele><time>2026-03-21T09:00:19.131Z</time></trkpt><trkpt lat="45.2872295" lon="9.2369104"><ele>86.0</ele><time>2026-03-21T09:00:20.131Z</time></trkpt><trkpt lat="45.287114" lon="9.2369704"><ele>86.0</ele><time>2026-03-21T09:00:21.131Z</time></trkpt><trkpt lat="45.2869941" lon="9.2370347"><ele>86.0</ele><time>2026-03-21T09:00:22.132Z</time></trkpt><trkpt lat="45.2868731" lon="9.2371112"><ele>86.0</ele><time>2026-03-21T09:00:23.132Z</time></trkpt><trkpt lat="45.2867517" lon="9.237192"><ele>86.0</ele><time>2026-03-21T09:00:24.131Z</time></trkpt><trkpt lat="45.2866262" lon="9.2372735"><ele>86.0</ele><time>2026-03-21T09:00:25.131Z</time></trkpt><trkpt lat="45.2865024" lon="9.2373632"><ele>86.0</ele><time>2026-03-21T09:00:26.132Z</time></trkpt><trkpt lat="45.2863777" lon="9.2374773"><ele>86.0</ele><time>2026-03-21T09:00:27.132Z</time></trkpt><trkpt lat="45.2862486" lon="9.2375866"><ele>85.66666666666667</ele><time>2026-03-21T09:00:28.132Z</time></trkpt><trkpt lat="45.2861177" lon="9.2376974"><ele>85.33333333333333</ele><time>2026-03-21T09:00:29.132Z</time></trkpt><trkpt lat="45.2859871" lon="9.2378114"><ele>85.0</ele><time>2026-03-21T09:00:30.131Z</time></trkpt><trkpt lat="45.2858576" lon="9.2379255"><ele>85.0</ele><time>2026-03-21T09:00:31.131Z</time></trkpt><trkpt lat="45.2857268" lon="9.2380399"><ele>85.0</ele><time>2026-03-21T09:00:32.132Z</time></trkpt><trkpt lat="45.2855973" lon="9.2381549"><ele>85.0</ele><time>2026-03-21T09:00:33.132Z</time></trkpt><trkpt lat="45.2854683" lon="9.238269"><ele>84.66666666666666</ele><time>2026-03-21T09:00:34.131Z</time></trkpt><trkpt lat="45.2853335" lon="9.2383818"><ele>84.33333333333333</ele><time>2026-03-21T09:00:35.132Z</time></trkpt><trkpt lat="45.2852008" lon="9.2384946"><ele>84.0</ele><time>2026-03-21T09:00:36.132Z</time></trkpt><trkpt lat="45.2850665" lon="9.2386042"><ele>84.0</ele><time>2026-03-21T09:00:37.131Z</time></trkpt><trkpt lat="45.2849304" lon="9.2387148"><ele>84.0</ele><time>2026-03-21T09:00:38.131Z</time></trkpt><trkpt lat="45.2847968" lon="9.2388204"><ele>84.0</ele><time>2026-03-21T09:00:39.131Z</time></trkpt><trkpt lat="45.2846616" lon="9.2389262"><ele>83.33333333333333</ele><time>2026-03-21T09:00:40.131Z</time></trkpt><trkpt lat="45.2845244" lon="9.2390257"><ele>82.66666666666666</ele><time>2026-03-21T09:00:41.132Z</time></trkpt><trkpt lat="45.2843852" lon="9.2391249"><ele>82.0</ele><time>2026-03-21T09:00:42.132Z</time></trkpt><trkpt lat="45.2842558" lon="9.2392252"><ele>82.0</ele><time>2026-03-21T09:00:43.132Z</time></trkpt><trkpt lat="45.2841309" lon="9.2393227"><ele>82.0</ele><time>2026-03-21T09:00:44.131Z</time></trkpt><trkpt lat="45.2840161" lon="9.2394161"><ele>82.0</ele><time>2026-03-21T09:00:45.132Z</time></trkpt><trkpt lat="45.2839056" lon="9.2395047"><ele>82.0</ele><time>2026-03-21T09:00:46.131Z</time></trkpt><trkpt lat="45.2837999" lon="9.2395906"><ele>82.0</ele><time>2026-03-21T09:00:47.132Z</time></trkpt><trkpt lat="45.2837006" lon="9.2396714"><ele>82.0</ele><time>2026-03-21T09:00:48.132Z</time></trkpt><trkpt lat="45.2836028" lon="9.2397507"><ele>82.0</ele><time>2026-03-21T09:00:49.131Z</time></trkpt><trkpt lat="45.283506" lon="9.2398305"><ele>82.0</ele><time>2026-03-21T09:00:50.131Z</time></trkpt><trkpt lat="45.2834076" lon="9.2398998"><ele>82.0</ele><time>2026-03-21T09:00:51.132Z</time></trkpt><trkpt lat="45.283301" lon="9.2399626"><ele>82.25</ele><time>2026-03-21T09:00:52.131Z</time></trkpt><trkpt lat="45.2831865" lon="9.2400329"><ele>82.5</ele><time>2026-03-21T09:00:53.132Z</time></trkpt><trkpt lat="45.2830613" lon="9.2401003"><ele>82.75</ele><time>2026-03-21T09:00:54.132Z</time></trkpt><trkpt lat="45.2829314" lon="9.2401671"><ele>83.0</ele><time>2026-03-21T09:00:55.132Z</time></trkpt><trkpt lat="45.2827941" lon="9.2402245"><ele>83.25</ele><time>2026-03-21T09:00:56.132Z</time></trkpt><trkpt lat="45.282654" lon="9.2402701"><ele>83.5</ele><time>2026-03-21T09:00:57.131Z</time></trkpt><trkpt lat="45.2825076" lon="9.2403075"><ele>83.75</ele><time>2026-03-21T09:00:58.131Z</time></trkpt><trkpt lat="45.2823595" lon="9.2403531"><ele>84.0</ele><time>2026-03-21T09:00:59.132Z</time></trkpt><trkpt lat="45.2822062" lon="9.2404048"><ele>84.33333333333333</ele><time>2026-03-21T09:01:00.131Z</time></trkpt><trkpt lat="45.2820505" lon="9.2404575"><ele>84.66666666666666</ele><time>2026-03-21T09:01:01.131Z</time></trkpt><trkpt lat="45.2818951" lon="9.2405208"><ele>85.0</ele><time>2026-03-21T09:01:02.132Z</time></trkpt><trkpt lat="45.2817442" lon="9.2406073"><ele>84.66666666666666</ele><time>2026-03-21T09:01:03.131Z</time></trkpt><trkpt lat="45.2815943" lon="9.2407155"><ele>84.33333333333333</ele><time>2026-03-21T09:01:04.131Z</time></trkpt><trkpt lat="45.2814507" lon="9.2408486"><ele>84.0</ele><time>2026-03-21T09:01:05.132Z</time></trkpt><trkpt lat="45.2813129" lon="9.2410063"><ele>83.66666666666667</ele><time>2026-03-21T09:01:06.131Z</time></trkpt><trkpt lat="45.2811904" lon="9.2411847"><ele>83.33333333333334</ele><time>2026-03-21T09:01:07.132Z</time></trkpt><trkpt lat="45.2810688" lon="9.2413662"><ele>83.0</ele><time>2026-03-21T09:01:08.131Z</time></trkpt><trkpt lat="45.280945" lon="9.241532"><ele>83.0</ele><time>2026-03-21T09:01:09.131Z</time></trkpt><trkpt lat="45.2808257" lon="9.2416745"><ele>83.0</ele><time>2026-03-21T09:01:10.131Z</time></trkpt><trkpt lat="45.2807032" lon="9.2417955"><ele>83.0</ele><time>2026-03-21T09:01:11.132Z</time></trkpt><trkpt lat="45.280583" lon="9.2418902"><ele>83.0</ele><time>2026-03-21T09:01:12.131Z</time></trkpt><trkpt lat="45.2804646" lon="9.2419642"><ele>82.80000000000001</ele><time>2026-03-21T09:01:13.132Z</time></trkpt><trkpt lat="45.2803566" lon="9.2420304"><ele>82.6</ele><time>2026-03-21T09:01:14.132Z</time></trkpt><trkpt lat="45.2802539" lon="9.2420996"><ele>82.4</ele><time>2026-03-21T09:01:15.132Z</time></trkpt><trkpt lat="45.2801595" lon="9.2421562"><ele>82.19999999999999</ele><time>2026-03-21T09:01:16.131Z</time></trkpt><trkpt lat="45.28007" lon="9.2421986"><ele>82.0</ele><time>2026-03-21T09:01:17.131Z</time></trkpt><trkpt lat="45.2799837" lon="9.242218"><ele>82.0</ele><time>2026-03-21T09:01:18.131Z</time></trkpt><trkpt lat="45.2798925" lon="9.2422212"><ele>82.0</ele><time>2026-03-21T09:01:19.132Z</time></trkpt><trkpt lat="45.2798069" lon="9.2422509"><ele>82.0</ele><time>2026-03-21T09:01:20.131Z</time></trkpt><trkpt lat="45.279735" lon="9.2423164"><ele>82.0</ele><time>2026-03-21T09:01:21.131Z</time></trkpt><trkpt lat="45.2796903" lon="9.2424088"><ele>82.0</ele><time>2026-03-21T09:01:22.132Z</time></trkpt><trkpt lat="45.2796707" lon="9.2425256"><ele>82.0</ele><time>2026-03-21T09:01:23.132Z</time></trkpt><trkpt lat="45.279664" lon="9.2426585"><ele>82.0</ele><time>2026-03-21T09:01:24.131Z</time></trkpt><trkpt lat="45.2796466" lon="9.2428087"><ele>82.0</ele><time>2026-03-21T09:01:25.132Z</time></trkpt><trkpt lat="45.2796101" lon="9.2429603"><ele>82.0</ele><time>2026-03-21T09:01:26.132Z</time></trkpt><trkpt lat="45.279547" lon="9.2430839"><ele>82.0</ele><time>2026-03-21T09:01:27.132Z</time></trkpt><trkpt lat="45.2794613" lon="9.2431922"><ele>82.0</ele><time>2026-03-21T09:01:28.131Z</time></trkpt><trkpt lat="45.2793586" lon="9.2432971"><ele>82.33333333333333</ele><time>2026-03-21T09:01:29.131Z</time></trkpt><trkpt lat="45.2792394" lon="9.243404"><ele>82.66666666666667</ele><time>2026-03-21T09:01:30.132Z</time></trkpt><trkpt lat="45.2791099" lon="9.2435195"><ele>83.0</ele><time>2026-03-21T09:01:31.131Z</time></trkpt><trkpt lat="45.2789693" lon="9.2436455"><ele>82.66666666666667</ele><time>2026-03-21T09:01:32.132Z</time></trkpt><trkpt lat="45.2788154" lon="9.2437769"><ele>82.33333333333333</ele><time>2026-03-21T09:01:33.131Z</time></trkpt><trkpt lat="45.2786572" lon="9.2439142"><ele>82.0</ele><time>2026-03-21T09:01:34.131Z</time></trkpt><trkpt lat="45.278498" lon="9.2440658"><ele>82.33333333333333</ele><time>2026-03-21T09:01:35.131Z</time></trkpt><trkpt lat="45.2783441" lon="9.2442407"><ele>82.66666666666667</ele><time>2026-03-21T09:01:36.131Z</time></trkpt><trkpt lat="45.2782057" lon="9.2444453"><ele>83.0</ele><time>2026-03-21T09:01:37.131Z</time></trkpt><trkpt lat="45.2780841" lon="9.2446777"><ele>83.0</ele><time>2026-03-21T09:01:38.132Z</time></trkpt><trkpt lat="45.2779891" lon="9.2449332"><ele>83.0</ele><time>2026-03-21T09:01:39.131Z</time></trkpt><trkpt lat="45.2779212" lon="9.2452036"><ele>83.0</ele><time>2026-03-21T09:01:40.132Z</time></trkpt><trkpt lat="45.2778809" lon="9.2454875"><ele>83.0</ele><time>2026-03-21T09:01:41.132Z</time></trkpt><trkpt lat="45.2778587" lon="9.2457806"><ele>83.0</ele><time>2026-03-21T09:01:42.131Z</time></trkpt><trkpt lat="45.2778393" lon="9.2460794"><ele>83.0</ele><time>2026-03-21T09:01:43.131Z</time></trkpt><trkpt lat="45.2778247" lon="9.2463772"><ele>83.33333333333334</ele><time>2026-03-21T09:01:44.131Z</time></trkpt><trkpt lat="45.2778122" lon="9.2466837"><ele>83.66666666666667</ele><time>2026-03-21T09:01:45.132Z</time></trkpt><trkpt lat="45.2777979" lon="9.2469871"><ele>84.0</ele><time>2026-03-21T09:01:46.132Z</time></trkpt><trkpt lat="45.2777852" lon="9.247289"><ele>84.0</ele><time>2026-03-21T09:01:47.131Z</time></trkpt><trkpt lat="45.277771" lon="9.2475955"><ele>84.0</ele><time>2026-03-21T09:01:48.132Z</time></trkpt><trkpt lat="45.2777572" lon="9.2479045"><ele>84.0</ele><time>2026-03-21T09:01:49.132Z</time></trkpt><trkpt lat="45.2777432" lon="9.2482186"><ele>84.0</ele><time>2026-03-21T09:01:50.132Z</time></trkpt><trkpt lat="45.2777292" lon="9.2485338"><ele>84.0</ele><time>2026-03-21T09:01:51.132Z</time></trkpt><trkpt lat="45.2777127" lon="9.2488551"><ele>84.0</ele><time>2026-03-21T09:01:52.132Z</time></trkpt><trkpt lat="45.2776959" lon="9.2491793"><ele>84.0</ele><time>2026-03-21T09:01:53.132Z</time></trkpt><trkpt lat="45.2776788" lon="9.2495089"><ele>84.0</ele><time>2026-03-21T09:01:54.131Z</time></trkpt><trkpt lat="45.2776602" lon="9.2498407"><ele>85.0</ele><time>2026-03-21T09:01:55.131Z</time></trkpt><trkpt lat="45.2776418" lon="9.2501738"><ele>86.0</ele><time>2026-03-21T09:01:56.132Z</time></trkpt><trkpt lat="45.2776219" lon="9.2505035"><ele>86.0</ele><time>2026-03-21T09:01:57.132Z</time></trkpt><trkpt lat="45.2775899" lon="9.2508314"><ele>86.0</ele><time>2026-03-21T09:01:58.131Z</time></trkpt><trkpt lat="45.277542" lon="9.2511576"><ele>86.0</ele><time>2026-03-21T09:01:59.131Z</time></trkpt><trkpt lat="45.2774792" lon="9.2514775"><ele>86.0</ele><time>2026-03-21T09:02:00.132Z</time></trkpt><trkpt lat="45.2773986" lon="9.2517935"><ele>86.0</ele><time>2026-03-21T09:02:01.131Z</time></trkpt><trkpt lat="45.2773028" lon="9.2520944"><ele>86.0</ele><time>2026-03-21T09:02:02.132Z</time></trkpt><trkpt lat="45.2771884" lon="9.2523866"><ele>85.0</ele><time>2026-03-21T09:02:03.131Z</time></trkpt><trkpt lat="45.2770618" lon="9.2526703"><ele>84.0</ele><time>2026-03-21T09:02:04.132Z</time></trkpt><trkpt lat="45.2769318" lon="9.2529501"><ele>84.5</ele><time>2026-03-21T09:02:05.131Z</time></trkpt><trkpt lat="45.2767991" lon="9.2532312"><ele>85.0</ele><time>2026-03-21T09:02:06.131Z</time></trkpt><trkpt lat="45.2766692" lon="9.253512"><ele>85.0</ele><time>2026-03-21T09:02:07.131Z</time></trkpt><trkpt lat="45.2765376" lon="9.2537935"><ele>85.0</ele><time>2026-03-21T09:02:08.132Z</time></trkpt><trkpt lat="45.2763986" lon="9.2540664"><ele>84.5</ele><time>2026-03-21T09:02:09.132Z</time></trkpt><trkpt lat="45.2762509" lon="9.2543317"><ele>84.0</ele><time>2026-03-21T09:02:10.131Z</time></trkpt><trkpt lat="45.276088" lon="9.2545782"><ele>84.0</ele><time>2026-03-21T09:02:11.131Z</time></trkpt><trkpt lat="45.2759159" lon="9.2548085"><ele>84.0</ele><time>2026-03-21T09:02:12.132Z</time></trkpt><trkpt lat="45.2757325" lon="9.2550246"><ele>84.0</ele><time>2026-03-21T09:02:13.131Z</time></trkpt><trkpt lat="45.2755398" lon="9.2552182"><ele>84.0</ele><time>2026-03-21T09:02:14.131Z</time></trkpt><trkpt lat="45.2753362" lon="9.2553985"><ele>84.0</ele><time>2026-03-21T09:02:15.131Z</time></trkpt><trkpt lat="45.2751255" lon="9.2555633"><ele>84.0</ele><time>2026-03-21T09:02:16.132Z</time></trkpt><trkpt lat="45.2749124" lon="9.2557066"><ele>83.5</ele><time>2026-03-21T09:02:17.132Z</time></trkpt><trkpt lat="45.2746932" lon="9.2558412"><ele>83.0</ele><time>2026-03-21T09:02:18.132Z</time></trkpt><trkpt lat="45.2744701" lon="9.2559664"><ele>83.0</ele><time>2026-03-21T09:02:19.132Z</time></trkpt><trkpt lat="45.2742455" lon="9.2560961"><ele>83.0</ele><time>2026-03-21T09:02:20.131Z</time></trkpt><trkpt lat="45.2740214" lon="9.2562225"><ele>82.5</ele><time>2026-03-21T09:02:21.131Z</time></trkpt><trkpt lat="45.2737971" lon="9.2563469"><ele>82.0</ele><time>2026-03-21T09:02:22.132Z</time></trkpt><trkpt lat="45.273573" lon="9.256474"><ele>81.0</ele><time>2026-03-21T09:02:23.132Z</time></trkpt><trkpt lat="45.2733491" lon="9.256605"><ele>80.0</ele><time>2026-03-21T09:02:24.131Z</time></trkpt><trkpt lat="45.2731254" lon="9.2567328"><ele>80.5</ele><time>2026-03-21T09:02:25.131Z</time></trkpt><trkpt lat="45.272903" lon="9.2568593"><ele>81.0</ele><time>2026-03-21T09:02:26.132Z</time></trkpt><trkpt lat="45.2726778" lon="9.2569881"><ele>81.0</ele><time>2026-03-21T09:02:27.132Z</time></trkpt><trkpt lat="45.2724561" lon="9.2571119"><ele>81.0</ele><time>2026-03-21T09:02:28.131Z</time></trkpt><trkpt lat="45.2722323" lon="9.2572356"><ele>81.0</ele><time>2026-03-21T09:02:29.131Z</time></trkpt><trkpt lat="45.2720079" lon="9.257362"><ele>81.0</ele><time>2026-03-21T09:02:30.132Z</time></trkpt><trkpt lat="45.271784" lon="9.2574856"><ele>81.0</ele><time>2026-03-21T09:02:31.132Z</time></trkpt><trkpt lat="45.2715611" lon="9.2576115"><ele>81.0</ele><time>2026-03-21T09:02:32.132Z</time></trkpt><trkpt lat="45.2713361" lon="9.2577397"><ele>81.0</ele><time>2026-03-21T09:02:33.132Z</time></trkpt><trkpt lat="45.2711168" lon="9.2578689"><ele>81.0</ele><time>2026-03-21T09:02:34.132Z</time></trkpt><trkpt lat="45.2708955" lon="9.2579989"><ele>81.0</ele><time>2026-03-21T09:02:35.132Z</time></trkpt><trkpt lat="45.2706753" lon="9.2581262"><ele>81.0</ele><time>2026-03-21T09:02:36.131Z</time></trkpt><trkpt lat="45.2704554" lon="9.2582516"><ele>80.66666666666667</ele><time>2026-03-21T09:02:37.131Z</time></trkpt><trkpt lat="45.2702466" lon="9.2583794"><ele>80.33333333333334</ele><time>2026-03-21T09:02:38.132Z</time></trkpt><trkpt lat="45.2700587" lon="9.2585191"><ele>80.0</ele><time>2026-03-21T09:02:39.132Z</time></trkpt><trkpt lat="45.269903" lon="9.2586779"><ele>80.0</ele><time>2026-03-21T09:02:40.131Z</time></trkpt><trkpt lat="45.2697798" lon="9.2588602"><ele>80.0</ele><time>2026-03-21T09:02:41.131Z</time></trkpt><trkpt lat="45.2696863" lon="9.2590525"><ele>80.0</ele><time>2026-03-21T09:02:42.132Z</time></trkpt><trkpt lat="45.269627" lon="9.2592534"><ele>80.66666666666667</ele><time>2026-03-21T09:02:43.131Z</time></trkpt><trkpt lat="45.2695945" lon="9.2594666"><ele>81.33333333333333</ele><time>2026-03-21T09:02:44.131Z</time></trkpt><trkpt lat="45.2695946" lon="9.2596873"><ele>82.0</ele><time>2026-03-21T09:02:45.132Z</time></trkpt><trkpt lat="45.2696299" lon="9.2599035"><ele>82.0</ele><time>2026-03-21T09:02:46.132Z</time></trkpt><trkpt lat="45.2696918" lon="9.2601222"><ele>82.0</ele><time>2026-03-21T09:02:47.132Z</time></trkpt><trkpt lat="45.2697677" lon="9.2603565"><ele>82.0</ele><time>2026-03-21T09:02:48.132Z</time></trkpt><trkpt lat="45.2698462" lon="9.2606041"><ele>82.0</ele><time>2026-03-21T09:02:49.131Z</time></trkpt><trkpt lat="45.2699291" lon="9.2608619"><ele>82.0</ele><time>2026-03-21T09:02:50.132Z</time></trkpt><trkpt lat="45.2700138" lon="9.2611219"><ele>82.0</ele><time>2026-03-21T09:02:51.131Z</time></trkpt><trkpt lat="45.2701001" lon="9.2613853"><ele>82.66666666666666</ele><time>2026-03-21T09:02:52.132Z</time></trkpt><trkpt lat="45.2701881" lon="9.2616568"><ele>83.33333333333333</ele><time>2026-03-21T09:02:53.131Z</time></trkpt><trkpt lat="45.2702751" lon="9.261932"><ele>84.0</ele><time>2026-03-21T09:02:54.131Z</time></trkpt><trkpt lat="45.2703669" lon="9.2622072"><ele>83.66666666666667</ele><time>2026-03-21T09:02:55.132Z</time></trkpt><trkpt lat="45.27046" lon="9.2624842"><ele>83.33333333333334</ele><time>2026-03-21T09:02:56.132Z</time></trkpt><trkpt lat="45.2705547" lon="9.2627691"><ele>83.0</ele><time>2026-03-21T09:02:57.131Z</time></trkpt><trkpt lat="45.2706478" lon="9.263058"><ele>82.5</ele><time>2026-03-21T09:02:58.132Z</time></trkpt><trkpt lat="45.2707405" lon="9.2633512"><ele>82.0</ele><time>2026-03-21T09:02:59.132Z</time></trkpt><trkpt lat="45.2708347" lon="9.2636439"><ele>82.0</ele><time>2026-03-21T09:03:00.131Z</time></trkpt><trkpt lat="45.2709286" lon="9.2639403"><ele>82.0</ele><time>2026-03-21T09:03:01.132Z</time></trkpt><trkpt lat="45.2710215" lon="9.2642396"><ele>82.0</ele><time>2026-03-21T09:03:02.131Z</time></trkpt><trkpt lat="45.2711128" lon="9.2645369"><ele>82.0</ele><time>2026-03-21T09:03:03.131Z</time></trkpt><trkpt lat="45.2711977" lon="9.2648377"><ele>82.5</ele><time>2026-03-21T09:03:04.131Z</time></trkpt><trkpt lat="45.2712827" lon="9.2651413"><ele>83.0</ele><time>2026-03-21T09:03:05.132Z</time></trkpt><trkpt lat="45.2713665" lon="9.2654404"><ele>82.0</ele><time>2026-03-21T09:03:06.131Z</time></trkpt><trkpt lat="45.2714486" lon="9.2657407"><ele>81.0</ele><time>2026-03-21T09:03:07.131Z</time></trkpt><trkpt lat="45.2715291" lon="9.2660408"><ele>81.0</ele><time>2026-03-21T09:03:08.131Z</time></trkpt><trkpt lat="45.2716096" lon="9.2663337"><ele>81.0</ele><time>2026-03-21T09:03:09.131Z</time></trkpt><trkpt lat="45.2716855" lon="9.2666098"><ele>81.0</ele><time>2026-03-21T09:03:10.131Z</time></trkpt><trkpt lat="45.2717581" lon="9.2668695"><ele>80.66666666666667</ele><time>2026-03-21T09:03:11.132Z</time></trkpt><trkpt lat="45.271824" lon="9.2671149"><ele>80.33333333333334</ele><time>2026-03-21T09:03:12.131Z</time></trkpt><trkpt lat="45.2718867" lon="9.2673446"><ele>80.0</ele><time>2026-03-21T09:03:13.132Z</time></trkpt><trkpt lat="45.2719435" lon="9.2675589"><ele>79.75</ele><time>2026-03-21T09:03:14.132Z</time></trkpt><trkpt lat="45.2719998" lon="9.2677532"><ele>79.5</ele><time>2026-03-21T09:03:15.132Z</time></trkpt><trkpt lat="45.2720493" lon="9.2679196"><ele>79.25</ele><time>2026-03-21T09:03:16.131Z</time></trkpt><trkpt lat="45.2720857" lon="9.2680645"><ele>79.0</ele><time>2026-03-21T09:03:17.131Z</time></trkpt><trkpt lat="45.2721033" lon="9.2681762"><ele>79.0</ele><time>2026-03-21T09:03:18.132Z</time></trkpt><trkpt lat="45.2721027" lon="9.2682722"><ele>79.0</ele><time>2026-03-21T09:03:19.131Z</time></trkpt><trkpt lat="45.2720304" lon="9.2684287"><ele>79.0</ele><time>2026-03-21T09:03:21.132Z</time></trkpt><trkpt lat="45.2719401" lon="9.2684954"><ele>79.0</ele><time>2026-03-21T09:03:22.131Z</time></trkpt><trkpt lat="45.2718153" lon="9.2685691"><ele>79.0</ele><time>2026-03-21T09:03:23.131Z</time></trkpt><trkpt lat="45.271667" lon="9.2686663"><ele>79.0</ele><time>2026-03-21T09:03:24.131Z</time></trkpt><trkpt lat="45.2714953" lon="9.2687896"><ele>79.0</ele><time>2026-03-21T09:03:25.131Z</time></trkpt><trkpt lat="45.2713027" lon="9.2689238"><ele>79.0</ele><time>2026-03-21T09:03:26.131Z</time></trkpt><trkpt lat="45.2711047" lon="9.2690605"><ele>79.66666666666666</ele><time>2026-03-21T09:03:27.131Z</time></trkpt><trkpt lat="45.2709242" lon="9.2691838"><ele>80.33333333333333</ele><time>2026-03-21T09:03:28.132Z</time></trkpt><trkpt lat="45.2707511" lon="9.269319"><ele>81.0</ele><time>2026-03-21T09:03:29.132Z</time></trkpt><trkpt lat="45.2705899" lon="9.2694766"><ele>81.0</ele><time>2026-03-21T09:03:30.132Z</time></trkpt><trkpt lat="45.2704425" lon="9.2696741"><ele>81.0</ele><time>2026-03-21T09:03:31.131Z</time></trkpt><trkpt lat="45.2703012" lon="9.2699058"><ele>81.0</ele><time>2026-03-21T09:03:32.131Z</time></trkpt><trkpt lat="45.2701619" lon="9.2701554"><ele>80.66666666666667</ele><time>2026-03-21T09:03:33.132Z</time></trkpt><trkpt lat="45.270041" lon="9.2703801"><ele>80.33333333333334</ele><time>2026-03-21T09:03:34.132Z</time></trkpt><trkpt lat="45.2699276" lon="9.270593"><ele>80.0</ele><time>2026-03-21T09:03:35.132Z</time></trkpt><trkpt lat="45.2698212" lon="9.2707775"><ele>80.25</ele><time>2026-03-21T09:03:36.131Z</time></trkpt><trkpt lat="45.2697367" lon="9.2709442"><ele>80.5</ele><time>2026-03-21T09:03:37.132Z</time></trkpt><trkpt lat="45.2696979" lon="9.271134"><ele>80.75</ele><time>2026-03-21T09:03:38.131Z</time></trkpt><trkpt lat="45.2697001" lon="9.2713414"><ele>81.0</ele><time>2026-03-21T09:03:39.131Z</time></trkpt><trkpt lat="45.2697105" lon="9.2716041"><ele>81.0</ele><time>2026-03-21T09:03:40.132Z</time></trkpt><trkpt lat="45.2697092" lon="9.2718731"><ele>81.0</ele><time>2026-03-21T09:03:41.131Z</time></trkpt><trkpt lat="45.2697107" lon="9.2721047"><ele>81.0</ele><time>2026-03-21T09:03:42.132Z</time></trkpt><trkpt lat="45.269698" lon="9.2723024"><ele>81.0</ele><time>2026-03-21T09:03:43.131Z</time></trkpt><trkpt lat="45.2696538" lon="9.2724643"><ele>81.0</ele><time>2026-03-21T09:03:44.132Z</time></trkpt><trkpt lat="45.269576" lon="9.2725804"><ele>81.0</ele><time>2026-03-21T09:03:45.132Z</time></trkpt><trkpt lat="45.2694604" lon="9.2726647"><ele>81.0</ele><time>2026-03-21T09:03:46.132Z</time></trkpt><trkpt lat="45.2693255" lon="9.2727564"><ele>81.0</ele><time>2026-03-21T09:03:47.131Z</time></trkpt><trkpt lat="45.2691568" lon="9.2728896"><ele>81.0</ele><time>2026-03-21T09:03:48.131Z</time></trkpt><trkpt lat="45.2690008" lon="9.2730154"><ele>81.0</ele><time>2026-03-21T09:03:49.132Z</time></trkpt><trkpt lat="45.2688522" lon="9.273131"><ele>81.25</ele><time>2026-03-21T09:03:50.132Z</time></trkpt><trkpt lat="45.268714" lon="9.2732424"><ele>81.5</ele><time>2026-03-21T09:03:51.131Z</time></trkpt><trkpt lat="45.268598" lon="9.2733465"><ele>81.75</ele><time>2026-03-21T09:03:52.132Z</time></trkpt><trkpt lat="45.2684956" lon="9.273443"><ele>82.0</ele><time>2026-03-21T09:03:53.132Z</time></trkpt><trkpt lat="45.2684016" lon="9.2735197"><ele>82.0</ele><time>2026-03-21T09:03:54.131Z</time></trkpt><trkpt lat="45.268309" lon="9.2735654"><ele>82.0</ele><time>2026-03-21T09:03:55.132Z</time></trkpt><trkpt lat="45.2682149" lon="9.2735713"><ele>82.0</ele><time>2026-03-21T09:03:56.131Z</time></trkpt><trkpt lat="45.2681176" lon="9.2736352"><ele>82.0</ele><time>2026-03-21T09:03:57.132Z</time></trkpt><trkpt lat="45.2680249" lon="9.2737397"><ele>82.0</ele><time>2026-03-21T09:03:58.132Z</time></trkpt><trkpt lat="45.2679108" lon="9.2738544"><ele>82.25</ele><time>2026-03-21T09:03:59.131Z</time></trkpt><trkpt lat="45.2677894" lon="9.2739474"><ele>82.5</ele><time>2026-03-21T09:04:00.131Z</time></trkpt><trkpt lat="45.2676715" lon="9.2740441"><ele>82.75</ele><time>2026-03-21T09:04:01.132Z</time></trkpt><trkpt lat="45.2675551" lon="9.2741392"><ele>83.0</ele><time>2026-03-21T09:04:02.131Z</time></trkpt><trkpt lat="45.2674311" lon="9.2742196"><ele>83.0</ele><time>2026-03-21T09:04:03.131Z</time></trkpt><trkpt lat="45.2673039" lon="9.27429"><ele>83.0</ele><time>2026-03-21T09:04:04.131Z</time></trkpt><trkpt lat="45.2671723" lon="9.274352"><ele>83.0</ele><time>2026-03-21T09:04:05.131Z</time></trkpt><trkpt lat="45.2670334" lon="9.2744018"><ele>83.0</ele><time>2026-03-21T09:04:06.131Z</time></trkpt><trkpt lat="45.2668961" lon="9.2744588"><ele>83.0</ele><time>2026-03-21T09:04:07.131Z</time></trkpt><trkpt lat="45.2667605" lon="9.2745209"><ele>83.0</ele><time>2026-03-21T09:04:08.132Z</time></trkpt><trkpt lat="45.2666266" lon="9.2745989"><ele>83.0</ele><time>2026-03-21T09:04:09.132Z</time></trkpt><trkpt lat="45.2665008" lon="9.2746863"><ele>83.0</ele><time>2026-03-21T09:04:10.131Z</time></trkpt><trkpt lat="45.2663777" lon="9.2747938"><ele>83.25</ele><time>2026-03-21T09:04:11.131Z</time></trkpt><trkpt lat="45.2662673" lon="9.274911"><ele>83.5</ele><time>2026-03-21T09:04:12.131Z</time></trkpt><trkpt lat="45.2661607" lon="9.2750289"><ele>83.75</ele><time>2026-03-21T09:04:13.132Z</time></trkpt><trkpt lat="45.2660563" lon="9.2751216"><ele>84.0</ele><time>2026-03-21T09:04:14.131Z</time></trkpt><trkpt lat="45.2659584" lon="9.2751971"><ele>84.0</ele><time>2026-03-21T09:04:15.132Z</time></trkpt><trkpt lat="45.2658718" lon="9.2752313"><ele>84.0</ele><time>2026-03-21T09:04:16.132Z</time></trkpt><trkpt lat="45.2657864" lon="9.2752033"><ele>84.0</ele><time>2026-03-21T09:04:17.132Z</time></trkpt><trkpt lat="45.2656924" lon="9.2751286"><ele>84.0</ele><time>2026-03-21T09:04:18.132Z</time></trkpt><trkpt lat="45.2655756" lon="9.2750199"><ele>84.0</ele><time>2026-03-21T09:04:19.131Z</time></trkpt><trkpt lat="45.265455" lon="9.2749063"><ele>84.0</ele><time>2026-03-21T09:04:20.131Z</time></trkpt><trkpt lat="45.2653452" lon="9.2747987"><ele>84.0</ele><time>2026-03-21T09:04:21.131Z</time></trkpt><trkpt lat="45.2652381" lon="9.2747012"><ele>84.0</ele><time>2026-03-21T09:04:22.132Z</time></trkpt><trkpt lat="45.2651363" lon="9.2746333"><ele>84.0</ele><time>2026-03-21T09:04:23.131Z</time></trkpt><trkpt lat="45.26505" lon="9.2746182"><ele>84.0</ele><time>2026-03-21T09:04:24.132Z</time></trkpt><trkpt lat="45.2649617" lon="9.2746547"><ele>84.0</ele><time>2026-03-21T09:04:25.132Z</time></trkpt><trkpt lat="45.2648428" lon="9.2746912"><ele>84.0</ele><time>2026-03-21T09:04:26.132Z</time></trkpt><trkpt lat="45.2647029" lon="9.2747153"><ele>84.0</ele><time>2026-03-21T09:04:27.132Z</time></trkpt><trkpt lat="45.264543" lon="9.2747599"><ele>83.66666666666667</ele><time>2026-03-21T09:04:28.132Z</time></trkpt><trkpt lat="45.2643724" lon="9.2748219"><ele>83.33333333333334</ele><time>2026-03-21T09:04:29.131Z</time></trkpt><trkpt lat="45.2642095" lon="9.2748859"><ele>83.0</ele><time>2026-03-21T09:04:30.131Z</time></trkpt><trkpt lat="45.2640554" lon="9.274957"><ele>83.0</ele><time>2026-03-21T09:04:31.131Z</time></trkpt><trkpt lat="45.2639068" lon="9.275062"><ele>83.0</ele><time>2026-03-21T09:04:32.131Z</time></trkpt><trkpt lat="45.2637626" lon="9.2752126"><ele>83.0</ele><time>2026-03-21T09:04:33.131Z</time></trkpt><trkpt lat="45.2636182" lon="9.2753759"><ele>83.0</ele><time>2026-03-21T09:04:34.131Z</time></trkpt><trkpt lat="45.2634661" lon="9.2755485"><ele>83.0</ele><time>2026-03-21T09:04:35.132Z</time></trkpt><trkpt lat="45.2633168" lon="9.2757201"><ele>83.0</ele><time>2026-03-21T09:04:36.132Z</time></trkpt><trkpt lat="45.2631779" lon="9.275879"><ele>82.5</ele><time>2026-03-21T09:04:37.132Z</time></trkpt><trkpt lat="45.2630478" lon="9.2760298"><ele>82.0</ele><time>2026-03-21T09:04:38.132Z</time></trkpt><trkpt lat="45.2629341" lon="9.2761585"><ele>81.5</ele><time>2026-03-21T09:04:39.132Z</time></trkpt><trkpt lat="45.2628366" lon="9.2762662"><ele>81.0</ele><time>2026-03-21T09:04:40.132Z</time></trkpt><trkpt lat="45.2627474" lon="9.2763531"><ele>81.0</ele><time>2026-03-21T09:04:41.132Z</time></trkpt><trkpt lat="45.2626721" lon="9.276424"><ele>81.0</ele><time>2026-03-21T09:04:42.132Z</time></trkpt><trkpt lat="45.262605" lon="9.2764888"><ele>81.0</ele><time>2026-03-21T09:04:43.132Z</time></trkpt><trkpt lat="45.2625493" lon="9.276554"><ele>81.0</ele><time>2026-03-21T09:04:44.131Z</time></trkpt><trkpt lat="45.2625025" lon="9.2766204"><ele>81.0</ele><time>2026-03-21T09:04:45.131Z</time></trkpt><trkpt lat="45.2624218" lon="9.2767349"><ele>81.0</ele><time>2026-03-21T09:04:47.131Z</time></trkpt><trkpt lat="45.262372" lon="9.2767987"><ele>80.75</ele><time>2026-03-21T09:04:48.132Z</time></trkpt><trkpt lat="45.2622799" lon="9.2769111"><ele>80.5</ele><time>2026-03-21T09:04:50.132Z</time></trkpt><trkpt lat="45.2622062" lon="9.2769957"><ele>80.25</ele><time>2026-03-21T09:04:51.131Z</time></trkpt><trkpt lat="45.2621055" lon="9.2770991"><ele>80.0</ele><time>2026-03-21T09:04:52.132Z</time></trkpt><trkpt lat="45.2619817" lon="9.2772011"><ele>80.0</ele><time>2026-03-21T09:04:53.131Z</time></trkpt><trkpt lat="45.261877" lon="9.2772981"><ele>80.0</ele><time>2026-03-21T09:04:54.132Z</time></trkpt><trkpt lat="45.2617946" lon="9.2774258"><ele>80.0</ele><time>2026-03-21T09:04:55.131Z</time></trkpt><trkpt lat="45.2617444" lon="9.2775919"><ele>80.0</ele><time>2026-03-21T09:04:56.131Z</time></trkpt><trkpt lat="45.2617253" lon="9.2777946"><ele>80.0</ele><time>2026-03-21T09:04:57.131Z</time></trkpt><trkpt lat="45.2617223" lon="9.2780324"><ele>80.0</ele><time>2026-03-21T09:04:58.132Z</time></trkpt><trkpt lat="45.2617222" lon="9.2783028"><ele>80.0</ele><time>2026-03-21T09:04:59.131Z</time></trkpt><trkpt lat="45.2617224" lon="9.278583"><ele>80.0</ele><time>2026-03-21T09:05:00.131Z</time></trkpt><trkpt lat="45.2617259" lon="9.2788744"><ele>80.0</ele><time>2026-03-21T09:05:01.131Z</time></trkpt><trkpt lat="45.2617301" lon="9.2791455"><ele>80.0</ele><time>2026-03-21T09:05:02.132Z</time></trkpt><trkpt lat="45.2617347" lon="9.2793956"><ele>79.75</ele><time>2026-03-21T09:05:03.132Z</time></trkpt><trkpt lat="45.2617363" lon="9.2796029"><ele>79.5</ele><time>2026-03-21T09:05:04.132Z</time></trkpt><trkpt lat="45.2617273" lon="9.2797754"><ele>79.25</ele><time>2026-03-21T09:05:05.132Z</time></trkpt><trkpt lat="45.2616887" lon="9.2799213"><ele>79.0</ele><time>2026-03-21T09:05:06.131Z</time></trkpt><trkpt lat="45.2616129" lon="9.2800389"><ele>79.0</ele><time>2026-03-21T09:05:07.131Z</time></trkpt><trkpt lat="45.2615098" lon="9.2801576"><ele>79.0</ele><time>2026-03-21T09:05:08.131Z</time></trkpt><trkpt lat="45.2613849" lon="9.2802943"><ele>79.0</ele><time>2026-03-21T09:05:09.131Z</time></trkpt><trkpt lat="45.2612421" lon="9.2804504"><ele>79.33333333333333</ele><time>2026-03-21T09:05:10.132Z</time></trkpt><trkpt lat="45.2610767" lon="9.2806231"><ele>79.66666666666667</ele><time>2026-03-21T09:05:11.132Z</time></trkpt><trkpt lat="45.2608974" lon="9.2807976"><ele>80.0</ele><time>2026-03-21T09:05:12.131Z</time></trkpt><trkpt lat="45.2607085" lon="9.2809822"><ele>79.5</ele><time>2026-03-21T09:05:13.131Z</time></trkpt><trkpt lat="45.2605211" lon="9.2811773"><ele>79.0</ele><time>2026-03-21T09:05:14.132Z</time></trkpt><trkpt lat="45.2603278" lon="9.2813809"><ele>79.0</ele><time>2026-03-21T09:05:15.132Z</time></trkpt><trkpt lat="45.2601353" lon="9.2815895"><ele>79.0</ele><time>2026-03-21T09:05:16.132Z</time></trkpt><trkpt lat="45.2599439" lon="9.2817974"><ele>79.5</ele><time>2026-03-21T09:05:17.131Z</time></trkpt><trkpt lat="45.2597532" lon="9.2820008"><ele>80.0</ele><time>2026-03-21T09:05:18.131Z</time></trkpt><trkpt lat="45.2595608" lon="9.2822047"><ele>79.5</ele><time>2026-03-21T09:05:19.132Z</time></trkpt><trkpt lat="45.2593717" lon="9.2824008"><ele>79.0</ele><time>2026-03-21T09:05:20.132Z</time></trkpt><trkpt lat="45.2591777" lon="9.2825971"><ele>79.0</ele><time>2026-03-21T09:05:21.131Z</time></trkpt><trkpt lat="45.2589817" lon="9.2827906"><ele>79.0</ele><time>2026-03-21T09:05:22.131Z</time></trkpt><trkpt lat="45.258787" lon="9.2829844"><ele>79.33333333333333</ele><time>2026-03-21T09:05:23.131Z</time></trkpt><trkpt lat="45.2586082" lon="9.2831688"><ele>79.66666666666667</ele><time>2026-03-21T09:05:24.131Z</time></trkpt><trkpt lat="45.2584482" lon="9.2833624"><ele>80.0</ele><time>2026-03-21T09:05:25.131Z</time></trkpt><trkpt lat="45.2583196" lon="9.2835723"><ele>80.0</ele><time>2026-03-21T09:05:26.131Z</time></trkpt><trkpt lat="45.2581939" lon="9.2837869"><ele>80.0</ele><time>2026-03-21T09:05:27.131Z</time></trkpt><trkpt lat="45.2580458" lon="9.2839708"><ele>80.0</ele><time>2026-03-21T09:05:28.131Z</time></trkpt><trkpt lat="45.2578724" lon="9.2841182"><ele>80.0</ele><time>2026-03-21T09:05:29.131Z</time></trkpt><trkpt lat="45.2576835" lon="9.2842466"><ele>80.0</ele><time>2026-03-21T09:05:30.132Z</time></trkpt><trkpt lat="45.2574922" lon="9.2843622"><ele>80.0</ele><time>2026-03-21T09:05:31.131Z</time></trkpt><trkpt lat="45.2573089" lon="9.2844711"><ele>80.0</ele><time>2026-03-21T09:05:32.131Z</time></trkpt><trkpt lat="45.2571448" lon="9.2845971"><ele>80.0</ele><time>2026-03-21T09:05:33.132Z</time></trkpt><trkpt lat="45.2569973" lon="9.2847405"><ele>80.0</ele><time>2026-03-21T09:05:34.131Z</time></trkpt><trkpt lat="45.2568488" lon="9.2848806"><ele>79.66666666666667</ele><time>2026-03-21T09:05:35.131Z</time></trkpt><trkpt lat="45.2567002" lon="9.2849965"><ele>79.33333333333333</ele><time>2026-03-21T09:05:36.132Z</time></trkpt><trkpt lat="45.256554" lon="9.2850901"><ele>79.0</ele><time>2026-03-21T09:05:37.131Z</time></trkpt><trkpt lat="45.2564106" lon="9.2851768"><ele>79.5</ele><time>2026-03-21T09:05:38.132Z</time></trkpt><trkpt lat="45.2562774" lon="9.2852729"><ele>80.0</ele><time>2026-03-21T09:05:39.132Z</time></trkpt><trkpt lat="45.2561493" lon="9.2853677"><ele>80.5</ele><time>2026-03-21T09:05:40.132Z</time></trkpt><trkpt lat="45.2560228" lon="9.2854565"><ele>81.0</ele><time>2026-03-21T09:05:41.132Z</time></trkpt><trkpt lat="45.2559018" lon="9.2855438"><ele>81.0</ele><time>2026-03-21T09:05:42.131Z</time></trkpt><trkpt lat="45.2557906" lon="9.2856229"><ele>81.0</ele><time>2026-03-21T09:05:43.132Z</time></trkpt><trkpt lat="45.2556827" lon="9.2857034"><ele>81.0</ele><time>2026-03-21T09:05:44.131Z</time></trkpt><trkpt lat="45.2555785" lon="9.2857784"><ele>81.0</ele><time>2026-03-21T09:05:45.131Z</time></trkpt><trkpt lat="45.2554752" lon="9.2858555"><ele>81.19999999999999</ele><time>2026-03-21T09:05:46.132Z</time></trkpt><trkpt lat="45.2553789" lon="9.2859289"><ele>81.39999999999999</ele><time>2026-03-21T09:05:47.131Z</time></trkpt><trkpt lat="45.255287" lon="9.2859961"><ele>81.6</ele><time>2026-03-21T09:05:48.131Z</time></trkpt><trkpt lat="45.2552008" lon="9.2860683"><ele>81.8</ele><time>2026-03-21T09:05:49.132Z</time></trkpt><trkpt lat="45.2551127" lon="9.286131"><ele>82.0</ele><time>2026-03-21T09:05:50.131Z</time></trkpt><trkpt lat="45.2550297" lon="9.2861854"><ele>82.0</ele><time>2026-03-21T09:05:51.131Z</time></trkpt><trkpt lat="45.2549474" lon="9.2862195"><ele>82.0</ele><time>2026-03-21T09:05:52.132Z</time></trkpt><trkpt lat="45.2548606" lon="9.2862474"><ele>82.0</ele><time>2026-03-21T09:05:53.132Z</time></trkpt><trkpt lat="45.254777" lon="9.2862788"><ele>82.0</ele><time>2026-03-21T09:05:54.131Z</time></trkpt><trkpt lat="45.2547001" lon="9.2863429"><ele>82.0</ele><time>2026-03-21T09:05:55.132Z</time></trkpt><trkpt lat="45.2546032" lon="9.2863857"><ele>82.0</ele><time>2026-03-21T09:05:56.131Z</time></trkpt><trkpt lat="45.2545018" lon="9.2864347"><ele>82.0</ele><time>2026-03-21T09:05:57.131Z</time></trkpt><trkpt lat="45.2543961" lon="9.286487"><ele>82.0</ele><time>2026-03-21T09:05:58.131Z</time></trkpt><trkpt lat="45.2542856" lon="9.2865422"><ele>82.0</ele><time>2026-03-21T09:05:59.132Z</time></trkpt><trkpt lat="45.2541755" lon="9.2866"><ele>82.0</ele><time>2026-03-21T09:06:00.132Z</time></trkpt><trkpt lat="45.2540602" lon="9.2866566"><ele>82.0</ele><time>2026-03-21T09:06:01.132Z</time></trkpt><trkpt lat="45.2539362" lon="9.2867149"><ele>82.0</ele><time>2026-03-21T09:06:02.132Z</time></trkpt><trkpt lat="45.2538084" lon="9.2867728"><ele>82.0</ele><time>2026-03-21T09:06:03.132Z</time></trkpt><trkpt lat="45.2536782" lon="9.286831"><ele>81.75</ele><time>2026-03-21T09:06:04.132Z</time></trkpt><trkpt lat="45.2535394" lon="9.2868947"><ele>81.5</ele><time>2026-03-21T09:06:05.132Z</time></trkpt><trkpt lat="45.2533991" lon="9.2869572"><ele>81.25</ele><time>2026-03-21T09:06:06.132Z</time></trkpt><trkpt lat="45.2532704" lon="9.2870156"><ele>81.0</ele><time>2026-03-21T09:06:07.132Z</time></trkpt><trkpt lat="45.2531565" lon="9.2870673"><ele>81.0</ele><time>2026-03-21T09:06:08.131Z</time></trkpt><trkpt lat="45.2530435" lon="9.2871205"><ele>81.0</ele><time>2026-03-21T09:06:09.132Z</time></trkpt><trkpt lat="45.2529281" lon="9.2871731"><ele>81.0</ele><time>2026-03-21T09:06:10.132Z</time></trkpt><trkpt lat="45.2528146" lon="9.287223"><ele>81.0</ele><time>2026-03-21T09:06:11.132Z</time></trkpt><trkpt lat="45.2527012" lon="9.28728"><ele>81.0</ele><time>2026-03-21T09:06:12.131Z</time></trkpt><trkpt lat="45.2525831" lon="9.2873395"><ele>81.0</ele><time>2026-03-21T09:06:13.132Z</time></trkpt><trkpt lat="45.2524674" lon="9.2874084"><ele>81.0</ele><time>2026-03-21T09:06:14.132Z</time></trkpt><trkpt lat="45.2523553" lon="9.2874848"><ele>81.0</ele><time>2026-03-21T09:06:15.132Z</time></trkpt><trkpt lat="45.2522453" lon="9.2875794"><ele>80.5</ele><time>2026-03-21T09:06:16.131Z</time></trkpt><trkpt lat="45.2521386" lon="9.2876773"><ele>80.0</ele><time>2026-03-21T09:06:17.131Z</time></trkpt><trkpt lat="45.2520312" lon="9.2877941"><ele>79.5</ele><time>2026-03-21T09:06:18.132Z</time></trkpt><trkpt lat="45.2519254" lon="9.2879257"><ele>79.0</ele><time>2026-03-21T09:06:19.132Z</time></trkpt><trkpt lat="45.2518142" lon="9.2880644"><ele>79.33333333333333</ele><time>2026-03-21T09:06:20.131Z</time></trkpt><trkpt lat="45.2517021" lon="9.2882116"><ele>79.66666666666667</ele><time>2026-03-21T09:06:21.132Z</time></trkpt><trkpt lat="45.2515812" lon="9.2883621"><ele>80.0</ele><time>2026-03-21T09:06:22.132Z</time></trkpt><trkpt lat="45.2514596" lon="9.2885111"><ele>79.33333333333334</ele><time>2026-03-21T09:06:23.132Z</time></trkpt><trkpt lat="45.2513393" lon="9.2886555"><ele>78.66666666666667</ele><time>2026-03-21T09:06:24.131Z</time></trkpt><trkpt lat="45.2512122" lon="9.2888072"><ele>78.0</ele><time>2026-03-21T09:06:25.131Z</time></trkpt><trkpt lat="45.251086" lon="9.2889583"><ele>78.0</ele><time>2026-03-21T09:06:26.132Z</time></trkpt><trkpt lat="45.2509526" lon="9.2891139"><ele>78.0</ele><time>2026-03-21T09:06:27.132Z</time></trkpt><trkpt lat="45.2508068" lon="9.2892698"><ele>78.0</ele><time>2026-03-21T09:06:28.131Z</time></trkpt><trkpt lat="45.2506543" lon="9.2894217"><ele>77.66666666666667</ele><time>2026-03-21T09:06:29.132Z</time></trkpt><trkpt lat="45.2504912" lon="9.2895671"><ele>77.33333333333334</ele><time>2026-03-21T09:06:30.132Z</time></trkpt><trkpt lat="45.2503237" lon="9.289712"><ele>77.0</ele><time>2026-03-21T09:06:31.131Z</time></trkpt><trkpt lat="45.250153" lon="9.2898579"><ele>77.0</ele><time>2026-03-21T09:06:32.131Z</time></trkpt><trkpt lat="45.2499856" lon="9.2899985"><ele>77.0</ele><time>2026-03-21T09:06:33.131Z</time></trkpt><trkpt lat="45.2498281" lon="9.2901387"><ele>77.0</ele><time>2026-03-21T09:06:34.131Z</time></trkpt><trkpt lat="45.249683" lon="9.2902778"><ele>77.0</ele><time>2026-03-21T09:06:35.132Z</time></trkpt><trkpt lat="45.2495566" lon="9.2904214"><ele>77.0</ele><time>2026-03-21T09:06:36.131Z</time></trkpt><trkpt lat="45.2494506" lon="9.2905833"><ele>77.0</ele><time>2026-03-21T09:06:37.132Z</time></trkpt><trkpt lat="45.2493716" lon="9.2907678"><ele>77.33333333333334</ele><time>2026-03-21T09:06:38.132Z</time></trkpt><trkpt lat="45.2493177" lon="9.2909778"><ele>77.66666666666667</ele><time>2026-03-21T09:06:39.131Z</time></trkpt><trkpt lat="45.2492862" lon="9.2911985"><ele>78.0</ele><time>2026-03-21T09:06:40.132Z</time></trkpt><trkpt lat="45.2492729" lon="9.2914317"><ele>78.0</ele><time>2026-03-21T09:06:41.132Z</time></trkpt><trkpt lat="45.2492711" lon="9.2916685"><ele>78.0</ele><time>2026-03-21T09:06:42.131Z</time></trkpt><trkpt lat="45.249272" lon="9.291906"><ele>78.0</ele><time>2026-03-21T09:06:43.131Z</time></trkpt><trkpt lat="45.2492703" lon="9.2921389"><ele>77.5</ele><time>2026-03-21T09:06:44.131Z</time></trkpt><trkpt lat="45.2492668" lon="9.2923655"><ele>77.0</ele><time>2026-03-21T09:06:45.132Z</time></trkpt><trkpt lat="45.2492655" lon="9.2925724"><ele>76.5</ele><time>2026-03-21T09:06:46.132Z</time></trkpt><trkpt lat="45.2492638" lon="9.2927703"><ele>76.0</ele><time>2026-03-21T09:06:47.132Z</time></trkpt><trkpt lat="45.249262" lon="9.2929625"><ele>76.0</ele><time>2026-03-21T09:06:48.132Z</time></trkpt><trkpt lat="45.2492599" lon="9.2931498"><ele>76.0</ele><time>2026-03-21T09:06:49.131Z</time></trkpt><trkpt lat="45.249258" lon="9.2933354"><ele>76.0</ele><time>2026-03-21T09:06:50.131Z</time></trkpt><trkpt lat="45.2492606" lon="9.2935244"><ele>76.0</ele><time>2026-03-21T09:06:51.132Z</time></trkpt><trkpt lat="45.2492525" lon="9.2937062"><ele>76.0</ele><time>2026-03-21T09:06:52.132Z</time></trkpt><trkpt lat="45.2492413" lon="9.2938803"><ele>76.0</ele><time>2026-03-21T09:06:53.132Z</time></trkpt><trkpt lat="45.2492239" lon="9.2940446"><ele>76.0</ele><time>2026-03-21T09:06:54.131Z</time></trkpt><trkpt lat="45.2491891" lon="9.2941863"><ele>76.0</ele><time>2026-03-21T09:06:55.132Z</time></trkpt><trkpt lat="45.2491293" lon="9.2943158"><ele>76.0</ele><time>2026-03-21T09:06:56.132Z</time></trkpt><trkpt lat="45.2490547" lon="9.2944378"><ele>76.0</ele><time>2026-03-21T09:06:57.132Z</time></trkpt><trkpt lat="45.2489695" lon="9.2945667"><ele>76.0</ele><time>2026-03-21T09:06:58.132Z</time></trkpt><trkpt lat="45.2488911" lon="9.2947093"><ele>76.0</ele><time>2026-03-21T09:06:59.131Z</time></trkpt><trkpt lat="45.2488195" lon="9.2948469"><ele>76.6</ele><time>2026-03-21T09:07:00.131Z</time></trkpt><trkpt lat="45.2487516" lon="9.2949613"><ele>77.19999999999999</ele><time>2026-03-21T09:07:01.132Z</time></trkpt><trkpt lat="45.2486783" lon="9.2950553"><ele>77.80000000000001</ele><time>2026-03-21T09:07:02.131Z</time></trkpt><trkpt lat="45.2485998" lon="9.2951277"><ele>78.4</ele><time>2026-03-21T09:07:03.131Z</time></trkpt><trkpt lat="45.2485176" lon="9.2951933"><ele>79.0</ele><time>2026-03-21T09:07:04.131Z</time></trkpt><trkpt lat="45.2484328" lon="9.2952466"><ele>79.0</ele><time>2026-03-21T09:07:05.132Z</time></trkpt><trkpt lat="45.2483399" lon="9.2952941"><ele>79.0</ele><time>2026-03-21T09:07:06.131Z</time></trkpt><trkpt lat="45.2482459" lon="9.2953364"><ele>79.0</ele><time>2026-03-21T09:07:07.131Z</time></trkpt><trkpt lat="45.2481411" lon="9.295358"><ele>79.0</ele><time>2026-03-21T09:07:08.132Z</time></trkpt><trkpt lat="45.2480396" lon="9.2953709"><ele>79.0</ele><time>2026-03-21T09:07:09.131Z</time></trkpt><trkpt lat="45.2479438" lon="9.2953782"><ele>79.16666666666666</ele><time>2026-03-21T09:07:10.131Z</time></trkpt><trkpt lat="45.2478493" lon="9.295389"><ele>79.33333333333333</ele><time>2026-03-21T09:07:11.132Z</time></trkpt><trkpt lat="45.2477653" lon="9.2954035"><ele>79.5</ele><time>2026-03-21T09:07:12.131Z</time></trkpt><trkpt lat="45.2476848" lon="9.2954477"><ele>79.66666666666667</ele><time>2026-03-21T09:07:13.132Z</time></trkpt><trkpt lat="45.2476195" lon="9.295528"><ele>79.83333333333334</ele><time>2026-03-21T09:07:14.132Z</time></trkpt><trkpt lat="45.2475691" lon="9.2956354"><ele>80.0</ele><time>2026-03-21T09:07:15.132Z</time></trkpt><trkpt lat="45.2474999" lon="9.295744"><ele>79.8</ele><time>2026-03-21T09:07:16.132Z</time></trkpt><trkpt lat="45.2474139" lon="9.295824"><ele>79.6</ele><time>2026-03-21T09:07:17.131Z</time></trkpt><trkpt lat="45.2473273" lon="9.2959054"><ele>79.4</ele><time>2026-03-21T09:07:18.132Z</time></trkpt><trkpt lat="45.2472387" lon="9.2959867"><ele>79.2</ele><time>2026-03-21T09:07:19.131Z</time></trkpt><trkpt lat="45.2471507" lon="9.2960779"><ele>79.0</ele><time>2026-03-21T09:07:20.132Z</time></trkpt><trkpt lat="45.2470648" lon="9.2961603"><ele>79.0</ele><time>2026-03-21T09:07:21.131Z</time></trkpt><trkpt lat="45.2469885" lon="9.2962411"><ele>79.0</ele><time>2026-03-21T09:07:22.131Z</time></trkpt><trkpt lat="45.2469205" lon="9.2963316"><ele>79.0</ele><time>2026-03-21T09:07:23.131Z</time></trkpt><trkpt lat="45.246854" lon="9.2964294"><ele>79.0</ele><time>2026-03-21T09:07:24.132Z</time></trkpt><trkpt lat="45.246789" lon="9.2965345"><ele>79.0</ele><time>2026-03-21T09:07:25.131Z</time></trkpt><trkpt lat="45.2467328" lon="9.2966439"><ele>78.75</ele><time>2026-03-21T09:07:26.132Z</time></trkpt><trkpt lat="45.2466896" lon="9.296845"><ele>78.5</ele><time>2026-03-21T09:07:27.132Z</time></trkpt><trkpt lat="45.2466973" lon="9.2970549"><ele>78.25</ele><time>2026-03-21T09:07:28.132Z</time></trkpt><trkpt lat="45.2467318" lon="9.2972402"><ele>78.0</ele><time>2026-03-21T09:07:29.132Z</time></trkpt><trkpt lat="45.2467741" lon="9.2974266"><ele>78.0</ele><time>2026-03-21T09:07:30.132Z</time></trkpt><trkpt lat="45.2467943" lon="9.2976219"><ele>78.0</ele><time>2026-03-21T09:07:31.131Z</time></trkpt><trkpt lat="45.2467741" lon="9.2978022"><ele>78.0</ele><time>2026-03-21T09:07:32.132Z</time></trkpt><trkpt lat="45.2467419" lon="9.2979638"><ele>78.0</ele><time>2026-03-21T09:07:33.132Z</time></trkpt><trkpt lat="45.2467045" lon="9.2981263"><ele>78.0</ele><time>2026-03-21T09:07:34.132Z</time></trkpt><trkpt lat="45.2466565" lon="9.2982948"><ele>78.0</ele><time>2026-03-21T09:07:35.131Z</time></trkpt><trkpt lat="45.246605" lon="9.2984752"><ele>78.0</ele><time>2026-03-21T09:07:36.131Z</time></trkpt><trkpt lat="45.2465699" lon="9.2986801"><ele>78.0</ele><time>2026-03-21T09:07:37.132Z</time></trkpt><trkpt lat="45.2465457" lon="9.298905"><ele>78.0</ele><time>2026-03-21T09:07:38.132Z</time></trkpt><trkpt lat="45.2465285" lon="9.2991439"><ele>78.0</ele><time>2026-03-21T09:07:39.131Z</time></trkpt><trkpt lat="45.2465134" lon="9.2993909"><ele>78.0</ele><time>2026-03-21T09:07:40.131Z</time></trkpt><trkpt lat="45.2465062" lon="9.2996311"><ele>78.33333333333333</ele><time>2026-03-21T09:07:41.131Z</time></trkpt><trkpt lat="45.2465076" lon="9.2998638"><ele>78.66666666666666</ele><time>2026-03-21T09:07:42.132Z</time></trkpt><trkpt lat="45.2465075" lon="9.3000894"><ele>79.0</ele><time>2026-03-21T09:07:43.131Z</time></trkpt><trkpt lat="45.2464999" lon="9.3003206"><ele>78.33333333333333</ele><time>2026-03-21T09:07:44.132Z</time></trkpt><trkpt lat="45.2464477" lon="9.300536"><ele>77.66666666666667</ele><time>2026-03-21T09:07:45.132Z</time></trkpt><trkpt lat="45.2463603" lon="9.3007421"><ele>77.0</ele><time>2026-03-21T09:07:46.131Z</time></trkpt><trkpt lat="45.2462547" lon="9.3009524"><ele>77.0</ele><time>2026-03-21T09:07:47.131Z</time></trkpt><trkpt lat="45.2461412" lon="9.3011788"><ele>77.0</ele><time>2026-03-21T09:07:48.131Z</time></trkpt><trkpt lat="45.2460344" lon="9.3014039"><ele>77.0</ele><time>2026-03-21T09:07:49.132Z</time></trkpt><trkpt lat="45.2459449" lon="9.3016197"><ele>77.0</ele><time>2026-03-21T09:07:50.132Z</time></trkpt><trkpt lat="45.2458765" lon="9.3018362"><ele>77.0</ele><time>2026-03-21T09:07:51.132Z</time></trkpt><trkpt lat="45.2458359" lon="9.3020723"><ele>77.0</ele><time>2026-03-21T09:07:52.131Z</time></trkpt><trkpt lat="45.245813" lon="9.3023292"><ele>77.0</ele><time>2026-03-21T09:07:53.131Z</time></trkpt><trkpt lat="45.2457841" lon="9.3026024"><ele>77.0</ele><time>2026-03-21T09:07:54.131Z</time></trkpt><trkpt lat="45.2457609" lon="9.3028869"><ele>77.0</ele><time>2026-03-21T09:07:55.131Z</time></trkpt><trkpt lat="45.2457548" lon="9.3031751"><ele>77.0</ele><time>2026-03-21T09:07:56.132Z</time></trkpt><trkpt lat="45.2457723" lon="9.3034706"><ele>77.0</ele><time>2026-03-21T09:07:57.132Z</time></trkpt><trkpt lat="45.2457829" lon="9.3037728"><ele>77.0</ele><time>2026-03-21T09:07:58.131Z</time></trkpt><trkpt lat="45.2457626" lon="9.3040769"><ele>76.66666666666667</ele><time>2026-03-21T09:07:59.131Z</time></trkpt><trkpt lat="45.2457221" lon="9.3043581"><ele>76.33333333333333</ele><time>2026-03-21T09:08:00.131Z</time></trkpt><trkpt lat="45.2456587" lon="9.3046364"><ele>76.0</ele><time>2026-03-21T09:08:01.132Z</time></trkpt><trkpt lat="45.2455965" lon="9.3049237"><ele>76.0</ele><time>2026-03-21T09:08:02.132Z</time></trkpt><trkpt lat="45.2455286" lon="9.3052131"><ele>76.0</ele><time>2026-03-21T09:08:03.132Z</time></trkpt><trkpt lat="45.2454578" lon="9.3055013"><ele>76.0</ele><time>2026-03-21T09:08:04.131Z</time></trkpt><trkpt lat="45.2453822" lon="9.3057872"><ele>75.66666666666666</ele><time>2026-03-21T09:08:05.132Z</time></trkpt><trkpt lat="45.2453015" lon="9.3060686"><ele>75.33333333333333</ele><time>2026-03-21T09:08:06.132Z</time></trkpt><trkpt lat="45.2452134" lon="9.3063492"><ele>75.0</ele><time>2026-03-21T09:08:07.131Z</time></trkpt><trkpt lat="45.2451138" lon="9.3066264"><ele>75.0</ele><time>2026-03-21T09:08:08.131Z</time></trkpt><trkpt lat="45.2449998" lon="9.3068997"><ele>75.0</ele><time>2026-03-21T09:08:09.132Z</time></trkpt><trkpt lat="45.2448688" lon="9.3071678"><ele>75.0</ele><time>2026-03-21T09:08:10.131Z</time></trkpt><trkpt lat="45.2447268" lon="9.3074421"><ele>75.0</ele><time>2026-03-21T09:08:11.132Z</time></trkpt><trkpt lat="45.2445748" lon="9.3077183"><ele>75.0</ele><time>2026-03-21T09:08:12.132Z</time></trkpt><trkpt lat="45.2444205" lon="9.3079993"><ele>75.0</ele><time>2026-03-21T09:08:13.131Z</time></trkpt><trkpt lat="45.2442626" lon="9.3082909"><ele>75.5</ele><time>2026-03-21T09:08:14.132Z</time></trkpt><trkpt lat="45.2441041" lon="9.3085851"><ele>76.0</ele><time>2026-03-21T09:08:15.131Z</time></trkpt><trkpt lat="45.2439436" lon="9.3088832"><ele>74.5</ele><time>2026-03-21T09:08:16.132Z</time></trkpt><trkpt lat="45.2437771" lon="9.3091843"><ele>73.0</ele><time>2026-03-21T09:08:17.132Z</time></trkpt><trkpt lat="45.2436104" lon="9.3094878"><ele>73.5</ele><time>2026-03-21T09:08:18.131Z</time></trkpt><trkpt lat="45.2434393" lon="9.3097924"><ele>74.0</ele><time>2026-03-21T09:08:19.131Z</time></trkpt><trkpt lat="45.243267" lon="9.3100928"><ele>74.5</ele><time>2026-03-21T09:08:20.132Z</time></trkpt><trkpt lat="45.2430971" lon="9.3104039"><ele>75.0</ele><time>2026-03-21T09:08:21.131Z</time></trkpt><trkpt lat="45.24293" lon="9.3107085"><ele>75.0</ele><time>2026-03-21T09:08:22.131Z</time></trkpt><trkpt lat="45.2427654" lon="9.311019"><ele>75.0</ele><time>2026-03-21T09:08:23.132Z</time></trkpt><trkpt lat="45.2425962" lon="9.3113247"><ele>75.5</ele><time>2026-03-21T09:08:24.132Z</time></trkpt><trkpt lat="45.2424301" lon="9.3116353"><ele>76.0</ele><time>2026-03-21T09:08:25.132Z</time></trkpt><trkpt lat="45.2422634" lon="9.3119445"><ele>76.0</ele><time>2026-03-21T09:08:26.132Z</time></trkpt><trkpt lat="45.2420952" lon="9.3122565"><ele>76.0</ele><time>2026-03-21T09:08:27.131Z</time></trkpt><trkpt lat="45.241927" lon="9.3125688"><ele>76.0</ele><time>2026-03-21T09:08:28.132Z</time></trkpt><trkpt lat="45.2417568" lon="9.3128752"><ele>76.0</ele><time>2026-03-21T09:08:29.132Z</time></trkpt><trkpt lat="45.241588" lon="9.3131869"><ele>75.0</ele><time>2026-03-21T09:08:30.132Z</time></trkpt><trkpt lat="45.2414213" lon="9.3134997"><ele>74.0</ele><time>2026-03-21T09:08:31.132Z</time></trkpt><trkpt lat="45.2412544" lon="9.3138115"><ele>73.5</ele><time>2026-03-21T09:08:32.132Z</time></trkpt><trkpt lat="45.2410837" lon="9.3141212"><ele>73.0</ele><time>2026-03-21T09:08:33.132Z</time></trkpt><trkpt lat="45.2409174" lon="9.3144241"><ele>73.0</ele><time>2026-03-21T09:08:34.131Z</time></trkpt><trkpt lat="45.2407544" lon="9.3147288"><ele>73.0</ele><time>2026-03-21T09:08:35.131Z</time></trkpt><trkpt lat="45.2405933" lon="9.3150314"><ele>73.0</ele><time>2026-03-21T09:08:36.131Z</time></trkpt><trkpt lat="45.2404384" lon="9.3153212"><ele>73.0</ele><time>2026-03-21T09:08:37.131Z</time></trkpt><trkpt lat="45.2402907" lon="9.3155961"><ele>73.66666666666666</ele><time>2026-03-21T09:08:38.131Z</time></trkpt><trkpt lat="45.2401543" lon="9.3158471"><ele>74.33333333333333</ele><time>2026-03-21T09:08:39.132Z</time></trkpt><trkpt lat="45.2400224" lon="9.3160848"><ele>75.0</ele><time>2026-03-21T09:08:40.132Z</time></trkpt><trkpt lat="45.2398932" lon="9.3162963"><ele>74.66666666666667</ele><time>2026-03-21T09:08:41.131Z</time></trkpt><trkpt lat="45.2397613" lon="9.3164959"><ele>74.33333333333334</ele><time>2026-03-21T09:08:42.131Z</time></trkpt><trkpt lat="45.239628" lon="9.3166787"><ele>74.0</ele><time>2026-03-21T09:08:43.132Z</time></trkpt><trkpt lat="45.239493" lon="9.3168474"><ele>74.0</ele><time>2026-03-21T09:08:44.131Z</time></trkpt><trkpt lat="45.2393504" lon="9.3170112"><ele>74.0</ele><time>2026-03-21T09:08:45.132Z</time></trkpt><trkpt lat="45.2392026" lon="9.317164"><ele>74.0</ele><time>2026-03-21T09:08:46.132Z</time></trkpt><trkpt lat="45.2390486" lon="9.317307"><ele>73.66666666666667</ele><time>2026-03-21T09:08:47.132Z</time></trkpt><trkpt lat="45.2388886" lon="9.3174518"><ele>73.33333333333333</ele><time>2026-03-21T09:08:48.131Z</time></trkpt><trkpt lat="45.2387216" lon="9.3175969"><ele>73.0</ele><time>2026-03-21T09:08:49.132Z</time></trkpt><trkpt lat="45.2385434" lon="9.3177385"><ele>73.0</ele><time>2026-03-21T09:08:50.132Z</time></trkpt><trkpt lat="45.2383607" lon="9.3178802"><ele>73.0</ele><time>2026-03-21T09:08:51.131Z</time></trkpt><trkpt lat="45.2381678" lon="9.3180185"><ele>73.0</ele><time>2026-03-21T09:08:52.132Z</time></trkpt><trkpt lat="45.2379757" lon="9.3181552"><ele>73.33333333333333</ele><time>2026-03-21T09:08:53.131Z</time></trkpt><trkpt lat="45.2377812" lon="9.3182959"><ele>73.66666666666667</ele><time>2026-03-21T09:08:54.131Z</time></trkpt><trkpt lat="45.2375814" lon="9.3184395"><ele>74.0</ele><time>2026-03-21T09:08:55.132Z</time></trkpt><trkpt lat="45.2373793" lon="9.3185887"><ele>73.5</ele><time>2026-03-21T09:08:56.131Z</time></trkpt><trkpt lat="45.2371709" lon="9.3187355"><ele>73.0</ele><time>2026-03-21T09:08:57.132Z</time></trkpt><trkpt lat="45.2369561" lon="9.3188937"><ele>73.5</ele><time>2026-03-21T09:08:58.132Z</time></trkpt><trkpt lat="45.2367328" lon="9.3190563"><ele>74.0</ele><time>2026-03-21T09:08:59.132Z</time></trkpt><trkpt lat="45.2365015" lon="9.3192334"><ele>74.0</ele><time>2026-03-21T09:09:00.132Z</time></trkpt><trkpt lat="45.2362617" lon="9.3194084"><ele>74.0</ele><time>2026-03-21T09:09:01.132Z</time></trkpt><trkpt lat="45.2360205" lon="9.3195821"><ele>74.5</ele><time>2026-03-21T09:09:02.131Z</time></trkpt><trkpt lat="45.2357883" lon="9.3197478"><ele>75.0</ele><time>2026-03-21T09:09:03.131Z</time></trkpt><trkpt lat="45.2355581" lon="9.3199018"><ele>73.5</ele><time>2026-03-21T09:09:04.131Z</time></trkpt><trkpt lat="45.2353382" lon="9.3200472"><ele>72.0</ele><time>2026-03-21T09:09:05.132Z</time></trkpt><trkpt lat="45.2351226" lon="9.320194"><ele>72.0</ele><time>2026-03-21T09:09:06.132Z</time></trkpt><trkpt lat="45.2349131" lon="9.3203419"><ele>72.0</ele><time>2026-03-21T09:09:07.131Z</time></trkpt><trkpt lat="45.2347075" lon="9.3204903"><ele>72.5</ele><time>2026-03-21T09:09:08.131Z</time></trkpt><trkpt lat="45.2345003" lon="9.3206344"><ele>73.0</ele><time>2026-03-21T09:09:09.131Z</time></trkpt><trkpt lat="45.2342907" lon="9.3207826"><ele>73.0</ele><time>2026-03-21T09:09:10.131Z</time></trkpt><trkpt lat="45.23408" lon="9.3209326"><ele>73.0</ele><time>2026-03-21T09:09:11.131Z</time></trkpt><trkpt lat="45.2338712" lon="9.3210889"><ele>72.5</ele><time>2026-03-21T09:09:12.131Z</time></trkpt><trkpt lat="45.2336617" lon="9.3212415"><ele>72.0</ele><time>2026-03-21T09:09:13.132Z</time></trkpt><trkpt lat="45.2334471" lon="9.3213927"><ele>72.5</ele><time>2026-03-21T09:09:14.131Z</time></trkpt><trkpt lat="45.233235" lon="9.3215418"><ele>73.0</ele><time>2026-03-21T09:09:15.132Z</time></trkpt><trkpt lat="45.2330219" lon="9.3217018"><ele>72.0</ele><time>2026-03-21T09:09:16.131Z</time></trkpt><trkpt lat="45.2328118" lon="9.321869"><ele>71.0</ele><time>2026-03-21T09:09:17.132Z</time></trkpt><trkpt lat="45.232606" lon="9.3220483"><ele>72.0</ele><time>2026-03-21T09:09:18.131Z</time></trkpt><trkpt lat="45.2324099" lon="9.3222402"><ele>73.0</ele><time>2026-03-21T09:09:19.131Z</time></trkpt><trkpt lat="45.2322183" lon="9.3224474"><ele>73.0</ele><time>2026-03-21T09:09:20.131Z</time></trkpt><trkpt lat="45.2320312" lon="9.3226678"><ele>73.0</ele><time>2026-03-21T09:09:21.132Z</time></trkpt><trkpt lat="45.2318516" lon="9.3228986"><ele>73.5</ele><time>2026-03-21T09:09:22.131Z</time></trkpt><trkpt lat="45.23167" lon="9.3231342"><ele>74.0</ele><time>2026-03-21T09:09:23.132Z</time></trkpt><trkpt lat="45.2314909" lon="9.3233639"><ele>74.5</ele><time>2026-03-21T09:09:24.131Z</time></trkpt><trkpt lat="45.2313109" lon="9.323589"><ele>75.0</ele><time>2026-03-21T09:09:25.131Z</time></trkpt><trkpt lat="45.2311325" lon="9.3238163"><ele>75.0</ele><time>2026-03-21T09:09:26.132Z</time></trkpt><trkpt lat="45.2309576" lon="9.3240493"><ele>75.0</ele><time>2026-03-21T09:09:27.131Z</time></trkpt><trkpt lat="45.2307799" lon="9.3242854"><ele>75.0</ele><time>2026-03-21T09:09:28.131Z</time></trkpt><trkpt lat="45.2306045" lon="9.3245202"><ele>75.0</ele><time>2026-03-21T09:09:29.132Z</time></trkpt><trkpt lat="45.2304285" lon="9.3247456"><ele>75.0</ele><time>2026-03-21T09:09:30.132Z</time></trkpt><trkpt lat="45.230248" lon="9.3249616"><ele>75.0</ele><time>2026-03-21T09:09:31.132Z</time></trkpt><trkpt lat="45.2300641" lon="9.3251517"><ele>75.0</ele><time>2026-03-21T09:09:32.132Z</time></trkpt><trkpt lat="45.2298714" lon="9.3253284"><ele>75.0</ele><time>2026-03-21T09:09:33.131Z</time></trkpt><trkpt lat="45.2296717" lon="9.3254877"><ele>74.0</ele><time>2026-03-21T09:09:34.132Z</time></trkpt><trkpt lat="45.2294616" lon="9.3256147"><ele>73.0</ele><time>2026-03-21T09:09:35.132Z</time></trkpt><trkpt lat="45.2292433" lon="9.3257132"><ele>73.0</ele><time>2026-03-21T09:09:36.131Z</time></trkpt><trkpt lat="45.2290228" lon="9.3257892"><ele>73.0</ele><time>2026-03-21T09:09:37.131Z</time></trkpt><trkpt lat="45.2287936" lon="9.3258432"><ele>72.5</ele><time>2026-03-21T09:09:38.132Z</time></trkpt><trkpt lat="45.2285684" lon="9.3258677"><ele>72.0</ele><time>2026-03-21T09:09:39.132Z</time></trkpt><trkpt lat="45.2283386" lon="9.3258682"><ele>72.0</ele><time>2026-03-21T09:09:40.132Z</time></trkpt><trkpt lat="45.2281114" lon="9.3258392"><ele>72.0</ele><time>2026-03-21T09:09:41.131Z</time></trkpt><trkpt lat="45.2278881" lon="9.3257877"><ele>72.0</ele><time>2026-03-21T09:09:42.131Z</time></trkpt><trkpt lat="45.227669" lon="9.3257176"><ele>72.0</ele><time>2026-03-21T09:09:43.132Z</time></trkpt><trkpt lat="45.2274555" lon="9.325627"><ele>72.0</ele><time>2026-03-21T09:09:44.132Z</time></trkpt><trkpt lat="45.2272471" lon="9.3255144"><ele>72.0</ele><time>2026-03-21T09:09:45.132Z</time></trkpt><trkpt lat="45.227047" lon="9.3253778"><ele>72.0</ele><time>2026-03-21T09:09:46.132Z</time></trkpt><trkpt lat="45.2268511" lon="9.3252226"><ele>72.0</ele><time>2026-03-21T09:09:47.131Z</time></trkpt><trkpt lat="45.2266574" lon="9.3250607"><ele>72.0</ele><time>2026-03-21T09:09:48.132Z</time></trkpt><trkpt lat="45.2264676" lon="9.3248928"><ele>72.0</ele><time>2026-03-21T09:09:49.132Z</time></trkpt><trkpt lat="45.2262797" lon="9.3247251"><ele>72.0</ele><time>2026-03-21T09:09:50.131Z</time></trkpt><trkpt lat="45.2260905" lon="9.3245596"><ele>72.33333333333333</ele><time>2026-03-21T09:09:51.132Z</time></trkpt><trkpt lat="45.2258996" lon="9.3243976"><ele>72.66666666666666</ele><time>2026-03-21T09:09:52.131Z</time></trkpt><trkpt lat="45.2257103" lon="9.3242348"><ele>73.0</ele><time>2026-03-21T09:09:53.131Z</time></trkpt><trkpt lat="45.2255185" lon="9.3240698"><ele>73.0</ele><time>2026-03-21T09:09:54.132Z</time></trkpt><trkpt lat="45.2253305" lon="9.3239057"><ele>73.0</ele><time>2026-03-21T09:09:55.132Z</time></trkpt><trkpt lat="45.225143" lon="9.3237428"><ele>73.0</ele><time>2026-03-21T09:09:56.132Z</time></trkpt><trkpt lat="45.2249565" lon="9.3235822"><ele>72.33333333333333</ele><time>2026-03-21T09:09:57.132Z</time></trkpt><trkpt lat="45.2247719" lon="9.3234215"><ele>71.66666666666667</ele><time>2026-03-21T09:09:58.131Z</time></trkpt><trkpt lat="45.2245863" lon="9.3232607"><ele>71.0</ele><time>2026-03-21T09:09:59.128Z</time></trkpt><trkpt lat="45.224399" lon="9.3230986"><ele>71.66666666666667</ele><time>2026-03-21T09:10:00.132Z</time></trkpt><trkpt lat="45.2242122" lon="9.3229357"><ele>72.33333333333333</ele><time>2026-03-21T09:10:01.131Z</time></trkpt><trkpt lat="45.2240416" lon="9.3227881"><ele>73.0</ele><time>2026-03-21T09:10:02.132Z</time></trkpt><trkpt lat="45.2238823" lon="9.3226475"><ele>73.0</ele><time>2026-03-21T09:10:03.131Z</time></trkpt><trkpt lat="45.2237291" lon="9.3225148"><ele>73.0</ele><time>2026-03-21T09:10:04.132Z</time></trkpt><trkpt lat="45.2235813" lon="9.3223873"><ele>73.0</ele><time>2026-03-21T09:10:05.131Z</time></trkpt><trkpt lat="45.2234349" lon="9.3222595"><ele>73.0</ele><time>2026-03-21T09:10:06.131Z</time></trkpt><trkpt lat="45.2232881" lon="9.3221314"><ele>73.0</ele><time>2026-03-21T09:10:07.132Z</time></trkpt><trkpt lat="45.2231398" lon="9.3219981"><ele>73.0</ele><time>2026-03-21T09:10:08.132Z</time></trkpt><trkpt lat="45.2229891" lon="9.3218616"><ele>73.66666666666666</ele><time>2026-03-21T09:10:09.131Z</time></trkpt><trkpt lat="45.2228342" lon="9.3217239"><ele>74.33333333333333</ele><time>2026-03-21T09:10:10.131Z</time></trkpt><trkpt lat="45.2226699" lon="9.3215883"><ele>75.0</ele><time>2026-03-21T09:10:11.131Z</time></trkpt><trkpt lat="45.2225024" lon="9.3214604"><ele>74.33333333333333</ele><time>2026-03-21T09:10:12.131Z</time></trkpt><trkpt lat="45.222327" lon="9.3213453"><ele>73.66666666666666</ele><time>2026-03-21T09:10:13.131Z</time></trkpt><trkpt lat="45.2221455" lon="9.3212424"><ele>73.0</ele><time>2026-03-21T09:10:14.132Z</time></trkpt><trkpt lat="45.2219558" lon="9.32115"><ele>72.66666666666666</ele><time>2026-03-21T09:10:15.132Z</time></trkpt><trkpt lat="45.2217568" lon="9.3210649"><ele>72.33333333333333</ele><time>2026-03-21T09:10:16.132Z</time></trkpt><trkpt lat="45.2215544" lon="9.320991"><ele>72.0</ele><time>2026-03-21T09:10:17.131Z</time></trkpt><trkpt lat="45.2213446" lon="9.3209376"><ele>72.0</ele><time>2026-03-21T09:10:18.132Z</time></trkpt><trkpt lat="45.2211255" lon="9.3209015"><ele>72.0</ele><time>2026-03-21T09:10:19.131Z</time></trkpt><trkpt lat="45.2209083" lon="9.3208775"><ele>72.0</ele><time>2026-03-21T09:10:20.131Z</time></trkpt><trkpt lat="45.2206932" lon="9.3208507"><ele>71.33333333333333</ele><time>2026-03-21T09:10:21.132Z</time></trkpt><trkpt lat="45.2204837" lon="9.3208153"><ele>70.66666666666666</ele><time>2026-03-21T09:10:22.132Z</time></trkpt><trkpt lat="45.220276" lon="9.3207678"><ele>70.0</ele><time>2026-03-21T09:10:23.131Z</time></trkpt><trkpt lat="45.2200704" lon="9.3206991"><ele>70.0</ele><time>2026-03-21T09:10:24.132Z</time></trkpt><trkpt lat="45.2198627" lon="9.3206123"><ele>70.0</ele><time>2026-03-21T09:10:25.132Z</time></trkpt><trkpt lat="45.219656" lon="9.3205023"><ele>70.0</ele><time>2026-03-21T09:10:26.132Z</time></trkpt><trkpt lat="45.2194522" lon="9.3203665"><ele>70.0</ele><time>2026-03-21T09:10:27.132Z</time></trkpt><trkpt lat="45.2192414" lon="9.3202165"><ele>70.0</ele><time>2026-03-21T09:10:28.132Z</time></trkpt><trkpt lat="45.2190217" lon="9.3200542"><ele>70.5</ele><time>2026-03-21T09:10:29.132Z</time></trkpt><trkpt lat="45.218795" lon="9.3198843"><ele>71.0</ele><time>2026-03-21T09:10:30.132Z</time></trkpt><trkpt lat="45.2185607" lon="9.3197069"><ele>71.0</ele><time>2026-03-21T09:10:31.132Z</time></trkpt><trkpt lat="45.218322" lon="9.3195299"><ele>71.0</ele><time>2026-03-21T09:10:32.131Z</time></trkpt><trkpt lat="45.2180841" lon="9.3193525"><ele>71.0</ele><time>2026-03-21T09:10:33.132Z</time></trkpt><trkpt lat="45.2178457" lon="9.3191719"><ele>71.0</ele><time>2026-03-21T09:10:34.131Z</time></trkpt><trkpt lat="45.2176107" lon="9.3189986"><ele>71.5</ele><time>2026-03-21T09:10:35.131Z</time></trkpt><trkpt lat="45.2173791" lon="9.3188289"><ele>72.0</ele><time>2026-03-21T09:10:36.132Z</time></trkpt><trkpt lat="45.2171542" lon="9.3186602"><ele>71.0</ele><time>2026-03-21T09:10:37.132Z</time></trkpt><trkpt lat="45.216934" lon="9.3184958"><ele>70.0</ele><time>2026-03-21T09:10:38.131Z</time></trkpt><trkpt lat="45.2167213" lon="9.3183273"><ele>70.0</ele><time>2026-03-21T09:10:39.131Z</time></trkpt><trkpt lat="45.2165213" lon="9.3181396"><ele>70.0</ele><time>2026-03-21T09:10:40.132Z</time></trkpt><trkpt lat="45.2163438" lon="9.3179272"><ele>70.0</ele><time>2026-03-21T09:10:41.131Z</time></trkpt><trkpt lat="45.216192" lon="9.317675"><ele>70.0</ele><time>2026-03-21T09:10:42.131Z</time></trkpt><trkpt lat="45.2160552" lon="9.317406"><ele>70.5</ele><time>2026-03-21T09:10:43.131Z</time></trkpt><trkpt lat="45.2159224" lon="9.3171347"><ele>71.0</ele><time>2026-03-21T09:10:44.131Z</time></trkpt><trkpt lat="45.2157867" lon="9.3168603"><ele>70.5</ele><time>2026-03-21T09:10:45.132Z</time></trkpt><trkpt lat="45.2156518" lon="9.316589"><ele>70.0</ele><time>2026-03-21T09:10:46.131Z</time></trkpt><trkpt lat="45.2155167" lon="9.3163199"><ele>71.5</ele><time>2026-03-21T09:10:47.132Z</time></trkpt><trkpt lat="45.2153853" lon="9.3160492"><ele>73.0</ele><time>2026-03-21T09:10:48.131Z</time></trkpt><trkpt lat="45.215246" lon="9.3157825"><ele>73.5</ele><time>2026-03-21T09:10:49.132Z</time></trkpt><trkpt lat="45.2151006" lon="9.3155201"><ele>74.0</ele><time>2026-03-21T09:10:50.131Z</time></trkpt><trkpt lat="45.2149486" lon="9.3152745"><ele>72.5</ele><time>2026-03-21T09:10:51.132Z</time></trkpt><trkpt lat="45.2147864" lon="9.315028"><ele>71.0</ele><time>2026-03-21T09:10:52.131Z</time></trkpt><trkpt lat="45.21462" lon="9.3147951"><ele>71.0</ele><time>2026-03-21T09:10:53.131Z</time></trkpt><trkpt lat="45.2144537" lon="9.3145558"><ele>71.0</ele><time>2026-03-21T09:10:54.131Z</time></trkpt><trkpt lat="45.2142818" lon="9.3143184"><ele>71.0</ele><time>2026-03-21T09:10:55.132Z</time></trkpt><trkpt lat="45.2141066" lon="9.3140813"><ele>71.0</ele><time>2026-03-21T09:10:56.132Z</time></trkpt><trkpt lat="45.2139302" lon="9.3138458"><ele>72.0</ele><time>2026-03-21T09:10:57.131Z</time></trkpt><trkpt lat="45.2137559" lon="9.313607"><ele>73.0</ele><time>2026-03-21T09:10:58.132Z</time></trkpt><trkpt lat="45.2135807" lon="9.313367"><ele>73.0</ele><time>2026-03-21T09:10:59.132Z</time></trkpt><trkpt lat="45.213398" lon="9.3131275"><ele>73.0</ele><time>2026-03-21T09:11:00.131Z</time></trkpt><trkpt lat="45.213218" lon="9.3128929"><ele>72.5</ele><time>2026-03-21T09:11:01.131Z</time></trkpt><trkpt lat="45.2130462" lon="9.312654"><ele>72.0</ele><time>2026-03-21T09:11:02.131Z</time></trkpt><trkpt lat="45.21287" lon="9.31242"><ele>72.0</ele><time>2026-03-21T09:11:03.132Z</time></trkpt><trkpt lat="45.2126961" lon="9.312183"><ele>72.0</ele><time>2026-03-21T09:11:04.132Z</time></trkpt><trkpt lat="45.2125227" lon="9.3119559"><ele>72.0</ele><time>2026-03-21T09:11:05.132Z</time></trkpt><trkpt lat="45.2123491" lon="9.3117356"><ele>72.0</ele><time>2026-03-21T09:11:06.131Z</time></trkpt><trkpt lat="45.2121672" lon="9.311546"><ele>72.5</ele><time>2026-03-21T09:11:07.132Z</time></trkpt><trkpt lat="45.2119709" lon="9.3113919"><ele>73.0</ele><time>2026-03-21T09:11:08.131Z</time></trkpt><trkpt lat="45.211762" lon="9.3112624"><ele>73.0</ele><time>2026-03-21T09:11:09.132Z</time></trkpt><trkpt lat="45.2115426" lon="9.3111625"><ele>73.0</ele><time>2026-03-21T09:11:10.132Z</time></trkpt><trkpt lat="45.2113216" lon="9.3110976"><ele>73.0</ele><time>2026-03-21T09:11:11.131Z</time></trkpt><trkpt lat="45.2110924" lon="9.3110609"><ele>73.0</ele><time>2026-03-21T09:11:12.131Z</time></trkpt><trkpt lat="45.2108646" lon="9.3110522"><ele>73.0</ele><time>2026-03-21T09:11:13.131Z</time></trkpt><trkpt lat="45.2106385" lon="9.3110764"><ele>73.0</ele><time>2026-03-21T09:11:14.131Z</time></trkpt><trkpt lat="45.2104289" lon="9.3111326"><ele>73.0</ele><time>2026-03-21T09:11:15.132Z</time></trkpt><trkpt lat="45.210227" lon="9.3112076"><ele>73.0</ele><time>2026-03-21T09:11:16.132Z</time></trkpt><trkpt lat="45.2100361" lon="9.3112965"><ele>73.0</ele><time>2026-03-21T09:11:17.132Z</time></trkpt><trkpt lat="45.2098496" lon="9.3113912"><ele>73.0</ele><time>2026-03-21T09:11:18.132Z</time></trkpt><trkpt lat="45.2096695" lon="9.311474"><ele>73.0</ele><time>2026-03-21T09:11:19.131Z</time></trkpt><trkpt lat="45.2094938" lon="9.3115561"><ele>73.0</ele><time>2026-03-21T09:11:20.131Z</time></trkpt><trkpt lat="45.2093224" lon="9.3116404"><ele>73.0</ele><time>2026-03-21T09:11:21.131Z</time></trkpt><trkpt lat="45.2091555" lon="9.3117207"><ele>72.66666666666666</ele><time>2026-03-21T09:11:22.131Z</time></trkpt><trkpt lat="45.2089914" lon="9.3118055"><ele>72.33333333333333</ele><time>2026-03-21T09:11:23.131Z</time></trkpt><trkpt lat="45.2088329" lon="9.3118803"><ele>72.0</ele><time>2026-03-21T09:11:24.132Z</time></trkpt><trkpt lat="45.2086835" lon="9.3119491"><ele>72.0</ele><time>2026-03-21T09:11:25.131Z</time></trkpt><trkpt lat="45.2085417" lon="9.3120145"><ele>72.0</ele><time>2026-03-21T09:11:26.131Z</time></trkpt><trkpt lat="45.208404" lon="9.3120802"><ele>72.0</ele><time>2026-03-21T09:11:27.131Z</time></trkpt><trkpt lat="45.2082737" lon="9.3121426"><ele>72.0</ele><time>2026-03-21T09:11:28.131Z</time></trkpt><trkpt lat="45.2081466" lon="9.3121994"><ele>71.75</ele><time>2026-03-21T09:11:29.131Z</time></trkpt><trkpt lat="45.2080138" lon="9.3122617"><ele>71.5</ele><time>2026-03-21T09:11:30.131Z</time></trkpt><trkpt lat="45.2078747" lon="9.3123261"><ele>71.25</ele><time>2026-03-21T09:11:31.132Z</time></trkpt><trkpt lat="45.2077334" lon="9.3123955"><ele>71.0</ele><time>2026-03-21T09:11:32.132Z</time></trkpt><trkpt lat="45.2075842" lon="9.312466"><ele>71.0</ele><time>2026-03-21T09:11:33.132Z</time></trkpt><trkpt lat="45.207429" lon="9.312545"><ele>71.0</ele><time>2026-03-21T09:11:34.131Z</time></trkpt><trkpt lat="45.2072699" lon="9.312626"><ele>71.0</ele><time>2026-03-21T09:11:35.131Z</time></trkpt><trkpt lat="45.2071062" lon="9.3127165"><ele>71.0</ele><time>2026-03-21T09:11:36.132Z</time></trkpt><trkpt lat="45.2069417" lon="9.3128182"><ele>71.0</ele><time>2026-03-21T09:11:37.131Z</time></trkpt><trkpt lat="45.2067748" lon="9.3129255"><ele>71.0</ele><time>2026-03-21T09:11:38.132Z</time></trkpt><trkpt lat="45.2066041" lon="9.3130364"><ele>70.33333333333334</ele><time>2026-03-21T09:11:39.132Z</time></trkpt><trkpt lat="45.2064313" lon="9.3131466"><ele>69.66666666666667</ele><time>2026-03-21T09:11:40.132Z</time></trkpt><trkpt lat="45.2062551" lon="9.3132552"><ele>69.0</ele><time>2026-03-21T09:11:41.131Z</time></trkpt><trkpt lat="45.2060734" lon="9.3133703"><ele>69.0</ele><time>2026-03-21T09:11:42.131Z</time></trkpt><trkpt lat="45.2058896" lon="9.3134833"><ele>69.0</ele><time>2026-03-21T09:11:43.132Z</time></trkpt><trkpt lat="45.2056983" lon="9.3136025"><ele>69.0</ele><time>2026-03-21T09:11:44.131Z</time></trkpt><trkpt lat="45.2055053" lon="9.3137197"><ele>69.33333333333333</ele><time>2026-03-21T09:11:45.131Z</time></trkpt><trkpt lat="45.2053096" lon="9.313842"><ele>69.66666666666666</ele><time>2026-03-21T09:11:46.131Z</time></trkpt><trkpt lat="45.2051147" lon="9.3139685"><ele>70.0</ele><time>2026-03-21T09:11:47.132Z</time></trkpt><trkpt lat="45.2049254" lon="9.3141114"><ele>69.0</ele><time>2026-03-21T09:11:48.131Z</time></trkpt><trkpt lat="45.204741" lon="9.3142769"><ele>68.0</ele><time>2026-03-21T09:11:49.132Z</time></trkpt><trkpt lat="45.2045735" lon="9.3144642"><ele>67.0</ele><time>2026-03-21T09:11:50.132Z</time></trkpt><trkpt lat="45.2044206" lon="9.3146565"><ele>68.0</ele><time>2026-03-21T09:11:51.131Z</time></trkpt><trkpt lat="45.2042784" lon="9.3148423"><ele>69.0</ele><time>2026-03-21T09:11:52.131Z</time></trkpt><trkpt lat="45.2041439" lon="9.3150211"><ele>70.0</ele><time>2026-03-21T09:11:53.131Z</time></trkpt><trkpt lat="45.2040119" lon="9.3151849"><ele>70.0</ele><time>2026-03-21T09:11:54.132Z</time></trkpt><trkpt lat="45.2038814" lon="9.3153384"><ele>70.0</ele><time>2026-03-21T09:11:55.131Z</time></trkpt><trkpt lat="45.2037515" lon="9.3154887"><ele>70.0</ele><time>2026-03-21T09:11:56.131Z</time></trkpt><trkpt lat="45.2036215" lon="9.3156319"><ele>70.0</ele><time>2026-03-21T09:11:57.131Z</time></trkpt><trkpt lat="45.2034935" lon="9.3157738"><ele>70.0</ele><time>2026-03-21T09:11:58.132Z</time></trkpt><trkpt lat="45.2033669" lon="9.3159122"><ele>70.0</ele><time>2026-03-21T09:11:59.131Z</time></trkpt><trkpt lat="45.203243" lon="9.3160421"><ele>69.5</ele><time>2026-03-21T09:12:00.131Z</time></trkpt><trkpt lat="45.2031145" lon="9.316155"><ele>69.0</ele><time>2026-03-21T09:12:01.132Z</time></trkpt><trkpt lat="45.2029772" lon="9.3162464"><ele>68.5</ele><time>2026-03-21T09:12:02.132Z</time></trkpt><trkpt lat="45.2028441" lon="9.3163228"><ele>68.0</ele><time>2026-03-21T09:12:03.131Z</time></trkpt><trkpt lat="45.2027058" lon="9.3163854"><ele>68.0</ele><time>2026-03-21T09:12:04.132Z</time></trkpt><trkpt lat="45.2025686" lon="9.3164492"><ele>68.0</ele><time>2026-03-21T09:12:05.132Z</time></trkpt><trkpt lat="45.2024314" lon="9.316518"><ele>68.0</ele><time>2026-03-21T09:12:06.132Z</time></trkpt><trkpt lat="45.2022883" lon="9.3165948"><ele>68.0</ele><time>2026-03-21T09:12:07.132Z</time></trkpt><trkpt lat="45.2021431" lon="9.3166696"><ele>68.0</ele><time>2026-03-21T09:12:08.131Z</time></trkpt><trkpt lat="45.2019929" lon="9.3167462"><ele>68.0</ele><time>2026-03-21T09:12:09.131Z</time></trkpt><trkpt lat="45.2018365" lon="9.3168196"><ele>68.0</ele><time>2026-03-21T09:12:10.131Z</time></trkpt><trkpt lat="45.2016722" lon="9.3168947"><ele>68.0</ele><time>2026-03-21T09:12:11.132Z</time></trkpt><trkpt lat="45.2015087" lon="9.3169757"><ele>68.0</ele><time>2026-03-21T09:12:12.131Z</time></trkpt><trkpt lat="45.2013422" lon="9.317059"><ele>68.0</ele><time>2026-03-21T09:12:13.132Z</time></trkpt><trkpt lat="45.201172" lon="9.3171505"><ele>68.0</ele><time>2026-03-21T09:12:14.131Z</time></trkpt><trkpt lat="45.2010021" lon="9.3172477"><ele>68.0</ele><time>2026-03-21T09:12:15.132Z</time></trkpt><trkpt lat="45.2008364" lon="9.3173589"><ele>68.0</ele><time>2026-03-21T09:12:16.132Z</time></trkpt><trkpt lat="45.2006772" lon="9.3174861"><ele>67.33333333333334</ele><time>2026-03-21T09:12:17.132Z</time></trkpt><trkpt lat="45.2005292" lon="9.317642"><ele>66.66666666666667</ele><time>2026-03-21T09:12:18.132Z</time></trkpt><trkpt lat="45.2003902" lon="9.3178282"><ele>66.0</ele><time>2026-03-21T09:12:19.131Z</time></trkpt><trkpt lat="45.2002583" lon="9.3180175"><ele>66.0</ele><time>2026-03-21T09:12:20.131Z</time></trkpt><trkpt lat="45.2001338" lon="9.3181918"><ele>66.0</ele><time>2026-03-21T09:12:21.132Z</time></trkpt><trkpt lat="45.2000133" lon="9.3183656"><ele>66.0</ele><time>2026-03-21T09:12:22.131Z</time></trkpt><trkpt lat="45.1999056" lon="9.3185268"><ele>66.0</ele><time>2026-03-21T09:12:23.132Z</time></trkpt><trkpt lat="45.1998021" lon="9.3186796"><ele>66.0</ele><time>2026-03-21T09:12:24.131Z</time></trkpt><trkpt lat="45.1997148" lon="9.3188286"><ele>66.0</ele><time>2026-03-21T09:12:25.132Z</time></trkpt><trkpt lat="45.199637" lon="9.3189745"><ele>66.0</ele><time>2026-03-21T09:12:26.131Z</time></trkpt><trkpt lat="45.1995654" lon="9.3191137"><ele>66.0</ele><time>2026-03-21T09:12:27.132Z</time></trkpt><trkpt lat="45.1994949" lon="9.3192373"><ele>66.0</ele><time>2026-03-21T09:12:28.132Z</time></trkpt><trkpt lat="45.1994202" lon="9.3193377"><ele>66.0</ele><time>2026-03-21T09:12:29.131Z</time></trkpt><trkpt lat="45.1993457" lon="9.3194224"><ele>66.0</ele><time>2026-03-21T09:12:30.131Z</time></trkpt><trkpt lat="45.1992726" lon="9.3194941"><ele>66.0</ele><time>2026-03-21T09:12:31.132Z</time></trkpt><trkpt lat="45.1992018" lon="9.3195617"><ele>66.0</ele><time>2026-03-21T09:12:32.131Z</time></trkpt><trkpt lat="45.1991333" lon="9.3196193"><ele>66.0</ele><time>2026-03-21T09:12:33.131Z</time></trkpt><trkpt lat="45.1990706" lon="9.319669"><ele>66.0</ele><time>2026-03-21T09:12:34.131Z</time></trkpt><trkpt lat="45.1989934" lon="9.3197316"><ele>66.0</ele><time>2026-03-21T09:12:36.131Z</time></trkpt><trkpt lat="45.1989386" lon="9.3197813"><ele>66.0</ele><time>2026-03-21T09:13:12.132Z</time></trkpt><trkpt lat="45.1988721" lon="9.3198365"><ele>66.0</ele><time>2026-03-21T09:13:14.131Z</time></trkpt><trkpt lat="45.1987707" lon="9.3198898"><ele>66.0</ele><time>2026-03-21T09:13:16.132Z</time></trkpt><trkpt lat="45.1986501" lon="9.3198443"><ele>66.0</ele><time>2026-03-21T09:13:18.131Z</time></trkpt><trkpt lat="45.1985874" lon="9.3197568"><ele>66.0</ele><time>2026-03-21T09:13:19.131Z</time></trkpt><trkpt lat="45.1985045" lon="9.3196168"><ele>66.0</ele><time>2026-03-21T09:13:20.132Z</time></trkpt><trkpt lat="45.1983977" lon="9.319417"><ele>65.66666666666667</ele><time>2026-03-21T09:13:21.132Z</time></trkpt><trkpt lat="45.1982851" lon="9.3192133"><ele>65.33333333333334</ele><time>2026-03-21T09:13:22.132Z</time></trkpt><trkpt lat="45.1981801" lon="9.3190288"><ele>65.0</ele><time>2026-03-21T09:13:23.131Z</time></trkpt><trkpt lat="45.1980933" lon="9.3188607"><ele>65.0</ele><time>2026-03-21T09:13:24.131Z</time></trkpt><trkpt lat="45.1980155" lon="9.3187233"><ele>65.0</ele><time>2026-03-21T09:13:25.131Z</time></trkpt><trkpt lat="45.197937" lon="9.3186469"><ele>65.0</ele><time>2026-03-21T09:13:26.131Z</time></trkpt><trkpt lat="45.1978739" lon="9.3186076"><ele>65.0</ele><time>2026-03-21T09:13:27.132Z</time></trkpt><trkpt lat="45.1977748" lon="9.3185368"><ele>65.0</ele><time>2026-03-21T09:13:29.131Z</time></trkpt><trkpt lat="45.1976999" lon="9.31848"><ele>65.0</ele><time>2026-03-21T09:13:31.132Z</time></trkpt><trkpt lat="45.1977328" lon="9.3186"><ele>65.0</ele><time>2026-03-21T09:13:37.132Z</time></trkpt><trkpt lat="45.1978054" lon="9.318638"><ele>65.0</ele><time>2026-03-21T09:13:40.132Z</time></trkpt><trkpt lat="45.1977793" lon="9.3185514"><ele>65.0</ele><time>2026-03-21T09:13:45.132Z</time></trkpt><trkpt lat="45.1977056" lon="9.3185224"><ele>65.0</ele><time>2026-03-21T09:17:07.131Z</time></trkpt><trkpt lat="45.1976818" lon="9.3184206"><ele>65.0</ele><time>2026-03-21T09:17:09.132Z</time></trkpt><trkpt lat="45.1976625" lon="9.3183222"><ele>65.0</ele><time>2026-03-21T09:17:11.132Z</time></trkpt><trkpt lat="45.1976545" lon="9.3182275"><ele>65.0</ele><time>2026-03-21T09:17:14.131Z</time></trkpt><trkpt lat="45.1976584" lon="9.3180858"><ele>65.0</ele><time>2026-03-21T09:17:21.132Z</time></trkpt><trkpt lat="45.1976034" lon="9.3179481"><ele>65.0</ele><time>2026-03-21T09:17:23.132Z</time></trkpt><trkpt lat="45.1975611" lon="9.3178687"><ele>65.0</ele><time>2026-03-21T09:17:24.132Z</time></trkpt><trkpt lat="45.1975098" lon="9.317778"><ele>65.0</ele><time>2026-03-21T09:17:25.132Z</time></trkpt><trkpt lat="45.1974539" lon="9.3176767"><ele>65.0</ele><time>2026-03-21T09:17:26.132Z</time></trkpt><trkpt lat="45.1974021" lon="9.3175639"><ele>65.0</ele><time>2026-03-21T09:17:27.131Z</time></trkpt><trkpt lat="45.1973413" lon="9.3174465"><ele>65.0</ele><time>2026-03-21T09:17:28.132Z</time></trkpt><trkpt lat="45.1972735" lon="9.3173178"><ele>65.0</ele><time>2026-03-21T09:17:29.132Z</time></trkpt><trkpt lat="45.1972041" lon="9.3171804"><ele>65.0</ele><time>2026-03-21T09:17:30.131Z</time></trkpt><trkpt lat="45.1971308" lon="9.3170467"><ele>65.0</ele><time>2026-03-21T09:17:31.132Z</time></trkpt><trkpt lat="45.1970539" lon="9.3169043"><ele>65.0</ele><time>2026-03-21T09:17:32.132Z</time></trkpt><trkpt lat="45.1969747" lon="9.3167647"><ele>65.0</ele><time>2026-03-21T09:17:33.131Z</time></trkpt><trkpt lat="45.1968967" lon="9.3166214"><ele>65.0</ele><time>2026-03-21T09:17:34.132Z</time></trkpt><trkpt lat="45.1968199" lon="9.3164808"><ele>65.0</ele><time>2026-03-21T09:17:35.132Z</time></trkpt><trkpt lat="45.1967407" lon="9.3163346"><ele>65.0</ele><time>2026-03-21T09:17:36.131Z</time></trkpt><trkpt lat="45.1966587" lon="9.3161849"><ele>65.0</ele><time>2026-03-21T09:17:37.131Z</time></trkpt><trkpt lat="45.1965809" lon="9.316031"><ele>65.0</ele><time>2026-03-21T09:17:38.131Z</time></trkpt><trkpt lat="45.1965138" lon="9.3158696"><ele>65.0</ele><time>2026-03-21T09:17:39.132Z</time></trkpt><trkpt lat="45.1964504" lon="9.3157019"><ele>65.0</ele><time>2026-03-21T09:17:40.131Z</time></trkpt><trkpt lat="45.1964046" lon="9.3155387"><ele>65.0</ele><time>2026-03-21T09:17:41.131Z</time></trkpt><trkpt lat="45.196381" lon="9.315375"><ele>65.0</ele><time>2026-03-21T09:17:42.131Z</time></trkpt><trkpt lat="45.1963824" lon="9.3152318"><ele>65.2</ele><time>2026-03-21T09:17:43.132Z</time></trkpt><trkpt lat="45.1963944" lon="9.3151173"><ele>65.4</ele><time>2026-03-21T09:17:44.132Z</time></trkpt><trkpt lat="45.1964079" lon="9.3150108"><ele>65.6</ele><time>2026-03-21T09:17:46.132Z</time></trkpt><trkpt lat="45.1963965" lon="9.3148996"><ele>65.8</ele><time>2026-03-21T09:18:01.131Z</time></trkpt><trkpt lat="45.1962791" lon="9.3148045"><ele>66.0</ele><time>2026-03-21T09:18:03.131Z</time></trkpt><trkpt lat="45.1962019" lon="9.3148121"><ele>66.0</ele><time>2026-03-21T09:18:04.131Z</time></trkpt><trkpt lat="45.1961156" lon="9.3148507"><ele>66.0</ele><time>2026-03-21T09:18:05.131Z</time></trkpt><trkpt lat="45.1960211" lon="9.3149118"><ele>66.0</ele><time>2026-03-21T09:18:06.132Z</time></trkpt><trkpt lat="45.1959155" lon="9.3149807"><ele>66.0</ele><time>2026-03-21T09:18:07.132Z</time></trkpt><trkpt lat="45.1958021" lon="9.3150586"><ele>66.0</ele><time>2026-03-21T09:18:08.131Z</time></trkpt><trkpt lat="45.195689" lon="9.3151443"><ele>66.25</ele><time>2026-03-21T09:18:09.131Z</time></trkpt><trkpt lat="45.1955668" lon="9.3152352"><ele>66.5</ele><time>2026-03-21T09:18:10.131Z</time></trkpt><trkpt lat="45.1954404" lon="9.3153231"><ele>66.75</ele><time>2026-03-21T09:18:11.132Z</time></trkpt><trkpt lat="45.1953175" lon="9.3154258"><ele>67.0</ele><time>2026-03-21T09:18:12.132Z</time></trkpt><trkpt lat="45.1951992" lon="9.3155349"><ele>67.25</ele><time>2026-03-21T09:18:13.132Z</time></trkpt><trkpt lat="45.1950883" lon="9.3156714"><ele>67.5</ele><time>2026-03-21T09:18:14.132Z</time></trkpt><trkpt lat="45.1949757" lon="9.3158137"><ele>67.75</ele><time>2026-03-21T09:18:15.132Z</time></trkpt><trkpt lat="45.1948571" lon="9.3159456"><ele>68.0</ele><time>2026-03-21T09:18:16.132Z</time></trkpt><trkpt lat="45.1947291" lon="9.3160532"><ele>68.0</ele><time>2026-03-21T09:18:17.131Z</time></trkpt><trkpt lat="45.1945852" lon="9.3161333"><ele>68.0</ele><time>2026-03-21T09:18:18.131Z</time></trkpt><trkpt lat="45.1944295" lon="9.3161871"><ele>68.0</ele><time>2026-03-21T09:18:19.131Z</time></trkpt><trkpt lat="45.1942526" lon="9.3162212"><ele>68.0</ele><time>2026-03-21T09:18:20.131Z</time></trkpt><trkpt lat="45.1940609" lon="9.3162533"><ele>68.0</ele><time>2026-03-21T09:18:21.132Z</time></trkpt><trkpt lat="45.1938657" lon="9.3162926"><ele>68.0</ele><time>2026-03-21T09:18:22.132Z</time></trkpt><trkpt lat="45.1936661" lon="9.3163407"><ele>68.0</ele><time>2026-03-21T09:18:23.131Z</time></trkpt><trkpt lat="45.1934631" lon="9.3163869"><ele>68.0</ele><time>2026-03-21T09:18:24.131Z</time></trkpt><trkpt lat="45.1932699" lon="9.3164475"><ele>68.0</ele><time>2026-03-21T09:18:25.132Z</time></trkpt><trkpt lat="45.1930786" lon="9.3165212"><ele>68.33333333333334</ele><time>2026-03-21T09:18:26.132Z</time></trkpt><trkpt lat="45.1928848" lon="9.3165968"><ele>68.66666666666667</ele><time>2026-03-21T09:18:27.132Z</time></trkpt><trkpt lat="45.1926882" lon="9.3166682"><ele>69.0</ele><time>2026-03-21T09:18:28.132Z</time></trkpt><trkpt lat="45.1924921" lon="9.3167414"><ele>69.33333333333333</ele><time>2026-03-21T09:18:29.132Z</time></trkpt><trkpt lat="45.1922915" lon="9.3168191"><ele>69.66666666666666</ele><time>2026-03-21T09:18:30.132Z</time></trkpt><trkpt lat="45.1920899" lon="9.3169003"><ele>70.0</ele><time>2026-03-21T09:18:31.132Z</time></trkpt><trkpt lat="45.1918914" lon="9.3170027"><ele>70.0</ele><time>2026-03-21T09:18:32.131Z</time></trkpt><trkpt lat="45.1917031" lon="9.3171447"><ele>70.0</ele><time>2026-03-21T09:18:33.131Z</time></trkpt><trkpt lat="45.1915336" lon="9.3173243"><ele>70.0</ele><time>2026-03-21T09:18:34.132Z</time></trkpt><trkpt lat="45.1913716" lon="9.3175211"><ele>69.0</ele><time>2026-03-21T09:18:35.132Z</time></trkpt><trkpt lat="45.191207" lon="9.3177176"><ele>68.0</ele><time>2026-03-21T09:18:36.132Z</time></trkpt><trkpt lat="45.1910329" lon="9.3178987"><ele>67.0</ele><time>2026-03-21T09:18:37.131Z</time></trkpt><trkpt lat="45.1908563" lon="9.3180684"><ele>66.33333333333333</ele><time>2026-03-21T09:18:38.131Z</time></trkpt><trkpt lat="45.1906747" lon="9.3182251"><ele>65.66666666666667</ele><time>2026-03-21T09:18:39.132Z</time></trkpt><trkpt lat="45.19049" lon="9.3183583"><ele>65.0</ele><time>2026-03-21T09:18:40.131Z</time></trkpt><trkpt lat="45.1902966" lon="9.3184622"><ele>65.0</ele><time>2026-03-21T09:18:41.132Z</time></trkpt><trkpt lat="45.1900956" lon="9.3185288"><ele>65.0</ele><time>2026-03-21T09:18:42.131Z</time></trkpt><trkpt lat="45.1898953" lon="9.318564"><ele>65.0</ele><time>2026-03-21T09:18:43.132Z</time></trkpt><trkpt lat="45.1896924" lon="9.3185745"><ele>65.0</ele><time>2026-03-21T09:18:44.132Z</time></trkpt><trkpt lat="45.1894903" lon="9.318556"><ele>65.0</ele><time>2026-03-21T09:18:45.131Z</time></trkpt><trkpt lat="45.1892922" lon="9.3185107"><ele>65.0</ele><time>2026-03-21T09:18:46.131Z</time></trkpt><trkpt lat="45.189098" lon="9.3184374"><ele>66.66666666666667</ele><time>2026-03-21T09:18:47.132Z</time></trkpt><trkpt lat="45.1889058" lon="9.3183401"><ele>68.33333333333333</ele><time>2026-03-21T09:18:48.132Z</time></trkpt><trkpt lat="45.188712" lon="9.3182427"><ele>70.0</ele><time>2026-03-21T09:18:49.132Z</time></trkpt><trkpt lat="45.1885158" lon="9.3181433"><ele>69.66666666666666</ele><time>2026-03-21T09:18:50.131Z</time></trkpt><trkpt lat="45.1883142" lon="9.318044"><ele>69.33333333333333</ele><time>2026-03-21T09:18:51.132Z</time></trkpt><trkpt lat="45.188115" lon="9.3179429"><ele>69.0</ele><time>2026-03-21T09:18:52.132Z</time></trkpt><trkpt lat="45.1879171" lon="9.3178407"><ele>68.66666666666667</ele><time>2026-03-21T09:18:53.132Z</time></trkpt><trkpt lat="45.1877203" lon="9.3177424"><ele>68.33333333333334</ele><time>2026-03-21T09:18:54.132Z</time></trkpt><trkpt lat="45.187519" lon="9.3176346"><ele>68.0</ele><time>2026-03-21T09:18:55.132Z</time></trkpt><trkpt lat="45.1873181" lon="9.3175299"><ele>68.0</ele><time>2026-03-21T09:18:56.132Z</time></trkpt><trkpt lat="45.187111" lon="9.3174216"><ele>68.0</ele><time>2026-03-21T09:18:57.132Z</time></trkpt><trkpt lat="45.1869085" lon="9.3173142"><ele>68.0</ele><time>2026-03-21T09:18:58.131Z</time></trkpt><trkpt lat="45.1867058" lon="9.3172012"><ele>68.66666666666667</ele><time>2026-03-21T09:18:59.132Z</time></trkpt><trkpt lat="45.1865032" lon="9.3170879"><ele>69.33333333333333</ele><time>2026-03-21T09:19:00.132Z</time></trkpt><trkpt lat="45.1863045" lon="9.3169786"><ele>70.0</ele><time>2026-03-21T09:19:01.131Z</time></trkpt><trkpt lat="45.1861053" lon="9.3168691"><ele>70.0</ele><time>2026-03-21T09:19:02.132Z</time></trkpt><trkpt lat="45.1859029" lon="9.3167626"><ele>70.0</ele><time>2026-03-21T09:19:03.131Z</time></trkpt><trkpt lat="45.1857056" lon="9.3166572"><ele>70.0</ele><time>2026-03-21T09:19:04.132Z</time></trkpt><trkpt lat="45.1855055" lon="9.3165526"><ele>69.66666666666666</ele><time>2026-03-21T09:19:05.132Z</time></trkpt><trkpt lat="45.1853043" lon="9.3164496"><ele>69.33333333333333</ele><time>2026-03-21T09:19:06.131Z</time></trkpt><trkpt lat="45.185105" lon="9.3163452"><ele>69.0</ele><time>2026-03-21T09:19:07.132Z</time></trkpt><trkpt lat="45.1849056" lon="9.3162391"><ele>69.33333333333333</ele><time>2026-03-21T09:19:08.131Z</time></trkpt><trkpt lat="45.18471" lon="9.3161337"><ele>69.66666666666666</ele><time>2026-03-21T09:19:09.131Z</time></trkpt><trkpt lat="45.1845158" lon="9.3160289"><ele>70.0</ele><time>2026-03-21T09:19:10.131Z</time></trkpt><trkpt lat="45.1843264" lon="9.3159217"><ele>70.0</ele><time>2026-03-21T09:19:11.132Z</time></trkpt><trkpt lat="45.1841377" lon="9.3158147"><ele>70.0</ele><time>2026-03-21T09:19:12.131Z</time></trkpt><trkpt lat="45.1839463" lon="9.3157221"><ele>70.0</ele><time>2026-03-21T09:19:13.132Z</time></trkpt><trkpt lat="45.1837599" lon="9.3156268"><ele>70.33333333333333</ele><time>2026-03-21T09:19:14.132Z</time></trkpt><trkpt lat="45.183577" lon="9.3155274"><ele>70.66666666666667</ele><time>2026-03-21T09:19:15.131Z</time></trkpt><trkpt lat="45.1833997" lon="9.3154299"><ele>71.0</ele><time>2026-03-21T09:19:16.132Z</time></trkpt><trkpt lat="45.1832353" lon="9.3153313"><ele>70.66666666666667</ele><time>2026-03-21T09:19:17.132Z</time></trkpt><trkpt lat="45.1830816" lon="9.3152277"><ele>70.33333333333333</ele><time>2026-03-21T09:19:18.131Z</time></trkpt><trkpt lat="45.1829304" lon="9.3151226"><ele>70.0</ele><time>2026-03-21T09:19:19.131Z</time></trkpt><trkpt lat="45.1827756" lon="9.3150228"><ele>70.0</ele><time>2026-03-21T09:19:20.132Z</time></trkpt><trkpt lat="45.1826223" lon="9.3149197"><ele>70.0</ele><time>2026-03-21T09:19:21.132Z</time></trkpt><trkpt lat="45.1824646" lon="9.314814"><ele>70.0</ele><time>2026-03-21T09:19:22.132Z</time></trkpt><trkpt lat="45.1823045" lon="9.3147044"><ele>70.0</ele><time>2026-03-21T09:19:23.132Z</time></trkpt><trkpt lat="45.1821381" lon="9.3145886"><ele>70.0</ele><time>2026-03-21T09:19:24.131Z</time></trkpt><trkpt lat="45.1819665" lon="9.3144685"><ele>70.0</ele><time>2026-03-21T09:19:25.131Z</time></trkpt><trkpt lat="45.1817968" lon="9.3143482"><ele>70.0</ele><time>2026-03-21T09:19:26.132Z</time></trkpt><trkpt lat="45.181626" lon="9.3142314"><ele>70.0</ele><time>2026-03-21T09:19:27.131Z</time></trkpt><trkpt lat="45.1814544" lon="9.3141242"><ele>70.0</ele><time>2026-03-21T09:19:28.132Z</time></trkpt><trkpt lat="45.1812776" lon="9.3140305"><ele>70.0</ele><time>2026-03-21T09:19:29.131Z</time></trkpt><trkpt lat="45.1810919" lon="9.3139585"><ele>70.0</ele><time>2026-03-21T09:19:30.131Z</time></trkpt><trkpt lat="45.1809051" lon="9.3138997"><ele>70.0</ele><time>2026-03-21T09:19:31.131Z</time></trkpt><trkpt lat="45.1807127" lon="9.3138388"><ele>70.33333333333333</ele><time>2026-03-21T09:19:32.132Z</time></trkpt><trkpt lat="45.180514" lon="9.3137793"><ele>70.66666666666667</ele><time>2026-03-21T09:19:33.132Z</time></trkpt><trkpt lat="45.1803159" lon="9.313717"><ele>71.0</ele><time>2026-03-21T09:19:34.132Z</time></trkpt><trkpt lat="45.1801226" lon="9.313654"><ele>71.0</ele><time>2026-03-21T09:19:35.131Z</time></trkpt><trkpt lat="45.1799293" lon="9.3135827"><ele>71.0</ele><time>2026-03-21T09:19:36.131Z</time></trkpt><trkpt lat="45.1797409" lon="9.3135138"><ele>71.0</ele><time>2026-03-21T09:19:37.131Z</time></trkpt><trkpt lat="45.1795557" lon="9.3134495"><ele>71.66666666666667</ele><time>2026-03-21T09:19:38.132Z</time></trkpt><trkpt lat="45.1793653" lon="9.3133857"><ele>72.33333333333333</ele><time>2026-03-21T09:19:39.131Z</time></trkpt><trkpt lat="45.1791753" lon="9.3133298"><ele>73.0</ele><time>2026-03-21T09:19:40.131Z</time></trkpt><trkpt lat="45.1789868" lon="9.3132748"><ele>73.0</ele><time>2026-03-21T09:19:41.131Z</time></trkpt><trkpt lat="45.1788125" lon="9.3132178"><ele>73.0</ele><time>2026-03-21T09:19:42.132Z</time></trkpt><trkpt lat="45.1786452" lon="9.3131592"><ele>73.0</ele><time>2026-03-21T09:19:43.131Z</time></trkpt><trkpt lat="45.1784876" lon="9.3131072"><ele>73.0</ele><time>2026-03-21T09:19:44.131Z</time></trkpt><trkpt lat="45.1783468" lon="9.3130634"><ele>73.0</ele><time>2026-03-21T09:19:45.132Z</time></trkpt><trkpt lat="45.1782278" lon="9.313049"><ele>73.0</ele><time>2026-03-21T09:19:46.132Z</time></trkpt><trkpt lat="45.1781294" lon="9.313091"><ele>73.0</ele><time>2026-03-21T09:19:47.132Z</time></trkpt><trkpt lat="45.1780572" lon="9.3131845"><ele>73.0</ele><time>2026-03-21T09:19:48.132Z</time></trkpt><trkpt lat="45.178011" lon="9.3133146"><ele>73.0</ele><time>2026-03-21T09:19:49.131Z</time></trkpt><trkpt lat="45.1779783" lon="9.3134896"><ele>73.0</ele><time>2026-03-21T09:19:50.132Z</time></trkpt><trkpt lat="45.1779476" lon="9.3136578"><ele>73.0</ele><time>2026-03-21T09:19:51.132Z</time></trkpt><trkpt lat="45.1779156" lon="9.3138295"><ele>73.2</ele><time>2026-03-21T09:19:52.131Z</time></trkpt><trkpt lat="45.1778826" lon="9.313994"><ele>73.4</ele><time>2026-03-21T09:19:53.132Z</time></trkpt><trkpt lat="45.1778504" lon="9.3141496"><ele>73.60000000000001</ele><time>2026-03-21T09:19:54.132Z</time></trkpt><trkpt lat="45.177825" lon="9.3142913"><ele>73.8</ele><time>2026-03-21T09:19:55.131Z</time></trkpt><trkpt lat="45.1777987" lon="9.3143995"><ele>74.0</ele><time>2026-03-21T09:19:56.132Z</time></trkpt><trkpt lat="45.1777535" lon="9.3145142"><ele>74.0</ele><time>2026-03-21T09:19:58.131Z</time></trkpt><trkpt lat="45.1776678" lon="9.314553"><ele>74.0</ele><time>2026-03-21T09:20:00.132Z</time></trkpt><trkpt lat="45.1775942" lon="9.3145344"><ele>74.0</ele><time>2026-03-21T09:20:01.131Z</time></trkpt><trkpt lat="45.1774971" lon="9.3144982"><ele>74.0</ele><time>2026-03-21T09:20:02.131Z</time></trkpt><trkpt lat="45.1773758" lon="9.3144296"><ele>74.0</ele><time>2026-03-21T09:20:03.131Z</time></trkpt><trkpt lat="45.1772463" lon="9.3143392"><ele>74.0</ele><time>2026-03-21T09:20:04.131Z</time></trkpt><trkpt lat="45.1771149" lon="9.3142443"><ele>74.0</ele><time>2026-03-21T09:20:05.131Z</time></trkpt><trkpt lat="45.176995" lon="9.3141697"><ele>74.0</ele><time>2026-03-21T09:20:06.131Z</time></trkpt><trkpt lat="45.1768913" lon="9.3141378"><ele>74.0</ele><time>2026-03-21T09:20:07.132Z</time></trkpt><trkpt lat="45.17681" lon="9.3141512"><ele>74.0</ele><time>2026-03-21T09:20:08.132Z</time></trkpt><trkpt lat="45.1767388" lon="9.3142259"><ele>74.0</ele><time>2026-03-21T09:20:09.132Z</time></trkpt><trkpt lat="45.1766886" lon="9.3143528"><ele>74.0</ele><time>2026-03-21T09:20:10.131Z</time></trkpt><trkpt lat="45.1766477" lon="9.3145274"><ele>74.0</ele><time>2026-03-21T09:20:11.131Z</time></trkpt><trkpt lat="45.1766085" lon="9.3147261"><ele>74.0</ele><time>2026-03-21T09:20:12.131Z</time></trkpt><trkpt lat="45.1765658" lon="9.3149232"><ele>74.0</ele><time>2026-03-21T09:20:13.132Z</time></trkpt><trkpt lat="45.1765312" lon="9.3151102"><ele>74.0</ele><time>2026-03-21T09:20:14.132Z</time></trkpt><trkpt lat="45.1764948" lon="9.3153"><ele>74.0</ele><time>2026-03-21T09:20:15.132Z</time></trkpt><trkpt lat="45.176461" lon="9.3154917"><ele>74.0</ele><time>2026-03-21T09:20:16.131Z</time></trkpt><trkpt lat="45.176429" lon="9.3156848"><ele>74.0</ele><time>2026-03-21T09:20:17.131Z</time></trkpt><trkpt lat="45.1763971" lon="9.3158776"><ele>74.0</ele><time>2026-03-21T09:20:18.132Z</time></trkpt><trkpt lat="45.1763722" lon="9.3160598"><ele>74.0</ele><time>2026-03-21T09:20:19.131Z</time></trkpt><trkpt lat="45.1763456" lon="9.3162347"><ele>74.0</ele><time>2026-03-21T09:20:20.132Z</time></trkpt><trkpt lat="45.1763188" lon="9.3164013"><ele>74.0</ele><time>2026-03-21T09:20:21.132Z</time></trkpt><trkpt lat="45.1762929" lon="9.3165563"><ele>74.0</ele><time>2026-03-21T09:20:22.132Z</time></trkpt><trkpt lat="45.1762593" lon="9.3166883"><ele>74.0</ele><time>2026-03-21T09:20:23.131Z</time></trkpt><trkpt lat="45.1762022" lon="9.3167899"><ele>74.0</ele><time>2026-03-21T09:20:24.132Z</time></trkpt><trkpt lat="45.1761305" lon="9.3168466"><ele>74.0</ele><time>2026-03-21T09:20:25.132Z</time></trkpt><trkpt lat="45.1760547" lon="9.3168778"><ele>74.0</ele><time>2026-03-21T09:20:26.132Z</time></trkpt><trkpt lat="45.1759679" lon="9.3168683"><ele>74.0</ele><time>2026-03-21T09:20:27.131Z</time></trkpt><trkpt lat="45.1758677" lon="9.3168745"><ele>74.0</ele><time>2026-03-21T09:20:28.132Z</time></trkpt><trkpt lat="45.1757671" lon="9.316855"><ele>74.0</ele><time>2026-03-21T09:20:29.132Z</time></trkpt><trkpt lat="45.1756643" lon="9.3168371"><ele>73.75</ele><time>2026-03-21T09:20:30.131Z</time></trkpt><trkpt lat="45.1755586" lon="9.3168235"><ele>73.5</ele><time>2026-03-21T09:20:31.131Z</time></trkpt><trkpt lat="45.1754416" lon="9.3168044"><ele>73.25</ele><time>2026-03-21T09:20:32.132Z</time></trkpt><trkpt lat="45.1753155" lon="9.3167861"><ele>73.0</ele><time>2026-03-21T09:20:33.132Z</time></trkpt><trkpt lat="45.1751814" lon="9.3167631"><ele>73.0</ele><time>2026-03-21T09:20:34.131Z</time></trkpt><trkpt lat="45.1750451" lon="9.3167437"><ele>73.0</ele><time>2026-03-21T09:20:35.132Z</time></trkpt><trkpt lat="45.1749117" lon="9.3167207"><ele>73.0</ele><time>2026-03-21T09:20:36.131Z</time></trkpt><trkpt lat="45.1747797" lon="9.3166993"><ele>73.0</ele><time>2026-03-21T09:20:37.131Z</time></trkpt><trkpt lat="45.1746401" lon="9.316678"><ele>72.75</ele><time>2026-03-21T09:20:38.131Z</time></trkpt><trkpt lat="45.1745019" lon="9.3166551"><ele>72.5</ele><time>2026-03-21T09:20:39.131Z</time></trkpt><trkpt lat="45.174359" lon="9.3166286"><ele>72.25</ele><time>2026-03-21T09:20:40.132Z</time></trkpt><trkpt lat="45.1742108" lon="9.3166063"><ele>72.0</ele><time>2026-03-21T09:20:41.132Z</time></trkpt><trkpt lat="45.1740543" lon="9.3165819"><ele>72.0</ele><time>2026-03-21T09:20:42.131Z</time></trkpt><trkpt lat="45.1738984" lon="9.3165515"><ele>72.0</ele><time>2026-03-21T09:20:43.131Z</time></trkpt><trkpt lat="45.173739" lon="9.3165248"><ele>72.0</ele><time>2026-03-21T09:20:44.131Z</time></trkpt><trkpt lat="45.1735796" lon="9.3164999"><ele>72.0</ele><time>2026-03-21T09:20:45.132Z</time></trkpt><trkpt lat="45.1734238" lon="9.3164726"><ele>72.0</ele><time>2026-03-21T09:20:46.132Z</time></trkpt><trkpt lat="45.1732662" lon="9.3164426"><ele>72.0</ele><time>2026-03-21T09:20:47.132Z</time></trkpt><trkpt lat="45.1731096" lon="9.3164116"><ele>72.0</ele><time>2026-03-21T09:20:48.132Z</time></trkpt><trkpt lat="45.1729532" lon="9.3163843"><ele>72.0</ele><time>2026-03-21T09:20:49.132Z</time></trkpt><trkpt lat="45.1727949" lon="9.316361"><ele>72.0</ele><time>2026-03-21T09:20:50.132Z</time></trkpt><trkpt lat="45.172636" lon="9.3163328"><ele>72.0</ele><time>2026-03-21T09:20:51.132Z</time></trkpt><trkpt lat="45.1724745" lon="9.31631"><ele>72.0</ele><time>2026-03-21T09:20:52.132Z</time></trkpt><trkpt lat="45.1723101" lon="9.3162858"><ele>72.0</ele><time>2026-03-21T09:20:53.132Z</time></trkpt><trkpt lat="45.1721524" lon="9.3162609"><ele>72.0</ele><time>2026-03-21T09:20:54.131Z</time></trkpt><trkpt lat="45.1720059" lon="9.3162368"><ele>72.0</ele><time>2026-03-21T09:20:55.131Z</time></trkpt><trkpt lat="45.1718611" lon="9.3162121"><ele>72.0</ele><time>2026-03-21T09:20:56.131Z</time></trkpt><trkpt lat="45.1717109" lon="9.3161846"><ele>72.0</ele><time>2026-03-21T09:20:57.132Z</time></trkpt><trkpt lat="45.1715575" lon="9.3161577"><ele>72.0</ele><time>2026-03-21T09:20:58.131Z</time></trkpt><trkpt lat="45.1714069" lon="9.3161366"><ele>72.0</ele><time>2026-03-21T09:20:59.131Z</time></trkpt><trkpt lat="45.1712481" lon="9.3161159"><ele>72.0</ele><time>2026-03-21T09:21:00.132Z</time></trkpt><trkpt lat="45.1710872" lon="9.3160928"><ele>72.0</ele><time>2026-03-21T09:21:01.131Z</time></trkpt><trkpt lat="45.1709255" lon="9.3160722"><ele>72.0</ele><time>2026-03-21T09:21:02.131Z</time></trkpt><trkpt lat="45.1707613" lon="9.3160443"><ele>72.0</ele><time>2026-03-21T09:21:03.132Z</time></trkpt><trkpt lat="45.1705955" lon="9.3160149"><ele>72.0</ele><time>2026-03-21T09:21:04.132Z</time></trkpt><trkpt lat="45.1704414" lon="9.3159921"><ele>72.0</ele><time>2026-03-21T09:21:05.131Z</time></trkpt><trkpt lat="45.1702934" lon="9.3159709"><ele>72.0</ele><time>2026-03-21T09:21:06.132Z</time></trkpt><trkpt lat="45.1701504" lon="9.3159488"><ele>72.0</ele><time>2026-03-21T09:21:07.131Z</time></trkpt><trkpt lat="45.170014" lon="9.3159278"><ele>72.0</ele><time>2026-03-21T09:21:08.131Z</time></trkpt><trkpt lat="45.1698858" lon="9.315906"><ele>72.0</ele><time>2026-03-21T09:21:09.131Z</time></trkpt><trkpt lat="45.1697519" lon="9.3158868"><ele>72.0</ele><time>2026-03-21T09:21:10.132Z</time></trkpt><trkpt lat="45.1696197" lon="9.3158597"><ele>72.0</ele><time>2026-03-21T09:21:11.132Z</time></trkpt><trkpt lat="45.1694854" lon="9.3158338"><ele>71.75</ele><time>2026-03-21T09:21:12.132Z</time></trkpt><trkpt lat="45.1693522" lon="9.3158114"><ele>71.5</ele><time>2026-03-21T09:21:13.131Z</time></trkpt><trkpt lat="45.1692158" lon="9.3157905"><ele>71.25</ele><time>2026-03-21T09:21:14.132Z</time></trkpt><trkpt lat="45.1690784" lon="9.3157692"><ele>71.0</ele><time>2026-03-21T09:21:15.132Z</time></trkpt><trkpt lat="45.1689364" lon="9.3157512"><ele>71.0</ele><time>2026-03-21T09:21:16.131Z</time></trkpt><trkpt lat="45.1687917" lon="9.3157251"><ele>71.0</ele><time>2026-03-21T09:21:17.132Z</time></trkpt><trkpt lat="45.1686289" lon="9.3157018"><ele>71.0</ele><time>2026-03-21T09:21:18.131Z</time></trkpt><trkpt lat="45.1684403" lon="9.3156687"><ele>71.0</ele><time>2026-03-21T09:21:19.131Z</time></trkpt><trkpt lat="45.1682282" lon="9.3156356"><ele>71.0</ele><time>2026-03-21T09:21:20.131Z</time></trkpt><trkpt lat="45.167993" lon="9.315603"><ele>71.0</ele><time>2026-03-21T09:21:21.131Z</time></trkpt><trkpt lat="45.167749" lon="9.3155666"><ele>71.0</ele><time>2026-03-21T09:21:22.132Z</time></trkpt><trkpt lat="45.167508" lon="9.3155263"><ele>70.66666666666667</ele><time>2026-03-21T09:21:23.131Z</time></trkpt><trkpt lat="45.1672776" lon="9.3154864"><ele>70.33333333333333</ele><time>2026-03-21T09:21:24.131Z</time></trkpt><trkpt lat="45.1670695" lon="9.3154471"><ele>70.0</ele><time>2026-03-21T09:21:25.131Z</time></trkpt><trkpt lat="45.1668858" lon="9.3154091"><ele>70.0</ele><time>2026-03-21T09:21:26.132Z</time></trkpt><trkpt lat="45.1667219" lon="9.3153707"><ele>70.0</ele><time>2026-03-21T09:21:27.131Z</time></trkpt><trkpt lat="45.1665746" lon="9.3153356"><ele>70.0</ele><time>2026-03-21T09:21:28.131Z</time></trkpt><trkpt lat="45.1664372" lon="9.3153032"><ele>70.75</ele><time>2026-03-21T09:21:29.132Z</time></trkpt><trkpt lat="45.1663085" lon="9.3152708"><ele>71.5</ele><time>2026-03-21T09:21:30.132Z</time></trkpt><trkpt lat="45.1661886" lon="9.3152388"><ele>72.25</ele><time>2026-03-21T09:21:31.132Z</time></trkpt><trkpt lat="45.166069" lon="9.3152064"><ele>73.0</ele><time>2026-03-21T09:21:32.132Z</time></trkpt><trkpt lat="45.165953" lon="9.3151775"><ele>73.0</ele><time>2026-03-21T09:21:33.131Z</time></trkpt><trkpt lat="45.1658436" lon="9.31515"><ele>73.0</ele><time>2026-03-21T09:21:34.131Z</time></trkpt><trkpt lat="45.1657339" lon="9.3151209"><ele>73.0</ele><time>2026-03-21T09:21:35.131Z</time></trkpt><trkpt lat="45.1656284" lon="9.3150984"><ele>73.0</ele><time>2026-03-21T09:21:36.131Z</time></trkpt><trkpt lat="45.1655267" lon="9.3150773"><ele>73.0</ele><time>2026-03-21T09:21:37.131Z</time></trkpt><trkpt lat="45.165422" lon="9.3150537"><ele>73.0</ele><time>2026-03-21T09:21:38.131Z</time></trkpt><trkpt lat="45.165317" lon="9.3150336"><ele>73.0</ele><time>2026-03-21T09:21:39.131Z</time></trkpt><trkpt lat="45.1652147" lon="9.3150073"><ele>73.0</ele><time>2026-03-21T09:21:40.131Z</time></trkpt><trkpt lat="45.1651091" lon="9.3149846"><ele>73.0</ele><time>2026-03-21T09:21:41.131Z</time></trkpt><trkpt lat="45.1650013" lon="9.3149639"><ele>73.0</ele><time>2026-03-21T09:21:42.132Z</time></trkpt><trkpt lat="45.1648933" lon="9.3149388"><ele>73.0</ele><time>2026-03-21T09:21:43.132Z</time></trkpt><trkpt lat="45.1647843" lon="9.3149155"><ele>73.0</ele><time>2026-03-21T09:21:44.131Z</time></trkpt><trkpt lat="45.1646772" lon="9.3148943"><ele>73.0</ele><time>2026-03-21T09:21:45.131Z</time></trkpt><trkpt lat="45.1645652" lon="9.3148714"><ele>73.0</ele><time>2026-03-21T09:21:46.131Z</time></trkpt><trkpt lat="45.1644561" lon="9.3148426"><ele>73.0</ele><time>2026-03-21T09:21:47.132Z</time></trkpt><trkpt lat="45.1643427" lon="9.3148074"><ele>73.0</ele><time>2026-03-21T09:21:48.131Z</time></trkpt><trkpt lat="45.1642326" lon="9.314773"><ele>73.0</ele><time>2026-03-21T09:21:49.131Z</time></trkpt><trkpt lat="45.1641232" lon="9.3147419"><ele>73.0</ele><time>2026-03-21T09:21:50.132Z</time></trkpt><trkpt lat="45.1640162" lon="9.3147197"><ele>73.0</ele><time>2026-03-21T09:21:51.132Z</time></trkpt><trkpt lat="45.163917" lon="9.3147003"><ele>73.0</ele><time>2026-03-21T09:21:52.131Z</time></trkpt><trkpt lat="45.1638205" lon="9.3146858"><ele>73.0</ele><time>2026-03-21T09:21:53.132Z</time></trkpt><trkpt lat="45.1637179" lon="9.3146739"><ele>73.0</ele><time>2026-03-21T09:21:54.131Z</time></trkpt><trkpt lat="45.1636166" lon="9.3146686"><ele>73.0</ele><time>2026-03-21T09:21:55.132Z</time></trkpt><trkpt lat="45.1635174" lon="9.3146543"><ele>73.0</ele><time>2026-03-21T09:21:56.131Z</time></trkpt><trkpt lat="45.163415" lon="9.3146392"><ele>73.0</ele><time>2026-03-21T09:21:57.131Z</time></trkpt><trkpt lat="45.1633117" lon="9.314626"><ele>73.0</ele><time>2026-03-21T09:21:58.132Z</time></trkpt><trkpt lat="45.163206" lon="9.3146105"><ele>73.0</ele><time>2026-03-21T09:21:59.131Z</time></trkpt><trkpt lat="45.1630975" lon="9.3146003"><ele>73.0</ele><time>2026-03-21T09:22:00.132Z</time></trkpt><trkpt lat="45.1629926" lon="9.3145903"><ele>73.0</ele><time>2026-03-21T09:22:01.131Z</time></trkpt><trkpt lat="45.1628847" lon="9.3145836"><ele>73.0</ele><time>2026-03-21T09:22:02.132Z</time></trkpt><trkpt lat="45.1627719" lon="9.3145756"><ele>73.5</ele><time>2026-03-21T09:22:03.132Z</time></trkpt><trkpt lat="45.1626597" lon="9.3145634"><ele>74.0</ele><time>2026-03-21T09:22:04.131Z</time></trkpt><trkpt lat="45.1625444" lon="9.3145432"><ele>74.5</ele><time>2026-03-21T09:22:05.132Z</time></trkpt><trkpt lat="45.162432" lon="9.3145177"><ele>75.0</ele><time>2026-03-21T09:22:06.132Z</time></trkpt><trkpt lat="45.1623221" lon="9.3144942"><ele>75.2</ele><time>2026-03-21T09:22:07.132Z</time></trkpt><trkpt lat="45.162212" lon="9.3144765"><ele>75.4</ele><time>2026-03-21T09:22:08.131Z</time></trkpt><trkpt lat="45.1621053" lon="9.314457"><ele>75.6</ele><time>2026-03-21T09:22:09.132Z</time></trkpt><trkpt lat="45.1620012" lon="9.3144386"><ele>75.8</ele><time>2026-03-21T09:22:10.131Z</time></trkpt><trkpt lat="45.1619056" lon="9.3144146"><ele>76.0</ele><time>2026-03-21T09:22:11.132Z</time></trkpt><trkpt lat="45.1618172" lon="9.3143908"><ele>76.0</ele><time>2026-03-21T09:22:12.131Z</time></trkpt><trkpt lat="45.1617285" lon="9.3143688"><ele>76.0</ele><time>2026-03-21T09:22:13.131Z</time></trkpt><trkpt lat="45.1616368" lon="9.3143579"><ele>76.0</ele><time>2026-03-21T09:22:14.131Z</time></trkpt><trkpt lat="45.1615421" lon="9.3143457"><ele>76.0</ele><time>2026-03-21T09:22:15.132Z</time></trkpt><trkpt lat="45.16145" lon="9.3143326"><ele>76.0</ele><time>2026-03-21T09:22:16.132Z</time></trkpt><trkpt lat="45.1613561" lon="9.3143167"><ele>76.0</ele><time>2026-03-21T09:22:17.132Z</time></trkpt><trkpt lat="45.1612647" lon="9.3143065"><ele>76.0</ele><time>2026-03-21T09:22:18.131Z</time></trkpt><trkpt lat="45.1611711" lon="9.3142921"><ele>76.0</ele><time>2026-03-21T09:22:19.132Z</time></trkpt><trkpt lat="45.1610775" lon="9.3142796"><ele>76.0</ele><time>2026-03-21T09:22:20.132Z</time></trkpt><trkpt lat="45.1609905" lon="9.3142694"><ele>76.0</ele><time>2026-03-21T09:22:21.132Z</time></trkpt><trkpt lat="45.160905" lon="9.3142592"><ele>76.0</ele><time>2026-03-21T09:22:22.132Z</time></trkpt><trkpt lat="45.1608235" lon="9.3142438"><ele>76.0</ele><time>2026-03-21T09:22:23.132Z</time></trkpt><trkpt lat="45.1607427" lon="9.3142302"><ele>76.0</ele><time>2026-03-21T09:22:24.131Z</time></trkpt><trkpt lat="45.1606679" lon="9.3142163"><ele>76.0</ele><time>2026-03-21T09:22:25.131Z</time></trkpt><trkpt lat="45.1605982" lon="9.3141992"><ele>76.0</ele><time>2026-03-21T09:22:26.132Z</time></trkpt><trkpt lat="45.1605293" lon="9.3141874"><ele>76.0</ele><time>2026-03-21T09:22:27.131Z</time></trkpt><trkpt lat="45.1604627" lon="9.3141753"><ele>76.0</ele><time>2026-03-21T09:22:28.132Z</time></trkpt><trkpt lat="45.160394" lon="9.3141631"><ele>75.85714285714285</ele><time>2026-03-21T09:22:29.132Z</time></trkpt><trkpt lat="45.160325" lon="9.3141526"><ele>75.71428571428572</ele><time>2026-03-21T09:22:30.132Z</time></trkpt><trkpt lat="45.1602581" lon="9.3141424"><ele>75.57142857142857</ele><time>2026-03-21T09:22:31.131Z</time></trkpt><trkpt lat="45.1601956" lon="9.3141286"><ele>75.42857142857142</ele><time>2026-03-21T09:22:32.132Z</time></trkpt><trkpt lat="45.1601261" lon="9.3141184"><ele>75.28571428571428</ele><time>2026-03-21T09:22:33.131Z</time></trkpt><trkpt lat="45.160039" lon="9.3140976"><ele>75.14285714285714</ele><time>2026-03-21T09:22:34.132Z</time></trkpt><trkpt lat="45.1599652" lon="9.3140671"><ele>75.0</ele><time>2026-03-21T09:22:35.131Z</time></trkpt><trkpt lat="45.1598947" lon="9.3140433"><ele>74.83333333333333</ele><time>2026-03-21T09:22:37.132Z</time></trkpt><trkpt lat="45.1598095" lon="9.3140367"><ele>74.66666666666667</ele><time>2026-03-21T09:24:34.132Z</time></trkpt><trkpt lat="45.1597084" lon="9.3141204"><ele>74.5</ele><time>2026-03-21T09:24:36.132Z</time></trkpt><trkpt lat="45.1596639" lon="9.3142134"><ele>74.33333333333334</ele><time>2026-03-21T09:24:37.132Z</time></trkpt><trkpt lat="45.1596454" lon="9.3143248"><ele>74.16666666666667</ele><time>2026-03-21T09:24:38.132Z</time></trkpt><trkpt lat="45.1596319" lon="9.3144392"><ele>74.0</ele><time>2026-03-21T09:24:39.132Z</time></trkpt><trkpt lat="45.1596169" lon="9.3145726"><ele>74.0</ele><time>2026-03-21T09:24:40.132Z</time></trkpt><trkpt lat="45.1595963" lon="9.3147156"><ele>74.0</ele><time>2026-03-21T09:24:41.131Z</time></trkpt><trkpt lat="45.159572" lon="9.3148667"><ele>74.0</ele><time>2026-03-21T09:24:42.131Z</time></trkpt><trkpt lat="45.1595439" lon="9.3150217"><ele>74.0</ele><time>2026-03-21T09:24:43.131Z</time></trkpt><trkpt lat="45.1595172" lon="9.3151796"><ele>74.0</ele><time>2026-03-21T09:24:44.132Z</time></trkpt><trkpt lat="45.1594907" lon="9.3153379"><ele>74.0</ele><time>2026-03-21T09:24:45.131Z</time></trkpt><trkpt lat="45.1594631" lon="9.3154969"><ele>74.0</ele><time>2026-03-21T09:24:46.132Z</time></trkpt><trkpt lat="45.1594379" lon="9.315648"><ele>74.0</ele><time>2026-03-21T09:24:47.132Z</time></trkpt><trkpt lat="45.1594154" lon="9.3157902"><ele>74.0</ele><time>2026-03-21T09:24:48.131Z</time></trkpt><trkpt lat="45.1593933" lon="9.3159142"><ele>74.0</ele><time>2026-03-21T09:24:49.132Z</time></trkpt><trkpt lat="45.1593623" lon="9.3160158"><ele>74.0</ele><time>2026-03-21T09:24:50.132Z</time></trkpt><trkpt lat="45.1593083" lon="9.3160653"><ele>74.0</ele><time>2026-03-21T09:24:51.131Z</time></trkpt><trkpt lat="45.1591855" lon="9.3160893"><ele>74.0</ele><time>2026-03-21T09:24:53.132Z</time></trkpt><trkpt lat="45.1591325" lon="9.3161414"><ele>74.0</ele><time>2026-03-21T09:24:54.132Z</time></trkpt><trkpt lat="45.1590641" lon="9.3162248"><ele>74.0</ele><time>2026-03-21T09:24:55.132Z</time></trkpt><trkpt lat="45.1590034" lon="9.3163033"><ele>74.0</ele><time>2026-03-21T09:24:56.132Z</time></trkpt><trkpt lat="45.158937" lon="9.316397"><ele>73.8</ele><time>2026-03-21T09:24:57.132Z</time></trkpt><trkpt lat="45.1588543" lon="9.3164812"><ele>73.60000000000001</ele><time>2026-03-21T09:24:58.132Z</time></trkpt><trkpt lat="45.1587752" lon="9.3165682"><ele>73.4</ele><time>2026-03-21T09:24:59.132Z</time></trkpt><trkpt lat="45.1586818" lon="9.3166605"><ele>73.2</ele><time>2026-03-21T09:25:00.132Z</time></trkpt><trkpt lat="45.1585886" lon="9.3167689"><ele>73.0</ele><time>2026-03-21T09:25:01.131Z</time></trkpt><trkpt lat="45.1584992" lon="9.3168781"><ele>73.0</ele><time>2026-03-21T09:25:02.131Z</time></trkpt><trkpt lat="45.1584112" lon="9.316995"><ele>73.0</ele><time>2026-03-21T09:25:03.132Z</time></trkpt><trkpt lat="45.1583215" lon="9.3171079"><ele>73.0</ele><time>2026-03-21T09:25:04.131Z</time></trkpt><trkpt lat="45.1582292" lon="9.3172291"><ele>73.0</ele><time>2026-03-21T09:25:05.131Z</time></trkpt><trkpt lat="45.1581365" lon="9.317348"><ele>72.75</ele><time>2026-03-21T09:25:06.131Z</time></trkpt><trkpt lat="45.1580404" lon="9.3174641"><ele>72.5</ele><time>2026-03-21T09:25:07.131Z</time></trkpt><trkpt lat="45.1579471" lon="9.3175876"><ele>72.25</ele><time>2026-03-21T09:25:08.131Z</time></trkpt><trkpt lat="45.1578485" lon="9.3177116"><ele>72.0</ele><time>2026-03-21T09:25:09.131Z</time></trkpt><trkpt lat="45.1577491" lon="9.3178416"><ele>72.0</ele><time>2026-03-21T09:25:10.131Z</time></trkpt><trkpt lat="45.1576465" lon="9.3179704"><ele>72.0</ele><time>2026-03-21T09:25:11.131Z</time></trkpt><trkpt lat="45.1575479" lon="9.3181055"><ele>72.0</ele><time>2026-03-21T09:25:12.131Z</time></trkpt><trkpt lat="45.1574472" lon="9.3182433"><ele>72.0</ele><time>2026-03-21T09:25:13.132Z</time></trkpt><trkpt lat="45.1573459" lon="9.3183872"><ele>72.0</ele><time>2026-03-21T09:25:14.132Z</time></trkpt><trkpt lat="45.1572439" lon="9.3185256"><ele>72.0</ele><time>2026-03-21T09:25:15.131Z</time></trkpt><trkpt lat="45.1571384" lon="9.3186688"><ele>72.0</ele><time>2026-03-21T09:25:16.131Z</time></trkpt><trkpt lat="45.1570329" lon="9.318815"><ele>72.0</ele><time>2026-03-21T09:25:17.131Z</time></trkpt><trkpt lat="45.1569248" lon="9.3189683"><ele>71.66666666666667</ele><time>2026-03-21T09:25:18.132Z</time></trkpt><trkpt lat="45.1568142" lon="9.3191247"><ele>71.33333333333334</ele><time>2026-03-21T09:25:19.132Z</time></trkpt><trkpt lat="45.1567042" lon="9.319289"><ele>71.0</ele><time>2026-03-21T09:25:20.132Z</time></trkpt><trkpt lat="45.1565961" lon="9.3194454"><ele>71.0</ele><time>2026-03-21T09:25:21.132Z</time></trkpt><trkpt lat="45.1564811" lon="9.3196061"><ele>71.0</ele><time>2026-03-21T09:25:22.132Z</time></trkpt><trkpt lat="45.1563653" lon="9.3197724"><ele>71.0</ele><time>2026-03-21T09:25:23.131Z</time></trkpt><trkpt lat="45.1562464" lon="9.3199391"><ele>71.0</ele><time>2026-03-21T09:25:24.131Z</time></trkpt><trkpt lat="45.1561243" lon="9.3201061"><ele>71.0</ele><time>2026-03-21T09:25:25.132Z</time></trkpt><trkpt lat="45.1560028" lon="9.3202824"><ele>71.0</ele><time>2026-03-21T09:25:26.132Z</time></trkpt><trkpt lat="45.1558812" lon="9.3204631"><ele>70.66666666666667</ele><time>2026-03-21T09:25:27.132Z</time></trkpt><trkpt lat="45.155759" lon="9.3206463"><ele>70.33333333333333</ele><time>2026-03-21T09:25:28.132Z</time></trkpt><trkpt lat="45.1556339" lon="9.3208356"><ele>70.0</ele><time>2026-03-21T09:25:29.132Z</time></trkpt><trkpt lat="45.1555048" lon="9.3210234"><ele>70.33333333333333</ele><time>2026-03-21T09:25:30.131Z</time></trkpt><trkpt lat="45.1553731" lon="9.3212102"><ele>70.66666666666667</ele><time>2026-03-21T09:25:31.131Z</time></trkpt><trkpt lat="45.155235" lon="9.3214096"><ele>71.0</ele><time>2026-03-21T09:25:32.132Z</time></trkpt><trkpt lat="45.1550947" lon="9.3216158"><ele>71.0</ele><time>2026-03-21T09:25:33.131Z</time></trkpt><trkpt lat="45.1549511" lon="9.3218337"><ele>71.0</ele><time>2026-03-21T09:25:34.132Z</time></trkpt><trkpt lat="45.154802" lon="9.3220606"><ele>71.0</ele><time>2026-03-21T09:25:35.132Z</time></trkpt><trkpt lat="45.1546522" lon="9.3222934"><ele>71.5</ele><time>2026-03-21T09:25:36.131Z</time></trkpt><trkpt lat="45.1544978" lon="9.3225283"><ele>72.0</ele><time>2026-03-21T09:25:37.131Z</time></trkpt><trkpt lat="45.1543377" lon="9.3227667"><ele>72.0</ele><time>2026-03-21T09:25:38.131Z</time></trkpt><trkpt lat="45.154173" lon="9.323012"><ele>72.0</ele><time>2026-03-21T09:25:39.132Z</time></trkpt><trkpt lat="45.1540077" lon="9.3232578"><ele>71.0</ele><time>2026-03-21T09:25:40.132Z</time></trkpt><trkpt lat="45.1538505" lon="9.3235036"><ele>70.0</ele><time>2026-03-21T09:25:41.132Z</time></trkpt><trkpt lat="45.1536849" lon="9.3237508"><ele>70.0</ele><time>2026-03-21T09:25:42.132Z</time></trkpt><trkpt lat="45.1535214" lon="9.3240005"><ele>70.0</ele><time>2026-03-21T09:25:43.131Z</time></trkpt><trkpt lat="45.1533608" lon="9.3242512"><ele>69.5</ele><time>2026-03-21T09:25:44.131Z</time></trkpt><trkpt lat="45.1532028" lon="9.3244994"><ele>69.0</ele><time>2026-03-21T09:25:45.132Z</time></trkpt><trkpt lat="45.1530501" lon="9.3247434"><ele>68.66666666666667</ele><time>2026-03-21T09:25:46.131Z</time></trkpt><trkpt lat="45.1529013" lon="9.3249854"><ele>68.33333333333334</ele><time>2026-03-21T09:25:47.131Z</time></trkpt><trkpt lat="45.15276" lon="9.3252174"><ele>68.0</ele><time>2026-03-21T09:25:48.132Z</time></trkpt><trkpt lat="45.1526276" lon="9.3254382"><ele>68.33333333333334</ele><time>2026-03-21T09:25:49.132Z</time></trkpt><trkpt lat="45.1525053" lon="9.3256488"><ele>68.66666666666667</ele><time>2026-03-21T09:25:50.131Z</time></trkpt><trkpt lat="45.1523933" lon="9.3258422"><ele>69.0</ele><time>2026-03-21T09:25:51.132Z</time></trkpt><trkpt lat="45.1522903" lon="9.326019"><ele>69.25</ele><time>2026-03-21T09:25:52.132Z</time></trkpt><trkpt lat="45.1521921" lon="9.3261864"><ele>69.5</ele><time>2026-03-21T09:25:53.131Z</time></trkpt><trkpt lat="45.1520947" lon="9.3263415"><ele>69.75</ele><time>2026-03-21T09:25:54.131Z</time></trkpt><trkpt lat="45.1520072" lon="9.3264946"><ele>70.0</ele><time>2026-03-21T09:25:55.132Z</time></trkpt><trkpt lat="45.1519127" lon="9.3266497"><ele>70.25</ele><time>2026-03-21T09:25:56.132Z</time></trkpt><trkpt lat="45.1518175" lon="9.3268063"><ele>70.5</ele><time>2026-03-21T09:25:57.131Z</time></trkpt><trkpt lat="45.1517214" lon="9.3269636"><ele>70.75</ele><time>2026-03-21T09:25:58.132Z</time></trkpt><trkpt lat="45.1516193" lon="9.3271239"><ele>71.0</ele><time>2026-03-21T09:25:59.131Z</time></trkpt><trkpt lat="45.1515181" lon="9.3272903"><ele>71.33333333333334</ele><time>2026-03-21T09:26:00.131Z</time></trkpt><trkpt lat="45.1514151" lon="9.3274582"><ele>71.66666666666667</ele><time>2026-03-21T09:26:01.131Z</time></trkpt><trkpt lat="45.1513125" lon="9.3276291"><ele>72.0</ele><time>2026-03-21T09:26:02.132Z</time></trkpt><trkpt lat="45.1512075" lon="9.3278004"><ele>72.0</ele><time>2026-03-21T09:26:03.131Z</time></trkpt><trkpt lat="45.1511012" lon="9.3279809"><ele>72.0</ele><time>2026-03-21T09:26:04.132Z</time></trkpt><trkpt lat="45.1509939" lon="9.3281509"><ele>72.0</ele><time>2026-03-21T09:26:05.131Z</time></trkpt><trkpt lat="45.150885" lon="9.3283232"><ele>72.0</ele><time>2026-03-21T09:26:06.131Z</time></trkpt><trkpt lat="45.1507725" lon="9.3284943"><ele>72.0</ele><time>2026-03-21T09:26:07.131Z</time></trkpt><trkpt lat="45.150664" lon="9.3286726"><ele>72.0</ele><time>2026-03-21T09:26:08.131Z</time></trkpt><trkpt lat="45.1505533" lon="9.3288502"><ele>71.0</ele><time>2026-03-21T09:26:09.132Z</time></trkpt><trkpt lat="45.1504422" lon="9.3290263"><ele>70.0</ele><time>2026-03-21T09:26:10.132Z</time></trkpt><trkpt lat="45.1503286" lon="9.3292031"><ele>69.0</ele><time>2026-03-21T09:26:11.131Z</time></trkpt><trkpt lat="45.1502162" lon="9.3293786"><ele>69.0</ele><time>2026-03-21T09:26:12.131Z</time></trkpt><trkpt lat="45.1501046" lon="9.3295552"><ele>69.0</ele><time>2026-03-21T09:26:13.131Z</time></trkpt><trkpt lat="45.1499932" lon="9.3297358"><ele>69.0</ele><time>2026-03-21T09:26:14.132Z</time></trkpt><trkpt lat="45.1498879" lon="9.3299252"><ele>67.0</ele><time>2026-03-21T09:26:15.132Z</time></trkpt><trkpt lat="45.1497986" lon="9.3301254"><ele>65.0</ele><time>2026-03-21T09:26:16.132Z</time></trkpt><trkpt lat="45.1497262" lon="9.3303339"><ele>63.0</ele><time>2026-03-21T09:26:17.132Z</time></trkpt><trkpt lat="45.1496684" lon="9.3305423"><ele>63.33333333333333</ele><time>2026-03-21T09:26:18.132Z</time></trkpt><trkpt lat="45.149612" lon="9.3307485"><ele>63.666666666666664</ele><time>2026-03-21T09:26:19.131Z</time></trkpt><trkpt lat="45.149557" lon="9.3309497"><ele>64.0</ele><time>2026-03-21T09:26:20.131Z</time></trkpt><trkpt lat="45.1494927" lon="9.3311401"><ele>64.0</ele><time>2026-03-21T09:26:21.132Z</time></trkpt><trkpt lat="45.1494156" lon="9.3313275"><ele>64.0</ele><time>2026-03-21T09:26:22.132Z</time></trkpt><trkpt lat="45.1493353" lon="9.3315066"><ele>64.0</ele><time>2026-03-21T09:26:23.132Z</time></trkpt><trkpt lat="45.1492531" lon="9.3316887"><ele>64.0</ele><time>2026-03-21T09:26:24.132Z</time></trkpt><trkpt lat="45.1491725" lon="9.3318684"><ele>64.0</ele><time>2026-03-21T09:26:25.132Z</time></trkpt><trkpt lat="45.1490985" lon="9.3320364"><ele>64.0</ele><time>2026-03-21T09:26:26.132Z</time></trkpt><trkpt lat="45.1490287" lon="9.3322155"><ele>64.0</ele><time>2026-03-21T09:26:27.132Z</time></trkpt><trkpt lat="45.1489724" lon="9.3324023"><ele>64.0</ele><time>2026-03-21T09:26:28.131Z</time></trkpt><trkpt lat="45.1489222" lon="9.3325985"><ele>64.0</ele><time>2026-03-21T09:26:29.131Z</time></trkpt><trkpt lat="45.1488773" lon="9.3328039"><ele>64.0</ele><time>2026-03-21T09:26:30.131Z</time></trkpt><trkpt lat="45.1488386" lon="9.3330084"><ele>64.0</ele><time>2026-03-21T09:26:31.131Z</time></trkpt><trkpt lat="45.1488101" lon="9.3332061"><ele>64.5</ele><time>2026-03-21T09:26:32.132Z</time></trkpt><trkpt lat="45.1487901" lon="9.3334043"><ele>65.0</ele><time>2026-03-21T09:26:33.131Z</time></trkpt><trkpt lat="45.1487766" lon="9.333592"><ele>65.5</ele><time>2026-03-21T09:26:34.131Z</time></trkpt><trkpt lat="45.1487661" lon="9.3337858"><ele>66.0</ele><time>2026-03-21T09:26:35.132Z</time></trkpt><trkpt lat="45.1487565" lon="9.333983"><ele>66.0</ele><time>2026-03-21T09:26:36.132Z</time></trkpt><trkpt lat="45.1487502" lon="9.33418"><ele>66.0</ele><time>2026-03-21T09:26:37.132Z</time></trkpt><trkpt lat="45.1487469" lon="9.3343493"><ele>66.0</ele><time>2026-03-21T09:26:38.132Z</time></trkpt><trkpt lat="45.1487385" lon="9.3345043"><ele>66.0</ele><time>2026-03-21T09:26:39.132Z</time></trkpt><trkpt lat="45.1487343" lon="9.3346625"><ele>66.0</ele><time>2026-03-21T09:26:40.131Z</time></trkpt><trkpt lat="45.14873" lon="9.3348065"><ele>66.0</ele><time>2026-03-21T09:26:41.132Z</time></trkpt><trkpt lat="45.148731" lon="9.3349644"><ele>66.0</ele><time>2026-03-21T09:26:42.132Z</time></trkpt><trkpt lat="45.148726" lon="9.3351417"><ele>66.0</ele><time>2026-03-21T09:26:43.131Z</time></trkpt><trkpt lat="45.1487149" lon="9.3353358"><ele>66.0</ele><time>2026-03-21T09:26:44.132Z</time></trkpt><trkpt lat="45.1486968" lon="9.3355387"><ele>66.0</ele><time>2026-03-21T09:26:45.132Z</time></trkpt><trkpt lat="45.148677" lon="9.3357506"><ele>66.0</ele><time>2026-03-21T09:26:46.132Z</time></trkpt><trkpt lat="45.1486503" lon="9.3359712"><ele>67.0</ele><time>2026-03-21T09:26:47.131Z</time></trkpt><trkpt lat="45.1486235" lon="9.3362027"><ele>68.0</ele><time>2026-03-21T09:26:48.132Z</time></trkpt><trkpt lat="45.1485966" lon="9.3364462"><ele>69.0</ele><time>2026-03-21T09:26:49.132Z</time></trkpt><trkpt lat="45.1485702" lon="9.336686"><ele>69.33333333333333</ele><time>2026-03-21T09:26:50.131Z</time></trkpt><trkpt lat="45.1485415" lon="9.3369316"><ele>69.66666666666666</ele><time>2026-03-21T09:26:51.132Z</time></trkpt><trkpt lat="45.1485258" lon="9.3371843"><ele>70.0</ele><time>2026-03-21T09:26:52.132Z</time></trkpt><trkpt lat="45.1485262" lon="9.3374425"><ele>70.33333333333333</ele><time>2026-03-21T09:26:53.131Z</time></trkpt><trkpt lat="45.1485422" lon="9.3377019"><ele>70.66666666666667</ele><time>2026-03-21T09:26:54.131Z</time></trkpt><trkpt lat="45.1485624" lon="9.3379646"><ele>71.0</ele><time>2026-03-21T09:26:55.132Z</time></trkpt><trkpt lat="45.1485888" lon="9.3382175"><ele>71.0</ele><time>2026-03-21T09:26:56.131Z</time></trkpt><trkpt lat="45.1486151" lon="9.3384584"><ele>71.0</ele><time>2026-03-21T09:26:57.131Z</time></trkpt><trkpt lat="45.1486463" lon="9.3387001"><ele>71.0</ele><time>2026-03-21T09:26:58.132Z</time></trkpt><trkpt lat="45.148678" lon="9.3389429"><ele>71.0</ele><time>2026-03-21T09:26:59.132Z</time></trkpt><trkpt lat="45.1487099" lon="9.3391795"><ele>71.0</ele><time>2026-03-21T09:27:00.132Z</time></trkpt><trkpt lat="45.1487447" lon="9.3393986"><ele>71.0</ele><time>2026-03-21T09:27:01.132Z</time></trkpt><trkpt lat="45.148783" lon="9.3396059"><ele>71.25</ele><time>2026-03-21T09:27:02.132Z</time></trkpt><trkpt lat="45.1488321" lon="9.3397822"><ele>71.5</ele><time>2026-03-21T09:27:03.131Z</time></trkpt><trkpt lat="45.1488922" lon="9.3399274"><ele>71.75</ele><time>2026-03-21T09:27:04.131Z</time></trkpt><trkpt lat="45.1489486" lon="9.340048"><ele>72.0</ele><time>2026-03-21T09:27:05.131Z</time></trkpt><trkpt lat="45.1489686" lon="9.3401871"><ele>72.0</ele><time>2026-03-21T09:27:06.132Z</time></trkpt><trkpt lat="45.1489683" lon="9.3403609"><ele>72.0</ele><time>2026-03-21T09:27:07.132Z</time></trkpt><trkpt lat="45.1489551" lon="9.3405335"><ele>72.0</ele><time>2026-03-21T09:27:08.131Z</time></trkpt><trkpt lat="45.1489361" lon="9.3406814"><ele>72.0</ele><time>2026-03-21T09:27:09.132Z</time></trkpt><trkpt lat="45.1488985" lon="9.3408039"><ele>72.0</ele><time>2026-03-21T09:27:10.131Z</time></trkpt><trkpt lat="45.1488304" lon="9.3408797"><ele>71.75</ele><time>2026-03-21T09:27:11.131Z</time></trkpt><trkpt lat="45.1487365" lon="9.3408981"><ele>71.5</ele><time>2026-03-21T09:27:12.132Z</time></trkpt><trkpt lat="45.1486289" lon="9.3408764"><ele>71.25</ele><time>2026-03-21T09:27:13.131Z</time></trkpt><trkpt lat="45.1484959" lon="9.3408319"><ele>71.0</ele><time>2026-03-21T09:27:14.132Z</time></trkpt><trkpt lat="45.1483404" lon="9.3407808"><ele>71.0</ele><time>2026-03-21T09:27:15.131Z</time></trkpt><trkpt lat="45.1481677" lon="9.3407257"><ele>71.0</ele><time>2026-03-21T09:27:16.132Z</time></trkpt><trkpt lat="45.1479829" lon="9.3406686"><ele>71.0</ele><time>2026-03-21T09:27:17.132Z</time></trkpt><trkpt lat="45.1477811" lon="9.3406021"><ele>71.0</ele><time>2026-03-21T09:27:18.132Z</time></trkpt><trkpt lat="45.1475737" lon="9.3405309"><ele>71.0</ele><time>2026-03-21T09:27:19.132Z</time></trkpt><trkpt lat="45.1473617" lon="9.3404586"><ele>71.0</ele><time>2026-03-21T09:27:20.132Z</time></trkpt><trkpt lat="45.1471633" lon="9.3403899"><ele>70.66666666666667</ele><time>2026-03-21T09:27:21.131Z</time></trkpt><trkpt lat="45.1469744" lon="9.3403261"><ele>70.33333333333333</ele><time>2026-03-21T09:27:22.131Z</time></trkpt><trkpt lat="45.1468011" lon="9.340265"><ele>70.0</ele><time>2026-03-21T09:27:23.132Z</time></trkpt><trkpt lat="45.1466386" lon="9.3402132"><ele>69.25</ele><time>2026-03-21T09:27:24.131Z</time></trkpt><trkpt lat="45.1464866" lon="9.3401795"><ele>68.5</ele><time>2026-03-21T09:27:25.131Z</time></trkpt><trkpt lat="45.1463456" lon="9.3401735"><ele>67.75</ele><time>2026-03-21T09:27:26.131Z</time></trkpt><trkpt lat="45.1462256" lon="9.3402198"><ele>67.0</ele><time>2026-03-21T09:27:27.131Z</time></trkpt><trkpt lat="45.1461115" lon="9.3403223"><ele>67.0</ele><time>2026-03-21T09:27:28.132Z</time></trkpt><trkpt lat="45.1460046" lon="9.3404638"><ele>67.0</ele><time>2026-03-21T09:27:29.131Z</time></trkpt><trkpt lat="45.145899" lon="9.3406279"><ele>67.0</ele><time>2026-03-21T09:27:30.132Z</time></trkpt><trkpt lat="45.1457877" lon="9.3407999"><ele>67.33333333333333</ele><time>2026-03-21T09:27:31.132Z</time></trkpt><trkpt lat="45.1456667" lon="9.3409715"><ele>67.66666666666667</ele><time>2026-03-21T09:27:32.132Z</time></trkpt><trkpt lat="45.1455306" lon="9.3411168"><ele>68.0</ele><time>2026-03-21T09:27:33.132Z</time></trkpt><trkpt lat="45.1453855" lon="9.341202"><ele>68.0</ele><time>2026-03-21T09:27:34.132Z</time></trkpt><trkpt lat="45.1452193" lon="9.3412299"><ele>68.0</ele><time>2026-03-21T09:27:35.131Z</time></trkpt><trkpt lat="45.1450445" lon="9.341207"><ele>68.0</ele><time>2026-03-21T09:27:36.132Z</time></trkpt><trkpt lat="45.1448483" lon="9.3411793"><ele>66.33333333333334</ele><time>2026-03-21T09:27:37.132Z</time></trkpt><trkpt lat="45.1446397" lon="9.3411782"><ele>64.66666666666667</ele><time>2026-03-21T09:27:38.132Z</time></trkpt><trkpt lat="45.1444248" lon="9.3412172"><ele>63.0</ele><time>2026-03-21T09:27:39.132Z</time></trkpt><trkpt lat="45.1442043" lon="9.3412868"><ele>62.66666666666667</ele><time>2026-03-21T09:27:40.132Z</time></trkpt><trkpt lat="45.1439928" lon="9.3413381"><ele>62.333333333333336</ele><time>2026-03-21T09:27:41.131Z</time></trkpt><trkpt lat="45.1437971" lon="9.3413764"><ele>62.0</ele><time>2026-03-21T09:27:42.131Z</time></trkpt><trkpt lat="45.1436215" lon="9.3414007"><ele>63.25</ele><time>2026-03-21T09:27:43.131Z</time></trkpt><trkpt lat="45.1434689" lon="9.3414208"><ele>64.5</ele><time>2026-03-21T09:27:44.132Z</time></trkpt><trkpt lat="45.1433405" lon="9.3414835"><ele>65.75</ele><time>2026-03-21T09:27:45.131Z</time></trkpt><trkpt lat="45.1432436" lon="9.3415922"><ele>67.0</ele><time>2026-03-21T09:27:46.132Z</time></trkpt><trkpt lat="45.1431692" lon="9.341752"><ele>67.66666666666666</ele><time>2026-03-21T09:27:47.131Z</time></trkpt><trkpt lat="45.1431023" lon="9.3419844"><ele>68.33333333333333</ele><time>2026-03-21T09:27:48.131Z</time></trkpt><trkpt lat="45.1430448" lon="9.3421953"><ele>69.0</ele><time>2026-03-21T09:27:49.132Z</time></trkpt><trkpt lat="45.1429828" lon="9.3423772"><ele>69.25</ele><time>2026-03-21T09:27:50.131Z</time></trkpt><trkpt lat="45.1429097" lon="9.3424987"><ele>69.5</ele><time>2026-03-21T09:27:51.131Z</time></trkpt><trkpt lat="45.1428221" lon="9.3425578"><ele>69.75</ele><time>2026-03-21T09:27:52.131Z</time></trkpt><trkpt lat="45.1427201" lon="9.342555"><ele>70.0</ele><time>2026-03-21T09:27:53.132Z</time></trkpt><trkpt lat="45.1425779" lon="9.3424985"><ele>70.0</ele><time>2026-03-21T09:27:54.132Z</time></trkpt><trkpt lat="45.1423979" lon="9.3424198"><ele>70.0</ele><time>2026-03-21T09:27:55.131Z</time></trkpt><trkpt lat="45.142221" lon="9.3423452"><ele>70.0</ele><time>2026-03-21T09:27:56.131Z</time></trkpt><trkpt lat="45.1420514" lon="9.3422699"><ele>70.0</ele><time>2026-03-21T09:27:57.132Z</time></trkpt><trkpt lat="45.1418939" lon="9.3421927"><ele>70.0</ele><time>2026-03-21T09:27:58.132Z</time></trkpt><trkpt lat="45.1417571" lon="9.3421275"><ele>70.0</ele><time>2026-03-21T09:27:59.132Z</time></trkpt><trkpt lat="45.1416319" lon="9.3420846"><ele>70.0</ele><time>2026-03-21T09:28:00.132Z</time></trkpt><trkpt lat="45.1415196" lon="9.3420824"><ele>70.0</ele><time>2026-03-21T09:28:01.131Z</time></trkpt><trkpt lat="45.14141" lon="9.3421376"><ele>70.0</ele><time>2026-03-21T09:28:02.131Z</time></trkpt><trkpt lat="45.1412941" lon="9.3422416"><ele>70.0</ele><time>2026-03-21T09:28:03.132Z</time></trkpt><trkpt lat="45.1411877" lon="9.3423434"><ele>70.0</ele><time>2026-03-21T09:28:04.132Z</time></trkpt><trkpt lat="45.1410743" lon="9.3424575"><ele>70.0</ele><time>2026-03-21T09:28:05.132Z</time></trkpt><trkpt lat="45.1409457" lon="9.3425828"><ele>70.0</ele><time>2026-03-21T09:28:06.132Z</time></trkpt><trkpt lat="45.1407952" lon="9.3427066"><ele>70.0</ele><time>2026-03-21T09:28:07.132Z</time></trkpt><trkpt lat="45.1406359" lon="9.342835"><ele>70.0</ele><time>2026-03-21T09:28:08.131Z</time></trkpt><trkpt lat="45.1404653" lon="9.3429674"><ele>70.0</ele><time>2026-03-21T09:28:09.132Z</time></trkpt><trkpt lat="45.1402871" lon="9.3431063"><ele>70.0</ele><time>2026-03-21T09:28:10.131Z</time></trkpt><trkpt lat="45.1401043" lon="9.3432617"><ele>70.0</ele><time>2026-03-21T09:28:11.132Z</time></trkpt><trkpt lat="45.1399146" lon="9.3434212"><ele>70.0</ele><time>2026-03-21T09:28:12.131Z</time></trkpt><trkpt lat="45.1397193" lon="9.343587"><ele>70.0</ele><time>2026-03-21T09:28:13.132Z</time></trkpt><trkpt lat="45.1395243" lon="9.3437522"><ele>69.5</ele><time>2026-03-21T09:28:14.131Z</time></trkpt><trkpt lat="45.139326" lon="9.3439219"><ele>69.0</ele><time>2026-03-21T09:28:15.132Z</time></trkpt><trkpt lat="45.1391276" lon="9.3440913"><ele>68.5</ele><time>2026-03-21T09:28:16.132Z</time></trkpt><trkpt lat="45.1389328" lon="9.3442638"><ele>68.0</ele><time>2026-03-21T09:28:17.131Z</time></trkpt><trkpt lat="45.1387437" lon="9.3444333"><ele>68.0</ele><time>2026-03-21T09:28:18.132Z</time></trkpt><trkpt lat="45.1385539" lon="9.3446006"><ele>68.0</ele><time>2026-03-21T09:28:19.132Z</time></trkpt><trkpt lat="45.1383666" lon="9.3447546"><ele>68.0</ele><time>2026-03-21T09:28:20.132Z</time></trkpt><trkpt lat="45.1381788" lon="9.3448846"><ele>67.66666666666667</ele><time>2026-03-21T09:28:21.132Z</time></trkpt><trkpt lat="45.1379769" lon="9.3449907"><ele>67.33333333333333</ele><time>2026-03-21T09:28:22.132Z</time></trkpt><trkpt lat="45.1377726" lon="9.3450829"><ele>67.0</ele><time>2026-03-21T09:28:23.132Z</time></trkpt><trkpt lat="45.1375667" lon="9.3451735"><ele>66.66666666666666</ele><time>2026-03-21T09:28:24.131Z</time></trkpt><trkpt lat="45.1373663" lon="9.3452706"><ele>66.33333333333333</ele><time>2026-03-21T09:28:25.132Z</time></trkpt><trkpt lat="45.1371708" lon="9.3453686"><ele>66.0</ele><time>2026-03-21T09:28:26.132Z</time></trkpt><trkpt lat="45.1369739" lon="9.3454676"><ele>67.0</ele><time>2026-03-21T09:28:27.132Z</time></trkpt><trkpt lat="45.1367732" lon="9.3455592"><ele>68.0</ele><time>2026-03-21T09:28:28.132Z</time></trkpt><trkpt lat="45.1365675" lon="9.3456369"><ele>69.0</ele><time>2026-03-21T09:28:29.132Z</time></trkpt><trkpt lat="45.136364" lon="9.3457121"><ele>69.0</ele><time>2026-03-21T09:28:30.131Z</time></trkpt><trkpt lat="45.1361644" lon="9.3457811"><ele>69.0</ele><time>2026-03-21T09:28:31.132Z</time></trkpt><trkpt lat="45.1359688" lon="9.3458517"><ele>69.0</ele><time>2026-03-21T09:28:32.132Z</time></trkpt><trkpt lat="45.1357731" lon="9.3459174"><ele>68.66666666666667</ele><time>2026-03-21T09:28:33.132Z</time></trkpt><trkpt lat="45.1355832" lon="9.3459882"><ele>68.33333333333334</ele><time>2026-03-21T09:28:34.131Z</time></trkpt><trkpt lat="45.1354001" lon="9.3460631"><ele>68.0</ele><time>2026-03-21T09:28:35.132Z</time></trkpt><trkpt lat="45.1352192" lon="9.3461363"><ele>68.0</ele><time>2026-03-21T09:28:36.132Z</time></trkpt><trkpt lat="45.1350387" lon="9.3462052"><ele>68.0</ele><time>2026-03-21T09:28:37.132Z</time></trkpt><trkpt lat="45.1348574" lon="9.3462752"><ele>68.0</ele><time>2026-03-21T09:28:38.131Z</time></trkpt><trkpt lat="45.1346782" lon="9.3463355"><ele>68.66666666666667</ele><time>2026-03-21T09:28:39.132Z</time></trkpt><trkpt lat="45.1345055" lon="9.3463818"><ele>69.33333333333333</ele><time>2026-03-21T09:28:40.132Z</time></trkpt><trkpt lat="45.1343436" lon="9.3464205"><ele>70.0</ele><time>2026-03-21T09:28:41.132Z</time></trkpt><trkpt lat="45.13419" lon="9.3464576"><ele>69.75</ele><time>2026-03-21T09:28:42.132Z</time></trkpt><trkpt lat="45.134044" lon="9.3464937"><ele>69.5</ele><time>2026-03-21T09:28:43.131Z</time></trkpt><trkpt lat="45.1339097" lon="9.3465358"><ele>69.25</ele><time>2026-03-21T09:28:44.132Z</time></trkpt><trkpt lat="45.1337861" lon="9.3465795"><ele>69.0</ele><time>2026-03-21T09:28:45.132Z</time></trkpt><trkpt lat="45.1336771" lon="9.3466231"><ele>69.0</ele><time>2026-03-21T09:28:46.131Z</time></trkpt><trkpt lat="45.1335838" lon="9.3466589"><ele>69.0</ele><time>2026-03-21T09:28:47.132Z</time></trkpt><trkpt lat="45.133516" lon="9.3466902"><ele>69.0</ele><time>2026-03-21T09:28:48.131Z</time></trkpt><trkpt lat="45.1334112" lon="9.346713"><ele>69.0</ele><time>2026-03-21T09:28:50.132Z</time></trkpt><trkpt lat="45.1333357" lon="9.3467199"><ele>69.0</ele><time>2026-03-21T09:28:51.131Z</time></trkpt><trkpt lat="45.1332332" lon="9.3467351"><ele>69.25</ele><time>2026-03-21T09:28:52.131Z</time></trkpt><trkpt lat="45.1331056" lon="9.3467606"><ele>69.5</ele><time>2026-03-21T09:28:53.131Z</time></trkpt><trkpt lat="45.1329598" lon="9.3467849"><ele>69.75</ele><time>2026-03-21T09:28:54.132Z</time></trkpt><trkpt lat="45.1328158" lon="9.3468107"><ele>70.0</ele><time>2026-03-21T09:28:55.131Z</time></trkpt><trkpt lat="45.1326709" lon="9.3468536"><ele>70.0</ele><time>2026-03-21T09:28:56.131Z</time></trkpt><trkpt lat="45.1325311" lon="9.3469146"><ele>70.0</ele><time>2026-03-21T09:28:57.131Z</time></trkpt><trkpt lat="45.1323866" lon="9.3470071"><ele>70.0</ele><time>2026-03-21T09:28:58.132Z</time></trkpt><trkpt lat="45.1322259" lon="9.347139"><ele>68.66666666666666</ele><time>2026-03-21T09:28:59.132Z</time></trkpt><trkpt lat="45.1320468" lon="9.3472945"><ele>67.33333333333333</ele><time>2026-03-21T09:29:00.132Z</time></trkpt><trkpt lat="45.1318667" lon="9.3474585"><ele>66.0</ele><time>2026-03-21T09:29:01.132Z</time></trkpt><trkpt lat="45.1316986" lon="9.3476207"><ele>66.0</ele><time>2026-03-21T09:29:02.132Z</time></trkpt><trkpt lat="45.1315431" lon="9.3477986"><ele>66.0</ele><time>2026-03-21T09:29:03.132Z</time></trkpt><trkpt lat="45.1314062" lon="9.3480134"><ele>66.0</ele><time>2026-03-21T09:29:04.132Z</time></trkpt><trkpt lat="45.131291" lon="9.3482646"><ele>65.5</ele><time>2026-03-21T09:29:05.131Z</time></trkpt><trkpt lat="45.1311635" lon="9.3485263"><ele>65.0</ele><time>2026-03-21T09:29:06.131Z</time></trkpt><trkpt lat="45.1310093" lon="9.3487828"><ele>66.0</ele><time>2026-03-21T09:29:07.131Z</time></trkpt><trkpt lat="45.130829" lon="9.3490272"><ele>67.0</ele><time>2026-03-21T09:29:08.131Z</time></trkpt><trkpt lat="45.1306339" lon="9.3492628"><ele>64.5</ele><time>2026-03-21T09:29:09.132Z</time></trkpt><trkpt lat="45.1304332" lon="9.3495146"><ele>62.0</ele><time>2026-03-21T09:29:10.131Z</time></trkpt><trkpt lat="45.1302337" lon="9.3497669"><ele>60.5</ele><time>2026-03-21T09:29:11.132Z</time></trkpt><trkpt lat="45.1300392" lon="9.3500093"><ele>59.0</ele><time>2026-03-21T09:29:12.132Z</time></trkpt><trkpt lat="45.1298534" lon="9.350249"><ele>58.0</ele><time>2026-03-21T09:29:13.132Z</time></trkpt><trkpt lat="45.1296776" lon="9.3504738"><ele>57.0</ele><time>2026-03-21T09:29:14.132Z</time></trkpt><trkpt lat="45.1295154" lon="9.3506839"><ele>57.0</ele><time>2026-03-21T09:29:15.132Z</time></trkpt><trkpt lat="45.1293589" lon="9.3508774"><ele>57.0</ele><time>2026-03-21T09:29:16.131Z</time></trkpt><trkpt lat="45.1292129" lon="9.3510538"><ele>57.0</ele><time>2026-03-21T09:29:17.132Z</time></trkpt><trkpt lat="45.1290633" lon="9.3512019"><ele>56.66666666666667</ele><time>2026-03-21T09:29:18.132Z</time></trkpt><trkpt lat="45.1288975" lon="9.3513116"><ele>56.333333333333336</ele><time>2026-03-21T09:29:19.132Z</time></trkpt><trkpt lat="45.1287216" lon="9.3513707"><ele>56.0</ele><time>2026-03-21T09:29:20.132Z</time></trkpt><trkpt lat="45.1285325" lon="9.3513654"><ele>56.0</ele><time>2026-03-21T09:29:21.132Z</time></trkpt><trkpt lat="45.1283476" lon="9.3513001"><ele>56.0</ele><time>2026-03-21T09:29:22.132Z</time></trkpt><trkpt lat="45.1281683" lon="9.3511702"><ele>56.0</ele><time>2026-03-21T09:29:23.131Z</time></trkpt><trkpt lat="45.1279899" lon="9.3509846"><ele>56.5</ele><time>2026-03-21T09:29:24.131Z</time></trkpt><trkpt lat="45.1277947" lon="9.3507604"><ele>57.0</ele><time>2026-03-21T09:29:25.132Z</time></trkpt><trkpt lat="45.1275703" lon="9.3505011"><ele>57.0</ele><time>2026-03-21T09:29:26.131Z</time></trkpt><trkpt lat="45.1273301" lon="9.3502086"><ele>57.0</ele><time>2026-03-21T09:29:27.132Z</time></trkpt><trkpt lat="45.1270846" lon="9.3499095"><ele>57.0</ele><time>2026-03-21T09:29:28.132Z</time></trkpt><trkpt lat="45.126861" lon="9.3496309"><ele>57.0</ele><time>2026-03-21T09:29:29.131Z</time></trkpt><trkpt lat="45.1266509" lon="9.3493723"><ele>57.5</ele><time>2026-03-21T09:29:30.132Z</time></trkpt><trkpt lat="45.1264461" lon="9.3491432"><ele>58.0</ele><time>2026-03-21T09:29:31.131Z</time></trkpt><trkpt lat="45.1262407" lon="9.3489342"><ele>58.0</ele><time>2026-03-21T09:29:32.131Z</time></trkpt><trkpt lat="45.1260252" lon="9.3487371"><ele>58.0</ele><time>2026-03-21T09:29:33.132Z</time></trkpt><trkpt lat="45.1258028" lon="9.3485518"><ele>57.5</ele><time>2026-03-21T09:29:34.132Z</time></trkpt><trkpt lat="45.1255773" lon="9.348371"><ele>57.0</ele><time>2026-03-21T09:29:35.132Z</time></trkpt><trkpt lat="45.1253564" lon="9.3482031"><ele>57.0</ele><time>2026-03-21T09:29:36.132Z</time></trkpt><trkpt lat="45.1251307" lon="9.3480482"><ele>57.0</ele><time>2026-03-21T09:29:37.132Z</time></trkpt><trkpt lat="45.1248949" lon="9.3479177"><ele>57.5</ele><time>2026-03-21T09:29:38.131Z</time></trkpt><trkpt lat="45.1246513" lon="9.3478204"><ele>58.0</ele><time>2026-03-21T09:29:39.132Z</time></trkpt><trkpt lat="45.124399" lon="9.347728"><ele>58.0</ele><time>2026-03-21T09:29:40.131Z</time></trkpt><trkpt lat="45.124147" lon="9.3476306"><ele>58.0</ele><time>2026-03-21T09:29:41.131Z</time></trkpt><trkpt lat="45.1239004" lon="9.3475391"><ele>57.5</ele><time>2026-03-21T09:29:42.131Z</time></trkpt><trkpt lat="45.1236582" lon="9.3474517"><ele>57.0</ele><time>2026-03-21T09:29:43.131Z</time></trkpt><trkpt lat="45.1234241" lon="9.3473626"><ele>57.5</ele><time>2026-03-21T09:29:44.132Z</time></trkpt><trkpt lat="45.1231991" lon="9.3472811"><ele>58.0</ele><time>2026-03-21T09:29:45.131Z</time></trkpt><trkpt lat="45.1229836" lon="9.3472043"><ele>58.0</ele><time>2026-03-21T09:29:46.132Z</time></trkpt><trkpt lat="45.1227783" lon="9.3471375"><ele>58.0</ele><time>2026-03-21T09:29:47.131Z</time></trkpt><trkpt lat="45.1225803" lon="9.3470821"><ele>58.0</ele><time>2026-03-21T09:29:48.131Z</time></trkpt><trkpt lat="45.1223812" lon="9.3470468"><ele>58.0</ele><time>2026-03-21T09:29:49.132Z</time></trkpt><trkpt lat="45.1221865" lon="9.3470187"><ele>58.0</ele><time>2026-03-21T09:29:50.131Z</time></trkpt><trkpt lat="45.1219929" lon="9.3470041"><ele>58.0</ele><time>2026-03-21T09:29:51.132Z</time></trkpt><trkpt lat="45.121797" lon="9.3469978"><ele>58.0</ele><time>2026-03-21T09:29:52.131Z</time></trkpt><trkpt lat="45.121605" lon="9.3469928"><ele>58.0</ele><time>2026-03-21T09:29:53.132Z</time></trkpt><trkpt lat="45.1214153" lon="9.3469902"><ele>58.0</ele><time>2026-03-21T09:29:54.132Z</time></trkpt><trkpt lat="45.1212286" lon="9.346985"><ele>58.0</ele><time>2026-03-21T09:29:55.132Z</time></trkpt><trkpt lat="45.1210436" lon="9.3469779"><ele>58.0</ele><time>2026-03-21T09:29:56.132Z</time></trkpt><trkpt lat="45.1208638" lon="9.3469695"><ele>58.0</ele><time>2026-03-21T09:29:57.131Z</time></trkpt><trkpt lat="45.1206805" lon="9.3469674"><ele>58.0</ele><time>2026-03-21T09:29:58.131Z</time></trkpt><trkpt lat="45.1204942" lon="9.3469694"><ele>58.0</ele><time>2026-03-21T09:29:59.132Z</time></trkpt><trkpt lat="45.1203032" lon="9.3469698"><ele>58.0</ele><time>2026-03-21T09:30:00.131Z</time></trkpt><trkpt lat="45.1201022" lon="9.3469703"><ele>57.666666666666664</ele><time>2026-03-21T09:30:01.132Z</time></trkpt><trkpt lat="45.1198867" lon="9.3469738"><ele>57.33333333333333</ele><time>2026-03-21T09:30:02.132Z</time></trkpt><trkpt lat="45.1196551" lon="9.3469831"><ele>57.0</ele><time>2026-03-21T09:30:03.132Z</time></trkpt><trkpt lat="45.1194205" lon="9.3469818"><ele>57.0</ele><time>2026-03-21T09:30:04.132Z</time></trkpt><trkpt lat="45.11918" lon="9.3469759"><ele>57.0</ele><time>2026-03-21T09:30:05.132Z</time></trkpt><trkpt lat="45.1189393" lon="9.3469774"><ele>57.0</ele><time>2026-03-21T09:30:06.131Z</time></trkpt><trkpt lat="45.1187119" lon="9.3469934"><ele>57.0</ele><time>2026-03-21T09:30:07.131Z</time></trkpt><trkpt lat="45.1184959" lon="9.3470178"><ele>57.0</ele><time>2026-03-21T09:30:08.131Z</time></trkpt><trkpt lat="45.1182952" lon="9.3470461"><ele>57.0</ele><time>2026-03-21T09:30:09.132Z</time></trkpt><trkpt lat="45.1180962" lon="9.3471009"><ele>57.0</ele><time>2026-03-21T09:30:10.131Z</time></trkpt><trkpt lat="45.1179062" lon="9.3472026"><ele>57.0</ele><time>2026-03-21T09:30:11.131Z</time></trkpt><trkpt lat="45.1177217" lon="9.3473497"><ele>56.5</ele><time>2026-03-21T09:30:12.132Z</time></trkpt><trkpt lat="45.117533" lon="9.3475187"><ele>56.0</ele><time>2026-03-21T09:30:13.131Z</time></trkpt><trkpt lat="45.1173448" lon="9.3477017"><ele>56.0</ele><time>2026-03-21T09:30:14.131Z</time></trkpt><trkpt lat="45.1171534" lon="9.3478882"><ele>56.0</ele><time>2026-03-21T09:30:15.132Z</time></trkpt><trkpt lat="45.1169674" lon="9.348068"><ele>56.333333333333336</ele><time>2026-03-21T09:30:16.131Z</time></trkpt><trkpt lat="45.1167855" lon="9.348243"><ele>56.66666666666667</ele><time>2026-03-21T09:30:17.132Z</time></trkpt><trkpt lat="45.1166111" lon="9.3484182"><ele>57.0</ele><time>2026-03-21T09:30:18.132Z</time></trkpt><trkpt lat="45.1164402" lon="9.3485933"><ele>57.0</ele><time>2026-03-21T09:30:19.132Z</time></trkpt><trkpt lat="45.1162832" lon="9.3487678"><ele>57.0</ele><time>2026-03-21T09:30:20.132Z</time></trkpt><trkpt lat="45.1161259" lon="9.3489481"><ele>57.0</ele><time>2026-03-21T09:30:21.131Z</time></trkpt><trkpt lat="45.1159669" lon="9.3491271"><ele>57.0</ele><time>2026-03-21T09:30:22.131Z</time></trkpt><trkpt lat="45.1158237" lon="9.3493005"><ele>57.0</ele><time>2026-03-21T09:30:23.131Z</time></trkpt><trkpt lat="45.1156884" lon="9.3494655"><ele>57.0</ele><time>2026-03-21T09:30:24.131Z</time></trkpt><trkpt lat="45.1155643" lon="9.3496182"><ele>57.25</ele><time>2026-03-21T09:30:25.131Z</time></trkpt><trkpt lat="45.1154498" lon="9.3497545"><ele>57.5</ele><time>2026-03-21T09:30:26.131Z</time></trkpt><trkpt lat="45.1153373" lon="9.3498599"><ele>57.75</ele><time>2026-03-21T09:30:27.132Z</time></trkpt><trkpt lat="45.1152222" lon="9.3499334"><ele>58.0</ele><time>2026-03-21T09:30:28.132Z</time></trkpt><trkpt lat="45.1151112" lon="9.3499778"><ele>58.0</ele><time>2026-03-21T09:30:29.132Z</time></trkpt><trkpt lat="45.1150021" lon="9.3499997"><ele>58.0</ele><time>2026-03-21T09:30:30.131Z</time></trkpt><trkpt lat="45.114888" lon="9.350004"><ele>58.0</ele><time>2026-03-21T09:30:31.132Z</time></trkpt><trkpt lat="45.114777" lon="9.349987"><ele>58.0</ele><time>2026-03-21T09:30:32.132Z</time></trkpt><trkpt lat="45.1146664" lon="9.3499501"><ele>58.25</ele><time>2026-03-21T09:30:33.131Z</time></trkpt><trkpt lat="45.1145548" lon="9.3499039"><ele>58.5</ele><time>2026-03-21T09:30:34.132Z</time></trkpt><trkpt lat="45.1144399" lon="9.3498589"><ele>58.75</ele><time>2026-03-21T09:30:35.132Z</time></trkpt><trkpt lat="45.1143312" lon="9.3497996"><ele>59.0</ele><time>2026-03-21T09:30:36.131Z</time></trkpt><trkpt lat="45.1142342" lon="9.3497074"><ele>59.25</ele><time>2026-03-21T09:30:37.132Z</time></trkpt><trkpt lat="45.1141379" lon="9.3496023"><ele>59.5</ele><time>2026-03-21T09:30:38.132Z</time></trkpt><trkpt lat="45.1140304" lon="9.3495218"><ele>59.75</ele><time>2026-03-21T09:30:39.131Z</time></trkpt><trkpt lat="45.1139028" lon="9.349457"><ele>60.0</ele><time>2026-03-21T09:30:40.131Z</time></trkpt><trkpt lat="45.1137724" lon="9.3494112"><ele>60.0</ele><time>2026-03-21T09:30:41.132Z</time></trkpt><trkpt lat="45.1136475" lon="9.3493648"><ele>60.0</ele><time>2026-03-21T09:30:42.131Z</time></trkpt><trkpt lat="45.1135358" lon="9.3492989"><ele>60.0</ele><time>2026-03-21T09:30:43.132Z</time></trkpt><trkpt lat="45.1134535" lon="9.3491943"><ele>60.0</ele><time>2026-03-21T09:30:44.131Z</time></trkpt><trkpt lat="45.1134105" lon="9.3490645"><ele>60.0</ele><time>2026-03-21T09:30:45.132Z</time></trkpt><trkpt lat="45.1134" lon="9.348928"><ele>60.0</ele><time>2026-03-21T09:30:46.132Z</time></trkpt><trkpt lat="45.1133862" lon="9.3488109"><ele>60.0</ele><time>2026-03-21T09:30:47.131Z</time></trkpt><trkpt lat="45.1133475" lon="9.3487133"><ele>60.0</ele><time>2026-03-21T09:30:48.132Z</time></trkpt><trkpt lat="45.113282" lon="9.348644"><ele>60.0</ele><time>2026-03-21T09:30:49.131Z</time></trkpt><trkpt lat="45.1131865" lon="9.3486161"><ele>60.0</ele><time>2026-03-21T09:30:50.131Z</time></trkpt><trkpt lat="45.1130756" lon="9.3485873"><ele>60.0</ele><time>2026-03-21T09:30:51.132Z</time></trkpt><trkpt lat="45.1129526" lon="9.3485608"><ele>60.0</ele><time>2026-03-21T09:30:52.131Z</time></trkpt><trkpt lat="45.1128216" lon="9.3485357"><ele>60.0</ele><time>2026-03-21T09:30:53.131Z</time></trkpt><trkpt lat="45.1126964" lon="9.3485028"><ele>60.0</ele><time>2026-03-21T09:30:54.132Z</time></trkpt><trkpt lat="45.1125683" lon="9.3484736"><ele>60.0</ele><time>2026-03-21T09:30:55.132Z</time></trkpt><trkpt lat="45.1124439" lon="9.3484512"><ele>60.0</ele><time>2026-03-21T09:30:56.131Z</time></trkpt><trkpt lat="45.1123223" lon="9.348439"><ele>60.0</ele><time>2026-03-21T09:30:57.131Z</time></trkpt><trkpt lat="45.112203" lon="9.3484311"><ele>60.0</ele><time>2026-03-21T09:30:58.131Z</time></trkpt><trkpt lat="45.1120858" lon="9.3484157"><ele>59.5</ele><time>2026-03-21T09:30:59.132Z</time></trkpt><trkpt lat="45.1119685" lon="9.3483984"><ele>59.0</ele><time>2026-03-21T09:31:00.131Z</time></trkpt><trkpt lat="45.1118531" lon="9.3483793"><ele>58.5</ele><time>2026-03-21T09:31:01.132Z</time></trkpt><trkpt lat="45.1117339" lon="9.34836"><ele>58.0</ele><time>2026-03-21T09:31:02.131Z</time></trkpt><trkpt lat="45.1116111" lon="9.3483363"><ele>57.75</ele><time>2026-03-21T09:31:03.131Z</time></trkpt><trkpt lat="45.111483" lon="9.3483131"><ele>57.5</ele><time>2026-03-21T09:31:04.131Z</time></trkpt><trkpt lat="45.1113455" lon="9.3482884"><ele>57.25</ele><time>2026-03-21T09:31:05.132Z</time></trkpt><trkpt lat="45.1112016" lon="9.3482642"><ele>57.0</ele><time>2026-03-21T09:31:06.131Z</time></trkpt><trkpt lat="45.1110523" lon="9.3482436"><ele>57.0</ele><time>2026-03-21T09:31:07.132Z</time></trkpt><trkpt lat="45.1108956" lon="9.348242"><ele>57.0</ele><time>2026-03-21T09:31:08.132Z</time></trkpt><trkpt lat="45.1107289" lon="9.3482606"><ele>57.0</ele><time>2026-03-21T09:31:09.131Z</time></trkpt><trkpt lat="45.1105585" lon="9.348292"><ele>57.0</ele><time>2026-03-21T09:31:10.131Z</time></trkpt><trkpt lat="45.1103762" lon="9.3483464"><ele>57.0</ele><time>2026-03-21T09:31:11.131Z</time></trkpt><trkpt lat="45.110183" lon="9.3484094"><ele>57.0</ele><time>2026-03-21T09:31:12.131Z</time></trkpt><trkpt lat="45.1099894" lon="9.3484795"><ele>57.0</ele><time>2026-03-21T09:31:13.131Z</time></trkpt><trkpt lat="45.1097943" lon="9.3485536"><ele>57.0</ele><time>2026-03-21T09:31:14.131Z</time></trkpt><trkpt lat="45.1095954" lon="9.3486315"><ele>57.0</ele><time>2026-03-21T09:31:15.132Z</time></trkpt><trkpt lat="45.1093934" lon="9.3487085"><ele>57.0</ele><time>2026-03-21T09:31:16.131Z</time></trkpt><trkpt lat="45.1091909" lon="9.3487747"><ele>57.0</ele><time>2026-03-21T09:31:17.132Z</time></trkpt><trkpt lat="45.1089865" lon="9.3488233"><ele>57.0</ele><time>2026-03-21T09:31:18.132Z</time></trkpt><trkpt lat="45.1087804" lon="9.348858"><ele>57.0</ele><time>2026-03-21T09:31:19.132Z</time></trkpt><trkpt lat="45.1085734" lon="9.3488727"><ele>57.0</ele><time>2026-03-21T09:31:20.132Z</time></trkpt><trkpt lat="45.108375" lon="9.348864"><ele>57.0</ele><time>2026-03-21T09:31:21.131Z</time></trkpt><trkpt lat="45.1082011" lon="9.3488391"><ele>57.0</ele><time>2026-03-21T09:31:22.132Z</time></trkpt><trkpt lat="45.1080368" lon="9.3488049"><ele>57.0</ele><time>2026-03-21T09:31:23.132Z</time></trkpt><trkpt lat="45.1078713" lon="9.3487597"><ele>57.0</ele><time>2026-03-21T09:31:24.131Z</time></trkpt><trkpt lat="45.1077015" lon="9.3486924"><ele>57.0</ele><time>2026-03-21T09:31:25.132Z</time></trkpt><trkpt lat="45.1075262" lon="9.3486132"><ele>57.0</ele><time>2026-03-21T09:31:26.132Z</time></trkpt><trkpt lat="45.1073462" lon="9.3485276"><ele>57.0</ele><time>2026-03-21T09:31:27.132Z</time></trkpt><trkpt lat="45.1071621" lon="9.3484417"><ele>56.0</ele><time>2026-03-21T09:31:28.132Z</time></trkpt><trkpt lat="45.1069775" lon="9.3483542"><ele>55.0</ele><time>2026-03-21T09:31:29.132Z</time></trkpt><trkpt lat="45.1067942" lon="9.348265"><ele>54.0</ele><time>2026-03-21T09:31:30.132Z</time></trkpt><trkpt lat="45.1066089" lon="9.3481707"><ele>54.0</ele><time>2026-03-21T09:31:31.131Z</time></trkpt><trkpt lat="45.10642" lon="9.3480779"><ele>54.0</ele><time>2026-03-21T09:31:32.131Z</time></trkpt><trkpt lat="45.1062264" lon="9.3479876"><ele>54.0</ele><time>2026-03-21T09:31:33.131Z</time></trkpt><trkpt lat="45.106028" lon="9.3478924"><ele>55.0</ele><time>2026-03-21T09:31:34.132Z</time></trkpt><trkpt lat="45.1058257" lon="9.3477963"><ele>56.0</ele><time>2026-03-21T09:31:35.132Z</time></trkpt><trkpt lat="45.1056189" lon="9.347696"><ele>57.0</ele><time>2026-03-21T09:31:36.131Z</time></trkpt><trkpt lat="45.1054124" lon="9.3476013"><ele>57.0</ele><time>2026-03-21T09:31:37.131Z</time></trkpt><trkpt lat="45.1052012" lon="9.3475068"><ele>57.0</ele><time>2026-03-21T09:31:38.131Z</time></trkpt><trkpt lat="45.1049903" lon="9.3473997"><ele>57.0</ele><time>2026-03-21T09:31:39.131Z</time></trkpt><trkpt lat="45.1047731" lon="9.3473003"><ele>54.0</ele><time>2026-03-21T09:31:40.131Z</time></trkpt><trkpt lat="45.1045515" lon="9.3471983"><ele>51.0</ele><time>2026-03-21T09:31:41.131Z</time></trkpt><trkpt lat="45.1043283" lon="9.3470898"><ele>51.0</ele><time>2026-03-21T09:31:42.131Z</time></trkpt><trkpt lat="45.1041022" lon="9.3469848"><ele>51.0</ele><time>2026-03-21T09:31:43.131Z</time></trkpt><trkpt lat="45.103874" lon="9.3468749"><ele>49.0</ele><time>2026-03-21T09:31:44.131Z</time></trkpt><trkpt lat="45.1036432" lon="9.3467685"><ele>47.0</ele><time>2026-03-21T09:31:45.131Z</time></trkpt><trkpt lat="45.1034111" lon="9.3466578"><ele>47.0</ele><time>2026-03-21T09:31:46.131Z</time></trkpt><trkpt lat="45.1031789" lon="9.346545"><ele>47.0</ele><time>2026-03-21T09:31:47.132Z</time></trkpt><trkpt lat="45.1029439" lon="9.3464347"><ele>47.0</ele><time>2026-03-21T09:31:48.131Z</time></trkpt><trkpt lat="45.102709" lon="9.3463201"><ele>47.0</ele><time>2026-03-21T09:31:49.131Z</time></trkpt><trkpt lat="45.1024739" lon="9.3462069"><ele>47.0</ele><time>2026-03-21T09:31:50.132Z</time></trkpt><trkpt lat="45.1022379" lon="9.3460992"><ele>47.0</ele><time>2026-03-21T09:31:51.131Z</time></trkpt><trkpt lat="45.102003" lon="9.3459911"><ele>47.0</ele><time>2026-03-21T09:31:52.131Z</time></trkpt><trkpt lat="45.101768" lon="9.3458763"><ele>47.0</ele><time>2026-03-21T09:31:53.131Z</time></trkpt><trkpt lat="45.1015302" lon="9.3457648"><ele>49.5</ele><time>2026-03-21T09:31:54.132Z</time></trkpt><trkpt lat="45.1012951" lon="9.3456528"><ele>52.0</ele><time>2026-03-21T09:31:55.132Z</time></trkpt><trkpt lat="45.1010584" lon="9.3455403"><ele>52.0</ele><time>2026-03-21T09:31:56.132Z</time></trkpt><trkpt lat="45.1008182" lon="9.3454262"><ele>52.0</ele><time>2026-03-21T09:31:57.132Z</time></trkpt><trkpt lat="45.1005811" lon="9.3453121"><ele>54.0</ele><time>2026-03-21T09:31:58.131Z</time></trkpt><trkpt lat="45.1003433" lon="9.3452002"><ele>56.0</ele><time>2026-03-21T09:31:59.132Z</time></trkpt><trkpt lat="45.1001053" lon="9.3450888"><ele>55.5</ele><time>2026-03-21T09:32:00.131Z</time></trkpt><trkpt lat="45.0998687" lon="9.3449774"><ele>55.0</ele><time>2026-03-21T09:32:01.131Z</time></trkpt><trkpt lat="45.0996319" lon="9.3448642"><ele>55.0</ele><time>2026-03-21T09:32:02.132Z</time></trkpt><trkpt lat="45.0993929" lon="9.3447554"><ele>55.0</ele><time>2026-03-21T09:32:03.132Z</time></trkpt><trkpt lat="45.0991658" lon="9.3446493"><ele>55.666666666666664</ele><time>2026-03-21T09:32:04.131Z</time></trkpt><trkpt lat="45.0989504" lon="9.3445486"><ele>56.33333333333333</ele><time>2026-03-21T09:32:05.131Z</time></trkpt><trkpt lat="45.0987507" lon="9.344454"><ele>57.0</ele><time>2026-03-21T09:32:06.132Z</time></trkpt><trkpt lat="45.0985597" lon="9.3443676"><ele>57.0</ele><time>2026-03-21T09:32:07.132Z</time></trkpt><trkpt lat="45.0983786" lon="9.3442825"><ele>57.0</ele><time>2026-03-21T09:32:08.132Z</time></trkpt><trkpt lat="45.0982097" lon="9.3442053"><ele>57.0</ele><time>2026-03-21T09:32:09.131Z</time></trkpt><trkpt lat="45.0980502" lon="9.3441311"><ele>57.66666666666667</ele><time>2026-03-21T09:32:10.132Z</time></trkpt><trkpt lat="45.0978977" lon="9.3440583"><ele>58.333333333333336</ele><time>2026-03-21T09:32:11.131Z</time></trkpt><trkpt lat="45.0977516" lon="9.3439875"><ele>59.0</ele><time>2026-03-21T09:32:12.131Z</time></trkpt><trkpt lat="45.0976157" lon="9.3439198"><ele>59.0</ele><time>2026-03-21T09:32:13.132Z</time></trkpt><trkpt lat="45.0974873" lon="9.3438505"><ele>59.0</ele><time>2026-03-21T09:32:14.132Z</time></trkpt><trkpt lat="45.0973697" lon="9.3437771"><ele>59.0</ele><time>2026-03-21T09:32:15.131Z</time></trkpt><trkpt lat="45.0972617" lon="9.3436908"><ele>59.0</ele><time>2026-03-21T09:32:16.132Z</time></trkpt><trkpt lat="45.0971629" lon="9.343609"><ele>58.6</ele><time>2026-03-21T09:32:17.131Z</time></trkpt><trkpt lat="45.0970834" lon="9.3435075"><ele>58.2</ele><time>2026-03-21T09:32:18.131Z</time></trkpt><trkpt lat="45.097024" lon="9.3433938"><ele>57.800000000000004</ele><time>2026-03-21T09:32:19.132Z</time></trkpt><trkpt lat="45.0969651" lon="9.3432692"><ele>57.400000000000006</ele><time>2026-03-21T09:32:20.132Z</time></trkpt><trkpt lat="45.0969142" lon="9.3431217"><ele>57.0</ele><time>2026-03-21T09:32:21.131Z</time></trkpt><trkpt lat="45.0968776" lon="9.3429572"><ele>57.0</ele><time>2026-03-21T09:32:22.132Z</time></trkpt><trkpt lat="45.0968598" lon="9.3427755"><ele>57.0</ele><time>2026-03-21T09:32:23.132Z</time></trkpt><trkpt lat="45.09687" lon="9.3425919"><ele>57.0</ele><time>2026-03-21T09:32:24.132Z</time></trkpt><trkpt lat="45.0968996" lon="9.3424026"><ele>57.0</ele><time>2026-03-21T09:32:25.132Z</time></trkpt><trkpt lat="45.096942" lon="9.3422065"><ele>57.0</ele><time>2026-03-21T09:32:26.131Z</time></trkpt><trkpt lat="45.0969911" lon="9.3420084"><ele>57.0</ele><time>2026-03-21T09:32:27.131Z</time></trkpt><trkpt lat="45.0970525" lon="9.3418099"><ele>57.0</ele><time>2026-03-21T09:32:28.131Z</time></trkpt><trkpt lat="45.0971164" lon="9.3416038"><ele>57.0</ele><time>2026-03-21T09:32:29.131Z</time></trkpt><trkpt lat="45.0971791" lon="9.3414021"><ele>57.0</ele><time>2026-03-21T09:32:30.132Z</time></trkpt><trkpt lat="45.0972413" lon="9.3411967"><ele>57.0</ele><time>2026-03-21T09:32:31.132Z</time></trkpt><trkpt lat="45.0973055" lon="9.3409965"><ele>57.33333333333333</ele><time>2026-03-21T09:32:32.131Z</time></trkpt><trkpt lat="45.0973692" lon="9.3408032"><ele>57.666666666666664</ele><time>2026-03-21T09:32:33.132Z</time></trkpt><trkpt lat="45.0974317" lon="9.3406026"><ele>58.0</ele><time>2026-03-21T09:32:34.131Z</time></trkpt><trkpt lat="45.097487" lon="9.3403946"><ele>58.33333333333333</ele><time>2026-03-21T09:32:35.131Z</time></trkpt><trkpt lat="45.0975474" lon="9.3401848"><ele>58.66666666666667</ele><time>2026-03-21T09:32:36.132Z</time></trkpt><trkpt lat="45.0976037" lon="9.3399736"><ele>59.0</ele><time>2026-03-21T09:32:37.131Z</time></trkpt><trkpt lat="45.0976729" lon="9.3397616"><ele>59.0</ele><time>2026-03-21T09:32:38.132Z</time></trkpt><trkpt lat="45.0977395" lon="9.339546"><ele>59.0</ele><time>2026-03-21T09:32:39.131Z</time></trkpt><trkpt lat="45.0978165" lon="9.3393265"><ele>59.0</ele><time>2026-03-21T09:32:40.131Z</time></trkpt><trkpt lat="45.0978915" lon="9.3390921"><ele>59.0</ele><time>2026-03-21T09:32:41.131Z</time></trkpt><trkpt lat="45.0979671" lon="9.338846"><ele>59.0</ele><time>2026-03-21T09:32:42.132Z</time></trkpt><trkpt lat="45.0980464" lon="9.338593"><ele>59.0</ele><time>2026-03-21T09:32:43.132Z</time></trkpt><trkpt lat="45.0981237" lon="9.3383371"><ele>59.0</ele><time>2026-03-21T09:32:44.131Z</time></trkpt><trkpt lat="45.0982071" lon="9.3380778"><ele>59.0</ele><time>2026-03-21T09:32:45.132Z</time></trkpt><trkpt lat="45.0982845" lon="9.3378158"><ele>59.0</ele><time>2026-03-21T09:32:46.132Z</time></trkpt><trkpt lat="45.0983683" lon="9.3375478"><ele>58.66666666666667</ele><time>2026-03-21T09:32:47.131Z</time></trkpt><trkpt lat="45.0984533" lon="9.3372793"><ele>58.33333333333333</ele><time>2026-03-21T09:32:48.132Z</time></trkpt><trkpt lat="45.0985418" lon="9.3370147"><ele>58.0</ele><time>2026-03-21T09:32:49.131Z</time></trkpt><trkpt lat="45.0986284" lon="9.3367458"><ele>58.0</ele><time>2026-03-21T09:32:50.131Z</time></trkpt><trkpt lat="45.0987187" lon="9.3364706"><ele>58.0</ele><time>2026-03-21T09:32:51.132Z</time></trkpt><trkpt lat="45.0988129" lon="9.3361955"><ele>58.0</ele><time>2026-03-21T09:32:52.132Z</time></trkpt><trkpt lat="45.0989021" lon="9.3359305"><ele>58.0</ele><time>2026-03-21T09:32:53.131Z</time></trkpt><trkpt lat="45.0989913" lon="9.3356637"><ele>58.0</ele><time>2026-03-21T09:32:54.132Z</time></trkpt><trkpt lat="45.09908" lon="9.3354037"><ele>58.0</ele><time>2026-03-21T09:32:55.132Z</time></trkpt><trkpt lat="45.0991648" lon="9.3351592"><ele>59.0</ele><time>2026-03-21T09:32:56.131Z</time></trkpt><trkpt lat="45.0992467" lon="9.3349281"><ele>60.0</ele><time>2026-03-21T09:32:57.131Z</time></trkpt><trkpt lat="45.0993215" lon="9.3347094"><ele>61.0</ele><time>2026-03-21T09:32:58.131Z</time></trkpt><trkpt lat="45.0993893" lon="9.334504"><ele>61.0</ele><time>2026-03-21T09:32:59.132Z</time></trkpt><trkpt lat="45.0994533" lon="9.3343113"><ele>61.0</ele><time>2026-03-21T09:33:00.131Z</time></trkpt><trkpt lat="45.0995116" lon="9.334128"><ele>61.0</ele><time>2026-03-21T09:33:01.131Z</time></trkpt><trkpt lat="45.0995638" lon="9.3339552"><ele>61.0</ele><time>2026-03-21T09:33:02.131Z</time></trkpt><trkpt lat="45.0996096" lon="9.3337897"><ele>60.75</ele><time>2026-03-21T09:33:03.132Z</time></trkpt><trkpt lat="45.0996546" lon="9.333626"><ele>60.5</ele><time>2026-03-21T09:33:04.131Z</time></trkpt><trkpt lat="45.0997013" lon="9.3334653"><ele>60.25</ele><time>2026-03-21T09:33:05.131Z</time></trkpt><trkpt lat="45.0997597" lon="9.3333121"><ele>60.0</ele><time>2026-03-21T09:33:06.131Z</time></trkpt><trkpt lat="45.0998354" lon="9.333154"><ele>59.75</ele><time>2026-03-21T09:33:07.132Z</time></trkpt><trkpt lat="45.0999247" lon="9.3330071"><ele>59.5</ele><time>2026-03-21T09:33:08.132Z</time></trkpt><trkpt lat="45.1000217" lon="9.3328482"><ele>59.25</ele><time>2026-03-21T09:33:09.131Z</time></trkpt><trkpt lat="45.1001254" lon="9.3326692"><ele>59.0</ele><time>2026-03-21T09:33:10.132Z</time></trkpt><trkpt lat="45.1002272" lon="9.3324787"><ele>59.0</ele><time>2026-03-21T09:33:11.132Z</time></trkpt><trkpt lat="45.1003165" lon="9.3322697"><ele>59.0</ele><time>2026-03-21T09:33:12.132Z</time></trkpt><trkpt lat="45.1003895" lon="9.3320528"><ele>59.0</ele><time>2026-03-21T09:33:13.132Z</time></trkpt><trkpt lat="45.1004317" lon="9.3318326"><ele>58.66666666666667</ele><time>2026-03-21T09:33:14.132Z</time></trkpt><trkpt lat="45.1004624" lon="9.3315882"><ele>58.33333333333333</ele><time>2026-03-21T09:33:15.131Z</time></trkpt><trkpt lat="45.1004866" lon="9.3313353"><ele>58.0</ele><time>2026-03-21T09:33:16.131Z</time></trkpt><trkpt lat="45.1005063" lon="9.3310709"><ele>57.33333333333333</ele><time>2026-03-21T09:33:17.131Z</time></trkpt><trkpt lat="45.100524" lon="9.330797"><ele>56.66666666666667</ele><time>2026-03-21T09:33:18.131Z</time></trkpt><trkpt lat="45.1005441" lon="9.3305278"><ele>56.0</ele><time>2026-03-21T09:33:19.132Z</time></trkpt><trkpt lat="45.1005639" lon="9.3302577"><ele>55.66666666666667</ele><time>2026-03-21T09:33:20.131Z</time></trkpt><trkpt lat="45.1005819" lon="9.329984"><ele>55.33333333333333</ele><time>2026-03-21T09:33:21.131Z</time></trkpt><trkpt lat="45.1006021" lon="9.3297098"><ele>55.0</ele><time>2026-03-21T09:33:22.132Z</time></trkpt><trkpt lat="45.100618" lon="9.329437"><ele>55.0</ele><time>2026-03-21T09:33:23.132Z</time></trkpt><trkpt lat="45.1006321" lon="9.3291809"><ele>55.0</ele><time>2026-03-21T09:33:24.132Z</time></trkpt><trkpt lat="45.1006411" lon="9.3289366"><ele>55.0</ele><time>2026-03-21T09:33:25.132Z</time></trkpt><trkpt lat="45.1006515" lon="9.32871"><ele>55.0</ele><time>2026-03-21T09:33:26.131Z</time></trkpt><trkpt lat="45.1006604" lon="9.3285095"><ele>55.0</ele><time>2026-03-21T09:33:27.132Z</time></trkpt><trkpt lat="45.1006863" lon="9.3283366"><ele>55.0</ele><time>2026-03-21T09:33:28.131Z</time></trkpt><trkpt lat="45.1007421" lon="9.3282035"><ele>55.0</ele><time>2026-03-21T09:33:29.132Z</time></trkpt><trkpt lat="45.1008233" lon="9.3280959"><ele>55.75</ele><time>2026-03-21T09:33:30.131Z</time></trkpt><trkpt lat="45.1009174" lon="9.3279766"><ele>56.5</ele><time>2026-03-21T09:33:31.132Z</time></trkpt><trkpt lat="45.1010099" lon="9.3278366"><ele>57.25</ele><time>2026-03-21T09:33:32.132Z</time></trkpt><trkpt lat="45.1010973" lon="9.3276775"><ele>58.0</ele><time>2026-03-21T09:33:33.132Z</time></trkpt><trkpt lat="45.101172" lon="9.3275221"><ele>58.0</ele><time>2026-03-21T09:33:34.132Z</time></trkpt><trkpt lat="45.1012352" lon="9.3273653"><ele>58.0</ele><time>2026-03-21T09:33:35.132Z</time></trkpt><trkpt lat="45.1012794" lon="9.3272093"><ele>58.0</ele><time>2026-03-21T09:33:36.132Z</time></trkpt><trkpt lat="45.1013033" lon="9.3270484"><ele>58.0</ele><time>2026-03-21T09:33:37.132Z</time></trkpt><trkpt lat="45.1013" lon="9.3268872"><ele>58.0</ele><time>2026-03-21T09:33:38.132Z</time></trkpt><trkpt lat="45.1012611" lon="9.3267343"><ele>58.0</ele><time>2026-03-21T09:33:39.132Z</time></trkpt><trkpt lat="45.1011882" lon="9.3265945"><ele>58.0</ele><time>2026-03-21T09:33:40.132Z</time></trkpt><trkpt lat="45.1010992" lon="9.3264597"><ele>58.0</ele><time>2026-03-21T09:33:41.132Z</time></trkpt><trkpt lat="45.101018" lon="9.3263081"><ele>58.75</ele><time>2026-03-21T09:33:42.132Z</time></trkpt><trkpt lat="45.1009525" lon="9.326152"><ele>59.5</ele><time>2026-03-21T09:33:43.131Z</time></trkpt><trkpt lat="45.100903" lon="9.3259956"><ele>60.25</ele><time>2026-03-21T09:33:44.131Z</time></trkpt><trkpt lat="45.1008593" lon="9.3258436"><ele>61.0</ele><time>2026-03-21T09:33:45.131Z</time></trkpt><trkpt lat="45.100816" lon="9.3257111"><ele>60.99999999999999</ele><time>2026-03-21T09:33:46.131Z</time></trkpt><trkpt lat="45.1007605" lon="9.3255981"><ele>61.0</ele><time>2026-03-21T09:33:47.131Z</time></trkpt><trkpt lat="45.1006992" lon="9.3255061"><ele>61.0</ele><time>2026-03-21T09:33:48.132Z</time></trkpt><trkpt lat="45.1006383" lon="9.3254302"><ele>61.0</ele><time>2026-03-21T09:33:49.131Z</time></trkpt><trkpt lat="45.1005843" lon="9.3253587"><ele>60.99999999999999</ele><time>2026-03-21T09:33:50.131Z</time></trkpt><trkpt lat="45.1005424" lon="9.3252855"><ele>61.0</ele><time>2026-03-21T09:33:51.131Z</time></trkpt><trkpt lat="45.1005168" lon="9.3252022"><ele>61.33333333333333</ele><time>2026-03-21T09:33:52.132Z</time></trkpt><trkpt lat="45.1005143" lon="9.325106"><ele>61.666666666666664</ele><time>2026-03-21T09:33:53.132Z</time></trkpt><trkpt lat="45.1005227" lon="9.3250035"><ele>62.0</ele><time>2026-03-21T09:33:54.132Z</time></trkpt><trkpt lat="45.1005387" lon="9.3248957"><ele>62.33333333333333</ele><time>2026-03-21T09:33:55.131Z</time></trkpt><trkpt lat="45.100566" lon="9.3247839"><ele>62.666666666666664</ele><time>2026-03-21T09:33:56.132Z</time></trkpt><trkpt lat="45.1005927" lon="9.3246675"><ele>63.0</ele><time>2026-03-21T09:33:57.132Z</time></trkpt><trkpt lat="45.1006241" lon="9.3245482"><ele>63.0</ele><time>2026-03-21T09:33:58.131Z</time></trkpt><trkpt lat="45.1006583" lon="9.3244524"><ele>63.0</ele><time>2026-03-21T09:33:59.131Z</time></trkpt><trkpt lat="45.1006991" lon="9.3243377"><ele>63.0</ele><time>2026-03-21T09:34:01.132Z</time></trkpt><trkpt lat="45.1007278" lon="9.3242093"><ele>63.0</ele><time>2026-03-21T09:34:09.131Z</time></trkpt><trkpt lat="45.1007716" lon="9.3240377"><ele>63.0</ele><time>2026-03-21T09:34:11.132Z</time></trkpt><trkpt lat="45.1007991" lon="9.3239248"><ele>62.2</ele><time>2026-03-21T09:34:12.131Z</time></trkpt><trkpt lat="45.1008298" lon="9.3237942"><ele>61.4</ele><time>2026-03-21T09:34:13.131Z</time></trkpt><trkpt lat="45.1008643" lon="9.3236618"><ele>60.60000000000001</ele><time>2026-03-21T09:34:14.132Z</time></trkpt><trkpt lat="45.1009021" lon="9.3235165"><ele>59.800000000000004</ele><time>2026-03-21T09:34:15.131Z</time></trkpt><trkpt lat="45.1009449" lon="9.3233673"><ele>59.0</ele><time>2026-03-21T09:34:16.132Z</time></trkpt><trkpt lat="45.1009823" lon="9.3232153"><ele>59.75</ele><time>2026-03-21T09:34:17.132Z</time></trkpt><trkpt lat="45.1010193" lon="9.3230615"><ele>60.5</ele><time>2026-03-21T09:34:18.131Z</time></trkpt><trkpt lat="45.1010475" lon="9.3228986"><ele>61.25</ele><time>2026-03-21T09:34:19.132Z</time></trkpt><trkpt lat="45.1010639" lon="9.3227241"><ele>62.0</ele><time>2026-03-21T09:34:20.132Z</time></trkpt><trkpt lat="45.1010695" lon="9.3225433"><ele>62.0</ele><time>2026-03-21T09:34:21.132Z</time></trkpt><trkpt lat="45.10107" lon="9.3223613"><ele>62.0</ele><time>2026-03-21T09:34:22.131Z</time></trkpt><trkpt lat="45.1010654" lon="9.3221731"><ele>62.0</ele><time>2026-03-21T09:34:23.131Z</time></trkpt><trkpt lat="45.1010565" lon="9.3219784"><ele>62.0</ele><time>2026-03-21T09:34:24.132Z</time></trkpt><trkpt lat="45.1010469" lon="9.3217866"><ele>62.0</ele><time>2026-03-21T09:34:25.132Z</time></trkpt><trkpt lat="45.1010365" lon="9.3216025"><ele>62.0</ele><time>2026-03-21T09:34:26.132Z</time></trkpt><trkpt lat="45.101022" lon="9.3214309"><ele>62.0</ele><time>2026-03-21T09:34:27.131Z</time></trkpt><trkpt lat="45.1010053" lon="9.3212677"><ele>62.0</ele><time>2026-03-21T09:34:28.132Z</time></trkpt><trkpt lat="45.1009875" lon="9.3211197"><ele>62.0</ele><time>2026-03-21T09:34:29.131Z</time></trkpt><trkpt lat="45.100977" lon="9.3209799"><ele>62.0</ele><time>2026-03-21T09:34:30.131Z</time></trkpt><trkpt lat="45.1009498" lon="9.3208616"><ele>62.0</ele><time>2026-03-21T09:34:31.132Z</time></trkpt><trkpt lat="45.1008864" lon="9.3207578"><ele>62.0</ele><time>2026-03-21T09:34:32.132Z</time></trkpt><trkpt lat="45.1008037" lon="9.3206673"><ele>62.0</ele><time>2026-03-21T09:34:33.132Z</time></trkpt><trkpt lat="45.1007147" lon="9.3205818"><ele>62.0</ele><time>2026-03-21T09:34:34.132Z</time></trkpt><trkpt lat="45.1006147" lon="9.3204986"><ele>62.0</ele><time>2026-03-21T09:34:35.132Z</time></trkpt><trkpt lat="45.1005154" lon="9.3204185"><ele>62.0</ele><time>2026-03-21T09:34:36.132Z</time></trkpt><trkpt lat="45.1004237" lon="9.3203244"><ele>62.0</ele><time>2026-03-21T09:34:37.132Z</time></trkpt><trkpt lat="45.1003211" lon="9.3202358"><ele>62.0</ele><time>2026-03-21T09:34:38.131Z</time></trkpt><trkpt lat="45.1002165" lon="9.3201376"><ele>62.0</ele><time>2026-03-21T09:34:39.131Z</time></trkpt><trkpt lat="45.1001039" lon="9.3200394"><ele>62.0</ele><time>2026-03-21T09:34:40.132Z</time></trkpt><trkpt lat="45.1000014" lon="9.319925"><ele>62.0</ele><time>2026-03-21T09:34:41.131Z</time></trkpt><trkpt lat="45.0998898" lon="9.3198222"><ele>62.0</ele><time>2026-03-21T09:34:42.131Z</time></trkpt><trkpt lat="45.0997849" lon="9.3197047"><ele>62.0</ele><time>2026-03-21T09:34:43.132Z</time></trkpt><trkpt lat="45.099682" lon="9.3195803"><ele>62.0</ele><time>2026-03-21T09:34:44.131Z</time></trkpt><trkpt lat="45.0995752" lon="9.3194456"><ele>62.0</ele><time>2026-03-21T09:34:45.132Z</time></trkpt><trkpt lat="45.0994758" lon="9.3193064"><ele>62.0</ele><time>2026-03-21T09:34:46.131Z</time></trkpt><trkpt lat="45.0993899" lon="9.3191619"><ele>62.0</ele><time>2026-03-21T09:34:47.132Z</time></trkpt><trkpt lat="45.099305" lon="9.3190002"><ele>62.0</ele><time>2026-03-21T09:34:48.131Z</time></trkpt><trkpt lat="45.0992342" lon="9.3188271"><ele>62.0</ele><time>2026-03-21T09:34:49.131Z</time></trkpt><trkpt lat="45.0991728" lon="9.3186345"><ele>62.0</ele><time>2026-03-21T09:34:50.132Z</time></trkpt><trkpt lat="45.0991239" lon="9.3184277"><ele>62.0</ele><time>2026-03-21T09:34:51.132Z</time></trkpt><trkpt lat="45.0990782" lon="9.3182096"><ele>62.0</ele><time>2026-03-21T09:34:52.132Z</time></trkpt><trkpt lat="45.0990367" lon="9.3179959"><ele>62.0</ele><time>2026-03-21T09:34:53.131Z</time></trkpt><trkpt lat="45.0989805" lon="9.3177891"><ele>62.0</ele><time>2026-03-21T09:34:54.131Z</time></trkpt><trkpt lat="45.0989104" lon="9.317601"><ele>62.0</ele><time>2026-03-21T09:34:55.132Z</time></trkpt><trkpt lat="45.0988227" lon="9.3174159"><ele>62.0</ele><time>2026-03-21T09:34:56.132Z</time></trkpt><trkpt lat="45.0987233" lon="9.3172487"><ele>62.0</ele><time>2026-03-21T09:34:57.131Z</time></trkpt><trkpt lat="45.0986168" lon="9.317083"><ele>62.0</ele><time>2026-03-21T09:34:58.132Z</time></trkpt><trkpt lat="45.0985048" lon="9.3169145"><ele>61.66666666666667</ele><time>2026-03-21T09:34:59.132Z</time></trkpt><trkpt lat="45.0983865" lon="9.3167547"><ele>61.33333333333333</ele><time>2026-03-21T09:35:00.132Z</time></trkpt><trkpt lat="45.0982685" lon="9.3166227"><ele>61.0</ele><time>2026-03-21T09:35:01.131Z</time></trkpt><trkpt lat="45.0981354" lon="9.3165228"><ele>61.0</ele><time>2026-03-21T09:35:02.131Z</time></trkpt><trkpt lat="45.0979912" lon="9.3164668"><ele>61.0</ele><time>2026-03-21T09:35:03.131Z</time></trkpt><trkpt lat="45.0978361" lon="9.3164405"><ele>61.0</ele><time>2026-03-21T09:35:04.132Z</time></trkpt><trkpt lat="45.0976765" lon="9.3164237"><ele>61.0</ele><time>2026-03-21T09:35:05.131Z</time></trkpt><trkpt lat="45.0975169" lon="9.3164095"><ele>61.0</ele><time>2026-03-21T09:35:06.132Z</time></trkpt><trkpt lat="45.097352" lon="9.3163964"><ele>61.0</ele><time>2026-03-21T09:35:07.131Z</time></trkpt><trkpt lat="45.0971876" lon="9.3163862"><ele>60.666666666666664</ele><time>2026-03-21T09:35:08.131Z</time></trkpt><trkpt lat="45.0970225" lon="9.3163702"><ele>60.33333333333333</ele><time>2026-03-21T09:35:09.131Z</time></trkpt><trkpt lat="45.0968577" lon="9.3163616"><ele>60.0</ele><time>2026-03-21T09:35:10.131Z</time></trkpt><trkpt lat="45.0966945" lon="9.3163517"><ele>60.33333333333333</ele><time>2026-03-21T09:35:11.131Z</time></trkpt><trkpt lat="45.0965285" lon="9.3163433"><ele>60.666666666666664</ele><time>2026-03-21T09:35:12.132Z</time></trkpt><trkpt lat="45.0963583" lon="9.316336"><ele>61.0</ele><time>2026-03-21T09:35:13.131Z</time></trkpt><trkpt lat="45.0961882" lon="9.3163297"><ele>61.0</ele><time>2026-03-21T09:35:14.131Z</time></trkpt><trkpt lat="45.0960184" lon="9.3163273"><ele>61.0</ele><time>2026-03-21T09:35:15.131Z</time></trkpt><trkpt lat="45.0958525" lon="9.3163174"><ele>61.0</ele><time>2026-03-21T09:35:16.132Z</time></trkpt><trkpt lat="45.0956891" lon="9.316286"><ele>60.666666666666664</ele><time>2026-03-21T09:35:17.132Z</time></trkpt><trkpt lat="45.0955316" lon="9.3162184"><ele>60.33333333333333</ele><time>2026-03-21T09:35:18.132Z</time></trkpt><trkpt lat="45.0953884" lon="9.3161119"><ele>60.0</ele><time>2026-03-21T09:35:19.132Z</time></trkpt><trkpt lat="45.0952588" lon="9.315967"><ele>60.0</ele><time>2026-03-21T09:35:20.132Z</time></trkpt><trkpt lat="45.0951462" lon="9.3158001"><ele>60.0</ele><time>2026-03-21T09:35:21.131Z</time></trkpt><trkpt lat="45.0950286" lon="9.3156272"><ele>60.0</ele><time>2026-03-21T09:35:22.131Z</time></trkpt><trkpt lat="45.0949083" lon="9.3154485"><ele>61.33333333333333</ele><time>2026-03-21T09:35:23.132Z</time></trkpt><trkpt lat="45.0947967" lon="9.3152582"><ele>62.666666666666664</ele><time>2026-03-21T09:35:24.132Z</time></trkpt><trkpt lat="45.0946856" lon="9.3150534"><ele>64.0</ele><time>2026-03-21T09:35:25.132Z</time></trkpt><trkpt lat="45.0945766" lon="9.3148518"><ele>64.0</ele><time>2026-03-21T09:35:26.132Z</time></trkpt><trkpt lat="45.0944627" lon="9.3146485"><ele>64.0</ele><time>2026-03-21T09:35:27.132Z</time></trkpt><trkpt lat="45.0943515" lon="9.3144538"><ele>64.0</ele><time>2026-03-21T09:35:28.132Z</time></trkpt><trkpt lat="45.0942354" lon="9.3142626"><ele>64.0</ele><time>2026-03-21T09:35:29.131Z</time></trkpt><trkpt lat="45.0941196" lon="9.3140707"><ele>64.0</ele><time>2026-03-21T09:35:30.132Z</time></trkpt><trkpt lat="45.0940046" lon="9.3138727"><ele>64.0</ele><time>2026-03-21T09:35:31.132Z</time></trkpt><trkpt lat="45.0938903" lon="9.3136771"><ele>64.33333333333333</ele><time>2026-03-21T09:35:32.131Z</time></trkpt><trkpt lat="45.093776" lon="9.3134856"><ele>64.66666666666667</ele><time>2026-03-21T09:35:33.132Z</time></trkpt><trkpt lat="45.0936693" lon="9.3133009"><ele>65.0</ele><time>2026-03-21T09:35:34.131Z</time></trkpt><trkpt lat="45.0935646" lon="9.3131202"><ele>65.0</ele><time>2026-03-21T09:35:35.131Z</time></trkpt><trkpt lat="45.0934642" lon="9.3129436"><ele>65.0</ele><time>2026-03-21T09:35:36.131Z</time></trkpt><trkpt lat="45.0933603" lon="9.3127725"><ele>65.0</ele><time>2026-03-21T09:35:37.131Z</time></trkpt><trkpt lat="45.0932621" lon="9.3126033"><ele>65.33333333333334</ele><time>2026-03-21T09:35:38.132Z</time></trkpt><trkpt lat="45.0931641" lon="9.3124338"><ele>65.66666666666667</ele><time>2026-03-21T09:35:39.132Z</time></trkpt><trkpt lat="45.0930633" lon="9.3122687"><ele>66.0</ele><time>2026-03-21T09:35:40.132Z</time></trkpt><trkpt lat="45.0929683" lon="9.3121092"><ele>66.0</ele><time>2026-03-21T09:35:41.131Z</time></trkpt><trkpt lat="45.0928794" lon="9.3119633"><ele>66.0</ele><time>2026-03-21T09:35:42.131Z</time></trkpt><trkpt lat="45.0927935" lon="9.3118202"><ele>66.0</ele><time>2026-03-21T09:35:43.131Z</time></trkpt><trkpt lat="45.0927101" lon="9.3116771"><ele>66.0</ele><time>2026-03-21T09:35:44.131Z</time></trkpt><trkpt lat="45.0926275" lon="9.3115348"><ele>66.0</ele><time>2026-03-21T09:35:45.132Z</time></trkpt><trkpt lat="45.0925474" lon="9.3113907"><ele>66.0</ele><time>2026-03-21T09:35:46.132Z</time></trkpt><trkpt lat="45.0924653" lon="9.3112375"><ele>66.0</ele><time>2026-03-21T09:35:47.132Z</time></trkpt><trkpt lat="45.0923808" lon="9.3110797"><ele>66.0</ele><time>2026-03-21T09:35:48.131Z</time></trkpt><trkpt lat="45.0922854" lon="9.3109208"><ele>66.0</ele><time>2026-03-21T09:35:49.131Z</time></trkpt><trkpt lat="45.0921845" lon="9.3107516"><ele>66.0</ele><time>2026-03-21T09:35:50.132Z</time></trkpt><trkpt lat="45.092082" lon="9.3105733"><ele>66.0</ele><time>2026-03-21T09:35:51.131Z</time></trkpt><trkpt lat="45.0919709" lon="9.3103882"><ele>66.0</ele><time>2026-03-21T09:35:52.131Z</time></trkpt><trkpt lat="45.0918561" lon="9.3101904"><ele>66.0</ele><time>2026-03-21T09:35:53.132Z</time></trkpt><trkpt lat="45.0917354" lon="9.3099873"><ele>66.0</ele><time>2026-03-21T09:35:54.132Z</time></trkpt><trkpt lat="45.0916191" lon="9.3097777"><ele>65.33333333333333</ele><time>2026-03-21T09:35:55.132Z</time></trkpt><trkpt lat="45.0914933" lon="9.309562"><ele>64.66666666666666</ele><time>2026-03-21T09:35:56.131Z</time></trkpt><trkpt lat="45.0913675" lon="9.309345"><ele>64.0</ele><time>2026-03-21T09:35:57.131Z</time></trkpt><trkpt lat="45.0912401" lon="9.3091263"><ele>64.0</ele><time>2026-03-21T09:35:58.131Z</time></trkpt><trkpt lat="45.0911101" lon="9.3089053"><ele>64.0</ele><time>2026-03-21T09:35:59.131Z</time></trkpt><trkpt lat="45.0909798" lon="9.3086803"><ele>64.0</ele><time>2026-03-21T09:36:00.131Z</time></trkpt><trkpt lat="45.0908527" lon="9.3084573"><ele>64.0</ele><time>2026-03-21T09:36:01.132Z</time></trkpt><trkpt lat="45.0907237" lon="9.3082317"><ele>64.0</ele><time>2026-03-21T09:36:02.132Z</time></trkpt><trkpt lat="45.0905942" lon="9.3080073"><ele>64.0</ele><time>2026-03-21T09:36:03.131Z</time></trkpt><trkpt lat="45.0904634" lon="9.3077843"><ele>64.33333333333333</ele><time>2026-03-21T09:36:04.132Z</time></trkpt><trkpt lat="45.0903345" lon="9.307559"><ele>64.66666666666667</ele><time>2026-03-21T09:36:05.132Z</time></trkpt><trkpt lat="45.0902073" lon="9.3073357"><ele>65.0</ele><time>2026-03-21T09:36:06.132Z</time></trkpt><trkpt lat="45.0900797" lon="9.3071135"><ele>65.33333333333334</ele><time>2026-03-21T09:36:07.132Z</time></trkpt><trkpt lat="45.0899466" lon="9.3068959"><ele>65.66666666666667</ele><time>2026-03-21T09:36:08.131Z</time></trkpt><trkpt lat="45.0898065" lon="9.3066931"><ele>66.0</ele><time>2026-03-21T09:36:09.131Z</time></trkpt><trkpt lat="45.0896496" lon="9.3065151"><ele>66.33333333333333</ele><time>2026-03-21T09:36:10.131Z</time></trkpt><trkpt lat="45.0894753" lon="9.3063657"><ele>66.66666666666666</ele><time>2026-03-21T09:36:11.132Z</time></trkpt><trkpt lat="45.0892921" lon="9.3062411"><ele>67.0</ele><time>2026-03-21T09:36:12.132Z</time></trkpt><trkpt lat="45.0891081" lon="9.3061348"><ele>67.0</ele><time>2026-03-21T09:36:13.132Z</time></trkpt><trkpt lat="45.0889307" lon="9.3060301"><ele>67.0</ele><time>2026-03-21T09:36:14.132Z</time></trkpt><trkpt lat="45.0887609" lon="9.3059241"><ele>67.0</ele><time>2026-03-21T09:36:15.132Z</time></trkpt><trkpt lat="45.0885929" lon="9.3058136"><ele>67.0</ele><time>2026-03-21T09:36:16.131Z</time></trkpt><trkpt lat="45.0884252" lon="9.3057056"><ele>67.0</ele><time>2026-03-21T09:36:17.131Z</time></trkpt><trkpt lat="45.0882567" lon="9.3055988"><ele>67.0</ele><time>2026-03-21T09:36:18.131Z</time></trkpt><trkpt lat="45.0880796" lon="9.3054896"><ele>66.5</ele><time>2026-03-21T09:36:19.131Z</time></trkpt><trkpt lat="45.0878801" lon="9.305376"><ele>66.0</ele><time>2026-03-21T09:36:20.131Z</time></trkpt><trkpt lat="45.0876601" lon="9.3052398"><ele>66.0</ele><time>2026-03-21T09:36:21.131Z</time></trkpt><trkpt lat="45.0874339" lon="9.3050807"><ele>66.0</ele><time>2026-03-21T09:36:22.132Z</time></trkpt><trkpt lat="45.0872118" lon="9.3049189"><ele>66.0</ele><time>2026-03-21T09:36:23.131Z</time></trkpt><trkpt lat="45.0869886" lon="9.304769"><ele>66.0</ele><time>2026-03-21T09:36:24.131Z</time></trkpt><trkpt lat="45.0867688" lon="9.304633"><ele>68.0</ele><time>2026-03-21T09:36:25.132Z</time></trkpt><trkpt lat="45.0865572" lon="9.3044984"><ele>70.0</ele><time>2026-03-21T09:36:26.132Z</time></trkpt><trkpt lat="45.0863505" lon="9.3043636"><ele>70.0</ele><time>2026-03-21T09:36:27.132Z</time></trkpt><trkpt lat="45.0861479" lon="9.3042336"><ele>70.0</ele><time>2026-03-21T09:36:28.132Z</time></trkpt><trkpt lat="45.0859508" lon="9.3041041"><ele>70.0</ele><time>2026-03-21T09:36:29.131Z</time></trkpt><trkpt lat="45.0857563" lon="9.3039773"><ele>70.66666666666666</ele><time>2026-03-21T09:36:30.132Z</time></trkpt><trkpt lat="45.0855604" lon="9.3038591"><ele>71.33333333333333</ele><time>2026-03-21T09:36:31.131Z</time></trkpt><trkpt lat="45.0853669" lon="9.3037569"><ele>72.0</ele><time>2026-03-21T09:36:32.131Z</time></trkpt><trkpt lat="45.0851706" lon="9.3036727"><ele>72.0</ele><time>2026-03-21T09:36:33.131Z</time></trkpt><trkpt lat="45.0849703" lon="9.3036042"><ele>72.0</ele><time>2026-03-21T09:36:34.131Z</time></trkpt><trkpt lat="45.0847706" lon="9.3035489"><ele>72.0</ele><time>2026-03-21T09:36:35.132Z</time></trkpt><trkpt lat="45.0845724" lon="9.3035011"><ele>72.66666666666667</ele><time>2026-03-21T09:36:36.132Z</time></trkpt><trkpt lat="45.084373" lon="9.3034562"><ele>73.33333333333334</ele><time>2026-03-21T09:36:37.131Z</time></trkpt><trkpt lat="45.0841778" lon="9.303411"><ele>74.0</ele><time>2026-03-21T09:36:38.131Z</time></trkpt><trkpt lat="45.0839848" lon="9.3033655"><ele>74.0</ele><time>2026-03-21T09:36:39.132Z</time></trkpt><trkpt lat="45.0837963" lon="9.3033232"><ele>74.0</ele><time>2026-03-21T09:36:40.132Z</time></trkpt><trkpt lat="45.0836113" lon="9.3032797"><ele>74.0</ele><time>2026-03-21T09:36:41.132Z</time></trkpt><trkpt lat="45.0834325" lon="9.3032403"><ele>74.0</ele><time>2026-03-21T09:36:42.132Z</time></trkpt><trkpt lat="45.0832581" lon="9.3031971"><ele>74.0</ele><time>2026-03-21T09:36:43.131Z</time></trkpt><trkpt lat="45.0830859" lon="9.3031553"><ele>74.0</ele><time>2026-03-21T09:36:44.132Z</time></trkpt><trkpt lat="45.0829166" lon="9.3031132"><ele>73.66666666666667</ele><time>2026-03-21T09:36:45.131Z</time></trkpt><trkpt lat="45.082751" lon="9.30307"><ele>73.33333333333333</ele><time>2026-03-21T09:36:46.132Z</time></trkpt><trkpt lat="45.0825804" lon="9.3030266"><ele>73.0</ele><time>2026-03-21T09:36:47.131Z</time></trkpt><trkpt lat="45.0824155" lon="9.302983"><ele>72.66666666666666</ele><time>2026-03-21T09:36:48.132Z</time></trkpt><trkpt lat="45.0822519" lon="9.302928"><ele>72.33333333333333</ele><time>2026-03-21T09:36:49.131Z</time></trkpt><trkpt lat="45.0820887" lon="9.3028662"><ele>72.0</ele><time>2026-03-21T09:36:50.131Z</time></trkpt><trkpt lat="45.0819287" lon="9.3027994"><ele>72.0</ele><time>2026-03-21T09:36:51.132Z</time></trkpt><trkpt lat="45.0817711" lon="9.3027291"><ele>72.0</ele><time>2026-03-21T09:36:52.131Z</time></trkpt><trkpt lat="45.0816128" lon="9.3026771"><ele>72.0</ele><time>2026-03-21T09:36:53.132Z</time></trkpt><trkpt lat="45.0814507" lon="9.3026374"><ele>72.66666666666667</ele><time>2026-03-21T09:36:54.132Z</time></trkpt><trkpt lat="45.081292" lon="9.3026014"><ele>73.33333333333334</ele><time>2026-03-21T09:36:55.132Z</time></trkpt><trkpt lat="45.081132" lon="9.3025657"><ele>74.0</ele><time>2026-03-21T09:36:56.132Z</time></trkpt><trkpt lat="45.0809786" lon="9.3025343"><ele>74.0</ele><time>2026-03-21T09:36:57.132Z</time></trkpt><trkpt lat="45.0808315" lon="9.3025012"><ele>74.0</ele><time>2026-03-21T09:36:58.132Z</time></trkpt><trkpt lat="45.0806871" lon="9.3024652"><ele>74.0</ele><time>2026-03-21T09:36:59.132Z</time></trkpt><trkpt lat="45.0805537" lon="9.3024276"><ele>74.0</ele><time>2026-03-21T09:37:00.131Z</time></trkpt><trkpt lat="45.0804243" lon="9.3023981"><ele>74.2</ele><time>2026-03-21T09:37:01.131Z</time></trkpt><trkpt lat="45.0803069" lon="9.3023733"><ele>74.4</ele><time>2026-03-21T09:37:02.132Z</time></trkpt><trkpt lat="45.0801987" lon="9.3023439"><ele>74.6</ele><time>2026-03-21T09:37:03.132Z</time></trkpt><trkpt lat="45.0801003" lon="9.3023223"><ele>74.8</ele><time>2026-03-21T09:37:04.131Z</time></trkpt><trkpt lat="45.0800203" lon="9.3023026"><ele>75.0</ele><time>2026-03-21T09:37:05.132Z</time></trkpt><trkpt lat="45.0799031" lon="9.3022675"><ele>75.2</ele><time>2026-03-21T09:37:07.132Z</time></trkpt><trkpt lat="45.079825" lon="9.3022504"><ele>75.4</ele><time>2026-03-21T09:37:08.132Z</time></trkpt><trkpt lat="45.0797302" lon="9.3022243"><ele>75.6</ele><time>2026-03-21T09:37:09.132Z</time></trkpt><trkpt lat="45.0796296" lon="9.3021974"><ele>75.8</ele><time>2026-03-21T09:37:10.131Z</time></trkpt><trkpt lat="45.0795404" lon="9.3021743"><ele>76.0</ele><time>2026-03-21T09:37:11.131Z</time></trkpt><trkpt lat="45.0794538" lon="9.3021601"><ele>76.0</ele><time>2026-03-21T09:37:12.132Z</time></trkpt><trkpt lat="45.0793779" lon="9.3021499"><ele>76.0</ele><time>2026-03-21T09:37:13.131Z</time></trkpt><trkpt lat="45.0793098" lon="9.3021392"><ele>76.0</ele><time>2026-03-21T09:37:14.132Z</time></trkpt><trkpt lat="45.0792459" lon="9.3021164"><ele>76.0</ele><time>2026-03-21T09:37:15.131Z</time></trkpt><trkpt lat="45.0791861" lon="9.3020817"><ele>76.0</ele><time>2026-03-21T09:37:16.131Z</time></trkpt><trkpt lat="45.0791296" lon="9.3020396"><ele>76.0</ele><time>2026-03-21T09:37:17.132Z</time></trkpt><trkpt lat="45.0790577" lon="9.3019209"><ele>76.5</ele><time>2026-03-21T09:37:19.131Z</time></trkpt><trkpt lat="45.0790465" lon="9.3018331"><ele>77.0</ele><time>2026-03-21T09:37:20.131Z</time></trkpt><trkpt lat="45.0790439" lon="9.3017376"><ele>77.5</ele><time>2026-03-21T09:37:21.132Z</time></trkpt><trkpt lat="45.0790438" lon="9.301633"><ele>78.0</ele><time>2026-03-21T09:37:22.132Z</time></trkpt><trkpt lat="45.0790422" lon="9.3015218"><ele>78.5</ele><time>2026-03-21T09:37:23.132Z</time></trkpt><trkpt lat="45.0790338" lon="9.3013993"><ele>79.0</ele><time>2026-03-21T09:37:24.131Z</time></trkpt><trkpt lat="45.0790337" lon="9.3012702"><ele>79.2</ele><time>2026-03-21T09:37:25.131Z</time></trkpt><trkpt lat="45.0790303" lon="9.3011334"><ele>79.4</ele><time>2026-03-21T09:37:26.132Z</time></trkpt><trkpt lat="45.0790296" lon="9.3010011"><ele>79.6</ele><time>2026-03-21T09:37:27.132Z</time></trkpt><trkpt lat="45.0790276" lon="9.3008684"><ele>79.8</ele><time>2026-03-21T09:37:28.132Z</time></trkpt><trkpt lat="45.0790241" lon="9.3007283"><ele>80.0</ele><time>2026-03-21T09:37:29.132Z</time></trkpt><trkpt lat="45.0790216" lon="9.300583"><ele>79.5</ele><time>2026-03-21T09:37:30.131Z</time></trkpt><trkpt lat="45.0790172" lon="9.3004319"><ele>79.0</ele><time>2026-03-21T09:37:31.132Z</time></trkpt><trkpt lat="45.0790104" lon="9.3002715"><ele>78.5</ele><time>2026-03-21T09:37:32.132Z</time></trkpt><trkpt lat="45.0789999" lon="9.3001083"><ele>78.0</ele><time>2026-03-21T09:37:33.131Z</time></trkpt><trkpt lat="45.0789881" lon="9.2999467"><ele>78.0</ele><time>2026-03-21T09:37:34.131Z</time></trkpt><trkpt lat="45.0789766" lon="9.2997808"><ele>78.0</ele><time>2026-03-21T09:37:35.132Z</time></trkpt><trkpt lat="45.0789646" lon="9.2996265"><ele>78.0</ele><time>2026-03-21T09:37:36.131Z</time></trkpt><trkpt lat="45.0789538" lon="9.2994826"><ele>78.0</ele><time>2026-03-21T09:37:37.131Z</time></trkpt><trkpt lat="45.0789446" lon="9.2993507"><ele>78.0</ele><time>2026-03-21T09:37:38.132Z</time></trkpt><trkpt lat="45.0789397" lon="9.2992228"><ele>77.66666666666667</ele><time>2026-03-21T09:37:39.131Z</time></trkpt><trkpt lat="45.0789361" lon="9.2991064"><ele>77.33333333333333</ele><time>2026-03-21T09:37:40.132Z</time></trkpt><trkpt lat="45.0789315" lon="9.2990043"><ele>77.0</ele><time>2026-03-21T09:37:41.131Z</time></trkpt><trkpt lat="45.0789248" lon="9.2989123"><ele>76.66666666666666</ele><time>2026-03-21T09:37:42.131Z</time></trkpt><trkpt lat="45.0789149" lon="9.2987812"><ele>76.33333333333333</ele><time>2026-03-21T09:37:44.131Z</time></trkpt><trkpt lat="45.0789057" lon="9.2986906"><ele>76.0</ele><time>2026-03-21T09:37:47.132Z</time></trkpt><trkpt lat="45.0788998" lon="9.2985194"><ele>76.0</ele><time>2026-03-21T09:37:49.131Z</time></trkpt><trkpt lat="45.078892" lon="9.298392"><ele>76.0</ele><time>2026-03-21T09:37:50.132Z</time></trkpt><trkpt lat="45.0788865" lon="9.2982486"><ele>76.0</ele><time>2026-03-21T09:37:51.131Z</time></trkpt><trkpt lat="45.0788834" lon="9.2980901"><ele>76.0</ele><time>2026-03-21T09:37:52.132Z</time></trkpt><trkpt lat="45.0788775" lon="9.2979197"><ele>76.0</ele><time>2026-03-21T09:37:53.131Z</time></trkpt><trkpt lat="45.0788735" lon="9.2977369"><ele>76.0</ele><time>2026-03-21T09:37:54.131Z</time></trkpt><trkpt lat="45.0788701" lon="9.2975471"><ele>76.0</ele><time>2026-03-21T09:37:55.131Z</time></trkpt><trkpt lat="45.0788713" lon="9.2973507"><ele>76.0</ele><time>2026-03-21T09:37:56.131Z</time></trkpt><trkpt lat="45.0788793" lon="9.2971439"><ele>76.0</ele><time>2026-03-21T09:37:57.131Z</time></trkpt><trkpt lat="45.0788915" lon="9.2969288"><ele>76.33333333333333</ele><time>2026-03-21T09:37:58.131Z</time></trkpt><trkpt lat="45.0789035" lon="9.296699"><ele>76.66666666666667</ele><time>2026-03-21T09:37:59.131Z</time></trkpt><trkpt lat="45.0789179" lon="9.2964599"><ele>77.0</ele><time>2026-03-21T09:38:00.131Z</time></trkpt><trkpt lat="45.0789333" lon="9.2962138"><ele>77.33333333333334</ele><time>2026-03-21T09:38:01.131Z</time></trkpt><trkpt lat="45.0789476" lon="9.2959698"><ele>77.66666666666667</ele><time>2026-03-21T09:38:02.131Z</time></trkpt><trkpt lat="45.078959" lon="9.295733"><ele>78.0</ele><time>2026-03-21T09:38:03.132Z</time></trkpt><trkpt lat="45.0789672" lon="9.2955135"><ele>77.5</ele><time>2026-03-21T09:38:04.131Z</time></trkpt><trkpt lat="45.0789724" lon="9.2953054"><ele>77.0</ele><time>2026-03-21T09:38:05.132Z</time></trkpt><trkpt lat="45.0789695" lon="9.295118"><ele>76.5</ele><time>2026-03-21T09:38:06.132Z</time></trkpt><trkpt lat="45.0789671" lon="9.2949449"><ele>76.0</ele><time>2026-03-21T09:38:07.131Z</time></trkpt><trkpt lat="45.0789622" lon="9.2947892"><ele>76.16666666666666</ele><time>2026-03-21T09:38:08.131Z</time></trkpt><trkpt lat="45.0789519" lon="9.2946596"><ele>76.33333333333333</ele><time>2026-03-21T09:38:09.132Z</time></trkpt><trkpt lat="45.0789349" lon="9.2945592"><ele>76.5</ele><time>2026-03-21T09:38:10.131Z</time></trkpt><trkpt lat="45.0788534" lon="9.2944922"><ele>76.66666666666667</ele><time>2026-03-21T09:38:12.131Z</time></trkpt><trkpt lat="45.0787669" lon="9.294578"><ele>76.83333333333334</ele><time>2026-03-21T09:38:14.132Z</time></trkpt><trkpt lat="45.0787141" lon="9.2946498"><ele>77.0</ele><time>2026-03-21T09:38:15.132Z</time></trkpt><trkpt lat="45.0786413" lon="9.2946903"><ele>77.0</ele><time>2026-03-21T09:38:16.131Z</time></trkpt><trkpt lat="45.0785496" lon="9.2947014"><ele>77.0</ele><time>2026-03-21T09:38:17.131Z</time></trkpt><trkpt lat="45.0784305" lon="9.2947017"><ele>77.0</ele><time>2026-03-21T09:38:18.132Z</time></trkpt><trkpt lat="45.078251" lon="9.2946952"><ele>77.0</ele><time>2026-03-21T09:38:19.132Z</time></trkpt><trkpt lat="45.0780791" lon="9.2946874"><ele>78.0</ele><time>2026-03-21T09:38:20.131Z</time></trkpt><trkpt lat="45.0779369" lon="9.2946881"><ele>79.0</ele><time>2026-03-21T09:38:21.131Z</time></trkpt><trkpt lat="45.0778136" lon="9.2946873"><ele>80.0</ele><time>2026-03-21T09:38:22.132Z</time></trkpt><trkpt lat="45.0777142" lon="9.2946878"><ele>81.0</ele><time>2026-03-21T09:38:23.132Z</time></trkpt><trkpt lat="45.0776288" lon="9.2946669"><ele>81.0</ele><time>2026-03-21T09:38:24.132Z</time></trkpt><trkpt lat="45.0775625" lon="9.2945968"><ele>81.0</ele><time>2026-03-21T09:38:25.132Z</time></trkpt><trkpt lat="45.0775146" lon="9.2944874"><ele>81.0</ele><time>2026-03-21T09:38:26.132Z</time></trkpt><trkpt lat="45.0774726" lon="9.2943458"><ele>81.0</ele><time>2026-03-21T09:38:27.131Z</time></trkpt><trkpt lat="45.0774316" lon="9.2942227"><ele>81.0</ele><time>2026-03-21T09:38:28.132Z</time></trkpt><trkpt lat="45.0773944" lon="9.2941138"><ele>83.6</ele><time>2026-03-21T09:38:29.131Z</time></trkpt><trkpt lat="45.0773416" lon="9.2940338"><ele>86.19999999999999</ele><time>2026-03-21T09:38:30.131Z</time></trkpt><trkpt lat="45.0772639" lon="9.2939765"><ele>88.80000000000001</ele><time>2026-03-21T09:38:31.132Z</time></trkpt><trkpt lat="45.0771737" lon="9.2939601"><ele>91.4</ele><time>2026-03-21T09:38:32.132Z</time></trkpt><trkpt lat="45.0770649" lon="9.2939541"><ele>94.0</ele><time>2026-03-21T09:38:33.132Z</time></trkpt><trkpt lat="45.0769486" lon="9.2939541"><ele>94.0</ele><time>2026-03-21T09:38:34.131Z</time></trkpt><trkpt lat="45.0768277" lon="9.2939604"><ele>94.0</ele><time>2026-03-21T09:38:35.132Z</time></trkpt><trkpt lat="45.0767102" lon="9.2939768"><ele>94.0</ele><time>2026-03-21T09:38:36.131Z</time></trkpt><trkpt lat="45.0766003" lon="9.2939982"><ele>94.0</ele><time>2026-03-21T09:38:37.132Z</time></trkpt><trkpt lat="45.0764994" lon="9.2940206"><ele>95.16666666666666</ele><time>2026-03-21T09:38:38.132Z</time></trkpt><trkpt lat="45.0764137" lon="9.2940345"><ele>96.33333333333333</ele><time>2026-03-21T09:38:39.131Z</time></trkpt><trkpt lat="45.0763454" lon="9.2940396"><ele>97.5</ele><time>2026-03-21T09:38:40.132Z</time></trkpt><trkpt lat="45.0762741" lon="9.2940271"><ele>98.66666666666666</ele><time>2026-03-21T09:38:41.132Z</time></trkpt><trkpt lat="45.07619" lon="9.2940204"><ele>99.83333333333333</ele><time>2026-03-21T09:38:42.132Z</time></trkpt><trkpt lat="45.0761088" lon="9.2940013"><ele>101.0</ele><time>2026-03-21T09:38:43.132Z</time></trkpt><trkpt lat="45.076039" lon="9.2939849"><ele>100.99999999999999</ele><time>2026-03-21T09:38:44.132Z</time></trkpt><trkpt lat="45.0759761" lon="9.2939702"><ele>101.0</ele><time>2026-03-21T09:38:46.132Z</time></trkpt><trkpt lat="45.0758984" lon="9.2938978"><ele>101.0</ele><time>2026-03-21T09:38:51.131Z</time></trkpt><trkpt lat="45.0758583" lon="9.2938288"><ele>101.0</ele><time>2026-03-21T09:38:52.131Z</time></trkpt><trkpt lat="45.0758119" lon="9.2937527"><ele>100.99999999999999</ele><time>2026-03-21T09:38:53.131Z</time></trkpt><trkpt lat="45.075762" lon="9.293684"><ele>101.0</ele><time>2026-03-21T09:38:54.132Z</time></trkpt><trkpt lat="45.0756656" lon="9.2936149"><ele>101.19999999999999</ele><time>2026-03-21T09:38:56.131Z</time></trkpt><trkpt lat="45.0755311" lon="9.2936406"><ele>101.39999999999999</ele><time>2026-03-21T09:38:58.131Z</time></trkpt><trkpt lat="45.0754533" lon="9.2936665"><ele>101.6</ele><time>2026-03-21T09:38:59.131Z</time></trkpt><trkpt lat="45.0753768" lon="9.2936835"><ele>101.8</ele><time>2026-03-21T09:39:00.131Z</time></trkpt><trkpt lat="45.0752987" lon="9.2937079"><ele>102.0</ele><time>2026-03-21T09:39:01.131Z</time></trkpt><trkpt lat="45.0752215" lon="9.2937272"><ele>102.0</ele><time>2026-03-21T09:39:02.131Z</time></trkpt><trkpt lat="45.0751496" lon="9.293741"><ele>102.0</ele><time>2026-03-21T09:39:03.132Z</time></trkpt><trkpt lat="45.0750861" lon="9.2937687"><ele>102.0</ele><time>2026-03-21T09:39:04.132Z</time></trkpt><trkpt lat="45.0750131" lon="9.2938754"><ele>102.0</ele><time>2026-03-21T09:39:06.131Z</time></trkpt><trkpt lat="45.0749966" lon="9.2940878"><ele>102.0</ele><time>2026-03-21T09:39:08.132Z</time></trkpt><trkpt lat="45.0749857" lon="9.2942102"><ele>102.5</ele><time>2026-03-21T09:39:09.132Z</time></trkpt><trkpt lat="45.0749803" lon="9.29432"><ele>103.0</ele><time>2026-03-21T09:39:10.131Z</time></trkpt><trkpt lat="45.0749359" lon="9.294443"><ele>103.5</ele><time>2026-03-21T09:39:12.131Z</time></trkpt><trkpt lat="45.0748389" lon="9.2944621"><ele>104.0</ele><time>2026-03-21T09:39:14.131Z</time></trkpt><trkpt lat="45.0747724" lon="9.2944696"><ele>104.5</ele><time>2026-03-21T09:39:15.131Z</time></trkpt><trkpt lat="45.0747066" lon="9.2944779"><ele>105.0</ele><time>2026-03-21T09:39:16.131Z</time></trkpt><trkpt lat="45.0746454" lon="9.2945023"><ele>106.0</ele><time>2026-03-21T09:39:17.131Z</time></trkpt><trkpt lat="45.0745636" lon="9.2945307"><ele>107.0</ele><time>2026-03-21T09:39:18.131Z</time></trkpt><trkpt lat="45.0744946" lon="9.2945782"><ele>108.0</ele><time>2026-03-21T09:39:19.132Z</time></trkpt><trkpt lat="45.0744208" lon="9.2946371"><ele>109.0</ele><time>2026-03-21T09:39:20.131Z</time></trkpt><trkpt lat="45.0743457" lon="9.2946952"><ele>110.0</ele><time>2026-03-21T09:39:21.132Z</time></trkpt><trkpt lat="45.0742672" lon="9.2947392"><ele>111.0</ele><time>2026-03-21T09:39:22.132Z</time></trkpt><trkpt lat="45.0741982" lon="9.2947561"><ele>111.0</ele><time>2026-03-21T09:39:23.131Z</time></trkpt><trkpt lat="45.07412" lon="9.2947543"><ele>111.0</ele><time>2026-03-21T09:39:24.131Z</time></trkpt><trkpt lat="45.0740402" lon="9.2947524"><ele>111.0</ele><time>2026-03-21T09:39:25.132Z</time></trkpt><trkpt lat="45.0739652" lon="9.2947521"><ele>111.0</ele><time>2026-03-21T09:39:26.131Z</time></trkpt><trkpt lat="45.0739002" lon="9.2947525"><ele>111.0</ele><time>2026-03-21T09:39:27.131Z</time></trkpt><trkpt lat="45.0737916" lon="9.2947265"><ele>111.0</ele><time>2026-03-21T09:39:29.132Z</time></trkpt><trkpt lat="45.0737262" lon="9.2946732"><ele>112.4</ele><time>2026-03-21T09:39:30.131Z</time></trkpt><trkpt lat="45.073654" lon="9.2946154"><ele>113.8</ele><time>2026-03-21T09:39:31.132Z</time></trkpt><trkpt lat="45.0735712" lon="9.2945517"><ele>115.20000000000002</ele><time>2026-03-21T09:39:32.132Z</time></trkpt><trkpt lat="45.0734854" lon="9.2944729"><ele>116.60000000000001</ele><time>2026-03-21T09:39:33.131Z</time></trkpt><trkpt lat="45.0733934" lon="9.2943824"><ele>118.0</ele><time>2026-03-21T09:39:34.131Z</time></trkpt><trkpt lat="45.0733037" lon="9.2942786"><ele>118.5</ele><time>2026-03-21T09:39:35.132Z</time></trkpt><trkpt lat="45.0732114" lon="9.2941675"><ele>119.0</ele><time>2026-03-21T09:39:36.131Z</time></trkpt><trkpt lat="45.0731142" lon="9.2940536"><ele>119.5</ele><time>2026-03-21T09:39:37.131Z</time></trkpt><trkpt lat="45.0730125" lon="9.2939383"><ele>120.0</ele><time>2026-03-21T09:39:38.131Z</time></trkpt><trkpt lat="45.0729106" lon="9.2938148"><ele>121.75</ele><time>2026-03-21T09:39:39.131Z</time></trkpt><trkpt lat="45.0728051" lon="9.2936947"><ele>123.5</ele><time>2026-03-21T09:39:40.132Z</time></trkpt><trkpt lat="45.072702" lon="9.2935742"><ele>125.25</ele><time>2026-03-21T09:39:41.132Z</time></trkpt><trkpt lat="45.0726047" lon="9.293456"><ele>127.0</ele><time>2026-03-21T09:39:42.132Z</time></trkpt><trkpt lat="45.0725116" lon="9.2933447"><ele>126.5</ele><time>2026-03-21T09:39:43.132Z</time></trkpt><trkpt lat="45.0724242" lon="9.2932316"><ele>126.0</ele><time>2026-03-21T09:39:44.131Z</time></trkpt><trkpt lat="45.0723432" lon="9.2931158"><ele>125.5</ele><time>2026-03-21T09:39:45.131Z</time></trkpt><trkpt lat="45.072262" lon="9.2929993"><ele>125.0</ele><time>2026-03-21T09:39:46.131Z</time></trkpt><trkpt lat="45.0721827" lon="9.2928945"><ele>126.4</ele><time>2026-03-21T09:39:47.132Z</time></trkpt><trkpt lat="45.0721047" lon="9.2927949"><ele>127.8</ele><time>2026-03-21T09:39:48.132Z</time></trkpt><trkpt lat="45.0720287" lon="9.2927007"><ele>129.2</ele><time>2026-03-21T09:39:49.132Z</time></trkpt><trkpt lat="45.0719451" lon="9.2926115"><ele>130.6</ele><time>2026-03-21T09:39:50.131Z</time></trkpt><trkpt lat="45.0718553" lon="9.2925253"><ele>132.0</ele><time>2026-03-21T09:39:51.132Z</time></trkpt><trkpt lat="45.0717602" lon="9.2924482"><ele>132.0</ele><time>2026-03-21T09:39:52.132Z</time></trkpt><trkpt lat="45.0716629" lon="9.2923733"><ele>132.0</ele><time>2026-03-21T09:39:53.131Z</time></trkpt><trkpt lat="45.0715694" lon="9.2922916"><ele>132.0</ele><time>2026-03-21T09:39:54.131Z</time></trkpt><trkpt lat="45.0714872" lon="9.2921891"><ele>132.0</ele><time>2026-03-21T09:39:55.132Z</time></trkpt><trkpt lat="45.0714192" lon="9.292048"><ele>133.5</ele><time>2026-03-21T09:39:56.131Z</time></trkpt><trkpt lat="45.0713484" lon="9.2918863"><ele>135.0</ele><time>2026-03-21T09:39:57.131Z</time></trkpt><trkpt lat="45.0712723" lon="9.2917178"><ele>136.5</ele><time>2026-03-21T09:39:58.131Z</time></trkpt><trkpt lat="45.0711864" lon="9.2915541"><ele>138.0</ele><time>2026-03-21T09:39:59.131Z</time></trkpt><trkpt lat="45.0710803" lon="9.2913935"><ele>139.25</ele><time>2026-03-21T09:40:00.131Z</time></trkpt><trkpt lat="45.07097" lon="9.2912597"><ele>140.5</ele><time>2026-03-21T09:40:01.131Z</time></trkpt><trkpt lat="45.0708678" lon="9.2911327"><ele>141.75</ele><time>2026-03-21T09:40:02.132Z</time></trkpt><trkpt lat="45.0707846" lon="9.2910024"><ele>143.0</ele><time>2026-03-21T09:40:03.131Z</time></trkpt><trkpt lat="45.0707449" lon="9.2908708"><ele>143.0</ele><time>2026-03-21T09:40:04.131Z</time></trkpt><trkpt lat="45.0707495" lon="9.2907514"><ele>143.0</ele><time>2026-03-21T09:40:05.132Z</time></trkpt><trkpt lat="45.0707982" lon="9.2906661"><ele>143.0</ele><time>2026-03-21T09:40:06.131Z</time></trkpt><trkpt lat="45.0708822" lon="9.2906184"><ele>143.0</ele><time>2026-03-21T09:40:07.131Z</time></trkpt><trkpt lat="45.0709894" lon="9.2906082"><ele>143.0</ele><time>2026-03-21T09:40:08.132Z</time></trkpt><trkpt lat="45.0711185" lon="9.2906046"><ele>143.8</ele><time>2026-03-21T09:40:09.131Z</time></trkpt><trkpt lat="45.071223" lon="9.2905924"><ele>144.60000000000002</ele><time>2026-03-21T09:40:10.131Z</time></trkpt><trkpt lat="45.0713129" lon="9.2905367"><ele>145.39999999999998</ele><time>2026-03-21T09:40:11.132Z</time></trkpt><trkpt lat="45.071382" lon="9.2904669"><ele>146.2</ele><time>2026-03-21T09:40:12.131Z</time></trkpt><trkpt lat="45.0713926" lon="9.2903194"><ele>147.0</ele><time>2026-03-21T09:40:13.132Z</time></trkpt><trkpt lat="45.0714016" lon="9.2901518"><ele>148.75</ele><time>2026-03-21T09:40:14.131Z</time></trkpt><trkpt lat="45.0714191" lon="9.2899376"><ele>150.5</ele><time>2026-03-21T09:40:15.131Z</time></trkpt><trkpt lat="45.0714512" lon="9.2897235"><ele>152.25</ele><time>2026-03-21T09:40:16.131Z</time></trkpt><trkpt lat="45.0714726" lon="9.289525"><ele>154.0</ele><time>2026-03-21T09:40:17.131Z</time></trkpt><trkpt lat="45.0714772" lon="9.2893438"><ele>155.8</ele><time>2026-03-21T09:40:18.131Z</time></trkpt><trkpt lat="45.0714706" lon="9.2891645"><ele>157.60000000000002</ele><time>2026-03-21T09:40:19.132Z</time></trkpt><trkpt lat="45.0714674" lon="9.289001"><ele>159.4</ele><time>2026-03-21T09:40:20.131Z</time></trkpt><trkpt lat="45.0714847" lon="9.2888549"><ele>161.20000000000002</ele><time>2026-03-21T09:40:21.132Z</time></trkpt><trkpt lat="45.0715311" lon="9.2887362"><ele>163.0</ele><time>2026-03-21T09:40:22.132Z</time></trkpt><trkpt lat="45.07161" lon="9.2886565"><ele>163.75</ele><time>2026-03-21T09:40:23.132Z</time></trkpt><trkpt lat="45.0717161" lon="9.2886098"><ele>164.5</ele><time>2026-03-21T09:40:24.132Z</time></trkpt><trkpt lat="45.0718562" lon="9.2885778"><ele>165.25</ele><time>2026-03-21T09:40:25.131Z</time></trkpt><trkpt lat="45.0720183" lon="9.2885368"><ele>166.0</ele><time>2026-03-21T09:40:26.131Z</time></trkpt><trkpt lat="45.0722025" lon="9.2884909"><ele>166.0</ele><time>2026-03-21T09:40:27.131Z</time></trkpt><trkpt lat="45.0723855" lon="9.2884596"><ele>166.0</ele><time>2026-03-21T09:40:28.131Z</time></trkpt><trkpt lat="45.0725597" lon="9.2884282"><ele>166.0</ele><time>2026-03-21T09:40:29.131Z</time></trkpt><trkpt lat="45.0727077" lon="9.2884029"><ele>166.20000000000002</ele><time>2026-03-21T09:40:30.132Z</time></trkpt><trkpt lat="45.0728379" lon="9.2883797"><ele>166.4</ele><time>2026-03-21T09:40:31.132Z</time></trkpt><trkpt lat="45.072941" lon="9.2883363"><ele>166.6</ele><time>2026-03-21T09:40:32.131Z</time></trkpt><trkpt lat="45.0730111" lon="9.2882512"><ele>166.8</ele><time>2026-03-21T09:40:33.131Z</time></trkpt><trkpt lat="45.073029" lon="9.2881378"><ele>167.0</ele><time>2026-03-21T09:40:34.132Z</time></trkpt><trkpt lat="45.0730111" lon="9.2879917"><ele>170.33333333333331</ele><time>2026-03-21T09:40:35.131Z</time></trkpt><trkpt lat="45.0729471" lon="9.2878187"><ele>173.66666666666666</ele><time>2026-03-21T09:40:36.132Z</time></trkpt><trkpt lat="45.0728729" lon="9.2876388"><ele>177.0</ele><time>2026-03-21T09:40:37.132Z</time></trkpt><trkpt lat="45.0727248" lon="9.2874357"><ele>177.0</ele><time>2026-03-21T09:40:38.132Z</time></trkpt><trkpt lat="45.0726183" lon="9.2872613"><ele>177.0</ele><time>2026-03-21T09:40:39.131Z</time></trkpt><trkpt lat="45.0725254" lon="9.2870872"><ele>177.0</ele><time>2026-03-21T09:40:40.132Z</time></trkpt><trkpt lat="45.0724537" lon="9.2869133"><ele>178.5</ele><time>2026-03-21T09:40:41.132Z</time></trkpt><trkpt lat="45.0723959" lon="9.2867235"><ele>180.0</ele><time>2026-03-21T09:40:42.132Z</time></trkpt><trkpt lat="45.0723598" lon="9.2865427"><ele>181.5</ele><time>2026-03-21T09:40:43.131Z</time></trkpt><trkpt lat="45.0723261" lon="9.2864005"><ele>183.0</ele><time>2026-03-21T09:40:44.132Z</time></trkpt><trkpt lat="45.07226" lon="9.2862903"><ele>183.0</ele><time>2026-03-21T09:40:45.132Z</time></trkpt><trkpt lat="45.0721712" lon="9.2862459"><ele>183.0</ele><time>2026-03-21T09:40:46.131Z</time></trkpt><trkpt lat="45.0720675" lon="9.2862545"><ele>183.0</ele><time>2026-03-21T09:40:47.132Z</time></trkpt><trkpt lat="45.0719481" lon="9.2862857"><ele>183.0</ele><time>2026-03-21T09:40:48.132Z</time></trkpt><trkpt lat="45.0718095" lon="9.286301"><ele>183.0</ele><time>2026-03-21T09:40:49.132Z</time></trkpt><trkpt lat="45.071669" lon="9.2862999"><ele>183.0</ele><time>2026-03-21T09:40:50.131Z</time></trkpt><trkpt lat="45.0715233" lon="9.2862905"><ele>183.0</ele><time>2026-03-21T09:40:51.132Z</time></trkpt><trkpt lat="45.0713709" lon="9.286274"><ele>183.0</ele><time>2026-03-21T09:40:52.131Z</time></trkpt><trkpt lat="45.0712211" lon="9.2862484"><ele>185.25</ele><time>2026-03-21T09:40:53.132Z</time></trkpt><trkpt lat="45.0711006" lon="9.2862044"><ele>187.5</ele><time>2026-03-21T09:40:54.132Z</time></trkpt><trkpt lat="45.0709868" lon="9.2861461"><ele>189.75</ele><time>2026-03-21T09:40:55.131Z</time></trkpt><trkpt lat="45.0708926" lon="9.2860361"><ele>192.0</ele><time>2026-03-21T09:40:56.132Z</time></trkpt><trkpt lat="45.0708125" lon="9.2858904"><ele>194.66666666666669</ele><time>2026-03-21T09:40:57.131Z</time></trkpt><trkpt lat="45.0707124" lon="9.2857561"><ele>197.33333333333334</ele><time>2026-03-21T09:40:58.132Z</time></trkpt><trkpt lat="45.0705867" lon="9.2856373"><ele>200.0</ele><time>2026-03-21T09:40:59.131Z</time></trkpt><trkpt lat="45.0704352" lon="9.2855421"><ele>200.66666666666669</ele><time>2026-03-21T09:41:00.131Z</time></trkpt><trkpt lat="45.0702717" lon="9.2854545"><ele>201.33333333333331</ele><time>2026-03-21T09:41:01.131Z</time></trkpt><trkpt lat="45.0701074" lon="9.2853718"><ele>202.0</ele><time>2026-03-21T09:41:02.131Z</time></trkpt><trkpt lat="45.0699407" lon="9.2853056"><ele>204.0</ele><time>2026-03-21T09:41:03.131Z</time></trkpt><trkpt lat="45.0697692" lon="9.2852665"><ele>206.0</ele><time>2026-03-21T09:41:04.131Z</time></trkpt><trkpt lat="45.0696043" lon="9.2852611"><ele>208.0</ele><time>2026-03-21T09:41:05.132Z</time></trkpt><trkpt lat="45.069441" lon="9.2852538"><ele>208.0</ele><time>2026-03-21T09:41:06.132Z</time></trkpt><trkpt lat="45.0692889" lon="9.2852484"><ele>208.0</ele><time>2026-03-21T09:41:07.132Z</time></trkpt><trkpt lat="45.0691496" lon="9.2852558"><ele>208.0</ele><time>2026-03-21T09:41:08.131Z</time></trkpt><trkpt lat="45.0690261" lon="9.2852859"><ele>208.0</ele><time>2026-03-21T09:41:09.131Z</time></trkpt><trkpt lat="45.0689068" lon="9.2853657"><ele>208.0</ele><time>2026-03-21T09:41:10.131Z</time></trkpt><trkpt lat="45.0687857" lon="9.2854901"><ele>208.0</ele><time>2026-03-21T09:41:11.132Z</time></trkpt><trkpt lat="45.0686466" lon="9.2856509"><ele>208.0</ele><time>2026-03-21T09:41:12.132Z</time></trkpt><trkpt lat="45.0685063" lon="9.2858009"><ele>208.0</ele><time>2026-03-21T09:41:13.131Z</time></trkpt><trkpt lat="45.0683704" lon="9.2859382"><ele>208.0</ele><time>2026-03-21T09:41:14.131Z</time></trkpt><trkpt lat="45.0682535" lon="9.2860446"><ele>208.0</ele><time>2026-03-21T09:41:15.132Z</time></trkpt><trkpt lat="45.068152" lon="9.2861062"><ele>208.0</ele><time>2026-03-21T09:41:16.131Z</time></trkpt><trkpt lat="45.0680579" lon="9.2860854"><ele>211.2</ele><time>2026-03-21T09:41:17.131Z</time></trkpt><trkpt lat="45.0679848" lon="9.2860101"><ele>214.4</ele><time>2026-03-21T09:41:18.131Z</time></trkpt><trkpt lat="45.0679604" lon="9.285888"><ele>217.59999999999997</ele><time>2026-03-21T09:41:19.131Z</time></trkpt><trkpt lat="45.0679791" lon="9.2857364"><ele>220.79999999999998</ele><time>2026-03-21T09:41:20.132Z</time></trkpt><trkpt lat="45.068016" lon="9.2855433"><ele>224.0</ele><time>2026-03-21T09:41:21.131Z</time></trkpt><trkpt lat="45.0680826" lon="9.2853259"><ele>223.66666666666669</ele><time>2026-03-21T09:41:22.132Z</time></trkpt><trkpt lat="45.0681464" lon="9.2850981"><ele>223.33333333333331</ele><time>2026-03-21T09:41:23.131Z</time></trkpt><trkpt lat="45.0682147" lon="9.2848577"><ele>223.0</ele><time>2026-03-21T09:41:24.132Z</time></trkpt><trkpt lat="45.0682783" lon="9.2846087"><ele>223.0</ele><time>2026-03-21T09:41:25.132Z</time></trkpt><trkpt lat="45.0683451" lon="9.2843603"><ele>223.0</ele><time>2026-03-21T09:41:26.131Z</time></trkpt><trkpt lat="45.0684049" lon="9.284132"><ele>223.0</ele><time>2026-03-21T09:41:27.132Z</time></trkpt><trkpt lat="45.0684543" lon="9.2839186"><ele>224.25</ele><time>2026-03-21T09:41:28.132Z</time></trkpt><trkpt lat="45.0684862" lon="9.2837283"><ele>225.5</ele><time>2026-03-21T09:41:29.131Z</time></trkpt><trkpt lat="45.0684878" lon="9.2835581"><ele>226.75</ele><time>2026-03-21T09:41:30.132Z</time></trkpt><trkpt lat="45.0684627" lon="9.2834021"><ele>228.0</ele><time>2026-03-21T09:41:31.131Z</time></trkpt><trkpt lat="45.0684126" lon="9.2832742"><ele>228.0</ele><time>2026-03-21T09:41:32.131Z</time></trkpt><trkpt lat="45.0683415" lon="9.2831879"><ele>228.0</ele><time>2026-03-21T09:41:33.132Z</time></trkpt><trkpt lat="45.0682616" lon="9.283155"><ele>228.0</ele><time>2026-03-21T09:41:34.132Z</time></trkpt><trkpt lat="45.0681799" lon="9.2831817"><ele>228.0</ele><time>2026-03-21T09:41:35.132Z</time></trkpt><trkpt lat="45.0681047" lon="9.2832498"><ele>228.0</ele><time>2026-03-21T09:41:36.132Z</time></trkpt><trkpt lat="45.0680315" lon="9.283361"><ele>231.75</ele><time>2026-03-21T09:41:37.132Z</time></trkpt><trkpt lat="45.0679448" lon="9.2835015"><ele>235.5</ele><time>2026-03-21T09:41:38.131Z</time></trkpt><trkpt lat="45.067838" lon="9.2836395"><ele>239.25</ele><time>2026-03-21T09:41:39.132Z</time></trkpt><trkpt lat="45.0677228" lon="9.2837542"><ele>243.0</ele><time>2026-03-21T09:41:40.131Z</time></trkpt><trkpt lat="45.0676126" lon="9.2838258"><ele>243.0</ele><time>2026-03-21T09:41:41.131Z</time></trkpt><trkpt lat="45.0674993" lon="9.2838267"><ele>243.0</ele><time>2026-03-21T09:41:42.132Z</time></trkpt><trkpt lat="45.0673717" lon="9.2837783"><ele>243.0</ele><time>2026-03-21T09:41:43.132Z</time></trkpt><trkpt lat="45.067224" lon="9.2837023"><ele>243.0</ele><time>2026-03-21T09:41:44.132Z</time></trkpt><trkpt lat="45.0670624" lon="9.2836157"><ele>244.66666666666669</ele><time>2026-03-21T09:41:45.132Z</time></trkpt><trkpt lat="45.0668993" lon="9.2835515"><ele>246.33333333333334</ele><time>2026-03-21T09:41:46.131Z</time></trkpt><trkpt lat="45.0667458" lon="9.2835381"><ele>248.0</ele><time>2026-03-21T09:41:47.132Z</time></trkpt><trkpt lat="45.0666081" lon="9.2835409"><ele>245.5</ele><time>2026-03-21T09:41:48.132Z</time></trkpt><trkpt lat="45.0664852" lon="9.2835113"><ele>243.0</ele><time>2026-03-21T09:41:49.131Z</time></trkpt><trkpt lat="45.0663908" lon="9.2834425"><ele>240.5</ele><time>2026-03-21T09:41:50.132Z</time></trkpt><trkpt lat="45.0663134" lon="9.2833186"><ele>238.0</ele><time>2026-03-21T09:41:51.132Z</time></trkpt><trkpt lat="45.066242" lon="9.2831371"><ele>242.25</ele><time>2026-03-21T09:41:52.132Z</time></trkpt><trkpt lat="45.0661752" lon="9.2829246"><ele>246.5</ele><time>2026-03-21T09:41:53.132Z</time></trkpt><trkpt lat="45.0660974" lon="9.282742"><ele>250.75</ele><time>2026-03-21T09:41:54.131Z</time></trkpt><trkpt lat="45.0660078" lon="9.2826012"><ele>255.0</ele><time>2026-03-21T09:41:55.132Z</time></trkpt><trkpt lat="45.065904" lon="9.2825018"><ele>255.0</ele><time>2026-03-21T09:41:56.131Z</time></trkpt><trkpt lat="45.06578" lon="9.2824418"><ele>255.0</ele><time>2026-03-21T09:41:57.132Z</time></trkpt><trkpt lat="45.0656396" lon="9.282427"><ele>255.0</ele><time>2026-03-21T09:41:58.131Z</time></trkpt><trkpt lat="45.0654961" lon="9.2824316"><ele>255.0</ele><time>2026-03-21T09:41:59.131Z</time></trkpt><trkpt lat="45.0653466" lon="9.2824416"><ele>253.0</ele><time>2026-03-21T09:42:00.131Z</time></trkpt><trkpt lat="45.0651918" lon="9.2824495"><ele>251.0</ele><time>2026-03-21T09:42:01.131Z</time></trkpt><trkpt lat="45.0650342" lon="9.2824576"><ele>249.0</ele><time>2026-03-21T09:42:02.131Z</time></trkpt><trkpt lat="45.0648751" lon="9.2824742"><ele>249.0</ele><time>2026-03-21T09:42:03.132Z</time></trkpt><trkpt lat="45.0647252" lon="9.2824934"><ele>249.0</ele><time>2026-03-21T09:42:04.132Z</time></trkpt><trkpt lat="45.0645937" lon="9.2825053"><ele>249.0</ele><time>2026-03-21T09:42:05.132Z</time></trkpt><trkpt lat="45.0644689" lon="9.2824857"><ele>249.0</ele><time>2026-03-21T09:42:06.132Z</time></trkpt><trkpt lat="45.0643608" lon="9.2824259"><ele>249.0</ele><time>2026-03-21T09:42:07.132Z</time></trkpt><trkpt lat="45.0642687" lon="9.2823274"><ele>248.99999999999997</ele><time>2026-03-21T09:42:08.132Z</time></trkpt><trkpt lat="45.0641873" lon="9.2822144"><ele>248.99999999999997</ele><time>2026-03-21T09:42:09.132Z</time></trkpt><trkpt lat="45.0641068" lon="9.2821137"><ele>249.0</ele><time>2026-03-21T09:42:10.131Z</time></trkpt><trkpt lat="45.0640159" lon="9.2820276"><ele>249.0</ele><time>2026-03-21T09:42:11.132Z</time></trkpt><trkpt lat="45.0639152" lon="9.2819577"><ele>252.5</ele><time>2026-03-21T09:42:12.131Z</time></trkpt><trkpt lat="45.0638094" lon="9.281886"><ele>256.0</ele><time>2026-03-21T09:42:13.131Z</time></trkpt><trkpt lat="45.0637048" lon="9.2818092"><ele>259.5</ele><time>2026-03-21T09:42:14.132Z</time></trkpt><trkpt lat="45.063596" lon="9.2817295"><ele>263.0</ele><time>2026-03-21T09:42:15.132Z</time></trkpt><trkpt lat="45.0634905" lon="9.2816576"><ele>263.0</ele><time>2026-03-21T09:42:16.131Z</time></trkpt><trkpt lat="45.0633856" lon="9.2815865"><ele>263.0</ele><time>2026-03-21T09:42:17.132Z</time></trkpt><trkpt lat="45.0632798" lon="9.2815144"><ele>263.0</ele><time>2026-03-21T09:42:18.131Z</time></trkpt><trkpt lat="45.0631752" lon="9.281443"><ele>263.0</ele><time>2026-03-21T09:42:19.131Z</time></trkpt><trkpt lat="45.0630745" lon="9.281375"><ele>262.6</ele><time>2026-03-21T09:42:20.132Z</time></trkpt><trkpt lat="45.0629722" lon="9.2813163"><ele>262.20000000000005</ele><time>2026-03-21T09:42:21.131Z</time></trkpt><trkpt lat="45.062872" lon="9.2812604"><ele>261.8</ele><time>2026-03-21T09:42:22.132Z</time></trkpt><trkpt lat="45.0627707" lon="9.2812184"><ele>261.40000000000003</ele><time>2026-03-21T09:42:23.132Z</time></trkpt><trkpt lat="45.062664" lon="9.2811923"><ele>261.0</ele><time>2026-03-21T09:42:24.132Z</time></trkpt><trkpt lat="45.0625532" lon="9.2811863"><ele>260.75</ele><time>2026-03-21T09:42:25.132Z</time></trkpt><trkpt lat="45.0624402" lon="9.2811934"><ele>260.5</ele><time>2026-03-21T09:42:26.132Z</time></trkpt><trkpt lat="45.0623191" lon="9.2812068"><ele>260.25</ele><time>2026-03-21T09:42:27.132Z</time></trkpt><trkpt lat="45.0622016" lon="9.2812257"><ele>260.0</ele><time>2026-03-21T09:42:28.132Z</time></trkpt><trkpt lat="45.0620874" lon="9.2812498"><ele>260.0</ele><time>2026-03-21T09:42:29.132Z</time></trkpt><trkpt lat="45.0619762" lon="9.2812844"><ele>260.0</ele><time>2026-03-21T09:42:30.131Z</time></trkpt><trkpt lat="45.0618698" lon="9.2813386"><ele>260.0</ele><time>2026-03-21T09:42:31.132Z</time></trkpt><trkpt lat="45.0617798" lon="9.281418"><ele>260.0</ele><time>2026-03-21T09:42:32.132Z</time></trkpt><trkpt lat="45.0616904" lon="9.2815143"><ele>260.0</ele><time>2026-03-21T09:42:33.132Z</time></trkpt><trkpt lat="45.0615966" lon="9.2816159"><ele>260.75</ele><time>2026-03-21T09:42:34.132Z</time></trkpt><trkpt lat="45.0614988" lon="9.281729"><ele>261.5</ele><time>2026-03-21T09:42:35.132Z</time></trkpt><trkpt lat="45.061394" lon="9.2818327"><ele>262.25</ele><time>2026-03-21T09:42:36.132Z</time></trkpt><trkpt lat="45.0612853" lon="9.2819397"><ele>263.0</ele><time>2026-03-21T09:42:37.132Z</time></trkpt><trkpt lat="45.0611786" lon="9.2820373"><ele>263.0</ele><time>2026-03-21T09:42:38.131Z</time></trkpt><trkpt lat="45.0610735" lon="9.2821236"><ele>263.0</ele><time>2026-03-21T09:42:39.131Z</time></trkpt><trkpt lat="45.0609718" lon="9.2821929"><ele>263.0</ele><time>2026-03-21T09:42:40.131Z</time></trkpt><trkpt lat="45.0608701" lon="9.2822333"><ele>263.0</ele><time>2026-03-21T09:42:41.131Z</time></trkpt><trkpt lat="45.060756" lon="9.2822395"><ele>259.25</ele><time>2026-03-21T09:42:42.131Z</time></trkpt><trkpt lat="45.0606333" lon="9.2822177"><ele>255.5</ele><time>2026-03-21T09:42:43.131Z</time></trkpt><trkpt lat="45.0605051" lon="9.2821999"><ele>251.75</ele><time>2026-03-21T09:42:44.131Z</time></trkpt><trkpt lat="45.060376" lon="9.282199"><ele>248.0</ele><time>2026-03-21T09:42:45.131Z</time></trkpt><trkpt lat="45.0602451" lon="9.2822391"><ele>250.0</ele><time>2026-03-21T09:42:46.131Z</time></trkpt><trkpt lat="45.0601109" lon="9.2822944"><ele>252.0</ele><time>2026-03-21T09:42:47.132Z</time></trkpt><trkpt lat="45.059972" lon="9.2823228"><ele>254.0</ele><time>2026-03-21T09:42:48.131Z</time></trkpt><trkpt lat="45.059832" lon="9.2823109"><ele>256.0</ele><time>2026-03-21T09:42:49.132Z</time></trkpt><trkpt lat="45.0596916" lon="9.2822644"><ele>256.0</ele><time>2026-03-21T09:42:50.132Z</time></trkpt><trkpt lat="45.0595563" lon="9.2821934"><ele>256.0</ele><time>2026-03-21T09:42:51.132Z</time></trkpt><trkpt lat="45.0594254" lon="9.2821132"><ele>256.0</ele><time>2026-03-21T09:42:52.131Z</time></trkpt><trkpt lat="45.0592981" lon="9.2820212"><ele>256.0</ele><time>2026-03-21T09:42:53.132Z</time></trkpt><trkpt lat="45.0591721" lon="9.2819032"><ele>255.0</ele><time>2026-03-21T09:42:54.131Z</time></trkpt><trkpt lat="45.0590538" lon="9.2817695"><ele>254.0</ele><time>2026-03-21T09:42:55.132Z</time></trkpt><trkpt lat="45.0589388" lon="9.2816428"><ele>253.0</ele><time>2026-03-21T09:42:56.132Z</time></trkpt><trkpt lat="45.0588208" lon="9.2815239"><ele>252.0</ele><time>2026-03-21T09:42:57.132Z</time></trkpt><trkpt lat="45.0587162" lon="9.2813901"><ele>252.0</ele><time>2026-03-21T09:42:58.131Z</time></trkpt><trkpt lat="45.0586189" lon="9.2812258"><ele>252.0</ele><time>2026-03-21T09:42:59.132Z</time></trkpt><trkpt lat="45.0585296" lon="9.2810464"><ele>252.0</ele><time>2026-03-21T09:43:00.132Z</time></trkpt><trkpt lat="45.0584371" lon="9.2808685"><ele>252.0</ele><time>2026-03-21T09:43:01.131Z</time></trkpt><trkpt lat="45.0583334" lon="9.2806968"><ele>252.0</ele><time>2026-03-21T09:43:02.132Z</time></trkpt><trkpt lat="45.0582239" lon="9.2805268"><ele>252.0</ele><time>2026-03-21T09:43:03.132Z</time></trkpt><trkpt lat="45.0581155" lon="9.2803608"><ele>250.75</ele><time>2026-03-21T09:43:04.132Z</time></trkpt><trkpt lat="45.0580205" lon="9.2802004"><ele>249.5</ele><time>2026-03-21T09:43:05.132Z</time></trkpt><trkpt lat="45.0579345" lon="9.2800518"><ele>248.25</ele><time>2026-03-21T09:43:06.131Z</time></trkpt><trkpt lat="45.0578485" lon="9.2799167"><ele>247.0</ele><time>2026-03-21T09:43:07.132Z</time></trkpt><trkpt lat="45.0577567" lon="9.2798047"><ele>245.75</ele><time>2026-03-21T09:43:08.132Z</time></trkpt><trkpt lat="45.0576441" lon="9.2797223"><ele>244.5</ele><time>2026-03-21T09:43:09.131Z</time></trkpt><trkpt lat="45.0575251" lon="9.2796603"><ele>243.25</ele><time>2026-03-21T09:43:10.132Z</time></trkpt><trkpt lat="45.0574028" lon="9.2796118"><ele>242.0</ele><time>2026-03-21T09:43:11.131Z</time></trkpt><trkpt lat="45.0572747" lon="9.2795762"><ele>242.0</ele><time>2026-03-21T09:43:12.132Z</time></trkpt><trkpt lat="45.0571392" lon="9.2795742"><ele>242.0</ele><time>2026-03-21T09:43:13.131Z</time></trkpt><trkpt lat="45.0570048" lon="9.2795919"><ele>242.0</ele><time>2026-03-21T09:43:14.132Z</time></trkpt><trkpt lat="45.0568851" lon="9.2796062"><ele>242.0</ele><time>2026-03-21T09:43:15.131Z</time></trkpt><trkpt lat="45.0567674" lon="9.2796101"><ele>242.0</ele><time>2026-03-21T09:43:16.132Z</time></trkpt><trkpt lat="45.0566571" lon="9.2796054"><ele>242.0</ele><time>2026-03-21T09:43:17.132Z</time></trkpt><trkpt lat="45.0565475" lon="9.2795922"><ele>242.0</ele><time>2026-03-21T09:43:18.131Z</time></trkpt><trkpt lat="45.0564307" lon="9.2795697"><ele>242.0</ele><time>2026-03-21T09:43:19.132Z</time></trkpt><trkpt lat="45.0563152" lon="9.2795375"><ele>243.0</ele><time>2026-03-21T09:43:20.131Z</time></trkpt><trkpt lat="45.0562003" lon="9.2794969"><ele>244.0</ele><time>2026-03-21T09:43:21.131Z</time></trkpt><trkpt lat="45.0560774" lon="9.27945"><ele>245.0</ele><time>2026-03-21T09:43:22.132Z</time></trkpt><trkpt lat="45.0559526" lon="9.2794068"><ele>246.0</ele><time>2026-03-21T09:43:23.131Z</time></trkpt><trkpt lat="45.0558238" lon="9.279379"><ele>245.5</ele><time>2026-03-21T09:43:24.131Z</time></trkpt><trkpt lat="45.055695" lon="9.2793546"><ele>245.0</ele><time>2026-03-21T09:43:25.132Z</time></trkpt><trkpt lat="45.0555684" lon="9.2793233"><ele>244.5</ele><time>2026-03-21T09:43:26.131Z</time></trkpt><trkpt lat="45.0554486" lon="9.2792958"><ele>244.0</ele><time>2026-03-21T09:43:27.132Z</time></trkpt><trkpt lat="45.0553268" lon="9.2792708"><ele>244.0</ele><time>2026-03-21T09:43:28.132Z</time></trkpt><trkpt lat="45.0552173" lon="9.2792409"><ele>244.0</ele><time>2026-03-21T09:43:29.131Z</time></trkpt><trkpt lat="45.0551067" lon="9.2792212"><ele>244.0</ele><time>2026-03-21T09:43:30.131Z</time></trkpt><trkpt lat="45.0549889" lon="9.2792253"><ele>244.0</ele><time>2026-03-21T09:43:31.132Z</time></trkpt><trkpt lat="45.0548719" lon="9.2792207"><ele>241.5</ele><time>2026-03-21T09:43:32.131Z</time></trkpt><trkpt lat="45.0547483" lon="9.2792255"><ele>239.0</ele><time>2026-03-21T09:43:33.131Z</time></trkpt><trkpt lat="45.054619" lon="9.2792283"><ele>236.5</ele><time>2026-03-21T09:43:34.131Z</time></trkpt><trkpt lat="45.0544797" lon="9.2792326"><ele>234.0</ele><time>2026-03-21T09:43:35.132Z</time></trkpt><trkpt lat="45.0543438" lon="9.2792419"><ele>234.0</ele><time>2026-03-21T09:43:36.132Z</time></trkpt><trkpt lat="45.0542075" lon="9.2792569"><ele>234.0</ele><time>2026-03-21T09:43:37.131Z</time></trkpt><trkpt lat="45.0540738" lon="9.2792754"><ele>234.0</ele><time>2026-03-21T09:43:38.131Z</time></trkpt><trkpt lat="45.053942" lon="9.2792804"><ele>234.0</ele><time>2026-03-21T09:43:39.132Z</time></trkpt><trkpt lat="45.0538109" lon="9.2792894"><ele>233.75</ele><time>2026-03-21T09:43:40.131Z</time></trkpt><trkpt lat="45.0536833" lon="9.2792871"><ele>233.5</ele><time>2026-03-21T09:43:41.131Z</time></trkpt><trkpt lat="45.0535515" lon="9.2792891"><ele>233.25</ele><time>2026-03-21T09:43:42.131Z</time></trkpt><trkpt lat="45.0534205" lon="9.2792935"><ele>233.0</ele><time>2026-03-21T09:43:43.132Z</time></trkpt><trkpt lat="45.0532924" lon="9.2793058"><ele>234.5</ele><time>2026-03-21T09:43:44.131Z</time></trkpt><trkpt lat="45.0531659" lon="9.2793219"><ele>236.0</ele><time>2026-03-21T09:43:45.131Z</time></trkpt><trkpt lat="45.0530404" lon="9.279345"><ele>237.5</ele><time>2026-03-21T09:43:46.132Z</time></trkpt><trkpt lat="45.0529211" lon="9.279396"><ele>239.0</ele><time>2026-03-21T09:43:47.132Z</time></trkpt><trkpt lat="45.0528023" lon="9.2794375"><ele>239.0</ele><time>2026-03-21T09:43:48.132Z</time></trkpt><trkpt lat="45.0526865" lon="9.2794875"><ele>238.99999999999997</ele><time>2026-03-21T09:43:49.132Z</time></trkpt><trkpt lat="45.0525775" lon="9.2795302"><ele>238.99999999999997</ele><time>2026-03-21T09:43:50.132Z</time></trkpt><trkpt lat="45.0524778" lon="9.279571"><ele>239.0</ele><time>2026-03-21T09:43:51.131Z</time></trkpt><trkpt lat="45.0523823" lon="9.279605"><ele>239.0</ele><time>2026-03-21T09:43:52.131Z</time></trkpt><trkpt lat="45.0522849" lon="9.2796206"><ele>239.79999999999998</ele><time>2026-03-21T09:43:53.13Z</time></trkpt><trkpt lat="45.0521904" lon="9.2796122"><ele>240.59999999999997</ele><time>2026-03-21T09:43:54.131Z</time></trkpt><trkpt lat="45.0521034" lon="9.2795787"><ele>241.4</ele><time>2026-03-21T09:43:55.131Z</time></trkpt><trkpt lat="45.0520103" lon="9.2795466"><ele>242.2</ele><time>2026-03-21T09:43:56.131Z</time></trkpt><trkpt lat="45.0519149" lon="9.2795142"><ele>243.0</ele><time>2026-03-21T09:43:57.132Z</time></trkpt><trkpt lat="45.0518232" lon="9.2794783"><ele>243.0</ele><time>2026-03-21T09:43:58.132Z</time></trkpt><trkpt lat="45.051738" lon="9.2794448"><ele>243.0</ele><time>2026-03-21T09:43:59.132Z</time></trkpt><trkpt lat="45.0516571" lon="9.2794209"><ele>243.0</ele><time>2026-03-21T09:44:00.131Z</time></trkpt><trkpt lat="45.0515888" lon="9.2794033"><ele>243.0</ele><time>2026-03-21T09:44:01.132Z</time></trkpt><trkpt lat="45.0514981" lon="9.2793742"><ele>243.0</ele><time>2026-03-21T09:44:03.132Z</time></trkpt><trkpt lat="45.0514242" lon="9.279335"><ele>243.0</ele><time>2026-03-21T09:44:05.132Z</time></trkpt><trkpt lat="45.0513558" lon="9.2792034"><ele>243.0</ele><time>2026-03-21T09:44:07.132Z</time></trkpt><trkpt lat="45.051319" lon="9.2791206"><ele>243.0</ele><time>2026-03-21T09:44:08.131Z</time></trkpt><trkpt lat="45.0512793" lon="9.2790333"><ele>243.0</ele><time>2026-03-21T09:44:09.131Z</time></trkpt><trkpt lat="45.0512266" lon="9.2789324"><ele>243.0</ele><time>2026-03-21T09:44:10.132Z</time></trkpt><trkpt lat="45.0511767" lon="9.2788259"><ele>243.0</ele><time>2026-03-21T09:44:11.132Z</time></trkpt><trkpt lat="45.0511172" lon="9.2787137"><ele>243.0</ele><time>2026-03-21T09:44:12.132Z</time></trkpt><trkpt lat="45.0510592" lon="9.2786004"><ele>243.0</ele><time>2026-03-21T09:44:13.132Z</time></trkpt><trkpt lat="45.0509827" lon="9.2785098"><ele>243.0</ele><time>2026-03-21T09:44:14.132Z</time></trkpt><trkpt lat="45.0508896" lon="9.2784378"><ele>243.0</ele><time>2026-03-21T09:44:15.132Z</time></trkpt><trkpt lat="45.0507849" lon="9.2783832"><ele>243.0</ele><time>2026-03-21T09:44:16.132Z</time></trkpt><trkpt lat="45.0506716" lon="9.2783249"><ele>243.0</ele><time>2026-03-21T09:44:17.131Z</time></trkpt><trkpt lat="45.0505531" lon="9.278263"><ele>241.5</ele><time>2026-03-21T09:44:18.131Z</time></trkpt><trkpt lat="45.0504439" lon="9.2781785"><ele>240.0</ele><time>2026-03-21T09:44:19.132Z</time></trkpt><trkpt lat="45.0503639" lon="9.2780652"><ele>238.5</ele><time>2026-03-21T09:44:20.131Z</time></trkpt><trkpt lat="45.0503069" lon="9.277922"><ele>237.0</ele><time>2026-03-21T09:44:21.132Z</time></trkpt><trkpt lat="45.0502771" lon="9.2777492"><ele>235.75</ele><time>2026-03-21T09:44:22.132Z</time></trkpt><trkpt lat="45.0502663" lon="9.2775548"><ele>234.5</ele><time>2026-03-21T09:44:23.131Z</time></trkpt><trkpt lat="45.0502601" lon="9.2773508"><ele>233.25</ele><time>2026-03-21T09:44:24.132Z</time></trkpt><trkpt lat="45.050259" lon="9.2771499"><ele>232.0</ele><time>2026-03-21T09:44:25.132Z</time></trkpt><trkpt lat="45.0502681" lon="9.2769542"><ele>232.0</ele><time>2026-03-21T09:44:26.132Z</time></trkpt><trkpt lat="45.0502556" lon="9.2767578"><ele>232.0</ele><time>2026-03-21T09:44:27.131Z</time></trkpt><trkpt lat="45.050219" lon="9.2765763"><ele>232.0</ele><time>2026-03-21T09:44:28.131Z</time></trkpt><trkpt lat="45.0501614" lon="9.2764127"><ele>232.0</ele><time>2026-03-21T09:44:29.132Z</time></trkpt><trkpt lat="45.0500942" lon="9.2762644"><ele>234.0</ele><time>2026-03-21T09:44:30.131Z</time></trkpt><trkpt lat="45.050027" lon="9.2761278"><ele>236.0</ele><time>2026-03-21T09:44:31.132Z</time></trkpt><trkpt lat="45.0499613" lon="9.2759859"><ele>238.0</ele><time>2026-03-21T09:44:32.132Z</time></trkpt><trkpt lat="45.0498988" lon="9.2758343"><ele>240.0</ele><time>2026-03-21T09:44:33.132Z</time></trkpt><trkpt lat="45.0498424" lon="9.2756716"><ele>236.0</ele><time>2026-03-21T09:44:34.132Z</time></trkpt><trkpt lat="45.0497928" lon="9.2755005"><ele>232.0</ele><time>2026-03-21T09:44:35.132Z</time></trkpt><trkpt lat="45.0497357" lon="9.2753173"><ele>228.0</ele><time>2026-03-21T09:44:36.132Z</time></trkpt><trkpt lat="45.0496817" lon="9.2751341"><ele>224.0</ele><time>2026-03-21T09:44:37.132Z</time></trkpt><trkpt lat="45.0496299" lon="9.2749554"><ele>224.0</ele><time>2026-03-21T09:44:38.132Z</time></trkpt><trkpt lat="45.049577" lon="9.2747763"><ele>224.0</ele><time>2026-03-21T09:44:39.132Z</time></trkpt><trkpt lat="45.0495276" lon="9.274603"><ele>224.0</ele><time>2026-03-21T09:44:40.132Z</time></trkpt><trkpt lat="45.0494764" lon="9.2744352"><ele>224.0</ele><time>2026-03-21T09:44:41.131Z</time></trkpt><trkpt lat="45.0494255" lon="9.2742821"><ele>224.75</ele><time>2026-03-21T09:44:42.132Z</time></trkpt><trkpt lat="45.0493632" lon="9.2741378"><ele>225.5</ele><time>2026-03-21T09:44:43.132Z</time></trkpt><trkpt lat="45.0492903" lon="9.2740086"><ele>226.25</ele><time>2026-03-21T09:44:44.131Z</time></trkpt><trkpt lat="45.0492144" lon="9.2738822"><ele>227.0</ele><time>2026-03-21T09:44:45.131Z</time></trkpt><trkpt lat="45.0491362" lon="9.273766"><ele>227.8</ele><time>2026-03-21T09:44:46.131Z</time></trkpt><trkpt lat="45.0490533" lon="9.2736605"><ele>228.6</ele><time>2026-03-21T09:44:47.131Z</time></trkpt><trkpt lat="45.0489785" lon="9.273562"><ele>229.40000000000003</ele><time>2026-03-21T09:44:48.132Z</time></trkpt><trkpt lat="45.0489066" lon="9.2734749"><ele>230.20000000000002</ele><time>2026-03-21T09:44:49.132Z</time></trkpt><trkpt lat="45.0488339" lon="9.2733869"><ele>231.0</ele><time>2026-03-21T09:44:50.131Z</time></trkpt><trkpt lat="45.0487568" lon="9.2732903"><ele>231.0</ele><time>2026-03-21T09:44:51.132Z</time></trkpt><trkpt lat="45.0486611" lon="9.2731915"><ele>231.0</ele><time>2026-03-21T09:44:52.132Z</time></trkpt><trkpt lat="45.0485708" lon="9.2730834"><ele>231.0</ele><time>2026-03-21T09:44:53.131Z</time></trkpt><trkpt lat="45.0484634" lon="9.272967"><ele>231.0</ele><time>2026-03-21T09:44:54.132Z</time></trkpt><trkpt lat="45.0483612" lon="9.2728423"><ele>229.75</ele><time>2026-03-21T09:44:55.132Z</time></trkpt><trkpt lat="45.0482675" lon="9.2727129"><ele>228.5</ele><time>2026-03-21T09:44:56.132Z</time></trkpt><trkpt lat="45.0481831" lon="9.2725962"><ele>227.25</ele><time>2026-03-21T09:44:57.131Z</time></trkpt><trkpt lat="45.0481017" lon="9.27247"><ele>226.0</ele><time>2026-03-21T09:44:58.131Z</time></trkpt><trkpt lat="45.0480325" lon="9.272332"><ele>228.75</ele><time>2026-03-21T09:44:59.131Z</time></trkpt><trkpt lat="45.0479773" lon="9.2721748"><ele>231.5</ele><time>2026-03-21T09:45:00.132Z</time></trkpt><trkpt lat="45.0479561" lon="9.2719931"><ele>234.25</ele><time>2026-03-21T09:45:01.132Z</time></trkpt><trkpt lat="45.047948" lon="9.2718048"><ele>237.0</ele><time>2026-03-21T09:45:02.131Z</time></trkpt><trkpt lat="45.0479549" lon="9.2716164"><ele>237.0</ele><time>2026-03-21T09:45:03.132Z</time></trkpt><trkpt lat="45.0479709" lon="9.2714574"><ele>237.0</ele><time>2026-03-21T09:45:04.131Z</time></trkpt><trkpt lat="45.0479754" lon="9.2713226"><ele>237.0</ele><time>2026-03-21T09:45:05.132Z</time></trkpt><trkpt lat="45.0479813" lon="9.2712043"><ele>237.0</ele><time>2026-03-21T09:45:06.132Z</time></trkpt><trkpt lat="45.0479854" lon="9.2710985"><ele>237.0</ele><time>2026-03-21T09:45:07.131Z</time></trkpt><trkpt lat="45.047979" lon="9.2709913"><ele>237.0</ele><time>2026-03-21T09:45:08.131Z</time></trkpt><trkpt lat="45.0479527" lon="9.2708862"><ele>237.5</ele><time>2026-03-21T09:45:09.131Z</time></trkpt><trkpt lat="45.0479121" lon="9.2708028"><ele>238.0</ele><time>2026-03-21T09:45:10.131Z</time></trkpt><trkpt lat="45.0478697" lon="9.2707327"><ele>238.5</ele><time>2026-03-21T09:45:11.131Z</time></trkpt><trkpt lat="45.0477852" lon="9.2706208"><ele>239.0</ele><time>2026-03-21T09:45:13.131Z</time></trkpt><trkpt lat="45.0477308" lon="9.2705727"><ele>239.5</ele><time>2026-03-21T09:45:15.132Z</time></trkpt><trkpt lat="45.0476174" lon="9.2705581"><ele>240.0</ele><time>2026-03-21T09:45:17.132Z</time></trkpt><trkpt lat="45.0475225" lon="9.2705882"><ele>239.6</ele><time>2026-03-21T09:45:18.131Z</time></trkpt><trkpt lat="45.0474318" lon="9.2706039"><ele>239.2</ele><time>2026-03-21T09:45:19.132Z</time></trkpt><trkpt lat="45.0473313" lon="9.2706205"><ele>238.8</ele><time>2026-03-21T09:45:20.131Z</time></trkpt><trkpt lat="45.0472202" lon="9.2706377"><ele>238.4</ele><time>2026-03-21T09:45:21.131Z</time></trkpt><trkpt lat="45.0471071" lon="9.270645"><ele>238.0</ele><time>2026-03-21T09:45:22.131Z</time></trkpt><trkpt lat="45.0469907" lon="9.2706315"><ele>236.0</ele><time>2026-03-21T09:45:23.132Z</time></trkpt><trkpt lat="45.0468682" lon="9.2705877"><ele>234.0</ele><time>2026-03-21T09:45:24.132Z</time></trkpt><trkpt lat="45.0467396" lon="9.2705313"><ele>232.0</ele><time>2026-03-21T09:45:25.132Z</time></trkpt><trkpt lat="45.0466064" lon="9.2704658"><ele>230.0</ele><time>2026-03-21T09:45:26.131Z</time></trkpt><trkpt lat="45.0464725" lon="9.2704004"><ele>230.0</ele><time>2026-03-21T09:45:27.131Z</time></trkpt><trkpt lat="45.0463418" lon="9.2703343"><ele>230.0</ele><time>2026-03-21T09:45:28.131Z</time></trkpt><trkpt lat="45.0462173" lon="9.2702739"><ele>230.0</ele><time>2026-03-21T09:45:29.131Z</time></trkpt><trkpt lat="45.0461009" lon="9.2702197"><ele>230.0</ele><time>2026-03-21T09:45:30.131Z</time></trkpt><trkpt lat="45.0459893" lon="9.27016"><ele>230.0</ele><time>2026-03-21T09:45:31.131Z</time></trkpt><trkpt lat="45.0458831" lon="9.2701102"><ele>230.0</ele><time>2026-03-21T09:45:32.132Z</time></trkpt><trkpt lat="45.045793" lon="9.2700567"><ele>230.0</ele><time>2026-03-21T09:45:33.131Z</time></trkpt><trkpt lat="45.0456992" lon="9.2700076"><ele>230.0</ele><time>2026-03-21T09:45:34.132Z</time></trkpt><trkpt lat="45.0456105" lon="9.2699622"><ele>230.0</ele><time>2026-03-21T09:45:35.132Z</time></trkpt><trkpt lat="45.0455271" lon="9.2699157"><ele>230.83333333333334</ele><time>2026-03-21T09:45:36.131Z</time></trkpt><trkpt lat="45.0454497" lon="9.2698715"><ele>231.66666666666669</ele><time>2026-03-21T09:45:37.132Z</time></trkpt><trkpt lat="45.0453792" lon="9.2698333"><ele>232.5</ele><time>2026-03-21T09:45:38.132Z</time></trkpt><trkpt lat="45.0453113" lon="9.2697986"><ele>233.33333333333331</ele><time>2026-03-21T09:45:39.131Z</time></trkpt><trkpt lat="45.0452493" lon="9.2697722"><ele>234.16666666666666</ele><time>2026-03-21T09:45:40.131Z</time></trkpt><trkpt lat="45.0451353" lon="9.2697257"><ele>235.0</ele><time>2026-03-21T09:45:42.132Z</time></trkpt><trkpt lat="45.0450708" lon="9.2697234"><ele>234.33333333333331</ele><time>2026-03-21T09:45:43.132Z</time></trkpt><trkpt lat="45.0450012" lon="9.2697311"><ele>233.66666666666666</ele><time>2026-03-21T09:45:44.131Z</time></trkpt><trkpt lat="45.044927" lon="9.269747"><ele>233.0</ele><time>2026-03-21T09:45:45.131Z</time></trkpt><trkpt lat="45.0448535" lon="9.2697675"><ele>232.33333333333331</ele><time>2026-03-21T09:45:46.131Z</time></trkpt><trkpt lat="45.0447766" lon="9.2697918"><ele>231.66666666666666</ele><time>2026-03-21T09:45:47.132Z</time></trkpt><trkpt lat="45.044691" lon="9.2698217"><ele>231.0</ele><time>2026-03-21T09:45:48.131Z</time></trkpt><trkpt lat="45.0446023" lon="9.2698541"><ele>231.0</ele><time>2026-03-21T09:45:49.131Z</time></trkpt><trkpt lat="45.0444959" lon="9.2698834"><ele>231.0</ele><time>2026-03-21T09:45:50.131Z</time></trkpt><trkpt lat="45.0443876" lon="9.2699154"><ele>231.0</ele><time>2026-03-21T09:45:51.131Z</time></trkpt><trkpt lat="45.0442686" lon="9.2699342"><ele>231.0</ele><time>2026-03-21T09:45:52.132Z</time></trkpt><trkpt lat="45.0441416" lon="9.2699338"><ele>229.75</ele><time>2026-03-21T09:45:53.132Z</time></trkpt><trkpt lat="45.0440123" lon="9.2699274"><ele>228.5</ele><time>2026-03-21T09:45:54.131Z</time></trkpt><trkpt lat="45.0438764" lon="9.2699178"><ele>227.25</ele><time>2026-03-21T09:45:55.132Z</time></trkpt><trkpt lat="45.0437423" lon="9.2699146"><ele>226.0</ele><time>2026-03-21T09:45:56.132Z</time></trkpt><trkpt lat="45.0436089" lon="9.2699077"><ele>226.0</ele><time>2026-03-21T09:45:57.132Z</time></trkpt><trkpt lat="45.0434871" lon="9.2699076"><ele>226.0</ele><time>2026-03-21T09:45:58.132Z</time></trkpt><trkpt lat="45.0433629" lon="9.2698975"><ele>226.0</ele><time>2026-03-21T09:45:59.132Z</time></trkpt><trkpt lat="45.0432349" lon="9.269884"><ele>226.0</ele><time>2026-03-21T09:46:00.131Z</time></trkpt><trkpt lat="45.0431078" lon="9.2698953"><ele>225.75</ele><time>2026-03-21T09:46:01.132Z</time></trkpt><trkpt lat="45.0429716" lon="9.269926"><ele>225.5</ele><time>2026-03-21T09:46:02.132Z</time></trkpt><trkpt lat="45.0428338" lon="9.2699716"><ele>225.25</ele><time>2026-03-21T09:46:03.131Z</time></trkpt><trkpt lat="45.0427022" lon="9.2700267"><ele>225.0</ele><time>2026-03-21T09:46:04.131Z</time></trkpt><trkpt lat="45.0425745" lon="9.2700797"><ele>223.25</ele><time>2026-03-21T09:46:05.131Z</time></trkpt><trkpt lat="45.0424579" lon="9.2701284"><ele>221.5</ele><time>2026-03-21T09:46:06.131Z</time></trkpt><trkpt lat="45.0423429" lon="9.2701718"><ele>219.75</ele><time>2026-03-21T09:46:07.131Z</time></trkpt><trkpt lat="45.0422302" lon="9.2702099"><ele>218.0</ele><time>2026-03-21T09:46:08.132Z</time></trkpt><trkpt lat="45.0421093" lon="9.270252"><ele>218.0</ele><time>2026-03-21T09:46:09.132Z</time></trkpt><trkpt lat="45.0419869" lon="9.2702809"><ele>218.0</ele><time>2026-03-21T09:46:10.131Z</time></trkpt><trkpt lat="45.0418636" lon="9.2702956"><ele>218.0</ele><time>2026-03-21T09:46:11.132Z</time></trkpt><trkpt lat="45.0417466" lon="9.270303"><ele>218.0</ele><time>2026-03-21T09:46:12.132Z</time></trkpt><trkpt lat="45.0416197" lon="9.2703043"><ele>218.0</ele><time>2026-03-21T09:46:13.132Z</time></trkpt><trkpt lat="45.0414861" lon="9.2702889"><ele>218.0</ele><time>2026-03-21T09:46:14.132Z</time></trkpt><trkpt lat="45.0413437" lon="9.2702535"><ele>218.0</ele><time>2026-03-21T09:46:15.131Z</time></trkpt><trkpt lat="45.0411982" lon="9.2702046"><ele>218.0</ele><time>2026-03-21T09:46:16.132Z</time></trkpt><trkpt lat="45.0410439" lon="9.2701459"><ele>218.0</ele><time>2026-03-21T09:46:17.132Z</time></trkpt><trkpt lat="45.0408875" lon="9.2700833"><ele>218.0</ele><time>2026-03-21T09:46:18.131Z</time></trkpt><trkpt lat="45.0407271" lon="9.2700181"><ele>218.0</ele><time>2026-03-21T09:46:19.131Z</time></trkpt><trkpt lat="45.0405733" lon="9.2699523"><ele>218.0</ele><time>2026-03-21T09:46:20.131Z</time></trkpt><trkpt lat="45.0404256" lon="9.2699058"><ele>218.0</ele><time>2026-03-21T09:46:21.132Z</time></trkpt><trkpt lat="45.0402716" lon="9.2698833"><ele>218.0</ele><time>2026-03-21T09:46:22.132Z</time></trkpt><trkpt lat="45.0401163" lon="9.2698909"><ele>215.33333333333334</ele><time>2026-03-21T09:46:23.131Z</time></trkpt><trkpt lat="45.0399661" lon="9.2699389"><ele>212.66666666666669</ele><time>2026-03-21T09:46:24.132Z</time></trkpt><trkpt lat="45.0398214" lon="9.2700236"><ele>210.0</ele><time>2026-03-21T09:46:25.132Z</time></trkpt><trkpt lat="45.0396705" lon="9.2701261"><ele>210.0</ele><time>2026-03-21T09:46:26.131Z</time></trkpt><trkpt lat="45.0395156" lon="9.2702279"><ele>210.0</ele><time>2026-03-21T09:46:27.132Z</time></trkpt><trkpt lat="45.0393544" lon="9.2703193"><ele>210.0</ele><time>2026-03-21T09:46:28.131Z</time></trkpt><trkpt lat="45.0391879" lon="9.2703897"><ele>212.33333333333331</ele><time>2026-03-21T09:46:29.132Z</time></trkpt><trkpt lat="45.0390193" lon="9.2704266"><ele>214.66666666666666</ele><time>2026-03-21T09:46:30.132Z</time></trkpt><trkpt lat="45.0388504" lon="9.2704454"><ele>217.0</ele><time>2026-03-21T09:46:31.132Z</time></trkpt><trkpt lat="45.0386845" lon="9.2704316"><ele>217.0</ele><time>2026-03-21T09:46:32.132Z</time></trkpt><trkpt lat="45.038517" lon="9.2704003"><ele>217.0</ele><time>2026-03-21T09:46:33.132Z</time></trkpt><trkpt lat="45.0383481" lon="9.2703647"><ele>217.0</ele><time>2026-03-21T09:46:34.132Z</time></trkpt><trkpt lat="45.0381987" lon="9.2703274"><ele>220.0</ele><time>2026-03-21T09:46:35.131Z</time></trkpt><trkpt lat="45.038058" lon="9.2702871"><ele>223.0</ele><time>2026-03-21T09:46:36.131Z</time></trkpt><trkpt lat="45.0379226" lon="9.2702273"><ele>226.0</ele><time>2026-03-21T09:46:37.132Z</time></trkpt><trkpt lat="45.0377963" lon="9.2701369"><ele>229.0</ele><time>2026-03-21T09:46:38.131Z</time></trkpt><trkpt lat="45.0376671" lon="9.2700291"><ele>229.0</ele><time>2026-03-21T09:46:39.131Z</time></trkpt><trkpt lat="45.0375402" lon="9.2699048"><ele>229.0</ele><time>2026-03-21T09:46:40.131Z</time></trkpt><trkpt lat="45.0374196" lon="9.2697601"><ele>229.0</ele><time>2026-03-21T09:46:41.131Z</time></trkpt><trkpt lat="45.0373142" lon="9.2696005"><ele>231.25</ele><time>2026-03-21T09:46:42.131Z</time></trkpt><trkpt lat="45.0372216" lon="9.2694265"><ele>233.5</ele><time>2026-03-21T09:46:43.131Z</time></trkpt><trkpt lat="45.0371398" lon="9.2692804"><ele>235.75</ele><time>2026-03-21T09:46:44.132Z</time></trkpt><trkpt lat="45.0370644" lon="9.269156"><ele>238.0</ele><time>2026-03-21T09:46:45.132Z</time></trkpt><trkpt lat="45.0369803" lon="9.2690497"><ele>238.0</ele><time>2026-03-21T09:46:46.131Z</time></trkpt><trkpt lat="45.0368785" lon="9.2689939"><ele>238.0</ele><time>2026-03-21T09:46:47.131Z</time></trkpt><trkpt lat="45.0367585" lon="9.2689619"><ele>238.0</ele><time>2026-03-21T09:46:48.132Z</time></trkpt><trkpt lat="45.036619" lon="9.2689591"><ele>238.0</ele><time>2026-03-21T09:46:49.131Z</time></trkpt><trkpt lat="45.0364706" lon="9.2689735"><ele>236.33333333333331</ele><time>2026-03-21T09:46:50.132Z</time></trkpt><trkpt lat="45.036316" lon="9.2689711"><ele>234.66666666666669</ele><time>2026-03-21T09:46:51.131Z</time></trkpt><trkpt lat="45.036155" lon="9.268947"><ele>233.0</ele><time>2026-03-21T09:46:52.132Z</time></trkpt><trkpt lat="45.0359898" lon="9.2688912"><ele>233.0</ele><time>2026-03-21T09:46:53.131Z</time></trkpt><trkpt lat="45.035823" lon="9.268813"><ele>233.0</ele><time>2026-03-21T09:46:54.132Z</time></trkpt><trkpt lat="45.0356543" lon="9.2687302"><ele>233.0</ele><time>2026-03-21T09:46:55.132Z</time></trkpt><trkpt lat="45.0355005" lon="9.2686544"><ele>239.0</ele><time>2026-03-21T09:46:56.132Z</time></trkpt><trkpt lat="45.035369" lon="9.2685633"><ele>245.0</ele><time>2026-03-21T09:46:57.131Z</time></trkpt><trkpt lat="45.03526" lon="9.2684442"><ele>251.0</ele><time>2026-03-21T09:46:58.131Z</time></trkpt><trkpt lat="45.0351731" lon="9.2682938"><ele>257.0</ele><time>2026-03-21T09:46:59.132Z</time></trkpt><trkpt lat="45.0350775" lon="9.2681258"><ele>261.33333333333337</ele><time>2026-03-21T09:47:00.131Z</time></trkpt><trkpt lat="45.0349587" lon="9.2679788"><ele>265.6666666666667</ele><time>2026-03-21T09:47:01.131Z</time></trkpt><trkpt lat="45.0348297" lon="9.2678439"><ele>270.0</ele><time>2026-03-21T09:47:02.132Z</time></trkpt><trkpt lat="45.0347022" lon="9.2676759"><ele>270.0</ele><time>2026-03-21T09:47:03.131Z</time></trkpt><trkpt lat="45.0345826" lon="9.2674785"><ele>270.0</ele><time>2026-03-21T09:47:04.131Z</time></trkpt><trkpt lat="45.0344724" lon="9.2672801"><ele>270.0</ele><time>2026-03-21T09:47:05.131Z</time></trkpt><trkpt lat="45.0343756" lon="9.2670929"><ele>270.25</ele><time>2026-03-21T09:47:06.132Z</time></trkpt><trkpt lat="45.0342946" lon="9.2669141"><ele>270.5</ele><time>2026-03-21T09:47:07.132Z</time></trkpt><trkpt lat="45.0342206" lon="9.2667628"><ele>270.75</ele><time>2026-03-21T09:47:08.131Z</time></trkpt><trkpt lat="45.0341274" lon="9.2666438"><ele>271.0</ele><time>2026-03-21T09:47:09.132Z</time></trkpt><trkpt lat="45.0340207" lon="9.2665543"><ele>271.0</ele><time>2026-03-21T09:47:10.132Z</time></trkpt><trkpt lat="45.0338923" lon="9.266488"><ele>271.0</ele><time>2026-03-21T09:47:11.131Z</time></trkpt><trkpt lat="45.0337702" lon="9.2664277"><ele>271.0</ele><time>2026-03-21T09:47:12.131Z</time></trkpt><trkpt lat="45.0336522" lon="9.2663819"><ele>271.0</ele><time>2026-03-21T09:47:13.132Z</time></trkpt><trkpt lat="45.0335464" lon="9.266348"><ele>266.0</ele><time>2026-03-21T09:47:14.131Z</time></trkpt><trkpt lat="45.0334513" lon="9.266332"><ele>261.0</ele><time>2026-03-21T09:47:15.131Z</time></trkpt><trkpt lat="45.0333566" lon="9.2663237"><ele>256.0</ele><time>2026-03-21T09:47:16.132Z</time></trkpt><trkpt lat="45.033268" lon="9.2663332"><ele>251.0</ele><time>2026-03-21T09:47:17.132Z</time></trkpt><trkpt lat="45.0331832" lon="9.2663532"><ele>246.0</ele><time>2026-03-21T09:47:18.132Z</time></trkpt><trkpt lat="45.0331015" lon="9.2664005"><ele>249.20000000000002</ele><time>2026-03-21T09:47:19.132Z</time></trkpt><trkpt lat="45.0330247" lon="9.2664696"><ele>252.40000000000003</ele><time>2026-03-21T09:47:20.132Z</time></trkpt><trkpt lat="45.0329647" lon="9.2665581"><ele>255.6</ele><time>2026-03-21T09:47:21.132Z</time></trkpt><trkpt lat="45.0329172" lon="9.2666756"><ele>258.8</ele><time>2026-03-21T09:47:22.132Z</time></trkpt><trkpt lat="45.0328862" lon="9.2668203"><ele>262.0</ele><time>2026-03-21T09:47:23.131Z</time></trkpt><trkpt lat="45.0328526" lon="9.2669751"><ele>262.0</ele><time>2026-03-21T09:47:24.131Z</time></trkpt><trkpt lat="45.0328147" lon="9.2671311"><ele>262.0</ele><time>2026-03-21T09:47:25.132Z</time></trkpt><trkpt lat="45.0327705" lon="9.2672822"><ele>262.0</ele><time>2026-03-21T09:47:26.132Z</time></trkpt><trkpt lat="45.0327067" lon="9.2674295"><ele>262.0</ele><time>2026-03-21T09:47:27.132Z</time></trkpt><trkpt lat="45.0326139" lon="9.2675604"><ele>264.0</ele><time>2026-03-21T09:47:28.132Z</time></trkpt><trkpt lat="45.0325047" lon="9.2676667"><ele>266.0</ele><time>2026-03-21T09:47:29.131Z</time></trkpt><trkpt lat="45.0323819" lon="9.2677679"><ele>268.0</ele><time>2026-03-21T09:47:30.131Z</time></trkpt><trkpt lat="45.032266" lon="9.2678924"><ele>270.0</ele><time>2026-03-21T09:47:31.132Z</time></trkpt><trkpt lat="45.0321526" lon="9.2680358"><ele>269.3333333333333</ele><time>2026-03-21T09:47:32.132Z</time></trkpt><trkpt lat="45.032032" lon="9.2681798"><ele>268.66666666666663</ele><time>2026-03-21T09:47:33.132Z</time></trkpt><trkpt lat="45.0319136" lon="9.2683154"><ele>268.0</ele><time>2026-03-21T09:47:34.131Z</time></trkpt><trkpt lat="45.0317979" lon="9.2684455"><ele>268.0</ele><time>2026-03-21T09:47:35.132Z</time></trkpt><trkpt lat="45.0316845" lon="9.2685679"><ele>268.0</ele><time>2026-03-21T09:47:36.131Z</time></trkpt><trkpt lat="45.0315764" lon="9.2686799"><ele>268.0</ele><time>2026-03-21T09:47:37.132Z</time></trkpt><trkpt lat="45.0314598" lon="9.2687651"><ele>268.0</ele><time>2026-03-21T09:47:38.131Z</time></trkpt><trkpt lat="45.0313348" lon="9.2688319"><ele>268.0</ele><time>2026-03-21T09:47:39.132Z</time></trkpt><trkpt lat="45.0312093" lon="9.2688798"><ele>268.0</ele><time>2026-03-21T09:47:40.131Z</time></trkpt><trkpt lat="45.031083" lon="9.2689113"><ele>268.0</ele><time>2026-03-21T09:47:41.132Z</time></trkpt><trkpt lat="45.0309638" lon="9.2689483"><ele>268.0</ele><time>2026-03-21T09:47:42.132Z</time></trkpt><trkpt lat="45.0308511" lon="9.2690037"><ele>267.6</ele><time>2026-03-21T09:47:43.131Z</time></trkpt><trkpt lat="45.0307498" lon="9.2690662"><ele>267.20000000000005</ele><time>2026-03-21T09:47:44.131Z</time></trkpt><trkpt lat="45.0306507" lon="9.2691174"><ele>266.8</ele><time>2026-03-21T09:47:45.131Z</time></trkpt><trkpt lat="45.0305488" lon="9.269154"><ele>266.40000000000003</ele><time>2026-03-21T09:47:46.131Z</time></trkpt><trkpt lat="45.0304423" lon="9.269164"><ele>266.0</ele><time>2026-03-21T09:47:47.131Z</time></trkpt><trkpt lat="45.0303394" lon="9.2691463"><ele>266.0</ele><time>2026-03-21T09:47:48.132Z</time></trkpt><trkpt lat="45.0302324" lon="9.2691258"><ele>266.0</ele><time>2026-03-21T09:47:49.132Z</time></trkpt><trkpt lat="45.0301202" lon="9.269091"><ele>266.0</ele><time>2026-03-21T09:47:50.132Z</time></trkpt><trkpt lat="45.0299977" lon="9.2690216"><ele>266.0</ele><time>2026-03-21T09:47:51.131Z</time></trkpt><trkpt lat="45.0298764" lon="9.2689325"><ele>264.6666666666667</ele><time>2026-03-21T09:47:52.132Z</time></trkpt><trkpt lat="45.029751" lon="9.2688245"><ele>263.3333333333333</ele><time>2026-03-21T09:47:53.131Z</time></trkpt><trkpt lat="45.0296201" lon="9.2687017"><ele>262.0</ele><time>2026-03-21T09:47:54.132Z</time></trkpt><trkpt lat="45.0294845" lon="9.2685704"><ele>262.0</ele><time>2026-03-21T09:47:55.132Z</time></trkpt><trkpt lat="45.029354" lon="9.2684505"><ele>262.0</ele><time>2026-03-21T09:47:56.131Z</time></trkpt><trkpt lat="45.0292256" lon="9.2683505"><ele>262.0</ele><time>2026-03-21T09:47:57.132Z</time></trkpt><trkpt lat="45.0291045" lon="9.2682731"><ele>262.0</ele><time>2026-03-21T09:47:58.132Z</time></trkpt><trkpt lat="45.0289886" lon="9.268233"><ele>262.25</ele><time>2026-03-21T09:47:59.132Z</time></trkpt><trkpt lat="45.0288701" lon="9.2682369"><ele>262.5</ele><time>2026-03-21T09:48:00.131Z</time></trkpt><trkpt lat="45.0287471" lon="9.2682715"><ele>262.75</ele><time>2026-03-21T09:48:01.131Z</time></trkpt><trkpt lat="45.0286208" lon="9.2683145"><ele>263.0</ele><time>2026-03-21T09:48:02.132Z</time></trkpt><trkpt lat="45.0284893" lon="9.2683571"><ele>263.0</ele><time>2026-03-21T09:48:03.131Z</time></trkpt><trkpt lat="45.0283636" lon="9.2684041"><ele>263.0</ele><time>2026-03-21T09:48:04.131Z</time></trkpt><trkpt lat="45.0282595" lon="9.2684663"><ele>263.0</ele><time>2026-03-21T09:48:05.132Z</time></trkpt><trkpt lat="45.0281836" lon="9.2685606"><ele>263.0</ele><time>2026-03-21T09:48:06.131Z</time></trkpt><trkpt lat="45.0281436" lon="9.2686823"><ele>263.0</ele><time>2026-03-21T09:48:07.131Z</time></trkpt><trkpt lat="45.0281495" lon="9.2688104"><ele>263.0</ele><time>2026-03-21T09:48:08.131Z</time></trkpt><trkpt lat="45.0282019" lon="9.2689165"><ele>263.0</ele><time>2026-03-21T09:48:09.132Z</time></trkpt><trkpt lat="45.0282845" lon="9.2690074"><ele>263.0</ele><time>2026-03-21T09:48:10.132Z</time></trkpt><trkpt lat="45.0283835" lon="9.2691053"><ele>263.0</ele><time>2026-03-21T09:48:11.132Z</time></trkpt><trkpt lat="45.0284814" lon="9.2692225"><ele>263.0</ele><time>2026-03-21T09:48:12.131Z</time></trkpt><trkpt lat="45.0285605" lon="9.269356"><ele>264.75</ele><time>2026-03-21T09:48:13.131Z</time></trkpt><trkpt lat="45.0286156" lon="9.2695102"><ele>266.5</ele><time>2026-03-21T09:48:14.132Z</time></trkpt><trkpt lat="45.0286603" lon="9.2696782"><ele>268.25</ele><time>2026-03-21T09:48:15.132Z</time></trkpt><trkpt lat="45.0286364" lon="9.2698548"><ele>270.0</ele><time>2026-03-21T09:48:16.131Z</time></trkpt><trkpt lat="45.0286155" lon="9.2700361"><ele>271.75</ele><time>2026-03-21T09:48:17.132Z</time></trkpt><trkpt lat="45.0285767" lon="9.2702177"><ele>273.5</ele><time>2026-03-21T09:48:18.131Z</time></trkpt><trkpt lat="45.0285205" lon="9.2704033"><ele>275.25</ele><time>2026-03-21T09:48:19.132Z</time></trkpt><trkpt lat="45.0284571" lon="9.2705737"><ele>277.0</ele><time>2026-03-21T09:48:20.132Z</time></trkpt><trkpt lat="45.0283908" lon="9.2707332"><ele>277.0</ele><time>2026-03-21T09:48:21.131Z</time></trkpt><trkpt lat="45.0283176" lon="9.2708789"><ele>277.0</ele><time>2026-03-21T09:48:22.132Z</time></trkpt><trkpt lat="45.0282233" lon="9.2710049"><ele>277.0</ele><time>2026-03-21T09:48:23.132Z</time></trkpt><trkpt lat="45.0281123" lon="9.2710953"><ele>277.0</ele><time>2026-03-21T09:48:24.132Z</time></trkpt><trkpt lat="45.0279897" lon="9.2711569"><ele>278.5</ele><time>2026-03-21T09:48:25.132Z</time></trkpt><trkpt lat="45.0278576" lon="9.2711887"><ele>280.0</ele><time>2026-03-21T09:48:26.131Z</time></trkpt><trkpt lat="45.0277293" lon="9.2711905"><ele>281.5</ele><time>2026-03-21T09:48:27.132Z</time></trkpt><trkpt lat="45.0276107" lon="9.2711944"><ele>283.0</ele><time>2026-03-21T09:48:28.132Z</time></trkpt><trkpt lat="45.0275097" lon="9.2712186"><ele>281.5</ele><time>2026-03-21T09:48:29.132Z</time></trkpt><trkpt lat="45.0274125" lon="9.2712472"><ele>280.0</ele><time>2026-03-21T09:48:30.131Z</time></trkpt><trkpt lat="45.0273264" lon="9.2712485"><ele>278.5</ele><time>2026-03-21T09:48:31.131Z</time></trkpt><trkpt lat="45.0272484" lon="9.2712408"><ele>277.0</ele><time>2026-03-21T09:48:32.132Z</time></trkpt><trkpt lat="45.0271802" lon="9.2712506"><ele>275.5</ele><time>2026-03-21T09:48:33.132Z</time></trkpt><trkpt lat="45.0270843" lon="9.2712979"><ele>274.0</ele><time>2026-03-21T09:48:35.131Z</time></trkpt><trkpt lat="45.0270349" lon="9.2713904"><ele>277.2</ele><time>2026-03-21T09:48:37.132Z</time></trkpt><trkpt lat="45.027016" lon="9.2714767"><ele>280.4</ele><time>2026-03-21T09:48:38.132Z</time></trkpt><trkpt lat="45.0269972" lon="9.2716039"><ele>283.6</ele><time>2026-03-21T09:48:39.131Z</time></trkpt><trkpt lat="45.0269583" lon="9.2717537"><ele>286.8</ele><time>2026-03-21T09:48:40.132Z</time></trkpt><trkpt lat="45.0269211" lon="9.2719125"><ele>290.0</ele><time>2026-03-21T09:48:41.131Z</time></trkpt><trkpt lat="45.0268763" lon="9.2720586"><ele>290.0</ele><time>2026-03-21T09:48:42.131Z</time></trkpt><trkpt lat="45.0268205" lon="9.2722002"><ele>290.0</ele><time>2026-03-21T09:48:43.132Z</time></trkpt><trkpt lat="45.0267514" lon="9.272327"><ele>290.0</ele><time>2026-03-21T09:48:44.132Z</time></trkpt><trkpt lat="45.026682" lon="9.2724557"><ele>290.0</ele><time>2026-03-21T09:48:45.131Z</time></trkpt><trkpt lat="45.0266068" lon="9.272578"><ele>289.2</ele><time>2026-03-21T09:48:46.131Z</time></trkpt><trkpt lat="45.0265335" lon="9.2726905"><ele>288.4</ele><time>2026-03-21T09:48:47.131Z</time></trkpt><trkpt lat="45.0264559" lon="9.2727925"><ele>287.6</ele><time>2026-03-21T09:48:48.131Z</time></trkpt><trkpt lat="45.0263863" lon="9.2729012"><ele>286.8</ele><time>2026-03-21T09:48:49.132Z</time></trkpt><trkpt lat="45.0263326" lon="9.2730206"><ele>286.0</ele><time>2026-03-21T09:48:50.131Z</time></trkpt><trkpt lat="45.0262844" lon="9.2731687"><ele>284.25</ele><time>2026-03-21T09:48:51.131Z</time></trkpt><trkpt lat="45.026248" lon="9.2733251"><ele>282.5</ele><time>2026-03-21T09:48:52.131Z</time></trkpt><trkpt lat="45.0262191" lon="9.2734902"><ele>280.75</ele><time>2026-03-21T09:48:53.131Z</time></trkpt><trkpt lat="45.0261868" lon="9.2736557"><ele>279.0</ele><time>2026-03-21T09:48:54.132Z</time></trkpt><trkpt lat="45.0261604" lon="9.2738109"><ele>278.5</ele><time>2026-03-21T09:48:55.132Z</time></trkpt><trkpt lat="45.0261343" lon="9.273963"><ele>278.0</ele><time>2026-03-21T09:48:56.132Z</time></trkpt><trkpt lat="45.0261047" lon="9.2741192"><ele>277.5</ele><time>2026-03-21T09:48:57.131Z</time></trkpt><trkpt lat="45.0260744" lon="9.274275"><ele>277.0</ele><time>2026-03-21T09:48:58.131Z</time></trkpt><trkpt lat="45.0260491" lon="9.2744324"><ele>277.0</ele><time>2026-03-21T09:48:59.131Z</time></trkpt><trkpt lat="45.0260226" lon="9.2745803"><ele>277.0</ele><time>2026-03-21T09:49:00.132Z</time></trkpt><trkpt lat="45.0259982" lon="9.274728"><ele>277.0</ele><time>2026-03-21T09:49:01.132Z</time></trkpt><trkpt lat="45.0259715" lon="9.2748588"><ele>277.0</ele><time>2026-03-21T09:49:02.131Z</time></trkpt><trkpt lat="45.0259525" lon="9.2749719"><ele>277.0</ele><time>2026-03-21T09:49:03.131Z</time></trkpt><trkpt lat="45.0259182" lon="9.275069"><ele>277.5</ele><time>2026-03-21T09:49:04.132Z</time></trkpt><trkpt lat="45.02582" lon="9.2751403"><ele>278.0</ele><time>2026-03-21T09:49:06.131Z</time></trkpt><trkpt lat="45.025747" lon="9.2751774"><ele>278.5</ele><time>2026-03-21T09:49:07.131Z</time></trkpt><trkpt lat="45.0256656" lon="9.275234"><ele>279.0</ele><time>2026-03-21T09:49:08.131Z</time></trkpt><trkpt lat="45.0255876" lon="9.2752792"><ele>279.5</ele><time>2026-03-21T09:49:09.131Z</time></trkpt><trkpt lat="45.0255216" lon="9.2753089"><ele>280.0</ele><time>2026-03-21T09:49:10.132Z</time></trkpt><trkpt lat="45.0254085" lon="9.2752809"><ele>278.0</ele><time>2026-03-21T09:49:12.132Z</time></trkpt><trkpt lat="45.0253654" lon="9.2752151"><ele>276.0</ele><time>2026-03-21T09:49:13.131Z</time></trkpt><trkpt lat="45.0253143" lon="9.2751086"><ele>274.0</ele><time>2026-03-21T09:49:14.131Z</time></trkpt><trkpt lat="45.0252581" lon="9.2749922"><ele>272.0</ele><time>2026-03-21T09:49:15.131Z</time></trkpt><trkpt lat="45.0251828" lon="9.2748894"><ele>270.0</ele><time>2026-03-21T09:49:16.132Z</time></trkpt><trkpt lat="45.0251032" lon="9.2747816"><ele>268.6</ele><time>2026-03-21T09:49:17.132Z</time></trkpt><trkpt lat="45.0250257" lon="9.2746705"><ele>267.2</ele><time>2026-03-21T09:49:18.131Z</time></trkpt><trkpt lat="45.0249604" lon="9.2745501"><ele>265.8</ele><time>2026-03-21T09:49:19.132Z</time></trkpt><trkpt lat="45.0248938" lon="9.2744418"><ele>264.4</ele><time>2026-03-21T09:49:20.131Z</time></trkpt><trkpt lat="45.0248223" lon="9.2743524"><ele>263.0</ele><time>2026-03-21T09:49:21.132Z</time></trkpt><trkpt lat="45.024746" lon="9.2742665"><ele>261.4</ele><time>2026-03-21T09:49:22.132Z</time></trkpt><trkpt lat="45.0246651" lon="9.2741796"><ele>259.8</ele><time>2026-03-21T09:49:23.131Z</time></trkpt><trkpt lat="45.0245869" lon="9.2740834"><ele>258.2</ele><time>2026-03-21T09:49:24.131Z</time></trkpt><trkpt lat="45.0245133" lon="9.2739982"><ele>256.6</ele><time>2026-03-21T09:49:25.132Z</time></trkpt><trkpt lat="45.0244392" lon="9.2739095"><ele>255.0</ele><time>2026-03-21T09:49:26.132Z</time></trkpt><trkpt lat="45.0243641" lon="9.2738341"><ele>253.83333333333334</ele><time>2026-03-21T09:49:27.131Z</time></trkpt><trkpt lat="45.0242896" lon="9.2737633"><ele>252.66666666666669</ele><time>2026-03-21T09:49:28.132Z</time></trkpt><trkpt lat="45.0242213" lon="9.2737068"><ele>251.5</ele><time>2026-03-21T09:49:29.132Z</time></trkpt><trkpt lat="45.0241564" lon="9.2736637"><ele>250.33333333333334</ele><time>2026-03-21T09:49:30.131Z</time></trkpt><trkpt lat="45.0240903" lon="9.2736418"><ele>249.16666666666669</ele><time>2026-03-21T09:49:31.131Z</time></trkpt><trkpt lat="45.0240186" lon="9.2736428"><ele>248.0</ele><time>2026-03-21T09:49:32.132Z</time></trkpt><trkpt lat="45.0239494" lon="9.2736591"><ele>247.4</ele><time>2026-03-21T09:49:33.131Z</time></trkpt><trkpt lat="45.0238843" lon="9.2736697"><ele>246.8</ele><time>2026-03-21T09:49:34.132Z</time></trkpt><trkpt lat="45.0237662" lon="9.2736624"><ele>246.2</ele><time>2026-03-21T09:49:36.131Z</time></trkpt><trkpt lat="45.0236587" lon="9.2736149"><ele>245.6</ele><time>2026-03-21T09:49:38.132Z</time></trkpt><trkpt lat="45.023558" lon="9.2735132"><ele>245.0</ele><time>2026-03-21T09:49:40.132Z</time></trkpt><trkpt lat="45.0234939" lon="9.2734433"><ele>245.00000000000003</ele><time>2026-03-21T09:49:41.131Z</time></trkpt><trkpt lat="45.0234285" lon="9.2733693"><ele>245.0</ele><time>2026-03-21T09:49:42.132Z</time></trkpt><trkpt lat="45.0233625" lon="9.2733038"><ele>245.0</ele><time>2026-03-21T09:49:43.131Z</time></trkpt><trkpt lat="45.0232966" lon="9.2732423"><ele>245.0</ele><time>2026-03-21T09:49:44.132Z</time></trkpt><trkpt lat="45.0232331" lon="9.2731922"><ele>245.00000000000003</ele><time>2026-03-21T09:49:45.132Z</time></trkpt><trkpt lat="45.0231679" lon="9.2731629"><ele>245.0</ele><time>2026-03-21T09:49:46.132Z</time></trkpt><trkpt lat="45.0230455" lon="9.2731461"><ele>245.00000000000003</ele><time>2026-03-21T09:49:48.132Z</time></trkpt><trkpt lat="45.0229824" lon="9.2731424"><ele>245.0</ele><time>2026-03-21T09:49:49.131Z</time></trkpt><trkpt lat="45.0228741" lon="9.273135"><ele>245.0</ele><time>2026-03-21T09:49:51.132Z</time></trkpt><trkpt lat="45.0227877" lon="9.2731343"><ele>245.0</ele><time>2026-03-21T09:49:53.132Z</time></trkpt><trkpt lat="45.0227232" lon="9.2731245"><ele>245.00000000000003</ele><time>2026-03-21T09:49:55.131Z</time></trkpt><trkpt lat="45.0226515" lon="9.2731148"><ele>245.0</ele><time>2026-03-21T09:51:45.131Z</time></trkpt><trkpt lat="45.0225529" lon="9.2731103"><ele>243.33333333333334</ele><time>2026-03-21T09:51:47.131Z</time></trkpt><trkpt lat="45.0224856" lon="9.2731012"><ele>241.66666666666669</ele><time>2026-03-21T09:51:48.131Z</time></trkpt><trkpt lat="45.0224084" lon="9.273096"><ele>240.0</ele><time>2026-03-21T09:51:49.132Z</time></trkpt><trkpt lat="45.0223288" lon="9.2730827"><ele>238.33333333333331</ele><time>2026-03-21T09:51:50.131Z</time></trkpt><trkpt lat="45.0222474" lon="9.2730748"><ele>236.66666666666666</ele><time>2026-03-21T09:51:51.131Z</time></trkpt><trkpt lat="45.0221693" lon="9.2730637"><ele>235.0</ele><time>2026-03-21T09:51:52.131Z</time></trkpt><trkpt lat="45.0220853" lon="9.2730487"><ele>235.0</ele><time>2026-03-21T09:51:53.132Z</time></trkpt><trkpt lat="45.0219932" lon="9.2730424"><ele>235.0</ele><time>2026-03-21T09:51:54.131Z</time></trkpt><trkpt lat="45.0219039" lon="9.2730342"><ele>235.0</ele><time>2026-03-21T09:51:55.131Z</time></trkpt><trkpt lat="45.0218148" lon="9.2730252"><ele>235.0</ele><time>2026-03-21T09:51:56.131Z</time></trkpt><trkpt lat="45.0217163" lon="9.2730165"><ele>235.0</ele><time>2026-03-21T09:51:57.132Z</time></trkpt><trkpt lat="45.0216192" lon="9.273004"><ele>236.2</ele><time>2026-03-21T09:51:58.131Z</time></trkpt><trkpt lat="45.0215113" lon="9.2729927"><ele>237.4</ele><time>2026-03-21T09:51:59.132Z</time></trkpt><trkpt lat="45.0214127" lon="9.2729875"><ele>238.60000000000002</ele><time>2026-03-21T09:52:00.131Z</time></trkpt><trkpt lat="45.0213153" lon="9.2729884"><ele>239.8</ele><time>2026-03-21T09:52:01.131Z</time></trkpt><trkpt lat="45.0212263" lon="9.2729725"><ele>241.0</ele><time>2026-03-21T09:52:02.132Z</time></trkpt><trkpt lat="45.0211485" lon="9.2729499"><ele>241.0</ele><time>2026-03-21T09:52:03.131Z</time></trkpt><trkpt lat="45.0210773" lon="9.2729129"><ele>241.00000000000003</ele><time>2026-03-21T09:52:04.132Z</time></trkpt><trkpt lat="45.0210025" lon="9.2728739"><ele>241.00000000000003</ele><time>2026-03-21T09:52:05.132Z</time></trkpt><trkpt lat="45.0209246" lon="9.2728279"><ele>241.0</ele><time>2026-03-21T09:52:06.131Z</time></trkpt><trkpt lat="45.0208301" lon="9.2727652"><ele>241.0</ele><time>2026-03-21T09:52:07.132Z</time></trkpt><trkpt lat="45.0207188" lon="9.2726943"><ele>242.75</ele><time>2026-03-21T09:52:08.131Z</time></trkpt><trkpt lat="45.0205767" lon="9.2725915"><ele>244.5</ele><time>2026-03-21T09:52:09.132Z</time></trkpt><trkpt lat="45.0204703" lon="9.2725129"><ele>246.25</ele><time>2026-03-21T09:52:10.132Z</time></trkpt><trkpt lat="45.0203692" lon="9.2724347"><ele>248.0</ele><time>2026-03-21T09:52:11.132Z</time></trkpt><trkpt lat="45.0202759" lon="9.2723674"><ele>248.0</ele><time>2026-03-21T09:52:12.131Z</time></trkpt><trkpt lat="45.0201874" lon="9.2723009"><ele>248.0</ele><time>2026-03-21T09:52:13.131Z</time></trkpt><trkpt lat="45.0200976" lon="9.2722298"><ele>248.0</ele><time>2026-03-21T09:52:14.131Z</time></trkpt><trkpt lat="45.0200022" lon="9.2721401"><ele>248.0</ele><time>2026-03-21T09:52:15.131Z</time></trkpt><trkpt lat="45.0198992" lon="9.272047"><ele>248.0</ele><time>2026-03-21T09:52:16.131Z</time></trkpt><trkpt lat="45.0198067" lon="9.2719525"><ele>248.50000000000003</ele><time>2026-03-21T09:52:17.132Z</time></trkpt><trkpt lat="45.0197272" lon="9.2718623"><ele>249.0</ele><time>2026-03-21T09:52:18.132Z</time></trkpt><trkpt lat="45.0196632" lon="9.2717827"><ele>249.5</ele><time>2026-03-21T09:52:19.132Z</time></trkpt><trkpt lat="45.0196063" lon="9.2717172"><ele>250.0</ele><time>2026-03-21T09:52:20.132Z</time></trkpt><trkpt lat="45.0195438" lon="9.2716542"><ele>250.50000000000003</ele><time>2026-03-21T09:52:21.132Z</time></trkpt><trkpt lat="45.0194758" lon="9.2715915"><ele>251.0</ele><time>2026-03-21T09:52:22.131Z</time></trkpt><trkpt lat="45.0193999" lon="9.2714915"><ele>250.33333333333334</ele><time>2026-03-21T09:52:24.132Z</time></trkpt><trkpt lat="45.0193697" lon="9.2713887"><ele>249.66666666666669</ele><time>2026-03-21T09:52:52.132Z</time></trkpt><trkpt lat="45.0193532" lon="9.2712145"><ele>249.0</ele><time>2026-03-21T09:52:54.132Z</time></trkpt><trkpt lat="45.0193488" lon="9.2711029"><ele>248.33333333333331</ele><time>2026-03-21T09:52:55.132Z</time></trkpt><trkpt lat="45.0193437" lon="9.2709871"><ele>247.66666666666666</ele><time>2026-03-21T09:52:56.131Z</time></trkpt><trkpt lat="45.0193405" lon="9.2708726"><ele>247.0</ele><time>2026-03-21T09:52:57.131Z</time></trkpt><trkpt lat="45.0193366" lon="9.2707607"><ele>247.0</ele><time>2026-03-21T09:52:58.131Z</time></trkpt><trkpt lat="45.0193363" lon="9.27065"><ele>247.0</ele><time>2026-03-21T09:52:59.132Z</time></trkpt><trkpt lat="45.019345" lon="9.2705483"><ele>247.0</ele><time>2026-03-21T09:53:00.131Z</time></trkpt><trkpt lat="45.0193681" lon="9.2704611"><ele>247.0</ele><time>2026-03-21T09:53:01.131Z</time></trkpt><trkpt lat="45.0194132" lon="9.2703838"><ele>247.0</ele><time>2026-03-21T09:53:02.132Z</time></trkpt><trkpt lat="45.0194636" lon="9.2703109"><ele>247.0</ele><time>2026-03-21T09:53:03.131Z</time></trkpt><trkpt lat="45.0195135" lon="9.2702369"><ele>247.0</ele><time>2026-03-21T09:53:04.131Z</time></trkpt><trkpt lat="45.0195482" lon="9.2701575"><ele>247.0</ele><time>2026-03-21T09:53:05.131Z</time></trkpt><trkpt lat="45.0195662" lon="9.2700717"><ele>247.0</ele><time>2026-03-21T09:53:06.132Z</time></trkpt><trkpt lat="45.0195826" lon="9.2699067"><ele>247.0</ele><time>2026-03-21T09:53:08.132Z</time></trkpt><trkpt lat="45.0195914" lon="9.2697023"><ele>247.0</ele><time>2026-03-21T09:53:10.131Z</time></trkpt><trkpt lat="45.0195946" lon="9.2695968"><ele>247.0</ele><time>2026-03-21T09:53:11.132Z</time></trkpt><trkpt lat="45.0195967" lon="9.2694966"><ele>247.2</ele><time>2026-03-21T09:53:12.131Z</time></trkpt><trkpt lat="45.019598" lon="9.2694041"><ele>247.39999999999998</ele><time>2026-03-21T09:53:13.131Z</time></trkpt><trkpt lat="45.0195924" lon="9.2693144"><ele>247.60000000000002</ele><time>2026-03-21T09:53:14.131Z</time></trkpt><trkpt lat="45.0195889" lon="9.2691386"><ele>247.8</ele><time>2026-03-21T09:53:16.131Z</time></trkpt><trkpt lat="45.0196118" lon="9.2689742"><ele>248.0</ele><time>2026-03-21T09:53:18.132Z</time></trkpt><trkpt lat="45.0196316" lon="9.2688502"><ele>248.0</ele><time>2026-03-21T09:53:19.132Z</time></trkpt><trkpt lat="45.0196466" lon="9.268707"><ele>248.0</ele><time>2026-03-21T09:53:20.132Z</time></trkpt><trkpt lat="45.0196587" lon="9.2685757"><ele>248.0</ele><time>2026-03-21T09:53:21.132Z</time></trkpt><trkpt lat="45.0196722" lon="9.2684508"><ele>248.0</ele><time>2026-03-21T09:53:22.132Z</time></trkpt><trkpt lat="45.0196809" lon="9.2683368"><ele>248.0</ele><time>2026-03-21T09:53:23.132Z</time></trkpt><trkpt lat="45.0197101" lon="9.2682198"><ele>248.0</ele><time>2026-03-21T09:53:24.131Z</time></trkpt><trkpt lat="45.0197413" lon="9.2681197"><ele>248.0</ele><time>2026-03-21T09:53:25.132Z</time></trkpt><trkpt lat="45.0198112" lon="9.2679672"><ele>248.0</ele><time>2026-03-21T09:53:27.132Z</time></trkpt><trkpt lat="45.0198493" lon="9.2678811"><ele>248.0</ele><time>2026-03-21T09:53:28.132Z</time></trkpt><trkpt lat="45.0199157" lon="9.2677877"><ele>248.0</ele><time>2026-03-21T09:53:29.132Z</time></trkpt><trkpt lat="45.0200229" lon="9.2676717"><ele>247.4</ele><time>2026-03-21T09:53:30.131Z</time></trkpt><trkpt lat="45.0201196" lon="9.2675606"><ele>246.8</ele><time>2026-03-21T09:53:31.132Z</time></trkpt><trkpt lat="45.0202082" lon="9.267456"><ele>246.2</ele><time>2026-03-21T09:53:32.131Z</time></trkpt><trkpt lat="45.0202869" lon="9.2673639"><ele>245.6</ele><time>2026-03-21T09:53:33.132Z</time></trkpt><trkpt lat="45.0203599" lon="9.2672746"><ele>245.0</ele><time>2026-03-21T09:53:34.132Z</time></trkpt><trkpt lat="45.020438" lon="9.2671859"><ele>245.00000000000003</ele><time>2026-03-21T09:53:35.132Z</time></trkpt><trkpt lat="45.0205203" lon="9.2671075"><ele>245.0</ele><time>2026-03-21T09:53:36.132Z</time></trkpt><trkpt lat="45.0205901" lon="9.2670405"><ele>245.0</ele><time>2026-03-21T09:53:37.132Z</time></trkpt><trkpt lat="45.0206534" lon="9.2669755"><ele>245.0</ele><time>2026-03-21T09:53:38.132Z</time></trkpt><trkpt lat="45.0207071" lon="9.2668987"><ele>245.00000000000003</ele><time>2026-03-21T09:53:39.131Z</time></trkpt><trkpt lat="45.0207427" lon="9.2668162"><ele>245.0</ele><time>2026-03-21T09:53:40.132Z</time></trkpt><trkpt lat="45.0207386" lon="9.2666487"><ele>245.0</ele><time>2026-03-21T09:53:42.132Z</time></trkpt><trkpt lat="45.0207011" lon="9.2665423"><ele>245.0</ele><time>2026-03-21T09:53:43.131Z</time></trkpt><trkpt lat="45.0206502" lon="9.2664344"><ele>245.0</ele><time>2026-03-21T09:53:44.132Z</time></trkpt><trkpt lat="45.0206177" lon="9.2663383"><ele>245.0</ele><time>2026-03-21T09:53:45.131Z</time></trkpt><trkpt lat="45.0206024" lon="9.2662393"><ele>245.0</ele><time>2026-03-21T09:53:46.132Z</time></trkpt><trkpt lat="45.0206383" lon="9.2660635"><ele>245.66666666666669</ele><time>2026-03-21T09:53:48.132Z</time></trkpt><trkpt lat="45.0207007" lon="9.265956"><ele>246.33333333333334</ele><time>2026-03-21T09:53:49.131Z</time></trkpt><trkpt lat="45.0207546" lon="9.2658669"><ele>247.0</ele><time>2026-03-21T09:53:50.132Z</time></trkpt><trkpt lat="45.0207905" lon="9.2657849"><ele>247.66666666666669</ele><time>2026-03-21T09:53:51.132Z</time></trkpt><trkpt lat="45.0208215" lon="9.2657067"><ele>248.33333333333334</ele><time>2026-03-21T09:53:52.132Z</time></trkpt><trkpt lat="45.0207926" lon="9.26561"><ele>249.0</ele><time>2026-03-21T09:53:54.131Z</time></trkpt><trkpt lat="45.0207317" lon="9.2655439"><ele>249.0</ele><time>2026-03-21T09:53:55.132Z</time></trkpt><trkpt lat="45.0206525" lon="9.2654219"><ele>248.99999999999997</ele><time>2026-03-21T09:53:57.131Z</time></trkpt><trkpt lat="45.0205684" lon="9.2653062"><ele>248.99999999999997</ele><time>2026-03-21T09:53:59.132Z</time></trkpt><trkpt lat="45.0205147" lon="9.2652319"><ele>249.0</ele><time>2026-03-21T09:54:01.131Z</time></trkpt><trkpt lat="45.0205217" lon="9.2651272"><ele>249.0</ele><time>2026-03-21T09:54:24.132Z</time></trkpt><trkpt lat="45.0206195" lon="9.2650636"><ele>249.0</ele><time>2026-03-21T09:54:26.131Z</time></trkpt><trkpt lat="45.0206785" lon="9.2650253"><ele>248.99999999999997</ele><time>2026-03-21T09:54:27.132Z</time></trkpt><trkpt lat="45.0207352" lon="9.2649817"><ele>249.0</ele><time>2026-03-21T09:54:28.132Z</time></trkpt><trkpt lat="45.0208465" lon="9.2649056"><ele>249.0</ele><time>2026-03-21T09:54:30.131Z</time></trkpt><trkpt lat="45.0209051" lon="9.264865"><ele>248.99999999999997</ele><time>2026-03-21T09:54:31.132Z</time></trkpt><trkpt lat="45.0209639" lon="9.2648238"><ele>249.0</ele><time>2026-03-21T09:54:32.131Z</time></trkpt><trkpt lat="45.0210246" lon="9.264795"><ele>249.0</ele><time>2026-03-21T09:54:33.132Z</time></trkpt><trkpt lat="45.0211436" lon="9.2647455"><ele>246.0</ele><time>2026-03-21T09:54:35.132Z</time></trkpt><trkpt lat="45.021219" lon="9.2646675"><ele>242.99999999999997</ele><time>2026-03-21T09:54:37.132Z</time></trkpt><trkpt lat="45.0212141" lon="9.2645475"><ele>239.99999999999997</ele><time>2026-03-21T09:54:39.131Z</time></trkpt><trkpt lat="45.0211404" lon="9.2644389"><ele>237.0</ele><time>2026-03-21T09:54:41.131Z</time></trkpt><trkpt lat="45.0210413" lon="9.2644087"><ele>234.0</ele><time>2026-03-21T09:54:43.131Z</time></trkpt><trkpt lat="45.0209385" lon="9.2643902"><ele>234.0</ele><time>2026-03-21T09:54:45.131Z</time></trkpt><trkpt lat="45.0208308" lon="9.264378"><ele>233.99999999999997</ele><time>2026-03-21T09:54:47.132Z</time></trkpt><trkpt lat="45.0207184" lon="9.2643586"><ele>233.99999999999997</ele><time>2026-03-21T09:54:49.132Z</time></trkpt><trkpt lat="45.0205964" lon="9.2643239"><ele>234.0</ele><time>2026-03-21T09:54:51.132Z</time></trkpt><trkpt lat="45.0205242" lon="9.2642859"><ele>234.0</ele><time>2026-03-21T09:54:52.132Z</time></trkpt><trkpt lat="45.0204474" lon="9.2642377"><ele>234.16666666666666</ele><time>2026-03-21T09:54:53.132Z</time></trkpt><trkpt lat="45.0203531" lon="9.2641984"><ele>234.33333333333331</ele><time>2026-03-21T09:54:54.131Z</time></trkpt><trkpt lat="45.0202638" lon="9.2641734"><ele>234.5</ele><time>2026-03-21T09:54:55.132Z</time></trkpt><trkpt lat="45.0201842" lon="9.2641356"><ele>234.66666666666666</ele><time>2026-03-21T09:54:56.131Z</time></trkpt><trkpt lat="45.0201153" lon="9.2640624"><ele>234.83333333333331</ele><time>2026-03-21T09:54:57.132Z</time></trkpt><trkpt lat="45.0200747" lon="9.2639563"><ele>235.0</ele><time>2026-03-21T09:54:58.132Z</time></trkpt><trkpt lat="45.0200542" lon="9.2638323"><ele>232.6</ele><time>2026-03-21T09:54:59.132Z</time></trkpt><trkpt lat="45.0200307" lon="9.2637127"><ele>230.2</ele><time>2026-03-21T09:55:00.132Z</time></trkpt><trkpt lat="45.0199937" lon="9.2635987"><ele>227.8</ele><time>2026-03-21T09:55:01.131Z</time></trkpt><trkpt lat="45.0199401" lon="9.2634977"><ele>225.4</ele><time>2026-03-21T09:55:02.131Z</time></trkpt><trkpt lat="45.0198661" lon="9.2634191"><ele>223.0</ele><time>2026-03-21T09:55:03.132Z</time></trkpt><trkpt lat="45.019773" lon="9.2633594"><ele>223.0</ele><time>2026-03-21T09:55:04.131Z</time></trkpt><trkpt lat="45.0196645" lon="9.2633189"><ele>223.0</ele><time>2026-03-21T09:55:05.131Z</time></trkpt><trkpt lat="45.0195421" lon="9.2632713"><ele>223.0</ele><time>2026-03-21T09:55:06.131Z</time></trkpt><trkpt lat="45.0194183" lon="9.2632243"><ele>223.0</ele><time>2026-03-21T09:55:07.132Z</time></trkpt><trkpt lat="45.0192942" lon="9.2631735"><ele>219.25</ele><time>2026-03-21T09:55:08.132Z</time></trkpt><trkpt lat="45.0191777" lon="9.2631026"><ele>215.5</ele><time>2026-03-21T09:55:09.131Z</time></trkpt><trkpt lat="45.0190676" lon="9.2630133"><ele>211.75</ele><time>2026-03-21T09:55:10.132Z</time></trkpt><trkpt lat="45.0189611" lon="9.2629308"><ele>208.0</ele><time>2026-03-21T09:55:11.132Z</time></trkpt><trkpt lat="45.0188679" lon="9.2628679"><ele>208.0</ele><time>2026-03-21T09:55:12.132Z</time></trkpt><trkpt lat="45.018781" lon="9.2627943"><ele>208.0</ele><time>2026-03-21T09:55:13.132Z</time></trkpt><trkpt lat="45.0186976" lon="9.2626764"><ele>208.0</ele><time>2026-03-21T09:55:14.132Z</time></trkpt><trkpt lat="45.0186132" lon="9.2625155"><ele>208.0</ele><time>2026-03-21T09:55:15.131Z</time></trkpt><trkpt lat="45.0185408" lon="9.2623571"><ele>207.5</ele><time>2026-03-21T09:55:16.131Z</time></trkpt><trkpt lat="45.0184787" lon="9.2621956"><ele>207.0</ele><time>2026-03-21T09:55:17.131Z</time></trkpt><trkpt lat="45.0184204" lon="9.2620411"><ele>206.5</ele><time>2026-03-21T09:55:18.132Z</time></trkpt><trkpt lat="45.0183571" lon="9.2619127"><ele>206.0</ele><time>2026-03-21T09:55:19.132Z</time></trkpt><trkpt lat="45.0182984" lon="9.2617999"><ele>206.00000000000003</ele><time>2026-03-21T09:55:20.131Z</time></trkpt><trkpt lat="45.0182438" lon="9.261708"><ele>206.0</ele><time>2026-03-21T09:55:21.131Z</time></trkpt><trkpt lat="45.0181932" lon="9.2616255"><ele>206.0</ele><time>2026-03-21T09:55:22.131Z</time></trkpt><trkpt lat="45.018142" lon="9.261547"><ele>206.0</ele><time>2026-03-21T09:55:23.132Z</time></trkpt><trkpt lat="45.0180927" lon="9.2614696"><ele>206.00000000000003</ele><time>2026-03-21T09:55:24.132Z</time></trkpt><trkpt lat="45.0180391" lon="9.2613937"><ele>206.0</ele><time>2026-03-21T09:55:25.132Z</time></trkpt><trkpt lat="45.017966" lon="9.2613056"><ele>203.25</ele><time>2026-03-21T09:55:26.131Z</time></trkpt><trkpt lat="45.0178898" lon="9.2611939"><ele>200.5</ele><time>2026-03-21T09:55:27.132Z</time></trkpt><trkpt lat="45.0178009" lon="9.2610779"><ele>197.75</ele><time>2026-03-21T09:55:28.131Z</time></trkpt><trkpt lat="45.0177143" lon="9.2609564"><ele>195.0</ele><time>2026-03-21T09:55:29.132Z</time></trkpt><trkpt lat="45.0176344" lon="9.2608242"><ele>195.0</ele><time>2026-03-21T09:55:30.131Z</time></trkpt><trkpt lat="45.0175569" lon="9.2607036"><ele>195.0</ele><time>2026-03-21T09:55:31.132Z</time></trkpt><trkpt lat="45.0174812" lon="9.2606125"><ele>195.0</ele><time>2026-03-21T09:55:32.131Z</time></trkpt><trkpt lat="45.0173936" lon="9.2605562"><ele>195.0</ele><time>2026-03-21T09:55:33.131Z</time></trkpt><trkpt lat="45.01729" lon="9.2605258"><ele>195.0</ele><time>2026-03-21T09:55:34.132Z</time></trkpt><trkpt lat="45.0171777" lon="9.2605013"><ele>191.5</ele><time>2026-03-21T09:55:35.132Z</time></trkpt><trkpt lat="45.0170574" lon="9.26048"><ele>188.0</ele><time>2026-03-21T09:55:36.132Z</time></trkpt><trkpt lat="45.0169263" lon="9.2604513"><ele>184.5</ele><time>2026-03-21T09:55:37.132Z</time></trkpt><trkpt lat="45.0168018" lon="9.2604074"><ele>181.0</ele><time>2026-03-21T09:55:38.131Z</time></trkpt><trkpt lat="45.0166714" lon="9.2603528"><ele>183.0</ele><time>2026-03-21T09:55:39.132Z</time></trkpt><trkpt lat="45.0165439" lon="9.2603164"><ele>185.0</ele><time>2026-03-21T09:55:40.131Z</time></trkpt><trkpt lat="45.0164216" lon="9.2603004"><ele>187.0</ele><time>2026-03-21T09:55:41.132Z</time></trkpt><trkpt lat="45.0162985" lon="9.2602828"><ele>189.0</ele><time>2026-03-21T09:55:42.132Z</time></trkpt><trkpt lat="45.0161813" lon="9.2602382"><ele>189.0</ele><time>2026-03-21T09:55:43.132Z</time></trkpt><trkpt lat="45.0160778" lon="9.2601641"><ele>189.0</ele><time>2026-03-21T09:55:44.132Z</time></trkpt><trkpt lat="45.0159865" lon="9.2600628"><ele>189.0</ele><time>2026-03-21T09:55:45.132Z</time></trkpt><trkpt lat="45.0158907" lon="9.2599503"><ele>189.0</ele><time>2026-03-21T09:55:46.132Z</time></trkpt><trkpt lat="45.0158008" lon="9.2598278"><ele>188.39999999999998</ele><time>2026-03-21T09:55:47.131Z</time></trkpt><trkpt lat="45.0157177" lon="9.2597062"><ele>187.8</ele><time>2026-03-21T09:55:48.132Z</time></trkpt><trkpt lat="45.0156463" lon="9.2595944"><ele>187.2</ele><time>2026-03-21T09:55:49.131Z</time></trkpt><trkpt lat="45.0155722" lon="9.2595076"><ele>186.60000000000002</ele><time>2026-03-21T09:55:50.132Z</time></trkpt><trkpt lat="45.0154856" lon="9.2594274"><ele>186.0</ele><time>2026-03-21T09:55:51.132Z</time></trkpt><trkpt lat="45.0153881" lon="9.259364"><ele>186.0</ele><time>2026-03-21T09:55:52.131Z</time></trkpt><trkpt lat="45.0152813" lon="9.2593214"><ele>186.0</ele><time>2026-03-21T09:55:53.132Z</time></trkpt><trkpt lat="45.0151696" lon="9.2592904"><ele>186.0</ele><time>2026-03-21T09:55:54.131Z</time></trkpt><trkpt lat="45.0150605" lon="9.2592698"><ele>186.0</ele><time>2026-03-21T09:55:55.132Z</time></trkpt><trkpt lat="45.0149501" lon="9.2592471"><ele>186.0</ele><time>2026-03-21T09:55:56.131Z</time></trkpt><trkpt lat="45.0148411" lon="9.2592226"><ele>186.16666666666666</ele><time>2026-03-21T09:55:57.131Z</time></trkpt><trkpt lat="45.0147368" lon="9.2591975"><ele>186.33333333333334</ele><time>2026-03-21T09:55:58.131Z</time></trkpt><trkpt lat="45.0146435" lon="9.2591748"><ele>186.5</ele><time>2026-03-21T09:55:59.131Z</time></trkpt><trkpt lat="45.0145676" lon="9.2591596"><ele>186.66666666666669</ele><time>2026-03-21T09:56:00.131Z</time></trkpt><trkpt lat="45.014478" lon="9.2591454"><ele>186.83333333333334</ele><time>2026-03-21T09:56:02.132Z</time></trkpt><trkpt lat="45.0144047" lon="9.2590976"><ele>187.0</ele><time>2026-03-21T09:56:05.132Z</time></trkpt><trkpt lat="45.0143059" lon="9.258989"><ele>185.39999999999998</ele><time>2026-03-21T09:56:07.132Z</time></trkpt><trkpt lat="45.0142327" lon="9.258924"><ele>183.79999999999998</ele><time>2026-03-21T09:56:08.131Z</time></trkpt><trkpt lat="45.0141449" lon="9.2588638"><ele>182.2</ele><time>2026-03-21T09:56:09.131Z</time></trkpt><trkpt lat="45.0140447" lon="9.258817"><ele>180.6</ele><time>2026-03-21T09:56:10.131Z</time></trkpt><trkpt lat="45.0139371" lon="9.2587978"><ele>179.0</ele><time>2026-03-21T09:56:11.131Z</time></trkpt><trkpt lat="45.0138267" lon="9.258803"><ele>178.33333333333331</ele><time>2026-03-21T09:56:12.131Z</time></trkpt><trkpt lat="45.0137224" lon="9.2588164"><ele>177.66666666666666</ele><time>2026-03-21T09:56:13.131Z</time></trkpt><trkpt lat="45.0136256" lon="9.2588014"><ele>177.0</ele><time>2026-03-21T09:56:14.132Z</time></trkpt><trkpt lat="45.0135514" lon="9.2587493"><ele>176.33333333333334</ele><time>2026-03-21T09:56:15.132Z</time></trkpt><trkpt lat="45.0135182" lon="9.2586675"><ele>175.66666666666669</ele><time>2026-03-21T09:56:16.131Z</time></trkpt><trkpt lat="45.0135312" lon="9.2585709"><ele>175.0</ele><time>2026-03-21T09:56:17.131Z</time></trkpt><trkpt lat="45.0135622" lon="9.2584498"><ele>175.0</ele><time>2026-03-21T09:56:18.132Z</time></trkpt><trkpt lat="45.0135965" lon="9.2582775"><ele>175.0</ele><time>2026-03-21T09:56:19.131Z</time></trkpt><trkpt lat="45.0136067" lon="9.2580917"><ele>175.0</ele><time>2026-03-21T09:56:20.132Z</time></trkpt><trkpt lat="45.0136078" lon="9.2579103"><ele>175.0</ele><time>2026-03-21T09:56:21.131Z</time></trkpt><trkpt lat="45.0136084" lon="9.2577306"><ele>173.6</ele><time>2026-03-21T09:56:22.131Z</time></trkpt><trkpt lat="45.0136079" lon="9.257568"><ele>172.2</ele><time>2026-03-21T09:56:23.131Z</time></trkpt><trkpt lat="45.0136245" lon="9.2574252"><ele>170.8</ele><time>2026-03-21T09:56:24.132Z</time></trkpt><trkpt lat="45.0136707" lon="9.2573216"><ele>169.4</ele><time>2026-03-21T09:56:25.131Z</time></trkpt><trkpt lat="45.0137484" lon="9.257266"><ele>168.0</ele><time>2026-03-21T09:56:26.132Z</time></trkpt><trkpt lat="45.0138557" lon="9.2572377"><ele>166.0</ele><time>2026-03-21T09:56:27.132Z</time></trkpt><trkpt lat="45.0139875" lon="9.2572075"><ele>164.0</ele><time>2026-03-21T09:56:28.131Z</time></trkpt><trkpt lat="45.0141106" lon="9.2571715"><ele>162.0</ele><time>2026-03-21T09:56:29.131Z</time></trkpt><trkpt lat="45.0142258" lon="9.2571203"><ele>160.0</ele><time>2026-03-21T09:56:30.132Z</time></trkpt><trkpt lat="45.0143247" lon="9.2570467"><ele>160.0</ele><time>2026-03-21T09:56:31.132Z</time></trkpt><trkpt lat="45.0143968" lon="9.2569394"><ele>160.0</ele><time>2026-03-21T09:56:32.132Z</time></trkpt><trkpt lat="45.0144326" lon="9.2567935"><ele>160.0</ele><time>2026-03-21T09:56:33.131Z</time></trkpt><trkpt lat="45.014445" lon="9.256622"><ele>160.0</ele><time>2026-03-21T09:56:34.132Z</time></trkpt><trkpt lat="45.014471" lon="9.2564488"><ele>158.4</ele><time>2026-03-21T09:56:35.131Z</time></trkpt><trkpt lat="45.0145263" lon="9.2563038"><ele>156.8</ele><time>2026-03-21T09:56:36.132Z</time></trkpt><trkpt lat="45.0146016" lon="9.2561971"><ele>155.2</ele><time>2026-03-21T09:56:37.132Z</time></trkpt><trkpt lat="45.0147003" lon="9.2561336"><ele>153.6</ele><time>2026-03-21T09:56:38.132Z</time></trkpt><trkpt lat="45.0148051" lon="9.2561118"><ele>152.0</ele><time>2026-03-21T09:56:39.132Z</time></trkpt><trkpt lat="45.0149097" lon="9.2561158"><ele>152.0</ele><time>2026-03-21T09:56:40.132Z</time></trkpt><trkpt lat="45.0149975" lon="9.2561045"><ele>152.0</ele><time>2026-03-21T09:56:41.132Z</time></trkpt><trkpt lat="45.0150657" lon="9.2560458"><ele>152.0</ele><time>2026-03-21T09:56:42.131Z</time></trkpt><trkpt lat="45.0151052" lon="9.2559447"><ele>152.0</ele><time>2026-03-21T09:56:43.131Z</time></trkpt><trkpt lat="45.0151044" lon="9.255829"><ele>152.0</ele><time>2026-03-21T09:56:44.131Z</time></trkpt><trkpt lat="45.0150619" lon="9.2557225"><ele>152.0</ele><time>2026-03-21T09:56:45.131Z</time></trkpt><trkpt lat="45.0149783" lon="9.2556259"><ele>150.2</ele><time>2026-03-21T09:56:46.131Z</time></trkpt><trkpt lat="45.0148841" lon="9.2555367"><ele>148.39999999999998</ele><time>2026-03-21T09:56:47.131Z</time></trkpt><trkpt lat="45.0147872" lon="9.2554586"><ele>146.60000000000002</ele><time>2026-03-21T09:56:48.131Z</time></trkpt><trkpt lat="45.0146828" lon="9.2554322"><ele>144.8</ele><time>2026-03-21T09:56:49.132Z</time></trkpt><trkpt lat="45.014588" lon="9.2554436"><ele>143.0</ele><time>2026-03-21T09:56:50.132Z</time></trkpt><trkpt lat="45.014502" lon="9.2554142"><ele>143.0</ele><time>2026-03-21T09:56:51.132Z</time></trkpt><trkpt lat="45.0144464" lon="9.2553409"><ele>143.0</ele><time>2026-03-21T09:56:52.132Z</time></trkpt><trkpt lat="45.0144199" lon="9.2552185"><ele>143.0</ele><time>2026-03-21T09:56:53.132Z</time></trkpt><trkpt lat="45.014421" lon="9.2550717"><ele>143.0</ele><time>2026-03-21T09:56:54.132Z</time></trkpt><trkpt lat="45.0144452" lon="9.2549257"><ele>143.0</ele><time>2026-03-21T09:56:55.131Z</time></trkpt><trkpt lat="45.0145023" lon="9.2548087"><ele>141.0</ele><time>2026-03-21T09:56:56.131Z</time></trkpt><trkpt lat="45.0145837" lon="9.2547381"><ele>139.0</ele><time>2026-03-21T09:56:57.131Z</time></trkpt><trkpt lat="45.0146695" lon="9.2546789"><ele>137.0</ele><time>2026-03-21T09:56:58.132Z</time></trkpt><trkpt lat="45.0147393" lon="9.254581"><ele>135.0</ele><time>2026-03-21T09:56:59.131Z</time></trkpt><trkpt lat="45.0147644" lon="9.2544599"><ele>133.0</ele><time>2026-03-21T09:57:00.132Z</time></trkpt><trkpt lat="45.0147411" lon="9.2543405"><ele>133.0</ele><time>2026-03-21T09:57:01.132Z</time></trkpt><trkpt lat="45.0146705" lon="9.2542477"><ele>133.0</ele><time>2026-03-21T09:57:02.132Z</time></trkpt><trkpt lat="45.0145611" lon="9.2541961"><ele>133.0</ele><time>2026-03-21T09:57:03.131Z</time></trkpt><trkpt lat="45.0144227" lon="9.2541702"><ele>133.0</ele><time>2026-03-21T09:57:04.132Z</time></trkpt><trkpt lat="45.0142911" lon="9.2541365"><ele>133.0</ele><time>2026-03-21T09:57:05.131Z</time></trkpt><trkpt lat="45.0141687" lon="9.2540892"><ele>133.0</ele><time>2026-03-21T09:57:06.131Z</time></trkpt><trkpt lat="45.014055" lon="9.2540309"><ele>133.0</ele><time>2026-03-21T09:57:07.132Z</time></trkpt><trkpt lat="45.0139559" lon="9.2539622"><ele>133.0</ele><time>2026-03-21T09:57:08.131Z</time></trkpt><trkpt lat="45.013878" lon="9.2538604"><ele>132.5</ele><time>2026-03-21T09:57:09.132Z</time></trkpt><trkpt lat="45.0138319" lon="9.253704"><ele>132.0</ele><time>2026-03-21T09:57:10.131Z</time></trkpt><trkpt lat="45.0137998" lon="9.2535183"><ele>131.5</ele><time>2026-03-21T09:57:11.131Z</time></trkpt><trkpt lat="45.0137709" lon="9.2533377"><ele>131.0</ele><time>2026-03-21T09:57:12.132Z</time></trkpt><trkpt lat="45.0137443" lon="9.2531658"><ele>131.0</ele><time>2026-03-21T09:57:13.132Z</time></trkpt><trkpt lat="45.0137175" lon="9.2530057"><ele>131.0</ele><time>2026-03-21T09:57:14.132Z</time></trkpt><trkpt lat="45.0136947" lon="9.2528591"><ele>131.0</ele><time>2026-03-21T09:57:15.131Z</time></trkpt><trkpt lat="45.0136707" lon="9.2527156"><ele>131.0</ele><time>2026-03-21T09:57:16.132Z</time></trkpt><trkpt lat="45.0136493" lon="9.2525784"><ele>131.0</ele><time>2026-03-21T09:57:17.131Z</time></trkpt><trkpt lat="45.0136304" lon="9.252443"><ele>131.0</ele><time>2026-03-21T09:57:18.132Z</time></trkpt><trkpt lat="45.0136101" lon="9.2523171"><ele>131.0</ele><time>2026-03-21T09:57:19.131Z</time></trkpt><trkpt lat="45.0135902" lon="9.2521958"><ele>131.0</ele><time>2026-03-21T09:57:20.132Z</time></trkpt><trkpt lat="45.0135726" lon="9.2520879"><ele>131.0</ele><time>2026-03-21T09:57:21.132Z</time></trkpt><trkpt lat="45.0135602" lon="9.2519897"><ele>131.0</ele><time>2026-03-21T09:57:22.131Z</time></trkpt><trkpt lat="45.0135483" lon="9.251849"><ele>131.0</ele><time>2026-03-21T09:57:24.131Z</time></trkpt><trkpt lat="45.0135271" lon="9.2517387"><ele>131.4</ele><time>2026-03-21T09:57:51.132Z</time></trkpt><trkpt lat="45.0134374" lon="9.2517113"><ele>131.8</ele><time>2026-03-21T09:57:53.132Z</time></trkpt><trkpt lat="45.0133247" lon="9.2517139"><ele>132.20000000000002</ele><time>2026-03-21T09:57:55.131Z</time></trkpt><trkpt lat="45.0132447" lon="9.2517085"><ele>132.6</ele><time>2026-03-21T09:57:56.132Z</time></trkpt><trkpt lat="45.0131362" lon="9.2517077"><ele>133.0</ele><time>2026-03-21T09:57:57.132Z</time></trkpt><trkpt lat="45.013026" lon="9.2517083"><ele>133.20000000000002</ele><time>2026-03-21T09:57:58.131Z</time></trkpt><trkpt lat="45.0129251" lon="9.251707"><ele>133.4</ele><time>2026-03-21T09:57:59.132Z</time></trkpt><trkpt lat="45.0128157" lon="9.2517164"><ele>133.60000000000002</ele><time>2026-03-21T09:58:00.131Z</time></trkpt><trkpt lat="45.0127033" lon="9.2517265"><ele>133.8</ele><time>2026-03-21T09:58:01.131Z</time></trkpt><trkpt lat="45.0125913" lon="9.251746"><ele>134.0</ele><time>2026-03-21T09:58:02.132Z</time></trkpt><trkpt lat="45.0124784" lon="9.2517693"><ele>134.5</ele><time>2026-03-21T09:58:03.131Z</time></trkpt><trkpt lat="45.0123615" lon="9.2518012"><ele>135.0</ele><time>2026-03-21T09:58:04.131Z</time></trkpt><trkpt lat="45.0122449" lon="9.2518404"><ele>135.5</ele><time>2026-03-21T09:58:05.132Z</time></trkpt><trkpt lat="45.0121282" lon="9.2518857"><ele>136.0</ele><time>2026-03-21T09:58:06.132Z</time></trkpt><trkpt lat="45.0120107" lon="9.2519345"><ele>136.0</ele><time>2026-03-21T09:58:07.131Z</time></trkpt><trkpt lat="45.0118962" lon="9.2519884"><ele>136.0</ele><time>2026-03-21T09:58:08.131Z</time></trkpt><trkpt lat="45.0117814" lon="9.2520501"><ele>136.0</ele><time>2026-03-21T09:58:09.132Z</time></trkpt><trkpt lat="45.0116698" lon="9.2521176"><ele>136.0</ele><time>2026-03-21T09:58:10.132Z</time></trkpt><trkpt lat="45.0115583" lon="9.2521925"><ele>136.16666666666669</ele><time>2026-03-21T09:58:11.132Z</time></trkpt><trkpt lat="45.0114629" lon="9.2522662"><ele>136.33333333333334</ele><time>2026-03-21T09:58:12.131Z</time></trkpt><trkpt lat="45.0114023" lon="9.2523056"><ele>136.5</ele><time>2026-03-21T09:58:13.131Z</time></trkpt><trkpt lat="45.0113334" lon="9.2523012"><ele>136.66666666666666</ele><time>2026-03-21T09:58:15.132Z</time></trkpt><trkpt lat="45.0112904" lon="9.2522246"><ele>136.83333333333331</ele><time>2026-03-21T09:58:17.132Z</time></trkpt><trkpt lat="45.0112352" lon="9.2521283"><ele>137.0</ele><time>2026-03-21T09:58:19.131Z</time></trkpt><trkpt lat="45.0111373" lon="9.2520552"><ele>137.0</ele><time>2026-03-21T09:58:21.131Z</time></trkpt><trkpt lat="45.0110719" lon="9.2520585"><ele>137.0</ele><time>2026-03-21T09:58:22.131Z</time></trkpt><trkpt lat="45.0110007" lon="9.2520873"><ele>137.0</ele><time>2026-03-21T09:58:23.131Z</time></trkpt><trkpt lat="45.0109087" lon="9.2521337"><ele>137.0</ele><time>2026-03-21T09:58:24.132Z</time></trkpt><trkpt lat="45.0108042" lon="9.2521847"><ele>137.0</ele><time>2026-03-21T09:58:25.132Z</time></trkpt><trkpt lat="45.0106833" lon="9.2522425"><ele>138.0</ele><time>2026-03-21T09:58:26.131Z</time></trkpt><trkpt lat="45.0105553" lon="9.2523078"><ele>139.0</ele><time>2026-03-21T09:58:27.132Z</time></trkpt><trkpt lat="45.0104196" lon="9.2523724"><ele>140.0</ele><time>2026-03-21T09:58:28.131Z</time></trkpt><trkpt lat="45.0102812" lon="9.2524374"><ele>141.0</ele><time>2026-03-21T09:58:29.131Z</time></trkpt><trkpt lat="45.010134" lon="9.2525017"><ele>144.66666666666666</ele><time>2026-03-21T09:58:30.132Z</time></trkpt><trkpt lat="45.009987" lon="9.2525729"><ele>148.33333333333331</ele><time>2026-03-21T09:58:31.132Z</time></trkpt><trkpt lat="45.0098365" lon="9.2526405"><ele>152.0</ele><time>2026-03-21T09:58:32.131Z</time></trkpt><trkpt lat="45.0096871" lon="9.2527106"><ele>152.0</ele><time>2026-03-21T09:58:33.131Z</time></trkpt><trkpt lat="45.0095362" lon="9.2527791"><ele>152.0</ele><time>2026-03-21T09:58:34.131Z</time></trkpt><trkpt lat="45.0093854" lon="9.2528471"><ele>152.0</ele><time>2026-03-21T09:58:35.132Z</time></trkpt><trkpt lat="45.00924" lon="9.252919"><ele>156.0</ele><time>2026-03-21T09:58:36.132Z</time></trkpt><trkpt lat="45.0090886" lon="9.2529882"><ele>160.0</ele><time>2026-03-21T09:58:37.132Z</time></trkpt><trkpt lat="45.0089404" lon="9.253059"><ele>164.0</ele><time>2026-03-21T09:58:38.131Z</time></trkpt><trkpt lat="45.0088057" lon="9.2531148"><ele>164.0</ele><time>2026-03-21T09:58:39.132Z</time></trkpt><trkpt lat="45.0086837" lon="9.253165"><ele>164.0</ele><time>2026-03-21T09:58:40.132Z</time></trkpt><trkpt lat="45.0085733" lon="9.253185"><ele>164.0</ele><time>2026-03-21T09:58:41.132Z</time></trkpt><trkpt lat="45.0084821" lon="9.2531542"><ele>164.0</ele><time>2026-03-21T09:58:42.132Z</time></trkpt><trkpt lat="45.0084133" lon="9.2530795"><ele>164.0</ele><time>2026-03-21T09:58:43.131Z</time></trkpt><trkpt lat="45.0083758" lon="9.2529646"><ele>164.0</ele><time>2026-03-21T09:58:44.132Z</time></trkpt><trkpt lat="45.0083665" lon="9.2528085"><ele>164.0</ele><time>2026-03-21T09:58:45.132Z</time></trkpt><trkpt lat="45.00838" lon="9.2526107"><ele>164.0</ele><time>2026-03-21T09:58:46.131Z</time></trkpt><trkpt lat="45.0083986" lon="9.2523973"><ele>164.0</ele><time>2026-03-21T09:58:47.132Z</time></trkpt><trkpt lat="45.0084183" lon="9.2521863"><ele>165.25</ele><time>2026-03-21T09:58:48.132Z</time></trkpt><trkpt lat="45.0084364" lon="9.2519744"><ele>166.5</ele><time>2026-03-21T09:58:49.132Z</time></trkpt><trkpt lat="45.0084614" lon="9.2517807"><ele>167.75</ele><time>2026-03-21T09:58:50.132Z</time></trkpt><trkpt lat="45.0084836" lon="9.2515939"><ele>169.0</ele><time>2026-03-21T09:58:51.132Z</time></trkpt><trkpt lat="45.0084978" lon="9.2514239"><ele>169.83333333333334</ele><time>2026-03-21T09:58:52.131Z</time></trkpt><trkpt lat="45.0084918" lon="9.2512839"><ele>170.66666666666669</ele><time>2026-03-21T09:58:53.132Z</time></trkpt><trkpt lat="45.0084621" lon="9.2511705"><ele>171.5</ele><time>2026-03-21T09:58:54.131Z</time></trkpt><trkpt lat="45.0084053" lon="9.2511088"><ele>172.33333333333334</ele><time>2026-03-21T09:58:55.132Z</time></trkpt><trkpt lat="45.0083352" lon="9.2510978"><ele>173.16666666666666</ele><time>2026-03-21T09:58:56.131Z</time></trkpt><trkpt lat="45.0082665" lon="9.2511387"><ele>174.0</ele><time>2026-03-21T09:58:57.132Z</time></trkpt><trkpt lat="45.008201" lon="9.2512176"><ele>177.0</ele><time>2026-03-21T09:58:58.132Z</time></trkpt><trkpt lat="45.0081331" lon="9.2513164"><ele>180.0</ele><time>2026-03-21T09:58:59.131Z</time></trkpt><trkpt lat="45.0080559" lon="9.2514286"><ele>183.0</ele><time>2026-03-21T09:59:00.131Z</time></trkpt><trkpt lat="45.007977" lon="9.251559"><ele>186.0</ele><time>2026-03-21T09:59:01.132Z</time></trkpt><trkpt lat="45.0078944" lon="9.251699"><ele>186.0</ele><time>2026-03-21T09:59:02.132Z</time></trkpt><trkpt lat="45.0078049" lon="9.2518405"><ele>186.0</ele><time>2026-03-21T09:59:03.131Z</time></trkpt><trkpt lat="45.0077228" lon="9.2519678"><ele>186.0</ele><time>2026-03-21T09:59:04.131Z</time></trkpt><trkpt lat="45.0076469" lon="9.2520754"><ele>186.0</ele><time>2026-03-21T09:59:05.132Z</time></trkpt><trkpt lat="45.0075732" lon="9.2521608"><ele>186.0</ele><time>2026-03-21T09:59:06.132Z</time></trkpt><trkpt lat="45.007497" lon="9.2521917"><ele>186.0</ele><time>2026-03-21T09:59:07.132Z</time></trkpt><trkpt lat="45.0074312" lon="9.2521789"><ele>186.0</ele><time>2026-03-21T09:59:08.132Z</time></trkpt><trkpt lat="45.0073724" lon="9.2520429"><ele>186.0</ele><time>2026-03-21T09:59:10.132Z</time></trkpt><trkpt lat="45.0073678" lon="9.2519362"><ele>186.0</ele><time>2026-03-21T09:59:11.132Z</time></trkpt><trkpt lat="45.0073697" lon="9.2518089"><ele>186.0</ele><time>2026-03-21T09:59:12.132Z</time></trkpt><trkpt lat="45.0073786" lon="9.2516641"><ele>189.25</ele><time>2026-03-21T09:59:13.132Z</time></trkpt><trkpt lat="45.0073833" lon="9.2515102"><ele>192.5</ele><time>2026-03-21T09:59:14.132Z</time></trkpt><trkpt lat="45.0073882" lon="9.2513464"><ele>195.75</ele><time>2026-03-21T09:59:15.131Z</time></trkpt><trkpt lat="45.0073867" lon="9.25117"><ele>199.0</ele><time>2026-03-21T09:59:16.131Z</time></trkpt><trkpt lat="45.0073982" lon="9.2509816"><ele>200.6</ele><time>2026-03-21T09:59:17.131Z</time></trkpt><trkpt lat="45.0074073" lon="9.2508154"><ele>202.2</ele><time>2026-03-21T09:59:18.132Z</time></trkpt><trkpt lat="45.0074127" lon="9.2506629"><ele>203.79999999999998</ele><time>2026-03-21T09:59:19.132Z</time></trkpt><trkpt lat="45.007403" lon="9.2505294"><ele>205.39999999999998</ele><time>2026-03-21T09:59:20.132Z</time></trkpt><trkpt lat="45.0073695" lon="9.2504184"><ele>207.0</ele><time>2026-03-21T09:59:21.132Z</time></trkpt><trkpt lat="45.0073076" lon="9.2503436"><ele>207.0</ele><time>2026-03-21T09:59:22.131Z</time></trkpt><trkpt lat="45.0072314" lon="9.2503234"><ele>207.0</ele><time>2026-03-21T09:59:23.132Z</time></trkpt><trkpt lat="45.0071559" lon="9.2503537"><ele>207.0</ele><time>2026-03-21T09:59:24.132Z</time></trkpt><trkpt lat="45.0070959" lon="9.2504414"><ele>207.0</ele><time>2026-03-21T09:59:25.131Z</time></trkpt><trkpt lat="45.0070435" lon="9.2505643"><ele>207.0</ele><time>2026-03-21T09:59:26.131Z</time></trkpt><trkpt lat="45.0069892" lon="9.2506974"><ele>207.0</ele><time>2026-03-21T09:59:27.132Z</time></trkpt><trkpt lat="45.006933" lon="9.2508372"><ele>207.0</ele><time>2026-03-21T09:59:28.132Z</time></trkpt><trkpt lat="45.0068777" lon="9.2509775"><ele>207.0</ele><time>2026-03-21T09:59:29.131Z</time></trkpt><trkpt lat="45.0068208" lon="9.2510962"><ele>207.0</ele><time>2026-03-21T09:59:30.132Z</time></trkpt><trkpt lat="45.0067502" lon="9.2511901"><ele>207.0</ele><time>2026-03-21T09:59:31.132Z</time></trkpt><trkpt lat="45.006665" lon="9.2512399"><ele>209.2</ele><time>2026-03-21T09:59:32.131Z</time></trkpt><trkpt lat="45.0065763" lon="9.2512483"><ele>211.39999999999998</ele><time>2026-03-21T09:59:33.132Z</time></trkpt><trkpt lat="45.0064798" lon="9.2512294"><ele>213.60000000000002</ele><time>2026-03-21T09:59:34.132Z</time></trkpt><trkpt lat="45.0063752" lon="9.2511938"><ele>215.8</ele><time>2026-03-21T09:59:35.131Z</time></trkpt><trkpt lat="45.006269" lon="9.2511554"><ele>218.0</ele><time>2026-03-21T09:59:36.131Z</time></trkpt><trkpt lat="45.0061505" lon="9.2511117"><ele>218.0</ele><time>2026-03-21T09:59:37.132Z</time></trkpt><trkpt lat="45.0060337" lon="9.2510661"><ele>218.0</ele><time>2026-03-21T09:59:38.132Z</time></trkpt><trkpt lat="45.005927" lon="9.2510171"><ele>218.0</ele><time>2026-03-21T09:59:39.131Z</time></trkpt><trkpt lat="45.0058333" lon="9.2509681"><ele>218.0</ele><time>2026-03-21T09:59:40.132Z</time></trkpt><trkpt lat="45.0057642" lon="9.2509001"><ele>218.0</ele><time>2026-03-21T09:59:41.132Z</time></trkpt><trkpt lat="45.0057371" lon="9.250807"><ele>218.66666666666669</ele><time>2026-03-21T09:59:42.132Z</time></trkpt><trkpt lat="45.0057521" lon="9.2507187"><ele>219.33333333333334</ele><time>2026-03-21T09:59:43.131Z</time></trkpt><trkpt lat="45.0058088" lon="9.2506551"><ele>220.0</ele><time>2026-03-21T09:59:44.132Z</time></trkpt><trkpt lat="45.0058838" lon="9.2506204"><ele>220.66666666666669</ele><time>2026-03-21T09:59:45.131Z</time></trkpt><trkpt lat="45.005967" lon="9.250596"><ele>221.33333333333334</ele><time>2026-03-21T09:59:46.131Z</time></trkpt><trkpt lat="45.0060487" lon="9.2505656"><ele>222.0</ele><time>2026-03-21T09:59:47.132Z</time></trkpt><trkpt lat="45.0061174" lon="9.2505112"><ele>222.0</ele><time>2026-03-21T09:59:48.132Z</time></trkpt><trkpt lat="45.0061688" lon="9.2504209"><ele>222.0</ele><time>2026-03-21T09:59:49.131Z</time></trkpt><trkpt lat="45.006184" lon="9.2503177"><ele>222.0</ele><time>2026-03-21T09:59:50.132Z</time></trkpt><trkpt lat="45.0061647" lon="9.2502094"><ele>222.0</ele><time>2026-03-21T09:59:51.131Z</time></trkpt><trkpt lat="45.0061167" lon="9.2501242"><ele>222.0</ele><time>2026-03-21T09:59:52.132Z</time></trkpt><trkpt lat="45.0060423" lon="9.2500675"><ele>222.0</ele><time>2026-03-21T09:59:53.132Z</time></trkpt><trkpt lat="45.0059524" lon="9.2500317"><ele>222.0</ele><time>2026-03-21T09:59:54.132Z</time></trkpt><trkpt lat="45.0058623" lon="9.250004"><ele>222.0</ele><time>2026-03-21T09:59:55.131Z</time></trkpt><trkpt lat="45.0057674" lon="9.2499748"><ele>222.0</ele><time>2026-03-21T09:59:56.132Z</time></trkpt><trkpt lat="45.0056665" lon="9.2499413"><ele>222.0</ele><time>2026-03-21T09:59:57.132Z</time></trkpt><trkpt lat="45.0055626" lon="9.2499087"><ele>222.0</ele><time>2026-03-21T09:59:58.131Z</time></trkpt><trkpt lat="45.005462" lon="9.2498746"><ele>224.0</ele><time>2026-03-21T09:59:59.131Z</time></trkpt><trkpt lat="45.0053603" lon="9.2498408"><ele>226.0</ele><time>2026-03-21T10:00:00.132Z</time></trkpt><trkpt lat="45.0052617" lon="9.2498079"><ele>228.0</ele><time>2026-03-21T10:00:01.131Z</time></trkpt><trkpt lat="45.0051624" lon="9.2497801"><ele>230.0</ele><time>2026-03-21T10:00:02.131Z</time></trkpt><trkpt lat="45.0050629" lon="9.2497548"><ele>232.0</ele><time>2026-03-21T10:00:03.132Z</time></trkpt><trkpt lat="45.0049663" lon="9.2497286"><ele>235.0</ele><time>2026-03-21T10:00:04.132Z</time></trkpt><trkpt lat="45.0048731" lon="9.2496989"><ele>238.0</ele><time>2026-03-21T10:00:05.132Z</time></trkpt><trkpt lat="45.0047816" lon="9.2496678"><ele>241.0</ele><time>2026-03-21T10:00:06.131Z</time></trkpt><trkpt lat="45.004695" lon="9.2496117"><ele>244.0</ele><time>2026-03-21T10:00:07.131Z</time></trkpt><trkpt lat="45.0046149" lon="9.2495483"><ele>247.0</ele><time>2026-03-21T10:00:08.132Z</time></trkpt><trkpt lat="45.0045353" lon="9.2494735"><ele>246.99999999999997</ele><time>2026-03-21T10:00:09.131Z</time></trkpt><trkpt lat="45.0044717" lon="9.2493833"><ele>247.0</ele><time>2026-03-21T10:00:10.131Z</time></trkpt><trkpt lat="45.0044232" lon="9.2492805"><ele>247.0</ele><time>2026-03-21T10:00:11.132Z</time></trkpt><trkpt lat="45.0043827" lon="9.24917"><ele>247.0</ele><time>2026-03-21T10:00:12.131Z</time></trkpt><trkpt lat="45.0043527" lon="9.249062"><ele>246.99999999999997</ele><time>2026-03-21T10:00:13.131Z</time></trkpt><trkpt lat="45.0043318" lon="9.24895"><ele>247.0</ele><time>2026-03-21T10:00:14.132Z</time></trkpt><trkpt lat="45.00432" lon="9.2488374"><ele>248.16666666666666</ele><time>2026-03-21T10:00:15.132Z</time></trkpt><trkpt lat="45.004318" lon="9.2487261"><ele>249.33333333333331</ele><time>2026-03-21T10:00:16.132Z</time></trkpt><trkpt lat="45.0043251" lon="9.2486107"><ele>250.5</ele><time>2026-03-21T10:00:17.132Z</time></trkpt><trkpt lat="45.0043261" lon="9.2484927"><ele>251.66666666666669</ele><time>2026-03-21T10:00:18.131Z</time></trkpt><trkpt lat="45.004331" lon="9.2483888"><ele>252.83333333333334</ele><time>2026-03-21T10:00:19.132Z</time></trkpt><trkpt lat="45.004335" lon="9.2482945"><ele>254.0</ele><time>2026-03-21T10:00:20.132Z</time></trkpt><trkpt lat="45.0043145" lon="9.2481326"><ele>254.2</ele><time>2026-03-21T10:00:22.132Z</time></trkpt><trkpt lat="45.0042198" lon="9.2480967"><ele>254.39999999999998</ele><time>2026-03-21T10:00:24.131Z</time></trkpt><trkpt lat="45.0041444" lon="9.2482433"><ele>254.6</ele><time>2026-03-21T10:00:26.131Z</time></trkpt><trkpt lat="45.004092" lon="9.2483437"><ele>254.8</ele><time>2026-03-21T10:00:27.132Z</time></trkpt><trkpt lat="45.0040218" lon="9.248433"><ele>255.0</ele><time>2026-03-21T10:00:28.132Z</time></trkpt><trkpt lat="45.0039323" lon="9.2484997"><ele>257.75</ele><time>2026-03-21T10:00:29.131Z</time></trkpt><trkpt lat="45.0038226" lon="9.2485416"><ele>260.5</ele><time>2026-03-21T10:00:30.132Z</time></trkpt><trkpt lat="45.0037128" lon="9.2485868"><ele>263.25</ele><time>2026-03-21T10:00:31.132Z</time></trkpt><trkpt lat="45.0035965" lon="9.248632"><ele>266.0</ele><time>2026-03-21T10:00:32.131Z</time></trkpt><trkpt lat="45.0034885" lon="9.2486787"><ele>266.0</ele><time>2026-03-21T10:00:33.132Z</time></trkpt><trkpt lat="45.0033832" lon="9.2487074"><ele>266.0</ele><time>2026-03-21T10:00:34.131Z</time></trkpt><trkpt lat="45.0032894" lon="9.2487093"><ele>266.0</ele><time>2026-03-21T10:00:35.131Z</time></trkpt><trkpt lat="45.003225" lon="9.2486717"><ele>266.0</ele><time>2026-03-21T10:00:36.131Z</time></trkpt><trkpt lat="45.003223" lon="9.2484946"><ele>266.0</ele><time>2026-03-21T10:00:38.131Z</time></trkpt><trkpt lat="45.0032863" lon="9.2483768"><ele>266.0</ele><time>2026-03-21T10:00:39.131Z</time></trkpt><trkpt lat="45.003365" lon="9.2482605"><ele>266.0</ele><time>2026-03-21T10:00:40.131Z</time></trkpt><trkpt lat="45.0034323" lon="9.2481505"><ele>266.0</ele><time>2026-03-21T10:00:41.132Z</time></trkpt><trkpt lat="45.0034857" lon="9.2480466"><ele>266.0</ele><time>2026-03-21T10:00:42.132Z</time></trkpt><trkpt lat="45.0035145" lon="9.2479562"><ele>266.0</ele><time>2026-03-21T10:00:43.131Z</time></trkpt><trkpt lat="45.0035065" lon="9.2478639"><ele>266.0</ele><time>2026-03-21T10:00:44.131Z</time></trkpt><trkpt lat="45.0034631" lon="9.2477767"><ele>265.6</ele><time>2026-03-21T10:00:45.132Z</time></trkpt><trkpt lat="45.0033913" lon="9.2477327"><ele>265.20000000000005</ele><time>2026-03-21T10:00:46.132Z</time></trkpt><trkpt lat="45.0033067" lon="9.2477372"><ele>264.79999999999995</ele><time>2026-03-21T10:00:47.131Z</time></trkpt><trkpt lat="45.0032052" lon="9.24777"><ele>264.4</ele><time>2026-03-21T10:00:48.131Z</time></trkpt><trkpt lat="45.0030881" lon="9.2477991"><ele>264.0</ele><time>2026-03-21T10:00:49.132Z</time></trkpt><trkpt lat="45.0029566" lon="9.2478097"><ele>267.5</ele><time>2026-03-21T10:00:50.131Z</time></trkpt><trkpt lat="45.0028237" lon="9.2477961"><ele>271.0</ele><time>2026-03-21T10:00:51.132Z</time></trkpt><trkpt lat="45.0026842" lon="9.2477556"><ele>274.5</ele><time>2026-03-21T10:00:52.132Z</time></trkpt><trkpt lat="45.0025437" lon="9.2477037"><ele>278.0</ele><time>2026-03-21T10:00:53.131Z</time></trkpt><trkpt lat="45.0024048" lon="9.2476433"><ele>280.5</ele><time>2026-03-21T10:00:54.132Z</time></trkpt><trkpt lat="45.0022662" lon="9.2475854"><ele>283.0</ele><time>2026-03-21T10:00:55.131Z</time></trkpt><trkpt lat="45.0021372" lon="9.2475266"><ele>285.5</ele><time>2026-03-21T10:00:56.132Z</time></trkpt><trkpt lat="45.0020111" lon="9.2474928"><ele>288.0</ele><time>2026-03-21T10:00:57.131Z</time></trkpt><trkpt lat="45.0018896" lon="9.2475103"><ele>288.0</ele><time>2026-03-21T10:00:58.131Z</time></trkpt><trkpt lat="45.0017632" lon="9.2475661"><ele>288.0</ele><time>2026-03-21T10:00:59.131Z</time></trkpt><trkpt lat="45.0016327" lon="9.2476438"><ele>288.0</ele><time>2026-03-21T10:01:00.131Z</time></trkpt><trkpt lat="45.0014966" lon="9.2477289"><ele>288.0</ele><time>2026-03-21T10:01:01.131Z</time></trkpt><trkpt lat="45.0013591" lon="9.2478204"><ele>289.75</ele><time>2026-03-21T10:01:02.132Z</time></trkpt><trkpt lat="45.0012226" lon="9.2479104"><ele>291.5</ele><time>2026-03-21T10:01:03.132Z</time></trkpt><trkpt lat="45.0010999" lon="9.2479953"><ele>293.25</ele><time>2026-03-21T10:01:04.132Z</time></trkpt><trkpt lat="45.0009918" lon="9.2480684"><ele>295.0</ele><time>2026-03-21T10:01:05.132Z</time></trkpt><trkpt lat="45.0008888" lon="9.2481268"><ele>295.8</ele><time>2026-03-21T10:01:06.131Z</time></trkpt><trkpt lat="45.0007911" lon="9.2481686"><ele>296.6</ele><time>2026-03-21T10:01:07.131Z</time></trkpt><trkpt lat="45.0006789" lon="9.248175"><ele>297.4</ele><time>2026-03-21T10:01:08.131Z</time></trkpt><trkpt lat="45.0005667" lon="9.2481657"><ele>298.2</ele><time>2026-03-21T10:01:09.132Z</time></trkpt><trkpt lat="45.0004709" lon="9.2481404"><ele>299.0</ele><time>2026-03-21T10:01:10.131Z</time></trkpt><trkpt lat="45.0003901" lon="9.2480956"><ele>299.8</ele><time>2026-03-21T10:01:11.131Z</time></trkpt><trkpt lat="45.0003202" lon="9.2480184"><ele>300.59999999999997</ele><time>2026-03-21T10:01:12.131Z</time></trkpt><trkpt lat="45.0002752" lon="9.2479098"><ele>301.4</ele><time>2026-03-21T10:01:13.131Z</time></trkpt><trkpt lat="45.0002544" lon="9.247785"><ele>302.2</ele><time>2026-03-21T10:01:14.132Z</time></trkpt><trkpt lat="45.0002467" lon="9.2476451"><ele>303.0</ele><time>2026-03-21T10:01:15.131Z</time></trkpt><trkpt lat="45.0002416" lon="9.247511"><ele>303.0</ele><time>2026-03-21T10:01:16.131Z</time></trkpt><trkpt lat="45.000239" lon="9.2473943"><ele>303.0</ele><time>2026-03-21T10:01:17.131Z</time></trkpt><trkpt lat="45.0002237" lon="9.2472968"><ele>303.0</ele><time>2026-03-21T10:01:18.131Z</time></trkpt><trkpt lat="45.0001374" lon="9.2471794"><ele>303.0</ele><time>2026-03-21T10:01:20.132Z</time></trkpt><trkpt lat="45.0000759" lon="9.2471587"><ele>303.0</ele><time>2026-03-21T10:01:21.132Z</time></trkpt><trkpt lat="44.9999982" lon="9.2471443"><ele>303.0</ele><time>2026-03-21T10:01:22.132Z</time></trkpt><trkpt lat="44.999912" lon="9.2471391"><ele>302.25</ele><time>2026-03-21T10:01:23.132Z</time></trkpt><trkpt lat="44.9998116" lon="9.2471475"><ele>301.5</ele><time>2026-03-21T10:01:24.132Z</time></trkpt><trkpt lat="44.999705" lon="9.2471501"><ele>300.75</ele><time>2026-03-21T10:01:25.132Z</time></trkpt><trkpt lat="44.9995841" lon="9.247152"><ele>300.0</ele><time>2026-03-21T10:01:26.132Z</time></trkpt><trkpt lat="44.9994534" lon="9.2471566"><ele>300.0</ele><time>2026-03-21T10:01:27.131Z</time></trkpt><trkpt lat="44.9993062" lon="9.247155"><ele>300.0</ele><time>2026-03-21T10:01:28.131Z</time></trkpt><trkpt lat="44.9991532" lon="9.2471388"><ele>300.0</ele><time>2026-03-21T10:01:29.131Z</time></trkpt><trkpt lat="44.9990207" lon="9.2471289"><ele>300.0</ele><time>2026-03-21T10:01:30.132Z</time></trkpt><trkpt lat="44.9988986" lon="9.2471267"><ele>301.0</ele><time>2026-03-21T10:01:31.131Z</time></trkpt><trkpt lat="44.9987884" lon="9.2471085"><ele>302.0</ele><time>2026-03-21T10:01:32.132Z</time></trkpt><trkpt lat="44.9986702" lon="9.2470619"><ele>303.0</ele><time>2026-03-21T10:01:33.132Z</time></trkpt><trkpt lat="44.9985461" lon="9.246999"><ele>304.0</ele><time>2026-03-21T10:01:34.131Z</time></trkpt><trkpt lat="44.9984185" lon="9.2469347"><ele>307.25</ele><time>2026-03-21T10:01:35.132Z</time></trkpt><trkpt lat="44.9982913" lon="9.2468884"><ele>310.5</ele><time>2026-03-21T10:01:36.131Z</time></trkpt><trkpt lat="44.9981734" lon="9.2468451"><ele>313.75</ele><time>2026-03-21T10:01:37.132Z</time></trkpt><trkpt lat="44.9980567" lon="9.2468002"><ele>317.0</ele><time>2026-03-21T10:01:38.131Z</time></trkpt><trkpt lat="44.9979208" lon="9.2467494"><ele>317.0</ele><time>2026-03-21T10:01:39.131Z</time></trkpt><trkpt lat="44.9977859" lon="9.2466991"><ele>317.0</ele><time>2026-03-21T10:01:40.131Z</time></trkpt><trkpt lat="44.9976512" lon="9.2466703"><ele>317.0</ele><time>2026-03-21T10:01:41.131Z</time></trkpt><trkpt lat="44.9975081" lon="9.2466486"><ele>317.0</ele><time>2026-03-21T10:01:42.131Z</time></trkpt><trkpt lat="44.9973791" lon="9.2466257"><ele>318.8</ele><time>2026-03-21T10:01:43.132Z</time></trkpt><trkpt lat="44.9972693" lon="9.2465988"><ele>320.6</ele><time>2026-03-21T10:01:44.131Z</time></trkpt><trkpt lat="44.9971826" lon="9.2465778"><ele>322.40000000000003</ele><time>2026-03-21T10:01:45.131Z</time></trkpt><trkpt lat="44.9971156" lon="9.2465491"><ele>324.2</ele><time>2026-03-21T10:01:46.132Z</time></trkpt><trkpt lat="44.9970498" lon="9.2464303"><ele>326.0</ele><time>2026-03-21T10:01:48.132Z</time></trkpt><trkpt lat="44.9970235" lon="9.246332"><ele>325.6</ele><time>2026-03-21T10:01:49.131Z</time></trkpt><trkpt lat="44.9970046" lon="9.2462015"><ele>325.20000000000005</ele><time>2026-03-21T10:01:50.132Z</time></trkpt><trkpt lat="44.996986" lon="9.2460628"><ele>324.79999999999995</ele><time>2026-03-21T10:01:51.132Z</time></trkpt><trkpt lat="44.9969678" lon="9.2459047"><ele>324.4</ele><time>2026-03-21T10:01:52.132Z</time></trkpt><trkpt lat="44.9969463" lon="9.2457279"><ele>324.0</ele><time>2026-03-21T10:01:53.131Z</time></trkpt><trkpt lat="44.9969151" lon="9.2455547"><ele>324.0</ele><time>2026-03-21T10:01:54.132Z</time></trkpt><trkpt lat="44.996897" lon="9.245404"><ele>324.0</ele><time>2026-03-21T10:01:55.131Z</time></trkpt><trkpt lat="44.9968716" lon="9.2452888"><ele>324.0</ele><time>2026-03-21T10:01:56.132Z</time></trkpt><trkpt lat="44.9968359" lon="9.2451961"><ele>324.0</ele><time>2026-03-21T10:01:57.131Z</time></trkpt><trkpt lat="44.9967848" lon="9.245094"><ele>324.0</ele><time>2026-03-21T10:01:58.132Z</time></trkpt><trkpt lat="44.996718" lon="9.2449806"><ele>325.79999999999995</ele><time>2026-03-21T10:01:59.131Z</time></trkpt><trkpt lat="44.9966449" lon="9.2448414"><ele>327.59999999999997</ele><time>2026-03-21T10:02:00.132Z</time></trkpt><trkpt lat="44.9965893" lon="9.2447098"><ele>329.4</ele><time>2026-03-21T10:02:01.131Z</time></trkpt><trkpt lat="44.9965361" lon="9.244587"><ele>331.2</ele><time>2026-03-21T10:02:02.131Z</time></trkpt><trkpt lat="44.9964684" lon="9.244457"><ele>333.0</ele><time>2026-03-21T10:02:03.132Z</time></trkpt><trkpt lat="44.9963937" lon="9.2443094"><ele>333.0</ele><time>2026-03-21T10:02:04.132Z</time></trkpt><trkpt lat="44.9963211" lon="9.2441762"><ele>333.0</ele><time>2026-03-21T10:02:05.131Z</time></trkpt><trkpt lat="44.9962558" lon="9.2440498"><ele>333.0</ele><time>2026-03-21T10:02:06.131Z</time></trkpt><trkpt lat="44.9961806" lon="9.2439094"><ele>333.0</ele><time>2026-03-21T10:02:07.131Z</time></trkpt><trkpt lat="44.9961051" lon="9.2437641"><ele>332.4</ele><time>2026-03-21T10:02:08.132Z</time></trkpt><trkpt lat="44.9960401" lon="9.2436376"><ele>331.79999999999995</ele><time>2026-03-21T10:02:09.131Z</time></trkpt><trkpt lat="44.9959892" lon="9.2435356"><ele>331.2</ele><time>2026-03-21T10:02:10.132Z</time></trkpt><trkpt lat="44.9959372" lon="9.2434694"><ele>330.6</ele><time>2026-03-21T10:02:11.132Z</time></trkpt><trkpt lat="44.9958179" lon="9.2433921"><ele>330.0</ele><time>2026-03-21T10:02:13.132Z</time></trkpt><trkpt lat="44.9957439" lon="9.2433669"><ele>332.6</ele><time>2026-03-21T10:02:14.131Z</time></trkpt><trkpt lat="44.9956654" lon="9.243346"><ele>335.2</ele><time>2026-03-21T10:02:15.131Z</time></trkpt><trkpt lat="44.9955975" lon="9.243298"><ele>337.79999999999995</ele><time>2026-03-21T10:02:16.132Z</time></trkpt><trkpt lat="44.9955303" lon="9.2432234"><ele>340.4</ele><time>2026-03-21T10:02:17.131Z</time></trkpt><trkpt lat="44.9954611" lon="9.2431139"><ele>343.0</ele><time>2026-03-21T10:02:18.131Z</time></trkpt><trkpt lat="44.9953878" lon="9.2429674"><ele>343.0</ele><time>2026-03-21T10:02:19.131Z</time></trkpt><trkpt lat="44.9953089" lon="9.2428005"><ele>343.0</ele><time>2026-03-21T10:02:20.132Z</time></trkpt><trkpt lat="44.9952367" lon="9.2426392"><ele>343.0</ele><time>2026-03-21T10:02:21.132Z</time></trkpt><trkpt lat="44.9951665" lon="9.24247"><ele>343.0</ele><time>2026-03-21T10:02:22.132Z</time></trkpt><trkpt lat="44.9951089" lon="9.2423211"><ele>341.79999999999995</ele><time>2026-03-21T10:02:23.131Z</time></trkpt><trkpt lat="44.9950492" lon="9.2421663"><ele>340.6</ele><time>2026-03-21T10:02:24.132Z</time></trkpt><trkpt lat="44.9949961" lon="9.2420185"><ele>339.4</ele><time>2026-03-21T10:02:25.131Z</time></trkpt><trkpt lat="44.9949696" lon="9.2418897"><ele>338.20000000000005</ele><time>2026-03-21T10:02:26.132Z</time></trkpt><trkpt lat="44.9949574" lon="9.2417653"><ele>337.0</ele><time>2026-03-21T10:02:27.131Z</time></trkpt><trkpt lat="44.9949519" lon="9.2416485"><ele>342.40000000000003</ele><time>2026-03-21T10:02:28.132Z</time></trkpt><trkpt lat="44.9949354" lon="9.2415459"><ele>347.8</ele><time>2026-03-21T10:02:29.132Z</time></trkpt><trkpt lat="44.9948993" lon="9.2414172"><ele>353.2</ele><time>2026-03-21T10:02:30.132Z</time></trkpt><trkpt lat="44.9948452" lon="9.2412792"><ele>358.6</ele><time>2026-03-21T10:02:31.131Z</time></trkpt><trkpt lat="44.9947805" lon="9.2411481"><ele>364.0</ele><time>2026-03-21T10:02:32.132Z</time></trkpt><trkpt lat="44.9947201" lon="9.2410262"><ele>364.2</ele><time>2026-03-21T10:02:33.132Z</time></trkpt><trkpt lat="44.9946641" lon="9.2409103"><ele>364.4</ele><time>2026-03-21T10:02:34.131Z</time></trkpt><trkpt lat="44.9946317" lon="9.2407939"><ele>364.6</ele><time>2026-03-21T10:02:35.132Z</time></trkpt><trkpt lat="44.9946037" lon="9.2406934"><ele>364.8</ele><time>2026-03-21T10:02:36.132Z</time></trkpt><trkpt lat="44.9945655" lon="9.2405438"><ele>365.0</ele><time>2026-03-21T10:02:38.131Z</time></trkpt><trkpt lat="44.9945505" lon="9.2404371"><ele>365.4</ele><time>2026-03-21T10:02:40.132Z</time></trkpt><trkpt lat="44.9945419" lon="9.2403051"><ele>365.8</ele><time>2026-03-21T10:03:12.131Z</time></trkpt><trkpt lat="44.9945223" lon="9.240197"><ele>366.20000000000005</ele><time>2026-03-21T10:03:13.131Z</time></trkpt><trkpt lat="44.9945157" lon="9.2400554"><ele>366.6</ele><time>2026-03-21T10:03:14.131Z</time></trkpt><trkpt lat="44.9945224" lon="9.2399182"><ele>367.0</ele><time>2026-03-21T10:03:15.132Z</time></trkpt><trkpt lat="44.9945285" lon="9.2397808"><ele>368.6</ele><time>2026-03-21T10:03:16.132Z</time></trkpt><trkpt lat="44.9945448" lon="9.2396255"><ele>370.20000000000005</ele><time>2026-03-21T10:03:17.131Z</time></trkpt><trkpt lat="44.9945731" lon="9.2394803"><ele>371.8</ele><time>2026-03-21T10:03:18.131Z</time></trkpt><trkpt lat="44.994606" lon="9.2393411"><ele>373.4</ele><time>2026-03-21T10:03:19.132Z</time></trkpt><trkpt lat="44.9946502" lon="9.2392132"><ele>375.0</ele><time>2026-03-21T10:03:20.132Z</time></trkpt><trkpt lat="44.9946998" lon="9.2390863"><ele>377.0</ele><time>2026-03-21T10:03:21.131Z</time></trkpt><trkpt lat="44.9947527" lon="9.2389578"><ele>379.0</ele><time>2026-03-21T10:03:22.131Z</time></trkpt><trkpt lat="44.9948062" lon="9.2388321"><ele>381.0</ele><time>2026-03-21T10:03:23.132Z</time></trkpt><trkpt lat="44.9948614" lon="9.238702"><ele>383.0</ele><time>2026-03-21T10:03:24.131Z</time></trkpt><trkpt lat="44.9949144" lon="9.2385734"><ele>385.0</ele><time>2026-03-21T10:03:25.131Z</time></trkpt><trkpt lat="44.9949608" lon="9.2384394"><ele>385.0</ele><time>2026-03-21T10:03:26.131Z</time></trkpt><trkpt lat="44.9949994" lon="9.2382993"><ele>385.0</ele><time>2026-03-21T10:03:27.131Z</time></trkpt><trkpt lat="44.9950305" lon="9.238148"><ele>385.0</ele><time>2026-03-21T10:03:28.131Z</time></trkpt><trkpt lat="44.9950564" lon="9.2379854"><ele>385.0</ele><time>2026-03-21T10:03:29.131Z</time></trkpt><trkpt lat="44.9950672" lon="9.237835"><ele>385.0</ele><time>2026-03-21T10:03:30.131Z</time></trkpt><trkpt lat="44.9950632" lon="9.237697"><ele>385.6</ele><time>2026-03-21T10:03:31.132Z</time></trkpt><trkpt lat="44.9950582" lon="9.2375767"><ele>386.2</ele><time>2026-03-21T10:03:32.131Z</time></trkpt><trkpt lat="44.9950469" lon="9.2374691"><ele>386.79999999999995</ele><time>2026-03-21T10:03:33.132Z</time></trkpt><trkpt lat="44.9950297" lon="9.2373704"><ele>387.4</ele><time>2026-03-21T10:03:34.131Z</time></trkpt><trkpt lat="44.9949552" lon="9.2372741"><ele>388.0</ele><time>2026-03-21T10:03:36.131Z</time></trkpt><trkpt lat="44.9948267" lon="9.2372696"><ele>388.0</ele><time>2026-03-21T10:03:38.132Z</time></trkpt><trkpt lat="44.9947428" lon="9.2372728"><ele>388.0</ele><time>2026-03-21T10:03:39.131Z</time></trkpt><trkpt lat="44.9946476" lon="9.2372814"><ele>388.0</ele><time>2026-03-21T10:03:40.132Z</time></trkpt><trkpt lat="44.994553" lon="9.2372924"><ele>388.0</ele><time>2026-03-21T10:03:41.131Z</time></trkpt><trkpt lat="44.9944557" lon="9.2373038"><ele>388.0</ele><time>2026-03-21T10:03:42.131Z</time></trkpt><trkpt lat="44.9943533" lon="9.2373126"><ele>387.79999999999995</ele><time>2026-03-21T10:03:43.131Z</time></trkpt><trkpt lat="44.9942482" lon="9.2373208"><ele>387.6</ele><time>2026-03-21T10:03:44.132Z</time></trkpt><trkpt lat="44.9941381" lon="9.237334"><ele>387.4</ele><time>2026-03-21T10:03:45.132Z</time></trkpt><trkpt lat="44.9940284" lon="9.2373495"><ele>387.20000000000005</ele><time>2026-03-21T10:03:46.131Z</time></trkpt><trkpt lat="44.9939147" lon="9.237363"><ele>387.0</ele><time>2026-03-21T10:03:47.132Z</time></trkpt><trkpt lat="44.9938009" lon="9.2373739"><ele>384.8</ele><time>2026-03-21T10:03:48.131Z</time></trkpt><trkpt lat="44.9936882" lon="9.2373886"><ele>382.6</ele><time>2026-03-21T10:03:49.132Z</time></trkpt><trkpt lat="44.9935868" lon="9.2374005"><ele>380.40000000000003</ele><time>2026-03-21T10:03:50.132Z</time></trkpt><trkpt lat="44.9934926" lon="9.2374107"><ele>378.20000000000005</ele><time>2026-03-21T10:03:51.131Z</time></trkpt><trkpt lat="44.9934141" lon="9.2374108"><ele>376.0</ele><time>2026-03-21T10:03:52.131Z</time></trkpt><trkpt lat="44.9933222" lon="9.2374057"><ele>373.75</ele><time>2026-03-21T10:03:54.131Z</time></trkpt><trkpt lat="44.9932655" lon="9.2373233"><ele>371.5</ele><time>2026-03-21T10:03:56.131Z</time></trkpt><trkpt lat="44.9932431" lon="9.2370991"><ele>369.25</ele><time>2026-03-21T10:03:58.131Z</time></trkpt><trkpt lat="44.9932262" lon="9.2369625"><ele>367.0</ele><time>2026-03-21T10:03:59.132Z</time></trkpt><trkpt lat="44.9932009" lon="9.2368088"><ele>367.0</ele><time>2026-03-21T10:04:00.132Z</time></trkpt><trkpt lat="44.9931765" lon="9.2366371"><ele>367.0</ele><time>2026-03-21T10:04:01.131Z</time></trkpt><trkpt lat="44.9931395" lon="9.2364607"><ele>367.0</ele><time>2026-03-21T10:04:02.131Z</time></trkpt><trkpt lat="44.9930819" lon="9.2362859"><ele>367.0</ele><time>2026-03-21T10:04:03.132Z</time></trkpt><trkpt lat="44.9929989" lon="9.2361216"><ele>368.5</ele><time>2026-03-21T10:04:04.131Z</time></trkpt><trkpt lat="44.9929008" lon="9.2359686"><ele>370.0</ele><time>2026-03-21T10:04:05.131Z</time></trkpt><trkpt lat="44.992803" lon="9.2358166"><ele>371.5</ele><time>2026-03-21T10:04:06.132Z</time></trkpt><trkpt lat="44.9927187" lon="9.2356655"><ele>373.0</ele><time>2026-03-21T10:04:07.131Z</time></trkpt><trkpt lat="44.9926636" lon="9.2355129"><ele>375.25</ele><time>2026-03-21T10:04:08.132Z</time></trkpt><trkpt lat="44.9926286" lon="9.2353454"><ele>377.5</ele><time>2026-03-21T10:04:09.131Z</time></trkpt><trkpt lat="44.9926228" lon="9.2351539"><ele>379.75</ele><time>2026-03-21T10:04:10.132Z</time></trkpt><trkpt lat="44.9926138" lon="9.2349375"><ele>382.0</ele><time>2026-03-21T10:04:11.132Z</time></trkpt><trkpt lat="44.9926095" lon="9.2347068"><ele>383.66666666666663</ele><time>2026-03-21T10:04:12.131Z</time></trkpt><trkpt lat="44.9926119" lon="9.2344645"><ele>385.3333333333333</ele><time>2026-03-21T10:04:13.131Z</time></trkpt><trkpt lat="44.9926154" lon="9.2342146"><ele>387.0</ele><time>2026-03-21T10:04:14.132Z</time></trkpt><trkpt lat="44.9926047" lon="9.233958"><ele>387.0</ele><time>2026-03-21T10:04:15.132Z</time></trkpt><trkpt lat="44.9925812" lon="9.2336992"><ele>387.0</ele><time>2026-03-21T10:04:16.132Z</time></trkpt><trkpt lat="44.9925442" lon="9.2334392"><ele>387.0</ele><time>2026-03-21T10:04:17.131Z</time></trkpt><trkpt lat="44.992503" lon="9.2331745"><ele>384.6666666666667</ele><time>2026-03-21T10:04:18.131Z</time></trkpt><trkpt lat="44.9924551" lon="9.2329101"><ele>382.33333333333337</ele><time>2026-03-21T10:04:19.132Z</time></trkpt><trkpt lat="44.99241" lon="9.2326622"><ele>380.0</ele><time>2026-03-21T10:04:20.132Z</time></trkpt><trkpt lat="44.9923625" lon="9.2324377"><ele>379.0</ele><time>2026-03-21T10:04:21.131Z</time></trkpt><trkpt lat="44.9923028" lon="9.2322409"><ele>378.0</ele><time>2026-03-21T10:04:22.131Z</time></trkpt><trkpt lat="44.9922328" lon="9.232083"><ele>377.0</ele><time>2026-03-21T10:04:23.132Z</time></trkpt><trkpt lat="44.9921766" lon="9.2319723"><ele>376.0</ele><time>2026-03-21T10:04:24.132Z</time></trkpt><trkpt lat="44.9921193" lon="9.231881"><ele>376.0</ele><time>2026-03-21T10:04:25.131Z</time></trkpt><trkpt lat="44.9920628" lon="9.2318032"><ele>376.0</ele><time>2026-03-21T10:04:26.132Z</time></trkpt><trkpt lat="44.9920113" lon="9.2317399"><ele>376.0</ele><time>2026-03-21T10:04:27.132Z</time></trkpt><trkpt lat="44.9919689" lon="9.2316388"><ele>376.0</ele><time>2026-03-21T10:04:29.132Z</time></trkpt><trkpt lat="44.9920379" lon="9.2315245"><ele>376.0</ele><time>2026-03-21T10:04:32.132Z</time></trkpt><trkpt lat="44.992102" lon="9.2314947"><ele>376.0</ele><time>2026-03-21T10:04:33.132Z</time></trkpt><trkpt lat="44.9921835" lon="9.2314842"><ele>376.0</ele><time>2026-03-21T10:04:34.132Z</time></trkpt><trkpt lat="44.9922664" lon="9.2314891"><ele>376.0</ele><time>2026-03-21T10:04:35.132Z</time></trkpt><trkpt lat="44.9923635" lon="9.2314753"><ele>376.0</ele><time>2026-03-21T10:04:36.131Z</time></trkpt><trkpt lat="44.9924587" lon="9.231453"><ele>376.0</ele><time>2026-03-21T10:04:37.131Z</time></trkpt><trkpt lat="44.9925476" lon="9.2314115"><ele>376.0</ele><time>2026-03-21T10:04:38.132Z</time></trkpt><trkpt lat="44.9926284" lon="9.2313515"><ele>374.0</ele><time>2026-03-21T10:04:39.131Z</time></trkpt><trkpt lat="44.9926965" lon="9.2312713"><ele>372.0</ele><time>2026-03-21T10:04:40.132Z</time></trkpt><trkpt lat="44.9927387" lon="9.2311741"><ele>370.0</ele><time>2026-03-21T10:04:41.132Z</time></trkpt><trkpt lat="44.9927709" lon="9.2310418"><ele>368.0</ele><time>2026-03-21T10:04:42.132Z</time></trkpt><trkpt lat="44.9928006" lon="9.2308947"><ele>366.0</ele><time>2026-03-21T10:04:43.131Z</time></trkpt><trkpt lat="44.992844" lon="9.2307561"><ele>364.6</ele><time>2026-03-21T10:04:44.132Z</time></trkpt><trkpt lat="44.9928869" lon="9.2306158"><ele>363.20000000000005</ele><time>2026-03-21T10:04:45.131Z</time></trkpt><trkpt lat="44.9929297" lon="9.2304741"><ele>361.79999999999995</ele><time>2026-03-21T10:04:46.132Z</time></trkpt><trkpt lat="44.9929701" lon="9.2303468"><ele>360.4</ele><time>2026-03-21T10:04:47.132Z</time></trkpt><trkpt lat="44.9930047" lon="9.2302201"><ele>359.0</ele><time>2026-03-21T10:04:48.132Z</time></trkpt><trkpt lat="44.9930325" lon="9.2300912"><ele>359.0</ele><time>2026-03-21T10:04:49.131Z</time></trkpt><trkpt lat="44.9930398" lon="9.2299534"><ele>359.0</ele><time>2026-03-21T10:04:50.132Z</time></trkpt><trkpt lat="44.9930204" lon="9.2297832"><ele>359.0</ele><time>2026-03-21T10:04:51.131Z</time></trkpt><trkpt lat="44.9929906" lon="9.2295953"><ele>359.0</ele><time>2026-03-21T10:04:52.132Z</time></trkpt><trkpt lat="44.9929688" lon="9.2294102"><ele>356.25</ele><time>2026-03-21T10:04:53.132Z</time></trkpt><trkpt lat="44.992945" lon="9.2292193"><ele>353.5</ele><time>2026-03-21T10:04:54.131Z</time></trkpt><trkpt lat="44.9929233" lon="9.2290368"><ele>350.75</ele><time>2026-03-21T10:04:55.131Z</time></trkpt><trkpt lat="44.9929075" lon="9.2288513"><ele>348.0</ele><time>2026-03-21T10:04:56.131Z</time></trkpt><trkpt lat="44.992891" lon="9.2286679"><ele>346.2</ele><time>2026-03-21T10:04:57.131Z</time></trkpt><trkpt lat="44.9928792" lon="9.2285005"><ele>344.4</ele><time>2026-03-21T10:04:58.132Z</time></trkpt><trkpt lat="44.9928762" lon="9.228348"><ele>342.59999999999997</ele><time>2026-03-21T10:04:59.132Z</time></trkpt><trkpt lat="44.9928715" lon="9.2281985"><ele>340.79999999999995</ele><time>2026-03-21T10:05:00.131Z</time></trkpt><trkpt lat="44.9928865" lon="9.228048"><ele>339.0</ele><time>2026-03-21T10:05:01.132Z</time></trkpt><trkpt lat="44.9929111" lon="9.2278872"><ele>337.0</ele><time>2026-03-21T10:05:02.131Z</time></trkpt><trkpt lat="44.992949" lon="9.22775"><ele>335.0</ele><time>2026-03-21T10:05:03.131Z</time></trkpt><trkpt lat="44.9929868" lon="9.2276148"><ele>333.0</ele><time>2026-03-21T10:05:04.131Z</time></trkpt><trkpt lat="44.9930167" lon="9.227476"><ele>331.0</ele><time>2026-03-21T10:05:05.132Z</time></trkpt><trkpt lat="44.9930464" lon="9.2273313"><ele>329.0</ele><time>2026-03-21T10:05:06.132Z</time></trkpt><trkpt lat="44.9930651" lon="9.227181"><ele>325.75</ele><time>2026-03-21T10:05:07.131Z</time></trkpt><trkpt lat="44.9930697" lon="9.2270169"><ele>322.5</ele><time>2026-03-21T10:05:08.131Z</time></trkpt><trkpt lat="44.9930656" lon="9.2268295"><ele>319.25</ele><time>2026-03-21T10:05:09.131Z</time></trkpt><trkpt lat="44.9930651" lon="9.2266465"><ele>316.0</ele><time>2026-03-21T10:05:10.131Z</time></trkpt><trkpt lat="44.9930658" lon="9.2264629"><ele>313.25</ele><time>2026-03-21T10:05:11.131Z</time></trkpt><trkpt lat="44.9930712" lon="9.2262854"><ele>310.5</ele><time>2026-03-21T10:05:12.131Z</time></trkpt><trkpt lat="44.9930844" lon="9.2261062"><ele>307.75</ele><time>2026-03-21T10:05:13.132Z</time></trkpt><trkpt lat="44.993105" lon="9.225922"><ele>305.0</ele><time>2026-03-21T10:05:14.131Z</time></trkpt><trkpt lat="44.9931346" lon="9.225736"><ele>302.75</ele><time>2026-03-21T10:05:15.132Z</time></trkpt><trkpt lat="44.9931601" lon="9.2255484"><ele>300.5</ele><time>2026-03-21T10:05:16.132Z</time></trkpt><trkpt lat="44.993188" lon="9.225361"><ele>298.25</ele><time>2026-03-21T10:05:17.131Z</time></trkpt><trkpt lat="44.9932215" lon="9.2251707"><ele>296.0</ele><time>2026-03-21T10:05:18.132Z</time></trkpt><trkpt lat="44.9932531" lon="9.2249851"><ele>294.25</ele><time>2026-03-21T10:05:19.131Z</time></trkpt><trkpt lat="44.9932781" lon="9.2247982"><ele>292.5</ele><time>2026-03-21T10:05:20.132Z</time></trkpt><trkpt lat="44.9932957" lon="9.2246186"><ele>290.75</ele><time>2026-03-21T10:05:21.131Z</time></trkpt><trkpt lat="44.993293" lon="9.2244408"><ele>289.0</ele><time>2026-03-21T10:05:22.131Z</time></trkpt><trkpt lat="44.9932785" lon="9.224267"><ele>289.0</ele><time>2026-03-21T10:05:23.132Z</time></trkpt><trkpt lat="44.9932553" lon="9.2240983"><ele>289.0</ele><time>2026-03-21T10:05:24.131Z</time></trkpt><trkpt lat="44.9932297" lon="9.2239296"><ele>289.0</ele><time>2026-03-21T10:05:25.131Z</time></trkpt><trkpt lat="44.9932197" lon="9.2237601"><ele>289.0</ele><time>2026-03-21T10:05:26.132Z</time></trkpt><trkpt lat="44.9932206" lon="9.2235879"><ele>287.75</ele><time>2026-03-21T10:05:27.132Z</time></trkpt><trkpt lat="44.9932303" lon="9.2234185"><ele>286.5</ele><time>2026-03-21T10:05:28.131Z</time></trkpt><trkpt lat="44.9932476" lon="9.223248"><ele>285.25</ele><time>2026-03-21T10:05:29.132Z</time></trkpt><trkpt lat="44.9932789" lon="9.2230778"><ele>284.0</ele><time>2026-03-21T10:05:30.132Z</time></trkpt><trkpt lat="44.9933312" lon="9.2229181"><ele>281.0</ele><time>2026-03-21T10:05:31.131Z</time></trkpt><trkpt lat="44.9933918" lon="9.2227694"><ele>278.0</ele><time>2026-03-21T10:05:32.131Z</time></trkpt><trkpt lat="44.9934564" lon="9.2226261"><ele>275.0</ele><time>2026-03-21T10:05:33.132Z</time></trkpt><trkpt lat="44.993516" lon="9.2224761"><ele>272.0</ele><time>2026-03-21T10:05:34.132Z</time></trkpt><trkpt lat="44.9935727" lon="9.2223204"><ele>270.75</ele><time>2026-03-21T10:05:35.131Z</time></trkpt><trkpt lat="44.9936171" lon="9.2221575"><ele>269.5</ele><time>2026-03-21T10:05:36.131Z</time></trkpt><trkpt lat="44.9936544" lon="9.2219948"><ele>268.25</ele><time>2026-03-21T10:05:37.132Z</time></trkpt><trkpt lat="44.9936878" lon="9.2218339"><ele>267.0</ele><time>2026-03-21T10:05:38.132Z</time></trkpt><trkpt lat="44.9937181" lon="9.2216715"><ele>267.0</ele><time>2026-03-21T10:05:39.132Z</time></trkpt><trkpt lat="44.9937376" lon="9.2215171"><ele>267.0</ele><time>2026-03-21T10:05:40.131Z</time></trkpt><trkpt lat="44.9937572" lon="9.2213633"><ele>267.0</ele><time>2026-03-21T10:05:41.131Z</time></trkpt><trkpt lat="44.9937883" lon="9.2212221"><ele>267.0</ele><time>2026-03-21T10:05:42.131Z</time></trkpt><trkpt lat="44.9938267" lon="9.2210807"><ele>267.0</ele><time>2026-03-21T10:05:43.131Z</time></trkpt><trkpt lat="44.9938695" lon="9.2209119"><ele>265.0</ele><time>2026-03-21T10:05:44.132Z</time></trkpt><trkpt lat="44.9939164" lon="9.2207629"><ele>263.0</ele><time>2026-03-21T10:05:45.132Z</time></trkpt><trkpt lat="44.9939597" lon="9.2206151"><ele>261.0</ele><time>2026-03-21T10:05:46.132Z</time></trkpt><trkpt lat="44.9939943" lon="9.2204596"><ele>259.0</ele><time>2026-03-21T10:05:47.132Z</time></trkpt><trkpt lat="44.9940226" lon="9.2203032"><ele>258.2</ele><time>2026-03-21T10:05:48.131Z</time></trkpt><trkpt lat="44.9940446" lon="9.2201467"><ele>257.4</ele><time>2026-03-21T10:05:49.132Z</time></trkpt><trkpt lat="44.994065" lon="9.2200025"><ele>256.6</ele><time>2026-03-21T10:05:50.132Z</time></trkpt><trkpt lat="44.9940841" lon="9.219868"><ele>255.8</ele><time>2026-03-21T10:05:51.132Z</time></trkpt><trkpt lat="44.9940991" lon="9.2197414"><ele>255.0</ele><time>2026-03-21T10:05:52.132Z</time></trkpt><trkpt lat="44.9941278" lon="9.2196319"><ele>254.5</ele><time>2026-03-21T10:05:53.131Z</time></trkpt><trkpt lat="44.9941678" lon="9.2195234"><ele>254.0</ele><time>2026-03-21T10:05:54.132Z</time></trkpt><trkpt lat="44.9942172" lon="9.2194156"><ele>253.5</ele><time>2026-03-21T10:05:55.131Z</time></trkpt><trkpt lat="44.9942504" lon="9.2192918"><ele>253.0</ele><time>2026-03-21T10:05:56.131Z</time></trkpt><trkpt lat="44.9942799" lon="9.2191718"><ele>252.5</ele><time>2026-03-21T10:05:57.132Z</time></trkpt><trkpt lat="44.9942979" lon="9.2190609"><ele>252.0</ele><time>2026-03-21T10:05:58.132Z</time></trkpt><trkpt lat="44.9943132" lon="9.2189592"><ele>248.33333333333334</ele><time>2026-03-21T10:05:59.131Z</time></trkpt><trkpt lat="44.9943474" lon="9.2188729"><ele>244.66666666666669</ele><time>2026-03-21T10:06:00.131Z</time></trkpt><trkpt lat="44.9943908" lon="9.218806"><ele>241.0</ele><time>2026-03-21T10:06:01.131Z</time></trkpt><trkpt lat="44.9944744" lon="9.218671"><ele>237.33333333333334</ele><time>2026-03-21T10:06:03.131Z</time></trkpt><trkpt lat="44.994468" lon="9.2185612"><ele>233.66666666666669</ele><time>2026-03-21T10:06:04.131Z</time></trkpt><trkpt lat="44.9944557" lon="9.2184545"><ele>230.0</ele><time>2026-03-21T10:06:05.132Z</time></trkpt><trkpt lat="44.9944389" lon="9.2183379"><ele>230.0</ele><time>2026-03-21T10:06:06.131Z</time></trkpt><trkpt lat="44.9944219" lon="9.2182101"><ele>230.0</ele><time>2026-03-21T10:06:07.132Z</time></trkpt><trkpt lat="44.994413" lon="9.2180788"><ele>230.0</ele><time>2026-03-21T10:06:08.132Z</time></trkpt><trkpt lat="44.9944169" lon="9.2179307"><ele>230.0</ele><time>2026-03-21T10:06:09.132Z</time></trkpt><trkpt lat="44.9944253" lon="9.2177761"><ele>230.0</ele><time>2026-03-21T10:06:10.132Z</time></trkpt><trkpt lat="44.9944346" lon="9.2176178"><ele>228.0</ele><time>2026-03-21T10:06:11.132Z</time></trkpt><trkpt lat="44.9944398" lon="9.2174538"><ele>226.0</ele><time>2026-03-21T10:06:12.132Z</time></trkpt><trkpt lat="44.9944415" lon="9.2172869"><ele>224.0</ele><time>2026-03-21T10:06:13.132Z</time></trkpt><trkpt lat="44.9944391" lon="9.2171315"><ele>222.0</ele><time>2026-03-21T10:06:14.132Z</time></trkpt><trkpt lat="44.9944286" lon="9.2169841"><ele>220.0</ele><time>2026-03-21T10:06:15.132Z</time></trkpt><trkpt lat="44.9944162" lon="9.2168478"><ele>218.49999999999997</ele><time>2026-03-21T10:06:16.131Z</time></trkpt><trkpt lat="44.9944104" lon="9.2167207"><ele>217.0</ele><time>2026-03-21T10:06:17.132Z</time></trkpt><trkpt lat="44.9944209" lon="9.2166014"><ele>215.5</ele><time>2026-03-21T10:06:18.132Z</time></trkpt><trkpt lat="44.9944485" lon="9.2165004"><ele>214.0</ele><time>2026-03-21T10:06:19.131Z</time></trkpt><trkpt lat="44.9945005" lon="9.2164197"><ele>212.49999999999997</ele><time>2026-03-21T10:06:20.131Z</time></trkpt><trkpt lat="44.9945773" lon="9.2163699"><ele>211.0</ele><time>2026-03-21T10:06:21.131Z</time></trkpt><trkpt lat="44.9946802" lon="9.2163326"><ele>209.4</ele><time>2026-03-21T10:06:22.132Z</time></trkpt><trkpt lat="44.9947759" lon="9.2162849"><ele>207.8</ele><time>2026-03-21T10:06:23.131Z</time></trkpt><trkpt lat="44.9948627" lon="9.2162256"><ele>206.20000000000002</ele><time>2026-03-21T10:06:24.131Z</time></trkpt><trkpt lat="44.9949366" lon="9.2161542"><ele>204.60000000000002</ele><time>2026-03-21T10:06:25.131Z</time></trkpt><trkpt lat="44.9949896" lon="9.2160607"><ele>203.0</ele><time>2026-03-21T10:06:26.131Z</time></trkpt><trkpt lat="44.9950258" lon="9.2159524"><ele>202.83333333333334</ele><time>2026-03-21T10:06:27.132Z</time></trkpt><trkpt lat="44.9950388" lon="9.2158381"><ele>202.66666666666669</ele><time>2026-03-21T10:06:28.132Z</time></trkpt><trkpt lat="44.9950344" lon="9.2157217"><ele>202.5</ele><time>2026-03-21T10:06:29.131Z</time></trkpt><trkpt lat="44.9950241" lon="9.2156115"><ele>202.33333333333331</ele><time>2026-03-21T10:06:30.132Z</time></trkpt><trkpt lat="44.9950023" lon="9.2155048"><ele>202.16666666666666</ele><time>2026-03-21T10:06:31.131Z</time></trkpt><trkpt lat="44.9949835" lon="9.2153966"><ele>202.0</ele><time>2026-03-21T10:06:32.132Z</time></trkpt><trkpt lat="44.9949656" lon="9.2152943"><ele>201.14285714285714</ele><time>2026-03-21T10:06:33.132Z</time></trkpt><trkpt lat="44.9949484" lon="9.2151922"><ele>200.28571428571428</ele><time>2026-03-21T10:06:34.132Z</time></trkpt><trkpt lat="44.9949311" lon="9.2150911"><ele>199.42857142857144</ele><time>2026-03-21T10:06:35.131Z</time></trkpt><trkpt lat="44.9949162" lon="9.2149886"><ele>198.57142857142856</ele><time>2026-03-21T10:06:36.131Z</time></trkpt><trkpt lat="44.9948977" lon="9.2148943"><ele>197.71428571428572</ele><time>2026-03-21T10:06:37.131Z</time></trkpt><trkpt lat="44.994879" lon="9.2147997"><ele>196.85714285714286</ele><time>2026-03-21T10:06:38.132Z</time></trkpt><trkpt lat="44.994867" lon="9.2147065"><ele>196.0</ele><time>2026-03-21T10:06:39.131Z</time></trkpt><trkpt lat="44.9948524" lon="9.2146095"><ele>194.99999999999997</ele><time>2026-03-21T10:06:40.131Z</time></trkpt><trkpt lat="44.9948405" lon="9.2145165"><ele>194.0</ele><time>2026-03-21T10:06:41.132Z</time></trkpt><trkpt lat="44.9948308" lon="9.2144243"><ele>193.0</ele><time>2026-03-21T10:06:42.131Z</time></trkpt><trkpt lat="44.9948213" lon="9.2143306"><ele>192.0</ele><time>2026-03-21T10:06:43.132Z</time></trkpt><trkpt lat="44.9948098" lon="9.2142391"><ele>191.0</ele><time>2026-03-21T10:06:44.132Z</time></trkpt><trkpt lat="44.9947965" lon="9.2141517"><ele>190.0</ele><time>2026-03-21T10:06:45.131Z</time></trkpt><trkpt lat="44.9947705" lon="9.21398"><ele>189.14285714285714</ele><time>2026-03-21T10:06:47.132Z</time></trkpt><trkpt lat="44.9947592" lon="9.2138904"><ele>188.28571428571428</ele><time>2026-03-21T10:06:48.132Z</time></trkpt><trkpt lat="44.9947468" lon="9.2138019"><ele>187.42857142857144</ele><time>2026-03-21T10:06:49.132Z</time></trkpt><trkpt lat="44.9947241" lon="9.2136283"><ele>186.57142857142856</ele><time>2026-03-21T10:06:51.132Z</time></trkpt><trkpt lat="44.9947106" lon="9.2135404"><ele>185.7142857142857</ele><time>2026-03-21T10:06:52.132Z</time></trkpt><trkpt lat="44.9947007" lon="9.213449"><ele>184.85714285714286</ele><time>2026-03-21T10:06:53.132Z</time></trkpt><trkpt lat="44.9946887" lon="9.2133586"><ele>184.0</ele><time>2026-03-21T10:06:54.132Z</time></trkpt><trkpt lat="44.9946849" lon="9.2132677"><ele>183.5</ele><time>2026-03-21T10:06:55.132Z</time></trkpt><trkpt lat="44.9946992" lon="9.2130957"><ele>183.0</ele><time>2026-03-21T10:06:57.131Z</time></trkpt><trkpt lat="44.9947417" lon="9.2129412"><ele>182.5</ele><time>2026-03-21T10:06:59.131Z</time></trkpt><trkpt lat="44.9948174" lon="9.2128268"><ele>182.0</ele><time>2026-03-21T10:07:01.131Z</time></trkpt><trkpt lat="44.9949095" lon="9.2127666"><ele>181.39999999999998</ele><time>2026-03-21T10:07:03.131Z</time></trkpt><trkpt lat="44.9950125" lon="9.2127638"><ele>180.79999999999998</ele><time>2026-03-21T10:07:05.131Z</time></trkpt><trkpt lat="44.995093" lon="9.2127737"><ele>180.2</ele><time>2026-03-21T10:07:07.132Z</time></trkpt><trkpt lat="44.9951623" lon="9.2127596"><ele>179.6</ele><time>2026-03-21T10:07:10.131Z</time></trkpt><trkpt lat="44.9951497" lon="9.2126483"><ele>179.0</ele><time>2026-03-21T10:07:42.132Z</time></trkpt><trkpt lat="44.9950556" lon="9.2125489"><ele>179.6</ele><time>2026-03-21T10:07:44.131Z</time></trkpt><trkpt lat="44.9949973" lon="9.2124924"><ele>180.2</ele><time>2026-03-21T10:07:45.132Z</time></trkpt><trkpt lat="44.9949229" lon="9.2124214"><ele>180.79999999999998</ele><time>2026-03-21T10:07:46.131Z</time></trkpt><trkpt lat="44.9948441" lon="9.2123492"><ele>181.39999999999998</ele><time>2026-03-21T10:07:47.132Z</time></trkpt><trkpt lat="44.9947731" lon="9.2122605"><ele>182.0</ele><time>2026-03-21T10:07:48.131Z</time></trkpt><trkpt lat="44.994687" lon="9.212174"><ele>182.5</ele><time>2026-03-21T10:07:49.132Z</time></trkpt><trkpt lat="44.9946031" lon="9.2120917"><ele>183.0</ele><time>2026-03-21T10:07:50.131Z</time></trkpt><trkpt lat="44.9944818" lon="9.2120489"><ele>183.5</ele><time>2026-03-21T10:07:51.132Z</time></trkpt><trkpt lat="44.9943318" lon="9.2120125"><ele>184.0</ele><time>2026-03-21T10:07:52.132Z</time></trkpt><trkpt lat="44.9941716" lon="9.2119717"><ele>185.79999999999998</ele><time>2026-03-21T10:07:53.132Z</time></trkpt><trkpt lat="44.994038" lon="9.2119335"><ele>187.6</ele><time>2026-03-21T10:07:54.132Z</time></trkpt><trkpt lat="44.9939258" lon="9.211913"><ele>189.4</ele><time>2026-03-21T10:07:55.131Z</time></trkpt><trkpt lat="44.9938241" lon="9.2118984"><ele>191.2</ele><time>2026-03-21T10:07:56.131Z</time></trkpt><trkpt lat="44.9937345" lon="9.2118968"><ele>193.0</ele><time>2026-03-21T10:07:57.131Z</time></trkpt><trkpt lat="44.993662" lon="9.2119128"><ele>192.99999999999997</ele><time>2026-03-21T10:07:58.131Z</time></trkpt><trkpt lat="44.9935924" lon="9.2119318"><ele>193.0</ele><time>2026-03-21T10:07:59.131Z</time></trkpt><trkpt lat="44.9935236" lon="9.2119386"><ele>193.0</ele><time>2026-03-21T10:08:00.132Z</time></trkpt><trkpt lat="44.9934489" lon="9.2119386"><ele>193.0</ele><time>2026-03-21T10:08:01.132Z</time></trkpt><trkpt lat="44.9933729" lon="9.2119377"><ele>192.99999999999997</ele><time>2026-03-21T10:08:02.131Z</time></trkpt><trkpt lat="44.9932926" lon="9.2119514"><ele>193.0</ele><time>2026-03-21T10:08:03.132Z</time></trkpt><trkpt lat="44.9932106" lon="9.2119966"><ele>194.99999999999997</ele><time>2026-03-21T10:08:04.132Z</time></trkpt><trkpt lat="44.9931276" lon="9.2120271"><ele>197.0</ele><time>2026-03-21T10:08:05.131Z</time></trkpt><trkpt lat="44.9930473" lon="9.2120611"><ele>199.0</ele><time>2026-03-21T10:08:06.132Z</time></trkpt><trkpt lat="44.9929637" lon="9.2120832"><ele>201.0</ele><time>2026-03-21T10:08:07.132Z</time></trkpt><trkpt lat="44.9928791" lon="9.2121111"><ele>202.99999999999997</ele><time>2026-03-21T10:08:08.132Z</time></trkpt><trkpt lat="44.9927952" lon="9.2121234"><ele>205.0</ele><time>2026-03-21T10:08:09.131Z</time></trkpt><trkpt lat="44.9927058" lon="9.21212"><ele>205.0</ele><time>2026-03-21T10:08:10.132Z</time></trkpt><trkpt lat="44.9926148" lon="9.2120907"><ele>205.0</ele><time>2026-03-21T10:08:11.131Z</time></trkpt><trkpt lat="44.9925167" lon="9.2120481"><ele>205.0</ele><time>2026-03-21T10:08:12.131Z</time></trkpt><trkpt lat="44.9924185" lon="9.2120109"><ele>205.0</ele><time>2026-03-21T10:08:13.132Z</time></trkpt><trkpt lat="44.9923292" lon="9.2120037"><ele>205.0</ele><time>2026-03-21T10:08:14.132Z</time></trkpt><trkpt lat="44.992253" lon="9.2120456"><ele>205.99999999999997</ele><time>2026-03-21T10:08:15.132Z</time></trkpt><trkpt lat="44.9922012" lon="9.2121314"><ele>207.0</ele><time>2026-03-21T10:08:16.132Z</time></trkpt><trkpt lat="44.992145" lon="9.2122329"><ele>208.0</ele><time>2026-03-21T10:08:17.131Z</time></trkpt><trkpt lat="44.9920895" lon="9.2123107"><ele>209.0</ele><time>2026-03-21T10:08:18.131Z</time></trkpt><trkpt lat="44.9920299" lon="9.2123597"><ele>209.99999999999997</ele><time>2026-03-21T10:08:19.132Z</time></trkpt><trkpt lat="44.9919151" lon="9.2123185"><ele>211.0</ele><time>2026-03-21T10:08:21.132Z</time></trkpt><trkpt lat="44.9918566" lon="9.2122843"><ele>210.99999999999997</ele><time>2026-03-21T10:08:22.132Z</time></trkpt><trkpt lat="44.9917932" lon="9.212253"><ele>211.0</ele><time>2026-03-21T10:08:23.132Z</time></trkpt><trkpt lat="44.9917194" lon="9.2122124"><ele>211.0</ele><time>2026-03-21T10:08:24.131Z</time></trkpt><trkpt lat="44.9916416" lon="9.2121748"><ele>211.0</ele><time>2026-03-21T10:08:25.131Z</time></trkpt><trkpt lat="44.9915626" lon="9.2121331"><ele>210.99999999999997</ele><time>2026-03-21T10:08:26.131Z</time></trkpt><trkpt lat="44.991484" lon="9.2120862"><ele>211.0</ele><time>2026-03-21T10:08:27.131Z</time></trkpt><trkpt lat="44.9914024" lon="9.2120394"><ele>213.8</ele><time>2026-03-21T10:08:28.132Z</time></trkpt><trkpt lat="44.9913138" lon="9.2119925"><ele>216.60000000000002</ele><time>2026-03-21T10:08:29.132Z</time></trkpt><trkpt lat="44.9912214" lon="9.2119469"><ele>219.4</ele><time>2026-03-21T10:08:30.132Z</time></trkpt><trkpt lat="44.9911272" lon="9.2118958"><ele>222.2</ele><time>2026-03-21T10:08:31.132Z</time></trkpt><trkpt lat="44.9910323" lon="9.2118322"><ele>225.0</ele><time>2026-03-21T10:08:32.131Z</time></trkpt><trkpt lat="44.9909389" lon="9.2117564"><ele>225.0</ele><time>2026-03-21T10:08:33.131Z</time></trkpt><trkpt lat="44.990841" lon="9.2116742"><ele>225.0</ele><time>2026-03-21T10:08:34.131Z</time></trkpt><trkpt lat="44.9907374" lon="9.2115923"><ele>225.0</ele><time>2026-03-21T10:08:35.132Z</time></trkpt><trkpt lat="44.9906206" lon="9.2115135"><ele>225.0</ele><time>2026-03-21T10:08:36.132Z</time></trkpt><trkpt lat="44.9905032" lon="9.2114479"><ele>227.5</ele><time>2026-03-21T10:08:37.131Z</time></trkpt><trkpt lat="44.9903807" lon="9.2113792"><ele>230.0</ele><time>2026-03-21T10:08:38.131Z</time></trkpt><trkpt lat="44.9902648" lon="9.2113089"><ele>232.5</ele><time>2026-03-21T10:08:39.131Z</time></trkpt><trkpt lat="44.990148" lon="9.2112414"><ele>235.0</ele><time>2026-03-21T10:08:40.131Z</time></trkpt><trkpt lat="44.9900301" lon="9.2111948"><ele>239.75</ele><time>2026-03-21T10:08:41.131Z</time></trkpt><trkpt lat="44.9899118" lon="9.2111419"><ele>244.5</ele><time>2026-03-21T10:08:42.132Z</time></trkpt><trkpt lat="44.9897952" lon="9.2110769"><ele>249.25</ele><time>2026-03-21T10:08:43.131Z</time></trkpt><trkpt lat="44.9896828" lon="9.2110114"><ele>254.0</ele><time>2026-03-21T10:08:44.132Z</time></trkpt><trkpt lat="44.9895722" lon="9.2109508"><ele>254.0</ele><time>2026-03-21T10:08:45.131Z</time></trkpt><trkpt lat="44.9894584" lon="9.2108882"><ele>254.0</ele><time>2026-03-21T10:08:46.132Z</time></trkpt><trkpt lat="44.9893476" lon="9.210816"><ele>254.0</ele><time>2026-03-21T10:08:47.131Z</time></trkpt><trkpt lat="44.9892342" lon="9.2107444"><ele>254.0</ele><time>2026-03-21T10:08:48.131Z</time></trkpt><trkpt lat="44.9891277" lon="9.2106693"><ele>256.25</ele><time>2026-03-21T10:08:49.132Z</time></trkpt><trkpt lat="44.9890198" lon="9.2105818"><ele>258.5</ele><time>2026-03-21T10:08:50.131Z</time></trkpt><trkpt lat="44.9889107" lon="9.2105004"><ele>260.75</ele><time>2026-03-21T10:08:51.131Z</time></trkpt><trkpt lat="44.9888008" lon="9.2104239"><ele>263.0</ele><time>2026-03-21T10:08:52.132Z</time></trkpt><trkpt lat="44.9887012" lon="9.2103427"><ele>263.0</ele><time>2026-03-21T10:08:53.132Z</time></trkpt><trkpt lat="44.9886157" lon="9.2102348"><ele>263.0</ele><time>2026-03-21T10:08:54.132Z</time></trkpt><trkpt lat="44.9885388" lon="9.2101369"><ele>263.0</ele><time>2026-03-21T10:08:55.131Z</time></trkpt><trkpt lat="44.9884487" lon="9.2100727"><ele>263.0</ele><time>2026-03-21T10:08:56.132Z</time></trkpt><trkpt lat="44.9883456" lon="9.2100513"><ele>263.0</ele><time>2026-03-21T10:08:57.132Z</time></trkpt><trkpt lat="44.9882345" lon="9.2100575"><ele>267.25</ele><time>2026-03-21T10:08:58.132Z</time></trkpt><trkpt lat="44.9881166" lon="9.2100733"><ele>271.5</ele><time>2026-03-21T10:08:59.131Z</time></trkpt><trkpt lat="44.9879997" lon="9.2100781"><ele>275.75</ele><time>2026-03-21T10:09:00.131Z</time></trkpt><trkpt lat="44.9878866" lon="9.2100592"><ele>280.0</ele><time>2026-03-21T10:09:01.131Z</time></trkpt><trkpt lat="44.9877827" lon="9.2099994"><ele>280.0</ele><time>2026-03-21T10:09:02.131Z</time></trkpt><trkpt lat="44.9876897" lon="9.2099255"><ele>280.0</ele><time>2026-03-21T10:09:03.131Z</time></trkpt><trkpt lat="44.9875885" lon="9.209868"><ele>280.0</ele><time>2026-03-21T10:09:04.131Z</time></trkpt><trkpt lat="44.9874747" lon="9.2098242"><ele>280.0</ele><time>2026-03-21T10:09:05.131Z</time></trkpt><trkpt lat="44.9873516" lon="9.2097891"><ele>284.75</ele><time>2026-03-21T10:09:06.131Z</time></trkpt><trkpt lat="44.9872235" lon="9.2097454"><ele>289.5</ele><time>2026-03-21T10:09:07.131Z</time></trkpt><trkpt lat="44.9871001" lon="9.2097012"><ele>294.25</ele><time>2026-03-21T10:09:08.132Z</time></trkpt><trkpt lat="44.9869838" lon="9.2096506"><ele>299.0</ele><time>2026-03-21T10:09:09.132Z</time></trkpt><trkpt lat="44.9868782" lon="9.2095732"><ele>299.0</ele><time>2026-03-21T10:09:10.132Z</time></trkpt><trkpt lat="44.986789" lon="9.2094712"><ele>299.0</ele><time>2026-03-21T10:09:11.131Z</time></trkpt><trkpt lat="44.9867174" lon="9.209335"><ele>299.0</ele><time>2026-03-21T10:09:12.132Z</time></trkpt><trkpt lat="44.9866649" lon="9.2091706"><ele>299.0</ele><time>2026-03-21T10:09:13.131Z</time></trkpt><trkpt lat="44.9866283" lon="9.2090067"><ele>304.25</ele><time>2026-03-21T10:09:14.131Z</time></trkpt><trkpt lat="44.9865937" lon="9.2088633"><ele>309.5</ele><time>2026-03-21T10:09:15.131Z</time></trkpt><trkpt lat="44.9865363" lon="9.2087244"><ele>314.75</ele><time>2026-03-21T10:09:16.131Z</time></trkpt><trkpt lat="44.9864577" lon="9.2085915"><ele>320.0</ele><time>2026-03-21T10:09:17.131Z</time></trkpt><trkpt lat="44.9863622" lon="9.2084538"><ele>320.0</ele><time>2026-03-21T10:09:18.131Z</time></trkpt><trkpt lat="44.9862563" lon="9.2083139"><ele>320.0</ele><time>2026-03-21T10:09:19.131Z</time></trkpt><trkpt lat="44.9861445" lon="9.2081673"><ele>320.0</ele><time>2026-03-21T10:09:20.132Z</time></trkpt><trkpt lat="44.986032" lon="9.2080114"><ele>322.33333333333337</ele><time>2026-03-21T10:09:21.131Z</time></trkpt><trkpt lat="44.9859162" lon="9.2078428"><ele>324.6666666666667</ele><time>2026-03-21T10:09:22.132Z</time></trkpt><trkpt lat="44.9857972" lon="9.2076759"><ele>327.0</ele><time>2026-03-21T10:09:23.132Z</time></trkpt><trkpt lat="44.9856882" lon="9.207507"><ele>329.75</ele><time>2026-03-21T10:09:24.132Z</time></trkpt><trkpt lat="44.9855806" lon="9.2073408"><ele>332.5</ele><time>2026-03-21T10:09:25.131Z</time></trkpt><trkpt lat="44.9854925" lon="9.2071801"><ele>335.25</ele><time>2026-03-21T10:09:26.131Z</time></trkpt><trkpt lat="44.9854295" lon="9.2070485"><ele>338.0</ele><time>2026-03-21T10:09:27.132Z</time></trkpt><trkpt lat="44.9853881" lon="9.2069386"><ele>338.2</ele><time>2026-03-21T10:09:28.132Z</time></trkpt><trkpt lat="44.9853648" lon="9.2068277"><ele>338.4</ele><time>2026-03-21T10:09:29.131Z</time></trkpt><trkpt lat="44.985331" lon="9.206705"><ele>338.59999999999997</ele><time>2026-03-21T10:09:30.131Z</time></trkpt><trkpt lat="44.9852738" lon="9.2065899"><ele>338.79999999999995</ele><time>2026-03-21T10:09:31.132Z</time></trkpt><trkpt lat="44.9851919" lon="9.2064886"><ele>339.0</ele><time>2026-03-21T10:09:32.131Z</time></trkpt><trkpt lat="44.9850809" lon="9.2063925"><ele>343.0</ele><time>2026-03-21T10:09:33.132Z</time></trkpt><trkpt lat="44.9849475" lon="9.206298"><ele>347.0</ele><time>2026-03-21T10:09:34.131Z</time></trkpt><trkpt lat="44.9847929" lon="9.2062051"><ele>351.0</ele><time>2026-03-21T10:09:35.131Z</time></trkpt><trkpt lat="44.984618" lon="9.2061011"><ele>351.0</ele><time>2026-03-21T10:09:36.131Z</time></trkpt><trkpt lat="44.9844239" lon="9.2059838"><ele>351.0</ele><time>2026-03-21T10:09:37.132Z</time></trkpt><trkpt lat="44.9842556" lon="9.2058832"><ele>351.0</ele><time>2026-03-21T10:09:38.132Z</time></trkpt><trkpt lat="44.9840982" lon="9.2057861"><ele>352.75</ele><time>2026-03-21T10:09:39.131Z</time></trkpt><trkpt lat="44.9839558" lon="9.2057031"><ele>354.5</ele><time>2026-03-21T10:09:40.132Z</time></trkpt><trkpt lat="44.9838245" lon="9.2056465"><ele>356.25</ele><time>2026-03-21T10:09:41.131Z</time></trkpt><trkpt lat="44.9837026" lon="9.205626"><ele>358.0</ele><time>2026-03-21T10:09:42.131Z</time></trkpt><trkpt lat="44.9835843" lon="9.205621"><ele>358.0</ele><time>2026-03-21T10:09:43.132Z</time></trkpt><trkpt lat="44.9834681" lon="9.2056348"><ele>358.0</ele><time>2026-03-21T10:09:44.132Z</time></trkpt><trkpt lat="44.98335" lon="9.2056703"><ele>358.0</ele><time>2026-03-21T10:09:45.132Z</time></trkpt><trkpt lat="44.9832369" lon="9.2057391"><ele>358.0</ele><time>2026-03-21T10:09:46.132Z</time></trkpt><trkpt lat="44.9831317" lon="9.2058263"><ele>360.75</ele><time>2026-03-21T10:09:47.132Z</time></trkpt><trkpt lat="44.9830393" lon="9.2059456"><ele>363.5</ele><time>2026-03-21T10:09:48.131Z</time></trkpt><trkpt lat="44.9829673" lon="9.2061041"><ele>366.25</ele><time>2026-03-21T10:09:49.131Z</time></trkpt><trkpt lat="44.9828917" lon="9.2062964"><ele>369.0</ele><time>2026-03-21T10:09:50.131Z</time></trkpt><trkpt lat="44.9827838" lon="9.2064922"><ele>364.6666666666667</ele><time>2026-03-21T10:09:51.132Z</time></trkpt><trkpt lat="44.9826494" lon="9.2066823"><ele>360.33333333333337</ele><time>2026-03-21T10:09:52.131Z</time></trkpt><trkpt lat="44.9825041" lon="9.2068868"><ele>356.0</ele><time>2026-03-21T10:09:53.132Z</time></trkpt><trkpt lat="44.9823802" lon="9.2071077"><ele>359.6666666666667</ele><time>2026-03-21T10:09:54.132Z</time></trkpt><trkpt lat="44.9822897" lon="9.2073252"><ele>363.3333333333333</ele><time>2026-03-21T10:09:55.132Z</time></trkpt><trkpt lat="44.9822092" lon="9.2075275"><ele>367.0</ele><time>2026-03-21T10:09:56.132Z</time></trkpt><trkpt lat="44.9821423" lon="9.2077122"><ele>367.0</ele><time>2026-03-21T10:09:57.131Z</time></trkpt><trkpt lat="44.9820882" lon="9.2078903"><ele>367.0</ele><time>2026-03-21T10:09:58.132Z</time></trkpt><trkpt lat="44.9820469" lon="9.2080612"><ele>367.0</ele><time>2026-03-21T10:09:59.131Z</time></trkpt><trkpt lat="44.9820063" lon="9.2082161"><ele>367.0</ele><time>2026-03-21T10:10:00.132Z</time></trkpt><trkpt lat="44.9819549" lon="9.2083376"><ele>368.66666666666663</ele><time>2026-03-21T10:10:01.132Z</time></trkpt><trkpt lat="44.9818874" lon="9.208408"><ele>370.3333333333333</ele><time>2026-03-21T10:10:02.132Z</time></trkpt><trkpt lat="44.9818161" lon="9.2084356"><ele>372.0</ele><time>2026-03-21T10:10:03.132Z</time></trkpt><trkpt lat="44.9817411" lon="9.2084106"><ele>373.6666666666667</ele><time>2026-03-21T10:10:04.132Z</time></trkpt><trkpt lat="44.981661" lon="9.2083662"><ele>375.33333333333337</ele><time>2026-03-21T10:10:05.132Z</time></trkpt><trkpt lat="44.9816005" lon="9.2082803"><ele>377.0</ele><time>2026-03-21T10:10:06.132Z</time></trkpt><trkpt lat="44.9815448" lon="9.20818"><ele>379.20000000000005</ele><time>2026-03-21T10:10:07.132Z</time></trkpt><trkpt lat="44.9814732" lon="9.2081001"><ele>381.4</ele><time>2026-03-21T10:10:08.131Z</time></trkpt><trkpt lat="44.9813917" lon="9.2080313"><ele>383.6</ele><time>2026-03-21T10:10:09.132Z</time></trkpt><trkpt lat="44.9812963" lon="9.2079829"><ele>385.79999999999995</ele><time>2026-03-21T10:10:10.132Z</time></trkpt><trkpt lat="44.981195" lon="9.2079707"><ele>388.0</ele><time>2026-03-21T10:10:11.132Z</time></trkpt><trkpt lat="44.9810874" lon="9.2079856"><ele>388.0</ele><time>2026-03-21T10:10:12.132Z</time></trkpt><trkpt lat="44.9809761" lon="9.2080163"><ele>388.0</ele><time>2026-03-21T10:10:13.132Z</time></trkpt><trkpt lat="44.9808608" lon="9.208046"><ele>388.0</ele><time>2026-03-21T10:10:14.132Z</time></trkpt><trkpt lat="44.9807388" lon="9.2080817"><ele>388.0</ele><time>2026-03-21T10:10:15.132Z</time></trkpt><trkpt lat="44.9806135" lon="9.2081218"><ele>387.75</ele><time>2026-03-21T10:10:16.131Z</time></trkpt><trkpt lat="44.9804897" lon="9.2081591"><ele>387.5</ele><time>2026-03-21T10:10:17.131Z</time></trkpt><trkpt lat="44.9803723" lon="9.2081932"><ele>387.25</ele><time>2026-03-21T10:10:18.132Z</time></trkpt><trkpt lat="44.9802643" lon="9.2082228"><ele>387.0</ele><time>2026-03-21T10:10:19.132Z</time></trkpt><trkpt lat="44.980166" lon="9.2082521"><ele>386.1666666666667</ele><time>2026-03-21T10:10:20.132Z</time></trkpt><trkpt lat="44.9800763" lon="9.2082779"><ele>385.3333333333333</ele><time>2026-03-21T10:10:21.132Z</time></trkpt><trkpt lat="44.9799939" lon="9.2083024"><ele>384.5</ele><time>2026-03-21T10:10:22.132Z</time></trkpt><trkpt lat="44.9799163" lon="9.2083225"><ele>383.66666666666663</ele><time>2026-03-21T10:10:23.132Z</time></trkpt><trkpt lat="44.9798523" lon="9.2083314"><ele>382.8333333333333</ele><time>2026-03-21T10:10:24.131Z</time></trkpt><trkpt lat="44.9797658" lon="9.2083453"><ele>382.0</ele><time>2026-03-21T10:10:26.131Z</time></trkpt><trkpt lat="44.9796865" lon="9.2084296"><ele>382.0</ele><time>2026-03-21T10:10:29.131Z</time></trkpt><trkpt lat="44.9796505" lon="9.2085271"><ele>382.0</ele><time>2026-03-21T10:10:30.131Z</time></trkpt><trkpt lat="44.9796213" lon="9.2086352"><ele>382.0</ele><time>2026-03-21T10:10:31.132Z</time></trkpt><trkpt lat="44.9795874" lon="9.2087638"><ele>382.0</ele><time>2026-03-21T10:10:32.131Z</time></trkpt><trkpt lat="44.9795523" lon="9.2088931"><ele>382.0</ele><time>2026-03-21T10:10:33.131Z</time></trkpt><trkpt lat="44.9795255" lon="9.2090293"><ele>380.8333333333333</ele><time>2026-03-21T10:10:34.132Z</time></trkpt><trkpt lat="44.9795029" lon="9.209162"><ele>379.66666666666663</ele><time>2026-03-21T10:10:35.132Z</time></trkpt><trkpt lat="44.9794812" lon="9.2092786"><ele>378.5</ele><time>2026-03-21T10:10:36.131Z</time></trkpt><trkpt lat="44.9794582" lon="9.2093667"><ele>377.3333333333333</ele><time>2026-03-21T10:10:37.132Z</time></trkpt><trkpt lat="44.9793706" lon="9.2094555"><ele>376.1666666666667</ele><time>2026-03-21T10:10:39.131Z</time></trkpt><trkpt lat="44.9793011" lon="9.2094517"><ele>375.0</ele><time>2026-03-21T10:10:40.131Z</time></trkpt><trkpt lat="44.9792167" lon="9.2094377"><ele>375.6</ele><time>2026-03-21T10:10:41.131Z</time></trkpt><trkpt lat="44.9791246" lon="9.2094226"><ele>376.2</ele><time>2026-03-21T10:10:42.132Z</time></trkpt><trkpt lat="44.9790159" lon="9.2094221"><ele>376.79999999999995</ele><time>2026-03-21T10:10:43.132Z</time></trkpt><trkpt lat="44.9789121" lon="9.2094134"><ele>377.4</ele><time>2026-03-21T10:10:44.132Z</time></trkpt><trkpt lat="44.9788" lon="9.2093984"><ele>378.0</ele><time>2026-03-21T10:10:45.132Z</time></trkpt><trkpt lat="44.9786903" lon="9.2093929"><ele>378.0</ele><time>2026-03-21T10:10:46.132Z</time></trkpt><trkpt lat="44.9785781" lon="9.2093883"><ele>378.0</ele><time>2026-03-21T10:10:47.132Z</time></trkpt><trkpt lat="44.978465" lon="9.2093831"><ele>378.0</ele><time>2026-03-21T10:10:48.131Z</time></trkpt><trkpt lat="44.9783514" lon="9.2093746"><ele>378.0</ele><time>2026-03-21T10:10:49.132Z</time></trkpt><trkpt lat="44.9782352" lon="9.2093668"><ele>374.75</ele><time>2026-03-21T10:10:50.132Z</time></trkpt><trkpt lat="44.9781214" lon="9.2093574"><ele>371.5</ele><time>2026-03-21T10:10:51.132Z</time></trkpt><trkpt lat="44.9780065" lon="9.2093476"><ele>368.25</ele><time>2026-03-21T10:10:52.132Z</time></trkpt><trkpt lat="44.9778906" lon="9.209337"><ele>365.0</ele><time>2026-03-21T10:10:53.131Z</time></trkpt><trkpt lat="44.9777732" lon="9.2093313"><ele>365.0</ele><time>2026-03-21T10:10:54.131Z</time></trkpt><trkpt lat="44.9776558" lon="9.20933"><ele>365.0</ele><time>2026-03-21T10:10:55.132Z</time></trkpt><trkpt lat="44.9775382" lon="9.2093239"><ele>365.0</ele><time>2026-03-21T10:10:56.132Z</time></trkpt><trkpt lat="44.9774219" lon="9.2093144"><ele>365.0</ele><time>2026-03-21T10:10:57.131Z</time></trkpt><trkpt lat="44.9773059" lon="9.2092891"><ele>362.25</ele><time>2026-03-21T10:10:58.132Z</time></trkpt><trkpt lat="44.9771984" lon="9.2092396"><ele>359.5</ele><time>2026-03-21T10:10:59.132Z</time></trkpt><trkpt lat="44.9770925" lon="9.2091772"><ele>356.75</ele><time>2026-03-21T10:11:00.132Z</time></trkpt><trkpt lat="44.9769894" lon="9.2091182"><ele>354.0</ele><time>2026-03-21T10:11:01.132Z</time></trkpt><trkpt lat="44.9768763" lon="9.2090743"><ele>354.0</ele><time>2026-03-21T10:11:02.132Z</time></trkpt><trkpt lat="44.9767588" lon="9.2090459"><ele>354.0</ele><time>2026-03-21T10:11:03.131Z</time></trkpt><trkpt lat="44.9766381" lon="9.2090328"><ele>354.0</ele><time>2026-03-21T10:11:04.132Z</time></trkpt><trkpt lat="44.9765167" lon="9.2090172"><ele>354.0</ele><time>2026-03-21T10:11:05.131Z</time></trkpt><trkpt lat="44.9763939" lon="9.2089788"><ele>350.0</ele><time>2026-03-21T10:11:06.132Z</time></trkpt><trkpt lat="44.9762788" lon="9.2089122"><ele>346.0</ele><time>2026-03-21T10:11:07.132Z</time></trkpt><trkpt lat="44.9761721" lon="9.2088226"><ele>342.0</ele><time>2026-03-21T10:11:08.132Z</time></trkpt><trkpt lat="44.9760716" lon="9.208732"><ele>338.0</ele><time>2026-03-21T10:11:09.131Z</time></trkpt><trkpt lat="44.9759656" lon="9.2086753"><ele>338.0</ele><time>2026-03-21T10:11:10.131Z</time></trkpt><trkpt lat="44.9758561" lon="9.2086752"><ele>338.0</ele><time>2026-03-21T10:11:11.131Z</time></trkpt><trkpt lat="44.9757511" lon="9.2087356"><ele>338.0</ele><time>2026-03-21T10:11:12.132Z</time></trkpt><trkpt lat="44.9756493" lon="9.2088274"><ele>338.0</ele><time>2026-03-21T10:11:13.132Z</time></trkpt><trkpt lat="44.9755306" lon="9.2089078"><ele>335.5</ele><time>2026-03-21T10:11:14.132Z</time></trkpt><trkpt lat="44.9753948" lon="9.2089542"><ele>333.0</ele><time>2026-03-21T10:11:15.131Z</time></trkpt><trkpt lat="44.9752451" lon="9.2089504"><ele>330.5</ele><time>2026-03-21T10:11:16.131Z</time></trkpt><trkpt lat="44.9751005" lon="9.2089103"><ele>328.0</ele><time>2026-03-21T10:11:17.132Z</time></trkpt><trkpt lat="44.9749547" lon="9.2088648"><ele>325.5</ele><time>2026-03-21T10:11:18.131Z</time></trkpt><trkpt lat="44.9748147" lon="9.2088209"><ele>323.0</ele><time>2026-03-21T10:11:19.131Z</time></trkpt><trkpt lat="44.9746813" lon="9.2087821"><ele>320.5</ele><time>2026-03-21T10:11:20.132Z</time></trkpt><trkpt lat="44.9745574" lon="9.2087688"><ele>318.0</ele><time>2026-03-21T10:11:21.132Z</time></trkpt><trkpt lat="44.9744355" lon="9.2088042"><ele>318.0</ele><time>2026-03-21T10:11:22.132Z</time></trkpt><trkpt lat="44.9743261" lon="9.2088697"><ele>318.0</ele><time>2026-03-21T10:11:23.132Z</time></trkpt><trkpt lat="44.9742232" lon="9.2089313"><ele>318.0</ele><time>2026-03-21T10:11:24.131Z</time></trkpt><trkpt lat="44.9741248" lon="9.2089864"><ele>318.0</ele><time>2026-03-21T10:11:25.132Z</time></trkpt><trkpt lat="44.9740408" lon="9.2090479"><ele>318.0</ele><time>2026-03-21T10:11:26.131Z</time></trkpt><trkpt lat="44.9739865" lon="9.2090957"><ele>318.0</ele><time>2026-03-21T10:11:27.131Z</time></trkpt><trkpt lat="44.9739168" lon="9.2091846"><ele>318.0</ele><time>2026-03-21T10:11:29.132Z</time></trkpt><trkpt lat="44.9738684" lon="9.2092872"><ele>318.0</ele><time>2026-03-21T10:11:31.131Z</time></trkpt><trkpt lat="44.9738247" lon="9.2093945"><ele>318.0</ele><time>2026-03-21T10:11:33.131Z</time></trkpt><trkpt lat="44.9737928" lon="9.2094808"><ele>318.0</ele><time>2026-03-21T10:11:35.132Z</time></trkpt><trkpt lat="44.9738641" lon="9.2093645"><ele>318.0</ele><time>2026-03-21T10:11:42.132Z</time></trkpt><trkpt lat="44.973905" lon="9.2092662"><ele>318.0</ele><time>2026-03-21T10:11:43.131Z</time></trkpt><trkpt lat="44.9739787" lon="9.2091354"><ele>318.0</ele><time>2026-03-21T10:11:45.132Z</time></trkpt><trkpt lat="44.9740081" lon="9.2090181"><ele>318.0</ele><time>2026-03-21T10:11:47.131Z</time></trkpt><trkpt lat="44.9739564" lon="9.2088687"><ele>318.0</ele><time>2026-03-21T10:11:49.132Z</time></trkpt><trkpt lat="44.9739085" lon="9.208794"><ele>318.0</ele><time>2026-03-21T10:11:50.131Z</time></trkpt><trkpt lat="44.9738584" lon="9.2087085"><ele>317.6666666666667</ele><time>2026-03-21T10:11:51.131Z</time></trkpt><trkpt lat="44.9738132" lon="9.2086088"><ele>317.3333333333333</ele><time>2026-03-21T10:11:52.131Z</time></trkpt><trkpt lat="44.9737751" lon="9.2085074"><ele>317.0</ele><time>2026-03-21T10:11:53.132Z</time></trkpt><trkpt lat="44.9737462" lon="9.2084033"><ele>316.66666666666663</ele><time>2026-03-21T10:11:54.132Z</time></trkpt><trkpt lat="44.973752" lon="9.2082978"><ele>316.3333333333333</ele><time>2026-03-21T10:11:55.132Z</time></trkpt><trkpt lat="44.9737834" lon="9.2081945"><ele>316.0</ele><time>2026-03-21T10:11:56.132Z</time></trkpt><trkpt lat="44.9738208" lon="9.2080704"><ele>314.8</ele><time>2026-03-21T10:11:57.132Z</time></trkpt><trkpt lat="44.9738511" lon="9.2079384"><ele>313.6</ele><time>2026-03-21T10:11:58.131Z</time></trkpt><trkpt lat="44.973871" lon="9.2078013"><ele>312.4</ele><time>2026-03-21T10:11:59.132Z</time></trkpt><trkpt lat="44.9738835" lon="9.2076648"><ele>311.2</ele><time>2026-03-21T10:12:00.132Z</time></trkpt><trkpt lat="44.9738787" lon="9.2075262"><ele>310.0</ele><time>2026-03-21T10:12:01.131Z</time></trkpt><trkpt lat="44.9738457" lon="9.2073879"><ele>309.0</ele><time>2026-03-21T10:12:02.131Z</time></trkpt><trkpt lat="44.9737878" lon="9.2072263"><ele>308.0</ele><time>2026-03-21T10:12:03.132Z</time></trkpt><trkpt lat="44.9737393" lon="9.2070459"><ele>307.0</ele><time>2026-03-21T10:12:04.132Z</time></trkpt><trkpt lat="44.9737132" lon="9.2068634"><ele>306.0</ele><time>2026-03-21T10:12:05.131Z</time></trkpt><trkpt lat="44.9736989" lon="9.2066873"><ele>306.0</ele><time>2026-03-21T10:12:06.132Z</time></trkpt><trkpt lat="44.9736752" lon="9.2065204"><ele>306.0</ele><time>2026-03-21T10:12:07.131Z</time></trkpt><trkpt lat="44.9736193" lon="9.206373"><ele>306.0</ele><time>2026-03-21T10:12:08.131Z</time></trkpt><trkpt lat="44.9735183" lon="9.206235"><ele>306.0</ele><time>2026-03-21T10:12:09.132Z</time></trkpt><trkpt lat="44.9733891" lon="9.206086"><ele>301.6666666666667</ele><time>2026-03-21T10:12:10.132Z</time></trkpt><trkpt lat="44.973268" lon="9.205941"><ele>297.33333333333337</ele><time>2026-03-21T10:12:11.131Z</time></trkpt><trkpt lat="44.9731509" lon="9.2058008"><ele>293.0</ele><time>2026-03-21T10:12:12.132Z</time></trkpt><trkpt lat="44.9730374" lon="9.2056683"><ele>292.0</ele><time>2026-03-21T10:12:13.132Z</time></trkpt><trkpt lat="44.9729409" lon="9.2055335"><ele>291.0</ele><time>2026-03-21T10:12:14.131Z</time></trkpt><trkpt lat="44.9728684" lon="9.2053829"><ele>290.0</ele><time>2026-03-21T10:12:15.132Z</time></trkpt><trkpt lat="44.9728133" lon="9.2052035"><ele>289.0</ele><time>2026-03-21T10:12:16.131Z</time></trkpt><trkpt lat="44.972758" lon="9.205011"><ele>287.75</ele><time>2026-03-21T10:12:17.131Z</time></trkpt><trkpt lat="44.9726895" lon="9.2048224"><ele>286.5</ele><time>2026-03-21T10:12:18.132Z</time></trkpt><trkpt lat="44.9726116" lon="9.2046472"><ele>285.25</ele><time>2026-03-21T10:12:19.132Z</time></trkpt><trkpt lat="44.9725241" lon="9.2044843"><ele>284.0</ele><time>2026-03-21T10:12:20.131Z</time></trkpt><trkpt lat="44.9724257" lon="9.2043369"><ele>281.33333333333337</ele><time>2026-03-21T10:12:21.131Z</time></trkpt><trkpt lat="44.9723056" lon="9.2042251"><ele>278.6666666666667</ele><time>2026-03-21T10:12:22.132Z</time></trkpt><trkpt lat="44.972156" lon="9.2041545"><ele>276.0</ele><time>2026-03-21T10:12:23.132Z</time></trkpt><trkpt lat="44.9719746" lon="9.2041243"><ele>276.0</ele><time>2026-03-21T10:12:24.131Z</time></trkpt><trkpt lat="44.9717788" lon="9.2041034"><ele>276.0</ele><time>2026-03-21T10:12:25.132Z</time></trkpt><trkpt lat="44.9715841" lon="9.2040821"><ele>276.0</ele><time>2026-03-21T10:12:26.131Z</time></trkpt><trkpt lat="44.9713893" lon="9.2040625"><ele>273.0</ele><time>2026-03-21T10:12:27.131Z</time></trkpt><trkpt lat="44.9711985" lon="9.2040483"><ele>270.0</ele><time>2026-03-21T10:12:28.132Z</time></trkpt><trkpt lat="44.97101" lon="9.2040311"><ele>267.0</ele><time>2026-03-21T10:12:29.131Z</time></trkpt><trkpt lat="44.9708233" lon="9.2040144"><ele>262.3333333333333</ele><time>2026-03-21T10:12:30.131Z</time></trkpt><trkpt lat="44.9706363" lon="9.2039993"><ele>257.66666666666663</ele><time>2026-03-21T10:12:31.131Z</time></trkpt><trkpt lat="44.9704484" lon="9.2039849"><ele>253.0</ele><time>2026-03-21T10:12:32.132Z</time></trkpt><trkpt lat="44.9702637" lon="9.2039793"><ele>251.0</ele><time>2026-03-21T10:12:33.132Z</time></trkpt><trkpt lat="44.9700798" lon="9.2039724"><ele>249.0</ele><time>2026-03-21T10:12:34.132Z</time></trkpt><trkpt lat="44.9699028" lon="9.2039664"><ele>247.0</ele><time>2026-03-21T10:12:35.131Z</time></trkpt><trkpt lat="44.96973" lon="9.2039396"><ele>243.33333333333331</ele><time>2026-03-21T10:12:36.132Z</time></trkpt><trkpt lat="44.9695673" lon="9.2038836"><ele>239.66666666666669</ele><time>2026-03-21T10:12:37.131Z</time></trkpt><trkpt lat="44.9694129" lon="9.203815"><ele>236.0</ele><time>2026-03-21T10:12:38.132Z</time></trkpt><trkpt lat="44.9692674" lon="9.2037251"><ele>233.0</ele><time>2026-03-21T10:12:39.131Z</time></trkpt><trkpt lat="44.9691233" lon="9.2036374"><ele>230.0</ele><time>2026-03-21T10:12:40.132Z</time></trkpt><trkpt lat="44.9689781" lon="9.2035605"><ele>227.0</ele><time>2026-03-21T10:12:41.131Z</time></trkpt><trkpt lat="44.9688352" lon="9.2034966"><ele>227.0</ele><time>2026-03-21T10:12:42.131Z</time></trkpt><trkpt lat="44.9686827" lon="9.2034891"><ele>227.0</ele><time>2026-03-21T10:12:43.131Z</time></trkpt><trkpt lat="44.9685313" lon="9.2034859"><ele>227.0</ele><time>2026-03-21T10:12:44.131Z</time></trkpt><trkpt lat="44.9683803" lon="9.2034793"><ele>225.5</ele><time>2026-03-21T10:12:45.132Z</time></trkpt><trkpt lat="44.9682338" lon="9.203477"><ele>224.0</ele><time>2026-03-21T10:12:46.132Z</time></trkpt><trkpt lat="44.9680856" lon="9.2034724"><ele>222.5</ele><time>2026-03-21T10:12:47.132Z</time></trkpt><trkpt lat="44.9679368" lon="9.2034681"><ele>221.0</ele><time>2026-03-21T10:12:48.131Z</time></trkpt><trkpt lat="44.9677899" lon="9.2034539"><ele>221.0</ele><time>2026-03-21T10:12:49.131Z</time></trkpt><trkpt lat="44.9676449" lon="9.2034415"><ele>221.0</ele><time>2026-03-21T10:12:50.131Z</time></trkpt><trkpt lat="44.9675033" lon="9.203439"><ele>221.0</ele><time>2026-03-21T10:12:51.132Z</time></trkpt><trkpt lat="44.9673679" lon="9.2034511"><ele>221.0</ele><time>2026-03-21T10:12:52.131Z</time></trkpt><trkpt lat="44.9672376" lon="9.203481"><ele>218.5</ele><time>2026-03-21T10:12:53.132Z</time></trkpt><trkpt lat="44.9671215" lon="9.2035293"><ele>216.0</ele><time>2026-03-21T10:12:54.131Z</time></trkpt><trkpt lat="44.9670055" lon="9.2035909"><ele>213.5</ele><time>2026-03-21T10:12:55.132Z</time></trkpt><trkpt lat="44.9668964" lon="9.2036503"><ele>211.0</ele><time>2026-03-21T10:12:56.132Z</time></trkpt><trkpt lat="44.9667924" lon="9.2037124"><ele>209.60000000000002</ele><time>2026-03-21T10:12:57.131Z</time></trkpt><trkpt lat="44.9666926" lon="9.2037681"><ele>208.2</ele><time>2026-03-21T10:12:58.132Z</time></trkpt><trkpt lat="44.9665995" lon="9.2038174"><ele>206.8</ele><time>2026-03-21T10:12:59.131Z</time></trkpt><trkpt lat="44.9665074" lon="9.2038635"><ele>205.39999999999998</ele><time>2026-03-21T10:13:00.132Z</time></trkpt><trkpt lat="44.966428" lon="9.2039006"><ele>204.0</ele><time>2026-03-21T10:13:01.131Z</time></trkpt><trkpt lat="44.9663571" lon="9.2039175"><ele>204.0</ele><time>2026-03-21T10:13:02.132Z</time></trkpt><trkpt lat="44.9662524" lon="9.2038931"><ele>204.0</ele><time>2026-03-21T10:13:04.131Z</time></trkpt><trkpt lat="44.9661842" lon="9.2038366"><ele>204.0</ele><time>2026-03-21T10:13:15.131Z</time></trkpt><trkpt lat="44.9662143" lon="9.2037499"><ele>204.0</ele><time>2026-03-21T10:13:17.132Z</time></trkpt><trkpt lat="44.9662937" lon="9.2036132"><ele>204.0</ele><time>2026-03-21T10:13:19.131Z</time></trkpt><trkpt lat="44.9663425" lon="9.2035285"><ele>204.0</ele><time>2026-03-21T10:13:20.132Z</time></trkpt><trkpt lat="44.9664033" lon="9.20343"><ele>204.0</ele><time>2026-03-21T10:13:21.132Z</time></trkpt><trkpt lat="44.9664622" lon="9.2033302"><ele>204.0</ele><time>2026-03-21T10:13:22.132Z</time></trkpt><trkpt lat="44.9665233" lon="9.2032297"><ele>204.0</ele><time>2026-03-21T10:13:23.132Z</time></trkpt><trkpt lat="44.9665861" lon="9.2031365"><ele>204.0</ele><time>2026-03-21T10:13:24.132Z</time></trkpt><trkpt lat="44.9666521" lon="9.2030462"><ele>204.2</ele><time>2026-03-21T10:13:25.132Z</time></trkpt><trkpt lat="44.9667703" lon="9.2028638"><ele>204.39999999999998</ele><time>2026-03-21T10:13:27.131Z</time></trkpt><trkpt lat="44.9668215" lon="9.2027754"><ele>204.6</ele><time>2026-03-21T10:13:28.131Z</time></trkpt><trkpt lat="44.9668691" lon="9.2026949"><ele>204.8</ele><time>2026-03-21T10:13:29.131Z</time></trkpt><trkpt lat="44.966943" lon="9.2025865"><ele>205.0</ele><time>2026-03-21T10:13:31.132Z</time></trkpt><trkpt lat="44.9669674" lon="9.2024985"><ele>204.99999999999997</ele><time>2026-03-21T10:13:35.132Z</time></trkpt><trkpt lat="44.9669141" lon="9.2025553"><ele>205.0</ele><time>2026-03-21T10:13:38.132Z</time></trkpt><trkpt lat="44.9668625" lon="9.2026435"><ele>205.0</ele><time>2026-03-21T10:13:40.132Z</time></trkpt><trkpt lat="44.9667826" lon="9.2027794"><ele>205.0</ele><time>2026-03-21T10:13:42.132Z</time></trkpt><trkpt lat="44.9667297" lon="9.2028742"><ele>204.99999999999997</ele><time>2026-03-21T10:13:43.132Z</time></trkpt><trkpt lat="44.9666786" lon="9.2029628"><ele>205.0</ele><time>2026-03-21T10:13:44.131Z</time></trkpt><trkpt lat="44.966629" lon="9.2030442"><ele>204.83333333333331</ele><time>2026-03-21T10:13:45.132Z</time></trkpt><trkpt lat="44.9665666" lon="9.2031448"><ele>204.66666666666666</ele><time>2026-03-21T10:13:46.131Z</time></trkpt><trkpt lat="44.9665139" lon="9.2032232"><ele>204.5</ele><time>2026-03-21T10:13:47.132Z</time></trkpt><trkpt lat="44.966464" lon="9.2033024"><ele>204.33333333333331</ele><time>2026-03-21T10:13:48.132Z</time></trkpt><trkpt lat="44.9664085" lon="9.2033981"><ele>204.16666666666666</ele><time>2026-03-21T10:13:49.132Z</time></trkpt><trkpt lat="44.9663528" lon="9.203506"><ele>204.0</ele><time>2026-03-21T10:13:50.132Z</time></trkpt><trkpt lat="44.9663019" lon="9.2035939"><ele>204.0</ele><time>2026-03-21T10:13:51.131Z</time></trkpt><trkpt lat="44.9662559" lon="9.2036649"><ele>204.0</ele><time>2026-03-21T10:13:52.131Z</time></trkpt><trkpt lat="44.9661829" lon="9.2037362"><ele>204.0</ele><time>2026-03-21T10:13:54.131Z</time></trkpt><trkpt lat="44.9661097" lon="9.203718"><ele>204.0</ele><time>2026-03-21T10:13:56.132Z</time></trkpt><trkpt lat="44.9660154" lon="9.2035997"><ele>204.0</ele><time>2026-03-21T10:13:58.132Z</time></trkpt><trkpt lat="44.9659832" lon="9.2035085"><ele>204.0</ele><time>2026-03-21T10:13:59.131Z</time></trkpt><trkpt lat="44.9659355" lon="9.203415"><ele>204.0</ele><time>2026-03-21T10:14:00.131Z</time></trkpt><trkpt lat="44.9658893" lon="9.2033366"><ele>204.0</ele><time>2026-03-21T10:14:01.132Z</time></trkpt><trkpt lat="44.9658406" lon="9.2032561"><ele>204.0</ele><time>2026-03-21T10:14:02.132Z</time></trkpt><trkpt lat="44.9657984" lon="9.2031592"><ele>204.0</ele><time>2026-03-21T10:14:03.132Z</time></trkpt><trkpt lat="44.9657579" lon="9.2030647"><ele>204.0</ele><time>2026-03-21T10:14:04.132Z</time></trkpt><trkpt lat="44.9657082" lon="9.2029723"><ele>204.0</ele><time>2026-03-21T10:14:05.132Z</time></trkpt><trkpt lat="44.9656541" lon="9.2028841"><ele>202.66666666666666</ele><time>2026-03-21T10:14:06.132Z</time></trkpt><trkpt lat="44.9655996" lon="9.2028003"><ele>201.33333333333331</ele><time>2026-03-21T10:14:07.132Z</time></trkpt><trkpt lat="44.9655539" lon="9.2027135"><ele>200.0</ele><time>2026-03-21T10:14:08.132Z</time></trkpt><trkpt lat="44.9655066" lon="9.2026112"><ele>198.66666666666666</ele><time>2026-03-21T10:14:09.131Z</time></trkpt><trkpt lat="44.9654587" lon="9.202514"><ele>197.33333333333331</ele><time>2026-03-21T10:14:10.131Z</time></trkpt><trkpt lat="44.9654073" lon="9.2024115"><ele>196.0</ele><time>2026-03-21T10:14:11.131Z</time></trkpt><trkpt lat="44.9653533" lon="9.2023078"><ele>195.0</ele><time>2026-03-21T10:14:12.131Z</time></trkpt><trkpt lat="44.9653116" lon="9.2021918"><ele>194.0</ele><time>2026-03-21T10:14:13.132Z</time></trkpt><trkpt lat="44.9652651" lon="9.2020678"><ele>193.0</ele><time>2026-03-21T10:14:14.132Z</time></trkpt><trkpt lat="44.9652243" lon="9.2019494"><ele>192.0</ele><time>2026-03-21T10:14:15.131Z</time></trkpt><trkpt lat="44.9651881" lon="9.201846"><ele>191.0</ele><time>2026-03-21T10:14:16.132Z</time></trkpt><trkpt lat="44.9651593" lon="9.2017346"><ele>191.0</ele><time>2026-03-21T10:14:17.131Z</time></trkpt><trkpt lat="44.9651346" lon="9.2016186"><ele>191.0</ele><time>2026-03-21T10:14:18.131Z</time></trkpt><trkpt lat="44.9651264" lon="9.2015087"><ele>191.0</ele><time>2026-03-21T10:14:19.131Z</time></trkpt><trkpt lat="44.9651243" lon="9.2014097"><ele>191.0</ele><time>2026-03-21T10:14:20.131Z</time></trkpt><trkpt lat="44.9651275" lon="9.2013171"><ele>191.0</ele><time>2026-03-21T10:14:21.132Z</time></trkpt><trkpt lat="44.9651439" lon="9.2011806"><ele>191.0</ele><time>2026-03-21T10:14:23.131Z</time></trkpt><trkpt lat="44.9651634" lon="9.2010921"><ele>191.0</ele><time>2026-03-21T10:14:26.131Z</time></trkpt><trkpt lat="44.9651289" lon="9.2010089"><ele>191.0</ele><time>2026-03-21T10:26:59.132Z</time></trkpt><trkpt lat="44.9651479" lon="9.2009128"><ele>191.0</ele><time>2026-03-21T10:27:23.132Z</time></trkpt><trkpt lat="44.9651571" lon="9.200777"><ele>191.0</ele><time>2026-03-21T10:27:26.131Z</time></trkpt><trkpt lat="44.9651649" lon="9.2006832"><ele>191.0</ele><time>2026-03-21T10:27:28.132Z</time></trkpt><trkpt lat="44.965167" lon="9.2005909"><ele>191.0</ele><time>2026-03-21T10:27:30.131Z</time></trkpt><trkpt lat="44.9651718" lon="9.200499"><ele>191.0</ele><time>2026-03-21T10:27:32.131Z</time></trkpt><trkpt lat="44.9651709" lon="9.2003676"><ele>191.0</ele><time>2026-03-21T10:27:35.132Z</time></trkpt><trkpt lat="44.9651627" lon="9.2002396"><ele>191.0</ele><time>2026-03-21T10:27:38.131Z</time></trkpt><trkpt lat="44.9651499" lon="9.2001498"><ele>191.0</ele><time>2026-03-21T10:27:40.132Z</time></trkpt><trkpt lat="44.9651366" lon="9.2000562"><ele>191.0</ele><time>2026-03-21T10:27:42.131Z</time></trkpt><trkpt lat="44.9651182" lon="9.1999627"><ele>191.0</ele><time>2026-03-21T10:27:44.132Z</time></trkpt><trkpt lat="44.9650986" lon="9.1998716"><ele>191.0</ele><time>2026-03-21T10:27:46.131Z</time></trkpt><trkpt lat="44.965081" lon="9.1997833"><ele>191.0</ele><time>2026-03-21T10:27:48.131Z</time></trkpt><trkpt lat="44.9650626" lon="9.1996938"><ele>191.2857142857143</ele><time>2026-03-21T10:27:50.131Z</time></trkpt><trkpt lat="44.9650427" lon="9.1996025"><ele>191.57142857142856</ele><time>2026-03-21T10:27:52.131Z</time></trkpt><trkpt lat="44.9650249" lon="9.199511"><ele>191.85714285714286</ele><time>2026-03-21T10:27:54.132Z</time></trkpt><trkpt lat="44.9650049" lon="9.1994184"><ele>192.14285714285717</ele><time>2026-03-21T10:27:56.131Z</time></trkpt><trkpt lat="44.9649854" lon="9.199331"><ele>192.42857142857144</ele><time>2026-03-21T10:27:58.131Z</time></trkpt><trkpt lat="44.9649644" lon="9.1992418"><ele>192.71428571428572</ele><time>2026-03-21T10:28:00.131Z</time></trkpt><trkpt lat="44.964943" lon="9.1991473"><ele>193.0</ele><time>2026-03-21T10:28:02.131Z</time></trkpt><trkpt lat="44.9649139" lon="9.1990575"><ele>195.85714285714286</ele><time>2026-03-21T10:28:04.131Z</time></trkpt><trkpt lat="44.9648729" lon="9.1989813"><ele>198.71428571428572</ele><time>2026-03-21T10:28:06.131Z</time></trkpt><trkpt lat="44.9648143" lon="9.1989319"><ele>201.57142857142856</ele><time>2026-03-21T10:28:08.131Z</time></trkpt><trkpt lat="44.9647477" lon="9.198937"><ele>204.42857142857144</ele><time>2026-03-21T10:28:10.131Z</time></trkpt><trkpt lat="44.9646929" lon="9.1990005"><ele>207.28571428571428</ele><time>2026-03-21T10:28:12.131Z</time></trkpt><trkpt lat="44.9646538" lon="9.199088"><ele>210.14285714285714</ele><time>2026-03-21T10:28:14.132Z</time></trkpt><trkpt lat="44.9646127" lon="9.199172"><ele>213.0</ele><time>2026-03-21T10:28:16.131Z</time></trkpt><trkpt lat="44.9645617" lon="9.1992501"><ele>213.0</ele><time>2026-03-21T10:28:18.131Z</time></trkpt><trkpt lat="44.9644898" lon="9.1993199"><ele>213.0</ele><time>2026-03-21T10:28:20.131Z</time></trkpt><trkpt lat="44.9644137" lon="9.1993806"><ele>213.0</ele><time>2026-03-21T10:28:22.132Z</time></trkpt><trkpt lat="44.9643317" lon="9.19945"><ele>213.0</ele><time>2026-03-21T10:28:24.132Z</time></trkpt><trkpt lat="44.9642503" lon="9.1995321"><ele>213.0</ele><time>2026-03-21T10:28:26.132Z</time></trkpt><trkpt lat="44.9641595" lon="9.1996037"><ele>218.0</ele><time>2026-03-21T10:28:28.131Z</time></trkpt><trkpt lat="44.9640509" lon="9.1996265"><ele>223.0</ele><time>2026-03-21T10:28:30.131Z</time></trkpt><trkpt lat="44.9639403" lon="9.1995956"><ele>228.0</ele><time>2026-03-21T10:28:32.132Z</time></trkpt><trkpt lat="44.9638346" lon="9.1995567"><ele>233.0</ele><time>2026-03-21T10:28:34.132Z</time></trkpt><trkpt lat="44.9637353" lon="9.1995229"><ele>238.0</ele><time>2026-03-21T10:28:36.131Z</time></trkpt><trkpt lat="44.9636518" lon="9.1994831"><ele>237.99999999999997</ele><time>2026-03-21T10:28:38.131Z</time></trkpt><trkpt lat="44.9636147" lon="9.1994035"><ele>238.0</ele><time>2026-03-21T10:28:40.131Z</time></trkpt><trkpt lat="44.9636556" lon="9.1993021"><ele>238.0</ele><time>2026-03-21T10:28:43.132Z</time></trkpt><trkpt lat="44.9636984" lon="9.1992012"><ele>238.0</ele><time>2026-03-21T10:28:52.131Z</time></trkpt><trkpt lat="44.9636916" lon="9.1990964"><ele>237.99999999999997</ele><time>2026-03-21T10:28:54.131Z</time></trkpt><trkpt lat="44.9635987" lon="9.1990277"><ele>238.0</ele><time>2026-03-21T10:28:56.132Z</time></trkpt><trkpt lat="44.9635188" lon="9.1989428"><ele>237.33333333333331</ele><time>2026-03-21T10:28:58.131Z</time></trkpt><trkpt lat="44.9634149" lon="9.1988484"><ele>236.66666666666666</ele><time>2026-03-21T10:29:00.131Z</time></trkpt><trkpt lat="44.9633568" lon="9.1988039"><ele>236.0</ele><time>2026-03-21T10:29:01.131Z</time></trkpt><trkpt lat="44.9632964" lon="9.1987518"><ele>235.33333333333331</ele><time>2026-03-21T10:29:02.132Z</time></trkpt><trkpt lat="44.9632339" lon="9.1986903"><ele>234.66666666666666</ele><time>2026-03-21T10:29:03.132Z</time></trkpt><trkpt lat="44.9631657" lon="9.1986311"><ele>234.0</ele><time>2026-03-21T10:29:04.131Z</time></trkpt><trkpt lat="44.9630961" lon="9.1985723"><ele>237.0</ele><time>2026-03-21T10:29:05.132Z</time></trkpt><trkpt lat="44.9630258" lon="9.1985162"><ele>240.0</ele><time>2026-03-21T10:29:06.131Z</time></trkpt><trkpt lat="44.9629562" lon="9.1984591"><ele>243.0</ele><time>2026-03-21T10:29:07.131Z</time></trkpt><trkpt lat="44.9628859" lon="9.1983997"><ele>246.0</ele><time>2026-03-21T10:29:08.131Z</time></trkpt><trkpt lat="44.9628112" lon="9.1983379"><ele>249.0</ele><time>2026-03-21T10:29:09.132Z</time></trkpt><trkpt lat="44.9627378" lon="9.1982803"><ele>252.0</ele><time>2026-03-21T10:29:10.132Z</time></trkpt><trkpt lat="44.962662" lon="9.1982235"><ele>252.0</ele><time>2026-03-21T10:29:11.132Z</time></trkpt><trkpt lat="44.9625843" lon="9.1981717"><ele>252.0</ele><time>2026-03-21T10:29:12.132Z</time></trkpt><trkpt lat="44.9625001" lon="9.1981198"><ele>252.0</ele><time>2026-03-21T10:29:13.131Z</time></trkpt><trkpt lat="44.9624183" lon="9.1980754"><ele>252.0</ele><time>2026-03-21T10:29:14.132Z</time></trkpt><trkpt lat="44.9623357" lon="9.1980235"><ele>252.0</ele><time>2026-03-21T10:29:15.132Z</time></trkpt><trkpt lat="44.9622603" lon="9.1979681"><ele>252.0</ele><time>2026-03-21T10:29:16.132Z</time></trkpt><trkpt lat="44.9621925" lon="9.1979024"><ele>255.33333333333334</ele><time>2026-03-21T10:29:17.132Z</time></trkpt><trkpt lat="44.9621332" lon="9.1978215"><ele>258.6666666666667</ele><time>2026-03-21T10:29:18.132Z</time></trkpt><trkpt lat="44.9620742" lon="9.1977399"><ele>262.0</ele><time>2026-03-21T10:29:19.131Z</time></trkpt><trkpt lat="44.9620193" lon="9.1976469"><ele>265.33333333333337</ele><time>2026-03-21T10:29:20.131Z</time></trkpt><trkpt lat="44.9619666" lon="9.1975494"><ele>268.6666666666667</ele><time>2026-03-21T10:29:21.131Z</time></trkpt><trkpt lat="44.9619117" lon="9.1974541"><ele>272.0</ele><time>2026-03-21T10:29:22.132Z</time></trkpt><trkpt lat="44.9618623" lon="9.1973561"><ele>272.5</ele><time>2026-03-21T10:29:23.132Z</time></trkpt><trkpt lat="44.9618197" lon="9.1972516"><ele>273.0</ele><time>2026-03-21T10:29:24.131Z</time></trkpt><trkpt lat="44.9617846" lon="9.1971488"><ele>273.5</ele><time>2026-03-21T10:29:25.131Z</time></trkpt><trkpt lat="44.9617506" lon="9.1970418"><ele>274.0</ele><time>2026-03-21T10:29:26.131Z</time></trkpt><trkpt lat="44.9617178" lon="9.196935"><ele>274.5</ele><time>2026-03-21T10:29:27.132Z</time></trkpt><trkpt lat="44.9616813" lon="9.1968273"><ele>275.0</ele><time>2026-03-21T10:29:28.132Z</time></trkpt><trkpt lat="44.9616453" lon="9.1967247"><ele>278.2</ele><time>2026-03-21T10:29:29.131Z</time></trkpt><trkpt lat="44.9616015" lon="9.1966189"><ele>281.4</ele><time>2026-03-21T10:29:30.131Z</time></trkpt><trkpt lat="44.9615588" lon="9.1965074"><ele>284.6</ele><time>2026-03-21T10:29:31.131Z</time></trkpt><trkpt lat="44.9615105" lon="9.1964008"><ele>287.8</ele><time>2026-03-21T10:29:32.132Z</time></trkpt><trkpt lat="44.9614539" lon="9.1962868"><ele>291.0</ele><time>2026-03-21T10:29:33.132Z</time></trkpt><trkpt lat="44.9613941" lon="9.1961682"><ele>292.6</ele><time>2026-03-21T10:29:34.131Z</time></trkpt><trkpt lat="44.9613419" lon="9.1960495"><ele>294.20000000000005</ele><time>2026-03-21T10:29:35.131Z</time></trkpt><trkpt lat="44.9612945" lon="9.1959264"><ele>295.79999999999995</ele><time>2026-03-21T10:29:36.132Z</time></trkpt><trkpt lat="44.9612495" lon="9.195794"><ele>297.4</ele><time>2026-03-21T10:29:37.131Z</time></trkpt><trkpt lat="44.96121" lon="9.1956578"><ele>299.0</ele><time>2026-03-21T10:29:38.132Z</time></trkpt><trkpt lat="44.9611737" lon="9.1955196"><ele>299.2</ele><time>2026-03-21T10:29:39.132Z</time></trkpt><trkpt lat="44.9611346" lon="9.1953808"><ele>299.4</ele><time>2026-03-21T10:29:40.132Z</time></trkpt><trkpt lat="44.9610985" lon="9.1952365"><ele>299.6</ele><time>2026-03-21T10:29:41.132Z</time></trkpt><trkpt lat="44.9610646" lon="9.1950862"><ele>299.8</ele><time>2026-03-21T10:29:42.131Z</time></trkpt><trkpt lat="44.9610288" lon="9.1949336"><ele>300.0</ele><time>2026-03-21T10:29:43.132Z</time></trkpt><trkpt lat="44.9609936" lon="9.1947826"><ele>298.6</ele><time>2026-03-21T10:29:44.131Z</time></trkpt><trkpt lat="44.9609515" lon="9.1946353"><ele>297.2</ele><time>2026-03-21T10:29:45.132Z</time></trkpt><trkpt lat="44.9608941" lon="9.1945028"><ele>295.8</ele><time>2026-03-21T10:29:46.131Z</time></trkpt><trkpt lat="44.9608209" lon="9.1943999"><ele>294.4</ele><time>2026-03-21T10:29:47.132Z</time></trkpt><trkpt lat="44.9607436" lon="9.194324"><ele>293.0</ele><time>2026-03-21T10:29:48.132Z</time></trkpt><trkpt lat="44.960674" lon="9.1942685"><ele>298.2</ele><time>2026-03-21T10:29:49.131Z</time></trkpt><trkpt lat="44.960596" lon="9.1942326"><ele>303.4</ele><time>2026-03-21T10:29:50.131Z</time></trkpt><trkpt lat="44.9605164" lon="9.1942184"><ele>308.59999999999997</ele><time>2026-03-21T10:29:51.131Z</time></trkpt><trkpt lat="44.9604279" lon="9.1942117"><ele>313.8</ele><time>2026-03-21T10:29:52.131Z</time></trkpt><trkpt lat="44.9603302" lon="9.1942085"><ele>319.0</ele><time>2026-03-21T10:29:53.132Z</time></trkpt><trkpt lat="44.9602223" lon="9.1942021"><ele>319.0</ele><time>2026-03-21T10:29:54.132Z</time></trkpt><trkpt lat="44.960111" lon="9.1941929"><ele>319.0</ele><time>2026-03-21T10:29:55.131Z</time></trkpt><trkpt lat="44.9600011" lon="9.1941775"><ele>319.0</ele><time>2026-03-21T10:29:56.132Z</time></trkpt><trkpt lat="44.9598875" lon="9.1941498"><ele>319.0</ele><time>2026-03-21T10:29:57.132Z</time></trkpt><trkpt lat="44.9597756" lon="9.1941158"><ele>321.0</ele><time>2026-03-21T10:29:58.131Z</time></trkpt><trkpt lat="44.959666" lon="9.1940746"><ele>323.0</ele><time>2026-03-21T10:29:59.132Z</time></trkpt><trkpt lat="44.9595616" lon="9.1940209"><ele>325.0</ele><time>2026-03-21T10:30:00.132Z</time></trkpt><trkpt lat="44.9594631" lon="9.1939566"><ele>327.0</ele><time>2026-03-21T10:30:01.132Z</time></trkpt><trkpt lat="44.9593701" lon="9.1938675"><ele>329.0</ele><time>2026-03-21T10:30:02.131Z</time></trkpt><trkpt lat="44.9592857" lon="9.1937739"><ele>329.0</ele><time>2026-03-21T10:30:03.132Z</time></trkpt><trkpt lat="44.9592025" lon="9.193687"><ele>329.0</ele><time>2026-03-21T10:30:04.132Z</time></trkpt><trkpt lat="44.959121" lon="9.1935987"><ele>329.0</ele><time>2026-03-21T10:30:05.131Z</time></trkpt><trkpt lat="44.9590416" lon="9.1935097"><ele>329.0</ele><time>2026-03-21T10:30:06.131Z</time></trkpt><trkpt lat="44.9589645" lon="9.1934221"><ele>329.0</ele><time>2026-03-21T10:30:07.132Z</time></trkpt><trkpt lat="44.9588911" lon="9.193334"><ele>332.33333333333337</ele><time>2026-03-21T10:30:08.132Z</time></trkpt><trkpt lat="44.9588317" lon="9.193263"><ele>335.6666666666667</ele><time>2026-03-21T10:30:09.131Z</time></trkpt><trkpt lat="44.9587707" lon="9.1931496"><ele>339.0</ele><time>2026-03-21T10:30:11.131Z</time></trkpt><trkpt lat="44.9587848" lon="9.1930172"><ele>342.3333333333333</ele><time>2026-03-21T10:30:14.131Z</time></trkpt><trkpt lat="44.9588069" lon="9.1929255"><ele>345.66666666666663</ele><time>2026-03-21T10:30:25.132Z</time></trkpt><trkpt lat="44.958829" lon="9.1928193"><ele>349.0</ele><time>2026-03-21T10:30:27.132Z</time></trkpt><trkpt lat="44.9588397" lon="9.1927233"><ele>350.3333333333333</ele><time>2026-03-21T10:30:28.132Z</time></trkpt><trkpt lat="44.9588456" lon="9.1926129"><ele>351.66666666666663</ele><time>2026-03-21T10:30:29.132Z</time></trkpt><trkpt lat="44.9588508" lon="9.1925008"><ele>353.0</ele><time>2026-03-21T10:30:30.131Z</time></trkpt><trkpt lat="44.9588629" lon="9.1923913"><ele>354.3333333333333</ele><time>2026-03-21T10:30:31.131Z</time></trkpt><trkpt lat="44.9588769" lon="9.1922881"><ele>355.6666666666667</ele><time>2026-03-21T10:30:32.131Z</time></trkpt><trkpt lat="44.9588938" lon="9.1921845"><ele>357.0</ele><time>2026-03-21T10:30:33.131Z</time></trkpt><trkpt lat="44.9589094" lon="9.1920789"><ele>357.2857142857143</ele><time>2026-03-21T10:30:34.131Z</time></trkpt><trkpt lat="44.9589229" lon="9.1919764"><ele>357.57142857142856</ele><time>2026-03-21T10:30:35.132Z</time></trkpt><trkpt lat="44.9589274" lon="9.1918813"><ele>357.8571428571429</ele><time>2026-03-21T10:30:36.131Z</time></trkpt><trkpt lat="44.9589231" lon="9.1917906"><ele>358.1428571428571</ele><time>2026-03-21T10:30:37.131Z</time></trkpt><trkpt lat="44.9589114" lon="9.1917"><ele>358.42857142857144</ele><time>2026-03-21T10:30:38.131Z</time></trkpt><trkpt lat="44.9588879" lon="9.191612"><ele>358.7142857142857</ele><time>2026-03-21T10:30:39.131Z</time></trkpt><trkpt lat="44.9588528" lon="9.1915307"><ele>359.0</ele><time>2026-03-21T10:30:40.132Z</time></trkpt><trkpt lat="44.9588109" lon="9.1914516"><ele>359.6666666666667</ele><time>2026-03-21T10:30:41.132Z</time></trkpt><trkpt lat="44.9587717" lon="9.1913787"><ele>360.33333333333337</ele><time>2026-03-21T10:30:42.131Z</time></trkpt><trkpt lat="44.9587167" lon="9.1912825"><ele>361.0</ele><time>2026-03-21T10:30:44.132Z</time></trkpt><trkpt lat="44.9586807" lon="9.1911839"><ele>361.6666666666667</ele><time>2026-03-21T10:30:47.132Z</time></trkpt><trkpt lat="44.9586466" lon="9.1910643"><ele>362.3333333333333</ele><time>2026-03-21T10:31:21.131Z</time></trkpt><trkpt lat="44.958627" lon="9.1909381"><ele>363.0</ele><time>2026-03-21T10:31:23.132Z</time></trkpt><trkpt lat="44.9586009" lon="9.1907977"><ele>363.0</ele><time>2026-03-21T10:31:25.132Z</time></trkpt><trkpt lat="44.9585384" lon="9.1906783"><ele>363.0</ele><time>2026-03-21T10:31:27.131Z</time></trkpt><trkpt lat="44.958489" lon="9.1905405"><ele>363.0</ele><time>2026-03-21T10:31:29.132Z</time></trkpt><trkpt lat="44.9584781" lon="9.1903912"><ele>363.0</ele><time>2026-03-21T10:31:31.131Z</time></trkpt><trkpt lat="44.958485" lon="9.1902581"><ele>363.0</ele><time>2026-03-21T10:31:33.132Z</time></trkpt><trkpt lat="44.9584703" lon="9.1901485"><ele>363.8333333333333</ele><time>2026-03-21T10:31:35.131Z</time></trkpt><trkpt lat="44.9584474" lon="9.1900573"><ele>364.6666666666667</ele><time>2026-03-21T10:31:37.131Z</time></trkpt><trkpt lat="44.958407" lon="9.1899654"><ele>365.5</ele><time>2026-03-21T10:31:39.132Z</time></trkpt><trkpt lat="44.958362" lon="9.1898774"><ele>366.33333333333337</ele><time>2026-03-21T10:31:41.132Z</time></trkpt><trkpt lat="44.9582957" lon="9.1897894"><ele>367.1666666666667</ele><time>2026-03-21T10:31:43.132Z</time></trkpt><trkpt lat="44.9582189" lon="9.1897288"><ele>368.0</ele><time>2026-03-21T10:31:45.131Z</time></trkpt><trkpt lat="44.9581327" lon="9.1897036"><ele>363.2</ele><time>2026-03-21T10:31:47.132Z</time></trkpt><trkpt lat="44.9580364" lon="9.1896634"><ele>358.4</ele><time>2026-03-21T10:31:49.131Z</time></trkpt><trkpt lat="44.9579352" lon="9.189607"><ele>353.59999999999997</ele><time>2026-03-21T10:31:51.131Z</time></trkpt><trkpt lat="44.9578299" lon="9.189525"><ele>348.79999999999995</ele><time>2026-03-21T10:31:53.132Z</time></trkpt><trkpt lat="44.9577717" lon="9.1894827"><ele>344.0</ele><time>2026-03-21T10:31:54.132Z</time></trkpt><trkpt lat="44.957719" lon="9.1894311"><ele>344.00000000000006</ele><time>2026-03-21T10:31:55.132Z</time></trkpt><trkpt lat="44.9576675" lon="9.189377"><ele>344.0</ele><time>2026-03-21T10:31:56.132Z</time></trkpt><trkpt lat="44.9576168" lon="9.1893196"><ele>344.0</ele><time>2026-03-21T10:31:57.132Z</time></trkpt><trkpt lat="44.9575592" lon="9.1892567"><ele>344.0</ele><time>2026-03-21T10:31:58.132Z</time></trkpt><trkpt lat="44.9574941" lon="9.1891939"><ele>344.0</ele><time>2026-03-21T10:31:59.132Z</time></trkpt><trkpt lat="44.9574298" lon="9.1891445"><ele>344.00000000000006</ele><time>2026-03-21T10:32:00.131Z</time></trkpt><trkpt lat="44.9573516" lon="9.1890906"><ele>344.0</ele><time>2026-03-21T10:32:01.131Z</time></trkpt><trkpt lat="44.9572753" lon="9.1890352"><ele>341.0</ele><time>2026-03-21T10:32:02.132Z</time></trkpt><trkpt lat="44.9571995" lon="9.1889724"><ele>338.0</ele><time>2026-03-21T10:32:03.131Z</time></trkpt><trkpt lat="44.957129" lon="9.1889065"><ele>335.0</ele><time>2026-03-21T10:32:04.131Z</time></trkpt><trkpt lat="44.9570674" lon="9.1888377"><ele>332.0</ele><time>2026-03-21T10:32:05.132Z</time></trkpt><trkpt lat="44.9570106" lon="9.1887803"><ele>329.0</ele><time>2026-03-21T10:32:06.131Z</time></trkpt><trkpt lat="44.9569609" lon="9.18872"><ele>326.0</ele><time>2026-03-21T10:32:07.132Z</time></trkpt><trkpt lat="44.9568911" lon="9.188599"><ele>326.0</ele><time>2026-03-21T10:32:09.131Z</time></trkpt><trkpt lat="44.9568763" lon="9.1885066"><ele>326.0</ele><time>2026-03-21T10:32:11.131Z</time></trkpt><trkpt lat="44.9568779" lon="9.1883688"><ele>326.0</ele><time>2026-03-21T10:33:11.132Z</time></trkpt><trkpt lat="44.9568964" lon="9.1882276"><ele>326.0</ele><time>2026-03-21T10:33:13.131Z</time></trkpt><trkpt lat="44.9569036" lon="9.1881311"><ele>326.0</ele><time>2026-03-21T10:33:14.131Z</time></trkpt><trkpt lat="44.9569073" lon="9.188018"><ele>326.0</ele><time>2026-03-21T10:33:15.131Z</time></trkpt><trkpt lat="44.9569078" lon="9.1878891"><ele>323.40000000000003</ele><time>2026-03-21T10:33:16.132Z</time></trkpt><trkpt lat="44.9569077" lon="9.1877523"><ele>320.8</ele><time>2026-03-21T10:33:17.131Z</time></trkpt><trkpt lat="44.9569098" lon="9.1876151"><ele>318.20000000000005</ele><time>2026-03-21T10:33:18.131Z</time></trkpt><trkpt lat="44.9569169" lon="9.1874811"><ele>315.6</ele><time>2026-03-21T10:33:19.132Z</time></trkpt><trkpt lat="44.9569159" lon="9.1873514"><ele>313.0</ele><time>2026-03-21T10:33:20.131Z</time></trkpt><trkpt lat="44.9569129" lon="9.1872231"><ele>310.2</ele><time>2026-03-21T10:33:21.132Z</time></trkpt><trkpt lat="44.9568951" lon="9.1870967"><ele>307.4</ele><time>2026-03-21T10:33:22.131Z</time></trkpt><trkpt lat="44.9568755" lon="9.1869643"><ele>304.59999999999997</ele><time>2026-03-21T10:33:23.132Z</time></trkpt><trkpt lat="44.9568507" lon="9.1868291"><ele>301.8</ele><time>2026-03-21T10:33:24.131Z</time></trkpt><trkpt lat="44.9568254" lon="9.1866892"><ele>299.0</ele><time>2026-03-21T10:33:25.132Z</time></trkpt><trkpt lat="44.9567987" lon="9.1865498"><ele>297.59999999999997</ele><time>2026-03-21T10:33:26.132Z</time></trkpt><trkpt lat="44.9567719" lon="9.1864114"><ele>296.2</ele><time>2026-03-21T10:33:27.131Z</time></trkpt><trkpt lat="44.9567442" lon="9.186286"><ele>294.79999999999995</ele><time>2026-03-21T10:33:28.131Z</time></trkpt><trkpt lat="44.9567157" lon="9.1861676"><ele>293.4</ele><time>2026-03-21T10:33:29.131Z</time></trkpt><trkpt lat="44.9566838" lon="9.1860555"><ele>292.0</ele><time>2026-03-21T10:33:30.132Z</time></trkpt><trkpt lat="44.9566519" lon="9.1859442"><ele>292.0</ele><time>2026-03-21T10:33:31.132Z</time></trkpt><trkpt lat="44.9566277" lon="9.1858339"><ele>292.0</ele><time>2026-03-21T10:33:32.131Z</time></trkpt><trkpt lat="44.9566203" lon="9.1857195"><ele>292.0</ele><time>2026-03-21T10:33:33.132Z</time></trkpt><trkpt lat="44.9566174" lon="9.1856259"><ele>292.0</ele><time>2026-03-21T10:33:34.131Z</time></trkpt><trkpt lat="44.9565954" lon="9.1854761"><ele>292.0</ele><time>2026-03-21T10:33:36.131Z</time></trkpt><trkpt lat="44.956544" lon="9.1853655"><ele>292.0</ele><time>2026-03-21T10:33:38.132Z</time></trkpt><trkpt lat="44.9564672" lon="9.1852905"><ele>289.0</ele><time>2026-03-21T10:33:40.132Z</time></trkpt><trkpt lat="44.9564186" lon="9.1851001"><ele>286.0</ele><time>2026-03-21T10:33:42.132Z</time></trkpt><trkpt lat="44.9563907" lon="9.1849615"><ele>283.0</ele><time>2026-03-21T10:33:43.132Z</time></trkpt><trkpt lat="44.9563625" lon="9.1848255"><ele>280.0</ele><time>2026-03-21T10:33:44.132Z</time></trkpt><trkpt lat="44.9563266" lon="9.1846864"><ele>277.8333333333333</ele><time>2026-03-21T10:33:45.132Z</time></trkpt><trkpt lat="44.9563038" lon="9.1845634"><ele>275.66666666666663</ele><time>2026-03-21T10:33:46.132Z</time></trkpt><trkpt lat="44.956284" lon="9.1844557"><ele>273.5</ele><time>2026-03-21T10:33:47.131Z</time></trkpt><trkpt lat="44.9562714" lon="9.1843651"><ele>271.3333333333333</ele><time>2026-03-21T10:33:48.131Z</time></trkpt><trkpt lat="44.9562551" lon="9.184268"><ele>269.1666666666667</ele><time>2026-03-21T10:33:50.132Z</time></trkpt><trkpt lat="44.9562196" lon="9.1841792"><ele>267.0</ele><time>2026-03-21T10:34:08.131Z</time></trkpt><trkpt lat="44.9562582" lon="9.1840788"><ele>264.5</ele><time>2026-03-21T10:34:11.132Z</time></trkpt><trkpt lat="44.9563345" lon="9.1839985"><ele>262.0</ele><time>2026-03-21T10:34:13.132Z</time></trkpt><trkpt lat="44.9564201" lon="9.1839149"><ele>259.5</ele><time>2026-03-21T10:34:15.132Z</time></trkpt><trkpt lat="44.9564937" lon="9.1838313"><ele>257.0</ele><time>2026-03-21T10:34:17.132Z</time></trkpt><trkpt lat="44.9565434" lon="9.1837411"><ele>254.5</ele><time>2026-03-21T10:34:19.132Z</time></trkpt><trkpt lat="44.9565506" lon="9.183646"><ele>252.0</ele><time>2026-03-21T10:34:21.132Z</time></trkpt><trkpt lat="44.9565211" lon="9.1835545"><ele>252.0</ele><time>2026-03-21T10:34:23.132Z</time></trkpt><trkpt lat="44.9564713" lon="9.183487"><ele>252.0</ele><time>2026-03-21T10:34:26.132Z</time></trkpt><trkpt lat="44.9564204" lon="9.1834242"><ele>252.0</ele><time>2026-03-21T10:34:31.132Z</time></trkpt><trkpt lat="44.9563457" lon="9.1833125"><ele>252.0</ele><time>2026-03-21T10:34:33.131Z</time></trkpt><trkpt lat="44.9562974" lon="9.1832472"><ele>252.0</ele><time>2026-03-21T10:34:34.131Z</time></trkpt><trkpt lat="44.9562511" lon="9.1831781"><ele>252.0</ele><time>2026-03-21T10:34:35.131Z</time></trkpt><trkpt lat="44.9561948" lon="9.1831229"><ele>252.0</ele><time>2026-03-21T10:34:36.132Z</time></trkpt><trkpt lat="44.9561461" lon="9.1830615"><ele>248.6</ele><time>2026-03-21T10:34:37.131Z</time></trkpt><trkpt lat="44.95605" lon="9.1829831"><ele>245.2</ele><time>2026-03-21T10:34:39.132Z</time></trkpt><trkpt lat="44.9559387" lon="9.1829567"><ele>241.8</ele><time>2026-03-21T10:34:41.132Z</time></trkpt><trkpt lat="44.9558677" lon="9.1829562"><ele>238.4</ele><time>2026-03-21T10:34:42.132Z</time></trkpt><trkpt lat="44.9557792" lon="9.1829498"><ele>235.0</ele><time>2026-03-21T10:34:43.131Z</time></trkpt><trkpt lat="44.9556898" lon="9.1829257"><ele>234.99999999999997</ele><time>2026-03-21T10:34:44.132Z</time></trkpt><trkpt lat="44.9555965" lon="9.1829141"><ele>235.0</ele><time>2026-03-21T10:34:45.132Z</time></trkpt><trkpt lat="44.9555055" lon="9.1829103"><ele>235.0</ele><time>2026-03-21T10:34:46.131Z</time></trkpt><trkpt lat="44.9554233" lon="9.182919"><ele>235.0</ele><time>2026-03-21T10:34:47.131Z</time></trkpt><trkpt lat="44.9553456" lon="9.1829235"><ele>234.99999999999997</ele><time>2026-03-21T10:34:48.131Z</time></trkpt><trkpt lat="44.9552755" lon="9.1829069"><ele>235.0</ele><time>2026-03-21T10:34:49.131Z</time></trkpt><trkpt lat="44.9552198" lon="9.1828611"><ele>234.99999999999997</ele><time>2026-03-21T10:34:50.131Z</time></trkpt><trkpt lat="44.9551847" lon="9.1827743"><ele>235.0</ele><time>2026-03-21T10:34:51.132Z</time></trkpt><trkpt lat="44.955173" lon="9.1826664"><ele>235.0</ele><time>2026-03-21T10:34:52.132Z</time></trkpt><trkpt lat="44.955156" lon="9.1825541"><ele>235.0</ele><time>2026-03-21T10:34:53.131Z</time></trkpt><trkpt lat="44.9551246" lon="9.1824351"><ele>234.99999999999997</ele><time>2026-03-21T10:34:54.132Z</time></trkpt><trkpt lat="44.9550755" lon="9.1823224"><ele>235.0</ele><time>2026-03-21T10:34:55.131Z</time></trkpt><trkpt lat="44.9550141" lon="9.1822272"><ele>232.0</ele><time>2026-03-21T10:34:56.132Z</time></trkpt><trkpt lat="44.9549454" lon="9.1821393"><ele>229.0</ele><time>2026-03-21T10:34:57.132Z</time></trkpt><trkpt lat="44.9548753" lon="9.182048"><ele>226.0</ele><time>2026-03-21T10:34:58.132Z</time></trkpt><trkpt lat="44.954802" lon="9.1819602"><ele>223.0</ele><time>2026-03-21T10:34:59.132Z</time></trkpt><trkpt lat="44.954728" lon="9.1818702"><ele>220.0</ele><time>2026-03-21T10:35:00.131Z</time></trkpt><trkpt lat="44.95465" lon="9.1817772"><ele>220.0</ele><time>2026-03-21T10:35:01.132Z</time></trkpt><trkpt lat="44.9545771" lon="9.1816758"><ele>220.0</ele><time>2026-03-21T10:35:02.132Z</time></trkpt><trkpt lat="44.9545127" lon="9.1815749"><ele>220.0</ele><time>2026-03-21T10:35:03.131Z</time></trkpt><trkpt lat="44.9544582" lon="9.1814696"><ele>220.0</ele><time>2026-03-21T10:35:04.132Z</time></trkpt><trkpt lat="44.9544132" lon="9.1813683"><ele>220.0</ele><time>2026-03-21T10:35:05.132Z</time></trkpt><trkpt lat="44.9543725" lon="9.1812632"><ele>218.28571428571428</ele><time>2026-03-21T10:35:06.132Z</time></trkpt><trkpt lat="44.9543405" lon="9.1811685"><ele>216.57142857142856</ele><time>2026-03-21T10:35:07.132Z</time></trkpt><trkpt lat="44.9543057" lon="9.1810704"><ele>214.85714285714283</ele><time>2026-03-21T10:35:08.131Z</time></trkpt><trkpt lat="44.9542794" lon="9.1809708"><ele>213.14285714285714</ele><time>2026-03-21T10:35:09.131Z</time></trkpt><trkpt lat="44.9542769" lon="9.1808672"><ele>211.42857142857144</ele><time>2026-03-21T10:35:10.132Z</time></trkpt><trkpt lat="44.9542928" lon="9.1807709"><ele>209.7142857142857</ele><time>2026-03-21T10:35:11.131Z</time></trkpt><trkpt lat="44.9543291" lon="9.1806897"><ele>208.0</ele><time>2026-03-21T10:35:12.132Z</time></trkpt><trkpt lat="44.9544276" lon="9.1805675"><ele>206.49999999999997</ele><time>2026-03-21T10:35:14.132Z</time></trkpt><trkpt lat="44.9544849" lon="9.180513"><ele>205.0</ele><time>2026-03-21T10:35:15.132Z</time></trkpt><trkpt lat="44.9545461" lon="9.1804626"><ele>203.5</ele><time>2026-03-21T10:35:16.131Z</time></trkpt><trkpt lat="44.9546059" lon="9.1804084"><ele>202.0</ele><time>2026-03-21T10:35:17.132Z</time></trkpt><trkpt lat="44.9546636" lon="9.1803479"><ele>200.49999999999997</ele><time>2026-03-21T10:35:18.131Z</time></trkpt><trkpt lat="44.9547113" lon="9.1802845"><ele>199.0</ele><time>2026-03-21T10:35:19.131Z</time></trkpt><trkpt lat="44.9547716" lon="9.1801328"><ele>198.99999999999997</ele><time>2026-03-21T10:35:21.131Z</time></trkpt><trkpt lat="44.9547834" lon="9.1800448"><ele>199.0</ele><time>2026-03-21T10:35:22.131Z</time></trkpt><trkpt lat="44.954799" lon="9.1799585"><ele>199.0</ele><time>2026-03-21T10:35:23.132Z</time></trkpt><trkpt lat="44.9548084" lon="9.1798681"><ele>199.0</ele><time>2026-03-21T10:35:24.131Z</time></trkpt><trkpt lat="44.9548173" lon="9.1797747"><ele>199.0</ele><time>2026-03-21T10:35:25.131Z</time></trkpt><trkpt lat="44.9548296" lon="9.1796848"><ele>198.99999999999997</ele><time>2026-03-21T10:35:26.131Z</time></trkpt><trkpt lat="44.9548374" lon="9.1795964"><ele>199.0</ele><time>2026-03-21T10:35:27.131Z</time></trkpt><trkpt lat="44.9548483" lon="9.1795057"><ele>198.33333333333331</ele><time>2026-03-21T10:35:28.132Z</time></trkpt><trkpt lat="44.9548668" lon="9.1793318"><ele>197.66666666666666</ele><time>2026-03-21T10:35:30.131Z</time></trkpt><trkpt lat="44.9548739" lon="9.1792424"><ele>197.0</ele><time>2026-03-21T10:35:31.131Z</time></trkpt><trkpt lat="44.9548795" lon="9.1790733"><ele>196.33333333333331</ele><time>2026-03-21T10:35:33.131Z</time></trkpt><trkpt lat="44.9548802" lon="9.1789791"><ele>195.66666666666666</ele><time>2026-03-21T10:35:34.132Z</time></trkpt><trkpt lat="44.9548726" lon="9.1788796"><ele>195.0</ele><time>2026-03-21T10:35:35.132Z</time></trkpt><trkpt lat="44.9548619" lon="9.1787767"><ele>194.33333333333334</ele><time>2026-03-21T10:35:36.132Z</time></trkpt><trkpt lat="44.9548555" lon="9.1786731"><ele>193.66666666666666</ele><time>2026-03-21T10:35:37.132Z</time></trkpt><trkpt lat="44.9548223" lon="9.1785785"><ele>193.0</ele><time>2026-03-21T10:35:38.132Z</time></trkpt><trkpt lat="44.95478" lon="9.1784909"><ele>192.33333333333331</ele><time>2026-03-21T10:35:39.131Z</time></trkpt><trkpt lat="44.954729" lon="9.1784159"><ele>191.66666666666666</ele><time>2026-03-21T10:35:40.131Z</time></trkpt><trkpt lat="44.954669" lon="9.1783447"><ele>191.0</ele><time>2026-03-21T10:35:41.132Z</time></trkpt><trkpt lat="44.9546083" lon="9.1782693"><ele>191.0</ele><time>2026-03-21T10:35:42.131Z</time></trkpt><trkpt lat="44.9545501" lon="9.1781913"><ele>191.0</ele><time>2026-03-21T10:35:43.132Z</time></trkpt><trkpt lat="44.9544878" lon="9.1781158"><ele>191.0</ele><time>2026-03-21T10:35:44.132Z</time></trkpt><trkpt lat="44.9544294" lon="9.1780386"><ele>191.0</ele><time>2026-03-21T10:35:45.131Z</time></trkpt><trkpt lat="44.9543885" lon="9.1779498"><ele>191.0</ele><time>2026-03-21T10:35:46.132Z</time></trkpt><trkpt lat="44.954352" lon="9.1778487"><ele>191.0</ele><time>2026-03-21T10:35:47.132Z</time></trkpt><trkpt lat="44.9543236" lon="9.1777193"><ele>190.8</ele><time>2026-03-21T10:35:48.132Z</time></trkpt><trkpt lat="44.9542976" lon="9.1775914"><ele>190.60000000000002</ele><time>2026-03-21T10:35:49.131Z</time></trkpt><trkpt lat="44.954273" lon="9.1774653"><ele>190.4</ele><time>2026-03-21T10:35:50.132Z</time></trkpt><trkpt lat="44.9542439" lon="9.1773603"><ele>190.2</ele><time>2026-03-21T10:35:51.131Z</time></trkpt><trkpt lat="44.9541797" lon="9.1772547"><ele>190.0</ele><time>2026-03-21T10:35:53.131Z</time></trkpt><trkpt lat="44.954091" lon="9.1773249"><ele>188.8</ele><time>2026-03-21T10:35:56.131Z</time></trkpt><trkpt lat="44.954054" lon="9.177411"><ele>187.6</ele><time>2026-03-21T10:35:57.132Z</time></trkpt><trkpt lat="44.9540126" lon="9.1775106"><ele>186.39999999999998</ele><time>2026-03-21T10:35:58.132Z</time></trkpt><trkpt lat="44.9539652" lon="9.1776152"><ele>185.2</ele><time>2026-03-21T10:35:59.131Z</time></trkpt><trkpt lat="44.953906" lon="9.1777347"><ele>184.0</ele><time>2026-03-21T10:36:00.132Z</time></trkpt><trkpt lat="44.9538418" lon="9.1778634"><ele>184.0</ele><time>2026-03-21T10:36:01.132Z</time></trkpt><trkpt lat="44.9537752" lon="9.1780002"><ele>184.0</ele><time>2026-03-21T10:36:02.132Z</time></trkpt><trkpt lat="44.9537043" lon="9.1781439"><ele>184.0</ele><time>2026-03-21T10:36:03.131Z</time></trkpt><trkpt lat="44.9536351" lon="9.1782904"><ele>184.0</ele><time>2026-03-21T10:36:04.131Z</time></trkpt><trkpt lat="44.9535605" lon="9.1784487"><ele>183.5</ele><time>2026-03-21T10:36:05.132Z</time></trkpt><trkpt lat="44.9534812" lon="9.1786103"><ele>183.0</ele><time>2026-03-21T10:36:06.131Z</time></trkpt><trkpt lat="44.9533983" lon="9.1787828"><ele>182.5</ele><time>2026-03-21T10:36:07.132Z</time></trkpt><trkpt lat="44.9533132" lon="9.178952"><ele>182.0</ele><time>2026-03-21T10:36:08.131Z</time></trkpt><trkpt lat="44.9532285" lon="9.1791247"><ele>183.66666666666666</ele><time>2026-03-21T10:36:09.131Z</time></trkpt><trkpt lat="44.9531387" lon="9.1793045"><ele>185.33333333333334</ele><time>2026-03-21T10:36:10.132Z</time></trkpt><trkpt lat="44.953046" lon="9.1794895"><ele>187.0</ele><time>2026-03-21T10:36:11.131Z</time></trkpt><trkpt lat="44.9529537" lon="9.1796767"><ele>189.0</ele><time>2026-03-21T10:36:12.131Z</time></trkpt><trkpt lat="44.9528624" lon="9.1798705"><ele>191.0</ele><time>2026-03-21T10:36:13.131Z</time></trkpt><trkpt lat="44.9527665" lon="9.1800545"><ele>193.0</ele><time>2026-03-21T10:36:14.132Z</time></trkpt><trkpt lat="44.9526683" lon="9.1802366"><ele>193.0</ele><time>2026-03-21T10:36:15.131Z</time></trkpt><trkpt lat="44.9525796" lon="9.1804223"><ele>193.0</ele><time>2026-03-21T10:36:16.131Z</time></trkpt><trkpt lat="44.952496" lon="9.1806178"><ele>193.0</ele><time>2026-03-21T10:36:17.132Z</time></trkpt><trkpt lat="44.9524311" lon="9.1808262"><ele>193.0</ele><time>2026-03-21T10:36:18.132Z</time></trkpt><trkpt lat="44.9523735" lon="9.1810378"><ele>193.0</ele><time>2026-03-21T10:36:19.132Z</time></trkpt><trkpt lat="44.9523183" lon="9.1812579"><ele>193.0</ele><time>2026-03-21T10:36:20.132Z</time></trkpt><trkpt lat="44.9522601" lon="9.1814816"><ele>195.0</ele><time>2026-03-21T10:36:21.132Z</time></trkpt><trkpt lat="44.952196" lon="9.1817062"><ele>197.0</ele><time>2026-03-21T10:36:22.132Z</time></trkpt><trkpt lat="44.9521198" lon="9.1819296"><ele>199.0</ele><time>2026-03-21T10:36:23.132Z</time></trkpt><trkpt lat="44.9520364" lon="9.1821534"><ele>200.66666666666666</ele><time>2026-03-21T10:36:24.132Z</time></trkpt><trkpt lat="44.9519424" lon="9.1823676"><ele>202.33333333333331</ele><time>2026-03-21T10:36:25.132Z</time></trkpt><trkpt lat="44.9518418" lon="9.1825814"><ele>204.0</ele><time>2026-03-21T10:36:26.132Z</time></trkpt><trkpt lat="44.9517423" lon="9.1828013"><ele>201.66666666666669</ele><time>2026-03-21T10:36:27.132Z</time></trkpt><trkpt lat="44.95164" lon="9.1830182"><ele>199.33333333333334</ele><time>2026-03-21T10:36:28.131Z</time></trkpt><trkpt lat="44.9515324" lon="9.18323"><ele>197.0</ele><time>2026-03-21T10:36:29.132Z</time></trkpt><trkpt lat="44.9514147" lon="9.1834338"><ele>197.0</ele><time>2026-03-21T10:36:30.131Z</time></trkpt><trkpt lat="44.9512896" lon="9.1836274"><ele>197.0</ele><time>2026-03-21T10:36:31.132Z</time></trkpt><trkpt lat="44.9511625" lon="9.1838195"><ele>197.0</ele><time>2026-03-21T10:36:32.132Z</time></trkpt><trkpt lat="44.9510381" lon="9.1840167"><ele>196.66666666666669</ele><time>2026-03-21T10:36:33.131Z</time></trkpt><trkpt lat="44.950912" lon="9.1842127"><ele>196.33333333333331</ele><time>2026-03-21T10:36:34.132Z</time></trkpt><trkpt lat="44.9507868" lon="9.184406"><ele>196.0</ele><time>2026-03-21T10:36:35.132Z</time></trkpt><trkpt lat="44.9506601" lon="9.1846018"><ele>196.0</ele><time>2026-03-21T10:36:36.132Z</time></trkpt><trkpt lat="44.9505342" lon="9.1847925"><ele>196.0</ele><time>2026-03-21T10:36:37.132Z</time></trkpt><trkpt lat="44.9504109" lon="9.1849732"><ele>196.0</ele><time>2026-03-21T10:36:38.132Z</time></trkpt><trkpt lat="44.9502878" lon="9.1851544"><ele>197.0</ele><time>2026-03-21T10:36:39.132Z</time></trkpt><trkpt lat="44.9501663" lon="9.1853354"><ele>198.0</ele><time>2026-03-21T10:36:40.131Z</time></trkpt><trkpt lat="44.9500449" lon="9.1855159"><ele>199.0</ele><time>2026-03-21T10:36:41.132Z</time></trkpt><trkpt lat="44.949922" lon="9.1856937"><ele>199.0</ele><time>2026-03-21T10:36:42.131Z</time></trkpt><trkpt lat="44.9498029" lon="9.1858683"><ele>199.0</ele><time>2026-03-21T10:36:43.131Z</time></trkpt><trkpt lat="44.949682" lon="9.1860412"><ele>199.0</ele><time>2026-03-21T10:36:44.131Z</time></trkpt><trkpt lat="44.9495671" lon="9.1862149"><ele>199.0</ele><time>2026-03-21T10:36:45.131Z</time></trkpt><trkpt lat="44.9494514" lon="9.1863878"><ele>199.0</ele><time>2026-03-21T10:36:46.132Z</time></trkpt><trkpt lat="44.9493297" lon="9.1865634"><ele>199.0</ele><time>2026-03-21T10:36:47.132Z</time></trkpt><trkpt lat="44.9492132" lon="9.1867374"><ele>199.0</ele><time>2026-03-21T10:36:48.131Z</time></trkpt><trkpt lat="44.9490946" lon="9.1869134"><ele>199.0</ele><time>2026-03-21T10:36:49.131Z</time></trkpt><trkpt lat="44.9489774" lon="9.1870891"><ele>199.0</ele><time>2026-03-21T10:36:50.132Z</time></trkpt><trkpt lat="44.9488611" lon="9.1872631"><ele>199.33333333333331</ele><time>2026-03-21T10:36:51.131Z</time></trkpt><trkpt lat="44.9487462" lon="9.1874343"><ele>199.66666666666669</ele><time>2026-03-21T10:36:52.131Z</time></trkpt><trkpt lat="44.9486314" lon="9.1876039"><ele>200.0</ele><time>2026-03-21T10:36:53.132Z</time></trkpt><trkpt lat="44.9485149" lon="9.1877688"><ele>200.0</ele><time>2026-03-21T10:36:54.131Z</time></trkpt><trkpt lat="44.9483979" lon="9.187932"><ele>200.0</ele><time>2026-03-21T10:36:55.131Z</time></trkpt><trkpt lat="44.9482916" lon="9.1880907"><ele>200.0</ele><time>2026-03-21T10:36:56.131Z</time></trkpt><trkpt lat="44.9481912" lon="9.1882345"><ele>200.25</ele><time>2026-03-21T10:36:57.132Z</time></trkpt><trkpt lat="44.9480976" lon="9.1883681"><ele>200.5</ele><time>2026-03-21T10:36:58.132Z</time></trkpt><trkpt lat="44.9480039" lon="9.1884846"><ele>200.75</ele><time>2026-03-21T10:36:59.132Z</time></trkpt><trkpt lat="44.9479103" lon="9.188593"><ele>201.0</ele><time>2026-03-21T10:37:00.131Z</time></trkpt><trkpt lat="44.9478183" lon="9.1886903"><ele>201.0</ele><time>2026-03-21T10:37:01.132Z</time></trkpt><trkpt lat="44.9477293" lon="9.1887856"><ele>201.0</ele><time>2026-03-21T10:37:02.132Z</time></trkpt><trkpt lat="44.9476366" lon="9.1888716"><ele>201.0</ele><time>2026-03-21T10:37:03.132Z</time></trkpt><trkpt lat="44.9475399" lon="9.1889603"><ele>201.0</ele><time>2026-03-21T10:37:04.132Z</time></trkpt><trkpt lat="44.9474422" lon="9.1890505"><ele>202.0</ele><time>2026-03-21T10:37:05.131Z</time></trkpt><trkpt lat="44.9473491" lon="9.1891446"><ele>203.0</ele><time>2026-03-21T10:37:06.131Z</time></trkpt><trkpt lat="44.9472549" lon="9.1892324"><ele>204.0</ele><time>2026-03-21T10:37:07.131Z</time></trkpt><trkpt lat="44.9471612" lon="9.18932"><ele>205.0</ele><time>2026-03-21T10:37:08.132Z</time></trkpt><trkpt lat="44.9470721" lon="9.1894125"><ele>205.0</ele><time>2026-03-21T10:37:09.131Z</time></trkpt><trkpt lat="44.9469837" lon="9.189506"><ele>205.0</ele><time>2026-03-21T10:37:10.132Z</time></trkpt><trkpt lat="44.9468978" lon="9.1895943"><ele>205.0</ele><time>2026-03-21T10:37:11.132Z</time></trkpt><trkpt lat="44.9468082" lon="9.1896811"><ele>205.0</ele><time>2026-03-21T10:37:12.132Z</time></trkpt><trkpt lat="44.9467166" lon="9.189749"><ele>205.0</ele><time>2026-03-21T10:37:13.131Z</time></trkpt><trkpt lat="44.9466188" lon="9.1897881"><ele>204.8</ele><time>2026-03-21T10:37:14.131Z</time></trkpt><trkpt lat="44.9465195" lon="9.1898013"><ele>204.6</ele><time>2026-03-21T10:37:15.131Z</time></trkpt><trkpt lat="44.9464202" lon="9.1897858"><ele>204.39999999999998</ele><time>2026-03-21T10:37:16.131Z</time></trkpt><trkpt lat="44.9463273" lon="9.1897559"><ele>204.2</ele><time>2026-03-21T10:37:17.131Z</time></trkpt><trkpt lat="44.9462625" lon="9.1896496"><ele>204.0</ele><time>2026-03-21T10:37:18.132Z</time></trkpt><trkpt lat="44.946218" lon="9.189534"><ele>204.0</ele><time>2026-03-21T10:37:19.132Z</time></trkpt><trkpt lat="44.9461854" lon="9.1894043"><ele>204.0</ele><time>2026-03-21T10:37:20.132Z</time></trkpt><trkpt lat="44.9461529" lon="9.1892697"><ele>204.0</ele><time>2026-03-21T10:37:21.131Z</time></trkpt><trkpt lat="44.9461203" lon="9.189134"><ele>204.0</ele><time>2026-03-21T10:37:22.131Z</time></trkpt><trkpt lat="44.9460845" lon="9.1889997"><ele>204.0</ele><time>2026-03-21T10:37:23.131Z</time></trkpt><trkpt lat="44.9460464" lon="9.188872"><ele>203.5</ele><time>2026-03-21T10:37:24.132Z</time></trkpt><trkpt lat="44.9460049" lon="9.1887537"><ele>203.0</ele><time>2026-03-21T10:37:25.132Z</time></trkpt><trkpt lat="44.9459483" lon="9.1886582"><ele>202.5</ele><time>2026-03-21T10:37:26.132Z</time></trkpt><trkpt lat="44.9458761" lon="9.1885948"><ele>202.0</ele><time>2026-03-21T10:37:27.132Z</time></trkpt><trkpt lat="44.9458052" lon="9.1885536"><ele>201.5</ele><time>2026-03-21T10:37:28.131Z</time></trkpt><trkpt lat="44.945725" lon="9.1885334"><ele>201.0</ele><time>2026-03-21T10:37:29.132Z</time></trkpt><trkpt lat="44.9456494" lon="9.1885266"><ele>202.0</ele><time>2026-03-21T10:37:30.132Z</time></trkpt><trkpt lat="44.945575" lon="9.188523"><ele>203.0</ele><time>2026-03-21T10:37:31.131Z</time></trkpt><trkpt lat="44.9455047" lon="9.1885187"><ele>204.0</ele><time>2026-03-21T10:37:32.132Z</time></trkpt><trkpt lat="44.9454357" lon="9.1885118"><ele>205.0</ele><time>2026-03-21T10:37:33.131Z</time></trkpt><trkpt lat="44.9453638" lon="9.18851"><ele>206.0</ele><time>2026-03-21T10:37:34.132Z</time></trkpt><trkpt lat="44.9452906" lon="9.1885115"><ele>207.0</ele><time>2026-03-21T10:37:35.131Z</time></trkpt><trkpt lat="44.9452202" lon="9.1885115"><ele>208.0</ele><time>2026-03-21T10:37:36.132Z</time></trkpt><trkpt lat="44.9451437" lon="9.1885125"><ele>207.99999999999997</ele><time>2026-03-21T10:37:37.131Z</time></trkpt><trkpt lat="44.9450626" lon="9.1885149"><ele>208.0</ele><time>2026-03-21T10:37:38.131Z</time></trkpt><trkpt lat="44.9449854" lon="9.1885136"><ele>208.0</ele><time>2026-03-21T10:37:39.131Z</time></trkpt><trkpt lat="44.944902" lon="9.1885122"><ele>208.0</ele><time>2026-03-21T10:37:40.132Z</time></trkpt><trkpt lat="44.9448268" lon="9.1885104"><ele>207.99999999999997</ele><time>2026-03-21T10:37:41.131Z</time></trkpt><trkpt lat="44.9447498" lon="9.1885096"><ele>208.0</ele><time>2026-03-21T10:37:42.131Z</time></trkpt><trkpt lat="44.9446692" lon="9.1885102"><ele>208.49999999999997</ele><time>2026-03-21T10:37:43.132Z</time></trkpt><trkpt lat="44.9445911" lon="9.1885011"><ele>209.0</ele><time>2026-03-21T10:37:44.131Z</time></trkpt><trkpt lat="44.9445107" lon="9.1884942"><ele>209.5</ele><time>2026-03-21T10:37:45.131Z</time></trkpt><trkpt lat="44.9444232" lon="9.1884879"><ele>210.0</ele><time>2026-03-21T10:37:46.131Z</time></trkpt><trkpt lat="44.9443319" lon="9.1884888"><ele>210.49999999999997</ele><time>2026-03-21T10:37:47.131Z</time></trkpt><trkpt lat="44.9442469" lon="9.1884847"><ele>211.0</ele><time>2026-03-21T10:37:48.131Z</time></trkpt><trkpt lat="44.9441666" lon="9.1884808"><ele>211.20000000000002</ele><time>2026-03-21T10:37:49.131Z</time></trkpt><trkpt lat="44.9440816" lon="9.1884787"><ele>211.4</ele><time>2026-03-21T10:37:50.131Z</time></trkpt><trkpt lat="44.9439918" lon="9.1884787"><ele>211.6</ele><time>2026-03-21T10:37:51.132Z</time></trkpt><trkpt lat="44.9438984" lon="9.1884723"><ele>211.8</ele><time>2026-03-21T10:37:52.131Z</time></trkpt><trkpt lat="44.9438033" lon="9.1884668"><ele>212.0</ele><time>2026-03-21T10:37:53.131Z</time></trkpt><trkpt lat="44.9437048" lon="9.1884681"><ele>212.0</ele><time>2026-03-21T10:37:54.131Z</time></trkpt><trkpt lat="44.9436015" lon="9.1884782"><ele>212.0</ele><time>2026-03-21T10:37:55.132Z</time></trkpt><trkpt lat="44.9434919" lon="9.1884983"><ele>212.0</ele><time>2026-03-21T10:37:56.132Z</time></trkpt><trkpt lat="44.9433812" lon="9.1885208"><ele>212.0</ele><time>2026-03-21T10:37:57.131Z</time></trkpt><trkpt lat="44.9432643" lon="9.1885428"><ele>212.0</ele><time>2026-03-21T10:37:58.132Z</time></trkpt><trkpt lat="44.9431443" lon="9.1885689"><ele>212.5</ele><time>2026-03-21T10:37:59.132Z</time></trkpt><trkpt lat="44.9430227" lon="9.1886001"><ele>213.0</ele><time>2026-03-21T10:38:00.131Z</time></trkpt><trkpt lat="44.9428978" lon="9.1886323"><ele>213.5</ele><time>2026-03-21T10:38:01.132Z</time></trkpt><trkpt lat="44.94277" lon="9.1886667"><ele>214.0</ele><time>2026-03-21T10:38:02.131Z</time></trkpt><trkpt lat="44.9426387" lon="9.1886987"><ele>215.0</ele><time>2026-03-21T10:38:03.131Z</time></trkpt><trkpt lat="44.9425158" lon="9.188725"><ele>216.0</ele><time>2026-03-21T10:38:04.132Z</time></trkpt><trkpt lat="44.9423839" lon="9.1887382"><ele>217.0</ele><time>2026-03-21T10:38:05.131Z</time></trkpt><trkpt lat="44.9422501" lon="9.1887505"><ele>218.0</ele><time>2026-03-21T10:38:06.131Z</time></trkpt><trkpt lat="44.9421128" lon="9.1887532"><ele>218.0</ele><time>2026-03-21T10:38:07.132Z</time></trkpt><trkpt lat="44.94197" lon="9.1887569"><ele>218.0</ele><time>2026-03-21T10:38:08.132Z</time></trkpt><trkpt lat="44.9418268" lon="9.1887608"><ele>218.0</ele><time>2026-03-21T10:38:09.131Z</time></trkpt><trkpt lat="44.9416841" lon="9.1887676"><ele>218.0</ele><time>2026-03-21T10:38:10.131Z</time></trkpt><trkpt lat="44.9415417" lon="9.1887724"><ele>218.5</ele><time>2026-03-21T10:38:11.131Z</time></trkpt><trkpt lat="44.941395" lon="9.1887769"><ele>219.0</ele><time>2026-03-21T10:38:12.132Z</time></trkpt><trkpt lat="44.9412488" lon="9.188782"><ele>219.5</ele><time>2026-03-21T10:38:13.132Z</time></trkpt><trkpt lat="44.9411086" lon="9.1887897"><ele>220.0</ele><time>2026-03-21T10:38:14.132Z</time></trkpt><trkpt lat="44.940972" lon="9.1887936"><ele>220.5</ele><time>2026-03-21T10:38:15.132Z</time></trkpt><trkpt lat="44.940838" lon="9.1887991"><ele>221.0</ele><time>2026-03-21T10:38:16.132Z</time></trkpt><trkpt lat="44.9407114" lon="9.1888042"><ele>221.5</ele><time>2026-03-21T10:38:17.132Z</time></trkpt><trkpt lat="44.9405966" lon="9.188807"><ele>222.0</ele><time>2026-03-21T10:38:18.131Z</time></trkpt><trkpt lat="44.9404927" lon="9.188807"><ele>222.0</ele><time>2026-03-21T10:38:19.131Z</time></trkpt><trkpt lat="44.9404096" lon="9.1888051"><ele>222.0</ele><time>2026-03-21T10:38:20.131Z</time></trkpt><trkpt lat="44.9403419" lon="9.1888064"><ele>222.0</ele><time>2026-03-21T10:38:21.132Z</time></trkpt><trkpt lat="44.9402564" lon="9.1888194"><ele>222.0</ele><time>2026-03-21T10:38:23.131Z</time></trkpt><trkpt lat="44.9401546" lon="9.1888546"><ele>222.0</ele><time>2026-03-21T10:38:37.131Z</time></trkpt><trkpt lat="44.9400283" lon="9.188912"><ele>221.8</ele><time>2026-03-21T10:38:39.132Z</time></trkpt><trkpt lat="44.9399573" lon="9.1889607"><ele>221.6</ele><time>2026-03-21T10:38:40.131Z</time></trkpt><trkpt lat="44.9398917" lon="9.1890343"><ele>221.40000000000003</ele><time>2026-03-21T10:38:41.132Z</time></trkpt><trkpt lat="44.9398198" lon="9.1891175"><ele>221.20000000000002</ele><time>2026-03-21T10:38:42.132Z</time></trkpt><trkpt lat="44.9397375" lon="9.1892142"><ele>221.0</ele><time>2026-03-21T10:38:43.132Z</time></trkpt><trkpt lat="44.9396559" lon="9.1893144"><ele>221.0</ele><time>2026-03-21T10:38:44.132Z</time></trkpt><trkpt lat="44.9395725" lon="9.1894154"><ele>221.0</ele><time>2026-03-21T10:38:45.131Z</time></trkpt><trkpt lat="44.9394839" lon="9.1895158"><ele>221.0</ele><time>2026-03-21T10:38:46.132Z</time></trkpt><trkpt lat="44.9393955" lon="9.1896159"><ele>221.0</ele><time>2026-03-21T10:38:47.132Z</time></trkpt><trkpt lat="44.9393065" lon="9.1897211"><ele>221.5</ele><time>2026-03-21T10:38:48.131Z</time></trkpt><trkpt lat="44.9392081" lon="9.1898302"><ele>222.0</ele><time>2026-03-21T10:38:49.132Z</time></trkpt><trkpt lat="44.9391088" lon="9.1899409"><ele>222.5</ele><time>2026-03-21T10:38:50.131Z</time></trkpt><trkpt lat="44.9390071" lon="9.1900582"><ele>223.0</ele><time>2026-03-21T10:38:51.131Z</time></trkpt><trkpt lat="44.9389042" lon="9.1901725"><ele>223.0</ele><time>2026-03-21T10:38:52.132Z</time></trkpt><trkpt lat="44.9387967" lon="9.1902743"><ele>223.0</ele><time>2026-03-21T10:38:53.131Z</time></trkpt><trkpt lat="44.9386772" lon="9.1903531"><ele>223.0</ele><time>2026-03-21T10:38:54.132Z</time></trkpt><trkpt lat="44.9385445" lon="9.1904146"><ele>223.0</ele><time>2026-03-21T10:38:55.131Z</time></trkpt><trkpt lat="44.9384055" lon="9.1904584"><ele>223.75</ele><time>2026-03-21T10:38:56.132Z</time></trkpt><trkpt lat="44.9382655" lon="9.1905054"><ele>224.5</ele><time>2026-03-21T10:38:57.131Z</time></trkpt><trkpt lat="44.9381388" lon="9.1905468"><ele>225.25</ele><time>2026-03-21T10:38:58.132Z</time></trkpt><trkpt lat="44.9380212" lon="9.1905671"><ele>226.0</ele><time>2026-03-21T10:38:59.132Z</time></trkpt><trkpt lat="44.9379077" lon="9.1905576"><ele>226.0</ele><time>2026-03-21T10:39:00.132Z</time></trkpt><trkpt lat="44.9378072" lon="9.1905057"><ele>226.0</ele><time>2026-03-21T10:39:01.131Z</time></trkpt><trkpt lat="44.9377182" lon="9.1904128"><ele>226.0</ele><time>2026-03-21T10:39:02.132Z</time></trkpt><trkpt lat="44.937629" lon="9.1903015"><ele>226.0</ele><time>2026-03-21T10:39:03.131Z</time></trkpt><trkpt lat="44.9375268" lon="9.1901814"><ele>227.0</ele><time>2026-03-21T10:39:04.131Z</time></trkpt><trkpt lat="44.9374202" lon="9.1900622"><ele>228.0</ele><time>2026-03-21T10:39:05.131Z</time></trkpt><trkpt lat="44.9373107" lon="9.189939"><ele>229.0</ele><time>2026-03-21T10:39:06.132Z</time></trkpt><trkpt lat="44.9371942" lon="9.1898192"><ele>230.0</ele><time>2026-03-21T10:39:07.131Z</time></trkpt><trkpt lat="44.9370705" lon="9.1897033"><ele>230.0</ele><time>2026-03-21T10:39:08.132Z</time></trkpt><trkpt lat="44.9369418" lon="9.1895991"><ele>230.0</ele><time>2026-03-21T10:39:09.131Z</time></trkpt><trkpt lat="44.9368018" lon="9.1895134"><ele>230.0</ele><time>2026-03-21T10:39:10.131Z</time></trkpt><trkpt lat="44.9366637" lon="9.1894444"><ele>230.0</ele><time>2026-03-21T10:39:11.132Z</time></trkpt><trkpt lat="44.9365221" lon="9.1893701"><ele>232.33333333333334</ele><time>2026-03-21T10:39:12.131Z</time></trkpt><trkpt lat="44.9363801" lon="9.1892985"><ele>234.66666666666669</ele><time>2026-03-21T10:39:13.131Z</time></trkpt><trkpt lat="44.9362345" lon="9.18923"><ele>237.0</ele><time>2026-03-21T10:39:14.132Z</time></trkpt><trkpt lat="44.9360885" lon="9.1891644"><ele>237.0</ele><time>2026-03-21T10:39:15.131Z</time></trkpt><trkpt lat="44.9359414" lon="9.1890918"><ele>237.0</ele><time>2026-03-21T10:39:16.132Z</time></trkpt><trkpt lat="44.9357945" lon="9.1890138"><ele>237.0</ele><time>2026-03-21T10:39:17.131Z</time></trkpt><trkpt lat="44.9356547" lon="9.1889048"><ele>238.0</ele><time>2026-03-21T10:39:18.132Z</time></trkpt><trkpt lat="44.935541" lon="9.1887552"><ele>239.0</ele><time>2026-03-21T10:39:19.131Z</time></trkpt><trkpt lat="44.9354336" lon="9.188603"><ele>240.0</ele><time>2026-03-21T10:39:20.132Z</time></trkpt><trkpt lat="44.935319" lon="9.1884784"><ele>240.0</ele><time>2026-03-21T10:39:21.132Z</time></trkpt><trkpt lat="44.9351882" lon="9.1883831"><ele>240.0</ele><time>2026-03-21T10:39:22.132Z</time></trkpt><trkpt lat="44.9350473" lon="9.188337"><ele>240.0</ele><time>2026-03-21T10:39:23.131Z</time></trkpt><trkpt lat="44.9349055" lon="9.1883473"><ele>240.0</ele><time>2026-03-21T10:39:24.132Z</time></trkpt><trkpt lat="44.9347654" lon="9.1883905"><ele>243.0</ele><time>2026-03-21T10:39:25.132Z</time></trkpt><trkpt lat="44.9346036" lon="9.1884081"><ele>246.0</ele><time>2026-03-21T10:39:26.131Z</time></trkpt><trkpt lat="44.9344417" lon="9.1883984"><ele>249.0</ele><time>2026-03-21T10:39:27.131Z</time></trkpt><trkpt lat="44.9342722" lon="9.1883609"><ele>252.0</ele><time>2026-03-21T10:39:28.132Z</time></trkpt><trkpt lat="44.9341101" lon="9.1883"><ele>255.0</ele><time>2026-03-21T10:39:29.132Z</time></trkpt><trkpt lat="44.9339528" lon="9.188232"><ele>258.0</ele><time>2026-03-21T10:39:30.132Z</time></trkpt><trkpt lat="44.9337921" lon="9.1881801"><ele>258.0</ele><time>2026-03-21T10:39:31.132Z</time></trkpt><trkpt lat="44.9336302" lon="9.1881642"><ele>258.0</ele><time>2026-03-21T10:39:32.132Z</time></trkpt><trkpt lat="44.933467" lon="9.1881875"><ele>258.0</ele><time>2026-03-21T10:39:33.132Z</time></trkpt><trkpt lat="44.933297" lon="9.1882249"><ele>260.3333333333333</ele><time>2026-03-21T10:39:34.132Z</time></trkpt><trkpt lat="44.9331213" lon="9.188257"><ele>262.66666666666663</ele><time>2026-03-21T10:39:35.132Z</time></trkpt><trkpt lat="44.9329428" lon="9.1882599"><ele>265.0</ele><time>2026-03-21T10:39:36.131Z</time></trkpt><trkpt lat="44.9327613" lon="9.188231"><ele>265.0</ele><time>2026-03-21T10:39:37.132Z</time></trkpt><trkpt lat="44.9325852" lon="9.1881848"><ele>265.0</ele><time>2026-03-21T10:39:38.131Z</time></trkpt><trkpt lat="44.9324082" lon="9.1881402"><ele>265.0</ele><time>2026-03-21T10:39:39.132Z</time></trkpt><trkpt lat="44.932238" lon="9.1880957"><ele>264.3333333333333</ele><time>2026-03-21T10:39:40.132Z</time></trkpt><trkpt lat="44.9320771" lon="9.1880682"><ele>263.6666666666667</ele><time>2026-03-21T10:39:41.132Z</time></trkpt><trkpt lat="44.9319165" lon="9.1880618"><ele>263.0</ele><time>2026-03-21T10:39:42.132Z</time></trkpt><trkpt lat="44.9317661" lon="9.1880821"><ele>265.25</ele><time>2026-03-21T10:39:43.132Z</time></trkpt><trkpt lat="44.9316261" lon="9.1881172"><ele>267.5</ele><time>2026-03-21T10:39:44.132Z</time></trkpt><trkpt lat="44.931501" lon="9.1881464"><ele>269.75</ele><time>2026-03-21T10:39:45.132Z</time></trkpt><trkpt lat="44.9313923" lon="9.1881722"><ele>272.0</ele><time>2026-03-21T10:39:46.132Z</time></trkpt><trkpt lat="44.9313" lon="9.188188"><ele>272.0</ele><time>2026-03-21T10:39:47.132Z</time></trkpt><trkpt lat="44.9312217" lon="9.1881681"><ele>272.0</ele><time>2026-03-21T10:39:48.132Z</time></trkpt><trkpt lat="44.9311576" lon="9.1881132"><ele>272.0</ele><time>2026-03-21T10:39:49.132Z</time></trkpt><trkpt lat="44.9311039" lon="9.1880188"><ele>272.0</ele><time>2026-03-21T10:39:50.132Z</time></trkpt><trkpt lat="44.9310431" lon="9.1879166"><ele>272.0</ele><time>2026-03-21T10:39:51.132Z</time></trkpt><trkpt lat="44.9309877" lon="9.1878044"><ele>272.0</ele><time>2026-03-21T10:39:52.132Z</time></trkpt><trkpt lat="44.9309255" lon="9.1876838"><ele>271.6</ele><time>2026-03-21T10:39:53.132Z</time></trkpt><trkpt lat="44.9308664" lon="9.1875543"><ele>271.2</ele><time>2026-03-21T10:39:54.132Z</time></trkpt><trkpt lat="44.9308037" lon="9.1874194"><ele>270.8</ele><time>2026-03-21T10:39:55.132Z</time></trkpt><trkpt lat="44.9307553" lon="9.1872794"><ele>270.4</ele><time>2026-03-21T10:39:56.132Z</time></trkpt><trkpt lat="44.9307177" lon="9.1871384"><ele>270.0</ele><time>2026-03-21T10:39:57.132Z</time></trkpt><trkpt lat="44.9306944" lon="9.1869918"><ele>270.0</ele><time>2026-03-21T10:39:58.131Z</time></trkpt><trkpt lat="44.930672" lon="9.1868618"><ele>270.0</ele><time>2026-03-21T10:39:59.131Z</time></trkpt><trkpt lat="44.9306429" lon="9.1867453"><ele>270.0</ele><time>2026-03-21T10:40:00.131Z</time></trkpt><trkpt lat="44.9305827" lon="9.1866644"><ele>270.0</ele><time>2026-03-21T10:40:01.132Z</time></trkpt><trkpt lat="44.9304991" lon="9.1866326"><ele>270.0</ele><time>2026-03-21T10:40:02.131Z</time></trkpt><trkpt lat="44.9304042" lon="9.1866576"><ele>270.0</ele><time>2026-03-21T10:40:03.131Z</time></trkpt><trkpt lat="44.9302825" lon="9.186682"><ele>270.0</ele><time>2026-03-21T10:40:04.131Z</time></trkpt><trkpt lat="44.9301418" lon="9.1866578"><ele>270.0</ele><time>2026-03-21T10:40:05.131Z</time></trkpt><trkpt lat="44.9299892" lon="9.1866034"><ele>270.0</ele><time>2026-03-21T10:40:06.131Z</time></trkpt><trkpt lat="44.9298218" lon="9.186542"><ele>273.0</ele><time>2026-03-21T10:40:07.132Z</time></trkpt><trkpt lat="44.9296412" lon="9.1864686"><ele>276.0</ele><time>2026-03-21T10:40:08.132Z</time></trkpt><trkpt lat="44.9294621" lon="9.186373"><ele>279.0</ele><time>2026-03-21T10:40:09.132Z</time></trkpt><trkpt lat="44.9292861" lon="9.1862615"><ele>282.3333333333333</ele><time>2026-03-21T10:40:10.132Z</time></trkpt><trkpt lat="44.92911" lon="9.1861546"><ele>285.66666666666663</ele><time>2026-03-21T10:40:11.132Z</time></trkpt><trkpt lat="44.9289411" lon="9.1860516"><ele>289.0</ele><time>2026-03-21T10:40:12.132Z</time></trkpt><trkpt lat="44.928775" lon="9.1859458"><ele>289.0</ele><time>2026-03-21T10:40:13.132Z</time></trkpt><trkpt lat="44.9286115" lon="9.1858309"><ele>289.0</ele><time>2026-03-21T10:40:14.132Z</time></trkpt><trkpt lat="44.9284696" lon="9.1856909"><ele>289.0</ele><time>2026-03-21T10:40:15.131Z</time></trkpt><trkpt lat="44.9283492" lon="9.1855135"><ele>295.66666666666663</ele><time>2026-03-21T10:40:16.131Z</time></trkpt><trkpt lat="44.9282618" lon="9.1853211"><ele>302.3333333333333</ele><time>2026-03-21T10:40:17.131Z</time></trkpt><trkpt lat="44.9281689" lon="9.1851445"><ele>309.0</ele><time>2026-03-21T10:40:18.132Z</time></trkpt><trkpt lat="44.9280364" lon="9.1850088"><ele>309.0</ele><time>2026-03-21T10:40:19.131Z</time></trkpt><trkpt lat="44.927889" lon="9.1849079"><ele>309.0</ele><time>2026-03-21T10:40:20.131Z</time></trkpt><trkpt lat="44.9277549" lon="9.1848088"><ele>309.0</ele><time>2026-03-21T10:40:21.131Z</time></trkpt><trkpt lat="44.9276361" lon="9.1846963"><ele>315.75</ele><time>2026-03-21T10:40:22.131Z</time></trkpt><trkpt lat="44.9275188" lon="9.1845992"><ele>322.5</ele><time>2026-03-21T10:40:23.132Z</time></trkpt><trkpt lat="44.9274009" lon="9.1845572"><ele>329.25</ele><time>2026-03-21T10:40:24.132Z</time></trkpt><trkpt lat="44.9272819" lon="9.1845544"><ele>336.0</ele><time>2026-03-21T10:40:25.132Z</time></trkpt><trkpt lat="44.9271448" lon="9.1845398"><ele>336.0</ele><time>2026-03-21T10:40:26.131Z</time></trkpt><trkpt lat="44.9270022" lon="9.1844678"><ele>336.0</ele><time>2026-03-21T10:40:27.132Z</time></trkpt><trkpt lat="44.9268812" lon="9.1843589"><ele>336.0</ele><time>2026-03-21T10:40:28.131Z</time></trkpt><trkpt lat="44.9267699" lon="9.1842352"><ele>336.0</ele><time>2026-03-21T10:40:29.131Z</time></trkpt><trkpt lat="44.9266601" lon="9.1841153"><ele>343.25</ele><time>2026-03-21T10:40:30.131Z</time></trkpt><trkpt lat="44.9265584" lon="9.1839996"><ele>350.5</ele><time>2026-03-21T10:40:31.132Z</time></trkpt><trkpt lat="44.9264594" lon="9.1838933"><ele>357.75</ele><time>2026-03-21T10:40:32.131Z</time></trkpt><trkpt lat="44.9263627" lon="9.1837976"><ele>365.0</ele><time>2026-03-21T10:40:33.131Z</time></trkpt><trkpt lat="44.9262729" lon="9.1836909"><ele>365.0</ele><time>2026-03-21T10:40:34.131Z</time></trkpt><trkpt lat="44.926178" lon="9.1836176"><ele>365.0</ele><time>2026-03-21T10:40:35.131Z</time></trkpt><trkpt lat="44.9260773" lon="9.1835704"><ele>365.0</ele><time>2026-03-21T10:40:36.131Z</time></trkpt><trkpt lat="44.9259729" lon="9.1835566"><ele>365.0</ele><time>2026-03-21T10:40:37.132Z</time></trkpt><trkpt lat="44.9258696" lon="9.1835578"><ele>365.0</ele><time>2026-03-21T10:40:38.132Z</time></trkpt><trkpt lat="44.9257642" lon="9.1835425"><ele>367.0</ele><time>2026-03-21T10:40:39.132Z</time></trkpt><trkpt lat="44.9256777" lon="9.1834822"><ele>369.0</ele><time>2026-03-21T10:40:40.132Z</time></trkpt><trkpt lat="44.9256007" lon="9.1834002"><ele>371.0</ele><time>2026-03-21T10:40:41.131Z</time></trkpt><trkpt lat="44.9255315" lon="9.1832699"><ele>373.0</ele><time>2026-03-21T10:40:42.131Z</time></trkpt><trkpt lat="44.9254654" lon="9.1831217"><ele>375.0</ele><time>2026-03-21T10:40:43.131Z</time></trkpt><trkpt lat="44.925379" lon="9.1829899"><ele>381.0</ele><time>2026-03-21T10:40:44.131Z</time></trkpt><trkpt lat="44.9252659" lon="9.1828946"><ele>387.0</ele><time>2026-03-21T10:40:45.131Z</time></trkpt><trkpt lat="44.9251283" lon="9.1828358"><ele>393.0</ele><time>2026-03-21T10:40:46.132Z</time></trkpt><trkpt lat="44.9249651" lon="9.1827712"><ele>399.0</ele><time>2026-03-21T10:40:47.132Z</time></trkpt><trkpt lat="44.9248104" lon="9.1826713"><ele>400.0</ele><time>2026-03-21T10:40:48.132Z</time></trkpt><trkpt lat="44.9246714" lon="9.1825349"><ele>401.0</ele><time>2026-03-21T10:40:49.131Z</time></trkpt><trkpt lat="44.9245494" lon="9.1824099"><ele>402.0</ele><time>2026-03-21T10:40:50.131Z</time></trkpt><trkpt lat="44.9244317" lon="9.1823299"><ele>403.0</ele><time>2026-03-21T10:40:51.132Z</time></trkpt><trkpt lat="44.9243094" lon="9.1823181"><ele>404.0</ele><time>2026-03-21T10:40:52.131Z</time></trkpt><trkpt lat="44.9241852" lon="9.1823665"><ele>405.0</ele><time>2026-03-21T10:40:53.132Z</time></trkpt><trkpt lat="44.924059" lon="9.1824705"><ele>406.0</ele><time>2026-03-21T10:40:54.132Z</time></trkpt><trkpt lat="44.9239556" lon="9.1826162"><ele>406.0</ele><time>2026-03-21T10:40:55.131Z</time></trkpt><trkpt lat="44.9238521" lon="9.1827649"><ele>406.0</ele><time>2026-03-21T10:40:56.131Z</time></trkpt><trkpt lat="44.9237409" lon="9.1828787"><ele>406.0</ele><time>2026-03-21T10:40:57.131Z</time></trkpt><trkpt lat="44.9236113" lon="9.1829721"><ele>406.0</ele><time>2026-03-21T10:40:58.132Z</time></trkpt><trkpt lat="44.9235069" lon="9.1830419"><ele>410.0</ele><time>2026-03-21T10:40:59.131Z</time></trkpt><trkpt lat="44.9233864" lon="9.1830749"><ele>414.0</ele><time>2026-03-21T10:41:00.132Z</time></trkpt><trkpt lat="44.9232565" lon="9.1830652"><ele>418.0</ele><time>2026-03-21T10:41:01.132Z</time></trkpt><trkpt lat="44.923125" lon="9.1830368"><ele>422.0</ele><time>2026-03-21T10:41:02.131Z</time></trkpt><trkpt lat="44.9229896" lon="9.1830007"><ele>422.0</ele><time>2026-03-21T10:41:03.132Z</time></trkpt><trkpt lat="44.9228595" lon="9.1829786"><ele>422.0</ele><time>2026-03-21T10:41:04.132Z</time></trkpt><trkpt lat="44.9227217" lon="9.1829847"><ele>422.0</ele><time>2026-03-21T10:41:05.132Z</time></trkpt><trkpt lat="44.9225752" lon="9.1830098"><ele>422.0</ele><time>2026-03-21T10:41:06.132Z</time></trkpt><trkpt lat="44.9224314" lon="9.1830308"><ele>426.75</ele><time>2026-03-21T10:41:07.131Z</time></trkpt><trkpt lat="44.9222845" lon="9.1830496"><ele>431.5</ele><time>2026-03-21T10:41:08.132Z</time></trkpt><trkpt lat="44.9221358" lon="9.183072"><ele>436.25</ele><time>2026-03-21T10:41:09.131Z</time></trkpt><trkpt lat="44.9219956" lon="9.1830944"><ele>441.0</ele><time>2026-03-21T10:41:10.131Z</time></trkpt><trkpt lat="44.9218546" lon="9.1831214"><ele>442.0</ele><time>2026-03-21T10:41:11.131Z</time></trkpt><trkpt lat="44.9217183" lon="9.1831559"><ele>443.0</ele><time>2026-03-21T10:41:12.131Z</time></trkpt><trkpt lat="44.9215914" lon="9.1831937"><ele>444.0</ele><time>2026-03-21T10:41:13.132Z</time></trkpt><trkpt lat="44.9214888" lon="9.1832296"><ele>445.0</ele><time>2026-03-21T10:41:14.131Z</time></trkpt><trkpt lat="44.9214032" lon="9.1832583"><ele>445.00000000000006</ele><time>2026-03-21T10:41:15.131Z</time></trkpt><trkpt lat="44.9213416" lon="9.1832819"><ele>445.0</ele><time>2026-03-21T10:41:16.132Z</time></trkpt><trkpt lat="44.9213103" lon="9.1832003"><ele>445.0</ele><time>2026-03-21T10:41:19.132Z</time></trkpt><trkpt lat="44.9214196" lon="9.1831164"><ele>445.0</ele><time>2026-03-21T10:41:21.131Z</time></trkpt><trkpt lat="44.9214923" lon="9.1830585"><ele>445.00000000000006</ele><time>2026-03-21T10:41:22.132Z</time></trkpt><trkpt lat="44.9215829" lon="9.1829878"><ele>445.0</ele><time>2026-03-21T10:41:23.132Z</time></trkpt><trkpt lat="44.9216871" lon="9.182911"><ele>444.0</ele><time>2026-03-21T10:41:24.131Z</time></trkpt><trkpt lat="44.9217979" lon="9.1828309"><ele>443.0</ele><time>2026-03-21T10:41:25.132Z</time></trkpt><trkpt lat="44.9219223" lon="9.1827548"><ele>442.0</ele><time>2026-03-21T10:41:26.131Z</time></trkpt><trkpt lat="44.922065" lon="9.1827004"><ele>441.0</ele><time>2026-03-21T10:41:27.131Z</time></trkpt><trkpt lat="44.922195" lon="9.1826679"><ele>441.0</ele><time>2026-03-21T10:41:28.131Z</time></trkpt><trkpt lat="44.9223103" lon="9.1826335"><ele>441.0</ele><time>2026-03-21T10:41:29.132Z</time></trkpt><trkpt lat="44.9224097" lon="9.182581"><ele>441.0</ele><time>2026-03-21T10:41:30.131Z</time></trkpt><trkpt lat="44.9224781" lon="9.1825058"><ele>441.0</ele><time>2026-03-21T10:41:31.131Z</time></trkpt><trkpt lat="44.9224842" lon="9.1823909"><ele>441.0</ele><time>2026-03-21T10:41:32.132Z</time></trkpt><trkpt lat="44.9224735" lon="9.1822666"><ele>443.0</ele><time>2026-03-21T10:41:33.132Z</time></trkpt><trkpt lat="44.922456" lon="9.1821344"><ele>445.0</ele><time>2026-03-21T10:41:34.132Z</time></trkpt><trkpt lat="44.9224265" lon="9.1819867"><ele>447.0</ele><time>2026-03-21T10:41:35.132Z</time></trkpt><trkpt lat="44.9224217" lon="9.1818579"><ele>449.0</ele><time>2026-03-21T10:41:36.131Z</time></trkpt><trkpt lat="44.9224385" lon="9.1817561"><ele>451.0</ele><time>2026-03-21T10:41:37.132Z</time></trkpt><trkpt lat="44.9225052" lon="9.1816907"><ele>447.6</ele><time>2026-03-21T10:41:38.132Z</time></trkpt><trkpt lat="44.9225831" lon="9.1816834"><ele>444.20000000000005</ele><time>2026-03-21T10:41:39.131Z</time></trkpt><trkpt lat="44.9226862" lon="9.181704"><ele>440.79999999999995</ele><time>2026-03-21T10:41:40.132Z</time></trkpt><trkpt lat="44.9227927" lon="9.1817103"><ele>437.4</ele><time>2026-03-21T10:41:41.131Z</time></trkpt><trkpt lat="44.9228906" lon="9.1816964"><ele>434.0</ele><time>2026-03-21T10:41:42.132Z</time></trkpt><trkpt lat="44.9229829" lon="9.1816167"><ele>434.0</ele><time>2026-03-21T10:41:43.131Z</time></trkpt><trkpt lat="44.9230696" lon="9.1815224"><ele>434.0</ele><time>2026-03-21T10:41:44.131Z</time></trkpt><trkpt lat="44.9231782" lon="9.1813564"><ele>434.0</ele><time>2026-03-21T10:41:45.132Z</time></trkpt><trkpt lat="44.9232551" lon="9.1812225"><ele>434.0</ele><time>2026-03-21T10:41:46.131Z</time></trkpt><trkpt lat="44.9233124" lon="9.1810883"><ele>439.5</ele><time>2026-03-21T10:41:47.131Z</time></trkpt><trkpt lat="44.9233903" lon="9.1809717"><ele>445.0</ele><time>2026-03-21T10:41:48.131Z</time></trkpt><trkpt lat="44.923497" lon="9.1809039"><ele>450.5</ele><time>2026-03-21T10:41:49.131Z</time></trkpt><trkpt lat="44.9236155" lon="9.1808836"><ele>456.0</ele><time>2026-03-21T10:41:50.132Z</time></trkpt><trkpt lat="44.9237484" lon="9.1809001"><ele>456.0</ele><time>2026-03-21T10:41:51.131Z</time></trkpt><trkpt lat="44.9238881" lon="9.1809247"><ele>456.0</ele><time>2026-03-21T10:41:52.132Z</time></trkpt><trkpt lat="44.9240373" lon="9.1809808"><ele>456.0</ele><time>2026-03-21T10:41:53.132Z</time></trkpt><trkpt lat="44.9241894" lon="9.1810749"><ele>454.75</ele><time>2026-03-21T10:41:54.131Z</time></trkpt><trkpt lat="44.924334" lon="9.1811592"><ele>453.5</ele><time>2026-03-21T10:41:55.132Z</time></trkpt><trkpt lat="44.9244632" lon="9.1812233"><ele>452.25</ele><time>2026-03-21T10:41:56.131Z</time></trkpt><trkpt lat="44.9246058" lon="9.1812768"><ele>451.0</ele><time>2026-03-21T10:41:57.131Z</time></trkpt><trkpt lat="44.9247357" lon="9.1813128"><ele>451.0</ele><time>2026-03-21T10:41:58.132Z</time></trkpt><trkpt lat="44.9248406" lon="9.1813377"><ele>451.0</ele><time>2026-03-21T10:41:59.131Z</time></trkpt><trkpt lat="44.9249352" lon="9.1813325"><ele>451.0</ele><time>2026-03-21T10:42:00.132Z</time></trkpt><trkpt lat="44.925" lon="9.1812714"><ele>451.0</ele><time>2026-03-21T10:42:01.131Z</time></trkpt><trkpt lat="44.925046" lon="9.1811743"><ele>451.0</ele><time>2026-03-21T10:42:02.132Z</time></trkpt><trkpt lat="44.9250736" lon="9.1810506"><ele>444.0</ele><time>2026-03-21T10:42:03.131Z</time></trkpt><trkpt lat="44.9250904" lon="9.1808414"><ele>437.0</ele><time>2026-03-21T10:42:04.131Z</time></trkpt><trkpt lat="44.9251594" lon="9.1806601"><ele>430.0</ele><time>2026-03-21T10:42:05.131Z</time></trkpt><trkpt lat="44.9252321" lon="9.1804938"><ele>423.0</ele><time>2026-03-21T10:42:06.132Z</time></trkpt><trkpt lat="44.925288" lon="9.1803318"><ele>423.2</ele><time>2026-03-21T10:42:07.131Z</time></trkpt><trkpt lat="44.9252817" lon="9.1801724"><ele>423.4</ele><time>2026-03-21T10:42:08.131Z</time></trkpt><trkpt lat="44.9252699" lon="9.1800092"><ele>423.59999999999997</ele><time>2026-03-21T10:42:09.131Z</time></trkpt><trkpt lat="44.9252573" lon="9.1798787"><ele>423.79999999999995</ele><time>2026-03-21T10:42:10.131Z</time></trkpt><trkpt lat="44.9252444" lon="9.1797655"><ele>424.0</ele><time>2026-03-21T10:42:11.131Z</time></trkpt><trkpt lat="44.9252526" lon="9.1796227"><ele>424.0</ele><time>2026-03-21T10:42:12.132Z</time></trkpt><trkpt lat="44.9252856" lon="9.1794847"><ele>424.0</ele><time>2026-03-21T10:42:13.132Z</time></trkpt><trkpt lat="44.9253399" lon="9.1793652"><ele>424.0</ele><time>2026-03-21T10:42:14.131Z</time></trkpt><trkpt lat="44.9254053" lon="9.1792613"><ele>424.0</ele><time>2026-03-21T10:42:15.132Z</time></trkpt><trkpt lat="44.925472" lon="9.1791669"><ele>424.0</ele><time>2026-03-21T10:42:16.132Z</time></trkpt><trkpt lat="44.9255213" lon="9.1790644"><ele>424.8571428571429</ele><time>2026-03-21T10:42:17.131Z</time></trkpt><trkpt lat="44.9255423" lon="9.1789573"><ele>425.71428571428567</ele><time>2026-03-21T10:42:18.132Z</time></trkpt><trkpt lat="44.9255353" lon="9.1788507"><ele>426.57142857142856</ele><time>2026-03-21T10:42:19.132Z</time></trkpt><trkpt lat="44.9255072" lon="9.178751"><ele>427.42857142857144</ele><time>2026-03-21T10:42:20.131Z</time></trkpt><trkpt lat="44.9254746" lon="9.1786616"><ele>428.28571428571433</ele><time>2026-03-21T10:42:21.132Z</time></trkpt><trkpt lat="44.9254402" lon="9.1785776"><ele>429.1428571428571</ele><time>2026-03-21T10:42:22.131Z</time></trkpt><trkpt lat="44.925405" lon="9.1784973"><ele>430.0</ele><time>2026-03-21T10:42:23.132Z</time></trkpt><trkpt lat="44.9253451" lon="9.1783473"><ele>431.00000000000006</ele><time>2026-03-21T10:42:25.131Z</time></trkpt><trkpt lat="44.9253053" lon="9.1781802"><ele>432.0</ele><time>2026-03-21T10:42:27.131Z</time></trkpt><trkpt lat="44.9253115" lon="9.1780914"><ele>433.0</ele><time>2026-03-21T10:42:28.132Z</time></trkpt><trkpt lat="44.9253333" lon="9.1779948"><ele>434.0</ele><time>2026-03-21T10:42:29.131Z</time></trkpt><trkpt lat="44.9253801" lon="9.177922"><ele>435.00000000000006</ele><time>2026-03-21T10:42:30.132Z</time></trkpt><trkpt lat="44.9254364" lon="9.1778597"><ele>436.0</ele><time>2026-03-21T10:42:31.131Z</time></trkpt><trkpt lat="44.9255339" lon="9.1778132"><ele>436.0</ele><time>2026-03-21T10:42:32.132Z</time></trkpt><trkpt lat="44.9256041" lon="9.1777559"><ele>436.0</ele><time>2026-03-21T10:42:33.132Z</time></trkpt><trkpt lat="44.9256832" lon="9.1777056"><ele>436.0</ele><time>2026-03-21T10:42:34.131Z</time></trkpt><trkpt lat="44.9257449" lon="9.1776459"><ele>436.0</ele><time>2026-03-21T10:42:35.132Z</time></trkpt><trkpt lat="44.9258008" lon="9.1774855"><ele>436.0</ele><time>2026-03-21T10:42:37.131Z</time></trkpt><trkpt lat="44.9257841" lon="9.1773325"><ele>434.20000000000005</ele><time>2026-03-21T10:42:39.132Z</time></trkpt><trkpt lat="44.9257357" lon="9.1772596"><ele>432.40000000000003</ele><time>2026-03-21T10:42:40.132Z</time></trkpt><trkpt lat="44.9256531" lon="9.1771613"><ele>430.6</ele><time>2026-03-21T10:42:41.132Z</time></trkpt><trkpt lat="44.9255932" lon="9.1770518"><ele>428.8</ele><time>2026-03-21T10:42:42.132Z</time></trkpt><trkpt lat="44.925541" lon="9.1769352"><ele>427.0</ele><time>2026-03-21T10:42:43.131Z</time></trkpt><trkpt lat="44.9254924" lon="9.176815"><ele>427.0</ele><time>2026-03-21T10:42:44.132Z</time></trkpt><trkpt lat="44.9254629" lon="9.1766827"><ele>427.00000000000006</ele><time>2026-03-21T10:42:45.131Z</time></trkpt><trkpt lat="44.9254394" lon="9.1765465"><ele>427.00000000000006</ele><time>2026-03-21T10:42:46.131Z</time></trkpt><trkpt lat="44.925426" lon="9.1764055"><ele>427.0</ele><time>2026-03-21T10:42:47.132Z</time></trkpt><trkpt lat="44.9254256" lon="9.1762447"><ele>427.0</ele><time>2026-03-21T10:42:48.132Z</time></trkpt><trkpt lat="44.9254463" lon="9.1760815"><ele>426.75</ele><time>2026-03-21T10:42:49.131Z</time></trkpt><trkpt lat="44.9254891" lon="9.1759125"><ele>426.5</ele><time>2026-03-21T10:42:50.132Z</time></trkpt><trkpt lat="44.9255519" lon="9.1757425"><ele>426.25</ele><time>2026-03-21T10:42:51.131Z</time></trkpt><trkpt lat="44.9256309" lon="9.1755734"><ele>426.0</ele><time>2026-03-21T10:42:52.131Z</time></trkpt><trkpt lat="44.9257219" lon="9.1754206"><ele>426.0</ele><time>2026-03-21T10:42:53.132Z</time></trkpt><trkpt lat="44.9258245" lon="9.1752759"><ele>426.0</ele><time>2026-03-21T10:42:54.131Z</time></trkpt><trkpt lat="44.9259189" lon="9.1751215"><ele>426.0</ele><time>2026-03-21T10:42:55.131Z</time></trkpt><trkpt lat="44.9260011" lon="9.1749592"><ele>426.0</ele><time>2026-03-21T10:42:56.132Z</time></trkpt><trkpt lat="44.9260878" lon="9.1748027"><ele>425.0</ele><time>2026-03-21T10:42:57.131Z</time></trkpt><trkpt lat="44.9261803" lon="9.1746502"><ele>424.0</ele><time>2026-03-21T10:42:58.132Z</time></trkpt><trkpt lat="44.9262839" lon="9.1745124"><ele>423.0</ele><time>2026-03-21T10:42:59.131Z</time></trkpt><trkpt lat="44.9263995" lon="9.1743929"><ele>422.0</ele><time>2026-03-21T10:43:00.131Z</time></trkpt><trkpt lat="44.926527" lon="9.1742932"><ele>422.0</ele><time>2026-03-21T10:43:01.132Z</time></trkpt><trkpt lat="44.9266603" lon="9.1742116"><ele>422.0</ele><time>2026-03-21T10:43:02.131Z</time></trkpt><trkpt lat="44.9267919" lon="9.1741428"><ele>422.0</ele><time>2026-03-21T10:43:03.132Z</time></trkpt><trkpt lat="44.9269316" lon="9.174086"><ele>422.0</ele><time>2026-03-21T10:43:04.131Z</time></trkpt><trkpt lat="44.9270673" lon="9.1740353"><ele>425.25</ele><time>2026-03-21T10:43:05.132Z</time></trkpt><trkpt lat="44.9272008" lon="9.1739787"><ele>428.5</ele><time>2026-03-21T10:43:06.132Z</time></trkpt><trkpt lat="44.9273254" lon="9.1739032"><ele>431.75</ele><time>2026-03-21T10:43:07.132Z</time></trkpt><trkpt lat="44.9274369" lon="9.1738157"><ele>435.0</ele><time>2026-03-21T10:43:08.131Z</time></trkpt><trkpt lat="44.9275443" lon="9.1737032"><ele>437.0</ele><time>2026-03-21T10:43:09.132Z</time></trkpt><trkpt lat="44.9276389" lon="9.1735644"><ele>439.0</ele><time>2026-03-21T10:43:10.131Z</time></trkpt><trkpt lat="44.927724" lon="9.1734128"><ele>441.0</ele><time>2026-03-21T10:43:11.132Z</time></trkpt><trkpt lat="44.927798" lon="9.173248"><ele>443.0</ele><time>2026-03-21T10:43:12.132Z</time></trkpt><trkpt lat="44.9278436" lon="9.1730711"><ele>443.0</ele><time>2026-03-21T10:43:13.132Z</time></trkpt><trkpt lat="44.9278856" lon="9.1729011"><ele>442.99999999999994</ele><time>2026-03-21T10:43:14.132Z</time></trkpt><trkpt lat="44.9279368" lon="9.1727663"><ele>442.99999999999994</ele><time>2026-03-21T10:43:15.132Z</time></trkpt><trkpt lat="44.9280072" lon="9.1726783"><ele>443.0</ele><time>2026-03-21T10:43:16.132Z</time></trkpt><trkpt lat="44.9280978" lon="9.1726135"><ele>443.0</ele><time>2026-03-21T10:43:17.132Z</time></trkpt><trkpt lat="44.9282071" lon="9.1725791"><ele>443.0</ele><time>2026-03-21T10:43:18.131Z</time></trkpt><trkpt lat="44.9283252" lon="9.1725665"><ele>443.0</ele><time>2026-03-21T10:43:19.131Z</time></trkpt><trkpt lat="44.9284527" lon="9.1725716"><ele>443.0</ele><time>2026-03-21T10:43:20.132Z</time></trkpt><trkpt lat="44.9285885" lon="9.1725513"><ele>443.0</ele><time>2026-03-21T10:43:21.132Z</time></trkpt><trkpt lat="44.9287204" lon="9.1725031"><ele>442.75</ele><time>2026-03-21T10:43:22.131Z</time></trkpt><trkpt lat="44.9288337" lon="9.1724446"><ele>442.5</ele><time>2026-03-21T10:43:23.131Z</time></trkpt><trkpt lat="44.9289355" lon="9.1723601"><ele>442.25</ele><time>2026-03-21T10:43:24.132Z</time></trkpt><trkpt lat="44.9290235" lon="9.1722362"><ele>442.0</ele><time>2026-03-21T10:43:25.132Z</time></trkpt><trkpt lat="44.9291145" lon="9.1720891"><ele>439.0</ele><time>2026-03-21T10:43:26.131Z</time></trkpt><trkpt lat="44.9292309" lon="9.1719518"><ele>436.0</ele><time>2026-03-21T10:43:27.132Z</time></trkpt><trkpt lat="44.9293637" lon="9.1718172"><ele>433.0</ele><time>2026-03-21T10:43:28.131Z</time></trkpt><trkpt lat="44.9294979" lon="9.1716883"><ele>433.0</ele><time>2026-03-21T10:43:29.131Z</time></trkpt><trkpt lat="44.9296233" lon="9.1715629"><ele>433.0</ele><time>2026-03-21T10:43:30.131Z</time></trkpt><trkpt lat="44.9297533" lon="9.1714487"><ele>433.0</ele><time>2026-03-21T10:43:31.131Z</time></trkpt><trkpt lat="44.9298811" lon="9.1713487"><ele>433.0</ele><time>2026-03-21T10:43:32.131Z</time></trkpt><trkpt lat="44.930002" lon="9.1712419"><ele>433.0</ele><time>2026-03-21T10:43:33.132Z</time></trkpt><trkpt lat="44.9301236" lon="9.1711197"><ele>433.0</ele><time>2026-03-21T10:43:34.131Z</time></trkpt><trkpt lat="44.9302405" lon="9.1709822"><ele>433.0</ele><time>2026-03-21T10:43:35.131Z</time></trkpt><trkpt lat="44.9303543" lon="9.1708523"><ele>433.0</ele><time>2026-03-21T10:43:36.131Z</time></trkpt><trkpt lat="44.9304527" lon="9.1707239"><ele>433.0</ele><time>2026-03-21T10:43:37.131Z</time></trkpt><trkpt lat="44.9305252" lon="9.1705782"><ele>433.0</ele><time>2026-03-21T10:43:38.132Z</time></trkpt><trkpt lat="44.930573" lon="9.1704369"><ele>433.0</ele><time>2026-03-21T10:43:39.131Z</time></trkpt><trkpt lat="44.9305903" lon="9.1702987"><ele>433.00000000000006</ele><time>2026-03-21T10:43:40.132Z</time></trkpt><trkpt lat="44.9305851" lon="9.1701669"><ele>433.0</ele><time>2026-03-21T10:43:41.132Z</time></trkpt><trkpt lat="44.9305591" lon="9.1700519"><ele>433.0</ele><time>2026-03-21T10:43:42.131Z</time></trkpt><trkpt lat="44.930519" lon="9.1699504"><ele>433.0</ele><time>2026-03-21T10:43:43.131Z</time></trkpt><trkpt lat="44.9304673" lon="9.1698551"><ele>433.00000000000006</ele><time>2026-03-21T10:43:44.131Z</time></trkpt><trkpt lat="44.9304135" lon="9.1697546"><ele>433.0</ele><time>2026-03-21T10:43:45.131Z</time></trkpt><trkpt lat="44.9303535" lon="9.1696406"><ele>435.0</ele><time>2026-03-21T10:43:46.131Z</time></trkpt><trkpt lat="44.9302909" lon="9.1695231"><ele>436.99999999999994</ele><time>2026-03-21T10:43:47.132Z</time></trkpt><trkpt lat="44.9302318" lon="9.1693923"><ele>438.99999999999994</ele><time>2026-03-21T10:43:48.132Z</time></trkpt><trkpt lat="44.9301632" lon="9.1692726"><ele>441.0</ele><time>2026-03-21T10:43:49.131Z</time></trkpt><trkpt lat="44.9300815" lon="9.1691638"><ele>443.0</ele><time>2026-03-21T10:43:50.132Z</time></trkpt><trkpt lat="44.9299987" lon="9.1690646"><ele>447.25</ele><time>2026-03-21T10:43:51.132Z</time></trkpt><trkpt lat="44.9299014" lon="9.1689772"><ele>451.5</ele><time>2026-03-21T10:43:52.132Z</time></trkpt><trkpt lat="44.9298101" lon="9.1688873"><ele>455.75</ele><time>2026-03-21T10:43:53.131Z</time></trkpt><trkpt lat="44.9297217" lon="9.1687839"><ele>460.0</ele><time>2026-03-21T10:43:54.131Z</time></trkpt><trkpt lat="44.9296376" lon="9.1686762"><ele>460.0</ele><time>2026-03-21T10:43:55.132Z</time></trkpt><trkpt lat="44.9295652" lon="9.1685581"><ele>460.0</ele><time>2026-03-21T10:43:56.131Z</time></trkpt><trkpt lat="44.9294935" lon="9.1684307"><ele>460.0</ele><time>2026-03-21T10:43:57.132Z</time></trkpt><trkpt lat="44.9294313" lon="9.1682992"><ele>460.0</ele><time>2026-03-21T10:43:58.132Z</time></trkpt><trkpt lat="44.9293767" lon="9.1681578"><ele>458.75</ele><time>2026-03-21T10:43:59.131Z</time></trkpt><trkpt lat="44.9293297" lon="9.1680089"><ele>457.5</ele><time>2026-03-21T10:44:00.131Z</time></trkpt><trkpt lat="44.9293047" lon="9.1678476"><ele>456.25</ele><time>2026-03-21T10:44:01.132Z</time></trkpt><trkpt lat="44.9292898" lon="9.1676756"><ele>455.0</ele><time>2026-03-21T10:44:02.131Z</time></trkpt><trkpt lat="44.9292886" lon="9.1675134"><ele>451.2</ele><time>2026-03-21T10:44:03.132Z</time></trkpt><trkpt lat="44.9292895" lon="9.1673581"><ele>447.4</ele><time>2026-03-21T10:44:04.132Z</time></trkpt><trkpt lat="44.9292917" lon="9.1672175"><ele>443.6</ele><time>2026-03-21T10:44:05.132Z</time></trkpt><trkpt lat="44.9292995" lon="9.1670804"><ele>439.8</ele><time>2026-03-21T10:44:06.131Z</time></trkpt><trkpt lat="44.9293203" lon="9.1669534"><ele>436.0</ele><time>2026-03-21T10:44:07.132Z</time></trkpt><trkpt lat="44.9293588" lon="9.166835"><ele>436.0</ele><time>2026-03-21T10:44:08.131Z</time></trkpt><trkpt lat="44.9294212" lon="9.1667486"><ele>436.0</ele><time>2026-03-21T10:44:09.132Z</time></trkpt><trkpt lat="44.9295034" lon="9.166673"><ele>436.0</ele><time>2026-03-21T10:44:10.131Z</time></trkpt><trkpt lat="44.9295927" lon="9.1665971"><ele>436.0</ele><time>2026-03-21T10:44:11.131Z</time></trkpt><trkpt lat="44.929692" lon="9.1665181"><ele>436.0</ele><time>2026-03-21T10:44:12.131Z</time></trkpt><trkpt lat="44.929796" lon="9.1664292"><ele>433.5</ele><time>2026-03-21T10:44:13.131Z</time></trkpt><trkpt lat="44.9299068" lon="9.1663426"><ele>431.0</ele><time>2026-03-21T10:44:14.132Z</time></trkpt><trkpt lat="44.9300133" lon="9.166256"><ele>428.5</ele><time>2026-03-21T10:44:15.132Z</time></trkpt><trkpt lat="44.9301194" lon="9.1662002"><ele>426.0</ele><time>2026-03-21T10:44:16.131Z</time></trkpt><trkpt lat="44.9302253" lon="9.1661612"><ele>426.0</ele><time>2026-03-21T10:44:17.132Z</time></trkpt><trkpt lat="44.9303376" lon="9.1661193"><ele>426.0</ele><time>2026-03-21T10:44:18.132Z</time></trkpt><trkpt lat="44.9304443" lon="9.1660609"><ele>426.0</ele><time>2026-03-21T10:44:19.131Z</time></trkpt><trkpt lat="44.9305494" lon="9.1659779"><ele>426.0</ele><time>2026-03-21T10:44:20.132Z</time></trkpt><trkpt lat="44.9306522" lon="9.1658776"><ele>426.0</ele><time>2026-03-21T10:44:21.131Z</time></trkpt><trkpt lat="44.9307543" lon="9.1657689"><ele>426.0</ele><time>2026-03-21T10:44:22.131Z</time></trkpt><trkpt lat="44.9308487" lon="9.1656578"><ele>426.0</ele><time>2026-03-21T10:44:23.132Z</time></trkpt><trkpt lat="44.9309448" lon="9.1655455"><ele>426.0</ele><time>2026-03-21T10:44:24.132Z</time></trkpt><trkpt lat="44.9310388" lon="9.1654312"><ele>424.25</ele><time>2026-03-21T10:44:25.132Z</time></trkpt><trkpt lat="44.9311268" lon="9.1653061"><ele>422.5</ele><time>2026-03-21T10:44:26.132Z</time></trkpt><trkpt lat="44.9312121" lon="9.1651773"><ele>420.75</ele><time>2026-03-21T10:44:27.132Z</time></trkpt><trkpt lat="44.9312976" lon="9.1650445"><ele>419.0</ele><time>2026-03-21T10:44:28.131Z</time></trkpt><trkpt lat="44.9313756" lon="9.1649188"><ele>418.75</ele><time>2026-03-21T10:44:29.132Z</time></trkpt><trkpt lat="44.9314562" lon="9.1647936"><ele>418.5</ele><time>2026-03-21T10:44:30.131Z</time></trkpt><trkpt lat="44.9315364" lon="9.1646602"><ele>418.25</ele><time>2026-03-21T10:44:31.131Z</time></trkpt><trkpt lat="44.9316159" lon="9.1645294"><ele>418.0</ele><time>2026-03-21T10:44:32.132Z</time></trkpt><trkpt lat="44.9316933" lon="9.1643928"><ele>416.75</ele><time>2026-03-21T10:44:33.132Z</time></trkpt><trkpt lat="44.9317733" lon="9.1642557"><ele>415.5</ele><time>2026-03-21T10:44:34.131Z</time></trkpt><trkpt lat="44.9318473" lon="9.1641252"><ele>414.25</ele><time>2026-03-21T10:44:35.132Z</time></trkpt><trkpt lat="44.9319152" lon="9.1639904"><ele>413.0</ele><time>2026-03-21T10:44:36.132Z</time></trkpt><trkpt lat="44.9319786" lon="9.1638496"><ele>411.25</ele><time>2026-03-21T10:44:37.132Z</time></trkpt><trkpt lat="44.9320391" lon="9.1637055"><ele>409.5</ele><time>2026-03-21T10:44:38.131Z</time></trkpt><trkpt lat="44.932092" lon="9.1635566"><ele>407.75</ele><time>2026-03-21T10:44:39.132Z</time></trkpt><trkpt lat="44.9321394" lon="9.1633965"><ele>406.0</ele><time>2026-03-21T10:44:40.132Z</time></trkpt><trkpt lat="44.9321811" lon="9.1632392"><ele>406.5</ele><time>2026-03-21T10:44:41.131Z</time></trkpt><trkpt lat="44.932208" lon="9.1630787"><ele>407.0</ele><time>2026-03-21T10:44:42.132Z</time></trkpt><trkpt lat="44.9322252" lon="9.1629114"><ele>407.5</ele><time>2026-03-21T10:44:43.132Z</time></trkpt><trkpt lat="44.9322374" lon="9.1627494"><ele>408.0</ele><time>2026-03-21T10:44:44.132Z</time></trkpt><trkpt lat="44.9322447" lon="9.1625893"><ele>408.0</ele><time>2026-03-21T10:44:45.131Z</time></trkpt><trkpt lat="44.9322559" lon="9.1624339"><ele>408.0</ele><time>2026-03-21T10:44:46.132Z</time></trkpt><trkpt lat="44.9322657" lon="9.1622796"><ele>408.0</ele><time>2026-03-21T10:44:47.131Z</time></trkpt><trkpt lat="44.9322716" lon="9.1621273"><ele>408.0</ele><time>2026-03-21T10:44:48.132Z</time></trkpt><trkpt lat="44.9322834" lon="9.1619788"><ele>408.0</ele><time>2026-03-21T10:44:49.131Z</time></trkpt><trkpt lat="44.9322901" lon="9.1618326"><ele>408.5</ele><time>2026-03-21T10:44:50.131Z</time></trkpt><trkpt lat="44.9322993" lon="9.1616942"><ele>409.0</ele><time>2026-03-21T10:44:51.132Z</time></trkpt><trkpt lat="44.9323079" lon="9.1615593"><ele>409.5</ele><time>2026-03-21T10:44:52.131Z</time></trkpt><trkpt lat="44.9323129" lon="9.1614354"><ele>410.0</ele><time>2026-03-21T10:44:53.132Z</time></trkpt><trkpt lat="44.9323188" lon="9.161322"><ele>410.5</ele><time>2026-03-21T10:44:54.132Z</time></trkpt><trkpt lat="44.9323279" lon="9.1612288"><ele>411.0</ele><time>2026-03-21T10:44:55.131Z</time></trkpt><trkpt lat="44.9323497" lon="9.1610887"><ele>410.8333333333333</ele><time>2026-03-21T10:44:57.131Z</time></trkpt><trkpt lat="44.9323793" lon="9.1609498"><ele>410.66666666666663</ele><time>2026-03-21T10:44:59.131Z</time></trkpt><trkpt lat="44.9324085" lon="9.1608622"><ele>410.5</ele><time>2026-03-21T10:45:00.131Z</time></trkpt><trkpt lat="44.9324434" lon="9.1607622"><ele>410.3333333333333</ele><time>2026-03-21T10:45:01.132Z</time></trkpt><trkpt lat="44.9324868" lon="9.1606537"><ele>410.16666666666663</ele><time>2026-03-21T10:45:02.132Z</time></trkpt><trkpt lat="44.9325332" lon="9.1605554"><ele>410.0</ele><time>2026-03-21T10:45:03.132Z</time></trkpt><trkpt lat="44.9325874" lon="9.1604551"><ele>411.4</ele><time>2026-03-21T10:45:04.132Z</time></trkpt><trkpt lat="44.932654" lon="9.1603515"><ele>412.8</ele><time>2026-03-21T10:45:05.132Z</time></trkpt><trkpt lat="44.9327215" lon="9.1602428"><ele>414.20000000000005</ele><time>2026-03-21T10:45:06.131Z</time></trkpt><trkpt lat="44.9327859" lon="9.1601334"><ele>415.6</ele><time>2026-03-21T10:45:07.132Z</time></trkpt><trkpt lat="44.9328473" lon="9.1600135"><ele>417.0</ele><time>2026-03-21T10:45:08.132Z</time></trkpt><trkpt lat="44.932891" lon="9.1598851"><ele>416.20000000000005</ele><time>2026-03-21T10:45:09.132Z</time></trkpt><trkpt lat="44.932912" lon="9.1597474"><ele>415.4</ele><time>2026-03-21T10:45:10.132Z</time></trkpt><trkpt lat="44.9329186" lon="9.1595946"><ele>414.6</ele><time>2026-03-21T10:45:11.132Z</time></trkpt><trkpt lat="44.932915" lon="9.1594412"><ele>413.79999999999995</ele><time>2026-03-21T10:45:12.131Z</time></trkpt><trkpt lat="44.9329091" lon="9.1592811"><ele>413.0</ele><time>2026-03-21T10:45:13.131Z</time></trkpt><trkpt lat="44.9329069" lon="9.1591134"><ele>410.75</ele><time>2026-03-21T10:45:14.131Z</time></trkpt><trkpt lat="44.9328999" lon="9.1589357"><ele>408.5</ele><time>2026-03-21T10:45:15.132Z</time></trkpt><trkpt lat="44.9328891" lon="9.1587556"><ele>406.25</ele><time>2026-03-21T10:45:16.132Z</time></trkpt><trkpt lat="44.9328754" lon="9.158578"><ele>404.0</ele><time>2026-03-21T10:45:17.132Z</time></trkpt><trkpt lat="44.932851" lon="9.1584163"><ele>404.0</ele><time>2026-03-21T10:45:18.131Z</time></trkpt><trkpt lat="44.9328288" lon="9.1582518"><ele>404.0</ele><time>2026-03-21T10:45:19.132Z</time></trkpt><trkpt lat="44.9328066" lon="9.1581027"><ele>404.0</ele><time>2026-03-21T10:45:20.132Z</time></trkpt><trkpt lat="44.9327865" lon="9.157959"><ele>404.0</ele><time>2026-03-21T10:45:21.131Z</time></trkpt><trkpt lat="44.9327712" lon="9.1578211"><ele>404.0</ele><time>2026-03-21T10:45:22.132Z</time></trkpt><trkpt lat="44.9327687" lon="9.157688"><ele>405.6</ele><time>2026-03-21T10:45:23.131Z</time></trkpt><trkpt lat="44.9327955" lon="9.1575653"><ele>407.2</ele><time>2026-03-21T10:45:24.131Z</time></trkpt><trkpt lat="44.9328385" lon="9.1574474"><ele>408.8</ele><time>2026-03-21T10:45:25.131Z</time></trkpt><trkpt lat="44.9328977" lon="9.1573357"><ele>410.40000000000003</ele><time>2026-03-21T10:45:26.131Z</time></trkpt><trkpt lat="44.9329744" lon="9.1572398"><ele>412.0</ele><time>2026-03-21T10:45:27.132Z</time></trkpt><trkpt lat="44.9330599" lon="9.1571735"><ele>413.0</ele><time>2026-03-21T10:45:28.131Z</time></trkpt><trkpt lat="44.9331526" lon="9.1571439"><ele>414.0</ele><time>2026-03-21T10:45:29.132Z</time></trkpt><trkpt lat="44.9323793" lon="9.1609498"><ele>414.0</ele><time>2026-03-21T10:44:59.131Z</time></trkpt><trkpt lat="44.9324085" lon="9.1608622"><ele>414.0</ele><time>2026-03-21T10:45:00.131Z</time></trkpt><trkpt lat="44.9324434" lon="9.1607622"><ele>414.0</ele><time>2026-03-21T10:45:01.132Z</time></trkpt><trkpt lat="44.9324868" lon="9.1606537"><ele>414.0</ele><time>2026-03-21T10:45:02.132Z</time></trkpt><trkpt lat="44.9325332" lon="9.1605554"><ele>414.0</ele><time>2026-03-21T10:45:03.132Z</time></trkpt><trkpt lat="44.9325874" lon="9.1604551"><ele>414.0</ele><time>2026-03-21T10:45:04.132Z</time></trkpt><trkpt lat="44.932654" lon="9.1603515"><ele>413.79999999999995</ele><time>2026-03-21T10:45:05.132Z</time></trkpt><trkpt lat="44.9327215" lon="9.1602428"><ele>413.59999999999997</ele><time>2026-03-21T10:45:06.131Z</time></trkpt><trkpt lat="44.9327859" lon="9.1601334"><ele>413.4</ele><time>2026-03-21T10:45:07.132Z</time></trkpt><trkpt lat="44.9328473" lon="9.1600135"><ele>413.2</ele><time>2026-03-21T10:45:08.132Z</time></trkpt><trkpt lat="44.932891" lon="9.1598851"><ele>413.0</ele><time>2026-03-21T10:45:09.132Z</time></trkpt><trkpt lat="44.932912" lon="9.1597474"><ele>413.0</ele><time>2026-03-21T10:45:10.132Z</time></trkpt><trkpt lat="44.9329186" lon="9.1595946"><ele>413.0</ele><time>2026-03-21T10:45:11.132Z</time></trkpt><trkpt lat="44.932915" lon="9.1594412"><ele>413.0</ele><time>2026-03-21T10:45:12.131Z</time></trkpt><trkpt lat="44.9329091" lon="9.1592811"><ele>413.0</ele><time>2026-03-21T10:45:13.131Z</time></trkpt><trkpt lat="44.9329069" lon="9.1591134"><ele>413.0</ele><time>2026-03-21T10:45:14.131Z</time></trkpt><trkpt lat="44.9328999" lon="9.1589357"><ele>410.75</ele><time>2026-03-21T10:45:15.132Z</time></trkpt><trkpt lat="44.9328891" lon="9.1587556"><ele>408.5</ele><time>2026-03-21T10:45:16.132Z</time></trkpt><trkpt lat="44.9328754" lon="9.158578"><ele>406.25</ele><time>2026-03-21T10:45:17.132Z</time></trkpt><trkpt lat="44.932851" lon="9.1584163"><ele>404.0</ele><time>2026-03-21T10:45:18.131Z</time></trkpt><trkpt lat="44.9328288" lon="9.1582518"><ele>405.6</ele><time>2026-03-21T10:45:19.132Z</time></trkpt><trkpt lat="44.9328066" lon="9.1581027"><ele>407.2</ele><time>2026-03-21T10:45:20.132Z</time></trkpt><trkpt lat="44.9327865" lon="9.157959"><ele>408.8</ele><time>2026-03-21T10:45:21.131Z</time></trkpt><trkpt lat="44.9327712" lon="9.1578211"><ele>410.40000000000003</ele><time>2026-03-21T10:45:22.132Z</time></trkpt><trkpt lat="44.9327687" lon="9.157688"><ele>412.0</ele><time>2026-03-21T10:45:23.131Z</time></trkpt><trkpt lat="44.9327955" lon="9.1575653"><ele>412.0</ele><time>2026-03-21T10:45:24.131Z</time></trkpt><trkpt lat="44.9328385" lon="9.1574474"><ele>412.0</ele><time>2026-03-21T10:45:25.131Z</time></trkpt><trkpt lat="44.9328977" lon="9.1573357"><ele>412.0</ele><time>2026-03-21T10:45:26.131Z</time></trkpt><trkpt lat="44.9329744" lon="9.1572398"><ele>412.0</ele><time>2026-03-21T10:45:27.132Z</time></trkpt><trkpt lat="44.9330599" lon="9.1571735"><ele>412.0</ele><time>2026-03-21T10:45:28.131Z</time></trkpt><trkpt lat="44.9331526" lon="9.1571439"><ele>413.50000000000006</ele><time>2026-03-21T10:45:29.132Z</time></trkpt><trkpt lat="44.9332453" lon="9.1571292"><ele>415.0</ele><time>2026-03-21T10:45:30.131Z</time></trkpt><trkpt lat="44.9333336" lon="9.1571146"><ele>416.5</ele><time>2026-03-21T10:45:31.132Z</time></trkpt><trkpt lat="44.9334157" lon="9.1570698"><ele>418.0</ele><time>2026-03-21T10:45:32.132Z</time></trkpt><trkpt lat="44.9334906" lon="9.1570233"><ele>419.50000000000006</ele><time>2026-03-21T10:45:33.131Z</time></trkpt><trkpt lat="44.9335455" lon="9.1569545"><ele>421.0</ele><time>2026-03-21T10:45:34.131Z</time></trkpt><trkpt lat="44.9335801" lon="9.1568683"><ele>416.1666666666667</ele><time>2026-03-21T10:45:35.131Z</time></trkpt><trkpt lat="44.9335929" lon="9.1567721"><ele>411.33333333333337</ele><time>2026-03-21T10:45:36.132Z</time></trkpt><trkpt lat="44.9335602" lon="9.1566651"><ele>406.5</ele><time>2026-03-21T10:45:37.131Z</time></trkpt><trkpt lat="44.9335166" lon="9.1565624"><ele>401.66666666666663</ele><time>2026-03-21T10:45:38.131Z</time></trkpt><trkpt lat="44.9334766" lon="9.1564465"><ele>396.8333333333333</ele><time>2026-03-21T10:45:39.131Z</time></trkpt><trkpt lat="44.9334516" lon="9.1563196"><ele>392.0</ele><time>2026-03-21T10:45:40.132Z</time></trkpt><trkpt lat="44.9334561" lon="9.1561928"><ele>391.8</ele><time>2026-03-21T10:45:41.132Z</time></trkpt><trkpt lat="44.9334944" lon="9.1560718"><ele>391.6</ele><time>2026-03-21T10:45:42.132Z</time></trkpt><trkpt lat="44.9335533" lon="9.1559425"><ele>391.40000000000003</ele><time>2026-03-21T10:45:43.132Z</time></trkpt><trkpt lat="44.9336173" lon="9.1557991"><ele>391.20000000000005</ele><time>2026-03-21T10:45:44.132Z</time></trkpt><trkpt lat="44.9336788" lon="9.1556476"><ele>391.0</ele><time>2026-03-21T10:45:45.131Z</time></trkpt><trkpt lat="44.9337363" lon="9.1555041"><ele>391.75</ele><time>2026-03-21T10:45:46.132Z</time></trkpt><trkpt lat="44.933795" lon="9.1553554"><ele>392.5</ele><time>2026-03-21T10:45:47.132Z</time></trkpt><trkpt lat="44.9338525" lon="9.1552151"><ele>393.25</ele><time>2026-03-21T10:45:48.131Z</time></trkpt><trkpt lat="44.9339077" lon="9.1550803"><ele>394.0</ele><time>2026-03-21T10:45:49.131Z</time></trkpt><trkpt lat="44.9339624" lon="9.1549448"><ele>393.6</ele><time>2026-03-21T10:45:50.132Z</time></trkpt><trkpt lat="44.9340181" lon="9.1548175"><ele>393.2</ele><time>2026-03-21T10:45:51.131Z</time></trkpt><trkpt lat="44.9340777" lon="9.1547003"><ele>392.8</ele><time>2026-03-21T10:45:52.131Z</time></trkpt><trkpt lat="44.9341453" lon="9.1545899"><ele>392.40000000000003</ele><time>2026-03-21T10:45:53.132Z</time></trkpt><trkpt lat="44.9342194" lon="9.1544843"><ele>392.0</ele><time>2026-03-21T10:45:54.131Z</time></trkpt><trkpt lat="44.9342893" lon="9.1543886"><ele>392.49999999999994</ele><time>2026-03-21T10:45:55.131Z</time></trkpt><trkpt lat="44.934364" lon="9.1542975"><ele>393.0</ele><time>2026-03-21T10:45:56.131Z</time></trkpt><trkpt lat="44.9344375" lon="9.1542173"><ele>393.5</ele><time>2026-03-21T10:45:57.131Z</time></trkpt><trkpt lat="44.9345081" lon="9.1541415"><ele>394.0</ele><time>2026-03-21T10:45:58.132Z</time></trkpt><trkpt lat="44.9345769" lon="9.1540709"><ele>394.49999999999994</ele><time>2026-03-21T10:45:59.132Z</time></trkpt><trkpt lat="44.9346366" lon="9.1539993"><ele>395.0</ele><time>2026-03-21T10:46:00.132Z</time></trkpt><trkpt lat="44.9346964" lon="9.1539352"><ele>394.99999999999994</ele><time>2026-03-21T10:46:01.131Z</time></trkpt><trkpt lat="44.934759" lon="9.1538779"><ele>395.0</ele><time>2026-03-21T10:46:02.132Z</time></trkpt><trkpt lat="44.9348224" lon="9.1538376"><ele>395.0</ele><time>2026-03-21T10:46:03.131Z</time></trkpt><trkpt lat="44.9348981" lon="9.1538199"><ele>395.0</ele><time>2026-03-21T10:46:04.131Z</time></trkpt><trkpt lat="44.934982" lon="9.1538121"><ele>394.99999999999994</ele><time>2026-03-21T10:46:05.131Z</time></trkpt><trkpt lat="44.9350741" lon="9.1538111"><ele>395.0</ele><time>2026-03-21T10:46:06.131Z</time></trkpt><trkpt lat="44.9351762" lon="9.153815"><ele>396.0</ele><time>2026-03-21T10:46:07.132Z</time></trkpt><trkpt lat="44.9352734" lon="9.1538051"><ele>397.0</ele><time>2026-03-21T10:46:08.132Z</time></trkpt><trkpt lat="44.9353666" lon="9.1537939"><ele>398.0</ele><time>2026-03-21T10:46:09.132Z</time></trkpt><trkpt lat="44.9354748" lon="9.1537787"><ele>399.0</ele><time>2026-03-21T10:46:10.131Z</time></trkpt><trkpt lat="44.9355728" lon="9.153767"><ele>400.0</ele><time>2026-03-21T10:46:11.131Z</time></trkpt><trkpt lat="44.9356696" lon="9.1537544"><ele>400.00000000000006</ele><time>2026-03-21T10:46:12.131Z</time></trkpt><trkpt lat="44.935761" lon="9.1537501"><ele>400.0</ele><time>2026-03-21T10:46:13.131Z</time></trkpt><trkpt lat="44.9358382" lon="9.1537377"><ele>400.0</ele><time>2026-03-21T10:46:14.131Z</time></trkpt><trkpt lat="44.935905" lon="9.1537097"><ele>400.0</ele><time>2026-03-21T10:46:15.131Z</time></trkpt><trkpt lat="44.9359593" lon="9.1536446"><ele>400.00000000000006</ele><time>2026-03-21T10:46:16.131Z</time></trkpt><trkpt lat="44.9360061" lon="9.1535449"><ele>400.0</ele><time>2026-03-21T10:46:17.131Z</time></trkpt><trkpt lat="44.9360601" lon="9.1534227"><ele>402.0</ele><time>2026-03-21T10:46:18.132Z</time></trkpt><trkpt lat="44.9361136" lon="9.1532789"><ele>404.0</ele><time>2026-03-21T10:46:19.131Z</time></trkpt><trkpt lat="44.9361482" lon="9.1531149"><ele>406.0</ele><time>2026-03-21T10:46:20.131Z</time></trkpt><trkpt lat="44.9361691" lon="9.1529213"><ele>408.0</ele><time>2026-03-21T10:46:21.131Z</time></trkpt><trkpt lat="44.9361811" lon="9.1527285"><ele>408.5</ele><time>2026-03-21T10:46:22.131Z</time></trkpt><trkpt lat="44.9361864" lon="9.1525476"><ele>409.0</ele><time>2026-03-21T10:46:23.132Z</time></trkpt><trkpt lat="44.9361851" lon="9.1523696"><ele>409.5</ele><time>2026-03-21T10:46:24.132Z</time></trkpt><trkpt lat="44.9361638" lon="9.1522025"><ele>410.0</ele><time>2026-03-21T10:46:25.132Z</time></trkpt><trkpt lat="44.9361329" lon="9.1520275"><ele>410.0</ele><time>2026-03-21T10:46:26.131Z</time></trkpt><trkpt lat="44.9361016" lon="9.1518544"><ele>410.0</ele><time>2026-03-21T10:46:27.132Z</time></trkpt><trkpt lat="44.9360832" lon="9.1516635"><ele>410.0</ele><time>2026-03-21T10:46:28.132Z</time></trkpt><trkpt lat="44.9360863" lon="9.1514577"><ele>410.0</ele><time>2026-03-21T10:46:29.132Z</time></trkpt><trkpt lat="44.9360855" lon="9.1512675"><ele>410.5</ele><time>2026-03-21T10:46:30.132Z</time></trkpt><trkpt lat="44.936068" lon="9.1510881"><ele>411.0</ele><time>2026-03-21T10:46:31.131Z</time></trkpt><trkpt lat="44.9360416" lon="9.1509128"><ele>411.5</ele><time>2026-03-21T10:46:32.132Z</time></trkpt><trkpt lat="44.9360235" lon="9.1507269"><ele>412.0</ele><time>2026-03-21T10:46:33.131Z</time></trkpt><trkpt lat="44.9360275" lon="9.1505294"><ele>412.25</ele><time>2026-03-21T10:46:34.132Z</time></trkpt><trkpt lat="44.9360439" lon="9.1503466"><ele>412.5</ele><time>2026-03-21T10:46:35.132Z</time></trkpt><trkpt lat="44.9360508" lon="9.1501755"><ele>412.75</ele><time>2026-03-21T10:46:36.131Z</time></trkpt><trkpt lat="44.9360368" lon="9.1499986"><ele>413.0</ele><time>2026-03-21T10:46:37.132Z</time></trkpt><trkpt lat="44.9360031" lon="9.1498084"><ele>411.25</ele><time>2026-03-21T10:46:38.132Z</time></trkpt><trkpt lat="44.9359609" lon="9.1496513"><ele>409.5</ele><time>2026-03-21T10:46:39.132Z</time></trkpt><trkpt lat="44.9358991" lon="9.1495213"><ele>407.75</ele><time>2026-03-21T10:46:40.132Z</time></trkpt><trkpt lat="44.9357978" lon="9.1494169"><ele>406.0</ele><time>2026-03-21T10:46:41.132Z</time></trkpt><trkpt lat="44.9356802" lon="9.1493584"><ele>404.0</ele><time>2026-03-21T10:46:42.132Z</time></trkpt><trkpt lat="44.9355631" lon="9.1493377"><ele>402.0</ele><time>2026-03-21T10:46:43.132Z</time></trkpt><trkpt lat="44.9354536" lon="9.1493092"><ele>400.0</ele><time>2026-03-21T10:46:44.131Z</time></trkpt><trkpt lat="44.9353568" lon="9.1492494"><ele>398.0</ele><time>2026-03-21T10:46:45.132Z</time></trkpt><trkpt lat="44.9352787" lon="9.1491585"><ele>396.0</ele><time>2026-03-21T10:46:46.131Z</time></trkpt><trkpt lat="44.9352092" lon="9.1490445"><ele>397.5</ele><time>2026-03-21T10:46:47.132Z</time></trkpt><trkpt lat="44.9351572" lon="9.1489025"><ele>399.0</ele><time>2026-03-21T10:46:48.132Z</time></trkpt><trkpt lat="44.9351198" lon="9.1487382"><ele>400.5</ele><time>2026-03-21T10:46:49.131Z</time></trkpt><trkpt lat="44.9350928" lon="9.1485577"><ele>402.0</ele><time>2026-03-21T10:46:50.132Z</time></trkpt><trkpt lat="44.9350614" lon="9.1483646"><ele>397.0</ele><time>2026-03-21T10:46:51.132Z</time></trkpt><trkpt lat="44.9350286" lon="9.1481799"><ele>392.0</ele><time>2026-03-21T10:46:52.132Z</time></trkpt><trkpt lat="44.9349854" lon="9.1479874"><ele>387.0</ele><time>2026-03-21T10:46:53.132Z</time></trkpt><trkpt lat="44.9349715" lon="9.1478128"><ele>382.0</ele><time>2026-03-21T10:46:54.132Z</time></trkpt><trkpt lat="44.9349798" lon="9.1476597"><ele>382.0</ele><time>2026-03-21T10:46:55.132Z</time></trkpt><trkpt lat="44.935012" lon="9.1475051"><ele>382.0</ele><time>2026-03-21T10:46:56.131Z</time></trkpt><trkpt lat="44.9350438" lon="9.1473436"><ele>382.0</ele><time>2026-03-21T10:46:57.131Z</time></trkpt><trkpt lat="44.9350424" lon="9.1471696"><ele>382.0</ele><time>2026-03-21T10:46:58.132Z</time></trkpt><trkpt lat="44.9350181" lon="9.1469945"><ele>382.0</ele><time>2026-03-21T10:46:59.132Z</time></trkpt><trkpt lat="44.934991" lon="9.1468091"><ele>382.0</ele><time>2026-03-21T10:47:00.132Z</time></trkpt><trkpt lat="44.9349715" lon="9.1466305"><ele>382.0</ele><time>2026-03-21T10:47:01.131Z</time></trkpt><trkpt lat="44.9349494" lon="9.1464606"><ele>382.0</ele><time>2026-03-21T10:47:02.132Z</time></trkpt><trkpt lat="44.9349272" lon="9.146304"><ele>382.5</ele><time>2026-03-21T10:47:03.131Z</time></trkpt><trkpt lat="44.9348777" lon="9.1461509"><ele>383.0</ele><time>2026-03-21T10:47:04.131Z</time></trkpt><trkpt lat="44.9348047" lon="9.1460024"><ele>383.5</ele><time>2026-03-21T10:47:05.131Z</time></trkpt><trkpt lat="44.9347171" lon="9.1458507"><ele>384.0</ele><time>2026-03-21T10:47:06.132Z</time></trkpt><trkpt lat="44.9346451" lon="9.1456892"><ele>384.25</ele><time>2026-03-21T10:47:07.131Z</time></trkpt><trkpt lat="44.93458" lon="9.1455332"><ele>384.5</ele><time>2026-03-21T10:47:08.131Z</time></trkpt><trkpt lat="44.93452" lon="9.1453756"><ele>384.75</ele><time>2026-03-21T10:47:09.131Z</time></trkpt><trkpt lat="44.9344757" lon="9.1452187"><ele>385.0</ele><time>2026-03-21T10:47:10.132Z</time></trkpt><trkpt lat="44.9344396" lon="9.1450605"><ele>385.0</ele><time>2026-03-21T10:47:11.131Z</time></trkpt><trkpt lat="44.9344131" lon="9.1448955"><ele>385.0</ele><time>2026-03-21T10:47:12.132Z</time></trkpt><trkpt lat="44.9343932" lon="9.1447243"><ele>385.0</ele><time>2026-03-21T10:47:13.131Z</time></trkpt><trkpt lat="44.9343879" lon="9.1445344"><ele>385.0</ele><time>2026-03-21T10:47:14.132Z</time></trkpt><trkpt lat="44.9343947" lon="9.1443506"><ele>382.75</ele><time>2026-03-21T10:47:15.131Z</time></trkpt><trkpt lat="44.9344152" lon="9.1441729"><ele>380.5</ele><time>2026-03-21T10:47:16.132Z</time></trkpt><trkpt lat="44.9344481" lon="9.1439978"><ele>378.25</ele><time>2026-03-21T10:47:17.131Z</time></trkpt><trkpt lat="44.9344874" lon="9.1438367"><ele>376.0</ele><time>2026-03-21T10:47:18.132Z</time></trkpt><trkpt lat="44.93452" lon="9.1436799"><ele>373.0</ele><time>2026-03-21T10:47:19.132Z</time></trkpt><trkpt lat="44.9345364" lon="9.1435328"><ele>370.0</ele><time>2026-03-21T10:47:20.132Z</time></trkpt><trkpt lat="44.9345352" lon="9.1433892"><ele>367.0</ele><time>2026-03-21T10:47:21.131Z</time></trkpt><trkpt lat="44.9345091" lon="9.1432627"><ele>364.0</ele><time>2026-03-21T10:47:22.132Z</time></trkpt><trkpt lat="44.9344773" lon="9.1431593"><ele>361.0</ele><time>2026-03-21T10:47:23.132Z</time></trkpt><trkpt lat="44.9344979" lon="9.1429898"><ele>359.0</ele><time>2026-03-21T10:47:25.132Z</time></trkpt><trkpt lat="44.9345367" lon="9.1429111"><ele>357.0</ele><time>2026-03-21T10:47:26.131Z</time></trkpt><trkpt lat="44.9345727" lon="9.1428366"><ele>355.0</ele><time>2026-03-21T10:47:27.132Z</time></trkpt><trkpt lat="44.934635" lon="9.142689"><ele>353.0</ele><time>2026-03-21T10:47:29.132Z</time></trkpt><trkpt lat="44.9346899" lon="9.1425416"><ele>351.0</ele><time>2026-03-21T10:47:31.132Z</time></trkpt><trkpt lat="44.9347268" lon="9.1423984"><ele>350.4</ele><time>2026-03-21T10:47:33.131Z</time></trkpt><trkpt lat="44.9347413" lon="9.1422547"><ele>349.8</ele><time>2026-03-21T10:47:35.132Z</time></trkpt><trkpt lat="44.9347273" lon="9.1421117"><ele>349.2</ele><time>2026-03-21T10:47:37.131Z</time></trkpt><trkpt lat="44.9347063" lon="9.1419736"><ele>348.59999999999997</ele><time>2026-03-21T10:47:39.132Z</time></trkpt><trkpt lat="44.9346703" lon="9.1418271"><ele>348.0</ele><time>2026-03-21T10:47:41.132Z</time></trkpt><trkpt lat="44.9346236" lon="9.1416707"><ele>348.0</ele><time>2026-03-21T10:47:43.132Z</time></trkpt><trkpt lat="44.9346011" lon="9.141576"><ele>348.0</ele><time>2026-03-21T10:47:44.131Z</time></trkpt><trkpt lat="44.9345737" lon="9.1414945"><ele>348.0</ele><time>2026-03-21T10:47:45.131Z</time></trkpt><trkpt lat="44.9345473" lon="9.1414112"><ele>348.0</ele><time>2026-03-21T10:47:46.131Z</time></trkpt><trkpt lat="44.9345164" lon="9.1413195"><ele>348.0</ele><time>2026-03-21T10:47:47.131Z</time></trkpt><trkpt lat="44.9344951" lon="9.1412213"><ele>348.0</ele><time>2026-03-21T10:47:48.131Z</time></trkpt><trkpt lat="44.934497" lon="9.1411235"><ele>348.0</ele><time>2026-03-21T10:47:49.132Z</time></trkpt><trkpt lat="44.9345284" lon="9.1410446"><ele>347.5</ele><time>2026-03-21T10:47:50.131Z</time></trkpt><trkpt lat="44.9345998" lon="9.1409985"><ele>347.0</ele><time>2026-03-21T10:47:51.131Z</time></trkpt><trkpt lat="44.9346747" lon="9.1410002"><ele>346.5</ele><time>2026-03-21T10:47:52.131Z</time></trkpt><trkpt lat="44.9347513" lon="9.141022"><ele>346.0</ele><time>2026-03-21T10:47:53.131Z</time></trkpt><trkpt lat="44.934829" lon="9.1410526"><ele>345.5</ele><time>2026-03-21T10:47:54.132Z</time></trkpt><trkpt lat="44.9349123" lon="9.1410885"><ele>345.0</ele><time>2026-03-21T10:47:55.132Z</time></trkpt><trkpt lat="44.9349962" lon="9.1411191"><ele>342.8333333333333</ele><time>2026-03-21T10:47:56.132Z</time></trkpt><trkpt lat="44.9350765" lon="9.1411437"><ele>340.6666666666667</ele><time>2026-03-21T10:47:57.132Z</time></trkpt><trkpt lat="44.9351591" lon="9.1411459"><ele>338.5</ele><time>2026-03-21T10:47:58.131Z</time></trkpt><trkpt lat="44.9352335" lon="9.1411075"><ele>336.33333333333337</ele><time>2026-03-21T10:47:59.131Z</time></trkpt><trkpt lat="44.9352944" lon="9.1410297"><ele>334.1666666666667</ele><time>2026-03-21T10:48:00.131Z</time></trkpt><trkpt lat="44.9353319" lon="9.1409259"><ele>332.0</ele><time>2026-03-21T10:48:01.132Z</time></trkpt><trkpt lat="44.9353542" lon="9.1408092"><ele>332.0</ele><time>2026-03-21T10:48:02.131Z</time></trkpt><trkpt lat="44.9353652" lon="9.1406839"><ele>332.0</ele><time>2026-03-21T10:48:03.131Z</time></trkpt><trkpt lat="44.9353771" lon="9.140555"><ele>332.0</ele><time>2026-03-21T10:48:04.131Z</time></trkpt><trkpt lat="44.9353826" lon="9.1404219"><ele>332.0</ele><time>2026-03-21T10:48:05.132Z</time></trkpt><trkpt lat="44.9353924" lon="9.1402908"><ele>332.0</ele><time>2026-03-21T10:48:06.131Z</time></trkpt><trkpt lat="44.9354012" lon="9.140164"><ele>332.0</ele><time>2026-03-21T10:48:07.132Z</time></trkpt><trkpt lat="44.9354116" lon="9.1400388"><ele>332.0</ele><time>2026-03-21T10:48:08.132Z</time></trkpt><trkpt lat="44.9354086" lon="9.139924"><ele>332.0</ele><time>2026-03-21T10:48:09.132Z</time></trkpt><trkpt lat="44.9353844" lon="9.1398205"><ele>332.0</ele><time>2026-03-21T10:48:10.131Z</time></trkpt><trkpt lat="44.9353414" lon="9.1397344"><ele>332.0</ele><time>2026-03-21T10:48:11.131Z</time></trkpt><trkpt lat="44.9352805" lon="9.1396596"><ele>332.0</ele><time>2026-03-21T10:48:12.132Z</time></trkpt><trkpt lat="44.9352093" lon="9.1395886"><ele>332.8</ele><time>2026-03-21T10:48:13.131Z</time></trkpt><trkpt lat="44.9351323" lon="9.1395228"><ele>333.6</ele><time>2026-03-21T10:48:14.131Z</time></trkpt><trkpt lat="44.9350494" lon="9.1394605"><ele>334.40000000000003</ele><time>2026-03-21T10:48:15.131Z</time></trkpt><trkpt lat="44.9349685" lon="9.1393924"><ele>335.20000000000005</ele><time>2026-03-21T10:48:16.132Z</time></trkpt><trkpt lat="44.9348814" lon="9.1393226"><ele>336.0</ele><time>2026-03-21T10:48:17.131Z</time></trkpt><trkpt lat="44.9347926" lon="9.1392532"><ele>336.0</ele><time>2026-03-21T10:48:18.132Z</time></trkpt><trkpt lat="44.9347008" lon="9.1391809"><ele>336.0</ele><time>2026-03-21T10:48:19.132Z</time></trkpt><trkpt lat="44.9346054" lon="9.1391068"><ele>336.0</ele><time>2026-03-21T10:48:20.132Z</time></trkpt><trkpt lat="44.9345002" lon="9.139031"><ele>336.0</ele><time>2026-03-21T10:48:21.131Z</time></trkpt><trkpt lat="44.9343992" lon="9.1389557"><ele>336.0</ele><time>2026-03-21T10:48:22.131Z</time></trkpt><trkpt lat="44.9342933" lon="9.1388725"><ele>334.5</ele><time>2026-03-21T10:48:23.132Z</time></trkpt><trkpt lat="44.9341854" lon="9.1387937"><ele>333.0</ele><time>2026-03-21T10:48:24.132Z</time></trkpt><trkpt lat="44.9340767" lon="9.1387057"><ele>331.5</ele><time>2026-03-21T10:48:25.131Z</time></trkpt><trkpt lat="44.9339633" lon="9.1386204"><ele>330.0</ele><time>2026-03-21T10:48:26.132Z</time></trkpt><trkpt lat="44.9338514" lon="9.1385238"><ele>330.0</ele><time>2026-03-21T10:48:27.132Z</time></trkpt><trkpt lat="44.9337487" lon="9.1384248"><ele>330.0</ele><time>2026-03-21T10:48:28.131Z</time></trkpt><trkpt lat="44.9336545" lon="9.1383202"><ele>330.0</ele><time>2026-03-21T10:48:29.132Z</time></trkpt><trkpt lat="44.9335884" lon="9.1381964"><ele>330.0</ele><time>2026-03-21T10:48:30.131Z</time></trkpt><trkpt lat="44.9335422" lon="9.1380599"><ele>330.4</ele><time>2026-03-21T10:48:31.132Z</time></trkpt><trkpt lat="44.9335088" lon="9.1379128"><ele>330.8</ele><time>2026-03-21T10:48:32.132Z</time></trkpt><trkpt lat="44.9334854" lon="9.1377663"><ele>331.20000000000005</ele><time>2026-03-21T10:48:33.131Z</time></trkpt><trkpt lat="44.9334789" lon="9.1376323"><ele>331.6</ele><time>2026-03-21T10:48:34.131Z</time></trkpt><trkpt lat="44.933487" lon="9.137518"><ele>332.0</ele><time>2026-03-21T10:48:35.131Z</time></trkpt><trkpt lat="44.9335054" lon="9.1374015"><ele>331.83333333333337</ele><time>2026-03-21T10:48:36.132Z</time></trkpt><trkpt lat="44.9335426" lon="9.1372881"><ele>331.6666666666667</ele><time>2026-03-21T10:48:37.131Z</time></trkpt><trkpt lat="44.9335915" lon="9.1371844"><ele>331.5</ele><time>2026-03-21T10:48:38.132Z</time></trkpt><trkpt lat="44.9336537" lon="9.1370863"><ele>331.3333333333333</ele><time>2026-03-21T10:48:39.132Z</time></trkpt><trkpt lat="44.9337141" lon="9.1370001"><ele>331.16666666666663</ele><time>2026-03-21T10:48:40.132Z</time></trkpt><trkpt lat="44.9337602" lon="9.1369254"><ele>331.0</ele><time>2026-03-21T10:48:41.132Z</time></trkpt><trkpt lat="44.9337529" lon="9.136781"><ele>331.0</ele><time>2026-03-21T10:48:43.131Z</time></trkpt><trkpt lat="44.933649" lon="9.1367949"><ele>331.0</ele><time>2026-03-21T10:48:45.131Z</time></trkpt><trkpt lat="44.9335559" lon="9.136912"><ele>331.0</ele><time>2026-03-21T10:48:47.131Z</time></trkpt><trkpt lat="44.9335039" lon="9.1369768"><ele>331.0</ele><time>2026-03-21T10:48:48.131Z</time></trkpt><trkpt lat="44.9334521" lon="9.1370465"><ele>331.0</ele><time>2026-03-21T10:48:49.131Z</time></trkpt><trkpt lat="44.9333967" lon="9.1371229"><ele>331.0</ele><time>2026-03-21T10:48:50.132Z</time></trkpt><trkpt lat="44.9333437" lon="9.1372012"><ele>326.2</ele><time>2026-03-21T10:48:51.132Z</time></trkpt><trkpt lat="44.9332899" lon="9.1372754"><ele>321.40000000000003</ele><time>2026-03-21T10:48:52.131Z</time></trkpt><trkpt lat="44.9331847" lon="9.1373036"><ele>316.6</ele><time>2026-03-21T10:48:54.132Z</time></trkpt><trkpt lat="44.9331781" lon="9.1371774"><ele>311.8</ele><time>2026-03-21T10:48:56.132Z</time></trkpt><trkpt lat="44.9332676" lon="9.1370828"><ele>307.0</ele><time>2026-03-21T10:48:58.132Z</time></trkpt><trkpt lat="44.933314" lon="9.1370124"><ele>307.0</ele><time>2026-03-21T10:48:59.131Z</time></trkpt><trkpt lat="44.9333474" lon="9.1369262"><ele>307.0</ele><time>2026-03-21T10:49:00.131Z</time></trkpt><trkpt lat="44.9333603" lon="9.1368254"><ele>307.0</ele><time>2026-03-21T10:49:01.131Z</time></trkpt><trkpt lat="44.9333453" lon="9.1367158"><ele>307.0</ele><time>2026-03-21T10:49:02.131Z</time></trkpt><trkpt lat="44.9332976" lon="9.1366293"><ele>307.0</ele><time>2026-03-21T10:49:03.131Z</time></trkpt><trkpt lat="44.9332316" lon="9.1365635"><ele>307.0</ele><time>2026-03-21T10:49:04.132Z</time></trkpt><trkpt lat="44.9331671" lon="9.1364895"><ele>307.0</ele><time>2026-03-21T10:49:05.131Z</time></trkpt><trkpt lat="44.9331009" lon="9.1364119"><ele>307.0</ele><time>2026-03-21T10:49:06.131Z</time></trkpt><trkpt lat="44.9330207" lon="9.1363336"><ele>307.0</ele><time>2026-03-21T10:49:07.131Z</time></trkpt><trkpt lat="44.9329365" lon="9.1362752"><ele>307.0</ele><time>2026-03-21T10:49:08.132Z</time></trkpt><trkpt lat="44.9328526" lon="9.1362209"><ele>307.0</ele><time>2026-03-21T10:49:09.132Z</time></trkpt><trkpt lat="44.9327851" lon="9.1361437"><ele>307.0</ele><time>2026-03-21T10:49:10.132Z</time></trkpt><trkpt lat="44.9327457" lon="9.1360391"><ele>307.0</ele><time>2026-03-21T10:49:11.131Z</time></trkpt><trkpt lat="44.9327399" lon="9.1359192"><ele>307.0</ele><time>2026-03-21T10:49:12.131Z</time></trkpt><trkpt lat="44.9327542" lon="9.1357969"><ele>307.0</ele><time>2026-03-21T10:49:13.132Z</time></trkpt><trkpt lat="44.9327786" lon="9.1356794"><ele>307.0</ele><time>2026-03-21T10:49:14.131Z</time></trkpt><trkpt lat="44.9328071" lon="9.135549"><ele>307.0</ele><time>2026-03-21T10:49:15.132Z</time></trkpt><trkpt lat="44.9328296" lon="9.1354202"><ele>307.0</ele><time>2026-03-21T10:49:16.132Z</time></trkpt><trkpt lat="44.9328536" lon="9.1352849"><ele>307.0</ele><time>2026-03-21T10:49:17.132Z</time></trkpt><trkpt lat="44.932876" lon="9.1351477"><ele>307.0</ele><time>2026-03-21T10:49:18.132Z</time></trkpt><trkpt lat="44.9328963" lon="9.1350053"><ele>307.0</ele><time>2026-03-21T10:49:19.131Z</time></trkpt><trkpt lat="44.9329192" lon="9.1348751"><ele>307.0</ele><time>2026-03-21T10:49:20.131Z</time></trkpt><trkpt lat="44.9329209" lon="9.1347658"><ele>307.0</ele><time>2026-03-21T10:49:21.131Z</time></trkpt><trkpt lat="44.9328986" lon="9.1346811"><ele>307.0</ele><time>2026-03-21T10:49:22.131Z</time></trkpt><trkpt lat="44.9327753" lon="9.1346352"><ele>307.0</ele><time>2026-03-21T10:49:24.132Z</time></trkpt><trkpt lat="44.932712" lon="9.1346888"><ele>307.0</ele><time>2026-03-21T10:49:25.131Z</time></trkpt><trkpt lat="44.9326585" lon="9.1347661"><ele>307.0</ele><time>2026-03-21T10:49:26.131Z</time></trkpt><trkpt lat="44.9326135" lon="9.1348625"><ele>307.0</ele><time>2026-03-21T10:49:27.131Z</time></trkpt><trkpt lat="44.9325697" lon="9.1349672"><ele>301.8</ele><time>2026-03-21T10:49:28.131Z</time></trkpt><trkpt lat="44.9325229" lon="9.1350717"><ele>296.6</ele><time>2026-03-21T10:49:29.131Z</time></trkpt><trkpt lat="44.9324758" lon="9.1351757"><ele>291.40000000000003</ele><time>2026-03-21T10:49:30.131Z</time></trkpt><trkpt lat="44.9324192" lon="9.1352831"><ele>286.2</ele><time>2026-03-21T10:49:31.131Z</time></trkpt><trkpt lat="44.9323545" lon="9.1353848"><ele>281.0</ele><time>2026-03-21T10:49:32.132Z</time></trkpt><trkpt lat="44.9322785" lon="9.1354768"><ele>281.0</ele><time>2026-03-21T10:49:33.131Z</time></trkpt><trkpt lat="44.9321964" lon="9.1355661"><ele>281.0</ele><time>2026-03-21T10:49:34.131Z</time></trkpt><trkpt lat="44.9321128" lon="9.1356566"><ele>281.0</ele><time>2026-03-21T10:49:35.132Z</time></trkpt><trkpt lat="44.9320305" lon="9.1357491"><ele>281.0</ele><time>2026-03-21T10:49:36.132Z</time></trkpt><trkpt lat="44.9319446" lon="9.1358409"><ele>281.0</ele><time>2026-03-21T10:49:37.131Z</time></trkpt><trkpt lat="44.9318557" lon="9.1359301"><ele>282.0</ele><time>2026-03-21T10:49:38.132Z</time></trkpt><trkpt lat="44.9317706" lon="9.1360153"><ele>283.0</ele><time>2026-03-21T10:49:39.132Z</time></trkpt><trkpt lat="44.9316996" lon="9.1360947"><ele>284.0</ele><time>2026-03-21T10:49:40.132Z</time></trkpt><trkpt lat="44.9316488" lon="9.1361918"><ele>285.0</ele><time>2026-03-21T10:49:41.132Z</time></trkpt><trkpt lat="44.931632" lon="9.1363008"><ele>286.0</ele><time>2026-03-21T10:49:42.132Z</time></trkpt><trkpt lat="44.9316246" lon="9.1363946"><ele>287.0</ele><time>2026-03-21T10:49:43.132Z</time></trkpt><trkpt lat="44.9315497" lon="9.136459"><ele>283.6666666666667</ele><time>2026-03-21T10:49:45.131Z</time></trkpt><trkpt lat="44.9315127" lon="9.1363476"><ele>280.33333333333337</ele><time>2026-03-21T10:49:47.131Z</time></trkpt><trkpt lat="44.9315143" lon="9.1361944"><ele>277.0</ele><time>2026-03-21T10:49:49.132Z</time></trkpt><trkpt lat="44.9315184" lon="9.1361033"><ele>273.6666666666667</ele><time>2026-03-21T10:49:50.131Z</time></trkpt><trkpt lat="44.9315178" lon="9.1360083"><ele>270.3333333333333</ele><time>2026-03-21T10:49:51.131Z</time></trkpt><trkpt lat="44.9315134" lon="9.1359035"><ele>267.0</ele><time>2026-03-21T10:49:52.132Z</time></trkpt><trkpt lat="44.9314997" lon="9.1358054"><ele>266.1666666666667</ele><time>2026-03-21T10:49:53.131Z</time></trkpt><trkpt lat="44.9314765" lon="9.1356948"><ele>265.3333333333333</ele><time>2026-03-21T10:49:54.132Z</time></trkpt><trkpt lat="44.9314507" lon="9.1355788"><ele>264.5</ele><time>2026-03-21T10:49:55.132Z</time></trkpt><trkpt lat="44.931429" lon="9.1354568"><ele>263.66666666666663</ele><time>2026-03-21T10:49:56.132Z</time></trkpt><trkpt lat="44.9314114" lon="9.1353318"><ele>262.8333333333333</ele><time>2026-03-21T10:49:57.131Z</time></trkpt><trkpt lat="44.9314105" lon="9.1351991"><ele>262.0</ele><time>2026-03-21T10:49:58.131Z</time></trkpt><trkpt lat="44.9314272" lon="9.1350621"><ele>262.0</ele><time>2026-03-21T10:49:59.131Z</time></trkpt><trkpt lat="44.9314478" lon="9.1349199"><ele>262.0</ele><time>2026-03-21T10:50:00.132Z</time></trkpt><trkpt lat="44.9314599" lon="9.1347762"><ele>262.0</ele><time>2026-03-21T10:50:01.131Z</time></trkpt><trkpt lat="44.9314736" lon="9.1346263"><ele>262.0</ele><time>2026-03-21T10:50:02.132Z</time></trkpt><trkpt lat="44.9314838" lon="9.134477"><ele>262.0</ele><time>2026-03-21T10:50:03.132Z</time></trkpt><trkpt lat="44.9315106" lon="9.1343404"><ele>262.2</ele><time>2026-03-21T10:50:04.132Z</time></trkpt><trkpt lat="44.9315543" lon="9.1342257"><ele>262.4</ele><time>2026-03-21T10:50:05.131Z</time></trkpt><trkpt lat="44.9316119" lon="9.1341385"><ele>262.6</ele><time>2026-03-21T10:50:06.131Z</time></trkpt><trkpt lat="44.9316582" lon="9.1340527"><ele>262.8</ele><time>2026-03-21T10:50:07.132Z</time></trkpt><trkpt lat="44.9316438" lon="9.1338866"><ele>263.0</ele><time>2026-03-21T10:50:09.132Z</time></trkpt><trkpt lat="44.931541" lon="9.1337995"><ele>263.0</ele><time>2026-03-21T10:50:11.132Z</time></trkpt><trkpt lat="44.9314767" lon="9.1337636"><ele>263.0</ele><time>2026-03-21T10:50:12.132Z</time></trkpt><trkpt lat="44.9314129" lon="9.1337171"><ele>263.0</ele><time>2026-03-21T10:50:13.132Z</time></trkpt><trkpt lat="44.9313444" lon="9.1336682"><ele>263.0</ele><time>2026-03-21T10:50:14.132Z</time></trkpt><trkpt lat="44.9312757" lon="9.1336133"><ele>263.0</ele><time>2026-03-21T10:50:15.132Z</time></trkpt><trkpt lat="44.9312076" lon="9.1335545"><ele>263.0</ele><time>2026-03-21T10:50:16.131Z</time></trkpt><trkpt lat="44.9311316" lon="9.1334823"><ele>263.0</ele><time>2026-03-21T10:50:17.131Z</time></trkpt><trkpt lat="44.9310528" lon="9.1334107"><ele>263.0</ele><time>2026-03-21T10:50:18.132Z</time></trkpt><trkpt lat="44.9309704" lon="9.133333"><ele>263.0</ele><time>2026-03-21T10:50:19.132Z</time></trkpt><trkpt lat="44.9308878" lon="9.133252"><ele>263.0</ele><time>2026-03-21T10:50:20.132Z</time></trkpt><trkpt lat="44.9308102" lon="9.1331608"><ele>263.0</ele><time>2026-03-21T10:50:21.132Z</time></trkpt><trkpt lat="44.9307415" lon="9.1330553"><ele>259.0</ele><time>2026-03-21T10:50:22.132Z</time></trkpt><trkpt lat="44.9306833" lon="9.132933"><ele>255.0</ele><time>2026-03-21T10:50:23.131Z</time></trkpt><trkpt lat="44.9306258" lon="9.1328075"><ele>251.0</ele><time>2026-03-21T10:50:24.131Z</time></trkpt><trkpt lat="44.9305766" lon="9.1326713"><ele>247.0</ele><time>2026-03-21T10:50:25.132Z</time></trkpt><trkpt lat="44.9305495" lon="9.1325319"><ele>243.0</ele><time>2026-03-21T10:50:26.132Z</time></trkpt><trkpt lat="44.9305459" lon="9.1323901"><ele>242.2</ele><time>2026-03-21T10:50:27.131Z</time></trkpt><trkpt lat="44.9305573" lon="9.1322517"><ele>241.4</ele><time>2026-03-21T10:50:28.132Z</time></trkpt><trkpt lat="44.9305956" lon="9.1321177"><ele>240.59999999999997</ele><time>2026-03-21T10:50:29.132Z</time></trkpt><trkpt lat="44.9306533" lon="9.1319965"><ele>239.79999999999998</ele><time>2026-03-21T10:50:30.132Z</time></trkpt><trkpt lat="44.9307132" lon="9.1318845"><ele>239.0</ele><time>2026-03-21T10:50:31.131Z</time></trkpt><trkpt lat="44.9307625" lon="9.1317689"><ele>239.00000000000003</ele><time>2026-03-21T10:50:32.131Z</time></trkpt><trkpt lat="44.930792" lon="9.1316699"><ele>239.0</ele><time>2026-03-21T10:50:33.131Z</time></trkpt><trkpt lat="44.9307636" lon="9.1315057"><ele>239.0</ele><time>2026-03-21T10:50:35.132Z</time></trkpt><trkpt lat="44.9307089" lon="9.1314613"><ele>239.0</ele><time>2026-03-21T10:50:36.131Z</time></trkpt><trkpt lat="44.9306437" lon="9.1314448"><ele>239.00000000000003</ele><time>2026-03-21T10:50:37.131Z</time></trkpt><trkpt lat="44.930572" lon="9.131433"><ele>239.0</ele><time>2026-03-21T10:50:38.132Z</time></trkpt><trkpt lat="44.9304938" lon="9.1314372"><ele>240.50000000000003</ele><time>2026-03-21T10:50:39.132Z</time></trkpt><trkpt lat="44.9304091" lon="9.1314329"><ele>242.0</ele><time>2026-03-21T10:50:40.132Z</time></trkpt><trkpt lat="44.9303271" lon="9.1314116"><ele>243.5</ele><time>2026-03-21T10:50:41.132Z</time></trkpt><trkpt lat="44.9302589" lon="9.1313714"><ele>245.0</ele><time>2026-03-21T10:50:42.131Z</time></trkpt><trkpt lat="44.9302047" lon="9.1312999"><ele>246.50000000000003</ele><time>2026-03-21T10:50:43.132Z</time></trkpt><trkpt lat="44.9301773" lon="9.13121"><ele>248.0</ele><time>2026-03-21T10:50:44.131Z</time></trkpt><trkpt lat="44.9301608" lon="9.1311195"><ele>248.0</ele><time>2026-03-21T10:50:45.132Z</time></trkpt><trkpt lat="44.9301638" lon="9.1309528"><ele>248.0</ele><time>2026-03-21T10:50:47.132Z</time></trkpt><trkpt lat="44.9301794" lon="9.1307802"><ele>248.0</ele><time>2026-03-21T10:50:49.132Z</time></trkpt><trkpt lat="44.9301833" lon="9.1306746"><ele>248.0</ele><time>2026-03-21T10:50:50.131Z</time></trkpt><trkpt lat="44.9301768" lon="9.1305669"><ele>248.0</ele><time>2026-03-21T10:50:51.132Z</time></trkpt><trkpt lat="44.9301519" lon="9.1304511"><ele>248.4</ele><time>2026-03-21T10:50:52.132Z</time></trkpt><trkpt lat="44.930101" lon="9.1303441"><ele>248.8</ele><time>2026-03-21T10:50:53.131Z</time></trkpt><trkpt lat="44.9300309" lon="9.1302577"><ele>249.2</ele><time>2026-03-21T10:50:54.131Z</time></trkpt><trkpt lat="44.9299572" lon="9.130149"><ele>249.6</ele><time>2026-03-21T10:50:55.132Z</time></trkpt><trkpt lat="44.9299056" lon="9.1300276"><ele>250.0</ele><time>2026-03-21T10:50:56.131Z</time></trkpt><trkpt lat="44.929851" lon="9.1299122"><ele>246.66666666666666</ele><time>2026-03-21T10:50:57.132Z</time></trkpt><trkpt lat="44.9297982" lon="9.1297993"><ele>243.33333333333331</ele><time>2026-03-21T10:50:58.132Z</time></trkpt><trkpt lat="44.9297642" lon="9.1296836"><ele>240.0</ele><time>2026-03-21T10:50:59.132Z</time></trkpt><trkpt lat="44.9297527" lon="9.1295724"><ele>236.66666666666669</ele><time>2026-03-21T10:51:00.131Z</time></trkpt><trkpt lat="44.9297769" lon="9.129457"><ele>233.33333333333334</ele><time>2026-03-21T10:51:01.132Z</time></trkpt><trkpt lat="44.9298222" lon="9.1293442"><ele>230.0</ele><time>2026-03-21T10:51:02.131Z</time></trkpt><trkpt lat="44.9298809" lon="9.1292186"><ele>230.0</ele><time>2026-03-21T10:51:03.132Z</time></trkpt><trkpt lat="44.9299424" lon="9.1290788"><ele>230.0</ele><time>2026-03-21T10:51:04.132Z</time></trkpt><trkpt lat="44.9300074" lon="9.1289222"><ele>230.0</ele><time>2026-03-21T10:51:05.131Z</time></trkpt><trkpt lat="44.9300681" lon="9.1287545"><ele>230.0</ele><time>2026-03-21T10:51:06.132Z</time></trkpt><trkpt lat="44.9301329" lon="9.1285787"><ele>230.0</ele><time>2026-03-21T10:51:07.132Z</time></trkpt><trkpt lat="44.9302006" lon="9.1284052"><ele>230.0</ele><time>2026-03-21T10:51:08.131Z</time></trkpt><trkpt lat="44.9302713" lon="9.1282377"><ele>230.0</ele><time>2026-03-21T10:51:09.131Z</time></trkpt><trkpt lat="44.9303426" lon="9.1280864"><ele>230.0</ele><time>2026-03-21T10:51:10.131Z</time></trkpt><trkpt lat="44.9304029" lon="9.1279436"><ele>230.0</ele><time>2026-03-21T10:51:11.132Z</time></trkpt><trkpt lat="44.9304557" lon="9.1278122"><ele>230.0</ele><time>2026-03-21T10:51:12.131Z</time></trkpt><trkpt lat="44.9305102" lon="9.1276902"><ele>230.0</ele><time>2026-03-21T10:51:13.132Z</time></trkpt><trkpt lat="44.9305793" lon="9.1275827"><ele>230.0</ele><time>2026-03-21T10:51:14.131Z</time></trkpt><trkpt lat="44.9306664" lon="9.1274837"><ele>230.0</ele><time>2026-03-21T10:51:15.131Z</time></trkpt><trkpt lat="44.9307502" lon="9.1273836"><ele>228.25</ele><time>2026-03-21T10:51:16.131Z</time></trkpt><trkpt lat="44.9308187" lon="9.1272582"><ele>226.5</ele><time>2026-03-21T10:51:17.131Z</time></trkpt><trkpt lat="44.9308801" lon="9.1271096"><ele>224.75</ele><time>2026-03-21T10:51:18.131Z</time></trkpt><trkpt lat="44.9309456" lon="9.1269485"><ele>223.0</ele><time>2026-03-21T10:51:19.131Z</time></trkpt><trkpt lat="44.9310148" lon="9.1268025"><ele>225.4</ele><time>2026-03-21T10:51:20.132Z</time></trkpt><trkpt lat="44.9310828" lon="9.1266713"><ele>227.8</ele><time>2026-03-21T10:51:21.132Z</time></trkpt><trkpt lat="44.9311348" lon="9.1265452"><ele>230.2</ele><time>2026-03-21T10:51:22.132Z</time></trkpt><trkpt lat="44.9311749" lon="9.1264142"><ele>232.6</ele><time>2026-03-21T10:51:23.132Z</time></trkpt><trkpt lat="44.931185" lon="9.126283"><ele>235.0</ele><time>2026-03-21T10:51:24.132Z</time></trkpt><trkpt lat="44.9311726" lon="9.1261395"><ele>235.0</ele><time>2026-03-21T10:51:25.132Z</time></trkpt><trkpt lat="44.9311514" lon="9.1259851"><ele>235.0</ele><time>2026-03-21T10:51:26.132Z</time></trkpt><trkpt lat="44.931141" lon="9.1258178"><ele>235.0</ele><time>2026-03-21T10:51:27.132Z</time></trkpt><trkpt lat="44.93114" lon="9.1256424"><ele>235.0</ele><time>2026-03-21T10:51:28.132Z</time></trkpt><trkpt lat="44.9311477" lon="9.1254697"><ele>233.2</ele><time>2026-03-21T10:51:29.131Z</time></trkpt><trkpt lat="44.9311585" lon="9.1252938"><ele>231.4</ele><time>2026-03-21T10:51:30.131Z</time></trkpt><trkpt lat="44.9311935" lon="9.1251461"><ele>229.60000000000002</ele><time>2026-03-21T10:51:31.131Z</time></trkpt><trkpt lat="44.9312504" lon="9.1250251"><ele>227.8</ele><time>2026-03-21T10:51:32.132Z</time></trkpt><trkpt lat="44.9313374" lon="9.1249283"><ele>226.0</ele><time>2026-03-21T10:51:33.132Z</time></trkpt><trkpt lat="44.9314519" lon="9.1248589"><ele>225.5</ele><time>2026-03-21T10:51:34.131Z</time></trkpt><trkpt lat="44.9315771" lon="9.1247862"><ele>225.0</ele><time>2026-03-21T10:51:35.131Z</time></trkpt><trkpt lat="44.9317059" lon="9.1247071"><ele>224.5</ele><time>2026-03-21T10:51:36.131Z</time></trkpt><trkpt lat="44.9318384" lon="9.1246044"><ele>224.0</ele><time>2026-03-21T10:51:37.131Z</time></trkpt><trkpt lat="44.9319778" lon="9.1244958"><ele>224.0</ele><time>2026-03-21T10:51:38.132Z</time></trkpt><trkpt lat="44.9321083" lon="9.1244127"><ele>224.0</ele><time>2026-03-21T10:51:39.132Z</time></trkpt><trkpt lat="44.9322367" lon="9.1243251"><ele>224.0</ele><time>2026-03-21T10:51:40.132Z</time></trkpt><trkpt lat="44.9323587" lon="9.1241971"><ele>224.0</ele><time>2026-03-21T10:51:41.132Z</time></trkpt><trkpt lat="44.9324752" lon="9.1240617"><ele>226.0</ele><time>2026-03-21T10:51:42.132Z</time></trkpt><trkpt lat="44.9325795" lon="9.1239273"><ele>228.0</ele><time>2026-03-21T10:51:43.131Z</time></trkpt><trkpt lat="44.9326664" lon="9.1237832"><ele>230.0</ele><time>2026-03-21T10:51:44.132Z</time></trkpt><trkpt lat="44.9327466" lon="9.1236482"><ele>232.0</ele><time>2026-03-21T10:51:45.131Z</time></trkpt><trkpt lat="44.9328139" lon="9.1235221"><ele>232.0</ele><time>2026-03-21T10:51:46.132Z</time></trkpt><trkpt lat="44.9328526" lon="9.1233772"><ele>232.0</ele><time>2026-03-21T10:51:47.131Z</time></trkpt><trkpt lat="44.9328657" lon="9.1232055"><ele>232.0</ele><time>2026-03-21T10:51:48.131Z</time></trkpt><trkpt lat="44.9328511" lon="9.1230234"><ele>232.0</ele><time>2026-03-21T10:51:49.131Z</time></trkpt><trkpt lat="44.9328407" lon="9.1228531"><ele>229.5</ele><time>2026-03-21T10:51:50.132Z</time></trkpt><trkpt lat="44.9328479" lon="9.122685"><ele>227.0</ele><time>2026-03-21T10:51:51.132Z</time></trkpt><trkpt lat="44.9328786" lon="9.1225113"><ele>224.5</ele><time>2026-03-21T10:51:52.132Z</time></trkpt><trkpt lat="44.9329292" lon="9.1223273"><ele>222.0</ele><time>2026-03-21T10:51:53.131Z</time></trkpt><trkpt lat="44.9329885" lon="9.1221406"><ele>219.0</ele><time>2026-03-21T10:51:54.131Z</time></trkpt><trkpt lat="44.9330344" lon="9.121967"><ele>216.0</ele><time>2026-03-21T10:51:55.131Z</time></trkpt><trkpt lat="44.9330973" lon="9.1218035"><ele>213.0</ele><time>2026-03-21T10:51:56.131Z</time></trkpt><trkpt lat="44.9331772" lon="9.121655"><ele>210.0</ele><time>2026-03-21T10:51:57.131Z</time></trkpt><trkpt lat="44.9332807" lon="9.1215215"><ele>209.33333333333331</ele><time>2026-03-21T10:51:58.131Z</time></trkpt><trkpt lat="44.9334008" lon="9.1213888"><ele>208.66666666666666</ele><time>2026-03-21T10:51:59.131Z</time></trkpt><trkpt lat="44.9335314" lon="9.1212598"><ele>208.0</ele><time>2026-03-21T10:52:00.132Z</time></trkpt><trkpt lat="44.9336619" lon="9.1211513"><ele>208.0</ele><time>2026-03-21T10:52:01.131Z</time></trkpt><trkpt lat="44.9337864" lon="9.1210654"><ele>208.0</ele><time>2026-03-21T10:52:02.132Z</time></trkpt><trkpt lat="44.9339128" lon="9.1210098"><ele>208.0</ele><time>2026-03-21T10:52:03.131Z</time></trkpt><trkpt lat="44.9340401" lon="9.1209796"><ele>208.0</ele><time>2026-03-21T10:52:04.132Z</time></trkpt><trkpt lat="44.9341734" lon="9.1209208"><ele>207.25</ele><time>2026-03-21T10:52:05.132Z</time></trkpt><trkpt lat="44.9343006" lon="9.12083"><ele>206.5</ele><time>2026-03-21T10:52:06.131Z</time></trkpt><trkpt lat="44.9344326" lon="9.1207312"><ele>205.75</ele><time>2026-03-21T10:52:07.132Z</time></trkpt><trkpt lat="44.9345583" lon="9.1206328"><ele>205.0</ele><time>2026-03-21T10:52:08.131Z</time></trkpt><trkpt lat="44.934686" lon="9.1205246"><ele>205.0</ele><time>2026-03-21T10:52:09.132Z</time></trkpt><trkpt lat="44.9348079" lon="9.1204166"><ele>205.0</ele><time>2026-03-21T10:52:10.132Z</time></trkpt><trkpt lat="44.9349199" lon="9.1203191"><ele>205.0</ele><time>2026-03-21T10:52:11.131Z</time></trkpt><trkpt lat="44.9350234" lon="9.1202195"><ele>205.0</ele><time>2026-03-21T10:52:12.131Z</time></trkpt><trkpt lat="44.9351119" lon="9.1201123"><ele>204.6</ele><time>2026-03-21T10:52:13.131Z</time></trkpt><trkpt lat="44.9351876" lon="9.1199999"><ele>204.2</ele><time>2026-03-21T10:52:14.132Z</time></trkpt><trkpt lat="44.935248" lon="9.1198848"><ele>203.8</ele><time>2026-03-21T10:52:15.132Z</time></trkpt><trkpt lat="44.9352929" lon="9.1197635"><ele>203.4</ele><time>2026-03-21T10:52:16.131Z</time></trkpt><trkpt lat="44.9353215" lon="9.1196406"><ele>203.0</ele><time>2026-03-21T10:52:17.132Z</time></trkpt><trkpt lat="44.9353202" lon="9.1195244"><ele>203.00000000000003</ele><time>2026-03-21T10:52:18.131Z</time></trkpt><trkpt lat="44.9352828" lon="9.1194175"><ele>203.0</ele><time>2026-03-21T10:52:19.132Z</time></trkpt><trkpt lat="44.9352343" lon="9.1193144"><ele>203.0</ele><time>2026-03-21T10:52:20.131Z</time></trkpt><trkpt lat="44.935193" lon="9.1192197"><ele>203.0</ele><time>2026-03-21T10:52:21.131Z</time></trkpt><trkpt lat="44.9351535" lon="9.1191303"><ele>203.00000000000003</ele><time>2026-03-21T10:52:22.132Z</time></trkpt><trkpt lat="44.9351234" lon="9.1190506"><ele>203.0</ele><time>2026-03-21T10:52:24.131Z</time></trkpt><trkpt lat="44.9350243" lon="9.1190156"><ele>203.00000000000003</ele><time>2026-03-21T10:52:30.132Z</time></trkpt><trkpt lat="44.9349575" lon="9.1190484"><ele>203.0</ele><time>2026-03-21T10:52:31.132Z</time></trkpt><trkpt lat="44.934878" lon="9.1190851"><ele>203.0</ele><time>2026-03-21T10:52:32.131Z</time></trkpt><trkpt lat="44.9348008" lon="9.1191221"><ele>203.0</ele><time>2026-03-21T10:52:33.131Z</time></trkpt><trkpt lat="44.934719" lon="9.1191549"><ele>203.00000000000003</ele><time>2026-03-21T10:52:34.132Z</time></trkpt><trkpt lat="44.9346358" lon="9.1191883"><ele>203.0</ele><time>2026-03-21T10:52:35.131Z</time></trkpt><trkpt lat="44.9345459" lon="9.1191929"><ele>203.0</ele><time>2026-03-21T10:52:36.132Z</time></trkpt><trkpt lat="44.9344496" lon="9.1192028"><ele>203.0</ele><time>2026-03-21T10:52:37.131Z</time></trkpt><trkpt lat="44.9343452" lon="9.1192211"><ele>203.0</ele><time>2026-03-21T10:52:38.132Z</time></trkpt><trkpt lat="44.9342318" lon="9.1192576"><ele>203.0</ele><time>2026-03-21T10:52:39.131Z</time></trkpt><trkpt lat="44.934119" lon="9.1193028"><ele>203.0</ele><time>2026-03-21T10:52:40.132Z</time></trkpt><trkpt lat="44.9340027" lon="9.1193443"><ele>204.25</ele><time>2026-03-21T10:52:41.132Z</time></trkpt><trkpt lat="44.9338789" lon="9.1193782"><ele>205.5</ele><time>2026-03-21T10:52:42.132Z</time></trkpt><trkpt lat="44.9337571" lon="9.1193841"><ele>206.75</ele><time>2026-03-21T10:52:43.131Z</time></trkpt><trkpt lat="44.9336327" lon="9.1193504"><ele>208.0</ele><time>2026-03-21T10:52:44.132Z</time></trkpt><trkpt lat="44.9335058" lon="9.1193083"><ele>209.25</ele><time>2026-03-21T10:52:45.132Z</time></trkpt><trkpt lat="44.9333739" lon="9.1192632"><ele>210.5</ele><time>2026-03-21T10:52:46.132Z</time></trkpt><trkpt lat="44.9332436" lon="9.1192061"><ele>211.75</ele><time>2026-03-21T10:52:47.131Z</time></trkpt><trkpt lat="44.9331244" lon="9.1191207"><ele>213.0</ele><time>2026-03-21T10:52:48.132Z</time></trkpt><trkpt lat="44.9330023" lon="9.119024"><ele>215.75</ele><time>2026-03-21T10:52:49.132Z</time></trkpt><trkpt lat="44.9328748" lon="9.1189381"><ele>218.5</ele><time>2026-03-21T10:52:50.131Z</time></trkpt><trkpt lat="44.9327497" lon="9.1188615"><ele>221.25</ele><time>2026-03-21T10:52:51.132Z</time></trkpt><trkpt lat="44.9326233" lon="9.1187665"><ele>224.0</ele><time>2026-03-21T10:52:52.132Z</time></trkpt><trkpt lat="44.9325049" lon="9.1186476"><ele>224.33333333333334</ele><time>2026-03-21T10:52:53.131Z</time></trkpt><trkpt lat="44.9323925" lon="9.1185112"><ele>224.66666666666669</ele><time>2026-03-21T10:52:54.131Z</time></trkpt><trkpt lat="44.9322832" lon="9.1183603"><ele>225.0</ele><time>2026-03-21T10:52:55.132Z</time></trkpt><trkpt lat="44.932168" lon="9.1182051"><ele>230.0</ele><time>2026-03-21T10:52:56.132Z</time></trkpt><trkpt lat="44.9320528" lon="9.1180479"><ele>235.0</ele><time>2026-03-21T10:52:57.131Z</time></trkpt><trkpt lat="44.9319486" lon="9.1178863"><ele>240.0</ele><time>2026-03-21T10:52:58.132Z</time></trkpt><trkpt lat="44.9318607" lon="9.1177267"><ele>240.0</ele><time>2026-03-21T10:52:59.131Z</time></trkpt><trkpt lat="44.9317541" lon="9.1175913"><ele>240.0</ele><time>2026-03-21T10:53:00.131Z</time></trkpt><trkpt lat="44.9316369" lon="9.1175067"><ele>240.0</ele><time>2026-03-21T10:53:01.131Z</time></trkpt><trkpt lat="44.9315448" lon="9.1174213"><ele>240.0</ele><time>2026-03-21T10:53:02.131Z</time></trkpt><trkpt lat="44.9314973" lon="9.1173153"><ele>240.0</ele><time>2026-03-21T10:53:03.132Z</time></trkpt><trkpt lat="44.931486" lon="9.1171986"><ele>240.0</ele><time>2026-03-21T10:53:04.132Z</time></trkpt><trkpt lat="44.9314813" lon="9.1170552"><ele>240.0</ele><time>2026-03-21T10:53:05.131Z</time></trkpt><trkpt lat="44.9314459" lon="9.1168941"><ele>240.0</ele><time>2026-03-21T10:53:06.132Z</time></trkpt><trkpt lat="44.931363" lon="9.1167551"><ele>240.0</ele><time>2026-03-21T10:53:07.132Z</time></trkpt><trkpt lat="44.9312788" lon="9.1166311"><ele>242.2</ele><time>2026-03-21T10:53:08.132Z</time></trkpt><trkpt lat="44.9312182" lon="9.1164739"><ele>244.4</ele><time>2026-03-21T10:53:09.132Z</time></trkpt><trkpt lat="44.9311901" lon="9.1163147"><ele>246.60000000000002</ele><time>2026-03-21T10:53:10.132Z</time></trkpt><trkpt lat="44.9311539" lon="9.1161984"><ele>248.8</ele><time>2026-03-21T10:53:11.132Z</time></trkpt><trkpt lat="44.9310995" lon="9.1161498"><ele>251.0</ele><time>2026-03-21T10:53:12.131Z</time></trkpt><trkpt lat="44.9310231" lon="9.1161509"><ele>251.0</ele><time>2026-03-21T10:53:13.132Z</time></trkpt><trkpt lat="44.9309015" lon="9.116184"><ele>251.0</ele><time>2026-03-21T10:53:14.131Z</time></trkpt><trkpt lat="44.9307659" lon="9.1162054"><ele>251.0</ele><time>2026-03-21T10:53:15.131Z</time></trkpt><trkpt lat="44.9306475" lon="9.1162071"><ele>251.0</ele><time>2026-03-21T10:53:16.131Z</time></trkpt><trkpt lat="44.9305803" lon="9.1161658"><ele>251.0</ele><time>2026-03-21T10:53:17.131Z</time></trkpt><trkpt lat="44.9305838" lon="9.1160386"><ele>251.00000000000003</ele><time>2026-03-21T10:53:19.132Z</time></trkpt><trkpt lat="44.9307055" lon="9.1160511"><ele>251.00000000000003</ele><time>2026-03-21T10:53:21.132Z</time></trkpt><trkpt lat="44.930803" lon="9.1160382"><ele>251.0</ele><time>2026-03-21T10:53:22.132Z</time></trkpt><trkpt lat="44.9309069" lon="9.1159731"><ele>251.0</ele><time>2026-03-21T10:53:23.132Z</time></trkpt><trkpt lat="44.9310117" lon="9.1158654"><ele>254.25</ele><time>2026-03-21T10:53:24.131Z</time></trkpt><trkpt lat="44.931117" lon="9.1157245"><ele>257.5</ele><time>2026-03-21T10:53:25.132Z</time></trkpt><trkpt lat="44.9312164" lon="9.1155722"><ele>260.75</ele><time>2026-03-21T10:53:26.131Z</time></trkpt><trkpt lat="44.9313114" lon="9.1154415"><ele>264.0</ele><time>2026-03-21T10:53:27.132Z</time></trkpt><trkpt lat="44.9314134" lon="9.1153617"><ele>264.0</ele><time>2026-03-21T10:53:28.131Z</time></trkpt><trkpt lat="44.931537" lon="9.1153333"><ele>264.0</ele><time>2026-03-21T10:53:29.132Z</time></trkpt><trkpt lat="44.9316742" lon="9.1153401"><ele>264.0</ele><time>2026-03-21T10:53:30.132Z</time></trkpt><trkpt lat="44.931794" lon="9.1153828"><ele>264.0</ele><time>2026-03-21T10:53:31.131Z</time></trkpt><trkpt lat="44.9318963" lon="9.1154897"><ele>265.25</ele><time>2026-03-21T10:53:32.131Z</time></trkpt><trkpt lat="44.9319705" lon="9.1156378"><ele>266.5</ele><time>2026-03-21T10:53:33.131Z</time></trkpt><trkpt lat="44.9320428" lon="9.1157936"><ele>267.75</ele><time>2026-03-21T10:53:34.132Z</time></trkpt><trkpt lat="44.9321109" lon="9.1159351"><ele>269.0</ele><time>2026-03-21T10:53:35.132Z</time></trkpt><trkpt lat="44.9321784" lon="9.1160563"><ele>269.0</ele><time>2026-03-21T10:53:36.132Z</time></trkpt><trkpt lat="44.9322542" lon="9.1161439"><ele>269.0</ele><time>2026-03-21T10:53:37.131Z</time></trkpt><trkpt lat="44.9323533" lon="9.1161955"><ele>269.0</ele><time>2026-03-21T10:53:38.132Z</time></trkpt><trkpt lat="44.9324751" lon="9.1162347"><ele>269.0</ele><time>2026-03-21T10:53:39.131Z</time></trkpt><trkpt lat="44.932567" lon="9.1162623"><ele>269.0</ele><time>2026-03-21T10:53:40.131Z</time></trkpt><trkpt lat="44.9326376" lon="9.116227"><ele>269.0</ele><time>2026-03-21T10:53:41.131Z</time></trkpt><trkpt lat="44.9326522" lon="9.1160756"><ele>269.0</ele><time>2026-03-21T10:53:43.131Z</time></trkpt><trkpt lat="44.9325931" lon="9.1160193"><ele>269.0</ele><time>2026-03-21T10:53:44.132Z</time></trkpt><trkpt lat="44.9325038" lon="9.1159645"><ele>269.0</ele><time>2026-03-21T10:53:45.132Z</time></trkpt><trkpt lat="44.9324324" lon="9.1158542"><ele>269.0</ele><time>2026-03-21T10:53:46.132Z</time></trkpt><trkpt lat="44.9323908" lon="9.1157103"><ele>272.6666666666667</ele><time>2026-03-21T10:53:47.131Z</time></trkpt><trkpt lat="44.9323686" lon="9.115513"><ele>276.3333333333333</ele><time>2026-03-21T10:53:48.131Z</time></trkpt><trkpt lat="44.9323528" lon="9.1152739"><ele>280.0</ele><time>2026-03-21T10:53:49.131Z</time></trkpt><trkpt lat="44.9323171" lon="9.1150359"><ele>283.0</ele><time>2026-03-21T10:53:50.132Z</time></trkpt><trkpt lat="44.9322638" lon="9.1147984"><ele>286.0</ele><time>2026-03-21T10:53:51.132Z</time></trkpt><trkpt lat="44.9321766" lon="9.1145798"><ele>289.0</ele><time>2026-03-21T10:53:52.132Z</time></trkpt><trkpt lat="44.9320922" lon="9.1144084"><ele>289.0</ele><time>2026-03-21T10:53:53.132Z</time></trkpt><trkpt lat="44.9320225" lon="9.1142587"><ele>289.0</ele><time>2026-03-21T10:53:54.132Z</time></trkpt><trkpt lat="44.9319903" lon="9.1141336"><ele>289.0</ele><time>2026-03-21T10:53:55.131Z</time></trkpt><trkpt lat="44.9320048" lon="9.1140406"><ele>289.0</ele><time>2026-03-21T10:53:56.131Z</time></trkpt><trkpt lat="44.9321185" lon="9.1140243"><ele>289.0</ele><time>2026-03-21T10:53:58.131Z</time></trkpt><trkpt lat="44.9321868" lon="9.1141051"><ele>289.0</ele><time>2026-03-21T10:53:59.131Z</time></trkpt><trkpt lat="44.932266" lon="9.1141663"><ele>289.0</ele><time>2026-03-21T10:54:00.132Z</time></trkpt><trkpt lat="44.9323401" lon="9.1141874"><ele>289.0</ele><time>2026-03-21T10:54:01.131Z</time></trkpt><trkpt lat="44.9323979" lon="9.1141428"><ele>289.0</ele><time>2026-03-21T10:54:02.131Z</time></trkpt><trkpt lat="44.9323902" lon="9.1139694"><ele>289.0</ele><time>2026-03-21T10:54:04.131Z</time></trkpt><trkpt lat="44.9323143" lon="9.1138656"><ele>294.3333333333333</ele><time>2026-03-21T10:54:05.131Z</time></trkpt><trkpt lat="44.9321791" lon="9.1137368"><ele>299.6666666666667</ele><time>2026-03-21T10:54:06.131Z</time></trkpt><trkpt lat="44.9320022" lon="9.1136003"><ele>305.0</ele><time>2026-03-21T10:54:07.132Z</time></trkpt><trkpt lat="44.9318511" lon="9.1135038"><ele>305.5</ele><time>2026-03-21T10:54:08.131Z</time></trkpt><trkpt lat="44.9317152" lon="9.1134264"><ele>306.0</ele><time>2026-03-21T10:54:09.131Z</time></trkpt><trkpt lat="44.9315951" lon="9.1133305"><ele>306.5</ele><time>2026-03-21T10:54:10.132Z</time></trkpt><trkpt lat="44.931477" lon="9.1131874"><ele>307.0</ele><time>2026-03-21T10:54:11.132Z</time></trkpt><trkpt lat="44.9313636" lon="9.1130201"><ele>307.0</ele><time>2026-03-21T10:54:12.132Z</time></trkpt><trkpt lat="44.931224" lon="9.1128771"><ele>307.0</ele><time>2026-03-21T10:54:13.132Z</time></trkpt><trkpt lat="44.9310641" lon="9.1127476"><ele>307.0</ele><time>2026-03-21T10:54:14.132Z</time></trkpt><trkpt lat="44.9309279" lon="9.1126317"><ele>306.0</ele><time>2026-03-21T10:54:15.131Z</time></trkpt><trkpt lat="44.9308065" lon="9.1125215"><ele>305.0</ele><time>2026-03-21T10:54:16.131Z</time></trkpt><trkpt lat="44.9307105" lon="9.1123951"><ele>304.0</ele><time>2026-03-21T10:54:17.132Z</time></trkpt><trkpt lat="44.9306335" lon="9.1122527"><ele>303.0</ele><time>2026-03-21T10:54:18.132Z</time></trkpt><trkpt lat="44.9305712" lon="9.1120864"><ele>307.6666666666667</ele><time>2026-03-21T10:54:19.132Z</time></trkpt><trkpt lat="44.9305203" lon="9.1118831"><ele>312.33333333333337</ele><time>2026-03-21T10:54:20.132Z</time></trkpt><trkpt lat="44.9304635" lon="9.1116613"><ele>317.0</ele><time>2026-03-21T10:54:21.132Z</time></trkpt><trkpt lat="44.9304058" lon="9.1114383"><ele>321.0</ele><time>2026-03-21T10:54:22.132Z</time></trkpt><trkpt lat="44.9303562" lon="9.1112088"><ele>325.0</ele><time>2026-03-21T10:54:23.132Z</time></trkpt><trkpt lat="44.9303211" lon="9.1109687"><ele>329.0</ele><time>2026-03-21T10:54:24.131Z</time></trkpt><trkpt lat="44.9302942" lon="9.1107249"><ele>331.75</ele><time>2026-03-21T10:54:25.132Z</time></trkpt><trkpt lat="44.9302736" lon="9.1105042"><ele>334.5</ele><time>2026-03-21T10:54:26.131Z</time></trkpt><trkpt lat="44.9302487" lon="9.1103068"><ele>337.25</ele><time>2026-03-21T10:54:27.131Z</time></trkpt><trkpt lat="44.9302064" lon="9.1101325"><ele>340.0</ele><time>2026-03-21T10:54:28.132Z</time></trkpt><trkpt lat="44.9301341" lon="9.1099805"><ele>336.3333333333333</ele><time>2026-03-21T10:54:29.132Z</time></trkpt><trkpt lat="44.9300336" lon="9.1098735"><ele>332.6666666666667</ele><time>2026-03-21T10:54:30.131Z</time></trkpt><trkpt lat="44.929902" lon="9.1097891"><ele>329.0</ele><time>2026-03-21T10:54:31.132Z</time></trkpt><trkpt lat="44.9297222" lon="9.1097269"><ele>329.0</ele><time>2026-03-21T10:54:32.131Z</time></trkpt><trkpt lat="44.9295428" lon="9.109669"><ele>329.0</ele><time>2026-03-21T10:54:33.132Z</time></trkpt><trkpt lat="44.9293743" lon="9.1095897"><ele>329.0</ele><time>2026-03-21T10:54:34.131Z</time></trkpt><trkpt lat="44.9292253" lon="9.1094974"><ele>329.0</ele><time>2026-03-21T10:54:35.132Z</time></trkpt><trkpt lat="44.9290915" lon="9.1094184"><ele>329.0</ele><time>2026-03-21T10:54:36.132Z</time></trkpt><trkpt lat="44.9289668" lon="9.1093764"><ele>329.0</ele><time>2026-03-21T10:54:37.131Z</time></trkpt><trkpt lat="44.9288462" lon="9.1093772"><ele>329.0</ele><time>2026-03-21T10:54:38.131Z</time></trkpt><trkpt lat="44.9287359" lon="9.1094202"><ele>329.0</ele><time>2026-03-21T10:54:39.131Z</time></trkpt><trkpt lat="44.9286331" lon="9.1094879"><ele>329.0</ele><time>2026-03-21T10:54:40.132Z</time></trkpt><trkpt lat="44.9285303" lon="9.1095541"><ele>329.0</ele><time>2026-03-21T10:54:41.132Z</time></trkpt><trkpt lat="44.9284325" lon="9.1096053"><ele>329.0</ele><time>2026-03-21T10:54:42.132Z</time></trkpt><trkpt lat="44.9283282" lon="9.1096335"><ele>329.0</ele><time>2026-03-21T10:54:43.131Z</time></trkpt><trkpt lat="44.9282077" lon="9.1096333"><ele>332.75</ele><time>2026-03-21T10:54:44.131Z</time></trkpt><trkpt lat="44.9280723" lon="9.1096108"><ele>336.5</ele><time>2026-03-21T10:54:45.131Z</time></trkpt><trkpt lat="44.9279298" lon="9.1095647"><ele>340.25</ele><time>2026-03-21T10:54:46.131Z</time></trkpt><trkpt lat="44.9277973" lon="9.109505"><ele>344.0</ele><time>2026-03-21T10:54:47.132Z</time></trkpt><trkpt lat="44.9276651" lon="9.109459"><ele>346.0</ele><time>2026-03-21T10:54:48.132Z</time></trkpt><trkpt lat="44.9275261" lon="9.1094532"><ele>348.0</ele><time>2026-03-21T10:54:49.132Z</time></trkpt><trkpt lat="44.9273939" lon="9.1094866"><ele>350.0</ele><time>2026-03-21T10:54:50.132Z</time></trkpt><trkpt lat="44.9272822" lon="9.1095502"><ele>352.0</ele><time>2026-03-21T10:54:51.132Z</time></trkpt><trkpt lat="44.9271839" lon="9.1096164"><ele>352.0</ele><time>2026-03-21T10:54:52.132Z</time></trkpt><trkpt lat="44.9271096" lon="9.1096293"><ele>352.0</ele><time>2026-03-21T10:54:53.131Z</time></trkpt><trkpt lat="44.9270626" lon="9.1095406"><ele>352.0</ele><time>2026-03-21T10:54:55.131Z</time></trkpt><trkpt lat="44.9271286" lon="9.1094003"><ele>352.0</ele><time>2026-03-21T10:54:57.132Z</time></trkpt><trkpt lat="44.9271856" lon="9.1093234"><ele>352.0</ele><time>2026-03-21T10:54:58.131Z</time></trkpt><trkpt lat="44.9272429" lon="9.109236"><ele>352.0</ele><time>2026-03-21T10:54:59.132Z</time></trkpt><trkpt lat="44.9273008" lon="9.1091434"><ele>352.0</ele><time>2026-03-21T10:55:00.131Z</time></trkpt><trkpt lat="44.9273372" lon="9.1090622"><ele>352.0</ele><time>2026-03-21T10:55:01.131Z</time></trkpt><trkpt lat="44.9272908" lon="9.1089487"><ele>352.0</ele><time>2026-03-21T10:55:03.131Z</time></trkpt><trkpt lat="44.9271903" lon="9.1089924"><ele>352.0</ele><time>2026-03-21T10:55:05.132Z</time></trkpt><trkpt lat="44.927115" lon="9.1090441"><ele>352.0</ele><time>2026-03-21T10:55:06.132Z</time></trkpt><trkpt lat="44.9270206" lon="9.1091009"><ele>352.0</ele><time>2026-03-21T10:55:07.131Z</time></trkpt><trkpt lat="44.92692" lon="9.1091622"><ele>352.0</ele><time>2026-03-21T10:55:08.131Z</time></trkpt><trkpt lat="44.9268179" lon="9.1092183"><ele>352.0</ele><time>2026-03-21T10:55:09.131Z</time></trkpt><trkpt lat="44.9266998" lon="9.1092509"><ele>352.0</ele><time>2026-03-21T10:55:10.132Z</time></trkpt><trkpt lat="44.9265791" lon="9.1092457"><ele>354.0</ele><time>2026-03-21T10:55:11.131Z</time></trkpt><trkpt lat="44.926468" lon="9.1092173"><ele>356.0</ele><time>2026-03-21T10:55:12.132Z</time></trkpt><trkpt lat="44.9263611" lon="9.1091603"><ele>358.0</ele><time>2026-03-21T10:55:13.131Z</time></trkpt><trkpt lat="44.9262555" lon="9.1090439"><ele>360.0</ele><time>2026-03-21T10:55:14.131Z</time></trkpt><trkpt lat="44.9261302" lon="9.1089115"><ele>361.5</ele><time>2026-03-21T10:55:15.132Z</time></trkpt><trkpt lat="44.9259945" lon="9.1087853"><ele>363.0</ele><time>2026-03-21T10:55:16.131Z</time></trkpt><trkpt lat="44.9258621" lon="9.1086852"><ele>364.5</ele><time>2026-03-21T10:55:17.131Z</time></trkpt><trkpt lat="44.9257364" lon="9.1086196"><ele>366.0</ele><time>2026-03-21T10:55:18.131Z</time></trkpt><trkpt lat="44.9256216" lon="9.1086004"><ele>367.5</ele><time>2026-03-21T10:55:19.132Z</time></trkpt><trkpt lat="44.9255221" lon="9.1085901"><ele>369.0</ele><time>2026-03-21T10:55:20.132Z</time></trkpt><trkpt lat="44.9254491" lon="9.1085386"><ele>370.5</ele><time>2026-03-21T10:55:21.132Z</time></trkpt><trkpt lat="44.925427" lon="9.1084512"><ele>372.0</ele><time>2026-03-21T10:55:22.131Z</time></trkpt><trkpt lat="44.9254561" lon="9.1083619"><ele>373.5</ele><time>2026-03-21T10:55:23.132Z</time></trkpt><trkpt lat="44.9255328" lon="9.1082747"><ele>375.0</ele><time>2026-03-21T10:55:24.131Z</time></trkpt><trkpt lat="44.9256506" lon="9.108175"><ele>375.8</ele><time>2026-03-21T10:55:25.131Z</time></trkpt><trkpt lat="44.9257444" lon="9.1080728"><ele>376.6</ele><time>2026-03-21T10:55:26.132Z</time></trkpt><trkpt lat="44.9257919" lon="9.1079728"><ele>377.4</ele><time>2026-03-21T10:55:27.132Z</time></trkpt><trkpt lat="44.9257995" lon="9.1078565"><ele>378.2</ele><time>2026-03-21T10:55:28.13Z</time></trkpt><trkpt lat="44.9257591" lon="9.1077588"><ele>379.0</ele><time>2026-03-21T10:55:29.132Z</time></trkpt><trkpt lat="44.9256783" lon="9.1076877"><ele>379.0</ele><time>2026-03-21T10:55:30.131Z</time></trkpt><trkpt lat="44.9255591" lon="9.1076484"><ele>379.0</ele><time>2026-03-21T10:55:31.132Z</time></trkpt><trkpt lat="44.9253964" lon="9.1076403"><ele>379.0</ele><time>2026-03-21T10:55:32.132Z</time></trkpt><trkpt lat="44.9252169" lon="9.107648"><ele>379.0</ele><time>2026-03-21T10:55:33.131Z</time></trkpt><trkpt lat="44.9250753" lon="9.1076734"><ele>379.0</ele><time>2026-03-21T10:55:34.131Z</time></trkpt><trkpt lat="44.9249488" lon="9.1077502"><ele>379.0</ele><time>2026-03-21T10:55:35.131Z</time></trkpt><trkpt lat="44.9248482" lon="9.107878"><ele>379.0</ele><time>2026-03-21T10:55:36.131Z</time></trkpt><trkpt lat="44.9247534" lon="9.1080014"><ele>382.0</ele><time>2026-03-21T10:55:37.131Z</time></trkpt><trkpt lat="44.9246615" lon="9.1080688"><ele>385.0</ele><time>2026-03-21T10:55:38.131Z</time></trkpt><trkpt lat="44.9245889" lon="9.1080673"><ele>388.0</ele><time>2026-03-21T10:55:39.131Z</time></trkpt><trkpt lat="44.9245616" lon="9.1079331"><ele>391.0</ele><time>2026-03-21T10:55:41.132Z</time></trkpt><trkpt lat="44.9246164" lon="9.1078475"><ele>394.0</ele><time>2026-03-21T10:55:42.132Z</time></trkpt><trkpt lat="44.9246676" lon="9.1077296"><ele>394.0</ele><time>2026-03-21T10:55:43.132Z</time></trkpt><trkpt lat="44.924683" lon="9.1075821"><ele>394.0</ele><time>2026-03-21T10:55:44.131Z</time></trkpt><trkpt lat="44.9246741" lon="9.1073858"><ele>394.0</ele><time>2026-03-21T10:55:45.132Z</time></trkpt><trkpt lat="44.9246618" lon="9.1072288"><ele>394.0</ele><time>2026-03-21T10:55:46.131Z</time></trkpt><trkpt lat="44.9246262" lon="9.1071135"><ele>394.0</ele><time>2026-03-21T10:55:47.132Z</time></trkpt><trkpt lat="44.9245674" lon="9.1070533"><ele>394.0</ele><time>2026-03-21T10:55:48.131Z</time></trkpt><trkpt lat="44.9244737" lon="9.1071613"><ele>394.0</ele><time>2026-03-21T10:55:50.131Z</time></trkpt><trkpt lat="44.9244346" lon="9.1073135"><ele>394.0</ele><time>2026-03-21T10:55:51.131Z</time></trkpt><trkpt lat="44.9243458" lon="9.107456"><ele>394.0</ele><time>2026-03-21T10:55:52.131Z</time></trkpt><trkpt lat="44.9242624" lon="9.1075833"><ele>398.0</ele><time>2026-03-21T10:55:53.132Z</time></trkpt><trkpt lat="44.9241915" lon="9.1076544"><ele>402.0</ele><time>2026-03-21T10:55:54.131Z</time></trkpt><trkpt lat="44.9240998" lon="9.1076687"><ele>406.0</ele><time>2026-03-21T10:55:55.132Z</time></trkpt><trkpt lat="44.923989" lon="9.1076233"><ele>410.0</ele><time>2026-03-21T10:55:56.132Z</time></trkpt><trkpt lat="44.9238378" lon="9.1075501"><ele>410.0</ele><time>2026-03-21T10:55:57.132Z</time></trkpt><trkpt lat="44.9236797" lon="9.1074728"><ele>410.0</ele><time>2026-03-21T10:55:58.132Z</time></trkpt><trkpt lat="44.9235566" lon="9.1074218"><ele>410.0</ele><time>2026-03-21T10:55:59.132Z</time></trkpt><trkpt lat="44.9234489" lon="9.1074079"><ele>410.0</ele><time>2026-03-21T10:56:00.132Z</time></trkpt><trkpt lat="44.9233668" lon="9.1074593"><ele>414.25</ele><time>2026-03-21T10:56:01.132Z</time></trkpt><trkpt lat="44.9233101" lon="9.1075664"><ele>418.5</ele><time>2026-03-21T10:56:02.132Z</time></trkpt><trkpt lat="44.9232552" lon="9.1077321"><ele>422.75</ele><time>2026-03-21T10:56:03.132Z</time></trkpt><trkpt lat="44.9231941" lon="9.1079066"><ele>427.0</ele><time>2026-03-21T10:56:04.132Z</time></trkpt><trkpt lat="44.9231247" lon="9.1080175"><ele>427.0</ele><time>2026-03-21T10:56:05.131Z</time></trkpt><trkpt lat="44.9230411" lon="9.1080684"><ele>427.00000000000006</ele><time>2026-03-21T10:56:06.131Z</time></trkpt><trkpt lat="44.9229616" lon="9.1080558"><ele>427.00000000000006</ele><time>2026-03-21T10:56:07.131Z</time></trkpt><trkpt lat="44.9229444" lon="9.1079154"><ele>427.0</ele><time>2026-03-21T10:56:09.131Z</time></trkpt><trkpt lat="44.9229861" lon="9.1078069"><ele>427.0</ele><time>2026-03-21T10:56:10.131Z</time></trkpt><trkpt lat="44.9230056" lon="9.1076752"><ele>427.0</ele><time>2026-03-21T10:56:11.131Z</time></trkpt><trkpt lat="44.9229938" lon="9.1074944"><ele>427.0</ele><time>2026-03-21T10:56:12.132Z</time></trkpt><trkpt lat="44.9229995" lon="9.1072751"><ele>427.0</ele><time>2026-03-21T10:56:13.131Z</time></trkpt><trkpt lat="44.9230062" lon="9.1070965"><ele>427.0</ele><time>2026-03-21T10:56:14.131Z</time></trkpt><trkpt lat="44.9229859" lon="9.1069344"><ele>427.0</ele><time>2026-03-21T10:56:15.131Z</time></trkpt><trkpt lat="44.9229273" lon="9.106806"><ele>427.0</ele><time>2026-03-21T10:56:16.131Z</time></trkpt><trkpt lat="44.9228337" lon="9.1067095"><ele>427.0</ele><time>2026-03-21T10:56:17.132Z</time></trkpt><trkpt lat="44.9227161" lon="9.1066595"><ele>427.0</ele><time>2026-03-21T10:56:18.132Z</time></trkpt><trkpt lat="44.9225753" lon="9.1066313"><ele>432.0</ele><time>2026-03-21T10:56:19.132Z</time></trkpt><trkpt lat="44.9224453" lon="9.1065571"><ele>437.0</ele><time>2026-03-21T10:56:20.131Z</time></trkpt><trkpt lat="44.9223208" lon="9.1064268"><ele>442.0</ele><time>2026-03-21T10:56:21.131Z</time></trkpt><trkpt lat="44.9222003" lon="9.1062588"><ele>442.0</ele><time>2026-03-21T10:56:22.131Z</time></trkpt><trkpt lat="44.9220704" lon="9.1060619"><ele>442.0</ele><time>2026-03-21T10:56:23.132Z</time></trkpt><trkpt lat="44.9219392" lon="9.1058881"><ele>442.0</ele><time>2026-03-21T10:56:24.132Z</time></trkpt><trkpt lat="44.9218202" lon="9.105709"><ele>447.33333333333337</ele><time>2026-03-21T10:56:25.132Z</time></trkpt><trkpt lat="44.9217287" lon="9.1055386"><ele>452.66666666666663</ele><time>2026-03-21T10:56:26.131Z</time></trkpt><trkpt lat="44.9216322" lon="9.1053712"><ele>458.0</ele><time>2026-03-21T10:56:27.132Z</time></trkpt><trkpt lat="44.921502" lon="9.1052001"><ele>458.0</ele><time>2026-03-21T10:56:28.131Z</time></trkpt><trkpt lat="44.921374" lon="9.1049919"><ele>458.0</ele><time>2026-03-21T10:56:29.131Z</time></trkpt><trkpt lat="44.9212571" lon="9.1048058"><ele>458.0</ele><time>2026-03-21T10:56:30.132Z</time></trkpt><trkpt lat="44.9211527" lon="9.1046201"><ele>456.75</ele><time>2026-03-21T10:56:31.132Z</time></trkpt><trkpt lat="44.9210997" lon="9.1044607"><ele>455.5</ele><time>2026-03-21T10:56:32.131Z</time></trkpt><trkpt lat="44.921039" lon="9.1043231"><ele>454.25</ele><time>2026-03-21T10:56:33.131Z</time></trkpt><trkpt lat="44.9209427" lon="9.1041937"><ele>453.0</ele><time>2026-03-21T10:56:34.132Z</time></trkpt><trkpt lat="44.9207901" lon="9.1040518"><ele>458.59999999999997</ele><time>2026-03-21T10:56:35.132Z</time></trkpt><trkpt lat="44.9206812" lon="9.103925"><ele>464.19999999999993</ele><time>2026-03-21T10:56:36.132Z</time></trkpt><trkpt lat="44.9205968" lon="9.103815"><ele>469.8</ele><time>2026-03-21T10:56:37.131Z</time></trkpt><trkpt lat="44.920562" lon="9.1037032"><ele>475.4</ele><time>2026-03-21T10:56:38.131Z</time></trkpt><trkpt lat="44.9205675" lon="9.1036065"><ele>481.0</ele><time>2026-03-21T10:56:39.132Z</time></trkpt><trkpt lat="44.9206231" lon="9.1035345"><ele>481.0</ele><time>2026-03-21T10:56:40.131Z</time></trkpt><trkpt lat="44.9206858" lon="9.1034472"><ele>481.0</ele><time>2026-03-21T10:56:41.132Z</time></trkpt><trkpt lat="44.9207055" lon="9.1033383"><ele>481.0</ele><time>2026-03-21T10:56:42.131Z</time></trkpt><trkpt lat="44.920692" lon="9.1032242"><ele>481.0</ele><time>2026-03-21T10:56:43.131Z</time></trkpt><trkpt lat="44.9206461" lon="9.1031019"><ele>481.0</ele><time>2026-03-21T10:56:44.132Z</time></trkpt><trkpt lat="44.9206089" lon="9.1029575"><ele>481.6</ele><time>2026-03-21T10:56:45.131Z</time></trkpt><trkpt lat="44.9205923" lon="9.102789"><ele>482.20000000000005</ele><time>2026-03-21T10:56:46.131Z</time></trkpt><trkpt lat="44.9206053" lon="9.1026388"><ele>482.79999999999995</ele><time>2026-03-21T10:56:47.131Z</time></trkpt><trkpt lat="44.9206155" lon="9.1024953"><ele>483.4</ele><time>2026-03-21T10:56:48.132Z</time></trkpt><trkpt lat="44.9205972" lon="9.1023732"><ele>484.0</ele><time>2026-03-21T10:56:49.131Z</time></trkpt><trkpt lat="44.9205536" lon="9.1022597"><ele>484.5</ele><time>2026-03-21T10:56:50.132Z</time></trkpt><trkpt lat="44.9204682" lon="9.1021361"><ele>485.0</ele><time>2026-03-21T10:56:51.132Z</time></trkpt><trkpt lat="44.9203718" lon="9.1019746"><ele>485.5</ele><time>2026-03-21T10:56:52.132Z</time></trkpt><trkpt lat="44.9202855" lon="9.1017884"><ele>486.0</ele><time>2026-03-21T10:56:53.131Z</time></trkpt><trkpt lat="44.9202229" lon="9.101589"><ele>490.20000000000005</ele><time>2026-03-21T10:56:54.131Z</time></trkpt><trkpt lat="44.9201818" lon="9.1013832"><ele>494.40000000000003</ele><time>2026-03-21T10:56:55.131Z</time></trkpt><trkpt lat="44.9201537" lon="9.1012145"><ele>498.6</ele><time>2026-03-21T10:56:56.131Z</time></trkpt><trkpt lat="44.9201193" lon="9.1010944"><ele>502.8</ele><time>2026-03-21T10:56:57.132Z</time></trkpt><trkpt lat="44.920064" lon="9.1010221"><ele>507.0</ele><time>2026-03-21T10:56:58.132Z</time></trkpt><trkpt lat="44.9199986" lon="9.1010189"><ele>508.3333333333333</ele><time>2026-03-21T10:56:59.131Z</time></trkpt><trkpt lat="44.9199715" lon="9.1011609"><ele>509.66666666666663</ele><time>2026-03-21T10:57:01.131Z</time></trkpt><trkpt lat="44.9200093" lon="9.10128"><ele>511.0</ele><time>2026-03-21T10:57:02.131Z</time></trkpt><trkpt lat="44.9200264" lon="9.1014"><ele>512.3333333333333</ele><time>2026-03-21T10:57:03.132Z</time></trkpt><trkpt lat="44.9200132" lon="9.1014901"><ele>513.6666666666666</ele><time>2026-03-21T10:57:04.131Z</time></trkpt><trkpt lat="44.9199249" lon="9.1015026"><ele>515.0</ele><time>2026-03-21T10:57:06.131Z</time></trkpt><trkpt lat="44.9198773" lon="9.1014249"><ele>515.0</ele><time>2026-03-21T10:57:07.132Z</time></trkpt><trkpt lat="44.9198332" lon="9.1012858"><ele>515.0</ele><time>2026-03-21T10:57:08.132Z</time></trkpt><trkpt lat="44.9197821" lon="9.1011186"><ele>515.0</ele><time>2026-03-21T10:57:09.132Z</time></trkpt><trkpt lat="44.919758" lon="9.1009582"><ele>515.0</ele><time>2026-03-21T10:57:10.132Z</time></trkpt><trkpt lat="44.9197584" lon="9.1007963"><ele>519.2</ele><time>2026-03-21T10:57:11.131Z</time></trkpt><trkpt lat="44.9197941" lon="9.100656"><ele>523.4</ele><time>2026-03-21T10:57:12.132Z</time></trkpt><trkpt lat="44.9198743" lon="9.1005464"><ele>527.6</ele><time>2026-03-21T10:57:13.132Z</time></trkpt><trkpt lat="44.9199737" lon="9.1004742"><ele>531.8</ele><time>2026-03-21T10:57:14.132Z</time></trkpt><trkpt lat="44.9200917" lon="9.1004591"><ele>536.0</ele><time>2026-03-21T10:57:15.131Z</time></trkpt><trkpt lat="44.920203" lon="9.1004707"><ele>536.1666666666666</ele><time>2026-03-21T10:57:16.132Z</time></trkpt><trkpt lat="44.9202942" lon="9.1004639"><ele>536.3333333333333</ele><time>2026-03-21T10:57:17.132Z</time></trkpt><trkpt lat="44.9203532" lon="9.1004286"><ele>536.5</ele><time>2026-03-21T10:57:18.131Z</time></trkpt><trkpt lat="44.9203671" lon="9.1003145"><ele>536.6666666666666</ele><time>2026-03-21T10:57:20.132Z</time></trkpt><trkpt lat="44.9203104" lon="9.1002744"><ele>536.8333333333334</ele><time>2026-03-21T10:57:21.132Z</time></trkpt><trkpt lat="44.9202279" lon="9.1002558"><ele>537.0</ele><time>2026-03-21T10:57:22.131Z</time></trkpt><trkpt lat="44.9201176" lon="9.1002001"><ele>536.8000000000001</ele><time>2026-03-21T10:57:23.132Z</time></trkpt><trkpt lat="44.920037" lon="9.1001317"><ele>536.6</ele><time>2026-03-21T10:57:24.131Z</time></trkpt><trkpt lat="44.9199463" lon="9.100103"><ele>536.4000000000001</ele><time>2026-03-21T10:57:25.132Z</time></trkpt><trkpt lat="44.9198433" lon="9.1001256"><ele>536.2</ele><time>2026-03-21T10:57:26.131Z</time></trkpt><trkpt lat="44.9197195" lon="9.1001388"><ele>536.0</ele><time>2026-03-21T10:57:27.131Z</time></trkpt><trkpt lat="44.9196054" lon="9.1001244"><ele>536.0</ele><time>2026-03-21T10:57:28.132Z</time></trkpt><trkpt lat="44.9195178" lon="9.1001501"><ele>536.0</ele><time>2026-03-21T10:57:29.131Z</time></trkpt><trkpt lat="44.9194401" lon="9.1002284"><ele>536.0</ele><time>2026-03-21T10:57:30.131Z</time></trkpt><trkpt lat="44.919379" lon="9.1003355"><ele>536.0</ele><time>2026-03-21T10:57:31.132Z</time></trkpt><trkpt lat="44.9192704" lon="9.1004167"><ele>536.0</ele><time>2026-03-21T10:57:32.132Z</time></trkpt><trkpt lat="44.9191616" lon="9.1004726"><ele>536.3333333333333</ele><time>2026-03-21T10:57:33.131Z</time></trkpt><trkpt lat="44.9190685" lon="9.1005184"><ele>536.6666666666666</ele><time>2026-03-21T10:57:34.131Z</time></trkpt><trkpt lat="44.9189804" lon="9.1005565"><ele>537.0</ele><time>2026-03-21T10:57:35.132Z</time></trkpt><trkpt lat="44.9188843" lon="9.1005446"><ele>537.3333333333334</ele><time>2026-03-21T10:57:37.132Z</time></trkpt><trkpt lat="44.9188204" lon="9.1005238"><ele>537.6666666666667</ele><time>2026-03-21T10:57:42.132Z</time></trkpt><trkpt lat="44.9187547" lon="9.1005278"><ele>538.0</ele><time>2026-03-21T10:58:09.131Z</time></trkpt><trkpt lat="44.9187034" lon="9.100446"><ele>538.0</ele><time>2026-03-21T10:58:11.131Z</time></trkpt><trkpt lat="44.9186547" lon="9.1003225"><ele>538.0</ele><time>2026-03-21T10:58:13.132Z</time></trkpt><trkpt lat="44.9185811" lon="9.1001966"><ele>538.0</ele><time>2026-03-21T10:58:15.131Z</time></trkpt><trkpt lat="44.9185129" lon="9.1000948"><ele>538.0</ele><time>2026-03-21T10:58:17.132Z</time></trkpt><trkpt lat="44.9184376" lon="9.0999987"><ele>538.0</ele><time>2026-03-21T10:58:19.132Z</time></trkpt><trkpt lat="44.9183394" lon="9.0999334"><ele>537.1999999999999</ele><time>2026-03-21T10:58:21.132Z</time></trkpt><trkpt lat="44.9182604" lon="9.0999427"><ele>536.4</ele><time>2026-03-21T10:58:22.131Z</time></trkpt><trkpt lat="44.9181545" lon="9.0999557"><ele>535.5999999999999</ele><time>2026-03-21T10:58:23.132Z</time></trkpt><trkpt lat="44.9180582" lon="9.0999568"><ele>534.8</ele><time>2026-03-21T10:58:24.132Z</time></trkpt><trkpt lat="44.9179562" lon="9.0999441"><ele>534.0</ele><time>2026-03-21T10:58:25.131Z</time></trkpt><trkpt lat="44.9178617" lon="9.0999034"><ele>537.0</ele><time>2026-03-21T10:58:26.132Z</time></trkpt><trkpt lat="44.9177817" lon="9.0998462"><ele>540.0</ele><time>2026-03-21T10:58:27.131Z</time></trkpt><trkpt lat="44.9177344" lon="9.0997496"><ele>543.0</ele><time>2026-03-21T10:58:28.131Z</time></trkpt><trkpt lat="44.9177038" lon="9.0996406"><ele>546.0</ele><time>2026-03-21T10:58:29.132Z</time></trkpt><trkpt lat="44.9177072" lon="9.099512"><ele>549.0</ele><time>2026-03-21T10:58:30.132Z</time></trkpt><trkpt lat="44.9177258" lon="9.0993938"><ele>552.0</ele><time>2026-03-21T10:58:31.132Z</time></trkpt><trkpt lat="44.9177213" lon="9.0992796"><ele>552.0</ele><time>2026-03-21T10:58:32.131Z</time></trkpt><trkpt lat="44.9176886" lon="9.0991886"><ele>552.0</ele><time>2026-03-21T10:58:33.132Z</time></trkpt><trkpt lat="44.9175876" lon="9.0991454"><ele>552.0</ele><time>2026-03-21T10:58:35.132Z</time></trkpt><trkpt lat="44.9175183" lon="9.0992993"><ele>552.0</ele><time>2026-03-21T10:58:37.131Z</time></trkpt><trkpt lat="44.9175114" lon="9.0994156"><ele>552.0</ele><time>2026-03-21T10:58:38.131Z</time></trkpt><trkpt lat="44.9175062" lon="9.0995384"><ele>547.1666666666666</ele><time>2026-03-21T10:58:39.131Z</time></trkpt><trkpt lat="44.9175165" lon="9.0996739"><ele>542.3333333333334</ele><time>2026-03-21T10:58:40.131Z</time></trkpt><trkpt lat="44.9175459" lon="9.0998025"><ele>537.5</ele><time>2026-03-21T10:58:41.132Z</time></trkpt><trkpt lat="44.9175606" lon="9.0999359"><ele>532.6666666666667</ele><time>2026-03-21T10:58:42.132Z</time></trkpt><trkpt lat="44.917547" lon="9.1000562"><ele>527.8333333333334</ele><time>2026-03-21T10:58:43.132Z</time></trkpt><trkpt lat="44.9175058" lon="9.1001414"><ele>523.0</ele><time>2026-03-21T10:58:44.132Z</time></trkpt><trkpt lat="44.917441" lon="9.1001666"><ele>523.0</ele><time>2026-03-21T10:58:45.132Z</time></trkpt><trkpt lat="44.9173766" lon="9.1001319"><ele>523.0</ele><time>2026-03-21T10:58:46.131Z</time></trkpt><trkpt lat="44.9173171" lon="9.1000297"><ele>523.0</ele><time>2026-03-21T10:58:47.131Z</time></trkpt><trkpt lat="44.9172757" lon="9.099881"><ele>523.0</ele><time>2026-03-21T10:58:48.132Z</time></trkpt><trkpt lat="44.9172536" lon="9.0997007"><ele>523.0</ele><time>2026-03-21T10:58:49.132Z</time></trkpt><trkpt lat="44.9172449" lon="9.0995409"><ele>523.0</ele><time>2026-03-21T10:58:50.132Z</time></trkpt><trkpt lat="44.9172389" lon="9.0993903"><ele>523.0</ele><time>2026-03-21T10:58:51.132Z</time></trkpt><trkpt lat="44.9172174" lon="9.0992658"><ele>523.0</ele><time>2026-03-21T10:58:52.132Z</time></trkpt><trkpt lat="44.9171668" lon="9.0991852"><ele>523.0</ele><time>2026-03-21T10:58:53.131Z</time></trkpt><trkpt lat="44.9170912" lon="9.0991454"><ele>523.0</ele><time>2026-03-21T10:58:54.131Z</time></trkpt><trkpt lat="44.9169905" lon="9.0991439"><ele>523.0</ele><time>2026-03-21T10:58:55.131Z</time></trkpt><trkpt lat="44.9168622" lon="9.0991483"><ele>523.0</ele><time>2026-03-21T10:58:56.131Z</time></trkpt><trkpt lat="44.9167368" lon="9.0991596"><ele>523.0</ele><time>2026-03-21T10:58:57.131Z</time></trkpt><trkpt lat="44.9166159" lon="9.0991642"><ele>523.0</ele><time>2026-03-21T10:58:58.132Z</time></trkpt><trkpt lat="44.9165187" lon="9.0991426"><ele>522.5</ele><time>2026-03-21T10:58:59.132Z</time></trkpt><trkpt lat="44.9164547" lon="9.099109"><ele>522.0</ele><time>2026-03-21T10:59:00.132Z</time></trkpt><trkpt lat="44.9164106" lon="9.0990416"><ele>521.5</ele><time>2026-03-21T10:59:01.132Z</time></trkpt><trkpt lat="44.9163625" lon="9.0989301"><ele>521.0</ele><time>2026-03-21T10:59:02.132Z</time></trkpt><trkpt lat="44.9163027" lon="9.0988305"><ele>520.5</ele><time>2026-03-21T10:59:03.132Z</time></trkpt><trkpt lat="44.9162182" lon="9.0987537"><ele>520.0</ele><time>2026-03-21T10:59:04.132Z</time></trkpt><trkpt lat="44.9161161" lon="9.0987059"><ele>520.0</ele><time>2026-03-21T10:59:05.132Z</time></trkpt><trkpt lat="44.9160079" lon="9.0986886"><ele>520.0</ele><time>2026-03-21T10:59:06.132Z</time></trkpt><trkpt lat="44.9159006" lon="9.0987135"><ele>520.0</ele><time>2026-03-21T10:59:07.131Z</time></trkpt><trkpt lat="44.9157901" lon="9.0987627"><ele>520.0</ele><time>2026-03-21T10:59:08.131Z</time></trkpt><trkpt lat="44.9156719" lon="9.0988039"><ele>516.25</ele><time>2026-03-21T10:59:09.132Z</time></trkpt><trkpt lat="44.9155469" lon="9.0988143"><ele>512.5</ele><time>2026-03-21T10:59:10.131Z</time></trkpt><trkpt lat="44.9154132" lon="9.0987937"><ele>508.75</ele><time>2026-03-21T10:59:11.131Z</time></trkpt><trkpt lat="44.9152815" lon="9.0987609"><ele>505.0</ele><time>2026-03-21T10:59:12.131Z</time></trkpt><trkpt lat="44.9151538" lon="9.0987273"><ele>501.5</ele><time>2026-03-21T10:59:13.131Z</time></trkpt><trkpt lat="44.9150341" lon="9.0986986"><ele>498.0</ele><time>2026-03-21T10:59:14.131Z</time></trkpt><trkpt lat="44.9149198" lon="9.098701"><ele>494.5</ele><time>2026-03-21T10:59:15.131Z</time></trkpt><trkpt lat="44.9148092" lon="9.0987418"><ele>491.0</ele><time>2026-03-21T10:59:16.131Z</time></trkpt><trkpt lat="44.9147074" lon="9.0987961"><ele>491.0</ele><time>2026-03-21T10:59:17.132Z</time></trkpt><trkpt lat="44.9146038" lon="9.09883"><ele>491.0</ele><time>2026-03-21T10:59:18.131Z</time></trkpt><trkpt lat="44.9144964" lon="9.0988287"><ele>491.0</ele><time>2026-03-21T10:59:19.132Z</time></trkpt><trkpt lat="44.9143926" lon="9.0987962"><ele>491.0</ele><time>2026-03-21T10:59:20.132Z</time></trkpt><trkpt lat="44.9142959" lon="9.0987377"><ele>491.0</ele><time>2026-03-21T10:59:21.132Z</time></trkpt><trkpt lat="44.9142063" lon="9.0986511"><ele>488.0</ele><time>2026-03-21T10:59:22.132Z</time></trkpt><trkpt lat="44.9141239" lon="9.0985571"><ele>485.0</ele><time>2026-03-21T10:59:23.131Z</time></trkpt><trkpt lat="44.9140492" lon="9.0984705"><ele>482.0</ele><time>2026-03-21T10:59:24.131Z</time></trkpt><trkpt lat="44.9139812" lon="9.0984201"><ele>479.0</ele><time>2026-03-21T10:59:25.132Z</time></trkpt><trkpt lat="44.9139175" lon="9.098422"><ele>476.0</ele><time>2026-03-21T10:59:26.131Z</time></trkpt><trkpt lat="44.9138797" lon="9.0985649"><ele>476.0</ele><time>2026-03-21T10:59:28.132Z</time></trkpt><trkpt lat="44.9139179" lon="9.0986574"><ele>476.0</ele><time>2026-03-21T10:59:29.132Z</time></trkpt><trkpt lat="44.9139823" lon="9.0987345"><ele>476.0</ele><time>2026-03-21T10:59:30.132Z</time></trkpt><trkpt lat="44.9140673" lon="9.0988122"><ele>476.0</ele><time>2026-03-21T10:59:31.132Z</time></trkpt><trkpt lat="44.9141632" lon="9.0988971"><ele>476.0</ele><time>2026-03-21T10:59:32.131Z</time></trkpt><trkpt lat="44.9142659" lon="9.0989769"><ele>475.66666666666663</ele><time>2026-03-21T10:59:33.132Z</time></trkpt><trkpt lat="44.914354" lon="9.0990534"><ele>475.3333333333333</ele><time>2026-03-21T10:59:34.131Z</time></trkpt><trkpt lat="44.9144164" lon="9.0991292"><ele>475.0</ele><time>2026-03-21T10:59:35.132Z</time></trkpt><trkpt lat="44.9144409" lon="9.0992271"><ele>474.66666666666663</ele><time>2026-03-21T10:59:36.132Z</time></trkpt><trkpt lat="44.9144224" lon="9.0993121"><ele>474.3333333333333</ele><time>2026-03-21T10:59:37.131Z</time></trkpt><trkpt lat="44.9143021" lon="9.0993326"><ele>474.0</ele><time>2026-03-21T10:59:39.131Z</time></trkpt><trkpt lat="44.9142137" lon="9.0992686"><ele>471.6</ele><time>2026-03-21T10:59:40.132Z</time></trkpt><trkpt lat="44.9141075" lon="9.0991958"><ele>469.2</ele><time>2026-03-21T10:59:41.132Z</time></trkpt><trkpt lat="44.913994" lon="9.0991444"><ele>466.80000000000007</ele><time>2026-03-21T10:59:42.131Z</time></trkpt><trkpt lat="44.9138869" lon="9.0991159"><ele>464.40000000000003</ele><time>2026-03-21T10:59:43.132Z</time></trkpt><trkpt lat="44.9137956" lon="9.0991314"><ele>462.0</ele><time>2026-03-21T10:59:44.132Z</time></trkpt><trkpt lat="44.9137228" lon="9.099215"><ele>462.0</ele><time>2026-03-21T10:59:45.131Z</time></trkpt><trkpt lat="44.9136488" lon="9.0993363"><ele>462.0</ele><time>2026-03-21T10:59:46.131Z</time></trkpt><trkpt lat="44.9135524" lon="9.0994434"><ele>462.0</ele><time>2026-03-21T10:59:47.132Z</time></trkpt><trkpt lat="44.913439" lon="9.0995227"><ele>462.0</ele><time>2026-03-21T10:59:48.131Z</time></trkpt><trkpt lat="44.9133149" lon="9.0995759"><ele>459.5</ele><time>2026-03-21T10:59:49.132Z</time></trkpt><trkpt lat="44.9131762" lon="9.0996053"><ele>457.0</ele><time>2026-03-21T10:59:50.131Z</time></trkpt><trkpt lat="44.9130477" lon="9.0996297"><ele>454.5</ele><time>2026-03-21T10:59:51.132Z</time></trkpt><trkpt lat="44.9129126" lon="9.0996561"><ele>452.0</ele><time>2026-03-21T10:59:52.131Z</time></trkpt><trkpt lat="44.9127783" lon="9.0996969"><ele>452.0</ele><time>2026-03-21T10:59:53.131Z</time></trkpt><trkpt lat="44.9126455" lon="9.0997479"><ele>452.0</ele><time>2026-03-21T10:59:54.131Z</time></trkpt><trkpt lat="44.9125209" lon="9.0998123"><ele>452.0</ele><time>2026-03-21T10:59:55.132Z</time></trkpt><trkpt lat="44.9124072" lon="9.0998589"><ele>452.0</ele><time>2026-03-21T10:59:56.131Z</time></trkpt><trkpt lat="44.9123106" lon="9.0998679"><ele>449.6</ele><time>2026-03-21T10:59:57.131Z</time></trkpt><trkpt lat="44.9122244" lon="9.0998392"><ele>447.20000000000005</ele><time>2026-03-21T10:59:58.131Z</time></trkpt><trkpt lat="44.9121648" lon="9.0997482"><ele>444.8</ele><time>2026-03-21T10:59:59.132Z</time></trkpt><trkpt lat="44.9121197" lon="9.0996455"><ele>442.4</ele><time>2026-03-21T11:00:00.131Z</time></trkpt><trkpt lat="44.9120425" lon="9.0995785"><ele>440.0</ele><time>2026-03-21T11:00:01.132Z</time></trkpt><trkpt lat="44.9119432" lon="9.0995695"><ele>440.0</ele><time>2026-03-21T11:00:02.131Z</time></trkpt><trkpt lat="44.9118139" lon="9.0996119"><ele>440.0</ele><time>2026-03-21T11:00:03.131Z</time></trkpt><trkpt lat="44.9116558" lon="9.0996655"><ele>440.0</ele><time>2026-03-21T11:00:04.131Z</time></trkpt><trkpt lat="44.9115064" lon="9.0997149"><ele>440.0</ele><time>2026-03-21T11:00:05.132Z</time></trkpt><trkpt lat="44.9113607" lon="9.0997826"><ele>436.5</ele><time>2026-03-21T11:00:06.132Z</time></trkpt><trkpt lat="44.9112376" lon="9.0998753"><ele>433.0</ele><time>2026-03-21T11:00:07.131Z</time></trkpt><trkpt lat="44.9111421" lon="9.0999973"><ele>429.5</ele><time>2026-03-21T11:00:08.132Z</time></trkpt><trkpt lat="44.9110449" lon="9.1001248"><ele>426.0</ele><time>2026-03-21T11:00:09.131Z</time></trkpt><trkpt lat="44.9109389" lon="9.1002257"><ele>421.75</ele><time>2026-03-21T11:00:10.132Z</time></trkpt><trkpt lat="44.9108274" lon="9.1002865"><ele>417.5</ele><time>2026-03-21T11:00:11.132Z</time></trkpt><trkpt lat="44.9106909" lon="9.1002863"><ele>413.25</ele><time>2026-03-21T11:00:12.131Z</time></trkpt><trkpt lat="44.9105465" lon="9.1002323"><ele>409.0</ele><time>2026-03-21T11:00:13.131Z</time></trkpt><trkpt lat="44.9103988" lon="9.1001457"><ele>409.0</ele><time>2026-03-21T11:00:14.131Z</time></trkpt><trkpt lat="44.910264" lon="9.1000468"><ele>409.0</ele><time>2026-03-21T11:00:15.132Z</time></trkpt><trkpt lat="44.9101256" lon="9.0999792"><ele>409.0</ele><time>2026-03-21T11:00:16.132Z</time></trkpt><trkpt lat="44.9099887" lon="9.0999718"><ele>409.0</ele><time>2026-03-21T11:00:17.131Z</time></trkpt><trkpt lat="44.9098549" lon="9.099979"><ele>407.5</ele><time>2026-03-21T11:00:18.132Z</time></trkpt><trkpt lat="44.909733" lon="9.0999519"><ele>406.0</ele><time>2026-03-21T11:00:19.131Z</time></trkpt><trkpt lat="44.9096139" lon="9.0998851"><ele>404.5</ele><time>2026-03-21T11:00:20.131Z</time></trkpt><trkpt lat="44.9094777" lon="9.099818"><ele>403.0</ele><time>2026-03-21T11:00:21.132Z</time></trkpt><trkpt lat="44.9093206" lon="9.0997659"><ele>398.6666666666667</ele><time>2026-03-21T11:00:22.132Z</time></trkpt><trkpt lat="44.909156" lon="9.0997002"><ele>394.33333333333337</ele><time>2026-03-21T11:00:23.131Z</time></trkpt><trkpt lat="44.9089983" lon="9.0996295"><ele>390.0</ele><time>2026-03-21T11:00:24.132Z</time></trkpt><trkpt lat="44.9088462" lon="9.0995819"><ele>390.0</ele><time>2026-03-21T11:00:25.132Z</time></trkpt><trkpt lat="44.9087057" lon="9.0995645"><ele>390.0</ele><time>2026-03-21T11:00:26.131Z</time></trkpt><trkpt lat="44.9086007" lon="9.0995483"><ele>390.0</ele><time>2026-03-21T11:00:27.132Z</time></trkpt><trkpt lat="44.9085095" lon="9.0995091"><ele>390.0</ele><time>2026-03-21T11:00:28.132Z</time></trkpt><trkpt lat="44.9084232" lon="9.0994199"><ele>390.0</ele><time>2026-03-21T11:00:29.131Z</time></trkpt><trkpt lat="44.9083337" lon="9.0992904"><ele>387.8</ele><time>2026-03-21T11:00:30.132Z</time></trkpt><trkpt lat="44.9082548" lon="9.0991631"><ele>385.6</ele><time>2026-03-21T11:00:31.131Z</time></trkpt><trkpt lat="44.9081924" lon="9.0990343"><ele>383.4</ele><time>2026-03-21T11:00:32.132Z</time></trkpt><trkpt lat="44.9081395" lon="9.0989248"><ele>381.2</ele><time>2026-03-21T11:00:33.132Z</time></trkpt><trkpt lat="44.9080777" lon="9.0988498"><ele>379.0</ele><time>2026-03-21T11:00:34.132Z</time></trkpt><trkpt lat="44.9080163" lon="9.0988239"><ele>379.0</ele><time>2026-03-21T11:00:35.131Z</time></trkpt><trkpt lat="44.9079302" lon="9.0989391"><ele>379.0</ele><time>2026-03-21T11:00:37.132Z</time></trkpt><trkpt lat="44.9079086" lon="9.0990592"><ele>379.0</ele><time>2026-03-21T11:00:38.132Z</time></trkpt><trkpt lat="44.9078909" lon="9.0992127"><ele>379.0</ele><time>2026-03-21T11:00:39.132Z</time></trkpt><trkpt lat="44.9078678" lon="9.0993806"><ele>379.0</ele><time>2026-03-21T11:00:40.132Z</time></trkpt><trkpt lat="44.9078422" lon="9.0995442"><ele>378.4</ele><time>2026-03-21T11:00:41.132Z</time></trkpt><trkpt lat="44.9078064" lon="9.0996801"><ele>377.79999999999995</ele><time>2026-03-21T11:00:42.131Z</time></trkpt><trkpt lat="44.9077398" lon="9.0997815"><ele>377.20000000000005</ele><time>2026-03-21T11:00:43.132Z</time></trkpt><trkpt lat="44.9076399" lon="9.0998365"><ele>376.6</ele><time>2026-03-21T11:00:44.131Z</time></trkpt><trkpt lat="44.9075104" lon="9.0998492"><ele>376.0</ele><time>2026-03-21T11:00:45.132Z</time></trkpt><trkpt lat="44.9073669" lon="9.0998474"><ele>373.0</ele><time>2026-03-21T11:00:46.131Z</time></trkpt><trkpt lat="44.9072267" lon="9.0998597"><ele>370.0</ele><time>2026-03-21T11:00:47.131Z</time></trkpt><trkpt lat="44.9070871" lon="9.0998835"><ele>367.0</ele><time>2026-03-21T11:00:48.132Z</time></trkpt><trkpt lat="44.9069565" lon="9.0999285"><ele>364.0</ele><time>2026-03-21T11:00:49.131Z</time></trkpt><trkpt lat="44.9068274" lon="9.099997"><ele>361.25</ele><time>2026-03-21T11:00:50.131Z</time></trkpt><trkpt lat="44.9067028" lon="9.1000742"><ele>358.5</ele><time>2026-03-21T11:00:51.131Z</time></trkpt><trkpt lat="44.9065782" lon="9.1001516"><ele>355.75</ele><time>2026-03-21T11:00:52.132Z</time></trkpt><trkpt lat="44.9064571" lon="9.1002263"><ele>353.0</ele><time>2026-03-21T11:00:53.131Z</time></trkpt><trkpt lat="44.9063439" lon="9.1002988"><ele>353.0</ele><time>2026-03-21T11:00:54.131Z</time></trkpt><trkpt lat="44.9062439" lon="9.1003622"><ele>353.0</ele><time>2026-03-21T11:00:55.132Z</time></trkpt><trkpt lat="44.9061587" lon="9.1004246"><ele>353.0</ele><time>2026-03-21T11:00:56.132Z</time></trkpt><trkpt lat="44.9060933" lon="9.100494"><ele>353.0</ele><time>2026-03-21T11:00:57.132Z</time></trkpt><trkpt lat="44.9060599" lon="9.1005803"><ele>353.0</ele><time>2026-03-21T11:00:58.131Z</time></trkpt><trkpt lat="44.9060666" lon="9.1006688"><ele>353.0</ele><time>2026-03-21T11:00:59.132Z</time></trkpt><trkpt lat="44.9060992" lon="9.1007571"><ele>352.79999999999995</ele><time>2026-03-21T11:01:00.132Z</time></trkpt><trkpt lat="44.9061563" lon="9.1008459"><ele>352.6</ele><time>2026-03-21T11:01:01.132Z</time></trkpt><trkpt lat="44.9062233" lon="9.1009509"><ele>352.4</ele><time>2026-03-21T11:01:02.131Z</time></trkpt><trkpt lat="44.9062976" lon="9.1010743"><ele>352.20000000000005</ele><time>2026-03-21T11:01:03.132Z</time></trkpt><trkpt lat="44.9063766" lon="9.1012046"><ele>352.0</ele><time>2026-03-21T11:01:04.131Z</time></trkpt><trkpt lat="44.9064578" lon="9.1013409"><ele>352.0</ele><time>2026-03-21T11:01:05.132Z</time></trkpt><trkpt lat="44.9065355" lon="9.1014772"><ele>352.0</ele><time>2026-03-21T11:01:06.132Z</time></trkpt><trkpt lat="44.9066034" lon="9.1016176"><ele>352.0</ele><time>2026-03-21T11:01:07.132Z</time></trkpt><trkpt lat="44.9066485" lon="9.1017691"><ele>352.0</ele><time>2026-03-21T11:01:08.132Z</time></trkpt><trkpt lat="44.906662" lon="9.1019375"><ele>350.5</ele><time>2026-03-21T11:01:09.132Z</time></trkpt><trkpt lat="44.9066521" lon="9.1021158"><ele>349.0</ele><time>2026-03-21T11:01:10.131Z</time></trkpt><trkpt lat="44.9066325" lon="9.1022995"><ele>347.5</ele><time>2026-03-21T11:01:11.131Z</time></trkpt><trkpt lat="44.9066192" lon="9.102473"><ele>346.0</ele><time>2026-03-21T11:01:12.131Z</time></trkpt><trkpt lat="44.9066013" lon="9.1026446"><ele>344.5</ele><time>2026-03-21T11:01:13.131Z</time></trkpt><trkpt lat="44.9065708" lon="9.1028033"><ele>343.0</ele><time>2026-03-21T11:01:14.132Z</time></trkpt><trkpt lat="44.906516" lon="9.1029429"><ele>341.5</ele><time>2026-03-21T11:01:15.132Z</time></trkpt><trkpt lat="44.9064276" lon="9.1030348"><ele>340.0</ele><time>2026-03-21T11:01:16.131Z</time></trkpt><trkpt lat="44.9063147" lon="9.1030904"><ele>340.0</ele><time>2026-03-21T11:01:17.131Z</time></trkpt><trkpt lat="44.9061975" lon="9.1031301"><ele>340.0</ele><time>2026-03-21T11:01:18.131Z</time></trkpt><trkpt lat="44.906083" lon="9.1031718"><ele>340.0</ele><time>2026-03-21T11:01:19.131Z</time></trkpt><trkpt lat="44.9059729" lon="9.1032037"><ele>340.0</ele><time>2026-03-21T11:01:20.132Z</time></trkpt><trkpt lat="44.9058717" lon="9.1032135"><ele>338.6</ele><time>2026-03-21T11:01:21.132Z</time></trkpt><trkpt lat="44.9057857" lon="9.1032381"><ele>337.2</ele><time>2026-03-21T11:01:22.131Z</time></trkpt><trkpt lat="44.9057274" lon="9.1032996"><ele>335.79999999999995</ele><time>2026-03-21T11:01:23.132Z</time></trkpt><trkpt lat="44.9057312" lon="9.1034535"><ele>334.4</ele><time>2026-03-21T11:01:25.131Z</time></trkpt><trkpt lat="44.9058638" lon="9.1034956"><ele>333.0</ele><time>2026-03-21T11:01:27.132Z</time></trkpt><trkpt lat="44.9059544" lon="9.1035107"><ele>332.79999999999995</ele><time>2026-03-21T11:01:28.131Z</time></trkpt><trkpt lat="44.9060546" lon="9.103555"><ele>332.6</ele><time>2026-03-21T11:01:29.132Z</time></trkpt><trkpt lat="44.9061591" lon="9.1036245"><ele>332.4</ele><time>2026-03-21T11:01:30.132Z</time></trkpt><trkpt lat="44.9062546" lon="9.1037149"><ele>332.20000000000005</ele><time>2026-03-21T11:01:31.132Z</time></trkpt><trkpt lat="44.9063529" lon="9.1037875"><ele>332.0</ele><time>2026-03-21T11:01:32.131Z</time></trkpt><trkpt lat="44.9064418" lon="9.1038501"><ele>332.0</ele><time>2026-03-21T11:01:33.131Z</time></trkpt><trkpt lat="44.9065064" lon="9.1039162"><ele>332.0</ele><time>2026-03-21T11:01:34.131Z</time></trkpt><trkpt lat="44.9065332" lon="9.1039983"><ele>332.0</ele><time>2026-03-21T11:01:35.131Z</time></trkpt><trkpt lat="44.9064777" lon="9.1041173"><ele>332.0</ele><time>2026-03-21T11:01:37.131Z</time></trkpt><trkpt lat="44.9064082" lon="9.1041119"><ele>332.0</ele><time>2026-03-21T11:01:38.131Z</time></trkpt><trkpt lat="44.9063098" lon="9.1040659"><ele>332.0</ele><time>2026-03-21T11:01:39.132Z</time></trkpt><trkpt lat="44.9062104" lon="9.1040304"><ele>332.0</ele><time>2026-03-21T11:01:40.132Z</time></trkpt><trkpt lat="44.9061094" lon="9.1040165"><ele>332.0</ele><time>2026-03-21T11:01:41.132Z</time></trkpt><trkpt lat="44.9060146" lon="9.1040242"><ele>332.0</ele><time>2026-03-21T11:01:42.132Z</time></trkpt><trkpt lat="44.9059334" lon="9.1040908"><ele>332.0</ele><time>2026-03-21T11:01:43.132Z</time></trkpt><trkpt lat="44.9058818" lon="9.1042146"><ele>332.0</ele><time>2026-03-21T11:01:44.132Z</time></trkpt><trkpt lat="44.9058631" lon="9.1043637"><ele>328.40000000000003</ele><time>2026-03-21T11:01:45.132Z</time></trkpt><trkpt lat="44.9058344" lon="9.1045034"><ele>324.8</ele><time>2026-03-21T11:01:46.131Z</time></trkpt><trkpt lat="44.9057706" lon="9.1046043"><ele>321.2</ele><time>2026-03-21T11:01:47.131Z</time></trkpt><trkpt lat="44.9056719" lon="9.1046738"><ele>317.6</ele><time>2026-03-21T11:01:48.132Z</time></trkpt><trkpt lat="44.9055523" lon="9.1047217"><ele>314.0</ele><time>2026-03-21T11:01:49.132Z</time></trkpt><trkpt lat="44.9054364" lon="9.104766"><ele>314.0</ele><time>2026-03-21T11:01:50.131Z</time></trkpt><trkpt lat="44.9053134" lon="9.1047865"><ele>314.0</ele><time>2026-03-21T11:01:51.131Z</time></trkpt><trkpt lat="44.905193" lon="9.1047667"><ele>314.0</ele><time>2026-03-21T11:01:52.132Z</time></trkpt><trkpt lat="44.9050649" lon="9.1047141"><ele>314.0</ele><time>2026-03-21T11:01:53.131Z</time></trkpt><trkpt lat="44.9049339" lon="9.1046542"><ele>313.25</ele><time>2026-03-21T11:01:54.132Z</time></trkpt><trkpt lat="44.9048048" lon="9.1045978"><ele>312.5</ele><time>2026-03-21T11:01:55.132Z</time></trkpt><trkpt lat="44.9046807" lon="9.1045397"><ele>311.75</ele><time>2026-03-21T11:01:56.132Z</time></trkpt><trkpt lat="44.9045732" lon="9.1044691"><ele>311.0</ele><time>2026-03-21T11:01:57.132Z</time></trkpt><trkpt lat="44.9044858" lon="9.1043959"><ele>311.0</ele><time>2026-03-21T11:01:58.132Z</time></trkpt><trkpt lat="44.9044121" lon="9.1043562"><ele>311.0</ele><time>2026-03-21T11:01:59.131Z</time></trkpt><trkpt lat="44.9043268" lon="9.1044533"><ele>311.0</ele><time>2026-03-21T11:02:01.131Z</time></trkpt><trkpt lat="44.9043466" lon="9.1045515"><ele>311.0</ele><time>2026-03-21T11:02:02.131Z</time></trkpt><trkpt lat="44.9044016" lon="9.1046591"><ele>311.0</ele><time>2026-03-21T11:02:03.132Z</time></trkpt><trkpt lat="44.9044678" lon="9.1047775"><ele>308.0</ele><time>2026-03-21T11:02:04.132Z</time></trkpt><trkpt lat="44.9045073" lon="9.1049162"><ele>305.0</ele><time>2026-03-21T11:02:05.131Z</time></trkpt><trkpt lat="44.9045083" lon="9.105055"><ele>302.0</ele><time>2026-03-21T11:02:06.132Z</time></trkpt><trkpt lat="44.9044796" lon="9.1051803"><ele>299.0</ele><time>2026-03-21T11:02:07.131Z</time></trkpt><trkpt lat="44.9044316" lon="9.1052869"><ele>296.0</ele><time>2026-03-21T11:02:08.131Z</time></trkpt><trkpt lat="44.9043708" lon="9.105365"><ele>296.0</ele><time>2026-03-21T11:02:09.131Z</time></trkpt><trkpt lat="44.9042923" lon="9.1053954"><ele>296.0</ele><time>2026-03-21T11:02:10.131Z</time></trkpt><trkpt lat="44.9042006" lon="9.1053855"><ele>296.0</ele><time>2026-03-21T11:02:11.131Z</time></trkpt><trkpt lat="44.9040983" lon="9.1053476"><ele>296.0</ele><time>2026-03-21T11:02:12.131Z</time></trkpt><trkpt lat="44.9039923" lon="9.1052894"><ele>296.0</ele><time>2026-03-21T11:02:13.131Z</time></trkpt><trkpt lat="44.9038865" lon="9.1052063"><ele>295.0</ele><time>2026-03-21T11:02:14.131Z</time></trkpt><trkpt lat="44.9037773" lon="9.1051104"><ele>294.0</ele><time>2026-03-21T11:02:15.132Z</time></trkpt><trkpt lat="44.9036695" lon="9.1050058"><ele>293.0</ele><time>2026-03-21T11:02:16.132Z</time></trkpt><trkpt lat="44.9035582" lon="9.1048944"><ele>292.0</ele><time>2026-03-21T11:02:17.132Z</time></trkpt><trkpt lat="44.9034451" lon="9.1047848"><ele>288.75</ele><time>2026-03-21T11:02:18.132Z</time></trkpt><trkpt lat="44.9033231" lon="9.1046871"><ele>285.5</ele><time>2026-03-21T11:02:19.131Z</time></trkpt><trkpt lat="44.9031946" lon="9.1045966"><ele>282.25</ele><time>2026-03-21T11:02:20.132Z</time></trkpt><trkpt lat="44.9030615" lon="9.104509"><ele>279.0</ele><time>2026-03-21T11:02:21.132Z</time></trkpt><trkpt lat="44.9029321" lon="9.1044297"><ele>279.0</ele><time>2026-03-21T11:02:22.132Z</time></trkpt><trkpt lat="44.9028026" lon="9.1043547"><ele>279.0</ele><time>2026-03-21T11:02:23.131Z</time></trkpt><trkpt lat="44.9026712" lon="9.1042954"><ele>279.0</ele><time>2026-03-21T11:02:24.131Z</time></trkpt><trkpt lat="44.9025475" lon="9.1042579"><ele>279.0</ele><time>2026-03-21T11:02:25.132Z</time></trkpt><trkpt lat="44.9024265" lon="9.104222"><ele>278.5</ele><time>2026-03-21T11:02:26.132Z</time></trkpt><trkpt lat="44.9023068" lon="9.1041838"><ele>278.0</ele><time>2026-03-21T11:02:27.131Z</time></trkpt><trkpt lat="44.9021903" lon="9.1041293"><ele>277.5</ele><time>2026-03-21T11:02:28.131Z</time></trkpt><trkpt lat="44.9020764" lon="9.1040508"><ele>277.0</ele><time>2026-03-21T11:02:29.132Z</time></trkpt><trkpt lat="44.9019596" lon="9.1039574"><ele>277.0</ele><time>2026-03-21T11:02:30.132Z</time></trkpt><trkpt lat="44.9018504" lon="9.1038593"><ele>277.0</ele><time>2026-03-21T11:02:31.132Z</time></trkpt><trkpt lat="44.9017569" lon="9.1037532"><ele>277.0</ele><time>2026-03-21T11:02:32.132Z</time></trkpt><trkpt lat="44.9016875" lon="9.1036265"><ele>277.0</ele><time>2026-03-21T11:02:33.132Z</time></trkpt><trkpt lat="44.9016582" lon="9.103475"><ele>278.5</ele><time>2026-03-21T11:02:34.131Z</time></trkpt><trkpt lat="44.9016661" lon="9.1033048"><ele>280.0</ele><time>2026-03-21T11:02:35.132Z</time></trkpt><trkpt lat="44.9016978" lon="9.1031289"><ele>281.5</ele><time>2026-03-21T11:02:36.131Z</time></trkpt><trkpt lat="44.9017314" lon="9.102959"><ele>283.0</ele><time>2026-03-21T11:02:37.131Z</time></trkpt><trkpt lat="44.9017499" lon="9.1027938"><ele>280.5</ele><time>2026-03-21T11:02:38.132Z</time></trkpt><trkpt lat="44.9017453" lon="9.1026339"><ele>278.0</ele><time>2026-03-21T11:02:39.132Z</time></trkpt><trkpt lat="44.901707" lon="9.1024835"><ele>275.5</ele><time>2026-03-21T11:02:40.132Z</time></trkpt><trkpt lat="44.9016411" lon="9.102347"><ele>273.0</ele><time>2026-03-21T11:02:41.131Z</time></trkpt><trkpt lat="44.9015497" lon="9.1022196"><ele>273.0</ele><time>2026-03-21T11:02:42.132Z</time></trkpt><trkpt lat="44.9014467" lon="9.1021046"><ele>273.0</ele><time>2026-03-21T11:02:43.131Z</time></trkpt><trkpt lat="44.9013288" lon="9.1019915"><ele>273.0</ele><time>2026-03-21T11:02:44.132Z</time></trkpt><trkpt lat="44.9012033" lon="9.1018874"><ele>273.0</ele><time>2026-03-21T11:02:45.132Z</time></trkpt><trkpt lat="44.9010749" lon="9.1017973"><ele>273.0</ele><time>2026-03-21T11:02:46.132Z</time></trkpt><trkpt lat="44.9009421" lon="9.1017254"><ele>273.0</ele><time>2026-03-21T11:02:47.131Z</time></trkpt><trkpt lat="44.9008141" lon="9.1016801"><ele>273.0</ele><time>2026-03-21T11:02:48.131Z</time></trkpt><trkpt lat="44.9006802" lon="9.1016472"><ele>273.0</ele><time>2026-03-21T11:02:49.132Z</time></trkpt><trkpt lat="44.900547" lon="9.101594"><ele>270.25</ele><time>2026-03-21T11:02:50.131Z</time></trkpt><trkpt lat="44.9004215" lon="9.1015118"><ele>267.5</ele><time>2026-03-21T11:02:51.132Z</time></trkpt><trkpt lat="44.9003041" lon="9.101397"><ele>264.75</ele><time>2026-03-21T11:02:52.131Z</time></trkpt><trkpt lat="44.9002032" lon="9.1012458"><ele>262.0</ele><time>2026-03-21T11:02:53.132Z</time></trkpt><trkpt lat="44.9001322" lon="9.1010573"><ele>262.0</ele><time>2026-03-21T11:02:54.131Z</time></trkpt><trkpt lat="44.9000928" lon="9.1008515"><ele>262.0</ele><time>2026-03-21T11:02:55.132Z</time></trkpt><trkpt lat="44.9000449" lon="9.1006435"><ele>262.0</ele><time>2026-03-21T11:02:56.132Z</time></trkpt><trkpt lat="44.8999651" lon="9.1004541"><ele>258.66666666666663</ele><time>2026-03-21T11:02:57.132Z</time></trkpt><trkpt lat="44.8998568" lon="9.1003001"><ele>255.33333333333331</ele><time>2026-03-21T11:02:58.132Z</time></trkpt><trkpt lat="44.8997466" lon="9.1001326"><ele>252.0</ele><time>2026-03-21T11:02:59.131Z</time></trkpt><trkpt lat="44.8996602" lon="9.0999353"><ele>252.33333333333331</ele><time>2026-03-21T11:03:00.132Z</time></trkpt><trkpt lat="44.8995916" lon="9.099714"><ele>252.66666666666666</ele><time>2026-03-21T11:03:01.131Z</time></trkpt><trkpt lat="44.8995318" lon="9.0994818"><ele>253.0</ele><time>2026-03-21T11:03:02.131Z</time></trkpt><trkpt lat="44.8994652" lon="9.0992481"><ele>250.33333333333331</ele><time>2026-03-21T11:03:03.131Z</time></trkpt><trkpt lat="44.8993967" lon="9.0990113"><ele>247.66666666666669</ele><time>2026-03-21T11:03:04.131Z</time></trkpt><trkpt lat="44.8993241" lon="9.0987766"><ele>245.0</ele><time>2026-03-21T11:03:05.132Z</time></trkpt><trkpt lat="44.8992359" lon="9.0985476"><ele>245.0</ele><time>2026-03-21T11:03:06.131Z</time></trkpt><trkpt lat="44.8991373" lon="9.0983307"><ele>245.0</ele><time>2026-03-21T11:03:07.132Z</time></trkpt><trkpt lat="44.8990274" lon="9.0981171"><ele>245.0</ele><time>2026-03-21T11:03:08.131Z</time></trkpt><trkpt lat="44.8989128" lon="9.0979116"><ele>247.0</ele><time>2026-03-21T11:03:09.132Z</time></trkpt><trkpt lat="44.8987996" lon="9.0976966"><ele>249.0</ele><time>2026-03-21T11:03:10.131Z</time></trkpt><trkpt lat="44.8986865" lon="9.0974876"><ele>251.0</ele><time>2026-03-21T11:03:11.132Z</time></trkpt><trkpt lat="44.8985816" lon="9.0972832"><ele>248.33333333333334</ele><time>2026-03-21T11:03:12.132Z</time></trkpt><trkpt lat="44.8984899" lon="9.0970889"><ele>245.66666666666669</ele><time>2026-03-21T11:03:13.132Z</time></trkpt><trkpt lat="44.8984156" lon="9.0969022"><ele>243.0</ele><time>2026-03-21T11:03:14.132Z</time></trkpt><trkpt lat="44.8983685" lon="9.0967133"><ele>243.5</ele><time>2026-03-21T11:03:15.131Z</time></trkpt><trkpt lat="44.8983512" lon="9.0965161"><ele>244.0</ele><time>2026-03-21T11:03:16.132Z</time></trkpt><trkpt lat="44.8983619" lon="9.0963116"><ele>244.5</ele><time>2026-03-21T11:03:17.132Z</time></trkpt><trkpt lat="44.8983727" lon="9.0961015"><ele>245.0</ele><time>2026-03-21T11:03:18.132Z</time></trkpt><trkpt lat="44.8983592" lon="9.0958852"><ele>249.0</ele><time>2026-03-21T11:03:19.132Z</time></trkpt><trkpt lat="44.8983076" lon="9.0956751"><ele>253.0</ele><time>2026-03-21T11:03:20.131Z</time></trkpt><trkpt lat="44.8982243" lon="9.0954781"><ele>257.0</ele><time>2026-03-21T11:03:21.131Z</time></trkpt><trkpt lat="44.8981237" lon="9.0952856"><ele>257.0</ele><time>2026-03-21T11:03:22.131Z</time></trkpt><trkpt lat="44.8980174" lon="9.095088"><ele>257.0</ele><time>2026-03-21T11:03:23.132Z</time></trkpt><trkpt lat="44.8979118" lon="9.0948803"><ele>257.0</ele><time>2026-03-21T11:03:24.132Z</time></trkpt><trkpt lat="44.897808" lon="9.094663"><ele>261.33333333333337</ele><time>2026-03-21T11:03:25.132Z</time></trkpt><trkpt lat="44.8977039" lon="9.0944483"><ele>265.6666666666667</ele><time>2026-03-21T11:03:26.132Z</time></trkpt><trkpt lat="44.8975878" lon="9.0942591"><ele>270.0</ele><time>2026-03-21T11:03:27.132Z</time></trkpt><trkpt lat="44.8974602" lon="9.0941104"><ele>265.25</ele><time>2026-03-21T11:03:28.131Z</time></trkpt><trkpt lat="44.8973307" lon="9.0939953"><ele>260.5</ele><time>2026-03-21T11:03:29.131Z</time></trkpt><trkpt lat="44.8972081" lon="9.0938931"><ele>255.75</ele><time>2026-03-21T11:03:30.131Z</time></trkpt><trkpt lat="44.8971101" lon="9.0937725"><ele>251.0</ele><time>2026-03-21T11:03:31.131Z</time></trkpt><trkpt lat="44.8970534" lon="9.0936295"><ele>251.0</ele><time>2026-03-21T11:03:32.131Z</time></trkpt><trkpt lat="44.8970269" lon="9.0934594"><ele>251.0</ele><time>2026-03-21T11:03:33.132Z</time></trkpt><trkpt lat="44.8970306" lon="9.0932682"><ele>251.0</ele><time>2026-03-21T11:03:34.131Z</time></trkpt><trkpt lat="44.8970392" lon="9.093061"><ele>251.0</ele><time>2026-03-21T11:03:35.132Z</time></trkpt><trkpt lat="44.8970494" lon="9.0928394"><ele>248.66666666666669</ele><time>2026-03-21T11:03:36.131Z</time></trkpt><trkpt lat="44.8970629" lon="9.0926045"><ele>246.33333333333331</ele><time>2026-03-21T11:03:37.132Z</time></trkpt><trkpt lat="44.8970778" lon="9.0923617"><ele>244.0</ele><time>2026-03-21T11:03:38.131Z</time></trkpt><trkpt lat="44.8970949" lon="9.0921118"><ele>242.33333333333331</ele><time>2026-03-21T11:03:39.132Z</time></trkpt><trkpt lat="44.8971272" lon="9.0918598"><ele>240.66666666666669</ele><time>2026-03-21T11:03:40.132Z</time></trkpt><trkpt lat="44.897175" lon="9.0916087"><ele>239.0</ele><time>2026-03-21T11:03:41.132Z</time></trkpt><trkpt lat="44.8972374" lon="9.0913587"><ele>239.0</ele><time>2026-03-21T11:03:42.132Z</time></trkpt><trkpt lat="44.8972892" lon="9.0911127"><ele>239.0</ele><time>2026-03-21T11:03:43.132Z</time></trkpt><trkpt lat="44.8973213" lon="9.0908627"><ele>239.0</ele><time>2026-03-21T11:03:44.132Z</time></trkpt><trkpt lat="44.8973315" lon="9.090607"><ele>238.66666666666669</ele><time>2026-03-21T11:03:45.132Z</time></trkpt><trkpt lat="44.8973246" lon="9.0903604"><ele>238.33333333333331</ele><time>2026-03-21T11:03:46.131Z</time></trkpt><trkpt lat="44.8973003" lon="9.0901326"><ele>238.0</ele><time>2026-03-21T11:03:47.131Z</time></trkpt><trkpt lat="44.8972371" lon="9.0899229"><ele>238.0</ele><time>2026-03-21T11:03:48.132Z</time></trkpt><trkpt lat="44.8971534" lon="9.0897356"><ele>238.0</ele><time>2026-03-21T11:03:49.132Z</time></trkpt><trkpt lat="44.8971047" lon="9.0896261"><ele>238.0</ele><time>2026-03-21T11:03:50.131Z</time></trkpt><trkpt lat="44.8970488" lon="9.0895659"><ele>238.0</ele><time>2026-03-21T11:03:59.132Z</time></trkpt><trkpt lat="44.8970025" lon="9.0896632"><ele>238.0</ele><time>2026-03-21T11:04:08.131Z</time></trkpt><trkpt lat="44.8969222" lon="9.0897512"><ele>238.0</ele><time>2026-03-21T11:04:10.132Z</time></trkpt><trkpt lat="44.896848" lon="9.0898181"><ele>238.0</ele><time>2026-03-21T11:05:25.132Z</time></trkpt><trkpt lat="44.8967371" lon="9.0898701"><ele>238.0</ele><time>2026-03-21T11:05:27.132Z</time></trkpt><trkpt lat="44.8966206" lon="9.0899234"><ele>238.0</ele><time>2026-03-21T11:05:29.131Z</time></trkpt><trkpt lat="44.8965549" lon="9.0899592"><ele>238.0</ele><time>2026-03-21T11:05:30.131Z</time></trkpt><trkpt lat="44.8964883" lon="9.090003"><ele>236.83333333333331</ele><time>2026-03-21T11:05:31.132Z</time></trkpt><trkpt lat="44.8964201" lon="9.0900545"><ele>235.66666666666666</ele><time>2026-03-21T11:05:32.132Z</time></trkpt><trkpt lat="44.8963479" lon="9.0901218"><ele>234.5</ele><time>2026-03-21T11:05:33.131Z</time></trkpt><trkpt lat="44.8962731" lon="9.0901961"><ele>233.33333333333331</ele><time>2026-03-21T11:05:34.132Z</time></trkpt><trkpt lat="44.8962084" lon="9.0902519"><ele>232.16666666666666</ele><time>2026-03-21T11:05:35.132Z</time></trkpt><trkpt lat="44.8961525" lon="9.0903008"><ele>231.0</ele><time>2026-03-21T11:05:36.132Z</time></trkpt><trkpt lat="44.8960922" lon="9.0903341"><ele>231.0</ele><time>2026-03-21T11:05:37.131Z</time></trkpt><trkpt lat="44.895976" lon="9.0903022"><ele>231.0</ele><time>2026-03-21T11:05:39.132Z</time></trkpt><trkpt lat="44.895929" lon="9.0902386"><ele>231.0</ele><time>2026-03-21T11:05:40.131Z</time></trkpt><trkpt lat="44.8958835" lon="9.0901531"><ele>231.0</ele><time>2026-03-21T11:05:41.131Z</time></trkpt><trkpt lat="44.8958397" lon="9.0900585"><ele>231.0</ele><time>2026-03-21T11:05:42.131Z</time></trkpt><trkpt lat="44.8957926" lon="9.0899741"><ele>231.0</ele><time>2026-03-21T11:05:43.131Z</time></trkpt><trkpt lat="44.8957437" lon="9.0899127"><ele>230.83333333333334</ele><time>2026-03-21T11:05:44.132Z</time></trkpt><trkpt lat="44.8956447" lon="9.0898708"><ele>230.66666666666669</ele><time>2026-03-21T11:05:46.131Z</time></trkpt><trkpt lat="44.8955745" lon="9.0899324"><ele>230.5</ele><time>2026-03-21T11:05:48.131Z</time></trkpt><trkpt lat="44.895538" lon="9.0900157"><ele>230.33333333333334</ele><time>2026-03-21T11:05:49.132Z</time></trkpt><trkpt lat="44.8955178" lon="9.0901229"><ele>230.16666666666669</ele><time>2026-03-21T11:05:50.131Z</time></trkpt><trkpt lat="44.8954968" lon="9.0902498"><ele>230.0</ele><time>2026-03-21T11:05:51.131Z</time></trkpt><trkpt lat="44.8954806" lon="9.0903735"><ele>231.4</ele><time>2026-03-21T11:05:52.132Z</time></trkpt><trkpt lat="44.8954576" lon="9.0905093"><ele>232.8</ele><time>2026-03-21T11:05:53.131Z</time></trkpt><trkpt lat="44.8954232" lon="9.0906377"><ele>234.2</ele><time>2026-03-21T11:05:54.132Z</time></trkpt><trkpt lat="44.8953784" lon="9.0907764"><ele>235.6</ele><time>2026-03-21T11:05:55.131Z</time></trkpt><trkpt lat="44.8953309" lon="9.0909282"><ele>237.0</ele><time>2026-03-21T11:05:56.131Z</time></trkpt><trkpt lat="44.8952791" lon="9.0910691"><ele>237.75</ele><time>2026-03-21T11:05:57.131Z</time></trkpt><trkpt lat="44.895235" lon="9.0912206"><ele>238.5</ele><time>2026-03-21T11:05:58.131Z</time></trkpt><trkpt lat="44.8951914" lon="9.0913766"><ele>239.25</ele><time>2026-03-21T11:05:59.131Z</time></trkpt><trkpt lat="44.8951536" lon="9.09156"><ele>240.0</ele><time>2026-03-21T11:06:00.132Z</time></trkpt><trkpt lat="44.8951163" lon="9.0917237"><ele>241.6</ele><time>2026-03-21T11:06:01.131Z</time></trkpt><trkpt lat="44.8950789" lon="9.0918751"><ele>243.2</ele><time>2026-03-21T11:06:02.131Z</time></trkpt><trkpt lat="44.8950277" lon="9.0920067"><ele>244.8</ele><time>2026-03-21T11:06:03.132Z</time></trkpt><trkpt lat="44.894977" lon="9.0921239"><ele>246.4</ele><time>2026-03-21T11:06:04.132Z</time></trkpt><trkpt lat="44.8949118" lon="9.0922579"><ele>248.0</ele><time>2026-03-21T11:06:05.132Z</time></trkpt><trkpt lat="44.8948532" lon="9.0923916"><ele>248.2</ele><time>2026-03-21T11:06:06.131Z</time></trkpt><trkpt lat="44.8948082" lon="9.0925238"><ele>248.4</ele><time>2026-03-21T11:06:07.131Z</time></trkpt><trkpt lat="44.8947727" lon="9.0926502"><ele>248.59999999999997</ele><time>2026-03-21T11:06:08.132Z</time></trkpt><trkpt lat="44.8947389" lon="9.0927906"><ele>248.79999999999998</ele><time>2026-03-21T11:06:09.131Z</time></trkpt><trkpt lat="44.8947118" lon="9.0929475"><ele>249.0</ele><time>2026-03-21T11:06:10.131Z</time></trkpt><trkpt lat="44.894689" lon="9.0930852"><ele>249.0</ele><time>2026-03-21T11:06:11.131Z</time></trkpt><trkpt lat="44.8946661" lon="9.0932006"><ele>249.0</ele><time>2026-03-21T11:06:12.131Z</time></trkpt><trkpt lat="44.8946325" lon="9.0932841"><ele>249.0</ele><time>2026-03-21T11:06:13.132Z</time></trkpt><trkpt lat="44.8945336" lon="9.0933718"><ele>249.0</ele><time>2026-03-21T11:06:15.132Z</time></trkpt><trkpt lat="44.8944644" lon="9.0933853"><ele>249.0</ele><time>2026-03-21T11:06:16.132Z</time></trkpt><trkpt lat="44.8943813" lon="9.0933817"><ele>249.0</ele><time>2026-03-21T11:06:17.131Z</time></trkpt><trkpt lat="44.894298" lon="9.0933874"><ele>251.2</ele><time>2026-03-21T11:06:18.131Z</time></trkpt><trkpt lat="44.8942094" lon="9.0934033"><ele>253.39999999999998</ele><time>2026-03-21T11:06:19.131Z</time></trkpt><trkpt lat="44.8941265" lon="9.0934265"><ele>255.6</ele><time>2026-03-21T11:06:20.131Z</time></trkpt><trkpt lat="44.8940338" lon="9.0934726"><ele>257.8</ele><time>2026-03-21T11:06:21.131Z</time></trkpt><trkpt lat="44.8939453" lon="9.0935245"><ele>260.0</ele><time>2026-03-21T11:06:22.132Z</time></trkpt><trkpt lat="44.8938608" lon="9.0935675"><ele>260.0</ele><time>2026-03-21T11:06:23.131Z</time></trkpt><trkpt lat="44.8937724" lon="9.0936098"><ele>260.0</ele><time>2026-03-21T11:06:24.132Z</time></trkpt><trkpt lat="44.8936953" lon="9.0936516"><ele>260.0</ele><time>2026-03-21T11:06:25.132Z</time></trkpt><trkpt lat="44.8936143" lon="9.0937"><ele>260.0</ele><time>2026-03-21T11:06:26.131Z</time></trkpt><trkpt lat="44.8935214" lon="9.0937621"><ele>260.0</ele><time>2026-03-21T11:06:27.132Z</time></trkpt><trkpt lat="44.8934391" lon="9.0938113"><ele>260.5</ele><time>2026-03-21T11:06:28.131Z</time></trkpt><trkpt lat="44.8933578" lon="9.0938559"><ele>261.0</ele><time>2026-03-21T11:06:29.131Z</time></trkpt><trkpt lat="44.8932764" lon="9.0938776"><ele>261.5</ele><time>2026-03-21T11:06:30.132Z</time></trkpt><trkpt lat="44.8931936" lon="9.0938817"><ele>262.0</ele><time>2026-03-21T11:06:31.131Z</time></trkpt><trkpt lat="44.8931081" lon="9.0938696"><ele>262.5</ele><time>2026-03-21T11:06:32.132Z</time></trkpt><trkpt lat="44.8930257" lon="9.0938437"><ele>263.0</ele><time>2026-03-21T11:06:33.131Z</time></trkpt><trkpt lat="44.8929373" lon="9.0938049"><ele>263.0</ele><time>2026-03-21T11:06:34.132Z</time></trkpt><trkpt lat="44.8928459" lon="9.0937625"><ele>263.0</ele><time>2026-03-21T11:06:35.132Z</time></trkpt><trkpt lat="44.8927459" lon="9.0937153"><ele>263.0</ele><time>2026-03-21T11:06:36.131Z</time></trkpt><trkpt lat="44.8926534" lon="9.0936562"><ele>263.0</ele><time>2026-03-21T11:06:37.132Z</time></trkpt><trkpt lat="44.8925765" lon="9.0935991"><ele>263.0</ele><time>2026-03-21T11:06:38.132Z</time></trkpt><trkpt lat="44.8925066" lon="9.0935602"><ele>263.6666666666667</ele><time>2026-03-21T11:06:39.132Z</time></trkpt><trkpt lat="44.892416" lon="9.0935503"><ele>264.33333333333337</ele><time>2026-03-21T11:06:41.132Z</time></trkpt><trkpt lat="44.8923965" lon="9.093683"><ele>265.0</ele><time>2026-03-21T11:06:44.131Z</time></trkpt><trkpt lat="44.8924263" lon="9.0937619"><ele>265.6666666666667</ele><time>2026-03-21T11:06:45.131Z</time></trkpt><trkpt lat="44.8924503" lon="9.0938505"><ele>266.3333333333333</ele><time>2026-03-21T11:06:46.131Z</time></trkpt><trkpt lat="44.8924371" lon="9.0940119"><ele>267.0</ele><time>2026-03-21T11:06:48.132Z</time></trkpt><trkpt lat="44.8923931" lon="9.0940776"><ele>268.0</ele><time>2026-03-21T11:06:49.131Z</time></trkpt><trkpt lat="44.8923204" lon="9.0941364"><ele>269.0</ele><time>2026-03-21T11:06:50.129Z</time></trkpt><trkpt lat="44.8922347" lon="9.0941961"><ele>270.0</ele><time>2026-03-21T11:06:51.131Z</time></trkpt><trkpt lat="44.892139" lon="9.0942763"><ele>271.0</ele><time>2026-03-21T11:06:52.132Z</time></trkpt><trkpt lat="44.8920488" lon="9.0943769"><ele>272.0</ele><time>2026-03-21T11:06:53.132Z</time></trkpt><trkpt lat="44.8919687" lon="9.094483"><ele>272.0</ele><time>2026-03-21T11:06:54.131Z</time></trkpt><trkpt lat="44.8919047" lon="9.0945796"><ele>272.0</ele><time>2026-03-21T11:06:55.131Z</time></trkpt><trkpt lat="44.891822" lon="9.0946558"><ele>272.0</ele><time>2026-03-21T11:06:56.131Z</time></trkpt><trkpt lat="44.8917325" lon="9.0946977"><ele>272.0</ele><time>2026-03-21T11:06:57.131Z</time></trkpt><trkpt lat="44.8916438" lon="9.0947109"><ele>272.0</ele><time>2026-03-21T11:06:58.132Z</time></trkpt><trkpt lat="44.8915598" lon="9.094704"><ele>273.6666666666667</ele><time>2026-03-21T11:06:59.131Z</time></trkpt><trkpt lat="44.8914727" lon="9.0946869"><ele>275.33333333333337</ele><time>2026-03-21T11:07:00.131Z</time></trkpt><trkpt lat="44.8913926" lon="9.0946694"><ele>277.0</ele><time>2026-03-21T11:07:01.132Z</time></trkpt><trkpt lat="44.8913157" lon="9.094654"><ele>278.6666666666667</ele><time>2026-03-21T11:07:02.131Z</time></trkpt><trkpt lat="44.8912487" lon="9.0946494"><ele>280.3333333333333</ele><time>2026-03-21T11:07:03.132Z</time></trkpt><trkpt lat="44.8911384" lon="9.0946936"><ele>282.0</ele><time>2026-03-21T11:07:05.132Z</time></trkpt><trkpt lat="44.8910814" lon="9.0947586"><ele>282.0</ele><time>2026-03-21T11:07:06.131Z</time></trkpt><trkpt lat="44.8910102" lon="9.0948418"><ele>282.0</ele><time>2026-03-21T11:07:07.132Z</time></trkpt><trkpt lat="44.8909316" lon="9.0949371"><ele>282.0</ele><time>2026-03-21T11:07:08.131Z</time></trkpt><trkpt lat="44.8908527" lon="9.0950568"><ele>282.0</ele><time>2026-03-21T11:07:09.131Z</time></trkpt><trkpt lat="44.8907788" lon="9.0951936"><ele>282.0</ele><time>2026-03-21T11:07:10.131Z</time></trkpt><trkpt lat="44.8907069" lon="9.0953512"><ele>285.25</ele><time>2026-03-21T11:07:11.131Z</time></trkpt><trkpt lat="44.8906414" lon="9.0955252"><ele>288.5</ele><time>2026-03-21T11:07:12.132Z</time></trkpt><trkpt lat="44.8905841" lon="9.0956968"><ele>291.75</ele><time>2026-03-21T11:07:13.131Z</time></trkpt><trkpt lat="44.8905395" lon="9.0958519"><ele>295.0</ele><time>2026-03-21T11:07:14.132Z</time></trkpt><trkpt lat="44.8904971" lon="9.0959912"><ele>295.3333333333333</ele><time>2026-03-21T11:07:15.132Z</time></trkpt><trkpt lat="44.8904549" lon="9.0961053"><ele>295.66666666666663</ele><time>2026-03-21T11:07:16.131Z</time></trkpt><trkpt lat="44.8904067" lon="9.0962072"><ele>296.0</ele><time>2026-03-21T11:07:17.132Z</time></trkpt><trkpt lat="44.8903503" lon="9.0962844"><ele>296.3333333333333</ele><time>2026-03-21T11:07:18.131Z</time></trkpt><trkpt lat="44.8902799" lon="9.0963495"><ele>296.6666666666667</ele><time>2026-03-21T11:07:19.132Z</time></trkpt><trkpt lat="44.890211" lon="9.0964031"><ele>297.0</ele><time>2026-03-21T11:07:20.131Z</time></trkpt><trkpt lat="44.8901383" lon="9.0964487"><ele>299.42857142857144</ele><time>2026-03-21T11:07:21.131Z</time></trkpt><trkpt lat="44.8900672" lon="9.0964734"><ele>301.8571428571429</ele><time>2026-03-21T11:07:22.132Z</time></trkpt><trkpt lat="44.8899978" lon="9.0964813"><ele>304.2857142857143</ele><time>2026-03-21T11:07:23.131Z</time></trkpt><trkpt lat="44.8899304" lon="9.0964662"><ele>306.7142857142857</ele><time>2026-03-21T11:07:24.132Z</time></trkpt><trkpt lat="44.8898672" lon="9.0964236"><ele>309.1428571428571</ele><time>2026-03-21T11:07:25.132Z</time></trkpt><trkpt lat="44.889812" lon="9.0963576"><ele>311.57142857142856</ele><time>2026-03-21T11:07:26.131Z</time></trkpt><trkpt lat="44.8897695" lon="9.0962821"><ele>314.0</ele><time>2026-03-21T11:07:27.132Z</time></trkpt><trkpt lat="44.8897415" lon="9.0961249"><ele>314.0</ele><time>2026-03-21T11:07:29.132Z</time></trkpt><trkpt lat="44.8897477" lon="9.0960327"><ele>314.0</ele><time>2026-03-21T11:07:30.132Z</time></trkpt><trkpt lat="44.8897651" lon="9.0959281"><ele>314.0</ele><time>2026-03-21T11:07:31.131Z</time></trkpt><trkpt lat="44.8897854" lon="9.0958178"><ele>314.0</ele><time>2026-03-21T11:07:32.132Z</time></trkpt><trkpt lat="44.8898094" lon="9.0957045"><ele>314.0</ele><time>2026-03-21T11:07:33.132Z</time></trkpt><trkpt lat="44.8898294" lon="9.0955874"><ele>314.0</ele><time>2026-03-21T11:07:34.132Z</time></trkpt><trkpt lat="44.8898422" lon="9.0954785"><ele>313.83333333333337</ele><time>2026-03-21T11:07:35.132Z</time></trkpt><trkpt lat="44.8898413" lon="9.095372"><ele>313.6666666666667</ele><time>2026-03-21T11:07:36.132Z</time></trkpt><trkpt lat="44.8897851" lon="9.0952275"><ele>313.5</ele><time>2026-03-21T11:07:38.131Z</time></trkpt><trkpt lat="44.8897358" lon="9.0951598"><ele>313.3333333333333</ele><time>2026-03-21T11:07:39.131Z</time></trkpt><trkpt lat="44.88967" lon="9.0950926"><ele>313.16666666666663</ele><time>2026-03-21T11:07:40.131Z</time></trkpt><trkpt lat="44.8896089" lon="9.0950383"><ele>313.0</ele><time>2026-03-21T11:07:41.131Z</time></trkpt><trkpt lat="44.8895023" lon="9.0950192"><ele>313.0</ele><time>2026-03-21T11:07:43.132Z</time></trkpt><trkpt lat="44.8894021" lon="9.0951238"><ele>313.0</ele><time>2026-03-21T11:07:45.132Z</time></trkpt><trkpt lat="44.8893347" lon="9.0951975"><ele>313.0</ele><time>2026-03-21T11:07:46.132Z</time></trkpt><trkpt lat="44.8892603" lon="9.0952526"><ele>313.0</ele><time>2026-03-21T11:07:47.131Z</time></trkpt><trkpt lat="44.8891964" lon="9.0953152"><ele>313.0</ele><time>2026-03-21T11:07:48.132Z</time></trkpt><trkpt lat="44.889138" lon="9.0953946"><ele>315.75</ele><time>2026-03-21T11:07:49.132Z</time></trkpt><trkpt lat="44.8890796" lon="9.0955128"><ele>318.5</ele><time>2026-03-21T11:07:50.132Z</time></trkpt><trkpt lat="44.8890206" lon="9.0956468"><ele>321.25</ele><time>2026-03-21T11:07:51.131Z</time></trkpt><trkpt lat="44.8889484" lon="9.0958371"><ele>324.0</ele><time>2026-03-21T11:07:52.131Z</time></trkpt><trkpt lat="44.8888809" lon="9.0959777"><ele>326.0</ele><time>2026-03-21T11:07:53.132Z</time></trkpt><trkpt lat="44.8888083" lon="9.0961028"><ele>328.0</ele><time>2026-03-21T11:07:54.131Z</time></trkpt><trkpt lat="44.8887336" lon="9.0962198"><ele>330.0</ele><time>2026-03-21T11:07:55.131Z</time></trkpt><trkpt lat="44.8886541" lon="9.0963082"><ele>332.0</ele><time>2026-03-21T11:07:56.131Z</time></trkpt><trkpt lat="44.8885565" lon="9.0963875"><ele>334.0</ele><time>2026-03-21T11:07:57.131Z</time></trkpt><trkpt lat="44.8884422" lon="9.0964707"><ele>336.25</ele><time>2026-03-21T11:07:58.132Z</time></trkpt><trkpt lat="44.8883326" lon="9.096548"><ele>338.5</ele><time>2026-03-21T11:07:59.132Z</time></trkpt><trkpt lat="44.8882325" lon="9.096626"><ele>340.75</ele><time>2026-03-21T11:08:00.131Z</time></trkpt><trkpt lat="44.8881327" lon="9.0967199"><ele>343.0</ele><time>2026-03-21T11:08:01.132Z</time></trkpt><trkpt lat="44.8880469" lon="9.0968197"><ele>344.0</ele><time>2026-03-21T11:08:02.131Z</time></trkpt><trkpt lat="44.8879829" lon="9.0969208"><ele>345.0</ele><time>2026-03-21T11:08:03.132Z</time></trkpt><trkpt lat="44.8879272" lon="9.097039"><ele>346.0</ele><time>2026-03-21T11:08:04.132Z</time></trkpt><trkpt lat="44.8878994" lon="9.0971695"><ele>347.0</ele><time>2026-03-21T11:08:05.131Z</time></trkpt><trkpt lat="44.8878798" lon="9.0973215"><ele>348.0</ele><time>2026-03-21T11:08:06.132Z</time></trkpt><trkpt lat="44.8878661" lon="9.0974503"><ele>348.0</ele><time>2026-03-21T11:08:07.132Z</time></trkpt><trkpt lat="44.8878504" lon="9.0975558"><ele>348.0</ele><time>2026-03-21T11:08:08.132Z</time></trkpt><trkpt lat="44.8877853" lon="9.0976853"><ele>348.0</ele><time>2026-03-21T11:08:10.132Z</time></trkpt><trkpt lat="44.8876937" lon="9.0976657"><ele>348.0</ele><time>2026-03-21T11:08:12.131Z</time></trkpt><trkpt lat="44.8876662" lon="9.0975168"><ele>348.0</ele><time>2026-03-21T11:08:14.132Z</time></trkpt><trkpt lat="44.8876638" lon="9.0974118"><ele>348.2</ele><time>2026-03-21T11:08:15.132Z</time></trkpt><trkpt lat="44.8876465" lon="9.0973038"><ele>348.4</ele><time>2026-03-21T11:08:16.132Z</time></trkpt><trkpt lat="44.8876152" lon="9.0971937"><ele>348.59999999999997</ele><time>2026-03-21T11:08:17.132Z</time></trkpt><trkpt lat="44.8875668" lon="9.0970811"><ele>348.79999999999995</ele><time>2026-03-21T11:08:18.132Z</time></trkpt><trkpt lat="44.8874993" lon="9.096966"><ele>349.0</ele><time>2026-03-21T11:08:19.131Z</time></trkpt><trkpt lat="44.8874139" lon="9.0968457"><ele>350.6</ele><time>2026-03-21T11:08:20.132Z</time></trkpt><trkpt lat="44.8873209" lon="9.0967354"><ele>352.2</ele><time>2026-03-21T11:08:21.132Z</time></trkpt><trkpt lat="44.887234" lon="9.0966419"><ele>353.8</ele><time>2026-03-21T11:08:22.132Z</time></trkpt><trkpt lat="44.8871558" lon="9.0965666"><ele>355.40000000000003</ele><time>2026-03-21T11:08:23.132Z</time></trkpt><trkpt lat="44.8870735" lon="9.0965006"><ele>357.0</ele><time>2026-03-21T11:08:24.132Z</time></trkpt><trkpt lat="44.886994" lon="9.0964615"><ele>357.0</ele><time>2026-03-21T11:08:25.131Z</time></trkpt><trkpt lat="44.8869306" lon="9.096446"><ele>357.0</ele><time>2026-03-21T11:08:26.131Z</time></trkpt><trkpt lat="44.8868533" lon="9.096491"><ele>357.0</ele><time>2026-03-21T11:08:28.132Z</time></trkpt><trkpt lat="44.8868381" lon="9.0966646"><ele>357.0</ele><time>2026-03-21T11:08:30.132Z</time></trkpt><trkpt lat="44.8868619" lon="9.0967907"><ele>357.0</ele><time>2026-03-21T11:08:31.131Z</time></trkpt><trkpt lat="44.886892" lon="9.0969454"><ele>359.5</ele><time>2026-03-21T11:08:32.131Z</time></trkpt><trkpt lat="44.8869261" lon="9.0971208"><ele>362.0</ele><time>2026-03-21T11:08:33.132Z</time></trkpt><trkpt lat="44.8869608" lon="9.0972845"><ele>364.5</ele><time>2026-03-21T11:08:34.131Z</time></trkpt><trkpt lat="44.8869925" lon="9.0974381"><ele>367.0</ele><time>2026-03-21T11:08:35.132Z</time></trkpt><trkpt lat="44.8870159" lon="9.0975948"><ele>367.8</ele><time>2026-03-21T11:08:36.131Z</time></trkpt><trkpt lat="44.8870285" lon="9.097744"><ele>368.6</ele><time>2026-03-21T11:08:37.131Z</time></trkpt><trkpt lat="44.8870281" lon="9.0978674"><ele>369.40000000000003</ele><time>2026-03-21T11:08:38.132Z</time></trkpt><trkpt lat="44.8870167" lon="9.09796"><ele>370.20000000000005</ele><time>2026-03-21T11:08:39.131Z</time></trkpt><trkpt lat="44.8869375" lon="9.098044"><ele>371.0</ele><time>2026-03-21T11:08:41.131Z</time></trkpt><trkpt lat="44.8868296" lon="9.0979793"><ele>371.0</ele><time>2026-03-21T11:08:43.131Z</time></trkpt><trkpt lat="44.8867957" lon="9.0978818"><ele>371.0</ele><time>2026-03-21T11:08:44.132Z</time></trkpt><trkpt lat="44.886756" lon="9.0977842"><ele>371.0</ele><time>2026-03-21T11:08:45.131Z</time></trkpt><trkpt lat="44.8867188" lon="9.0976868"><ele>371.0</ele><time>2026-03-21T11:08:46.131Z</time></trkpt><trkpt lat="44.8866794" lon="9.0976139"><ele>371.0</ele><time>2026-03-21T11:08:47.131Z</time></trkpt><trkpt lat="44.8866283" lon="9.0975524"><ele>371.0</ele><time>2026-03-21T11:08:48.132Z</time></trkpt><trkpt lat="44.886513" lon="9.0975409"><ele>375.6</ele><time>2026-03-21T11:08:50.131Z</time></trkpt><trkpt lat="44.8864623" lon="9.0976707"><ele>380.20000000000005</ele><time>2026-03-21T11:08:52.131Z</time></trkpt><trkpt lat="44.8864606" lon="9.097857"><ele>384.79999999999995</ele><time>2026-03-21T11:08:54.132Z</time></trkpt><trkpt lat="44.8864333" lon="9.0979414"><ele>389.4</ele><time>2026-03-21T11:08:55.132Z</time></trkpt><trkpt lat="44.886339" lon="9.0980419"><ele>394.0</ele><time>2026-03-21T11:08:57.131Z</time></trkpt><trkpt lat="44.8862627" lon="9.0980532"><ele>394.0</ele><time>2026-03-21T11:08:58.132Z</time></trkpt><trkpt lat="44.8861658" lon="9.0980312"><ele>394.0</ele><time>2026-03-21T11:08:59.132Z</time></trkpt><trkpt lat="44.8860518" lon="9.0979961"><ele>394.0</ele><time>2026-03-21T11:09:00.131Z</time></trkpt><trkpt lat="44.8859256" lon="9.0979528"><ele>394.0</ele><time>2026-03-21T11:09:01.131Z</time></trkpt><trkpt lat="44.8858024" lon="9.0979143"><ele>397.6</ele><time>2026-03-21T11:09:02.131Z</time></trkpt><trkpt lat="44.8856991" lon="9.097878"><ele>401.2</ele><time>2026-03-21T11:09:03.132Z</time></trkpt><trkpt lat="44.8856141" lon="9.0978512"><ele>404.8</ele><time>2026-03-21T11:09:04.132Z</time></trkpt><trkpt lat="44.8855212" lon="9.0978197"><ele>408.40000000000003</ele><time>2026-03-21T11:09:06.131Z</time></trkpt><trkpt lat="44.8854381" lon="9.0978194"><ele>412.0</ele><time>2026-03-21T11:10:40.132Z</time></trkpt><trkpt lat="44.8853261" lon="9.097784"><ele>412.00000000000006</ele><time>2026-03-21T11:10:42.132Z</time></trkpt><trkpt lat="44.8852558" lon="9.0977676"><ele>412.0</ele><time>2026-03-21T11:10:43.132Z</time></trkpt><trkpt lat="44.8851759" lon="9.0977431"><ele>412.0</ele><time>2026-03-21T11:10:44.132Z</time></trkpt><trkpt lat="44.8850864" lon="9.0977331"><ele>412.0</ele><time>2026-03-21T11:10:45.131Z</time></trkpt><trkpt lat="44.884989" lon="9.0977186"><ele>412.00000000000006</ele><time>2026-03-21T11:10:46.132Z</time></trkpt><trkpt lat="44.884887" lon="9.0977211"><ele>412.0</ele><time>2026-03-21T11:10:47.132Z</time></trkpt><trkpt lat="44.8848144" lon="9.0977361"><ele>414.1428571428571</ele><time>2026-03-21T11:10:48.131Z</time></trkpt><trkpt lat="44.8847453" lon="9.0977365"><ele>416.2857142857143</ele><time>2026-03-21T11:10:49.131Z</time></trkpt><trkpt lat="44.8846766" lon="9.0977146"><ele>418.42857142857144</ele><time>2026-03-21T11:10:50.131Z</time></trkpt><trkpt lat="44.8845976" lon="9.0976585"><ele>420.57142857142856</ele><time>2026-03-21T11:10:51.132Z</time></trkpt><trkpt lat="44.8845332" lon="9.0976164"><ele>422.7142857142857</ele><time>2026-03-21T11:10:52.131Z</time></trkpt><trkpt lat="44.8844613" lon="9.0975953"><ele>424.85714285714283</ele><time>2026-03-21T11:10:53.132Z</time></trkpt><trkpt lat="44.8843922" lon="9.0975995"><ele>427.0</ele><time>2026-03-21T11:10:54.132Z</time></trkpt><trkpt lat="44.8843079" lon="9.097637"><ele>428.33333333333337</ele><time>2026-03-21T11:10:55.131Z</time></trkpt><trkpt lat="44.8842467" lon="9.0976788"><ele>429.6666666666667</ele><time>2026-03-21T11:10:56.131Z</time></trkpt><trkpt lat="44.8841833" lon="9.0977309"><ele>431.0</ele><time>2026-03-21T11:10:57.132Z</time></trkpt><trkpt lat="44.8841195" lon="9.0978388"><ele>432.33333333333337</ele><time>2026-03-21T11:10:58.132Z</time></trkpt><trkpt lat="44.8840725" lon="9.0979067"><ele>433.6666666666667</ele><time>2026-03-21T11:10:59.131Z</time></trkpt><trkpt lat="44.8840028" lon="9.0980122"><ele>435.0</ele><time>2026-03-21T11:11:00.132Z</time></trkpt><trkpt lat="44.8839433" lon="9.0980982"><ele>435.0</ele><time>2026-03-21T11:11:01.132Z</time></trkpt><trkpt lat="44.8838678" lon="9.0982496"><ele>435.0</ele><time>2026-03-21T11:11:02.132Z</time></trkpt><trkpt lat="44.883807" lon="9.0983726"><ele>435.0</ele><time>2026-03-21T11:11:03.132Z</time></trkpt><trkpt lat="44.8837606" lon="9.0984871"><ele>435.0</ele><time>2026-03-21T11:11:04.131Z</time></trkpt><trkpt lat="44.8837164" lon="9.0985916"><ele>435.0</ele><time>2026-03-21T11:11:05.131Z</time></trkpt><trkpt lat="44.8836729" lon="9.0986677"><ele>436.6</ele><time>2026-03-21T11:11:06.132Z</time></trkpt><trkpt lat="44.8836172" lon="9.0987301"><ele>438.2</ele><time>2026-03-21T11:11:07.131Z</time></trkpt><trkpt lat="44.8835052" lon="9.0987412"><ele>439.79999999999995</ele><time>2026-03-21T11:11:09.131Z</time></trkpt><trkpt lat="44.8834408" lon="9.0986938"><ele>441.4</ele><time>2026-03-21T11:11:10.131Z</time></trkpt><trkpt lat="44.8833537" lon="9.0986221"><ele>443.0</ele><time>2026-03-21T11:11:11.132Z</time></trkpt><trkpt lat="44.8832394" lon="9.0985385"><ele>446.75</ele><time>2026-03-21T11:11:12.131Z</time></trkpt><trkpt lat="44.883095" lon="9.0984536"><ele>450.5</ele><time>2026-03-21T11:11:13.132Z</time></trkpt><trkpt lat="44.8829566" lon="9.0983785"><ele>454.25</ele><time>2026-03-21T11:11:14.132Z</time></trkpt><trkpt lat="44.882835" lon="9.0983224"><ele>458.0</ele><time>2026-03-21T11:11:15.132Z</time></trkpt><trkpt lat="44.8827222" lon="9.0982796"><ele>458.0</ele><time>2026-03-21T11:11:16.132Z</time></trkpt><trkpt lat="44.8826256" lon="9.0982526"><ele>457.99999999999994</ele><time>2026-03-21T11:11:17.132Z</time></trkpt><trkpt lat="44.8825316" lon="9.0982326"><ele>457.99999999999994</ele><time>2026-03-21T11:11:18.132Z</time></trkpt><trkpt lat="44.8824398" lon="9.0982216"><ele>458.0</ele><time>2026-03-21T11:11:19.132Z</time></trkpt><trkpt lat="44.8823525" lon="9.0982341"><ele>458.0</ele><time>2026-03-21T11:11:20.131Z</time></trkpt><trkpt lat="44.8822759" lon="9.0982577"><ele>457.59999999999997</ele><time>2026-03-21T11:11:21.131Z</time></trkpt><trkpt lat="44.8821888" lon="9.0982797"><ele>457.19999999999993</ele><time>2026-03-21T11:11:22.131Z</time></trkpt><trkpt lat="44.8821041" lon="9.0982878"><ele>456.8</ele><time>2026-03-21T11:11:23.131Z</time></trkpt><trkpt lat="44.8820106" lon="9.0982815"><ele>456.4</ele><time>2026-03-21T11:11:24.132Z</time></trkpt><trkpt lat="44.881899" lon="9.0982342"><ele>456.0</ele><time>2026-03-21T11:11:25.132Z</time></trkpt><trkpt lat="44.8817958" lon="9.098201"><ele>458.6</ele><time>2026-03-21T11:11:26.131Z</time></trkpt><trkpt lat="44.8816928" lon="9.0981606"><ele>461.20000000000005</ele><time>2026-03-21T11:11:27.132Z</time></trkpt><trkpt lat="44.881588" lon="9.0981028"><ele>463.79999999999995</ele><time>2026-03-21T11:11:28.132Z</time></trkpt><trkpt lat="44.8814911" lon="9.0980438"><ele>466.4</ele><time>2026-03-21T11:11:29.131Z</time></trkpt><trkpt lat="44.8814014" lon="9.0979687"><ele>469.0</ele><time>2026-03-21T11:11:30.131Z</time></trkpt><trkpt lat="44.8813215" lon="9.0978863"><ele>469.0</ele><time>2026-03-21T11:11:31.132Z</time></trkpt><trkpt lat="44.8812624" lon="9.0978031"><ele>469.0</ele><time>2026-03-21T11:11:32.131Z</time></trkpt><trkpt lat="44.8811965" lon="9.0977086"><ele>469.0</ele><time>2026-03-21T11:11:33.131Z</time></trkpt><trkpt lat="44.8811225" lon="9.0975978"><ele>469.0</ele><time>2026-03-21T11:11:34.132Z</time></trkpt><trkpt lat="44.8810465" lon="9.0974662"><ele>469.0</ele><time>2026-03-21T11:11:35.132Z</time></trkpt><trkpt lat="44.8809704" lon="9.09735"><ele>471.6</ele><time>2026-03-21T11:11:36.132Z</time></trkpt><trkpt lat="44.8809062" lon="9.0972486"><ele>474.2</ele><time>2026-03-21T11:11:37.131Z</time></trkpt><trkpt lat="44.8808638" lon="9.0971414"><ele>476.80000000000007</ele><time>2026-03-21T11:11:38.131Z</time></trkpt><trkpt lat="44.880839" lon="9.0970277"><ele>479.40000000000003</ele><time>2026-03-21T11:11:39.132Z</time></trkpt><trkpt lat="44.8808162" lon="9.0969245"><ele>482.0</ele><time>2026-03-21T11:11:40.132Z</time></trkpt><trkpt lat="44.8807401" lon="9.0967887"><ele>482.0</ele><time>2026-03-21T11:11:42.131Z</time></trkpt><trkpt lat="44.8806806" lon="9.0967481"><ele>482.00000000000006</ele><time>2026-03-21T11:11:43.131Z</time></trkpt><trkpt lat="44.8805992" lon="9.0967147"><ele>482.00000000000006</ele><time>2026-03-21T11:11:44.132Z</time></trkpt><trkpt lat="44.8804969" lon="9.0966774"><ele>482.0</ele><time>2026-03-21T11:11:45.132Z</time></trkpt><trkpt lat="44.8803802" lon="9.096605"><ele>482.0</ele><time>2026-03-21T11:11:46.131Z</time></trkpt><trkpt lat="44.8802534" lon="9.0965069"><ele>480.75</ele><time>2026-03-21T11:11:47.132Z</time></trkpt><trkpt lat="44.8801256" lon="9.0963963"><ele>479.5</ele><time>2026-03-21T11:11:48.131Z</time></trkpt><trkpt lat="44.8800107" lon="9.0962991"><ele>478.25</ele><time>2026-03-21T11:11:49.131Z</time></trkpt><trkpt lat="44.8798997" lon="9.0962297"><ele>477.0</ele><time>2026-03-21T11:11:50.132Z</time></trkpt><trkpt lat="44.8797688" lon="9.0961787"><ele>480.6</ele><time>2026-03-21T11:11:51.132Z</time></trkpt><trkpt lat="44.8796491" lon="9.0961503"><ele>484.20000000000005</ele><time>2026-03-21T11:11:52.132Z</time></trkpt><trkpt lat="44.8795641" lon="9.0961311"><ele>487.8</ele><time>2026-03-21T11:11:53.132Z</time></trkpt><trkpt lat="44.8794664" lon="9.096133"><ele>491.4</ele><time>2026-03-21T11:11:55.132Z</time></trkpt><trkpt lat="44.8793827" lon="9.0961794"><ele>495.0</ele><time>2026-03-21T11:11:57.131Z</time></trkpt><trkpt lat="44.8793193" lon="9.0962101"><ele>496.1666666666667</ele><time>2026-03-21T11:11:58.132Z</time></trkpt><trkpt lat="44.8792539" lon="9.0962387"><ele>497.33333333333337</ele><time>2026-03-21T11:11:59.131Z</time></trkpt><trkpt lat="44.8791762" lon="9.0962833"><ele>498.5</ele><time>2026-03-21T11:12:00.131Z</time></trkpt><trkpt lat="44.8791007" lon="9.0963311"><ele>499.6666666666667</ele><time>2026-03-21T11:12:01.132Z</time></trkpt><trkpt lat="44.8790377" lon="9.0963865"><ele>500.83333333333337</ele><time>2026-03-21T11:12:02.131Z</time></trkpt><trkpt lat="44.8789764" lon="9.0964487"><ele>502.0</ele><time>2026-03-21T11:12:03.131Z</time></trkpt><trkpt lat="44.8789234" lon="9.0965103"><ele>502.00000000000006</ele><time>2026-03-21T11:12:04.132Z</time></trkpt><trkpt lat="44.8788757" lon="9.0965747"><ele>502.0</ele><time>2026-03-21T11:12:05.132Z</time></trkpt><trkpt lat="44.8788261" lon="9.0966514"><ele>502.0</ele><time>2026-03-21T11:12:06.132Z</time></trkpt><trkpt lat="44.8787726" lon="9.0967454"><ele>502.0</ele><time>2026-03-21T11:12:07.132Z</time></trkpt><trkpt lat="44.8787271" lon="9.0968433"><ele>502.00000000000006</ele><time>2026-03-21T11:12:08.131Z</time></trkpt><trkpt lat="44.8786895" lon="9.0969426"><ele>502.0</ele><time>2026-03-21T11:12:09.131Z</time></trkpt><trkpt lat="44.8786462" lon="9.0970411"><ele>502.1666666666667</ele><time>2026-03-21T11:12:10.132Z</time></trkpt><trkpt lat="44.8786006" lon="9.0971475"><ele>502.33333333333337</ele><time>2026-03-21T11:12:11.132Z</time></trkpt><trkpt lat="44.878556" lon="9.0972421"><ele>502.5</ele><time>2026-03-21T11:12:12.131Z</time></trkpt><trkpt lat="44.8785137" lon="9.0973349"><ele>502.66666666666663</ele><time>2026-03-21T11:12:13.131Z</time></trkpt><trkpt lat="44.8784618" lon="9.0974355"><ele>502.8333333333333</ele><time>2026-03-21T11:12:14.131Z</time></trkpt><trkpt lat="44.8784188" lon="9.0975204"><ele>503.0</ele><time>2026-03-21T11:12:15.131Z</time></trkpt><trkpt lat="44.8783568" lon="9.097598"><ele>502.99999999999994</ele><time>2026-03-21T11:12:16.131Z</time></trkpt><trkpt lat="44.8782864" lon="9.0976508"><ele>503.0</ele><time>2026-03-21T11:12:17.131Z</time></trkpt><trkpt lat="44.8782012" lon="9.0976977"><ele>503.0</ele><time>2026-03-21T11:12:18.132Z</time></trkpt><trkpt lat="44.8781229" lon="9.0977355"><ele>503.0</ele><time>2026-03-21T11:12:19.13Z</time></trkpt><trkpt lat="44.8780456" lon="9.0977587"><ele>502.99999999999994</ele><time>2026-03-21T11:12:20.132Z</time></trkpt><trkpt lat="44.8779723" lon="9.0977739"><ele>503.0</ele><time>2026-03-21T11:12:21.132Z</time></trkpt><trkpt lat="44.8779044" lon="9.0977624"><ele>502.99999999999994</ele><time>2026-03-21T11:12:22.131Z</time></trkpt><trkpt lat="44.8778354" lon="9.0977278"><ele>503.0</ele><time>2026-03-21T11:12:23.131Z</time></trkpt><trkpt lat="44.8777583" lon="9.0976785"><ele>503.0</ele><time>2026-03-21T11:12:24.131Z</time></trkpt><trkpt lat="44.877675" lon="9.097627"><ele>503.0</ele><time>2026-03-21T11:12:25.131Z</time></trkpt><trkpt lat="44.877609" lon="9.0975772"><ele>502.99999999999994</ele><time>2026-03-21T11:12:26.132Z</time></trkpt><trkpt lat="44.8775374" lon="9.0975448"><ele>503.0</ele><time>2026-03-21T11:12:27.131Z</time></trkpt><trkpt lat="44.8774713" lon="9.0975079"><ele>502.66666666666663</ele><time>2026-03-21T11:12:28.131Z</time></trkpt><trkpt lat="44.877409" lon="9.0974898"><ele>502.3333333333333</ele><time>2026-03-21T11:12:29.132Z</time></trkpt><trkpt lat="44.8773388" lon="9.0974946"><ele>502.0</ele><time>2026-03-21T11:12:30.131Z</time></trkpt><trkpt lat="44.8772682" lon="9.0975205"><ele>501.66666666666663</ele><time>2026-03-21T11:12:31.131Z</time></trkpt><trkpt lat="44.8771915" lon="9.0975753"><ele>501.3333333333333</ele><time>2026-03-21T11:12:32.132Z</time></trkpt><trkpt lat="44.8771138" lon="9.0976507"><ele>501.0</ele><time>2026-03-21T11:12:33.132Z</time></trkpt><trkpt lat="44.8770496" lon="9.0977206"><ele>501.0</ele><time>2026-03-21T11:12:34.131Z</time></trkpt><trkpt lat="44.8769932" lon="9.0977975"><ele>501.0</ele><time>2026-03-21T11:12:35.132Z</time></trkpt><trkpt lat="44.8769324" lon="9.0978785"><ele>501.0</ele><time>2026-03-21T11:12:36.132Z</time></trkpt><trkpt lat="44.8768651" lon="9.0979783"><ele>501.0</ele><time>2026-03-21T11:12:37.131Z</time></trkpt><trkpt lat="44.8768065" lon="9.0980823"><ele>501.0</ele><time>2026-03-21T11:12:38.132Z</time></trkpt><trkpt lat="44.8767474" lon="9.0981747"><ele>501.0</ele><time>2026-03-21T11:12:39.131Z</time></trkpt><trkpt lat="44.8766801" lon="9.098246"><ele>501.0</ele><time>2026-03-21T11:12:40.131Z</time></trkpt><trkpt lat="44.8766114" lon="9.0982919"><ele>501.0</ele><time>2026-03-21T11:12:41.132Z</time></trkpt><trkpt lat="44.8765275" lon="9.0983298"><ele>501.0</ele><time>2026-03-21T11:12:42.131Z</time></trkpt><trkpt lat="44.8764276" lon="9.0983575"><ele>501.0</ele><time>2026-03-21T11:12:43.132Z</time></trkpt><trkpt lat="44.8763197" lon="9.098374"><ele>501.0</ele><time>2026-03-21T11:12:44.131Z</time></trkpt><trkpt lat="44.8762278" lon="9.0983904"><ele>501.0</ele><time>2026-03-21T11:12:45.131Z</time></trkpt><trkpt lat="44.8761501" lon="9.0983973"><ele>501.0</ele><time>2026-03-21T11:12:46.131Z</time></trkpt><trkpt lat="44.8760807" lon="9.0983865"><ele>501.0</ele><time>2026-03-21T11:12:47.132Z</time></trkpt><trkpt lat="44.8759855" lon="9.098287"><ele>501.0</ele><time>2026-03-21T11:12:49.131Z</time></trkpt><trkpt lat="44.8759418" lon="9.098191"><ele>501.0</ele><time>2026-03-21T11:12:50.131Z</time></trkpt><trkpt lat="44.8759023" lon="9.0980845"><ele>501.0</ele><time>2026-03-21T11:12:51.132Z</time></trkpt><trkpt lat="44.8758651" lon="9.0979821"><ele>498.1666666666667</ele><time>2026-03-21T11:12:52.132Z</time></trkpt><trkpt lat="44.8758346" lon="9.097891"><ele>495.33333333333337</ele><time>2026-03-21T11:12:53.131Z</time></trkpt><trkpt lat="44.875803" lon="9.0978032"><ele>492.5</ele><time>2026-03-21T11:12:54.132Z</time></trkpt><trkpt lat="44.8757272" lon="9.0976706"><ele>489.6666666666667</ele><time>2026-03-21T11:12:56.131Z</time></trkpt><trkpt lat="44.8756354" lon="9.0976028"><ele>486.83333333333337</ele><time>2026-03-21T11:12:58.132Z</time></trkpt><trkpt lat="44.8755613" lon="9.0976281"><ele>484.0</ele><time>2026-03-21T11:13:00.131Z</time></trkpt><trkpt lat="44.8755244" lon="9.0977544"><ele>484.00000000000006</ele><time>2026-03-21T11:13:02.131Z</time></trkpt><trkpt lat="44.8755151" lon="9.0978463"><ele>484.0</ele><time>2026-03-21T11:13:03.131Z</time></trkpt><trkpt lat="44.8755099" lon="9.0979356"><ele>484.0</ele><time>2026-03-21T11:13:04.132Z</time></trkpt><trkpt lat="44.8754685" lon="9.0980743"><ele>484.0</ele><time>2026-03-21T11:13:06.132Z</time></trkpt><trkpt lat="44.8753879" lon="9.0981025"><ele>484.00000000000006</ele><time>2026-03-21T11:13:08.132Z</time></trkpt><trkpt lat="44.8753464" lon="9.0980167"><ele>484.0</ele><time>2026-03-21T11:13:10.132Z</time></trkpt><trkpt lat="44.8753215" lon="9.0978892"><ele>484.00000000000006</ele><time>2026-03-21T11:13:12.132Z</time></trkpt><trkpt lat="44.8752948" lon="9.097738"><ele>484.0</ele><time>2026-03-21T11:13:14.132Z</time></trkpt><trkpt lat="44.8752719" lon="9.0976455"><ele>484.0</ele><time>2026-03-21T11:13:15.132Z</time></trkpt><trkpt lat="44.8752461" lon="9.0975462"><ele>484.0</ele><time>2026-03-21T11:13:16.131Z</time></trkpt><trkpt lat="44.8752139" lon="9.0974503"><ele>484.00000000000006</ele><time>2026-03-21T11:13:17.131Z</time></trkpt><trkpt lat="44.8751668" lon="9.0973621"><ele>484.0</ele><time>2026-03-21T11:13:18.132Z</time></trkpt><trkpt lat="44.8751055" lon="9.0972705"><ele>481.0</ele><time>2026-03-21T11:13:19.132Z</time></trkpt><trkpt lat="44.8750345" lon="9.0971759"><ele>478.0</ele><time>2026-03-21T11:13:20.131Z</time></trkpt><trkpt lat="44.8749634" lon="9.0970761"><ele>475.0</ele><time>2026-03-21T11:13:21.132Z</time></trkpt><trkpt lat="44.8748881" lon="9.0969654"><ele>472.0</ele><time>2026-03-21T11:13:22.132Z</time></trkpt><trkpt lat="44.8748177" lon="9.0968536"><ele>469.0</ele><time>2026-03-21T11:13:23.132Z</time></trkpt><trkpt lat="44.8747459" lon="9.0967463"><ele>469.0</ele><time>2026-03-21T11:13:24.131Z</time></trkpt><trkpt lat="44.8746769" lon="9.0966468"><ele>469.0</ele><time>2026-03-21T11:13:25.131Z</time></trkpt><trkpt lat="44.8745974" lon="9.0965586"><ele>469.0</ele><time>2026-03-21T11:13:26.131Z</time></trkpt><trkpt lat="44.8744965" lon="9.0964687"><ele>469.0</ele><time>2026-03-21T11:13:27.132Z</time></trkpt><trkpt lat="44.8743914" lon="9.0963963"><ele>469.0</ele><time>2026-03-21T11:13:28.131Z</time></trkpt><trkpt lat="44.8742858" lon="9.0963353"><ele>467.6</ele><time>2026-03-21T11:13:29.131Z</time></trkpt><trkpt lat="44.8741783" lon="9.0962834"><ele>466.2</ele><time>2026-03-21T11:13:30.132Z</time></trkpt><trkpt lat="44.8740719" lon="9.0962412"><ele>464.80000000000007</ele><time>2026-03-21T11:13:31.132Z</time></trkpt><trkpt lat="44.8739698" lon="9.0962003"><ele>463.40000000000003</ele><time>2026-03-21T11:13:32.132Z</time></trkpt><trkpt lat="44.8738635" lon="9.0961522"><ele>462.0</ele><time>2026-03-21T11:13:33.132Z</time></trkpt><trkpt lat="44.8737586" lon="9.096099"><ele>462.0</ele><time>2026-03-21T11:13:34.131Z</time></trkpt><trkpt lat="44.8736585" lon="9.0960436"><ele>462.00000000000006</ele><time>2026-03-21T11:13:35.131Z</time></trkpt><trkpt lat="44.8735637" lon="9.0959814"><ele>462.00000000000006</ele><time>2026-03-21T11:13:36.132Z</time></trkpt><trkpt lat="44.8734666" lon="9.095902"><ele>462.0</ele><time>2026-03-21T11:13:37.132Z</time></trkpt><trkpt lat="44.8733635" lon="9.0958038"><ele>462.0</ele><time>2026-03-21T11:13:38.132Z</time></trkpt><trkpt lat="44.8732691" lon="9.0957032"><ele>461.40000000000003</ele><time>2026-03-21T11:13:39.131Z</time></trkpt><trkpt lat="44.8731836" lon="9.0956055"><ele>460.80000000000007</ele><time>2026-03-21T11:13:40.131Z</time></trkpt><trkpt lat="44.8731046" lon="9.0955018"><ele>460.2</ele><time>2026-03-21T11:13:41.132Z</time></trkpt><trkpt lat="44.873036" lon="9.0953955"><ele>459.6</ele><time>2026-03-21T11:13:42.132Z</time></trkpt><trkpt lat="44.8729765" lon="9.095271"><ele>459.0</ele><time>2026-03-21T11:13:43.131Z</time></trkpt><trkpt lat="44.8729304" lon="9.0951491"><ele>459.0</ele><time>2026-03-21T11:13:44.131Z</time></trkpt><trkpt lat="44.8728901" lon="9.0950283"><ele>459.0</ele><time>2026-03-21T11:13:45.132Z</time></trkpt><trkpt lat="44.8728547" lon="9.0949104"><ele>459.0</ele><time>2026-03-21T11:13:46.131Z</time></trkpt><trkpt lat="44.8728127" lon="9.0948045"><ele>459.0</ele><time>2026-03-21T11:13:47.132Z</time></trkpt><trkpt lat="44.8727699" lon="9.0946966"><ele>459.0</ele><time>2026-03-21T11:13:48.132Z</time></trkpt><trkpt lat="44.8727321" lon="9.0945973"><ele>459.0</ele><time>2026-03-21T11:13:49.132Z</time></trkpt><trkpt lat="44.8726843" lon="9.0944955"><ele>458.6</ele><time>2026-03-21T11:13:50.132Z</time></trkpt><trkpt lat="44.872622" lon="9.0943904"><ele>458.2</ele><time>2026-03-21T11:13:51.132Z</time></trkpt><trkpt lat="44.8725438" lon="9.0942912"><ele>457.80000000000007</ele><time>2026-03-21T11:13:52.131Z</time></trkpt><trkpt lat="44.8724674" lon="9.0942024"><ele>457.40000000000003</ele><time>2026-03-21T11:13:53.132Z</time></trkpt><trkpt lat="44.8723878" lon="9.0941237"><ele>457.0</ele><time>2026-03-21T11:13:54.132Z</time></trkpt><trkpt lat="44.8722962" lon="9.0940459"><ele>457.0</ele><time>2026-03-21T11:13:55.131Z</time></trkpt><trkpt lat="44.8721989" lon="9.0939678"><ele>457.00000000000006</ele><time>2026-03-21T11:13:56.132Z</time></trkpt><trkpt lat="44.8721089" lon="9.0939025"><ele>457.00000000000006</ele><time>2026-03-21T11:13:57.131Z</time></trkpt><trkpt lat="44.8720333" lon="9.0938554"><ele>457.0</ele><time>2026-03-21T11:13:58.132Z</time></trkpt><trkpt lat="44.8719613" lon="9.0938222"><ele>457.0</ele><time>2026-03-21T11:13:59.131Z</time></trkpt><trkpt lat="44.8718727" lon="9.0938055"><ele>457.0</ele><time>2026-03-21T11:14:01.131Z</time></trkpt><trkpt lat="44.8717879" lon="9.0938354"><ele>457.00000000000006</ele><time>2026-03-21T11:14:05.132Z</time></trkpt><trkpt lat="44.8716634" lon="9.0938434"><ele>457.00000000000006</ele><time>2026-03-21T11:14:07.132Z</time></trkpt><trkpt lat="44.871578" lon="9.0938258"><ele>457.0</ele><time>2026-03-21T11:14:08.132Z</time></trkpt><trkpt lat="44.8714885" lon="9.0937987"><ele>457.0</ele><time>2026-03-21T11:14:09.131Z</time></trkpt><trkpt lat="44.8714051" lon="9.0937687"><ele>460.0</ele><time>2026-03-21T11:14:10.131Z</time></trkpt><trkpt lat="44.8713205" lon="9.0937409"><ele>463.00000000000006</ele><time>2026-03-21T11:14:11.131Z</time></trkpt><trkpt lat="44.8712331" lon="9.0937096"><ele>466.00000000000006</ele><time>2026-03-21T11:14:12.132Z</time></trkpt><trkpt lat="44.8711411" lon="9.0936741"><ele>469.0</ele><time>2026-03-21T11:14:13.131Z</time></trkpt><trkpt lat="44.8710434" lon="9.0936305"><ele>472.0</ele><time>2026-03-21T11:14:14.132Z</time></trkpt><trkpt lat="44.870953" lon="9.093574"><ele>471.8</ele><time>2026-03-21T11:14:15.132Z</time></trkpt><trkpt lat="44.8708638" lon="9.0935202"><ele>471.6</ele><time>2026-03-21T11:14:16.131Z</time></trkpt><trkpt lat="44.8707695" lon="9.0934836"><ele>471.40000000000003</ele><time>2026-03-21T11:14:17.131Z</time></trkpt><trkpt lat="44.8706737" lon="9.0934515"><ele>471.20000000000005</ele><time>2026-03-21T11:14:18.132Z</time></trkpt><trkpt lat="44.8705836" lon="9.0934324"><ele>471.0</ele><time>2026-03-21T11:14:19.132Z</time></trkpt><trkpt lat="44.8704965" lon="9.0934174"><ele>471.0</ele><time>2026-03-21T11:14:20.131Z</time></trkpt><trkpt lat="44.8704089" lon="9.0933941"><ele>471.0</ele><time>2026-03-21T11:14:21.131Z</time></trkpt><trkpt lat="44.8703269" lon="9.0933731"><ele>471.0</ele><time>2026-03-21T11:14:22.132Z</time></trkpt><trkpt lat="44.8702496" lon="9.0933479"><ele>471.0</ele><time>2026-03-21T11:14:23.132Z</time></trkpt><trkpt lat="44.8701815" lon="9.0933217"><ele>471.0</ele><time>2026-03-21T11:14:24.132Z</time></trkpt><trkpt lat="44.8701092" lon="9.0932901"><ele>471.0</ele><time>2026-03-21T11:14:25.131Z</time></trkpt><trkpt lat="44.870056" lon="9.0932097"><ele>469.6666666666667</ele><time>2026-03-21T11:14:26.132Z</time></trkpt><trkpt lat="44.8700032" lon="9.0931363"><ele>468.33333333333337</ele><time>2026-03-21T11:14:27.131Z</time></trkpt><trkpt lat="44.8699607" lon="9.0930479"><ele>467.0</ele><time>2026-03-21T11:14:28.131Z</time></trkpt><trkpt lat="44.8699169" lon="9.0929547"><ele>465.6666666666667</ele><time>2026-03-21T11:14:29.131Z</time></trkpt><trkpt lat="44.8698679" lon="9.0928611"><ele>464.33333333333337</ele><time>2026-03-21T11:14:30.132Z</time></trkpt><trkpt lat="44.8698174" lon="9.0927696"><ele>463.0</ele><time>2026-03-21T11:14:31.131Z</time></trkpt><trkpt lat="44.8697562" lon="9.0926716"><ele>463.00000000000006</ele><time>2026-03-21T11:14:32.131Z</time></trkpt><trkpt lat="44.8696934" lon="9.0925741"><ele>463.0</ele><time>2026-03-21T11:14:33.132Z</time></trkpt><trkpt lat="44.8696349" lon="9.092477"><ele>463.0</ele><time>2026-03-21T11:14:34.131Z</time></trkpt><trkpt lat="44.8695807" lon="9.0923872"><ele>463.0</ele><time>2026-03-21T11:14:35.132Z</time></trkpt><trkpt lat="44.8695237" lon="9.0922958"><ele>463.00000000000006</ele><time>2026-03-21T11:14:36.131Z</time></trkpt><trkpt lat="44.8694606" lon="9.0922088"><ele>463.0</ele><time>2026-03-21T11:14:37.132Z</time></trkpt><trkpt lat="44.869379" lon="9.0921281"><ele>465.75</ele><time>2026-03-21T11:14:38.131Z</time></trkpt><trkpt lat="44.8692841" lon="9.0920603"><ele>468.5</ele><time>2026-03-21T11:14:39.131Z</time></trkpt><trkpt lat="44.869174" lon="9.0919994"><ele>471.25</ele><time>2026-03-21T11:14:40.131Z</time></trkpt><trkpt lat="44.8690494" lon="9.0919384"><ele>474.0</ele><time>2026-03-21T11:14:41.131Z</time></trkpt><trkpt lat="44.8689194" lon="9.0918704"><ele>464.33333333333337</ele><time>2026-03-21T11:14:42.131Z</time></trkpt><trkpt lat="44.8687799" lon="9.0917957"><ele>454.6666666666667</ele><time>2026-03-21T11:14:43.132Z</time></trkpt><trkpt lat="44.8686345" lon="9.091712"><ele>445.0</ele><time>2026-03-21T11:14:44.131Z</time></trkpt><trkpt lat="44.8684901" lon="9.0916321"><ele>442.75</ele><time>2026-03-21T11:14:45.132Z</time></trkpt><trkpt lat="44.8683553" lon="9.0915534"><ele>440.5</ele><time>2026-03-21T11:14:46.131Z</time></trkpt><trkpt lat="44.8682297" lon="9.0914813"><ele>438.25</ele><time>2026-03-21T11:14:47.131Z</time></trkpt><trkpt lat="44.8681097" lon="9.0914209"><ele>436.0</ele><time>2026-03-21T11:14:48.132Z</time></trkpt><trkpt lat="44.8680072" lon="9.0913677"><ele>436.00000000000006</ele><time>2026-03-21T11:14:49.132Z</time></trkpt><trkpt lat="44.8679181" lon="9.0913226"><ele>436.0</ele><time>2026-03-21T11:14:50.132Z</time></trkpt><trkpt lat="44.8678419" lon="9.0912806"><ele>436.0</ele><time>2026-03-21T11:14:51.132Z</time></trkpt><trkpt lat="44.8677786" lon="9.0912318"><ele>436.0</ele><time>2026-03-21T11:14:52.131Z</time></trkpt><trkpt lat="44.8677287" lon="9.0911708"><ele>436.00000000000006</ele><time>2026-03-21T11:14:53.132Z</time></trkpt><trkpt lat="44.8676641" lon="9.0910349"><ele>436.0</ele><time>2026-03-21T11:14:55.132Z</time></trkpt><trkpt lat="44.8676388" lon="9.0908675"><ele>436.00000000000006</ele><time>2026-03-21T11:14:57.131Z</time></trkpt><trkpt lat="44.8676397" lon="9.0907772"><ele>436.0</ele><time>2026-03-21T11:14:58.132Z</time></trkpt><trkpt lat="44.8676447" lon="9.0906684"><ele>436.0</ele><time>2026-03-21T11:14:59.132Z</time></trkpt><trkpt lat="44.8676636" lon="9.0905481"><ele>436.0</ele><time>2026-03-21T11:15:00.131Z</time></trkpt><trkpt lat="44.8676905" lon="9.0904163"><ele>436.00000000000006</ele><time>2026-03-21T11:15:01.131Z</time></trkpt><trkpt lat="44.8677234" lon="9.0902661"><ele>436.0</ele><time>2026-03-21T11:15:02.132Z</time></trkpt><trkpt lat="44.8677531" lon="9.0901187"><ele>435.20000000000005</ele><time>2026-03-21T11:15:03.132Z</time></trkpt><trkpt lat="44.8677806" lon="9.0899824"><ele>434.40000000000003</ele><time>2026-03-21T11:15:04.131Z</time></trkpt><trkpt lat="44.8678111" lon="9.0898571"><ele>433.6</ele><time>2026-03-21T11:15:05.132Z</time></trkpt><trkpt lat="44.8678487" lon="9.0897283"><ele>432.8</ele><time>2026-03-21T11:15:06.131Z</time></trkpt><trkpt lat="44.8678928" lon="9.0895992"><ele>432.0</ele><time>2026-03-21T11:15:07.132Z</time></trkpt><trkpt lat="44.8679362" lon="9.0894765"><ele>430.3333333333333</ele><time>2026-03-21T11:15:08.132Z</time></trkpt><trkpt lat="44.8679843" lon="9.0893641"><ele>428.66666666666663</ele><time>2026-03-21T11:15:09.132Z</time></trkpt><trkpt lat="44.8680204" lon="9.0892506"><ele>427.0</ele><time>2026-03-21T11:15:10.131Z</time></trkpt><trkpt lat="44.8680497" lon="9.0891435"><ele>425.3333333333333</ele><time>2026-03-21T11:15:11.132Z</time></trkpt><trkpt lat="44.8680692" lon="9.089034"><ele>423.66666666666663</ele><time>2026-03-21T11:15:12.132Z</time></trkpt><trkpt lat="44.8680851" lon="9.0889301"><ele>422.0</ele><time>2026-03-21T11:15:13.132Z</time></trkpt><trkpt lat="44.8680938" lon="9.0888248"><ele>420.16666666666663</ele><time>2026-03-21T11:15:14.132Z</time></trkpt><trkpt lat="44.8681007" lon="9.0887214"><ele>418.3333333333333</ele><time>2026-03-21T11:15:15.132Z</time></trkpt><trkpt lat="44.8680982" lon="9.0886155"><ele>416.5</ele><time>2026-03-21T11:15:16.132Z</time></trkpt><trkpt lat="44.868087" lon="9.0885037"><ele>414.66666666666663</ele><time>2026-03-21T11:15:17.131Z</time></trkpt><trkpt lat="44.8680625" lon="9.0883778"><ele>412.8333333333333</ele><time>2026-03-21T11:15:18.131Z</time></trkpt><trkpt lat="44.8680384" lon="9.0882509"><ele>411.0</ele><time>2026-03-21T11:15:19.131Z</time></trkpt><trkpt lat="44.868015" lon="9.0881255"><ele>410.6666666666667</ele><time>2026-03-21T11:15:20.132Z</time></trkpt><trkpt lat="44.8679918" lon="9.0880056"><ele>410.33333333333337</ele><time>2026-03-21T11:15:21.131Z</time></trkpt><trkpt lat="44.867963" lon="9.0878872"><ele>410.0</ele><time>2026-03-21T11:15:22.131Z</time></trkpt><trkpt lat="44.8679361" lon="9.0877756"><ele>409.6666666666667</ele><time>2026-03-21T11:15:23.132Z</time></trkpt><trkpt lat="44.8679015" lon="9.0876632"><ele>409.33333333333337</ele><time>2026-03-21T11:15:24.131Z</time></trkpt><trkpt lat="44.8678645" lon="9.0875594"><ele>409.0</ele><time>2026-03-21T11:15:25.132Z</time></trkpt><trkpt lat="44.8678158" lon="9.0874713"><ele>409.1666666666667</ele><time>2026-03-21T11:15:26.132Z</time></trkpt><trkpt lat="44.8677513" lon="9.0873943"><ele>409.33333333333337</ele><time>2026-03-21T11:15:27.132Z</time></trkpt><trkpt lat="44.8676717" lon="9.0873255"><ele>409.5</ele><time>2026-03-21T11:15:28.132Z</time></trkpt><trkpt lat="44.8676019" lon="9.0872633"><ele>409.66666666666663</ele><time>2026-03-21T11:15:29.131Z</time></trkpt><trkpt lat="44.8675384" lon="9.0871992"><ele>409.8333333333333</ele><time>2026-03-21T11:15:30.132Z</time></trkpt><trkpt lat="44.8674847" lon="9.087122"><ele>410.0</ele><time>2026-03-21T11:15:31.131Z</time></trkpt><trkpt lat="44.8674444" lon="9.0870218"><ele>409.99999999999994</ele><time>2026-03-21T11:15:32.132Z</time></trkpt><trkpt lat="44.8674096" lon="9.0869058"><ele>410.0</ele><time>2026-03-21T11:15:33.132Z</time></trkpt><trkpt lat="44.8673816" lon="9.0867934"><ele>410.0</ele><time>2026-03-21T11:15:34.131Z</time></trkpt><trkpt lat="44.8673574" lon="9.0866763"><ele>410.0</ele><time>2026-03-21T11:15:35.132Z</time></trkpt><trkpt lat="44.8673336" lon="9.0865654"><ele>409.99999999999994</ele><time>2026-03-21T11:15:36.131Z</time></trkpt><trkpt lat="44.8673026" lon="9.0864584"><ele>410.0</ele><time>2026-03-21T11:15:37.132Z</time></trkpt><trkpt lat="44.8672488" lon="9.0863739"><ele>412.6</ele><time>2026-03-21T11:15:38.131Z</time></trkpt><trkpt lat="44.8671784" lon="9.0862967"><ele>415.2</ele><time>2026-03-21T11:15:39.132Z</time></trkpt><trkpt lat="44.8670908" lon="9.0862143"><ele>417.79999999999995</ele><time>2026-03-21T11:15:40.132Z</time></trkpt><trkpt lat="44.8669776" lon="9.086138"><ele>420.4</ele><time>2026-03-21T11:15:41.132Z</time></trkpt><trkpt lat="44.8668788" lon="9.0860739"><ele>423.0</ele><time>2026-03-21T11:15:42.131Z</time></trkpt><trkpt lat="44.8667818" lon="9.0860106"><ele>424.0</ele><time>2026-03-21T11:15:43.132Z</time></trkpt><trkpt lat="44.8666958" lon="9.0859455"><ele>425.0</ele><time>2026-03-21T11:15:44.132Z</time></trkpt><trkpt lat="44.866622" lon="9.0858583"><ele>425.99999999999994</ele><time>2026-03-21T11:15:45.132Z</time></trkpt><trkpt lat="44.866561" lon="9.0857626"><ele>427.0</ele><time>2026-03-21T11:15:46.132Z</time></trkpt><trkpt lat="44.8665004" lon="9.0856804"><ele>428.0</ele><time>2026-03-21T11:15:47.131Z</time></trkpt><trkpt lat="44.8664232" lon="9.0856086"><ele>428.0</ele><time>2026-03-21T11:15:48.132Z</time></trkpt><trkpt lat="44.8663453" lon="9.0855489"><ele>427.99999999999994</ele><time>2026-03-21T11:15:49.132Z</time></trkpt><trkpt lat="44.8662454" lon="9.0855218"><ele>427.99999999999994</ele><time>2026-03-21T11:15:50.132Z</time></trkpt><trkpt lat="44.8661512" lon="9.0855191"><ele>428.0</ele><time>2026-03-21T11:15:51.132Z</time></trkpt><trkpt lat="44.8660692" lon="9.0855202"><ele>428.0</ele><time>2026-03-21T11:15:52.131Z</time></trkpt><trkpt lat="44.8659871" lon="9.085544"><ele>427.4</ele><time>2026-03-21T11:15:53.131Z</time></trkpt><trkpt lat="44.8659102" lon="9.0855952"><ele>426.79999999999995</ele><time>2026-03-21T11:15:54.131Z</time></trkpt><trkpt lat="44.8658374" lon="9.0856626"><ele>426.2</ele><time>2026-03-21T11:15:55.132Z</time></trkpt><trkpt lat="44.86575" lon="9.0857359"><ele>425.6</ele><time>2026-03-21T11:15:56.131Z</time></trkpt><trkpt lat="44.8656724" lon="9.0858015"><ele>425.0</ele><time>2026-03-21T11:15:57.132Z</time></trkpt><trkpt lat="44.8656057" lon="9.0858922"><ele>420.0</ele><time>2026-03-21T11:15:58.131Z</time></trkpt><trkpt lat="44.8655412" lon="9.0860166"><ele>415.0</ele><time>2026-03-21T11:15:59.131Z</time></trkpt><trkpt lat="44.8654864" lon="9.0861541"><ele>410.0</ele><time>2026-03-21T11:16:00.132Z</time></trkpt><trkpt lat="44.8654288" lon="9.0862922"><ele>405.0</ele><time>2026-03-21T11:16:01.132Z</time></trkpt><trkpt lat="44.8653733" lon="9.086406"><ele>400.0</ele><time>2026-03-21T11:16:02.132Z</time></trkpt><trkpt lat="44.8653136" lon="9.0865013"><ele>400.00000000000006</ele><time>2026-03-21T11:16:03.131Z</time></trkpt><trkpt lat="44.8652424" lon="9.0865673"><ele>400.0</ele><time>2026-03-21T11:16:04.132Z</time></trkpt><trkpt lat="44.8651559" lon="9.0866041"><ele>400.0</ele><time>2026-03-21T11:16:05.131Z</time></trkpt><trkpt lat="44.8650692" lon="9.0866134"><ele>400.0</ele><time>2026-03-21T11:16:06.131Z</time></trkpt><trkpt lat="44.8649961" lon="9.0865806"><ele>400.00000000000006</ele><time>2026-03-21T11:16:07.131Z</time></trkpt><trkpt lat="44.8649162" lon="9.0865221"><ele>400.0</ele><time>2026-03-21T11:16:08.132Z</time></trkpt><trkpt lat="44.8648422" lon="9.0864728"><ele>400.00000000000006</ele><time>2026-03-21T11:16:09.132Z</time></trkpt><trkpt lat="44.864769" lon="9.0864527"><ele>400.0</ele><time>2026-03-21T11:16:10.132Z</time></trkpt><trkpt lat="44.8646933" lon="9.0864597"><ele>400.0</ele><time>2026-03-21T11:16:11.131Z</time></trkpt><trkpt lat="44.86462" lon="9.0865108"><ele>400.0</ele><time>2026-03-21T11:16:12.132Z</time></trkpt><trkpt lat="44.8645475" lon="9.0865829"><ele>400.00000000000006</ele><time>2026-03-21T11:16:13.132Z</time></trkpt><trkpt lat="44.8644793" lon="9.0866639"><ele>400.0</ele><time>2026-03-21T11:16:14.131Z</time></trkpt><trkpt lat="44.8644121" lon="9.0867536"><ele>400.00000000000006</ele><time>2026-03-21T11:16:15.132Z</time></trkpt><trkpt lat="44.8643457" lon="9.0868485"><ele>400.0</ele><time>2026-03-21T11:16:16.132Z</time></trkpt><trkpt lat="44.8642798" lon="9.0869376"><ele>400.0</ele><time>2026-03-21T11:16:17.132Z</time></trkpt><trkpt lat="44.8642201" lon="9.0870249"><ele>400.0</ele><time>2026-03-21T11:16:18.131Z</time></trkpt><trkpt lat="44.8641572" lon="9.0871146"><ele>400.00000000000006</ele><time>2026-03-21T11:16:19.132Z</time></trkpt><trkpt lat="44.8641045" lon="9.0871949"><ele>400.0</ele><time>2026-03-21T11:16:20.131Z</time></trkpt><trkpt lat="44.8640612" lon="9.0872788"><ele>401.33333333333337</ele><time>2026-03-21T11:16:21.131Z</time></trkpt><trkpt lat="44.8640225" lon="9.087367"><ele>402.6666666666667</ele><time>2026-03-21T11:16:22.132Z</time></trkpt><trkpt lat="44.8639934" lon="9.0874514"><ele>404.0</ele><time>2026-03-21T11:16:23.132Z</time></trkpt><trkpt lat="44.8639616" lon="9.087618"><ele>405.33333333333337</ele><time>2026-03-21T11:16:25.131Z</time></trkpt><trkpt lat="44.8639445" lon="9.0877063"><ele>406.6666666666667</ele><time>2026-03-21T11:16:26.131Z</time></trkpt><trkpt lat="44.863934" lon="9.0878004"><ele>408.0</ele><time>2026-03-21T11:16:27.131Z</time></trkpt><trkpt lat="44.8639197" lon="9.0878938"><ele>405.3333333333333</ele><time>2026-03-21T11:16:28.132Z</time></trkpt><trkpt lat="44.8639049" lon="9.0879852"><ele>402.66666666666663</ele><time>2026-03-21T11:16:29.132Z</time></trkpt><trkpt lat="44.8638943" lon="9.0880776"><ele>400.0</ele><time>2026-03-21T11:16:30.132Z</time></trkpt><trkpt lat="44.8638734" lon="9.0881872"><ele>397.3333333333333</ele><time>2026-03-21T11:16:31.132Z</time></trkpt><trkpt lat="44.8638477" lon="9.0883126"><ele>394.66666666666663</ele><time>2026-03-21T11:16:32.131Z</time></trkpt><trkpt lat="44.8638072" lon="9.0884464"><ele>392.0</ele><time>2026-03-21T11:16:33.132Z</time></trkpt><trkpt lat="44.8637544" lon="9.0885806"><ele>388.75</ele><time>2026-03-21T11:16:34.132Z</time></trkpt><trkpt lat="44.8636865" lon="9.0887255"><ele>385.5</ele><time>2026-03-21T11:16:35.132Z</time></trkpt><trkpt lat="44.8636151" lon="9.0888662"><ele>382.25</ele><time>2026-03-21T11:16:36.132Z</time></trkpt><trkpt lat="44.8635472" lon="9.089004"><ele>379.0</ele><time>2026-03-21T11:16:37.132Z</time></trkpt><trkpt lat="44.8634864" lon="9.0891204"><ele>381.25</ele><time>2026-03-21T11:16:38.131Z</time></trkpt><trkpt lat="44.8634272" lon="9.0892457"><ele>383.5</ele><time>2026-03-21T11:16:39.131Z</time></trkpt><trkpt lat="44.8633697" lon="9.0893844"><ele>385.75</ele><time>2026-03-21T11:16:40.131Z</time></trkpt><trkpt lat="44.8633233" lon="9.0895478"><ele>388.0</ele><time>2026-03-21T11:16:41.132Z</time></trkpt><trkpt lat="44.8632844" lon="9.0897121"><ele>388.0</ele><time>2026-03-21T11:16:42.132Z</time></trkpt><trkpt lat="44.8632588" lon="9.0898601"><ele>388.0</ele><time>2026-03-21T11:16:43.132Z</time></trkpt><trkpt lat="44.8632283" lon="9.0900116"><ele>388.0</ele><time>2026-03-21T11:16:44.132Z</time></trkpt><trkpt lat="44.8631983" lon="9.0901522"><ele>388.0</ele><time>2026-03-21T11:16:45.132Z</time></trkpt><trkpt lat="44.8631648" lon="9.0902907"><ele>388.0</ele><time>2026-03-21T11:16:46.131Z</time></trkpt><trkpt lat="44.8631169" lon="9.0904225"><ele>384.79999999999995</ele><time>2026-03-21T11:16:47.132Z</time></trkpt><trkpt lat="44.8630733" lon="9.0905449"><ele>381.6</ele><time>2026-03-21T11:16:48.132Z</time></trkpt><trkpt lat="44.863021" lon="9.0906606"><ele>378.4</ele><time>2026-03-21T11:16:49.132Z</time></trkpt><trkpt lat="44.8629644" lon="9.0907619"><ele>375.20000000000005</ele><time>2026-03-21T11:16:50.131Z</time></trkpt><trkpt lat="44.8629006" lon="9.0908579"><ele>372.0</ele><time>2026-03-21T11:16:51.131Z</time></trkpt><trkpt lat="44.8628321" lon="9.0909652"><ele>369.6</ele><time>2026-03-21T11:16:52.132Z</time></trkpt><trkpt lat="44.8627606" lon="9.0910699"><ele>367.20000000000005</ele><time>2026-03-21T11:16:53.131Z</time></trkpt><trkpt lat="44.8626912" lon="9.0911684"><ele>364.8</ele><time>2026-03-21T11:16:54.131Z</time></trkpt><trkpt lat="44.8626257" lon="9.0912586"><ele>362.4</ele><time>2026-03-21T11:16:55.131Z</time></trkpt><trkpt lat="44.8625669" lon="9.0913365"><ele>360.0</ele><time>2026-03-21T11:16:56.132Z</time></trkpt><trkpt lat="44.8625019" lon="9.0914037"><ele>360.0</ele><time>2026-03-21T11:16:57.132Z</time></trkpt><trkpt lat="44.8624359" lon="9.0914776"><ele>360.0</ele><time>2026-03-21T11:16:58.132Z</time></trkpt><trkpt lat="44.8623607" lon="9.0915303"><ele>360.0</ele><time>2026-03-21T11:16:59.131Z</time></trkpt><trkpt lat="44.8622693" lon="9.0915721"><ele>360.0</ele><time>2026-03-21T11:17:00.132Z</time></trkpt><trkpt lat="44.8621708" lon="9.0915966"><ele>360.0</ele><time>2026-03-21T11:17:01.132Z</time></trkpt><trkpt lat="44.8620675" lon="9.0916251"><ele>357.4</ele><time>2026-03-21T11:17:02.132Z</time></trkpt><trkpt lat="44.8619615" lon="9.0916434"><ele>354.8</ele><time>2026-03-21T11:17:03.132Z</time></trkpt><trkpt lat="44.8618633" lon="9.091657"><ele>352.20000000000005</ele><time>2026-03-21T11:17:04.131Z</time></trkpt><trkpt lat="44.8617634" lon="9.0916617"><ele>349.6</ele><time>2026-03-21T11:17:05.131Z</time></trkpt><trkpt lat="44.861657" lon="9.0916468"><ele>347.0</ele><time>2026-03-21T11:17:06.131Z</time></trkpt><trkpt lat="44.861537" lon="9.0916113"><ele>349.25</ele><time>2026-03-21T11:17:07.132Z</time></trkpt><trkpt lat="44.8614176" lon="9.0915744"><ele>351.5</ele><time>2026-03-21T11:17:08.132Z</time></trkpt><trkpt lat="44.861295" lon="9.0915327"><ele>353.75</ele><time>2026-03-21T11:17:09.132Z</time></trkpt><trkpt lat="44.8611825" lon="9.0914975"><ele>356.0</ele><time>2026-03-21T11:17:10.132Z</time></trkpt><trkpt lat="44.8610685" lon="9.0914779"><ele>356.0</ele><time>2026-03-21T11:17:11.132Z</time></trkpt><trkpt lat="44.8609608" lon="9.0914723"><ele>356.0</ele><time>2026-03-21T11:17:12.132Z</time></trkpt><trkpt lat="44.8608517" lon="9.0914842"><ele>356.0</ele><time>2026-03-21T11:17:13.132Z</time></trkpt><trkpt lat="44.8607451" lon="9.0915173"><ele>356.0</ele><time>2026-03-21T11:17:14.132Z</time></trkpt><trkpt lat="44.8606366" lon="9.0915582"><ele>356.0</ele><time>2026-03-21T11:17:15.131Z</time></trkpt><trkpt lat="44.8605267" lon="9.0915903"><ele>350.25</ele><time>2026-03-21T11:17:16.132Z</time></trkpt><trkpt lat="44.8604159" lon="9.0916098"><ele>344.5</ele><time>2026-03-21T11:17:17.131Z</time></trkpt><trkpt lat="44.8603022" lon="9.0916204"><ele>338.75</ele><time>2026-03-21T11:17:18.132Z</time></trkpt><trkpt lat="44.8601783" lon="9.0916163"><ele>333.0</ele><time>2026-03-21T11:17:19.131Z</time></trkpt><trkpt lat="44.8600429" lon="9.0915987"><ele>336.75</ele><time>2026-03-21T11:17:20.131Z</time></trkpt><trkpt lat="44.8599113" lon="9.0915891"><ele>340.5</ele><time>2026-03-21T11:17:21.132Z</time></trkpt><trkpt lat="44.859787" lon="9.0915761"><ele>344.25</ele><time>2026-03-21T11:17:22.131Z</time></trkpt><trkpt lat="44.8596793" lon="9.0915728"><ele>348.0</ele><time>2026-03-21T11:17:23.131Z</time></trkpt><trkpt lat="44.859577" lon="9.0915699"><ele>348.0</ele><time>2026-03-21T11:17:24.132Z</time></trkpt><trkpt lat="44.8594765" lon="9.091578"><ele>348.0</ele><time>2026-03-21T11:17:25.131Z</time></trkpt><trkpt lat="44.8593856" lon="9.091603"><ele>348.0</ele><time>2026-03-21T11:17:26.131Z</time></trkpt><trkpt lat="44.8593119" lon="9.0916393"><ele>348.0</ele><time>2026-03-21T11:17:27.132Z</time></trkpt><trkpt lat="44.8592494" lon="9.0916956"><ele>348.0</ele><time>2026-03-21T11:17:28.132Z</time></trkpt><trkpt lat="44.8591972" lon="9.0917748"><ele>348.0</ele><time>2026-03-21T11:17:29.131Z</time></trkpt><trkpt lat="44.8591644" lon="9.0918625"><ele>341.59999999999997</ele><time>2026-03-21T11:17:30.131Z</time></trkpt><trkpt lat="44.8591536" lon="9.0919634"><ele>335.2</ele><time>2026-03-21T11:17:31.132Z</time></trkpt><trkpt lat="44.8591641" lon="9.0920867"><ele>328.8</ele><time>2026-03-21T11:17:32.131Z</time></trkpt><trkpt lat="44.8591913" lon="9.0922181"><ele>322.4</ele><time>2026-03-21T11:17:33.132Z</time></trkpt><trkpt lat="44.8592229" lon="9.0923588"><ele>316.0</ele><time>2026-03-21T11:17:34.132Z</time></trkpt><trkpt lat="44.8592545" lon="9.0924932"><ele>314.5</ele><time>2026-03-21T11:17:35.132Z</time></trkpt><trkpt lat="44.8592867" lon="9.092626"><ele>313.0</ele><time>2026-03-21T11:17:36.132Z</time></trkpt><trkpt lat="44.8593219" lon="9.0927743"><ele>311.5</ele><time>2026-03-21T11:17:37.131Z</time></trkpt><trkpt lat="44.8593574" lon="9.0929376"><ele>310.0</ele><time>2026-03-21T11:17:38.131Z</time></trkpt><trkpt lat="44.8593948" lon="9.0931083"><ele>308.2</ele><time>2026-03-21T11:17:39.131Z</time></trkpt><trkpt lat="44.8594368" lon="9.093272"><ele>306.4</ele><time>2026-03-21T11:17:40.132Z</time></trkpt><trkpt lat="44.8594714" lon="9.0934309"><ele>304.6</ele><time>2026-03-21T11:17:41.132Z</time></trkpt><trkpt lat="44.8594974" lon="9.0935618"><ele>302.8</ele><time>2026-03-21T11:17:42.131Z</time></trkpt><trkpt lat="44.8595203" lon="9.0936795"><ele>301.0</ele><time>2026-03-21T11:17:43.131Z</time></trkpt><trkpt lat="44.8595382" lon="9.0937826"><ele>301.0</ele><time>2026-03-21T11:17:44.132Z</time></trkpt><trkpt lat="44.8595436" lon="9.0938812"><ele>301.0</ele><time>2026-03-21T11:17:45.131Z</time></trkpt><trkpt lat="44.8595276" lon="9.0939738"><ele>301.0</ele><time>2026-03-21T11:17:46.131Z</time></trkpt><trkpt lat="44.8594945" lon="9.0940507"><ele>301.0</ele><time>2026-03-21T11:17:47.131Z</time></trkpt><trkpt lat="44.8593883" lon="9.0941351"><ele>301.0</ele><time>2026-03-21T11:17:49.131Z</time></trkpt><trkpt lat="44.8593099" lon="9.0941388"><ele>301.0</ele><time>2026-03-21T11:17:50.132Z</time></trkpt><trkpt lat="44.8592212" lon="9.0941221"><ele>300.0</ele><time>2026-03-21T11:17:51.131Z</time></trkpt><trkpt lat="44.85913" lon="9.0940884"><ele>299.0</ele><time>2026-03-21T11:17:52.132Z</time></trkpt><trkpt lat="44.8590318" lon="9.0940453"><ele>298.0</ele><time>2026-03-21T11:17:53.132Z</time></trkpt><trkpt lat="44.8589314" lon="9.0939929"><ele>297.0</ele><time>2026-03-21T11:17:54.131Z</time></trkpt><trkpt lat="44.858831" lon="9.0939311"><ele>296.0</ele><time>2026-03-21T11:17:55.131Z</time></trkpt><trkpt lat="44.8587196" lon="9.0938689"><ele>296.0</ele><time>2026-03-21T11:17:56.131Z</time></trkpt><trkpt lat="44.8586068" lon="9.0938121"><ele>296.0</ele><time>2026-03-21T11:17:57.132Z</time></trkpt><trkpt lat="44.8584887" lon="9.0937603"><ele>296.0</ele><time>2026-03-21T11:17:58.132Z</time></trkpt><trkpt lat="44.8583675" lon="9.0937169"><ele>296.0</ele><time>2026-03-21T11:17:59.131Z</time></trkpt><trkpt lat="44.8582413" lon="9.0936859"><ele>292.75</ele><time>2026-03-21T11:18:00.132Z</time></trkpt><trkpt lat="44.8581099" lon="9.0936591"><ele>289.5</ele><time>2026-03-21T11:18:01.132Z</time></trkpt><trkpt lat="44.8579781" lon="9.0936431"><ele>286.25</ele><time>2026-03-21T11:18:02.131Z</time></trkpt><trkpt lat="44.857848" lon="9.0936236"><ele>283.0</ele><time>2026-03-21T11:18:03.132Z</time></trkpt><trkpt lat="44.8577186" lon="9.0936006"><ele>281.25</ele><time>2026-03-21T11:18:04.131Z</time></trkpt><trkpt lat="44.8575909" lon="9.0935788"><ele>279.5</ele><time>2026-03-21T11:18:05.131Z</time></trkpt><trkpt lat="44.8574646" lon="9.0935567"><ele>277.75</ele><time>2026-03-21T11:18:06.131Z</time></trkpt><trkpt lat="44.8573573" lon="9.093536"><ele>276.0</ele><time>2026-03-21T11:18:07.132Z</time></trkpt><trkpt lat="44.8572597" lon="9.0935316"><ele>276.0</ele><time>2026-03-21T11:18:08.131Z</time></trkpt><trkpt lat="44.8571667" lon="9.0935646"><ele>276.0</ele><time>2026-03-21T11:18:09.132Z</time></trkpt><trkpt lat="44.8570792" lon="9.0936445"><ele>276.0</ele><time>2026-03-21T11:18:10.132Z</time></trkpt><trkpt lat="44.8569956" lon="9.0937559"><ele>276.0</ele><time>2026-03-21T11:18:11.131Z</time></trkpt><trkpt lat="44.8569095" lon="9.093876"><ele>276.0</ele><time>2026-03-21T11:18:12.132Z</time></trkpt><trkpt lat="44.8568112" lon="9.0939621"><ele>274.25</ele><time>2026-03-21T11:18:13.131Z</time></trkpt><trkpt lat="44.856702" lon="9.0940249"><ele>272.5</ele><time>2026-03-21T11:18:14.131Z</time></trkpt><trkpt lat="44.8565955" lon="9.0940539"><ele>270.75</ele><time>2026-03-21T11:18:15.131Z</time></trkpt><trkpt lat="44.8564799" lon="9.094069"><ele>269.0</ele><time>2026-03-21T11:18:16.131Z</time></trkpt><trkpt lat="44.8563627" lon="9.094055"><ele>269.0</ele><time>2026-03-21T11:18:17.132Z</time></trkpt><trkpt lat="44.8562313" lon="9.0940072"><ele>269.0</ele><time>2026-03-21T11:18:18.131Z</time></trkpt><trkpt lat="44.8560918" lon="9.0939369"><ele>269.0</ele><time>2026-03-21T11:18:19.132Z</time></trkpt><trkpt lat="44.8559523" lon="9.0938527"><ele>269.0</ele><time>2026-03-21T11:18:20.132Z</time></trkpt><trkpt lat="44.8558233" lon="9.0937674"><ele>268.75</ele><time>2026-03-21T11:18:21.132Z</time></trkpt><trkpt lat="44.8557053" lon="9.093685"><ele>268.5</ele><time>2026-03-21T11:18:22.132Z</time></trkpt><trkpt lat="44.8555962" lon="9.0936104"><ele>268.25</ele><time>2026-03-21T11:18:23.132Z</time></trkpt><trkpt lat="44.8554942" lon="9.0935495"><ele>268.0</ele><time>2026-03-21T11:18:24.132Z</time></trkpt><trkpt lat="44.8554066" lon="9.0934965"><ele>268.0</ele><time>2026-03-21T11:18:25.132Z</time></trkpt><trkpt lat="44.8553345" lon="9.0934448"><ele>268.0</ele><time>2026-03-21T11:18:26.132Z</time></trkpt><trkpt lat="44.8552822" lon="9.0933725"><ele>268.0</ele><time>2026-03-21T11:18:27.132Z</time></trkpt><trkpt lat="44.8552439" lon="9.093284"><ele>268.0</ele><time>2026-03-21T11:18:28.132Z</time></trkpt><trkpt lat="44.8552152" lon="9.0931562"><ele>268.0</ele><time>2026-03-21T11:18:29.132Z</time></trkpt><trkpt lat="44.8551875" lon="9.0930274"><ele>268.0</ele><time>2026-03-21T11:18:30.132Z</time></trkpt><trkpt lat="44.8551612" lon="9.0929092"><ele>267.57142857142856</ele><time>2026-03-21T11:18:31.131Z</time></trkpt><trkpt lat="44.8551263" lon="9.0928049"><ele>267.1428571428571</ele><time>2026-03-21T11:18:32.131Z</time></trkpt><trkpt lat="44.8550884" lon="9.0927297"><ele>266.71428571428567</ele><time>2026-03-21T11:18:33.131Z</time></trkpt><trkpt lat="44.8550379" lon="9.092664"><ele>266.2857142857143</ele><time>2026-03-21T11:18:35.132Z</time></trkpt><trkpt lat="44.8549731" lon="9.0926399"><ele>265.85714285714283</ele><time>2026-03-21T11:18:52.132Z</time></trkpt><trkpt lat="44.854993" lon="9.0927333"><ele>265.4285714285714</ele><time>2026-03-21T11:18:55.131Z</time></trkpt><trkpt lat="44.8550436" lon="9.0926251"><ele>265.0</ele><time>2026-03-21T11:18:58.132Z</time></trkpt><trkpt lat="44.8550382" lon="9.0924699"><ele>264.4</ele><time>2026-03-21T11:19:00.131Z</time></trkpt><trkpt lat="44.8550473" lon="9.0922866"><ele>263.8</ele><time>2026-03-21T11:19:02.131Z</time></trkpt><trkpt lat="44.8550481" lon="9.0921655"><ele>263.2</ele><time>2026-03-21T11:19:03.131Z</time></trkpt><trkpt lat="44.8550513" lon="9.0920451"><ele>262.6</ele><time>2026-03-21T11:19:04.131Z</time></trkpt><trkpt lat="44.8550529" lon="9.0919357"><ele>262.0</ele><time>2026-03-21T11:19:05.131Z</time></trkpt><trkpt lat="44.855058" lon="9.0918278"><ele>262.0</ele><time>2026-03-21T11:19:06.132Z</time></trkpt><trkpt lat="44.8550628" lon="9.0917329"><ele>262.0</ele><time>2026-03-21T11:19:07.132Z</time></trkpt><trkpt lat="44.8550846" lon="9.091605"><ele>262.0</ele><time>2026-03-21T11:19:09.131Z</time></trkpt><trkpt lat="44.8551175" lon="9.0915269"><ele>262.0</ele><time>2026-03-21T11:19:12.131Z</time></trkpt><trkpt lat="44.8550777" lon="9.0916276"><ele>262.0</ele><time>2026-03-21T11:19:17.131Z</time></trkpt><trkpt lat="44.8550778" lon="9.0917941"><ele>262.0</ele><time>2026-03-21T11:19:19.131Z</time></trkpt><trkpt lat="44.8550779" lon="9.0918992"><ele>262.0</ele><time>2026-03-21T11:19:20.132Z</time></trkpt><trkpt lat="44.8550697" lon="9.0920266"><ele>262.0</ele><time>2026-03-21T11:19:21.131Z</time></trkpt><trkpt lat="44.8550643" lon="9.0921776"><ele>262.0</ele><time>2026-03-21T11:19:22.131Z</time></trkpt><trkpt lat="44.8550617" lon="9.0922959"><ele>262.0</ele><time>2026-03-21T11:19:23.131Z</time></trkpt><trkpt lat="44.8550666" lon="9.0924511"><ele>262.0</ele><time>2026-03-21T11:19:25.132Z</time></trkpt><trkpt lat="44.8550682" lon="9.0925511"><ele>262.0</ele><time>2026-03-21T11:19:27.131Z</time></trkpt><trkpt lat="44.8550072" lon="9.0925915"><ele>262.0</ele><time>2026-03-21T11:19:32.132Z</time></trkpt><trkpt lat="44.854992" lon="9.0924718"><ele>262.0</ele><time>2026-03-21T11:19:34.131Z</time></trkpt><trkpt lat="44.8549929" lon="9.0923602"><ele>262.0</ele><time>2026-03-21T11:19:35.132Z</time></trkpt><trkpt lat="44.8549967" lon="9.0922237"><ele>262.0</ele><time>2026-03-21T11:19:36.132Z</time></trkpt><trkpt lat="44.8549983" lon="9.0920708"><ele>262.0</ele><time>2026-03-21T11:19:37.131Z</time></trkpt><trkpt lat="44.8549982" lon="9.0919305"><ele>262.0</ele><time>2026-03-21T11:19:38.132Z</time></trkpt><trkpt lat="44.8549978" lon="9.0917783"><ele>262.0</ele><time>2026-03-21T11:19:39.132Z</time></trkpt><trkpt lat="44.8550119" lon="9.0916064"><ele>262.0</ele><time>2026-03-21T11:19:40.131Z</time></trkpt><trkpt lat="44.8550311" lon="9.0914365"><ele>262.0</ele><time>2026-03-21T11:19:41.132Z</time></trkpt><trkpt lat="44.8550664" lon="9.0912809"><ele>262.5</ele><time>2026-03-21T11:19:42.132Z</time></trkpt><trkpt lat="44.8551273" lon="9.0911222"><ele>263.0</ele><time>2026-03-21T11:19:43.131Z</time></trkpt><trkpt lat="44.8552038" lon="9.0909655"><ele>263.5</ele><time>2026-03-21T11:19:44.132Z</time></trkpt><trkpt lat="44.8553028" lon="9.0908078"><ele>264.0</ele><time>2026-03-21T11:19:45.132Z</time></trkpt><trkpt lat="44.8554135" lon="9.0906457"><ele>264.0</ele><time>2026-03-21T11:19:46.132Z</time></trkpt><trkpt lat="44.855518" lon="9.0904961"><ele>264.0</ele><time>2026-03-21T11:19:47.132Z</time></trkpt><trkpt lat="44.8556191" lon="9.0903541"><ele>264.0</ele><time>2026-03-21T11:19:48.131Z</time></trkpt><trkpt lat="44.8557187" lon="9.0902031"><ele>264.0</ele><time>2026-03-21T11:19:49.131Z</time></trkpt><trkpt lat="44.8558127" lon="9.0900418"><ele>263.6666666666667</ele><time>2026-03-21T11:19:50.131Z</time></trkpt><trkpt lat="44.8559002" lon="9.0898699"><ele>263.33333333333337</ele><time>2026-03-21T11:19:51.131Z</time></trkpt><trkpt lat="44.855978" lon="9.0896844"><ele>263.0</ele><time>2026-03-21T11:19:52.132Z</time></trkpt><trkpt lat="44.8560455" lon="9.0894777"><ele>264.0</ele><time>2026-03-21T11:19:53.131Z</time></trkpt><trkpt lat="44.8560985" lon="9.0892623"><ele>265.0</ele><time>2026-03-21T11:19:54.132Z</time></trkpt><trkpt lat="44.8561381" lon="9.0890252"><ele>266.0</ele><time>2026-03-21T11:19:55.131Z</time></trkpt><trkpt lat="44.8561642" lon="9.088768"><ele>266.0</ele><time>2026-03-21T11:19:56.132Z</time></trkpt><trkpt lat="44.8561863" lon="9.0885013"><ele>266.0</ele><time>2026-03-21T11:19:57.132Z</time></trkpt><trkpt lat="44.8562117" lon="9.0882407"><ele>266.0</ele><time>2026-03-21T11:19:58.131Z</time></trkpt><trkpt lat="44.8562331" lon="9.0879954"><ele>266.6666666666667</ele><time>2026-03-21T11:19:59.131Z</time></trkpt><trkpt lat="44.8562597" lon="9.0877531"><ele>267.3333333333333</ele><time>2026-03-21T11:20:00.132Z</time></trkpt><trkpt lat="44.8562825" lon="9.0874999"><ele>268.0</ele><time>2026-03-21T11:20:01.131Z</time></trkpt><trkpt lat="44.856303" lon="9.0872255"><ele>266.66666666666663</ele><time>2026-03-21T11:20:02.132Z</time></trkpt><trkpt lat="44.8563252" lon="9.0869253"><ele>265.3333333333333</ele><time>2026-03-21T11:20:03.132Z</time></trkpt><trkpt lat="44.8563517" lon="9.0866555"><ele>264.0</ele><time>2026-03-21T11:20:04.131Z</time></trkpt><trkpt lat="44.8563711" lon="9.0863956"><ele>263.0</ele><time>2026-03-21T11:20:05.132Z</time></trkpt><trkpt lat="44.8563872" lon="9.086159"><ele>262.0</ele><time>2026-03-21T11:20:06.132Z</time></trkpt><trkpt lat="44.8564006" lon="9.0859346"><ele>261.0</ele><time>2026-03-21T11:20:07.132Z</time></trkpt><trkpt lat="44.8564142" lon="9.0857283"><ele>260.25</ele><time>2026-03-21T11:20:08.131Z</time></trkpt><trkpt lat="44.8564258" lon="9.0855348"><ele>259.5</ele><time>2026-03-21T11:20:09.132Z</time></trkpt><trkpt lat="44.85644" lon="9.0853541"><ele>258.75</ele><time>2026-03-21T11:20:10.131Z</time></trkpt><trkpt lat="44.8564549" lon="9.0851851"><ele>258.0</ele><time>2026-03-21T11:20:11.132Z</time></trkpt><trkpt lat="44.8564738" lon="9.0850303"><ele>257.4</ele><time>2026-03-21T11:20:12.132Z</time></trkpt><trkpt lat="44.8564984" lon="9.0848884"><ele>256.8</ele><time>2026-03-21T11:20:13.132Z</time></trkpt><trkpt lat="44.8565243" lon="9.0847752"><ele>256.2</ele><time>2026-03-21T11:20:14.132Z</time></trkpt><trkpt lat="44.8565435" lon="9.0846851"><ele>255.6</ele><time>2026-03-21T11:20:15.132Z</time></trkpt><trkpt lat="44.8565408" lon="9.0845324"><ele>255.0</ele><time>2026-03-21T11:20:17.131Z</time></trkpt><trkpt lat="44.8564595" lon="9.0844499"><ele>255.0</ele><time>2026-03-21T11:20:19.131Z</time></trkpt><trkpt lat="44.8563896" lon="9.0844426"><ele>255.0</ele><time>2026-03-21T11:20:20.131Z</time></trkpt><trkpt lat="44.8563042" lon="9.0844449"><ele>255.0</ele><time>2026-03-21T11:20:21.131Z</time></trkpt><trkpt lat="44.8562142" lon="9.0844283"><ele>255.0</ele><time>2026-03-21T11:20:22.131Z</time></trkpt><trkpt lat="44.856119" lon="9.0843789"><ele>255.0</ele><time>2026-03-21T11:20:23.132Z</time></trkpt><trkpt lat="44.8560207" lon="9.0842889"><ele>254.0</ele><time>2026-03-21T11:20:24.131Z</time></trkpt><trkpt lat="44.8559197" lon="9.0841663"><ele>253.0</ele><time>2026-03-21T11:20:25.131Z</time></trkpt><trkpt lat="44.8558033" lon="9.0840257"><ele>252.0</ele><time>2026-03-21T11:20:26.132Z</time></trkpt><trkpt lat="44.8556769" lon="9.0838613"><ele>250.0</ele><time>2026-03-21T11:20:27.131Z</time></trkpt><trkpt lat="44.8555258" lon="9.0836598"><ele>248.0</ele><time>2026-03-21T11:20:28.131Z</time></trkpt><trkpt lat="44.8553882" lon="9.083475"><ele>246.0</ele><time>2026-03-21T11:20:29.132Z</time></trkpt><trkpt lat="44.8552634" lon="9.0833105"><ele>246.0</ele><time>2026-03-21T11:20:30.132Z</time></trkpt><trkpt lat="44.8551583" lon="9.0831695"><ele>246.0</ele><time>2026-03-21T11:20:31.131Z</time></trkpt><trkpt lat="44.8550664" lon="9.0830507"><ele>246.0</ele><time>2026-03-21T11:20:32.131Z</time></trkpt><trkpt lat="44.8549893" lon="9.0829555"><ele>246.0</ele><time>2026-03-21T11:20:33.132Z</time></trkpt><trkpt lat="44.8549147" lon="9.0828847"><ele>248.0</ele><time>2026-03-21T11:20:34.131Z</time></trkpt><trkpt lat="44.8548312" lon="9.0828446"><ele>250.00000000000003</ele><time>2026-03-21T11:20:35.131Z</time></trkpt><trkpt lat="44.8547349" lon="9.0828416"><ele>252.00000000000003</ele><time>2026-03-21T11:20:36.131Z</time></trkpt><trkpt lat="44.8546289" lon="9.0828855"><ele>254.0</ele><time>2026-03-21T11:20:37.131Z</time></trkpt><trkpt lat="44.8545061" lon="9.0829678"><ele>256.0</ele><time>2026-03-21T11:20:38.131Z</time></trkpt><trkpt lat="44.8543502" lon="9.08309"><ele>257.3333333333333</ele><time>2026-03-21T11:20:39.132Z</time></trkpt><trkpt lat="44.8541787" lon="9.0832249"><ele>258.6666666666667</ele><time>2026-03-21T11:20:40.132Z</time></trkpt><trkpt lat="44.8540211" lon="9.0833498"><ele>260.0</ele><time>2026-03-21T11:20:41.131Z</time></trkpt><trkpt lat="44.8538719" lon="9.0834743"><ele>260.0</ele><time>2026-03-21T11:20:42.131Z</time></trkpt><trkpt lat="44.8537479" lon="9.083572"><ele>260.0</ele><time>2026-03-21T11:20:43.132Z</time></trkpt><trkpt lat="44.853646" lon="9.0836458"><ele>260.0</ele><time>2026-03-21T11:20:44.132Z</time></trkpt><trkpt lat="44.8535518" lon="9.0836995"><ele>260.0</ele><time>2026-03-21T11:20:45.131Z</time></trkpt><trkpt lat="44.8534827" lon="9.0837028"><ele>260.0</ele><time>2026-03-21T11:20:46.132Z</time></trkpt><trkpt lat="44.8533866" lon="9.0836044"><ele>260.0</ele><time>2026-03-21T11:20:48.131Z</time></trkpt><trkpt lat="44.8534071" lon="9.0834611"><ele>260.0</ele><time>2026-03-21T11:20:50.131Z</time></trkpt><trkpt lat="44.8534615" lon="9.0833972"><ele>260.0</ele><time>2026-03-21T11:20:51.132Z</time></trkpt><trkpt lat="44.8535504" lon="9.0833268"><ele>260.0</ele><time>2026-03-21T11:20:52.132Z</time></trkpt><trkpt lat="44.8536669" lon="9.0832363"><ele>260.0</ele><time>2026-03-21T11:20:53.131Z</time></trkpt><trkpt lat="44.8538245" lon="9.0831055"><ele>265.33333333333337</ele><time>2026-03-21T11:20:54.131Z</time></trkpt><trkpt lat="44.8539771" lon="9.0829783"><ele>270.6666666666667</ele><time>2026-03-21T11:20:55.132Z</time></trkpt><trkpt lat="44.854112" lon="9.0828742"><ele>276.0</ele><time>2026-03-21T11:20:56.131Z</time></trkpt><trkpt lat="44.8542338" lon="9.0827724"><ele>272.5</ele><time>2026-03-21T11:20:57.131Z</time></trkpt><trkpt lat="44.8543502" lon="9.0826679"><ele>269.0</ele><time>2026-03-21T11:20:58.132Z</time></trkpt><trkpt lat="44.8544566" lon="9.0825505"><ele>265.5</ele><time>2026-03-21T11:20:59.131Z</time></trkpt><trkpt lat="44.8545427" lon="9.0824419"><ele>262.0</ele><time>2026-03-21T11:21:00.131Z</time></trkpt><trkpt lat="44.8546059" lon="9.0823397"><ele>262.0</ele><time>2026-03-21T11:21:01.131Z</time></trkpt><trkpt lat="44.8546482" lon="9.0822437"><ele>262.0</ele><time>2026-03-21T11:21:02.131Z</time></trkpt><trkpt lat="44.8546527" lon="9.0820815"><ele>262.0</ele><time>2026-03-21T11:21:04.132Z</time></trkpt><trkpt lat="44.8545669" lon="9.08198"><ele>262.0</ele><time>2026-03-21T11:21:06.131Z</time></trkpt><trkpt lat="44.8544965" lon="9.081975"><ele>262.0</ele><time>2026-03-21T11:21:07.131Z</time></trkpt><trkpt lat="44.8544112" lon="9.0819721"><ele>262.0</ele><time>2026-03-21T11:21:08.131Z</time></trkpt><trkpt lat="44.8543449" lon="9.0819368"><ele>262.0</ele><time>2026-03-21T11:21:09.131Z</time></trkpt><trkpt lat="44.8542857" lon="9.0818647"><ele>262.0</ele><time>2026-03-21T11:21:10.131Z</time></trkpt><trkpt lat="44.8542354" lon="9.0817562"><ele>262.0</ele><time>2026-03-21T11:21:11.132Z</time></trkpt><trkpt lat="44.8541935" lon="9.0816255"><ele>262.0</ele><time>2026-03-21T11:21:12.131Z</time></trkpt><trkpt lat="44.8541386" lon="9.0814549"><ele>267.3333333333333</ele><time>2026-03-21T11:21:13.131Z</time></trkpt><trkpt lat="44.8540818" lon="9.0812585"><ele>272.6666666666667</ele><time>2026-03-21T11:21:14.132Z</time></trkpt><trkpt lat="44.8540111" lon="9.0810334"><ele>278.0</ele><time>2026-03-21T11:21:15.131Z</time></trkpt><trkpt lat="44.8539429" lon="9.0807971"><ele>278.5</ele><time>2026-03-21T11:21:16.132Z</time></trkpt><trkpt lat="44.8538878" lon="9.0805829"><ele>279.0</ele><time>2026-03-21T11:21:17.132Z</time></trkpt><trkpt lat="44.8538342" lon="9.0804063"><ele>279.5</ele><time>2026-03-21T11:21:18.132Z</time></trkpt><trkpt lat="44.8537935" lon="9.0802591"><ele>280.0</ele><time>2026-03-21T11:21:19.132Z</time></trkpt><trkpt lat="44.8537551" lon="9.080136"><ele>280.0</ele><time>2026-03-21T11:21:20.131Z</time></trkpt><trkpt lat="44.8537174" lon="9.0800452"><ele>280.0</ele><time>2026-03-21T11:21:21.131Z</time></trkpt><trkpt lat="44.8536713" lon="9.0799837"><ele>280.0</ele><time>2026-03-21T11:21:22.131Z</time></trkpt><trkpt lat="44.8536099" lon="9.0799444"><ele>280.0</ele><time>2026-03-21T11:21:23.131Z</time></trkpt><trkpt lat="44.8535465" lon="9.0799529"><ele>280.0</ele><time>2026-03-21T11:21:24.131Z</time></trkpt><trkpt lat="44.8534809" lon="9.080003"><ele>280.0</ele><time>2026-03-21T11:21:25.132Z</time></trkpt><trkpt lat="44.8534247" lon="9.0800948"><ele>280.0</ele><time>2026-03-21T11:21:26.132Z</time></trkpt><trkpt lat="44.8533724" lon="9.0802293"><ele>283.3333333333333</ele><time>2026-03-21T11:21:27.131Z</time></trkpt><trkpt lat="44.8533069" lon="9.0804056"><ele>286.6666666666667</ele><time>2026-03-21T11:21:28.132Z</time></trkpt><trkpt lat="44.8532349" lon="9.0805954"><ele>290.0</ele><time>2026-03-21T11:21:29.132Z</time></trkpt><trkpt lat="44.8531535" lon="9.0808208"><ele>290.6666666666667</ele><time>2026-03-21T11:21:30.131Z</time></trkpt><trkpt lat="44.8530608" lon="9.0810679"><ele>291.3333333333333</ele><time>2026-03-21T11:21:31.131Z</time></trkpt><trkpt lat="44.8529829" lon="9.0812857"><ele>292.0</ele><time>2026-03-21T11:21:32.131Z</time></trkpt><trkpt lat="44.8529095" lon="9.081494"><ele>292.0</ele><time>2026-03-21T11:21:33.132Z</time></trkpt><trkpt lat="44.8528394" lon="9.0816784"><ele>292.0</ele><time>2026-03-21T11:21:34.131Z</time></trkpt><trkpt lat="44.8527697" lon="9.0818396"><ele>292.0</ele><time>2026-03-21T11:21:35.131Z</time></trkpt><trkpt lat="44.8526958" lon="9.082007"><ele>292.0</ele><time>2026-03-21T11:21:36.132Z</time></trkpt><trkpt lat="44.8526243" lon="9.0821575"><ele>293.8</ele><time>2026-03-21T11:21:37.131Z</time></trkpt><trkpt lat="44.8525525" lon="9.0822855"><ele>295.6</ele><time>2026-03-21T11:21:38.131Z</time></trkpt><trkpt lat="44.8524774" lon="9.0823824"><ele>297.40000000000003</ele><time>2026-03-21T11:21:39.132Z</time></trkpt><trkpt lat="44.8524146" lon="9.08244"><ele>299.2</ele><time>2026-03-21T11:21:40.131Z</time></trkpt><trkpt lat="44.8523333" lon="9.0824666"><ele>301.0</ele><time>2026-03-21T11:21:41.132Z</time></trkpt><trkpt lat="44.8522365" lon="9.0824646"><ele>301.0</ele><time>2026-03-21T11:21:42.131Z</time></trkpt><trkpt lat="44.852121" lon="9.0824337"><ele>301.0</ele><time>2026-03-21T11:21:43.131Z</time></trkpt><trkpt lat="44.8519871" lon="9.0823774"><ele>301.0</ele><time>2026-03-21T11:21:44.131Z</time></trkpt><trkpt lat="44.8518254" lon="9.0822976"><ele>301.0</ele><time>2026-03-21T11:21:45.131Z</time></trkpt><trkpt lat="44.8516876" lon="9.0822116"><ele>307.75</ele><time>2026-03-21T11:21:46.132Z</time></trkpt><trkpt lat="44.8515401" lon="9.0821031"><ele>314.5</ele><time>2026-03-21T11:21:47.132Z</time></trkpt><trkpt lat="44.8514132" lon="9.0820024"><ele>321.25</ele><time>2026-03-21T11:21:48.132Z</time></trkpt><trkpt lat="44.851312" lon="9.0819058"><ele>328.0</ele><time>2026-03-21T11:21:49.132Z</time></trkpt><trkpt lat="44.8512249" lon="9.0817901"><ele>328.0</ele><time>2026-03-21T11:21:50.131Z</time></trkpt><trkpt lat="44.85115" lon="9.0816403"><ele>328.0</ele><time>2026-03-21T11:21:51.132Z</time></trkpt><trkpt lat="44.8510785" lon="9.0814541"><ele>328.0</ele><time>2026-03-21T11:21:52.132Z</time></trkpt><trkpt lat="44.8510008" lon="9.0812528"><ele>328.0</ele><time>2026-03-21T11:21:53.132Z</time></trkpt><trkpt lat="44.8509297" lon="9.0810878"><ele>329.25</ele><time>2026-03-21T11:21:54.132Z</time></trkpt><trkpt lat="44.8508613" lon="9.0809408"><ele>330.5</ele><time>2026-03-21T11:21:55.131Z</time></trkpt><trkpt lat="44.8507791" lon="9.0808007"><ele>331.75</ele><time>2026-03-21T11:21:56.132Z</time></trkpt><trkpt lat="44.8506722" lon="9.0806866"><ele>333.0</ele><time>2026-03-21T11:21:57.132Z</time></trkpt><trkpt lat="44.8505551" lon="9.0805952"><ele>332.2</ele><time>2026-03-21T11:21:58.132Z</time></trkpt><trkpt lat="44.850461" lon="9.0805278"><ele>331.4</ele><time>2026-03-21T11:21:59.131Z</time></trkpt><trkpt lat="44.8503761" lon="9.0804744"><ele>330.59999999999997</ele><time>2026-03-21T11:22:00.132Z</time></trkpt><trkpt lat="44.8502987" lon="9.0804422"><ele>329.79999999999995</ele><time>2026-03-21T11:22:01.131Z</time></trkpt><trkpt lat="44.8502015" lon="9.0804363"><ele>329.0</ele><time>2026-03-21T11:22:02.132Z</time></trkpt><trkpt lat="44.8500959" lon="9.0804404"><ele>329.0</ele><time>2026-03-21T11:22:03.132Z</time></trkpt><trkpt lat="44.8500104" lon="9.0804466"><ele>329.0</ele><time>2026-03-21T11:22:04.131Z</time></trkpt><trkpt lat="44.849944" lon="9.0804553"><ele>329.0</ele><time>2026-03-21T11:22:05.132Z</time></trkpt><trkpt lat="44.8498286" lon="9.0804657"><ele>329.0</ele><time>2026-03-21T11:22:07.132Z</time></trkpt><trkpt lat="44.8497059" lon="9.0804887"><ele>329.0</ele><time>2026-03-21T11:22:09.132Z</time></trkpt><trkpt lat="44.8496393" lon="9.0805028"><ele>329.0</ele><time>2026-03-21T11:22:10.132Z</time></trkpt><trkpt lat="44.8495567" lon="9.0805329"><ele>329.0</ele><time>2026-03-21T11:22:11.132Z</time></trkpt><trkpt lat="44.849468" lon="9.0805633"><ele>329.0</ele><time>2026-03-21T11:22:12.132Z</time></trkpt><trkpt lat="44.8493761" lon="9.0805892"><ele>329.0</ele><time>2026-03-21T11:22:13.131Z</time></trkpt><trkpt lat="44.8492661" lon="9.0806201"><ele>329.0</ele><time>2026-03-21T11:22:14.131Z</time></trkpt><trkpt lat="44.8491404" lon="9.0806623"><ele>328.25</ele><time>2026-03-21T11:22:15.132Z</time></trkpt><trkpt lat="44.8490058" lon="9.0806953"><ele>327.5</ele><time>2026-03-21T11:22:16.132Z</time></trkpt><trkpt lat="44.8488866" lon="9.0807254"><ele>326.75</ele><time>2026-03-21T11:22:17.132Z</time></trkpt><trkpt lat="44.8487669" lon="9.0807476"><ele>326.0</ele><time>2026-03-21T11:22:18.132Z</time></trkpt><trkpt lat="44.848643" lon="9.080771"><ele>326.0</ele><time>2026-03-21T11:22:19.131Z</time></trkpt><trkpt lat="44.8485172" lon="9.0807983"><ele>326.0</ele><time>2026-03-21T11:22:20.131Z</time></trkpt><trkpt lat="44.8483851" lon="9.0808234"><ele>326.0</ele><time>2026-03-21T11:22:21.131Z</time></trkpt><trkpt lat="44.8482513" lon="9.0808498"><ele>326.0</ele><time>2026-03-21T11:22:22.132Z</time></trkpt><trkpt lat="44.8481116" lon="9.080874"><ele>328.25</ele><time>2026-03-21T11:22:23.131Z</time></trkpt><trkpt lat="44.8479933" lon="9.0808955"><ele>330.5</ele><time>2026-03-21T11:22:24.131Z</time></trkpt><trkpt lat="44.8478785" lon="9.0809216"><ele>332.75</ele><time>2026-03-21T11:22:25.131Z</time></trkpt><trkpt lat="44.8477559" lon="9.0809574"><ele>335.0</ele><time>2026-03-21T11:22:26.131Z</time></trkpt><trkpt lat="44.8476356" lon="9.0810107"><ele>336.6666666666667</ele><time>2026-03-21T11:22:27.131Z</time></trkpt><trkpt lat="44.8475018" lon="9.0810974"><ele>338.3333333333333</ele><time>2026-03-21T11:22:28.131Z</time></trkpt><trkpt lat="44.8473544" lon="9.0811937"><ele>340.0</ele><time>2026-03-21T11:22:29.131Z</time></trkpt><trkpt lat="44.8472119" lon="9.0812981"><ele>340.0</ele><time>2026-03-21T11:22:30.132Z</time></trkpt><trkpt lat="44.8470741" lon="9.0814163"><ele>340.0</ele><time>2026-03-21T11:22:31.132Z</time></trkpt><trkpt lat="44.8469392" lon="9.081551"><ele>340.0</ele><time>2026-03-21T11:22:32.132Z</time></trkpt><trkpt lat="44.846822" lon="9.0816776"><ele>343.0</ele><time>2026-03-21T11:22:33.132Z</time></trkpt><trkpt lat="44.8467208" lon="9.0818013"><ele>346.0</ele><time>2026-03-21T11:22:34.131Z</time></trkpt><trkpt lat="44.8466422" lon="9.0819263"><ele>349.0</ele><time>2026-03-21T11:22:35.132Z</time></trkpt><trkpt lat="44.8465812" lon="9.082046"><ele>352.0</ele><time>2026-03-21T11:22:36.131Z</time></trkpt><trkpt lat="44.8465209" lon="9.0821639"><ele>352.0</ele><time>2026-03-21T11:22:37.132Z</time></trkpt><trkpt lat="44.8464425" lon="9.0822816"><ele>352.0</ele><time>2026-03-21T11:22:38.132Z</time></trkpt><trkpt lat="44.8463622" lon="9.0823662"><ele>352.0</ele><time>2026-03-21T11:22:39.132Z</time></trkpt><trkpt lat="44.8462811" lon="9.0824275"><ele>352.0</ele><time>2026-03-21T11:22:40.132Z</time></trkpt><trkpt lat="44.8462037" lon="9.0824492"><ele>352.0</ele><time>2026-03-21T11:22:41.131Z</time></trkpt><trkpt lat="44.8460976" lon="9.0823716"><ele>352.0</ele><time>2026-03-21T11:22:43.131Z</time></trkpt><trkpt lat="44.8460646" lon="9.0822806"><ele>352.0</ele><time>2026-03-21T11:22:44.131Z</time></trkpt><trkpt lat="44.8460371" lon="9.0821741"><ele>352.0</ele><time>2026-03-21T11:22:45.131Z</time></trkpt><trkpt lat="44.8459977" lon="9.0820959"><ele>352.0</ele><time>2026-03-21T11:22:46.132Z</time></trkpt><trkpt lat="44.8459384" lon="9.0820316"><ele>352.0</ele><time>2026-03-21T11:22:47.131Z</time></trkpt><trkpt lat="44.8458465" lon="9.0819853"><ele>352.0</ele><time>2026-03-21T11:22:48.131Z</time></trkpt><trkpt lat="44.8457157" lon="9.0819531"><ele>354.66666666666663</ele><time>2026-03-21T11:22:49.131Z</time></trkpt><trkpt lat="44.8455591" lon="9.0819207"><ele>357.3333333333333</ele><time>2026-03-21T11:22:50.131Z</time></trkpt><trkpt lat="44.8453725" lon="9.0818881"><ele>360.0</ele><time>2026-03-21T11:22:51.131Z</time></trkpt><trkpt lat="44.8451974" lon="9.0818542"><ele>362.75</ele><time>2026-03-21T11:22:52.131Z</time></trkpt><trkpt lat="44.8450388" lon="9.0818202"><ele>365.5</ele><time>2026-03-21T11:22:53.131Z</time></trkpt><trkpt lat="44.8449015" lon="9.0817817"><ele>368.25</ele><time>2026-03-21T11:22:54.132Z</time></trkpt><trkpt lat="44.8447683" lon="9.0817251"><ele>371.0</ele><time>2026-03-21T11:22:55.131Z</time></trkpt><trkpt lat="44.8446377" lon="9.0816479"><ele>369.0</ele><time>2026-03-21T11:22:56.132Z</time></trkpt><trkpt lat="44.8445241" lon="9.0815708"><ele>367.0</ele><time>2026-03-21T11:22:57.131Z</time></trkpt><trkpt lat="44.8444065" lon="9.0814824"><ele>365.0</ele><time>2026-03-21T11:22:58.131Z</time></trkpt><trkpt lat="44.8443034" lon="9.0813944"><ele>363.0</ele><time>2026-03-21T11:22:59.131Z</time></trkpt><trkpt lat="44.844209" lon="9.0812856"><ele>369.3333333333333</ele><time>2026-03-21T11:23:00.132Z</time></trkpt><trkpt lat="44.8441158" lon="9.0811386"><ele>375.66666666666663</ele><time>2026-03-21T11:23:01.132Z</time></trkpt><trkpt lat="44.844003" lon="9.0809677"><ele>382.0</ele><time>2026-03-21T11:23:02.132Z</time></trkpt><trkpt lat="44.843899" lon="9.0808158"><ele>380.5</ele><time>2026-03-21T11:23:03.131Z</time></trkpt><trkpt lat="44.8438106" lon="9.0806684"><ele>379.0</ele><time>2026-03-21T11:23:04.131Z</time></trkpt><trkpt lat="44.8437129" lon="9.0805098"><ele>377.5</ele><time>2026-03-21T11:23:05.132Z</time></trkpt><trkpt lat="44.8436115" lon="9.0803314"><ele>376.0</ele><time>2026-03-21T11:23:06.132Z</time></trkpt><trkpt lat="44.843527" lon="9.08017"><ele>378.5</ele><time>2026-03-21T11:23:07.132Z</time></trkpt><trkpt lat="44.8434458" lon="9.0800181"><ele>381.0</ele><time>2026-03-21T11:23:08.132Z</time></trkpt><trkpt lat="44.8433481" lon="9.0798716"><ele>383.5</ele><time>2026-03-21T11:23:09.132Z</time></trkpt><trkpt lat="44.8432441" lon="9.079745"><ele>386.0</ele><time>2026-03-21T11:23:10.131Z</time></trkpt><trkpt lat="44.8431392" lon="9.079634"><ele>387.4</ele><time>2026-03-21T11:23:11.131Z</time></trkpt><trkpt lat="44.8430442" lon="9.0795477"><ele>388.8</ele><time>2026-03-21T11:23:12.132Z</time></trkpt><trkpt lat="44.8429561" lon="9.0794688"><ele>390.2</ele><time>2026-03-21T11:23:13.132Z</time></trkpt><trkpt lat="44.8428784" lon="9.0793974"><ele>391.59999999999997</ele><time>2026-03-21T11:23:14.131Z</time></trkpt><trkpt lat="44.8428013" lon="9.0793387"><ele>393.0</ele><time>2026-03-21T11:23:15.132Z</time></trkpt><trkpt lat="44.8427105" lon="9.0792853"><ele>391.75</ele><time>2026-03-21T11:23:16.131Z</time></trkpt><trkpt lat="44.8425958" lon="9.0792426"><ele>390.5</ele><time>2026-03-21T11:23:17.131Z</time></trkpt><trkpt lat="44.8424572" lon="9.0792069"><ele>389.25</ele><time>2026-03-21T11:23:18.132Z</time></trkpt><trkpt lat="44.842314" lon="9.0791793"><ele>388.0</ele><time>2026-03-21T11:23:19.132Z</time></trkpt><trkpt lat="44.8421751" lon="9.0791506"><ele>388.0</ele><time>2026-03-21T11:23:20.131Z</time></trkpt><trkpt lat="44.8420399" lon="9.0791182"><ele>388.0</ele><time>2026-03-21T11:23:21.132Z</time></trkpt><trkpt lat="44.8419102" lon="9.0790742"><ele>388.0</ele><time>2026-03-21T11:23:22.131Z</time></trkpt><trkpt lat="44.8417861" lon="9.0790226"><ele>388.0</ele><time>2026-03-21T11:23:23.131Z</time></trkpt><trkpt lat="44.8416567" lon="9.0789644"><ele>386.0</ele><time>2026-03-21T11:23:24.131Z</time></trkpt><trkpt lat="44.8415142" lon="9.0789122"><ele>384.0</ele><time>2026-03-21T11:23:25.132Z</time></trkpt><trkpt lat="44.8413836" lon="9.0788713"><ele>382.0</ele><time>2026-03-21T11:23:26.132Z</time></trkpt><trkpt lat="44.8412569" lon="9.078825"><ele>380.0</ele><time>2026-03-21T11:23:27.131Z</time></trkpt><trkpt lat="44.8411385" lon="9.0787894"><ele>380.0</ele><time>2026-03-21T11:23:28.131Z</time></trkpt><trkpt lat="44.8410293" lon="9.0787609"><ele>380.0</ele><time>2026-03-21T11:23:29.132Z</time></trkpt><trkpt lat="44.8409253" lon="9.0787333"><ele>380.0</ele><time>2026-03-21T11:23:30.132Z</time></trkpt><trkpt lat="44.8408145" lon="9.0787109"><ele>380.0</ele><time>2026-03-21T11:23:31.132Z</time></trkpt><trkpt lat="44.8406939" lon="9.0786919"><ele>380.0</ele><time>2026-03-21T11:23:32.131Z</time></trkpt><trkpt lat="44.8405651" lon="9.0786814"><ele>380.0</ele><time>2026-03-21T11:23:33.132Z</time></trkpt><trkpt lat="44.840403" lon="9.0786831"><ele>380.0</ele><time>2026-03-21T11:23:34.131Z</time></trkpt><trkpt lat="44.8402483" lon="9.0786832"><ele>380.0</ele><time>2026-03-21T11:23:35.131Z</time></trkpt><trkpt lat="44.8401099" lon="9.078678"><ele>380.0</ele><time>2026-03-21T11:23:36.131Z</time></trkpt><trkpt lat="44.8399738" lon="9.0786762"><ele>380.0</ele><time>2026-03-21T11:23:37.131Z</time></trkpt><trkpt lat="44.8398431" lon="9.0786652"><ele>380.0</ele><time>2026-03-21T11:23:38.132Z</time></trkpt><trkpt lat="44.8397084" lon="9.0786624"><ele>380.0</ele><time>2026-03-21T11:23:39.131Z</time></trkpt><trkpt lat="44.8395772" lon="9.0786769"><ele>380.0</ele><time>2026-03-21T11:23:40.132Z</time></trkpt><trkpt lat="44.8394558" lon="9.0786954"><ele>380.0</ele><time>2026-03-21T11:23:41.132Z</time></trkpt><trkpt lat="44.8393463" lon="9.0787088"><ele>380.0</ele><time>2026-03-21T11:23:42.132Z</time></trkpt><trkpt lat="44.8392368" lon="9.0787154"><ele>380.0</ele><time>2026-03-21T11:23:43.132Z</time></trkpt><trkpt lat="44.8391228" lon="9.0787121"><ele>380.8</ele><time>2026-03-21T11:23:44.131Z</time></trkpt><trkpt lat="44.8390217" lon="9.078703"><ele>381.6</ele><time>2026-03-21T11:23:45.132Z</time></trkpt><trkpt lat="44.8389123" lon="9.0786793"><ele>382.4</ele><time>2026-03-21T11:23:46.132Z</time></trkpt><trkpt lat="44.8388055" lon="9.0786272"><ele>383.2</ele><time>2026-03-21T11:23:47.131Z</time></trkpt><trkpt lat="44.8387081" lon="9.078545"><ele>384.0</ele><time>2026-03-21T11:23:48.132Z</time></trkpt><trkpt lat="44.838615" lon="9.0784414"><ele>384.0</ele><time>2026-03-21T11:23:49.131Z</time></trkpt><trkpt lat="44.8385276" lon="9.078326"><ele>384.0</ele><time>2026-03-21T11:23:50.132Z</time></trkpt><trkpt lat="44.8384403" lon="9.0782174"><ele>384.0</ele><time>2026-03-21T11:23:51.131Z</time></trkpt><trkpt lat="44.838344" lon="9.0781289"><ele>384.0</ele><time>2026-03-21T11:23:52.131Z</time></trkpt><trkpt lat="44.8382333" lon="9.0780597"><ele>384.8333333333333</ele><time>2026-03-21T11:23:53.132Z</time></trkpt><trkpt lat="44.8381198" lon="9.0780014"><ele>385.66666666666663</ele><time>2026-03-21T11:23:54.132Z</time></trkpt><trkpt lat="44.8380269" lon="9.0779559"><ele>386.5</ele><time>2026-03-21T11:23:55.131Z</time></trkpt><trkpt lat="44.8379456" lon="9.0779399"><ele>387.3333333333333</ele><time>2026-03-21T11:23:56.132Z</time></trkpt><trkpt lat="44.8378786" lon="9.0779647"><ele>388.16666666666663</ele><time>2026-03-21T11:23:57.131Z</time></trkpt><trkpt lat="44.8378236" lon="9.0780369"><ele>389.0</ele><time>2026-03-21T11:23:58.131Z</time></trkpt><trkpt lat="44.8378019" lon="9.0781323"><ele>389.79999999999995</ele><time>2026-03-21T11:23:59.132Z</time></trkpt><trkpt lat="44.8378131" lon="9.0783229"><ele>390.59999999999997</ele><time>2026-03-21T11:24:01.131Z</time></trkpt><trkpt lat="44.8377956" lon="9.0784137"><ele>391.4</ele><time>2026-03-21T11:24:02.132Z</time></trkpt><trkpt lat="44.8377062" lon="9.0785088"><ele>392.2</ele><time>2026-03-21T11:24:04.132Z</time></trkpt><trkpt lat="44.8376432" lon="9.0785093"><ele>393.0</ele><time>2026-03-21T11:24:05.132Z</time></trkpt><trkpt lat="44.8375706" lon="9.0784693"><ele>394.4</ele><time>2026-03-21T11:24:06.132Z</time></trkpt><trkpt lat="44.8374896" lon="9.0783888"><ele>395.79999999999995</ele><time>2026-03-21T11:24:07.131Z</time></trkpt><trkpt lat="44.8374001" lon="9.0783113"><ele>397.2</ele><time>2026-03-21T11:24:08.132Z</time></trkpt><trkpt lat="44.8373117" lon="9.0782554"><ele>398.6</ele><time>2026-03-21T11:24:09.131Z</time></trkpt><trkpt lat="44.8372141" lon="9.0782246"><ele>400.0</ele><time>2026-03-21T11:24:10.132Z</time></trkpt><trkpt lat="44.8371025" lon="9.0782335"><ele>401.75</ele><time>2026-03-21T11:24:11.132Z</time></trkpt><trkpt lat="44.8369625" lon="9.078275"><ele>403.5</ele><time>2026-03-21T11:24:12.131Z</time></trkpt><trkpt lat="44.8368034" lon="9.07833"><ele>405.25</ele><time>2026-03-21T11:24:13.132Z</time></trkpt><trkpt lat="44.8366674" lon="9.0783792"><ele>407.0</ele><time>2026-03-21T11:24:14.131Z</time></trkpt><trkpt lat="44.8365452" lon="9.0784195"><ele>409.40000000000003</ele><time>2026-03-21T11:24:15.131Z</time></trkpt><trkpt lat="44.8364386" lon="9.0784538"><ele>411.8</ele><time>2026-03-21T11:24:16.132Z</time></trkpt><trkpt lat="44.836331" lon="9.078475"><ele>414.2</ele><time>2026-03-21T11:24:17.131Z</time></trkpt><trkpt lat="44.8362369" lon="9.0784686"><ele>416.6</ele><time>2026-03-21T11:24:18.132Z</time></trkpt><trkpt lat="44.8361395" lon="9.0784284"><ele>419.0</ele><time>2026-03-21T11:24:19.132Z</time></trkpt><trkpt lat="44.8360387" lon="9.0783785"><ele>422.0</ele><time>2026-03-21T11:24:20.132Z</time></trkpt><trkpt lat="44.8359469" lon="9.0782812"><ele>425.0</ele><time>2026-03-21T11:24:21.131Z</time></trkpt><trkpt lat="44.8358582" lon="9.078222"><ele>428.0</ele><time>2026-03-21T11:24:22.131Z</time></trkpt><trkpt lat="44.8357496" lon="9.0781773"><ele>431.0</ele><time>2026-03-21T11:24:23.131Z</time></trkpt><trkpt lat="44.8356251" lon="9.078162"><ele>431.0</ele><time>2026-03-21T11:24:24.131Z</time></trkpt><trkpt lat="44.8355165" lon="9.0781634"><ele>431.0</ele><time>2026-03-21T11:24:25.131Z</time></trkpt><trkpt lat="44.8354238" lon="9.0781527"><ele>431.0</ele><time>2026-03-21T11:24:26.132Z</time></trkpt><trkpt lat="44.8353299" lon="9.0781205"><ele>431.0</ele><time>2026-03-21T11:24:27.131Z</time></trkpt><trkpt lat="44.8352386" lon="9.0780532"><ele>431.0</ele><time>2026-03-21T11:24:28.131Z</time></trkpt><trkpt lat="44.8351655" lon="9.0779448"><ele>434.5</ele><time>2026-03-21T11:24:29.132Z</time></trkpt><trkpt lat="44.8351033" lon="9.0777992"><ele>438.0</ele><time>2026-03-21T11:24:30.132Z</time></trkpt><trkpt lat="44.8350415" lon="9.0776361"><ele>441.5</ele><time>2026-03-21T11:24:31.132Z</time></trkpt><trkpt lat="44.8350011" lon="9.077491"><ele>445.0</ele><time>2026-03-21T11:24:32.132Z</time></trkpt><trkpt lat="44.8349878" lon="9.0773311"><ele>445.2</ele><time>2026-03-21T11:24:33.131Z</time></trkpt><trkpt lat="44.8349974" lon="9.0771627"><ele>445.4</ele><time>2026-03-21T11:24:34.132Z</time></trkpt><trkpt lat="44.8350199" lon="9.07699"><ele>445.6</ele><time>2026-03-21T11:24:35.132Z</time></trkpt><trkpt lat="44.8350403" lon="9.0768415"><ele>445.8</ele><time>2026-03-21T11:24:36.132Z</time></trkpt><trkpt lat="44.8350606" lon="9.0767064"><ele>446.0</ele><time>2026-03-21T11:24:37.132Z</time></trkpt><trkpt lat="44.8350699" lon="9.076587"><ele>445.99999999999994</ele><time>2026-03-21T11:24:38.131Z</time></trkpt><trkpt lat="44.8350633" lon="9.0764846"><ele>446.0</ele><time>2026-03-21T11:24:39.132Z</time></trkpt><trkpt lat="44.8349805" lon="9.076342"><ele>446.0</ele><time>2026-03-21T11:24:41.131Z</time></trkpt><trkpt lat="44.8349184" lon="9.0763227"><ele>446.0</ele><time>2026-03-21T11:24:42.132Z</time></trkpt><trkpt lat="44.834849" lon="9.0763484"><ele>445.99999999999994</ele><time>2026-03-21T11:24:43.131Z</time></trkpt><trkpt lat="44.8347876" lon="9.0764221"><ele>446.0</ele><time>2026-03-21T11:24:44.132Z</time></trkpt><trkpt lat="44.8347365" lon="9.0765117"><ele>446.0</ele><time>2026-03-21T11:24:45.132Z</time></trkpt><trkpt lat="44.8346769" lon="9.0765792"><ele>446.0</ele><time>2026-03-21T11:24:46.132Z</time></trkpt><trkpt lat="44.8345712" lon="9.0765905"><ele>446.0</ele><time>2026-03-21T11:24:48.132Z</time></trkpt><trkpt lat="44.834502" lon="9.0764484"><ele>446.0</ele><time>2026-03-21T11:24:50.132Z</time></trkpt><trkpt lat="44.8344511" lon="9.0763618"><ele>446.0</ele><time>2026-03-21T11:24:51.132Z</time></trkpt><trkpt lat="44.8343777" lon="9.0762912"><ele>448.0</ele><time>2026-03-21T11:24:52.132Z</time></trkpt><trkpt lat="44.8342937" lon="9.0762459"><ele>450.0</ele><time>2026-03-21T11:24:53.131Z</time></trkpt><trkpt lat="44.8342008" lon="9.0762339"><ele>452.0</ele><time>2026-03-21T11:24:54.131Z</time></trkpt><trkpt lat="44.8340904" lon="9.0762527"><ele>454.0</ele><time>2026-03-21T11:24:55.132Z</time></trkpt><trkpt lat="44.8339698" lon="9.0763"><ele>456.0</ele><time>2026-03-21T11:24:56.131Z</time></trkpt><trkpt lat="44.833842" lon="9.0763648"><ele>456.0</ele><time>2026-03-21T11:24:57.131Z</time></trkpt><trkpt lat="44.833713" lon="9.0764247"><ele>456.0</ele><time>2026-03-21T11:24:58.131Z</time></trkpt><trkpt lat="44.833596" lon="9.0764678"><ele>456.0</ele><time>2026-03-21T11:24:59.131Z</time></trkpt><trkpt lat="44.8334698" lon="9.0764979"><ele>456.0</ele><time>2026-03-21T11:25:00.132Z</time></trkpt><trkpt lat="44.8333425" lon="9.0765035"><ele>457.75</ele><time>2026-03-21T11:25:01.132Z</time></trkpt><trkpt lat="44.833212" lon="9.0764781"><ele>459.5</ele><time>2026-03-21T11:25:02.131Z</time></trkpt><trkpt lat="44.8330764" lon="9.0764381"><ele>461.25</ele><time>2026-03-21T11:25:03.132Z</time></trkpt><trkpt lat="44.8329453" lon="9.0763707"><ele>463.0</ele><time>2026-03-21T11:25:04.132Z</time></trkpt><trkpt lat="44.8328126" lon="9.0762745"><ele>463.0</ele><time>2026-03-21T11:25:05.131Z</time></trkpt><trkpt lat="44.8326885" lon="9.0761581"><ele>463.0</ele><time>2026-03-21T11:25:06.131Z</time></trkpt><trkpt lat="44.8325733" lon="9.0760327"><ele>463.0</ele><time>2026-03-21T11:25:07.132Z</time></trkpt><trkpt lat="44.8324816" lon="9.0759002"><ele>463.0</ele><time>2026-03-21T11:25:08.132Z</time></trkpt><trkpt lat="44.8323938" lon="9.0757627"><ele>463.2</ele><time>2026-03-21T11:25:09.132Z</time></trkpt><trkpt lat="44.8323317" lon="9.0756541"><ele>463.4</ele><time>2026-03-21T11:25:10.132Z</time></trkpt><trkpt lat="44.8322823" lon="9.0755709"><ele>463.59999999999997</ele><time>2026-03-21T11:25:11.132Z</time></trkpt><trkpt lat="44.832193" lon="9.0755073"><ele>463.79999999999995</ele><time>2026-03-21T11:25:13.132Z</time></trkpt><trkpt lat="44.8321194" lon="9.0755768"><ele>464.0</ele><time>2026-03-21T11:25:15.131Z</time></trkpt><trkpt lat="44.8321438" lon="9.0757325"><ele>465.66666666666663</ele><time>2026-03-21T11:25:17.132Z</time></trkpt><trkpt lat="44.8321757" lon="9.0758298"><ele>467.3333333333333</ele><time>2026-03-21T11:25:18.132Z</time></trkpt><trkpt lat="44.8321966" lon="9.0759332"><ele>469.0</ele><time>2026-03-21T11:25:19.131Z</time></trkpt><trkpt lat="44.8322014" lon="9.0760344"><ele>470.66666666666663</ele><time>2026-03-21T11:25:20.131Z</time></trkpt><trkpt lat="44.832191" lon="9.0761236"><ele>472.3333333333333</ele><time>2026-03-21T11:25:21.131Z</time></trkpt><trkpt lat="44.8321206" lon="9.0762159"><ele>474.0</ele><time>2026-03-21T11:25:23.131Z</time></trkpt><trkpt lat="44.8320347" lon="9.0761517"><ele>474.0</ele><time>2026-03-21T11:25:25.131Z</time></trkpt><trkpt lat="44.8320027" lon="9.0760672"><ele>474.0</ele><time>2026-03-21T11:25:26.132Z</time></trkpt><trkpt lat="44.8319627" lon="9.0759738"><ele>474.0</ele><time>2026-03-21T11:25:27.131Z</time></trkpt><trkpt lat="44.8319087" lon="9.0758974"><ele>474.0</ele><time>2026-03-21T11:25:28.132Z</time></trkpt><trkpt lat="44.8318479" lon="9.0758301"><ele>474.0</ele><time>2026-03-21T11:25:29.131Z</time></trkpt><trkpt lat="44.8317721" lon="9.0757909"><ele>474.0</ele><time>2026-03-21T11:25:30.132Z</time></trkpt><trkpt lat="44.8316754" lon="9.0757703"><ele>475.25</ele><time>2026-03-21T11:25:31.132Z</time></trkpt><trkpt lat="44.8315708" lon="9.0757686"><ele>476.5</ele><time>2026-03-21T11:25:32.132Z</time></trkpt><trkpt lat="44.8314563" lon="9.0757883"><ele>477.75</ele><time>2026-03-21T11:25:33.132Z</time></trkpt><trkpt lat="44.8313312" lon="9.0758042"><ele>479.0</ele><time>2026-03-21T11:25:34.132Z</time></trkpt><trkpt lat="44.831201" lon="9.0758127"><ele>481.75</ele><time>2026-03-21T11:25:35.132Z</time></trkpt><trkpt lat="44.8310717" lon="9.0758011"><ele>484.5</ele><time>2026-03-21T11:25:36.132Z</time></trkpt><trkpt lat="44.8309346" lon="9.0757878"><ele>487.25</ele><time>2026-03-21T11:25:37.131Z</time></trkpt><trkpt lat="44.8307954" lon="9.0757651"><ele>490.0</ele><time>2026-03-21T11:25:38.131Z</time></trkpt><trkpt lat="44.8306627" lon="9.0757409"><ele>490.75</ele><time>2026-03-21T11:25:39.132Z</time></trkpt><trkpt lat="44.8305017" lon="9.0757298"><ele>491.5</ele><time>2026-03-21T11:25:40.132Z</time></trkpt><trkpt lat="44.8303558" lon="9.0757288"><ele>492.25</ele><time>2026-03-21T11:25:41.132Z</time></trkpt><trkpt lat="44.8302209" lon="9.0757206"><ele>493.0</ele><time>2026-03-21T11:25:42.132Z</time></trkpt><trkpt lat="44.8300915" lon="9.0757076"><ele>494.59999999999997</ele><time>2026-03-21T11:25:43.131Z</time></trkpt><trkpt lat="44.82998" lon="9.0756837"><ele>496.19999999999993</ele><time>2026-03-21T11:25:44.132Z</time></trkpt><trkpt lat="44.8298821" lon="9.0756524"><ele>497.8</ele><time>2026-03-21T11:25:45.131Z</time></trkpt><trkpt lat="44.8298091" lon="9.0756154"><ele>499.4</ele><time>2026-03-21T11:25:46.131Z</time></trkpt><trkpt lat="44.8297071" lon="9.0755241"><ele>501.0</ele><time>2026-03-21T11:25:48.132Z</time></trkpt><trkpt lat="44.8296615" lon="9.0754416"><ele>501.0</ele><time>2026-03-21T11:25:49.132Z</time></trkpt><trkpt lat="44.8296324" lon="9.0753593"><ele>501.0</ele><time>2026-03-21T11:25:50.131Z</time></trkpt><trkpt lat="44.8296166" lon="9.0752395"><ele>501.0</ele><time>2026-03-21T11:25:52.132Z</time></trkpt><trkpt lat="44.8295894" lon="9.0751556"><ele>501.0</ele><time>2026-03-21T11:27:36.131Z</time></trkpt><trkpt lat="44.8295229" lon="9.0750681"><ele>501.0</ele><time>2026-03-21T11:35:09.131Z</time></trkpt><trkpt lat="44.8294506" lon="9.0749622"><ele>501.0</ele><time>2026-03-21T11:35:11.131Z</time></trkpt><trkpt lat="44.8293577" lon="9.0748358"><ele>499.8571428571429</ele><time>2026-03-21T11:35:13.131Z</time></trkpt><trkpt lat="44.8293114" lon="9.0747607"><ele>498.71428571428567</ele><time>2026-03-21T11:35:14.132Z</time></trkpt><trkpt lat="44.8292772" lon="9.0746729"><ele>497.57142857142856</ele><time>2026-03-21T11:35:15.132Z</time></trkpt><trkpt lat="44.8292749" lon="9.0745837"><ele>496.42857142857144</ele><time>2026-03-21T11:35:16.131Z</time></trkpt><trkpt lat="44.8293093" lon="9.0744955"><ele>495.28571428571433</ele><time>2026-03-21T11:35:17.131Z</time></trkpt><trkpt lat="44.8293327" lon="9.0743882"><ele>494.1428571428571</ele><time>2026-03-21T11:35:18.132Z</time></trkpt><trkpt lat="44.8293399" lon="9.0742623"><ele>493.0</ele><time>2026-03-21T11:35:19.131Z</time></trkpt><trkpt lat="44.8293382" lon="9.0741245"><ele>492.4</ele><time>2026-03-21T11:35:20.132Z</time></trkpt><trkpt lat="44.8293305" lon="9.0739706"><ele>491.79999999999995</ele><time>2026-03-21T11:35:21.132Z</time></trkpt><trkpt lat="44.8293205" lon="9.0738143"><ele>491.2</ele><time>2026-03-21T11:35:22.131Z</time></trkpt><trkpt lat="44.8293131" lon="9.0736505"><ele>490.6</ele><time>2026-03-21T11:35:23.131Z</time></trkpt><trkpt lat="44.8293034" lon="9.0734929"><ele>490.0</ele><time>2026-03-21T11:35:24.132Z</time></trkpt><trkpt lat="44.8292959" lon="9.0733338"><ele>490.6</ele><time>2026-03-21T11:35:25.131Z</time></trkpt><trkpt lat="44.8292938" lon="9.0732312"><ele>491.2</ele><time>2026-03-21T11:35:26.132Z</time></trkpt><trkpt lat="44.8293145" lon="9.073118"><ele>491.79999999999995</ele><time>2026-03-21T11:35:32.131Z</time></trkpt><trkpt lat="44.8294429" lon="9.0730189"><ele>492.4</ele><time>2026-03-21T11:35:34.131Z</time></trkpt><trkpt lat="44.8295194" lon="9.0729416"><ele>493.0</ele><time>2026-03-21T11:35:35.131Z</time></trkpt><trkpt lat="44.8295938" lon="9.0728553"><ele>493.0</ele><time>2026-03-21T11:35:36.132Z</time></trkpt><trkpt lat="44.8296674" lon="9.0727624"><ele>492.99999999999994</ele><time>2026-03-21T11:35:37.131Z</time></trkpt><trkpt lat="44.8297226" lon="9.0726516"><ele>492.99999999999994</ele><time>2026-03-21T11:35:38.131Z</time></trkpt><trkpt lat="44.8297589" lon="9.0725245"><ele>493.0</ele><time>2026-03-21T11:35:39.131Z</time></trkpt><trkpt lat="44.8297879" lon="9.0723819"><ele>493.0</ele><time>2026-03-21T11:35:40.132Z</time></trkpt><trkpt lat="44.8298171" lon="9.0722228"><ele>493.2</ele><time>2026-03-21T11:35:41.132Z</time></trkpt><trkpt lat="44.8298517" lon="9.0720697"><ele>493.4</ele><time>2026-03-21T11:35:42.132Z</time></trkpt><trkpt lat="44.8298777" lon="9.0719181"><ele>493.59999999999997</ele><time>2026-03-21T11:35:43.132Z</time></trkpt><trkpt lat="44.8298892" lon="9.0717732"><ele>493.79999999999995</ele><time>2026-03-21T11:35:44.131Z</time></trkpt><trkpt lat="44.8298877" lon="9.0716444"><ele>494.0</ele><time>2026-03-21T11:35:45.132Z</time></trkpt><trkpt lat="44.8298727" lon="9.0715339"><ele>492.8333333333333</ele><time>2026-03-21T11:35:46.132Z</time></trkpt><trkpt lat="44.8298324" lon="9.0714436"><ele>491.66666666666663</ele><time>2026-03-21T11:35:47.132Z</time></trkpt><trkpt lat="44.8297759" lon="9.0713839"><ele>490.5</ele><time>2026-03-21T11:35:48.131Z</time></trkpt><trkpt lat="44.8297003" lon="9.0713415"><ele>489.33333333333337</ele><time>2026-03-21T11:35:49.132Z</time></trkpt><trkpt lat="44.8296118" lon="9.0713123"><ele>488.1666666666667</ele><time>2026-03-21T11:35:50.132Z</time></trkpt><trkpt lat="44.8295119" lon="9.0712944"><ele>487.0</ele><time>2026-03-21T11:35:51.131Z</time></trkpt><trkpt lat="44.8294125" lon="9.0712761"><ele>487.00000000000006</ele><time>2026-03-21T11:35:52.131Z</time></trkpt><trkpt lat="44.8293175" lon="9.0712516"><ele>487.0</ele><time>2026-03-21T11:35:53.132Z</time></trkpt><trkpt lat="44.8292265" lon="9.0712257"><ele>487.0</ele><time>2026-03-21T11:35:54.131Z</time></trkpt><trkpt lat="44.8291418" lon="9.0712076"><ele>487.0</ele><time>2026-03-21T11:35:55.132Z</time></trkpt><trkpt lat="44.829064" lon="9.0711868"><ele>487.00000000000006</ele><time>2026-03-21T11:35:56.131Z</time></trkpt><trkpt lat="44.8289923" lon="9.0711721"><ele>487.0</ele><time>2026-03-21T11:35:57.131Z</time></trkpt><trkpt lat="44.8289198" lon="9.071159"><ele>488.1666666666667</ele><time>2026-03-21T11:35:58.131Z</time></trkpt><trkpt lat="44.8288446" lon="9.0711418"><ele>489.33333333333337</ele><time>2026-03-21T11:35:59.132Z</time></trkpt><trkpt lat="44.8287665" lon="9.0711228"><ele>490.5</ele><time>2026-03-21T11:36:00.132Z</time></trkpt><trkpt lat="44.8286843" lon="9.0710993"><ele>491.66666666666663</ele><time>2026-03-21T11:36:01.131Z</time></trkpt><trkpt lat="44.8286088" lon="9.071052"><ele>492.8333333333333</ele><time>2026-03-21T11:36:02.131Z</time></trkpt><trkpt lat="44.8285413" lon="9.0709759"><ele>494.0</ele><time>2026-03-21T11:36:03.132Z</time></trkpt><trkpt lat="44.8284814" lon="9.0708839"><ele>493.0</ele><time>2026-03-21T11:36:04.131Z</time></trkpt><trkpt lat="44.8284181" lon="9.0708026"><ele>492.0</ele><time>2026-03-21T11:36:05.132Z</time></trkpt><trkpt lat="44.8283483" lon="9.0707354"><ele>491.0</ele><time>2026-03-21T11:36:06.131Z</time></trkpt><trkpt lat="44.8282624" lon="9.0707012"><ele>490.0</ele><time>2026-03-21T11:36:07.132Z</time></trkpt><trkpt lat="44.8281619" lon="9.0706875"><ele>489.0</ele><time>2026-03-21T11:36:08.131Z</time></trkpt><trkpt lat="44.8280571" lon="9.0707186"><ele>493.25</ele><time>2026-03-21T11:36:09.132Z</time></trkpt><trkpt lat="44.8279541" lon="9.0707871"><ele>497.5</ele><time>2026-03-21T11:36:10.131Z</time></trkpt><trkpt lat="44.8278618" lon="9.0708781"><ele>501.75</ele><time>2026-03-21T11:36:11.132Z</time></trkpt><trkpt lat="44.8277654" lon="9.0709737"><ele>506.0</ele><time>2026-03-21T11:36:12.131Z</time></trkpt><trkpt lat="44.8276668" lon="9.071059"><ele>505.75</ele><time>2026-03-21T11:36:13.131Z</time></trkpt><trkpt lat="44.8275593" lon="9.0711397"><ele>505.5</ele><time>2026-03-21T11:36:14.132Z</time></trkpt><trkpt lat="44.8274514" lon="9.0711994"><ele>505.25</ele><time>2026-03-21T11:36:15.132Z</time></trkpt><trkpt lat="44.8273369" lon="9.0712382"><ele>505.0</ele><time>2026-03-21T11:36:16.132Z</time></trkpt><trkpt lat="44.8272201" lon="9.071253"><ele>505.0</ele><time>2026-03-21T11:36:17.132Z</time></trkpt><trkpt lat="44.8271033" lon="9.0712341"><ele>505.0</ele><time>2026-03-21T11:36:18.131Z</time></trkpt><trkpt lat="44.8269861" lon="9.0711844"><ele>505.0</ele><time>2026-03-21T11:36:19.132Z</time></trkpt><trkpt lat="44.8268712" lon="9.0711129"><ele>505.0</ele><time>2026-03-21T11:36:20.132Z</time></trkpt><trkpt lat="44.8267586" lon="9.0710179"><ele>505.75</ele><time>2026-03-21T11:36:21.131Z</time></trkpt><trkpt lat="44.8266466" lon="9.0709113"><ele>506.5</ele><time>2026-03-21T11:36:22.132Z</time></trkpt><trkpt lat="44.8265341" lon="9.0708024"><ele>507.25</ele><time>2026-03-21T11:36:23.131Z</time></trkpt><trkpt lat="44.826424" lon="9.0707016"><ele>508.0</ele><time>2026-03-21T11:36:24.132Z</time></trkpt><trkpt lat="44.8263125" lon="9.0706044"><ele>505.75</ele><time>2026-03-21T11:36:25.131Z</time></trkpt><trkpt lat="44.8261938" lon="9.0705157"><ele>503.5</ele><time>2026-03-21T11:36:26.131Z</time></trkpt><trkpt lat="44.8260678" lon="9.0704414"><ele>501.25</ele><time>2026-03-21T11:36:27.132Z</time></trkpt><trkpt lat="44.8259401" lon="9.0703744"><ele>499.0</ele><time>2026-03-21T11:36:28.132Z</time></trkpt><trkpt lat="44.8258074" lon="9.0703013"><ele>498.75</ele><time>2026-03-21T11:36:29.131Z</time></trkpt><trkpt lat="44.825679" lon="9.0702192"><ele>498.5</ele><time>2026-03-21T11:36:30.132Z</time></trkpt><trkpt lat="44.8255611" lon="9.0701167"><ele>498.25</ele><time>2026-03-21T11:36:31.131Z</time></trkpt><trkpt lat="44.8254443" lon="9.0700048"><ele>498.0</ele><time>2026-03-21T11:36:32.132Z</time></trkpt><trkpt lat="44.8253307" lon="9.0698792"><ele>498.5</ele><time>2026-03-21T11:36:33.132Z</time></trkpt><trkpt lat="44.8252214" lon="9.0697415"><ele>499.0</ele><time>2026-03-21T11:36:34.132Z</time></trkpt><trkpt lat="44.825122" lon="9.0695868"><ele>499.5</ele><time>2026-03-21T11:36:35.131Z</time></trkpt><trkpt lat="44.8250266" lon="9.0694191"><ele>500.0</ele><time>2026-03-21T11:36:36.132Z</time></trkpt><trkpt lat="44.8249326" lon="9.0692454"><ele>496.75</ele><time>2026-03-21T11:36:37.131Z</time></trkpt><trkpt lat="44.8248521" lon="9.069061"><ele>493.5</ele><time>2026-03-21T11:36:38.131Z</time></trkpt><trkpt lat="44.8247781" lon="9.0688784"><ele>490.25</ele><time>2026-03-21T11:36:39.132Z</time></trkpt><trkpt lat="44.8247068" lon="9.0687069"><ele>487.0</ele><time>2026-03-21T11:36:40.132Z</time></trkpt><trkpt lat="44.8246252" lon="9.0685534"><ele>487.0</ele><time>2026-03-21T11:36:41.132Z</time></trkpt><trkpt lat="44.8245381" lon="9.0684137"><ele>487.0</ele><time>2026-03-21T11:36:42.131Z</time></trkpt><trkpt lat="44.824447" lon="9.0682831"><ele>487.0</ele><time>2026-03-21T11:36:43.131Z</time></trkpt><trkpt lat="44.82435" lon="9.0681525"><ele>487.0</ele><time>2026-03-21T11:36:44.132Z</time></trkpt><trkpt lat="44.8242541" lon="9.0680233"><ele>486.25</ele><time>2026-03-21T11:36:45.131Z</time></trkpt><trkpt lat="44.82415" lon="9.0679034"><ele>485.5</ele><time>2026-03-21T11:36:46.131Z</time></trkpt><trkpt lat="44.824037" lon="9.0677878"><ele>484.75</ele><time>2026-03-21T11:36:47.132Z</time></trkpt><trkpt lat="44.8239221" lon="9.0676869"><ele>484.0</ele><time>2026-03-21T11:36:48.131Z</time></trkpt><trkpt lat="44.8238055" lon="9.067607"><ele>484.0</ele><time>2026-03-21T11:36:49.131Z</time></trkpt><trkpt lat="44.8236796" lon="9.0675558"><ele>484.0</ele><time>2026-03-21T11:36:50.132Z</time></trkpt><trkpt lat="44.8235443" lon="9.0675315"><ele>484.0</ele><time>2026-03-21T11:36:51.132Z</time></trkpt><trkpt lat="44.8234044" lon="9.0675288"><ele>484.0</ele><time>2026-03-21T11:36:52.131Z</time></trkpt><trkpt lat="44.8232656" lon="9.0675361"><ele>484.0</ele><time>2026-03-21T11:36:53.132Z</time></trkpt><trkpt lat="44.8231237" lon="9.0675559"><ele>484.0</ele><time>2026-03-21T11:36:54.132Z</time></trkpt><trkpt lat="44.8229874" lon="9.0675944"><ele>484.0</ele><time>2026-03-21T11:36:55.132Z</time></trkpt><trkpt lat="44.8228602" lon="9.0676468"><ele>484.0</ele><time>2026-03-21T11:36:56.131Z</time></trkpt><trkpt lat="44.8227424" lon="9.0677059"><ele>484.6</ele><time>2026-03-21T11:36:57.132Z</time></trkpt><trkpt lat="44.822632" lon="9.0677592"><ele>485.2</ele><time>2026-03-21T11:36:58.132Z</time></trkpt><trkpt lat="44.8225306" lon="9.067789"><ele>485.80000000000007</ele><time>2026-03-21T11:36:59.131Z</time></trkpt><trkpt lat="44.8224444" lon="9.0677678"><ele>486.40000000000003</ele><time>2026-03-21T11:37:00.131Z</time></trkpt><trkpt lat="44.8223717" lon="9.067688"><ele>487.0</ele><time>2026-03-21T11:37:01.132Z</time></trkpt><trkpt lat="44.8223259" lon="9.0675643"><ele>485.8</ele><time>2026-03-21T11:37:02.131Z</time></trkpt><trkpt lat="44.8222967" lon="9.0674141"><ele>484.6</ele><time>2026-03-21T11:37:03.131Z</time></trkpt><trkpt lat="44.8222806" lon="9.0672547"><ele>483.40000000000003</ele><time>2026-03-21T11:37:04.132Z</time></trkpt><trkpt lat="44.8222682" lon="9.0671001"><ele>482.20000000000005</ele><time>2026-03-21T11:37:05.132Z</time></trkpt><trkpt lat="44.8222618" lon="9.0669539"><ele>481.0</ele><time>2026-03-21T11:37:06.131Z</time></trkpt><trkpt lat="44.8222622" lon="9.0668231"><ele>481.00000000000006</ele><time>2026-03-21T11:37:07.132Z</time></trkpt><trkpt lat="44.8222797" lon="9.0667049"><ele>481.0</ele><time>2026-03-21T11:37:08.131Z</time></trkpt><trkpt lat="44.8223084" lon="9.0665853"><ele>481.0</ele><time>2026-03-21T11:37:09.131Z</time></trkpt><trkpt lat="44.8223402" lon="9.0664661"><ele>481.0</ele><time>2026-03-21T11:37:10.131Z</time></trkpt><trkpt lat="44.8223692" lon="9.0663481"><ele>481.00000000000006</ele><time>2026-03-21T11:37:11.132Z</time></trkpt><trkpt lat="44.8224015" lon="9.0662283"><ele>481.0</ele><time>2026-03-21T11:37:12.132Z</time></trkpt><trkpt lat="44.8224298" lon="9.0661149"><ele>479.83333333333337</ele><time>2026-03-21T11:37:13.131Z</time></trkpt><trkpt lat="44.8224469" lon="9.0659937"><ele>478.6666666666667</ele><time>2026-03-21T11:37:14.132Z</time></trkpt><trkpt lat="44.8224323" lon="9.0658793"><ele>477.5</ele><time>2026-03-21T11:37:15.132Z</time></trkpt><trkpt lat="44.8223877" lon="9.0657953"><ele>476.33333333333337</ele><time>2026-03-21T11:37:16.132Z</time></trkpt><trkpt lat="44.8223138" lon="9.0657286"><ele>475.1666666666667</ele><time>2026-03-21T11:37:17.131Z</time></trkpt><trkpt lat="44.8222266" lon="9.0656845"><ele>474.0</ele><time>2026-03-21T11:37:18.132Z</time></trkpt><trkpt lat="44.8221276" lon="9.0656589"><ele>475.0</ele><time>2026-03-21T11:37:19.131Z</time></trkpt><trkpt lat="44.822024" lon="9.0656585"><ele>476.0</ele><time>2026-03-21T11:37:20.132Z</time></trkpt><trkpt lat="44.8219193" lon="9.0656848"><ele>477.0</ele><time>2026-03-21T11:37:21.131Z</time></trkpt><trkpt lat="44.8218178" lon="9.0657279"><ele>478.0</ele><time>2026-03-21T11:37:22.132Z</time></trkpt><trkpt lat="44.8217169" lon="9.0657649"><ele>479.0</ele><time>2026-03-21T11:37:23.132Z</time></trkpt><trkpt lat="44.8216185" lon="9.0658051"><ele>479.0</ele><time>2026-03-21T11:37:24.132Z</time></trkpt><trkpt lat="44.8215258" lon="9.0658264"><ele>479.0</ele><time>2026-03-21T11:37:25.132Z</time></trkpt><trkpt lat="44.8214442" lon="9.0658118"><ele>479.0</ele><time>2026-03-21T11:37:26.131Z</time></trkpt><trkpt lat="44.8213965" lon="9.0657501"><ele>479.0</ele><time>2026-03-21T11:37:27.132Z</time></trkpt><trkpt lat="44.8214322" lon="9.0655579"><ele>479.0</ele><time>2026-03-21T11:37:29.132Z</time></trkpt><trkpt lat="44.8215018" lon="9.0654547"><ele>474.25</ele><time>2026-03-21T11:37:30.131Z</time></trkpt><trkpt lat="44.8215789" lon="9.0653235"><ele>469.5</ele><time>2026-03-21T11:37:31.131Z</time></trkpt><trkpt lat="44.8216646" lon="9.0651716"><ele>464.75</ele><time>2026-03-21T11:37:32.131Z</time></trkpt><trkpt lat="44.8217508" lon="9.0650156"><ele>460.0</ele><time>2026-03-21T11:37:33.132Z</time></trkpt><trkpt lat="44.8218349" lon="9.0648731"><ele>456.0</ele><time>2026-03-21T11:37:34.132Z</time></trkpt><trkpt lat="44.8219116" lon="9.0647393"><ele>452.0</ele><time>2026-03-21T11:37:35.132Z</time></trkpt><trkpt lat="44.8219726" lon="9.0646071"><ele>448.0</ele><time>2026-03-21T11:37:36.131Z</time></trkpt><trkpt lat="44.8219973" lon="9.0644609"><ele>444.0</ele><time>2026-03-21T11:37:37.132Z</time></trkpt><trkpt lat="44.8219776" lon="9.0643206"><ele>440.0</ele><time>2026-03-21T11:37:38.131Z</time></trkpt><trkpt lat="44.821937" lon="9.0641696"><ele>439.75</ele><time>2026-03-21T11:37:39.131Z</time></trkpt><trkpt lat="44.8218875" lon="9.0640024"><ele>439.5</ele><time>2026-03-21T11:37:40.132Z</time></trkpt><trkpt lat="44.8218293" lon="9.0638267"><ele>439.25</ele><time>2026-03-21T11:37:41.132Z</time></trkpt><trkpt lat="44.8217672" lon="9.0636486"><ele>439.0</ele><time>2026-03-21T11:37:42.131Z</time></trkpt><trkpt lat="44.8216979" lon="9.0634707"><ele>439.0</ele><time>2026-03-21T11:37:43.131Z</time></trkpt><trkpt lat="44.8216217" lon="9.0633077"><ele>439.0</ele><time>2026-03-21T11:37:44.132Z</time></trkpt><trkpt lat="44.8215459" lon="9.0631541"><ele>439.0</ele><time>2026-03-21T11:37:45.131Z</time></trkpt><trkpt lat="44.8214746" lon="9.063001"><ele>439.0</ele><time>2026-03-21T11:37:46.132Z</time></trkpt><trkpt lat="44.8214225" lon="9.0628424"><ele>437.2</ele><time>2026-03-21T11:37:47.131Z</time></trkpt><trkpt lat="44.8214001" lon="9.0626926"><ele>435.4</ele><time>2026-03-21T11:37:48.131Z</time></trkpt><trkpt lat="44.8214151" lon="9.0625461"><ele>433.6</ele><time>2026-03-21T11:37:49.132Z</time></trkpt><trkpt lat="44.8214571" lon="9.0624148"><ele>431.8</ele><time>2026-03-21T11:37:50.131Z</time></trkpt><trkpt lat="44.8214825" lon="9.0622818"><ele>430.0</ele><time>2026-03-21T11:37:51.132Z</time></trkpt><trkpt lat="44.8214812" lon="9.0621594"><ele>428.83333333333337</ele><time>2026-03-21T11:37:52.131Z</time></trkpt><trkpt lat="44.82144" lon="9.0620558"><ele>427.6666666666667</ele><time>2026-03-21T11:37:53.132Z</time></trkpt><trkpt lat="44.8213782" lon="9.0619991"><ele>426.5</ele><time>2026-03-21T11:37:54.131Z</time></trkpt><trkpt lat="44.8213009" lon="9.0619982"><ele>425.33333333333337</ele><time>2026-03-21T11:37:55.132Z</time></trkpt><trkpt lat="44.8212236" lon="9.0620551"><ele>424.1666666666667</ele><time>2026-03-21T11:37:56.132Z</time></trkpt><trkpt lat="44.8211435" lon="9.0621342"><ele>423.0</ele><time>2026-03-21T11:37:57.131Z</time></trkpt><trkpt lat="44.8210545" lon="9.0621921"><ele>422.5</ele><time>2026-03-21T11:37:58.131Z</time></trkpt><trkpt lat="44.8209702" lon="9.0622121"><ele>422.0</ele><time>2026-03-21T11:37:59.132Z</time></trkpt><trkpt lat="44.8208981" lon="9.0621704"><ele>421.5</ele><time>2026-03-21T11:38:00.131Z</time></trkpt><trkpt lat="44.8208605" lon="9.0620753"><ele>421.0</ele><time>2026-03-21T11:38:01.132Z</time></trkpt><trkpt lat="44.8208512" lon="9.0619444"><ele>420.5</ele><time>2026-03-21T11:38:02.131Z</time></trkpt><trkpt lat="44.8208523" lon="9.0617827"><ele>420.0</ele><time>2026-03-21T11:38:03.132Z</time></trkpt><trkpt lat="44.8208489" lon="9.0615987"><ele>418.5</ele><time>2026-03-21T11:38:04.131Z</time></trkpt><trkpt lat="44.8208443" lon="9.0613994"><ele>417.0</ele><time>2026-03-21T11:38:05.132Z</time></trkpt><trkpt lat="44.8208426" lon="9.0611921"><ele>415.5</ele><time>2026-03-21T11:38:06.131Z</time></trkpt><trkpt lat="44.8208457" lon="9.0609888"><ele>414.0</ele><time>2026-03-21T11:38:07.131Z</time></trkpt><trkpt lat="44.8208533" lon="9.0607978"><ele>411.5</ele><time>2026-03-21T11:38:08.132Z</time></trkpt><trkpt lat="44.8208717" lon="9.0606232"><ele>409.0</ele><time>2026-03-21T11:38:09.131Z</time></trkpt><trkpt lat="44.8209133" lon="9.0604667"><ele>406.5</ele><time>2026-03-21T11:38:10.131Z</time></trkpt><trkpt lat="44.8209907" lon="9.0603253"><ele>404.0</ele><time>2026-03-21T11:38:11.131Z</time></trkpt><trkpt lat="44.8210969" lon="9.060206"><ele>403.3333333333333</ele><time>2026-03-21T11:38:12.132Z</time></trkpt><trkpt lat="44.8212292" lon="9.0600899"><ele>402.66666666666663</ele><time>2026-03-21T11:38:13.132Z</time></trkpt><trkpt lat="44.8213641" lon="9.0599723"><ele>402.0</ele><time>2026-03-21T11:38:14.131Z</time></trkpt><trkpt lat="44.8214951" lon="9.0598279"><ele>399.33333333333337</ele><time>2026-03-21T11:38:15.131Z</time></trkpt><trkpt lat="44.8216098" lon="9.0596578"><ele>396.6666666666667</ele><time>2026-03-21T11:38:16.132Z</time></trkpt><trkpt lat="44.8217097" lon="9.0594733"><ele>394.0</ele><time>2026-03-21T11:38:17.131Z</time></trkpt><trkpt lat="44.8218015" lon="9.0592938"><ele>392.25</ele><time>2026-03-21T11:38:18.132Z</time></trkpt><trkpt lat="44.8218848" lon="9.0591256"><ele>390.5</ele><time>2026-03-21T11:38:19.132Z</time></trkpt><trkpt lat="44.8219561" lon="9.0589605"><ele>388.75</ele><time>2026-03-21T11:38:20.132Z</time></trkpt><trkpt lat="44.8220073" lon="9.0588016"><ele>387.0</ele><time>2026-03-21T11:38:21.132Z</time></trkpt><trkpt lat="44.8220294" lon="9.0586551"><ele>387.0</ele><time>2026-03-21T11:38:22.131Z</time></trkpt><trkpt lat="44.8220227" lon="9.0585242"><ele>387.0</ele><time>2026-03-21T11:38:23.132Z</time></trkpt><trkpt lat="44.821979" lon="9.058396"><ele>387.0</ele><time>2026-03-21T11:38:24.131Z</time></trkpt><trkpt lat="44.8219041" lon="9.0582838"><ele>387.0</ele><time>2026-03-21T11:38:25.131Z</time></trkpt><trkpt lat="44.8218168" lon="9.0581834"><ele>387.0</ele><time>2026-03-21T11:38:26.132Z</time></trkpt><trkpt lat="44.8217257" lon="9.0580923"><ele>387.40000000000003</ele><time>2026-03-21T11:38:27.132Z</time></trkpt><trkpt lat="44.8216321" lon="9.0580103"><ele>387.8</ele><time>2026-03-21T11:38:28.132Z</time></trkpt><trkpt lat="44.8215349" lon="9.057937"><ele>388.2</ele><time>2026-03-21T11:38:29.132Z</time></trkpt><trkpt lat="44.8214411" lon="9.057867"><ele>388.6</ele><time>2026-03-21T11:38:30.132Z</time></trkpt><trkpt lat="44.8213493" lon="9.0577993"><ele>389.0</ele><time>2026-03-21T11:38:31.131Z</time></trkpt><trkpt lat="44.8212531" lon="9.0577448"><ele>389.0</ele><time>2026-03-21T11:38:32.132Z</time></trkpt><trkpt lat="44.8211575" lon="9.0576915"><ele>389.0</ele><time>2026-03-21T11:38:33.131Z</time></trkpt><trkpt lat="44.8210627" lon="9.0576437"><ele>389.0</ele><time>2026-03-21T11:38:34.131Z</time></trkpt><trkpt lat="44.8209644" lon="9.0575969"><ele>389.0</ele><time>2026-03-21T11:38:35.132Z</time></trkpt><trkpt lat="44.8208628" lon="9.0575467"><ele>389.0</ele><time>2026-03-21T11:38:36.132Z</time></trkpt><trkpt lat="44.8207576" lon="9.0574847"><ele>387.75</ele><time>2026-03-21T11:38:37.132Z</time></trkpt><trkpt lat="44.8206527" lon="9.0574068"><ele>386.5</ele><time>2026-03-21T11:38:38.132Z</time></trkpt><trkpt lat="44.820555" lon="9.0573131"><ele>385.25</ele><time>2026-03-21T11:38:39.132Z</time></trkpt><trkpt lat="44.8204636" lon="9.0571996"><ele>384.0</ele><time>2026-03-21T11:38:40.132Z</time></trkpt><trkpt lat="44.8203785" lon="9.0570749"><ele>384.0</ele><time>2026-03-21T11:38:41.131Z</time></trkpt><trkpt lat="44.820305" lon="9.0569505"><ele>384.0</ele><time>2026-03-21T11:38:42.131Z</time></trkpt><trkpt lat="44.8202275" lon="9.056849"><ele>384.0</ele><time>2026-03-21T11:38:43.132Z</time></trkpt><trkpt lat="44.8201393" lon="9.0567934"><ele>384.0</ele><time>2026-03-21T11:38:44.131Z</time></trkpt><trkpt lat="44.8200598" lon="9.0567854"><ele>384.0</ele><time>2026-03-21T11:38:45.132Z</time></trkpt><trkpt lat="44.8199814" lon="9.0568376"><ele>381.25</ele><time>2026-03-21T11:38:46.132Z</time></trkpt><trkpt lat="44.8199065" lon="9.0569299"><ele>378.5</ele><time>2026-03-21T11:38:47.131Z</time></trkpt><trkpt lat="44.8198201" lon="9.0570426"><ele>375.75</ele><time>2026-03-21T11:38:48.131Z</time></trkpt><trkpt lat="44.8197194" lon="9.0571622"><ele>373.0</ele><time>2026-03-21T11:38:49.131Z</time></trkpt><trkpt lat="44.8196027" lon="9.0572805"><ele>373.0</ele><time>2026-03-21T11:38:50.132Z</time></trkpt><trkpt lat="44.819479" lon="9.0573966"><ele>373.0</ele><time>2026-03-21T11:38:51.131Z</time></trkpt><trkpt lat="44.8193578" lon="9.0575147"><ele>373.0</ele><time>2026-03-21T11:38:52.131Z</time></trkpt><trkpt lat="44.8192361" lon="9.057625"><ele>373.0</ele><time>2026-03-21T11:38:53.131Z</time></trkpt><trkpt lat="44.8191147" lon="9.0577231"><ele>369.5</ele><time>2026-03-21T11:38:54.132Z</time></trkpt><trkpt lat="44.8189855" lon="9.0578012"><ele>366.0</ele><time>2026-03-21T11:38:55.132Z</time></trkpt><trkpt lat="44.8188568" lon="9.05787"><ele>362.5</ele><time>2026-03-21T11:38:56.132Z</time></trkpt><trkpt lat="44.81873" lon="9.0579177"><ele>359.0</ele><time>2026-03-21T11:38:57.131Z</time></trkpt><trkpt lat="44.8186099" lon="9.0579659"><ele>359.0</ele><time>2026-03-21T11:38:58.132Z</time></trkpt><trkpt lat="44.8184995" lon="9.0580172"><ele>359.0</ele><time>2026-03-21T11:38:59.132Z</time></trkpt><trkpt lat="44.8184001" lon="9.058018"><ele>359.0</ele><time>2026-03-21T11:39:00.132Z</time></trkpt><trkpt lat="44.8183072" lon="9.0579608"><ele>359.0</ele><time>2026-03-21T11:39:01.132Z</time></trkpt><trkpt lat="44.8182329" lon="9.0578506"><ele>359.0</ele><time>2026-03-21T11:39:02.132Z</time></trkpt><trkpt lat="44.8181793" lon="9.0576895"><ele>357.0</ele><time>2026-03-21T11:39:03.132Z</time></trkpt><trkpt lat="44.818123" lon="9.0575192"><ele>355.0</ele><time>2026-03-21T11:39:04.131Z</time></trkpt><trkpt lat="44.8180564" lon="9.0573628"><ele>353.0</ele><time>2026-03-21T11:39:05.131Z</time></trkpt><trkpt lat="44.8179646" lon="9.0572315"><ele>351.0</ele><time>2026-03-21T11:39:06.132Z</time></trkpt><trkpt lat="44.817853" lon="9.0571373"><ele>351.0</ele><time>2026-03-21T11:39:07.132Z</time></trkpt><trkpt lat="44.8177212" lon="9.0570741"><ele>351.0</ele><time>2026-03-21T11:39:08.131Z</time></trkpt><trkpt lat="44.8175801" lon="9.05702"><ele>351.0</ele><time>2026-03-21T11:39:09.131Z</time></trkpt><trkpt lat="44.8174277" lon="9.0569566"><ele>351.0</ele><time>2026-03-21T11:39:10.131Z</time></trkpt><trkpt lat="44.8172641" lon="9.0568868"><ele>348.6666666666667</ele><time>2026-03-21T11:39:11.131Z</time></trkpt><trkpt lat="44.8171044" lon="9.0568184"><ele>346.33333333333337</ele><time>2026-03-21T11:39:12.132Z</time></trkpt><trkpt lat="44.8169505" lon="9.0567545"><ele>344.0</ele><time>2026-03-21T11:39:13.132Z</time></trkpt><trkpt lat="44.8167981" lon="9.056696"><ele>342.5</ele><time>2026-03-21T11:39:14.131Z</time></trkpt><trkpt lat="44.8166528" lon="9.056664"><ele>341.0</ele><time>2026-03-21T11:39:15.131Z</time></trkpt><trkpt lat="44.8165155" lon="9.0566557"><ele>339.5</ele><time>2026-03-21T11:39:16.131Z</time></trkpt><trkpt lat="44.8163824" lon="9.0566432"><ele>338.0</ele><time>2026-03-21T11:39:17.132Z</time></trkpt><trkpt lat="44.8162547" lon="9.0565961"><ele>338.0</ele><time>2026-03-21T11:39:18.132Z</time></trkpt><trkpt lat="44.8161424" lon="9.0564897"><ele>338.0</ele><time>2026-03-21T11:39:19.132Z</time></trkpt><trkpt lat="44.8160554" lon="9.0563467"><ele>338.0</ele><time>2026-03-21T11:39:20.132Z</time></trkpt><trkpt lat="44.8159876" lon="9.0562048"><ele>338.0</ele><time>2026-03-21T11:39:21.132Z</time></trkpt><trkpt lat="44.8159574" lon="9.05604"><ele>336.75</ele><time>2026-03-21T11:39:22.131Z</time></trkpt><trkpt lat="44.8159397" lon="9.0558527"><ele>335.5</ele><time>2026-03-21T11:39:23.131Z</time></trkpt><trkpt lat="44.8159273" lon="9.0556568"><ele>334.25</ele><time>2026-03-21T11:39:24.132Z</time></trkpt><trkpt lat="44.8159045" lon="9.05545"><ele>333.0</ele><time>2026-03-21T11:39:25.131Z</time></trkpt><trkpt lat="44.8158656" lon="9.0552423"><ele>333.3333333333333</ele><time>2026-03-21T11:39:26.131Z</time></trkpt><trkpt lat="44.8158237" lon="9.0550264"><ele>333.66666666666663</ele><time>2026-03-21T11:39:27.132Z</time></trkpt><trkpt lat="44.8157756" lon="9.0548053"><ele>334.0</ele><time>2026-03-21T11:39:28.131Z</time></trkpt><trkpt lat="44.8157151" lon="9.0545857"><ele>334.0</ele><time>2026-03-21T11:39:29.132Z</time></trkpt><trkpt lat="44.815634" lon="9.0543788"><ele>334.0</ele><time>2026-03-21T11:39:30.131Z</time></trkpt><trkpt lat="44.8155405" lon="9.0541665"><ele>334.0</ele><time>2026-03-21T11:39:31.131Z</time></trkpt><trkpt lat="44.8154323" lon="9.0539629"><ele>330.66666666666663</ele><time>2026-03-21T11:39:32.131Z</time></trkpt><trkpt lat="44.815316" lon="9.0537754"><ele>327.3333333333333</ele><time>2026-03-21T11:39:33.132Z</time></trkpt><trkpt lat="44.8151951" lon="9.0536111"><ele>324.0</ele><time>2026-03-21T11:39:34.131Z</time></trkpt><trkpt lat="44.8150734" lon="9.0534645"><ele>324.0</ele><time>2026-03-21T11:39:35.132Z</time></trkpt><trkpt lat="44.8149555" lon="9.0533331"><ele>324.0</ele><time>2026-03-21T11:39:36.131Z</time></trkpt><trkpt lat="44.8148353" lon="9.0532148"><ele>324.0</ele><time>2026-03-21T11:39:37.132Z</time></trkpt><trkpt lat="44.8147147" lon="9.0531272"><ele>324.0</ele><time>2026-03-21T11:39:38.131Z</time></trkpt><trkpt lat="44.8145997" lon="9.0530597"><ele>322.25</ele><time>2026-03-21T11:39:39.132Z</time></trkpt><trkpt lat="44.8144958" lon="9.0529703"><ele>320.5</ele><time>2026-03-21T11:39:40.132Z</time></trkpt><trkpt lat="44.8143885" lon="9.0528487"><ele>318.75</ele><time>2026-03-21T11:39:41.131Z</time></trkpt><trkpt lat="44.8142709" lon="9.0527152"><ele>317.0</ele><time>2026-03-21T11:39:42.131Z</time></trkpt><trkpt lat="44.8141383" lon="9.0525664"><ele>317.33333333333337</ele><time>2026-03-21T11:39:43.131Z</time></trkpt><trkpt lat="44.814" lon="9.0523988"><ele>317.6666666666667</ele><time>2026-03-21T11:39:44.132Z</time></trkpt><trkpt lat="44.8138558" lon="9.0522146"><ele>318.0</ele><time>2026-03-21T11:39:45.132Z</time></trkpt><trkpt lat="44.8137214" lon="9.0520141"><ele>318.0</ele><time>2026-03-21T11:39:46.132Z</time></trkpt><trkpt lat="44.8135862" lon="9.0518086"><ele>318.0</ele><time>2026-03-21T11:39:47.131Z</time></trkpt><trkpt lat="44.8134645" lon="9.0515849"><ele>318.0</ele><time>2026-03-21T11:39:48.132Z</time></trkpt><trkpt lat="44.8133556" lon="9.0513528"><ele>314.0</ele><time>2026-03-21T11:39:49.131Z</time></trkpt><trkpt lat="44.8132476" lon="9.0511164"><ele>310.0</ele><time>2026-03-21T11:39:50.131Z</time></trkpt><trkpt lat="44.8131423" lon="9.0508917"><ele>306.0</ele><time>2026-03-21T11:39:51.132Z</time></trkpt><trkpt lat="44.8130494" lon="9.0506733"><ele>305.6666666666667</ele><time>2026-03-21T11:39:52.131Z</time></trkpt><trkpt lat="44.8129659" lon="9.0504717"><ele>305.33333333333337</ele><time>2026-03-21T11:39:53.131Z</time></trkpt><trkpt lat="44.812883" lon="9.0502843"><ele>305.0</ele><time>2026-03-21T11:39:54.131Z</time></trkpt><trkpt lat="44.8128027" lon="9.0501095"><ele>305.0</ele><time>2026-03-21T11:39:55.131Z</time></trkpt><trkpt lat="44.8127151" lon="9.0499544"><ele>305.0</ele><time>2026-03-21T11:39:56.131Z</time></trkpt><trkpt lat="44.8126086" lon="9.0498248"><ele>305.0</ele><time>2026-03-21T11:39:57.131Z</time></trkpt><trkpt lat="44.8124946" lon="9.049724"><ele>305.0</ele><time>2026-03-21T11:39:58.132Z</time></trkpt><trkpt lat="44.8123676" lon="9.0496324"><ele>304.5</ele><time>2026-03-21T11:39:59.131Z</time></trkpt><trkpt lat="44.8122404" lon="9.0495447"><ele>304.0</ele><time>2026-03-21T11:40:00.131Z</time></trkpt><trkpt lat="44.8121132" lon="9.0494579"><ele>303.5</ele><time>2026-03-21T11:40:01.131Z</time></trkpt><trkpt lat="44.8119865" lon="9.049364"><ele>303.0</ele><time>2026-03-21T11:40:02.132Z</time></trkpt><trkpt lat="44.8118609" lon="9.0492488"><ele>301.0</ele><time>2026-03-21T11:40:03.132Z</time></trkpt><trkpt lat="44.8117494" lon="9.0491095"><ele>299.0</ele><time>2026-03-21T11:40:04.132Z</time></trkpt><trkpt lat="44.8116496" lon="9.0489402"><ele>297.0</ele><time>2026-03-21T11:40:05.132Z</time></trkpt><trkpt lat="44.8115727" lon="9.0487397"><ele>297.0</ele><time>2026-03-21T11:40:06.132Z</time></trkpt><trkpt lat="44.811515" lon="9.0485108"><ele>297.0</ele><time>2026-03-21T11:40:07.131Z</time></trkpt><trkpt lat="44.8114733" lon="9.0482675"><ele>297.0</ele><time>2026-03-21T11:40:08.131Z</time></trkpt><trkpt lat="44.8114308" lon="9.0480074"><ele>297.0</ele><time>2026-03-21T11:40:09.132Z</time></trkpt><trkpt lat="44.811386" lon="9.0477426"><ele>297.0</ele><time>2026-03-21T11:40:10.131Z</time></trkpt><trkpt lat="44.8113425" lon="9.0474697"><ele>297.0</ele><time>2026-03-21T11:40:11.131Z</time></trkpt><trkpt lat="44.8113047" lon="9.0472033"><ele>296.3333333333333</ele><time>2026-03-21T11:40:12.132Z</time></trkpt><trkpt lat="44.8112751" lon="9.0469489"><ele>295.66666666666663</ele><time>2026-03-21T11:40:13.132Z</time></trkpt><trkpt lat="44.811262" lon="9.0467059"><ele>295.0</ele><time>2026-03-21T11:40:14.132Z</time></trkpt><trkpt lat="44.811286" lon="9.0464781"><ele>293.66666666666663</ele><time>2026-03-21T11:40:15.132Z</time></trkpt><trkpt lat="44.8113416" lon="9.0462542"><ele>292.3333333333333</ele><time>2026-03-21T11:40:16.131Z</time></trkpt><trkpt lat="44.8114313" lon="9.0460671"><ele>291.0</ele><time>2026-03-21T11:40:17.132Z</time></trkpt><trkpt lat="44.8115535" lon="9.0459117"><ele>290.0</ele><time>2026-03-21T11:40:18.131Z</time></trkpt><trkpt lat="44.8116965" lon="9.0457663"><ele>289.0</ele><time>2026-03-21T11:40:19.132Z</time></trkpt><trkpt lat="44.8118549" lon="9.0456284"><ele>288.0</ele><time>2026-03-21T11:40:20.132Z</time></trkpt><trkpt lat="44.8120218" lon="9.0454909"><ele>288.0</ele><time>2026-03-21T11:40:21.132Z</time></trkpt><trkpt lat="44.8121834" lon="9.0453587"><ele>288.0</ele><time>2026-03-21T11:40:22.131Z</time></trkpt><trkpt lat="44.8123525" lon="9.0452107"><ele>288.0</ele><time>2026-03-21T11:40:23.132Z</time></trkpt><trkpt lat="44.8125255" lon="9.0450595"><ele>289.0</ele><time>2026-03-21T11:40:24.131Z</time></trkpt><trkpt lat="44.8126989" lon="9.0449103"><ele>290.0</ele><time>2026-03-21T11:40:25.132Z</time></trkpt><trkpt lat="44.8128629" lon="9.0447649"><ele>291.0</ele><time>2026-03-21T11:40:26.131Z</time></trkpt><trkpt lat="44.8130173" lon="9.044632"><ele>291.0</ele><time>2026-03-21T11:40:27.131Z</time></trkpt><trkpt lat="44.8131539" lon="9.0444994"><ele>291.0</ele><time>2026-03-21T11:40:28.131Z</time></trkpt><trkpt lat="44.8132799" lon="9.0443583"><ele>291.0</ele><time>2026-03-21T11:40:29.132Z</time></trkpt><trkpt lat="44.813387" lon="9.0441957"><ele>290.0</ele><time>2026-03-21T11:40:30.131Z</time></trkpt><trkpt lat="44.8134698" lon="9.0440159"><ele>289.0</ele><time>2026-03-21T11:40:31.132Z</time></trkpt><trkpt lat="44.8135352" lon="9.0438283"><ele>288.0</ele><time>2026-03-21T11:40:32.132Z</time></trkpt><trkpt lat="44.8135934" lon="9.0436357"><ele>287.0</ele><time>2026-03-21T11:40:33.131Z</time></trkpt><trkpt lat="44.813649" lon="9.0434492"><ele>285.25</ele><time>2026-03-21T11:40:34.132Z</time></trkpt><trkpt lat="44.8137015" lon="9.0432744"><ele>283.5</ele><time>2026-03-21T11:40:35.131Z</time></trkpt><trkpt lat="44.8137439" lon="9.0431029"><ele>281.75</ele><time>2026-03-21T11:40:36.132Z</time></trkpt><trkpt lat="44.813767" lon="9.0429348"><ele>280.0</ele><time>2026-03-21T11:40:37.131Z</time></trkpt><trkpt lat="44.8137757" lon="9.0427747"><ele>280.0</ele><time>2026-03-21T11:40:38.132Z</time></trkpt><trkpt lat="44.8137686" lon="9.0426271"><ele>280.0</ele><time>2026-03-21T11:40:39.132Z</time></trkpt><trkpt lat="44.813748" lon="9.042487"><ele>280.0</ele><time>2026-03-21T11:40:40.131Z</time></trkpt><trkpt lat="44.8137247" lon="9.0423539"><ele>280.0</ele><time>2026-03-21T11:40:41.131Z</time></trkpt><trkpt lat="44.8137035" lon="9.0422283"><ele>280.0</ele><time>2026-03-21T11:40:42.132Z</time></trkpt><trkpt lat="44.8136799" lon="9.0421113"><ele>279.8333333333333</ele><time>2026-03-21T11:40:43.132Z</time></trkpt><trkpt lat="44.813658" lon="9.0420063"><ele>279.66666666666663</ele><time>2026-03-21T11:40:44.131Z</time></trkpt><trkpt lat="44.8136425" lon="9.0419061"><ele>279.5</ele><time>2026-03-21T11:40:45.132Z</time></trkpt><trkpt lat="44.813626" lon="9.0418164"><ele>279.3333333333333</ele><time>2026-03-21T11:40:46.132Z</time></trkpt><trkpt lat="44.8136102" lon="9.0417255"><ele>279.1666666666667</ele><time>2026-03-21T11:40:47.132Z</time></trkpt><trkpt lat="44.8135823" lon="9.0415588"><ele>279.0</ele><time>2026-03-21T11:40:49.131Z</time></trkpt><trkpt lat="44.8135537" lon="9.0414106"><ele>279.5</ele><time>2026-03-21T11:40:51.131Z</time></trkpt><trkpt lat="44.8135245" lon="9.041273"><ele>280.0</ele><time>2026-03-21T11:40:53.131Z</time></trkpt><trkpt lat="44.8135081" lon="9.041158"><ele>280.5</ele><time>2026-03-21T11:40:55.132Z</time></trkpt><trkpt lat="44.8134891" lon="9.041066"><ele>281.0</ele><time>2026-03-21T11:40:58.131Z</time></trkpt><trkpt lat="44.8135165" lon="9.0409613"><ele>281.5</ele><time>2026-03-21T11:41:32.131Z</time></trkpt><trkpt lat="44.8135993" lon="9.0409013"><ele>282.0</ele><time>2026-03-21T11:41:34.131Z</time></trkpt><trkpt lat="44.8136927" lon="9.040841"><ele>282.14285714285717</ele><time>2026-03-21T11:41:36.132Z</time></trkpt><trkpt lat="44.8137786" lon="9.0407913"><ele>282.2857142857143</ele><time>2026-03-21T11:41:38.132Z</time></trkpt><trkpt lat="44.8138515" lon="9.0407604"><ele>282.42857142857144</ele><time>2026-03-21T11:41:40.131Z</time></trkpt><trkpt lat="44.8139187" lon="9.0407453"><ele>282.57142857142856</ele><time>2026-03-21T11:41:43.131Z</time></trkpt><trkpt lat="44.8138578" lon="9.0406947"><ele>282.7142857142857</ele><time>2026-03-21T11:41:59.132Z</time></trkpt><trkpt lat="44.813903" lon="9.0406176"><ele>282.8571428571429</ele><time>2026-03-21T11:44:47.132Z</time></trkpt><trkpt lat="44.8138516" lon="9.040671"><ele>283.0</ele><time>2026-03-21T13:03:38.132Z</time></trkpt><trkpt lat="44.8137822" lon="9.0407244"><ele>283.0</ele><time>2026-03-21T13:08:23.132Z</time></trkpt><trkpt lat="44.813705" lon="9.0407908"><ele>283.0</ele><time>2026-03-21T13:08:26.132Z</time></trkpt><trkpt lat="44.81364" lon="9.0408342"><ele>283.0</ele><time>2026-03-21T13:08:28.131Z</time></trkpt><trkpt lat="44.8135622" lon="9.0408809"><ele>283.0</ele><time>2026-03-21T13:08:30.131Z</time></trkpt><trkpt lat="44.8134568" lon="9.0409301"><ele>283.0</ele><time>2026-03-21T13:08:32.132Z</time></trkpt><trkpt lat="44.8133372" lon="9.0409822"><ele>283.6</ele><time>2026-03-21T13:08:34.132Z</time></trkpt><trkpt lat="44.8132148" lon="9.041015"><ele>284.20000000000005</ele><time>2026-03-21T13:08:36.131Z</time></trkpt><trkpt lat="44.8131509" lon="9.0410277"><ele>284.8</ele><time>2026-03-21T13:08:37.132Z</time></trkpt><trkpt lat="44.8130243" lon="9.0410444"><ele>285.40000000000003</ele><time>2026-03-21T13:08:39.132Z</time></trkpt><trkpt lat="44.8129563" lon="9.0410466"><ele>286.0</ele><time>2026-03-21T13:08:40.131Z</time></trkpt><trkpt lat="44.8128863" lon="9.0410455"><ele>286.0</ele><time>2026-03-21T13:08:41.131Z</time></trkpt><trkpt lat="44.8128142" lon="9.041043"><ele>286.0</ele><time>2026-03-21T13:08:42.132Z</time></trkpt><trkpt lat="44.8127441" lon="9.0410491"><ele>286.0</ele><time>2026-03-21T13:08:43.131Z</time></trkpt><trkpt lat="44.8126698" lon="9.0410494"><ele>286.0</ele><time>2026-03-21T13:08:44.132Z</time></trkpt><trkpt lat="44.8125913" lon="9.0410511"><ele>286.0</ele><time>2026-03-21T13:08:45.131Z</time></trkpt><trkpt lat="44.8125155" lon="9.0410476"><ele>286.0</ele><time>2026-03-21T13:08:46.132Z</time></trkpt><trkpt lat="44.8124325" lon="9.0410517"><ele>286.5</ele><time>2026-03-21T13:08:47.131Z</time></trkpt><trkpt lat="44.8123599" lon="9.0410619"><ele>287.0</ele><time>2026-03-21T13:08:48.131Z</time></trkpt><trkpt lat="44.8122866" lon="9.0410704"><ele>287.5</ele><time>2026-03-21T13:08:49.132Z</time></trkpt><trkpt lat="44.8122026" lon="9.0410873"><ele>288.0</ele><time>2026-03-21T13:08:50.132Z</time></trkpt><trkpt lat="44.8121184" lon="9.0411104"><ele>288.5</ele><time>2026-03-21T13:08:51.132Z</time></trkpt><trkpt lat="44.8120285" lon="9.0411307"><ele>289.0</ele><time>2026-03-21T13:08:52.131Z</time></trkpt><trkpt lat="44.8119325" lon="9.0411565"><ele>289.0</ele><time>2026-03-21T13:08:53.131Z</time></trkpt><trkpt lat="44.8118323" lon="9.0411925"><ele>289.0</ele><time>2026-03-21T13:08:54.132Z</time></trkpt><trkpt lat="44.8117248" lon="9.0412484"><ele>289.0</ele><time>2026-03-21T13:08:55.131Z</time></trkpt><trkpt lat="44.8116254" lon="9.0413231"><ele>289.0</ele><time>2026-03-21T13:08:56.132Z</time></trkpt><trkpt lat="44.8115273" lon="9.0414151"><ele>289.0</ele><time>2026-03-21T13:08:57.131Z</time></trkpt><trkpt lat="44.8114313" lon="9.0415208"><ele>288.0</ele><time>2026-03-21T13:08:58.132Z</time></trkpt><trkpt lat="44.8113339" lon="9.0416254"><ele>287.0</ele><time>2026-03-21T13:08:59.132Z</time></trkpt><trkpt lat="44.8112266" lon="9.0417345"><ele>286.0</ele><time>2026-03-21T13:09:00.132Z</time></trkpt><trkpt lat="44.8111074" lon="9.0418296"><ele>285.0</ele><time>2026-03-21T13:09:01.132Z</time></trkpt><trkpt lat="44.8109839" lon="9.0419324"><ele>284.75</ele><time>2026-03-21T13:09:02.131Z</time></trkpt><trkpt lat="44.8108582" lon="9.0420246"><ele>284.5</ele><time>2026-03-21T13:09:03.131Z</time></trkpt><trkpt lat="44.8107255" lon="9.0421236"><ele>284.25</ele><time>2026-03-21T13:09:04.131Z</time></trkpt><trkpt lat="44.8105899" lon="9.0422242"><ele>284.0</ele><time>2026-03-21T13:09:05.132Z</time></trkpt><trkpt lat="44.8104548" lon="9.0423264"><ele>284.0</ele><time>2026-03-21T13:09:06.132Z</time></trkpt><trkpt lat="44.81032" lon="9.0424276"><ele>284.0</ele><time>2026-03-21T13:09:07.131Z</time></trkpt><trkpt lat="44.810183" lon="9.042528"><ele>284.0</ele><time>2026-03-21T13:09:08.132Z</time></trkpt><trkpt lat="44.8100465" lon="9.0426285"><ele>285.0</ele><time>2026-03-21T13:09:09.132Z</time></trkpt><trkpt lat="44.8099092" lon="9.0427277"><ele>286.0</ele><time>2026-03-21T13:09:10.132Z</time></trkpt><trkpt lat="44.8097649" lon="9.0428237"><ele>287.0</ele><time>2026-03-21T13:09:11.131Z</time></trkpt><trkpt lat="44.8096193" lon="9.0429149"><ele>287.0</ele><time>2026-03-21T13:09:12.131Z</time></trkpt><trkpt lat="44.8094739" lon="9.0430108"><ele>287.0</ele><time>2026-03-21T13:09:13.131Z</time></trkpt><trkpt lat="44.8093321" lon="9.0431207"><ele>287.0</ele><time>2026-03-21T13:09:14.131Z</time></trkpt><trkpt lat="44.8091945" lon="9.0432381"><ele>286.6666666666667</ele><time>2026-03-21T13:09:15.132Z</time></trkpt><trkpt lat="44.8090497" lon="9.0433418"><ele>286.3333333333333</ele><time>2026-03-21T13:09:16.132Z</time></trkpt><trkpt lat="44.8089009" lon="9.0434383"><ele>286.0</ele><time>2026-03-21T13:09:17.132Z</time></trkpt><trkpt lat="44.8087514" lon="9.0435213"><ele>286.0</ele><time>2026-03-21T13:09:18.131Z</time></trkpt><trkpt lat="44.8086" lon="9.0435806"><ele>286.0</ele><time>2026-03-21T13:09:19.132Z</time></trkpt><trkpt lat="44.8084425" lon="9.0436202"><ele>286.0</ele><time>2026-03-21T13:09:20.132Z</time></trkpt><trkpt lat="44.8082846" lon="9.0436391"><ele>286.3333333333333</ele><time>2026-03-21T13:09:21.132Z</time></trkpt><trkpt lat="44.8081232" lon="9.0436468"><ele>286.6666666666667</ele><time>2026-03-21T13:09:22.132Z</time></trkpt><trkpt lat="44.8079581" lon="9.0436494"><ele>287.0</ele><time>2026-03-21T13:09:23.132Z</time></trkpt><trkpt lat="44.807789" lon="9.0436508"><ele>288.33333333333337</ele><time>2026-03-21T13:09:24.132Z</time></trkpt><trkpt lat="44.8076243" lon="9.0436514"><ele>289.6666666666667</ele><time>2026-03-21T13:09:25.131Z</time></trkpt><trkpt lat="44.8074544" lon="9.0436517"><ele>291.0</ele><time>2026-03-21T13:09:26.131Z</time></trkpt><trkpt lat="44.8072821" lon="9.0436533"><ele>291.0</ele><time>2026-03-21T13:09:27.132Z</time></trkpt><trkpt lat="44.8071054" lon="9.0436516"><ele>291.0</ele><time>2026-03-21T13:09:28.132Z</time></trkpt><trkpt lat="44.8069265" lon="9.043656"><ele>291.0</ele><time>2026-03-21T13:09:29.132Z</time></trkpt><trkpt lat="44.806745" lon="9.0436696"><ele>291.6666666666667</ele><time>2026-03-21T13:09:30.132Z</time></trkpt><trkpt lat="44.8065614" lon="9.0436891"><ele>292.33333333333337</ele><time>2026-03-21T13:09:31.132Z</time></trkpt><trkpt lat="44.8063761" lon="9.0437208"><ele>293.0</ele><time>2026-03-21T13:09:32.132Z</time></trkpt><trkpt lat="44.8061926" lon="9.0437592"><ele>293.0</ele><time>2026-03-21T13:09:33.132Z</time></trkpt><trkpt lat="44.8060072" lon="9.0437948"><ele>293.0</ele><time>2026-03-21T13:09:34.132Z</time></trkpt><trkpt lat="44.8058185" lon="9.0438375"><ele>293.0</ele><time>2026-03-21T13:09:35.132Z</time></trkpt><trkpt lat="44.8056289" lon="9.0438783"><ele>293.0</ele><time>2026-03-21T13:09:36.132Z</time></trkpt><trkpt lat="44.8054378" lon="9.043922"><ele>293.0</ele><time>2026-03-21T13:09:37.131Z</time></trkpt><trkpt lat="44.8052443" lon="9.043961"><ele>293.0</ele><time>2026-03-21T13:09:38.132Z</time></trkpt><trkpt lat="44.8050508" lon="9.0440007"><ele>294.33333333333337</ele><time>2026-03-21T13:09:39.132Z</time></trkpt><trkpt lat="44.8048539" lon="9.0440372"><ele>295.6666666666667</ele><time>2026-03-21T13:09:40.131Z</time></trkpt><trkpt lat="44.8046577" lon="9.0440761"><ele>297.0</ele><time>2026-03-21T13:09:41.132Z</time></trkpt><trkpt lat="44.8044636" lon="9.0441214"><ele>298.0</ele><time>2026-03-21T13:09:42.131Z</time></trkpt><trkpt lat="44.804274" lon="9.0441767"><ele>299.0</ele><time>2026-03-21T13:09:43.131Z</time></trkpt><trkpt lat="44.8040934" lon="9.0442718"><ele>300.0</ele><time>2026-03-21T13:09:44.131Z</time></trkpt><trkpt lat="44.8039293" lon="9.0444086"><ele>300.0</ele><time>2026-03-21T13:09:45.132Z</time></trkpt><trkpt lat="44.8037836" lon="9.0445818"><ele>300.0</ele><time>2026-03-21T13:09:46.131Z</time></trkpt><trkpt lat="44.8036601" lon="9.0447837"><ele>300.0</ele><time>2026-03-21T13:09:47.132Z</time></trkpt><trkpt lat="44.8035603" lon="9.044999"><ele>301.6666666666667</ele><time>2026-03-21T13:09:48.132Z</time></trkpt><trkpt lat="44.8034797" lon="9.0452077"><ele>303.33333333333337</ele><time>2026-03-21T13:09:49.132Z</time></trkpt><trkpt lat="44.8033886" lon="9.0453947"><ele>305.0</ele><time>2026-03-21T13:09:50.132Z</time></trkpt><trkpt lat="44.8032741" lon="9.045557"><ele>305.0</ele><time>2026-03-21T13:09:51.132Z</time></trkpt><trkpt lat="44.8031402" lon="9.0456859"><ele>305.0</ele><time>2026-03-21T13:09:52.131Z</time></trkpt><trkpt lat="44.8029988" lon="9.0458"><ele>305.0</ele><time>2026-03-21T13:09:53.131Z</time></trkpt><trkpt lat="44.8028591" lon="9.0459161"><ele>305.0</ele><time>2026-03-21T13:09:54.131Z</time></trkpt><trkpt lat="44.8027204" lon="9.0460285"><ele>305.0</ele><time>2026-03-21T13:09:55.131Z</time></trkpt><trkpt lat="44.8025822" lon="9.0461362"><ele>305.0</ele><time>2026-03-21T13:09:56.131Z</time></trkpt><trkpt lat="44.8024446" lon="9.0462362"><ele>306.0</ele><time>2026-03-21T13:09:57.131Z</time></trkpt><trkpt lat="44.8022974" lon="9.0463122"><ele>307.0</ele><time>2026-03-21T13:09:58.131Z</time></trkpt><trkpt lat="44.8021415" lon="9.0463514"><ele>308.0</ele><time>2026-03-21T13:09:59.132Z</time></trkpt><trkpt lat="44.8019815" lon="9.0463613"><ele>308.5</ele><time>2026-03-21T13:10:00.131Z</time></trkpt><trkpt lat="44.8018252" lon="9.0463415"><ele>309.0</ele><time>2026-03-21T13:10:01.132Z</time></trkpt><trkpt lat="44.8016818" lon="9.0463024"><ele>309.5</ele><time>2026-03-21T13:10:02.131Z</time></trkpt><trkpt lat="44.8015548" lon="9.0462747"><ele>310.0</ele><time>2026-03-21T13:10:03.131Z</time></trkpt><trkpt lat="44.8014363" lon="9.0462667"><ele>310.0</ele><time>2026-03-21T13:10:04.131Z</time></trkpt><trkpt lat="44.8013406" lon="9.0462638"><ele>310.0</ele><time>2026-03-21T13:10:05.132Z</time></trkpt><trkpt lat="44.8012706" lon="9.0462458"><ele>310.0</ele><time>2026-03-21T13:10:06.132Z</time></trkpt><trkpt lat="44.8012133" lon="9.0461987"><ele>310.0</ele><time>2026-03-21T13:10:07.131Z</time></trkpt><trkpt lat="44.8011469" lon="9.046123"><ele>310.0</ele><time>2026-03-21T13:10:08.132Z</time></trkpt><trkpt lat="44.8010617" lon="9.0460523"><ele>310.0</ele><time>2026-03-21T13:10:09.132Z</time></trkpt><trkpt lat="44.8009575" lon="9.0460031"><ele>310.5</ele><time>2026-03-21T13:10:10.132Z</time></trkpt><trkpt lat="44.8008417" lon="9.0459669"><ele>311.0</ele><time>2026-03-21T13:10:11.132Z</time></trkpt><trkpt lat="44.8007224" lon="9.0459241"><ele>311.5</ele><time>2026-03-21T13:10:12.132Z</time></trkpt><trkpt lat="44.8006048" lon="9.0458723"><ele>312.0</ele><time>2026-03-21T13:10:13.132Z</time></trkpt><trkpt lat="44.8004955" lon="9.0457994"><ele>316.0</ele><time>2026-03-21T13:10:14.131Z</time></trkpt><trkpt lat="44.8003917" lon="9.0457118"><ele>320.0</ele><time>2026-03-21T13:10:15.131Z</time></trkpt><trkpt lat="44.8002825" lon="9.045625"><ele>324.0</ele><time>2026-03-21T13:10:16.131Z</time></trkpt><trkpt lat="44.8001601" lon="9.0455723"><ele>328.0</ele><time>2026-03-21T13:10:17.132Z</time></trkpt><trkpt lat="44.8000268" lon="9.0455463"><ele>329.0</ele><time>2026-03-21T13:10:18.132Z</time></trkpt><trkpt lat="44.7998876" lon="9.0455141"><ele>330.0</ele><time>2026-03-21T13:10:19.132Z</time></trkpt><trkpt lat="44.7997485" lon="9.0454761"><ele>331.0</ele><time>2026-03-21T13:10:20.132Z</time></trkpt><trkpt lat="44.7996183" lon="9.0454387"><ele>332.0</ele><time>2026-03-21T13:10:21.132Z</time></trkpt><trkpt lat="44.7994938" lon="9.0453827"><ele>332.0</ele><time>2026-03-21T13:10:22.131Z</time></trkpt><trkpt lat="44.7993721" lon="9.0452965"><ele>332.0</ele><time>2026-03-21T13:10:23.132Z</time></trkpt><trkpt lat="44.7992555" lon="9.0451788"><ele>332.0</ele><time>2026-03-21T13:10:24.131Z</time></trkpt><trkpt lat="44.7991435" lon="9.045034"><ele>332.0</ele><time>2026-03-21T13:10:25.132Z</time></trkpt><trkpt lat="44.7990378" lon="9.0448679"><ele>331.6666666666667</ele><time>2026-03-21T13:10:26.131Z</time></trkpt><trkpt lat="44.7989391" lon="9.0446887"><ele>331.3333333333333</ele><time>2026-03-21T13:10:27.132Z</time></trkpt><trkpt lat="44.7988381" lon="9.0445224"><ele>331.0</ele><time>2026-03-21T13:10:28.132Z</time></trkpt><trkpt lat="44.7987214" lon="9.0443694"><ele>331.0</ele><time>2026-03-21T13:10:29.131Z</time></trkpt><trkpt lat="44.7985903" lon="9.0442306"><ele>331.0</ele><time>2026-03-21T13:10:30.132Z</time></trkpt><trkpt lat="44.7984492" lon="9.0440935"><ele>331.0</ele><time>2026-03-21T13:10:31.132Z</time></trkpt><trkpt lat="44.7983153" lon="9.0439449"><ele>329.3333333333333</ele><time>2026-03-21T13:10:32.132Z</time></trkpt><trkpt lat="44.7981846" lon="9.0437911"><ele>327.6666666666667</ele><time>2026-03-21T13:10:33.132Z</time></trkpt><trkpt lat="44.798064" lon="9.0436551"><ele>326.0</ele><time>2026-03-21T13:10:34.131Z</time></trkpt><trkpt lat="44.7979533" lon="9.0435263"><ele>326.0</ele><time>2026-03-21T13:10:35.131Z</time></trkpt><trkpt lat="44.7978606" lon="9.0433935"><ele>326.0</ele><time>2026-03-21T13:10:36.132Z</time></trkpt><trkpt lat="44.7977792" lon="9.0432457"><ele>326.0</ele><time>2026-03-21T13:10:37.132Z</time></trkpt><trkpt lat="44.7976961" lon="9.043088"><ele>326.0</ele><time>2026-03-21T13:10:38.131Z</time></trkpt><trkpt lat="44.7976078" lon="9.0429171"><ele>326.0</ele><time>2026-03-21T13:10:39.131Z</time></trkpt><trkpt lat="44.7975159" lon="9.0427432"><ele>326.0</ele><time>2026-03-21T13:10:40.131Z</time></trkpt><trkpt lat="44.797421" lon="9.0425644"><ele>326.0</ele><time>2026-03-21T13:10:41.132Z</time></trkpt><trkpt lat="44.7973302" lon="9.0423887"><ele>327.25</ele><time>2026-03-21T13:10:42.131Z</time></trkpt><trkpt lat="44.7972572" lon="9.042226"><ele>328.5</ele><time>2026-03-21T13:10:43.132Z</time></trkpt><trkpt lat="44.7971898" lon="9.0420724"><ele>329.75</ele><time>2026-03-21T13:10:44.132Z</time></trkpt><trkpt lat="44.797134" lon="9.0419119"><ele>331.0</ele><time>2026-03-21T13:10:45.131Z</time></trkpt><trkpt lat="44.79711" lon="9.0417353"><ele>334.25</ele><time>2026-03-21T13:10:46.131Z</time></trkpt><trkpt lat="44.797102" lon="9.0415551"><ele>337.5</ele><time>2026-03-21T13:10:47.132Z</time></trkpt><trkpt lat="44.7970841" lon="9.0413817"><ele>340.75</ele><time>2026-03-21T13:10:48.131Z</time></trkpt><trkpt lat="44.7970449" lon="9.0412321"><ele>344.0</ele><time>2026-03-21T13:10:49.132Z</time></trkpt><trkpt lat="44.7969819" lon="9.0411072"><ele>344.0</ele><time>2026-03-21T13:10:50.132Z</time></trkpt><trkpt lat="44.7969097" lon="9.0410409"><ele>344.0</ele><time>2026-03-21T13:10:51.131Z</time></trkpt><trkpt lat="44.7968347" lon="9.0410308"><ele>344.0</ele><time>2026-03-21T13:10:52.132Z</time></trkpt><trkpt lat="44.7967584" lon="9.0410608"><ele>344.0</ele><time>2026-03-21T13:10:53.131Z</time></trkpt><trkpt lat="44.7966801" lon="9.0411103"><ele>344.0</ele><time>2026-03-21T13:10:54.131Z</time></trkpt><trkpt lat="44.7965919" lon="9.0411581"><ele>344.0</ele><time>2026-03-21T13:10:55.132Z</time></trkpt><trkpt lat="44.7964997" lon="9.0411978"><ele>341.6</ele><time>2026-03-21T13:10:56.132Z</time></trkpt><trkpt lat="44.7964047" lon="9.0412264"><ele>339.2</ele><time>2026-03-21T13:10:57.131Z</time></trkpt><trkpt lat="44.7963013" lon="9.0412511"><ele>336.8</ele><time>2026-03-21T13:10:58.132Z</time></trkpt><trkpt lat="44.7961937" lon="9.0412613"><ele>334.40000000000003</ele><time>2026-03-21T13:10:59.132Z</time></trkpt><trkpt lat="44.7960818" lon="9.0412556"><ele>332.0</ele><time>2026-03-21T13:11:00.131Z</time></trkpt><trkpt lat="44.7959724" lon="9.0412682"><ele>340.25</ele><time>2026-03-21T13:11:01.131Z</time></trkpt><trkpt lat="44.7958686" lon="9.0413053"><ele>348.5</ele><time>2026-03-21T13:11:02.132Z</time></trkpt><trkpt lat="44.7957569" lon="9.0413487"><ele>356.75</ele><time>2026-03-21T13:11:03.131Z</time></trkpt><trkpt lat="44.7956435" lon="9.0413867"><ele>365.0</ele><time>2026-03-21T13:11:04.131Z</time></trkpt><trkpt lat="44.7955236" lon="9.0414035"><ele>365.0</ele><time>2026-03-21T13:11:05.131Z</time></trkpt><trkpt lat="44.7954109" lon="9.0414045"><ele>365.0</ele><time>2026-03-21T13:11:06.131Z</time></trkpt><trkpt lat="44.7953016" lon="9.0414284"><ele>365.0</ele><time>2026-03-21T13:11:07.132Z</time></trkpt><trkpt lat="44.7952013" lon="9.0414737"><ele>365.0</ele><time>2026-03-21T13:11:08.131Z</time></trkpt><trkpt lat="44.7951117" lon="9.0415288"><ele>365.0</ele><time>2026-03-21T13:11:09.131Z</time></trkpt><trkpt lat="44.7950222" lon="9.0415733"><ele>364.2</ele><time>2026-03-21T13:11:10.131Z</time></trkpt><trkpt lat="44.7949197" lon="9.0416128"><ele>363.4</ele><time>2026-03-21T13:11:11.131Z</time></trkpt><trkpt lat="44.7948148" lon="9.0416578"><ele>362.6</ele><time>2026-03-21T13:11:12.131Z</time></trkpt><trkpt lat="44.7947093" lon="9.0417096"><ele>361.8</ele><time>2026-03-21T13:11:13.131Z</time></trkpt><trkpt lat="44.7946185" lon="9.0417575"><ele>361.0</ele><time>2026-03-21T13:11:14.131Z</time></trkpt><trkpt lat="44.7945185" lon="9.0417376"><ele>365.3333333333333</ele><time>2026-03-21T13:11:16.131Z</time></trkpt><trkpt lat="44.794581" lon="9.0416226"><ele>369.66666666666663</ele><time>2026-03-21T13:11:19.132Z</time></trkpt><trkpt lat="44.7946377" lon="9.0415663"><ele>374.0</ele><time>2026-03-21T13:11:20.132Z</time></trkpt><trkpt lat="44.7947003" lon="9.041489"><ele>378.3333333333333</ele><time>2026-03-21T13:11:21.132Z</time></trkpt><trkpt lat="44.7947638" lon="9.0414141"><ele>382.6666666666667</ele><time>2026-03-21T13:11:22.132Z</time></trkpt><trkpt lat="44.7948356" lon="9.0413215"><ele>387.0</ele><time>2026-03-21T13:11:23.132Z</time></trkpt><trkpt lat="44.794905" lon="9.0412199"><ele>387.0</ele><time>2026-03-21T13:11:24.131Z</time></trkpt><trkpt lat="44.7949841" lon="9.0411141"><ele>387.0</ele><time>2026-03-21T13:11:25.131Z</time></trkpt><trkpt lat="44.7950799" lon="9.0410236"><ele>387.0</ele><time>2026-03-21T13:11:26.131Z</time></trkpt><trkpt lat="44.7951906" lon="9.040951"><ele>387.0</ele><time>2026-03-21T13:11:27.132Z</time></trkpt><trkpt lat="44.7953095" lon="9.0408898"><ele>385.0</ele><time>2026-03-21T13:11:28.132Z</time></trkpt><trkpt lat="44.7954108" lon="9.040835"><ele>383.0</ele><time>2026-03-21T13:11:29.132Z</time></trkpt><trkpt lat="44.7954978" lon="9.040776"><ele>381.0</ele><time>2026-03-21T13:11:30.131Z</time></trkpt><trkpt lat="44.7955478" lon="9.0406942"><ele>379.0</ele><time>2026-03-21T13:11:31.131Z</time></trkpt><trkpt lat="44.7955584" lon="9.0405879"><ele>377.0</ele><time>2026-03-21T13:11:32.131Z</time></trkpt><trkpt lat="44.7955323" lon="9.0404803"><ele>375.0</ele><time>2026-03-21T13:11:33.131Z</time></trkpt><trkpt lat="44.7954681" lon="9.0403936"><ele>375.0</ele><time>2026-03-21T13:11:34.132Z</time></trkpt><trkpt lat="44.7953833" lon="9.0403182"><ele>375.0</ele><time>2026-03-21T13:11:35.132Z</time></trkpt><trkpt lat="44.7952866" lon="9.040235"><ele>375.0</ele><time>2026-03-21T13:11:36.131Z</time></trkpt><trkpt lat="44.7951803" lon="9.0401731"><ele>375.0</ele><time>2026-03-21T13:11:37.131Z</time></trkpt><trkpt lat="44.7950724" lon="9.0400971"><ele>375.0</ele><time>2026-03-21T13:11:38.131Z</time></trkpt><trkpt lat="44.7949618" lon="9.040033"><ele>381.75</ele><time>2026-03-21T13:11:39.132Z</time></trkpt><trkpt lat="44.7948524" lon="9.0399631"><ele>388.5</ele><time>2026-03-21T13:11:40.131Z</time></trkpt><trkpt lat="44.7947462" lon="9.0398863"><ele>395.25</ele><time>2026-03-21T13:11:41.132Z</time></trkpt><trkpt lat="44.7946711" lon="9.0397656"><ele>402.0</ele><time>2026-03-21T13:11:42.131Z</time></trkpt><trkpt lat="44.7946269" lon="9.0396387"><ele>402.0</ele><time>2026-03-21T13:11:43.132Z</time></trkpt><trkpt lat="44.794585" lon="9.0395416"><ele>402.0</ele><time>2026-03-21T13:11:44.132Z</time></trkpt><trkpt lat="44.7945287" lon="9.0394962"><ele>402.0</ele><time>2026-03-21T13:11:45.132Z</time></trkpt><trkpt lat="44.7944329" lon="9.0395721"><ele>402.0</ele><time>2026-03-21T13:11:47.132Z</time></trkpt><trkpt lat="44.7944306" lon="9.039676"><ele>402.0</ele><time>2026-03-21T13:11:48.132Z</time></trkpt><trkpt lat="44.7944572" lon="9.0397898"><ele>402.0</ele><time>2026-03-21T13:11:49.131Z</time></trkpt><trkpt lat="44.794486" lon="9.0399245"><ele>400.8333333333333</ele><time>2026-03-21T13:11:50.131Z</time></trkpt><trkpt lat="44.7944837" lon="9.0400549"><ele>399.66666666666663</ele><time>2026-03-21T13:11:51.131Z</time></trkpt><trkpt lat="44.7944459" lon="9.0401543"><ele>398.5</ele><time>2026-03-21T13:11:52.131Z</time></trkpt><trkpt lat="44.7943784" lon="9.0402181"><ele>397.3333333333333</ele><time>2026-03-21T13:11:53.131Z</time></trkpt><trkpt lat="44.7943073" lon="9.040216"><ele>396.16666666666663</ele><time>2026-03-21T13:11:54.132Z</time></trkpt><trkpt lat="44.7942524" lon="9.0401576"><ele>395.0</ele><time>2026-03-21T13:11:55.132Z</time></trkpt><trkpt lat="44.7942145" lon="9.0400522"><ele>401.75</ele><time>2026-03-21T13:11:56.132Z</time></trkpt><trkpt lat="44.7941821" lon="9.0399079"><ele>408.5</ele><time>2026-03-21T13:11:57.131Z</time></trkpt><trkpt lat="44.7941372" lon="9.0397434"><ele>415.25</ele><time>2026-03-21T13:11:58.131Z</time></trkpt><trkpt lat="44.794078" lon="9.0395551"><ele>422.0</ele><time>2026-03-21T13:11:59.132Z</time></trkpt><trkpt lat="44.7940053" lon="9.0393686"><ele>422.0</ele><time>2026-03-21T13:12:00.132Z</time></trkpt><trkpt lat="44.7939232" lon="9.039178"><ele>422.0</ele><time>2026-03-21T13:12:01.132Z</time></trkpt><trkpt lat="44.7938396" lon="9.039002"><ele>422.0</ele><time>2026-03-21T13:12:02.131Z</time></trkpt><trkpt lat="44.793753" lon="9.0388555"><ele>422.0</ele><time>2026-03-21T13:12:03.132Z</time></trkpt><trkpt lat="44.7936673" lon="9.0387524"><ele>422.0</ele><time>2026-03-21T13:12:04.132Z</time></trkpt><trkpt lat="44.7935952" lon="9.0387063"><ele>422.0</ele><time>2026-03-21T13:12:05.131Z</time></trkpt><trkpt lat="44.7935181" lon="9.0386901"><ele>422.0</ele><time>2026-03-21T13:12:06.131Z</time></trkpt><trkpt lat="44.7934382" lon="9.0387967"><ele>422.0</ele><time>2026-03-21T13:12:07.131Z</time></trkpt><trkpt lat="44.7933445" lon="9.038869"><ele>422.0</ele><time>2026-03-21T13:12:08.132Z</time></trkpt><trkpt lat="44.7932435" lon="9.0389274"><ele>424.25</ele><time>2026-03-21T13:12:09.131Z</time></trkpt><trkpt lat="44.7931328" lon="9.0389251"><ele>426.5</ele><time>2026-03-21T13:12:10.132Z</time></trkpt><trkpt lat="44.7930344" lon="9.038878"><ele>428.75</ele><time>2026-03-21T13:12:11.131Z</time></trkpt><trkpt lat="44.7929228" lon="9.0388042"><ele>431.0</ele><time>2026-03-21T13:12:12.132Z</time></trkpt><trkpt lat="44.7928086" lon="9.0387266"><ele>431.0</ele><time>2026-03-21T13:12:13.131Z</time></trkpt><trkpt lat="44.7926834" lon="9.0386546"><ele>431.0</ele><time>2026-03-21T13:12:14.131Z</time></trkpt><trkpt lat="44.7925594" lon="9.038578"><ele>431.0</ele><time>2026-03-21T13:12:15.132Z</time></trkpt><trkpt lat="44.7924374" lon="9.0384741"><ele>431.0</ele><time>2026-03-21T13:12:16.129Z</time></trkpt><trkpt lat="44.7923185" lon="9.0383518"><ele>437.66666666666663</ele><time>2026-03-21T13:12:17.132Z</time></trkpt><trkpt lat="44.7922027" lon="9.0382188"><ele>444.33333333333337</ele><time>2026-03-21T13:12:18.131Z</time></trkpt><trkpt lat="44.7920926" lon="9.0380705"><ele>451.0</ele><time>2026-03-21T13:12:19.132Z</time></trkpt><trkpt lat="44.7919833" lon="9.0379276"><ele>451.0</ele><time>2026-03-21T13:12:20.132Z</time></trkpt><trkpt lat="44.7918917" lon="9.037792"><ele>451.0</ele><time>2026-03-21T13:12:21.132Z</time></trkpt><trkpt lat="44.7918081" lon="9.0376609"><ele>451.0</ele><time>2026-03-21T13:12:22.131Z</time></trkpt><trkpt lat="44.7917899" lon="9.037503"><ele>451.0</ele><time>2026-03-21T13:12:23.132Z</time></trkpt><trkpt lat="44.791766" lon="9.037346"><ele>456.6</ele><time>2026-03-21T13:12:24.132Z</time></trkpt><trkpt lat="44.7917706" lon="9.0371849"><ele>462.20000000000005</ele><time>2026-03-21T13:12:25.132Z</time></trkpt><trkpt lat="44.7917994" lon="9.0370384"><ele>467.79999999999995</ele><time>2026-03-21T13:12:26.132Z</time></trkpt><trkpt lat="44.7918109" lon="9.0369152"><ele>473.4</ele><time>2026-03-21T13:12:27.131Z</time></trkpt><trkpt lat="44.7917879" lon="9.0367511"><ele>479.0</ele><time>2026-03-21T13:12:28.131Z</time></trkpt><trkpt lat="44.7917591" lon="9.0365956"><ele>478.99999999999994</ele><time>2026-03-21T13:12:29.131Z</time></trkpt><trkpt lat="44.7917331" lon="9.036459"><ele>479.0</ele><time>2026-03-21T13:12:30.131Z</time></trkpt><trkpt lat="44.7917148" lon="9.0363387"><ele>479.0</ele><time>2026-03-21T13:12:31.131Z</time></trkpt><trkpt lat="44.7917004" lon="9.036221"><ele>479.0</ele><time>2026-03-21T13:12:32.132Z</time></trkpt><trkpt lat="44.791697" lon="9.0361042"><ele>478.99999999999994</ele><time>2026-03-21T13:12:33.132Z</time></trkpt><trkpt lat="44.7917048" lon="9.0359942"><ele>479.0</ele><time>2026-03-21T13:12:34.132Z</time></trkpt><trkpt lat="44.7917166" lon="9.0359006"><ele>479.0</ele><time>2026-03-21T13:12:35.131Z</time></trkpt><trkpt lat="44.79173" lon="9.035746"><ele>479.0</ele><time>2026-03-21T13:12:37.132Z</time></trkpt><trkpt lat="44.7916596" lon="9.0356981"><ele>479.0</ele><time>2026-03-21T13:12:48.132Z</time></trkpt><trkpt lat="44.7915592" lon="9.0357472"><ele>479.0</ele><time>2026-03-21T13:12:50.131Z</time></trkpt><trkpt lat="44.7914867" lon="9.0357842"><ele>479.0</ele><time>2026-03-21T13:12:51.132Z</time></trkpt><trkpt lat="44.791399" lon="9.0358227"><ele>479.0</ele><time>2026-03-21T13:12:52.131Z</time></trkpt><trkpt lat="44.7912963" lon="9.0358558"><ele>479.0</ele><time>2026-03-21T13:12:53.132Z</time></trkpt><trkpt lat="44.7911844" lon="9.0358734"><ele>479.0</ele><time>2026-03-21T13:12:54.132Z</time></trkpt><trkpt lat="44.7910716" lon="9.0358692"><ele>479.0</ele><time>2026-03-21T13:12:55.131Z</time></trkpt><trkpt lat="44.7909698" lon="9.0358545"><ele>479.0</ele><time>2026-03-21T13:12:56.132Z</time></trkpt><trkpt lat="44.7908691" lon="9.0358301"><ele>474.79999999999995</ele><time>2026-03-21T13:12:57.132Z</time></trkpt><trkpt lat="44.7907798" lon="9.0357759"><ele>470.59999999999997</ele><time>2026-03-21T13:12:58.131Z</time></trkpt><trkpt lat="44.7906992" lon="9.0356776"><ele>466.4</ele><time>2026-03-21T13:12:59.132Z</time></trkpt><trkpt lat="44.7906265" lon="9.0355522"><ele>462.2</ele><time>2026-03-21T13:13:00.132Z</time></trkpt><trkpt lat="44.7905529" lon="9.0354177"><ele>458.0</ele><time>2026-03-21T13:13:01.131Z</time></trkpt><trkpt lat="44.7904838" lon="9.0352764"><ele>458.0</ele><time>2026-03-21T13:13:02.132Z</time></trkpt><trkpt lat="44.7904202" lon="9.0351358"><ele>457.99999999999994</ele><time>2026-03-21T13:13:03.131Z</time></trkpt><trkpt lat="44.7903603" lon="9.0350028"><ele>457.99999999999994</ele><time>2026-03-21T13:13:04.132Z</time></trkpt><trkpt lat="44.7903019" lon="9.0348789"><ele>458.0</ele><time>2026-03-21T13:13:05.132Z</time></trkpt><trkpt lat="44.7902364" lon="9.0347623"><ele>458.0</ele><time>2026-03-21T13:13:06.131Z</time></trkpt><trkpt lat="44.7901613" lon="9.0346631"><ele>455.79999999999995</ele><time>2026-03-21T13:13:07.132Z</time></trkpt><trkpt lat="44.7900818" lon="9.0345704"><ele>453.59999999999997</ele><time>2026-03-21T13:13:08.131Z</time></trkpt><trkpt lat="44.7900368" lon="9.0344753"><ele>451.40000000000003</ele><time>2026-03-21T13:13:09.132Z</time></trkpt><trkpt lat="44.7900286" lon="9.0343063"><ele>449.20000000000005</ele><time>2026-03-21T13:13:11.131Z</time></trkpt><trkpt lat="44.7900648" lon="9.0342254"><ele>447.0</ele><time>2026-03-21T13:13:12.131Z</time></trkpt><trkpt lat="44.7901376" lon="9.0341376"><ele>445.8</ele><time>2026-03-21T13:13:13.132Z</time></trkpt><trkpt lat="44.7902128" lon="9.0340643"><ele>444.6</ele><time>2026-03-21T13:13:14.131Z</time></trkpt><trkpt lat="44.7902934" lon="9.0340343"><ele>443.40000000000003</ele><time>2026-03-21T13:13:15.132Z</time></trkpt><trkpt lat="44.7903763" lon="9.0340235"><ele>442.20000000000005</ele><time>2026-03-21T13:13:16.131Z</time></trkpt><trkpt lat="44.7904603" lon="9.0341074"><ele>441.0</ele><time>2026-03-21T13:13:17.131Z</time></trkpt><trkpt lat="44.7905363" lon="9.0341928"><ele>441.0</ele><time>2026-03-21T13:13:18.131Z</time></trkpt><trkpt lat="44.7906149" lon="9.0342785"><ele>441.0</ele><time>2026-03-21T13:13:19.132Z</time></trkpt><trkpt lat="44.7907354" lon="9.0342985"><ele>441.0</ele><time>2026-03-21T13:13:21.131Z</time></trkpt><trkpt lat="44.7907798" lon="9.0341553"><ele>441.0</ele><time>2026-03-21T13:13:23.131Z</time></trkpt><trkpt lat="44.7907479" lon="9.0340751"><ele>441.0</ele><time>2026-03-21T13:13:24.131Z</time></trkpt><trkpt lat="44.7906808" lon="9.0339671"><ele>437.5</ele><time>2026-03-21T13:13:25.131Z</time></trkpt><trkpt lat="44.7905897" lon="9.0338541"><ele>434.0</ele><time>2026-03-21T13:13:26.131Z</time></trkpt><trkpt lat="44.7905068" lon="9.0337397"><ele>430.5</ele><time>2026-03-21T13:13:27.131Z</time></trkpt><trkpt lat="44.7904182" lon="9.0336357"><ele>427.0</ele><time>2026-03-21T13:13:28.131Z</time></trkpt><trkpt lat="44.7903285" lon="9.0335584"><ele>427.00000000000006</ele><time>2026-03-21T13:13:29.132Z</time></trkpt><trkpt lat="44.7902781" lon="9.033486"><ele>427.0</ele><time>2026-03-21T13:13:30.131Z</time></trkpt><trkpt lat="44.7902621" lon="9.0333993"><ele>427.0</ele><time>2026-03-21T13:13:31.132Z</time></trkpt><trkpt lat="44.7902869" lon="9.0333049"><ele>427.0</ele><time>2026-03-21T13:13:32.132Z</time></trkpt><trkpt lat="44.7903413" lon="9.0332086"><ele>427.00000000000006</ele><time>2026-03-21T13:13:33.131Z</time></trkpt><trkpt lat="44.790394" lon="9.0330933"><ele>427.0</ele><time>2026-03-21T13:13:34.132Z</time></trkpt><trkpt lat="44.7904193" lon="9.0329453"><ele>423.75</ele><time>2026-03-21T13:13:35.132Z</time></trkpt><trkpt lat="44.7904122" lon="9.0327966"><ele>420.5</ele><time>2026-03-21T13:13:36.132Z</time></trkpt><trkpt lat="44.7903961" lon="9.0326264"><ele>417.25</ele><time>2026-03-21T13:13:37.132Z</time></trkpt><trkpt lat="44.7903871" lon="9.0324275"><ele>414.0</ele><time>2026-03-21T13:13:38.131Z</time></trkpt><trkpt lat="44.7903699" lon="9.032244"><ele>410.5</ele><time>2026-03-21T13:13:39.131Z</time></trkpt><trkpt lat="44.7903429" lon="9.032059"><ele>407.0</ele><time>2026-03-21T13:13:40.132Z</time></trkpt><trkpt lat="44.7903152" lon="9.0318776"><ele>403.5</ele><time>2026-03-21T13:13:41.131Z</time></trkpt><trkpt lat="44.7902969" lon="9.0317021"><ele>400.0</ele><time>2026-03-21T13:13:42.132Z</time></trkpt><trkpt lat="44.7902855" lon="9.031538"><ele>397.83333333333337</ele><time>2026-03-21T13:13:43.131Z</time></trkpt><trkpt lat="44.7902765" lon="9.0313849"><ele>395.6666666666667</ele><time>2026-03-21T13:13:44.131Z</time></trkpt><trkpt lat="44.7902736" lon="9.0312464"><ele>393.5</ele><time>2026-03-21T13:13:45.132Z</time></trkpt><trkpt lat="44.7902951" lon="9.0311221"><ele>391.33333333333337</ele><time>2026-03-21T13:13:46.132Z</time></trkpt><trkpt lat="44.7903206" lon="9.031029"><ele>389.1666666666667</ele><time>2026-03-21T13:13:47.132Z</time></trkpt><trkpt lat="44.7903211" lon="9.0309376"><ele>387.0</ele><time>2026-03-21T13:13:48.132Z</time></trkpt><trkpt lat="44.7902529" lon="9.0308833"><ele>387.0</ele><time>2026-03-21T13:13:50.132Z</time></trkpt><trkpt lat="44.7902064" lon="9.0309867"><ele>387.0</ele><time>2026-03-21T13:13:52.132Z</time></trkpt><trkpt lat="44.7901722" lon="9.0311342"><ele>387.0</ele><time>2026-03-21T13:13:54.132Z</time></trkpt><trkpt lat="44.7901461" lon="9.031278"><ele>387.0</ele><time>2026-03-21T13:13:56.132Z</time></trkpt><trkpt lat="44.7900992" lon="9.0313483"><ele>387.0</ele><time>2026-03-21T13:13:57.132Z</time></trkpt><trkpt lat="44.7900184" lon="9.0313842"><ele>386.0</ele><time>2026-03-21T13:13:58.131Z</time></trkpt><trkpt lat="44.7899205" lon="9.031399"><ele>385.0</ele><time>2026-03-21T13:13:59.131Z</time></trkpt><trkpt lat="44.7898349" lon="9.0313967"><ele>384.0</ele><time>2026-03-21T13:14:00.131Z</time></trkpt><trkpt lat="44.7897723" lon="9.0313748"><ele>383.0</ele><time>2026-03-21T13:14:01.131Z</time></trkpt><trkpt lat="44.7897282" lon="9.031306"><ele>382.0</ele><time>2026-03-21T13:14:02.132Z</time></trkpt><trkpt lat="44.7896933" lon="9.0312193"><ele>381.0</ele><time>2026-03-21T13:14:03.132Z</time></trkpt><trkpt lat="44.7896492" lon="9.0311232"><ele>381.0</ele><time>2026-03-21T13:14:04.132Z</time></trkpt><trkpt lat="44.789613" lon="9.0310226"><ele>381.0</ele><time>2026-03-21T13:14:05.132Z</time></trkpt><trkpt lat="44.7895932" lon="9.0309299"><ele>381.0</ele><time>2026-03-21T13:14:06.132Z</time></trkpt><trkpt lat="44.7895369" lon="9.0307939"><ele>381.0</ele><time>2026-03-21T13:14:08.132Z</time></trkpt><trkpt lat="44.7894398" lon="9.0307234"><ele>381.0</ele><time>2026-03-21T13:14:10.131Z</time></trkpt><trkpt lat="44.7894355" lon="9.0305466"><ele>376.75</ele><time>2026-03-21T13:14:12.131Z</time></trkpt><trkpt lat="44.7894672" lon="9.0304058"><ele>372.5</ele><time>2026-03-21T13:14:13.131Z</time></trkpt><trkpt lat="44.7895067" lon="9.0302264"><ele>368.25</ele><time>2026-03-21T13:14:14.132Z</time></trkpt><trkpt lat="44.7895359" lon="9.0300357"><ele>364.0</ele><time>2026-03-21T13:14:15.131Z</time></trkpt><trkpt lat="44.7895623" lon="9.0298415"><ele>360.5</ele><time>2026-03-21T13:14:16.131Z</time></trkpt><trkpt lat="44.7895907" lon="9.0296471"><ele>357.0</ele><time>2026-03-21T13:14:17.132Z</time></trkpt><trkpt lat="44.789622" lon="9.0294573"><ele>353.5</ele><time>2026-03-21T13:14:18.132Z</time></trkpt><trkpt lat="44.7896427" lon="9.0292742"><ele>350.0</ele><time>2026-03-21T13:14:19.132Z</time></trkpt><trkpt lat="44.7896489" lon="9.0290867"><ele>348.0</ele><time>2026-03-21T13:14:20.132Z</time></trkpt><trkpt lat="44.7896462" lon="9.0288991"><ele>346.0</ele><time>2026-03-21T13:14:21.131Z</time></trkpt><trkpt lat="44.7896367" lon="9.0287135"><ele>344.0</ele><time>2026-03-21T13:14:22.131Z</time></trkpt><trkpt lat="44.7896326" lon="9.0285308"><ele>342.0</ele><time>2026-03-21T13:14:23.131Z</time></trkpt><trkpt lat="44.7896586" lon="9.0283458"><ele>340.0</ele><time>2026-03-21T13:14:24.131Z</time></trkpt><trkpt lat="44.7896715" lon="9.0281623"><ele>338.0</ele><time>2026-03-21T13:14:25.132Z</time></trkpt><trkpt lat="44.7896794" lon="9.0279882"><ele>336.0</ele><time>2026-03-21T13:14:26.132Z</time></trkpt><trkpt lat="44.7896807" lon="9.0278205"><ele>334.0</ele><time>2026-03-21T13:14:27.131Z</time></trkpt><trkpt lat="44.7896797" lon="9.0276651"><ele>334.0</ele><time>2026-03-21T13:14:28.131Z</time></trkpt><trkpt lat="44.7896899" lon="9.0275297"><ele>334.0</ele><time>2026-03-21T13:14:29.132Z</time></trkpt><trkpt lat="44.7897217" lon="9.0274369"><ele>334.0</ele><time>2026-03-21T13:14:30.131Z</time></trkpt><trkpt lat="44.7897819" lon="9.0273949"><ele>334.0</ele><time>2026-03-21T13:14:31.131Z</time></trkpt><trkpt lat="44.7898491" lon="9.0273821"><ele>334.0</ele><time>2026-03-21T13:14:32.131Z</time></trkpt><trkpt lat="44.789925" lon="9.0273964"><ele>334.0</ele><time>2026-03-21T13:14:33.131Z</time></trkpt><trkpt lat="44.7900054" lon="9.0274266"><ele>335.4</ele><time>2026-03-21T13:14:34.131Z</time></trkpt><trkpt lat="44.7900918" lon="9.0273485"><ele>336.79999999999995</ele><time>2026-03-21T13:14:36.131Z</time></trkpt><trkpt lat="44.7900973" lon="9.0271844"><ele>338.20000000000005</ele><time>2026-03-21T13:14:38.132Z</time></trkpt><trkpt lat="44.7900818" lon="9.0270919"><ele>339.6</ele><time>2026-03-21T13:14:39.132Z</time></trkpt><trkpt lat="44.789978" lon="9.0269953"><ele>341.0</ele><time>2026-03-21T13:14:40.131Z</time></trkpt><trkpt lat="44.789899" lon="9.0269003"><ele>341.0</ele><time>2026-03-21T13:14:41.131Z</time></trkpt><trkpt lat="44.7898064" lon="9.0268013"><ele>341.0</ele><time>2026-03-21T13:14:42.132Z</time></trkpt><trkpt lat="44.7897261" lon="9.0267067"><ele>341.0</ele><time>2026-03-21T13:14:43.132Z</time></trkpt><trkpt lat="44.7896504" lon="9.0266112"><ele>341.0</ele><time>2026-03-21T13:14:44.132Z</time></trkpt><trkpt lat="44.7896266" lon="9.0264852"><ele>341.0</ele><time>2026-03-21T13:14:45.132Z</time></trkpt><trkpt lat="44.7896208" lon="9.0263458"><ele>341.75</ele><time>2026-03-21T13:14:46.132Z</time></trkpt><trkpt lat="44.7896495" lon="9.0261995"><ele>342.5</ele><time>2026-03-21T13:14:47.131Z</time></trkpt><trkpt lat="44.7896845" lon="9.0260483"><ele>343.25</ele><time>2026-03-21T13:14:48.132Z</time></trkpt><trkpt lat="44.7897275" lon="9.025872"><ele>344.0</ele><time>2026-03-21T13:14:49.131Z</time></trkpt><trkpt lat="44.7894355" lon="9.0305466"><ele>345.5</ele><time>2026-03-21T13:14:12.131Z</time></trkpt><trkpt lat="44.7894672" lon="9.0304058"><ele>347.0</ele><time>2026-03-21T13:14:13.131Z</time></trkpt><trkpt lat="44.7895067" lon="9.0302264"><ele>348.5</ele><time>2026-03-21T13:14:14.132Z</time></trkpt><trkpt lat="44.7895359" lon="9.0300357"><ele>350.0</ele><time>2026-03-21T13:14:15.131Z</time></trkpt><trkpt lat="44.7895623" lon="9.0298415"><ele>350.0</ele><time>2026-03-21T13:14:16.131Z</time></trkpt><trkpt lat="44.7895907" lon="9.0296471"><ele>350.0</ele><time>2026-03-21T13:14:17.132Z</time></trkpt><trkpt lat="44.789622" lon="9.0294573"><ele>350.0</ele><time>2026-03-21T13:14:18.132Z</time></trkpt><trkpt lat="44.7896427" lon="9.0292742"><ele>350.0</ele><time>2026-03-21T13:14:19.132Z</time></trkpt><trkpt lat="44.7896489" lon="9.0290867"><ele>348.0</ele><time>2026-03-21T13:14:20.132Z</time></trkpt><trkpt lat="44.7896462" lon="9.0288991"><ele>346.0</ele><time>2026-03-21T13:14:21.131Z</time></trkpt><trkpt lat="44.7896367" lon="9.0287135"><ele>344.0</ele><time>2026-03-21T13:14:22.131Z</time></trkpt><trkpt lat="44.7896326" lon="9.0285308"><ele>342.0</ele><time>2026-03-21T13:14:23.131Z</time></trkpt><trkpt lat="44.7896586" lon="9.0283458"><ele>340.0</ele><time>2026-03-21T13:14:24.131Z</time></trkpt><trkpt lat="44.7896715" lon="9.0281623"><ele>338.0</ele><time>2026-03-21T13:14:25.132Z</time></trkpt><trkpt lat="44.7896794" lon="9.0279882"><ele>336.0</ele><time>2026-03-21T13:14:26.132Z</time></trkpt><trkpt lat="44.7896807" lon="9.0278205"><ele>334.0</ele><time>2026-03-21T13:14:27.131Z</time></trkpt><trkpt lat="44.7896797" lon="9.0276651"><ele>334.0</ele><time>2026-03-21T13:14:28.131Z</time></trkpt><trkpt lat="44.7896899" lon="9.0275297"><ele>334.0</ele><time>2026-03-21T13:14:29.132Z</time></trkpt><trkpt lat="44.7897217" lon="9.0274369"><ele>334.0</ele><time>2026-03-21T13:14:30.131Z</time></trkpt><trkpt lat="44.7897819" lon="9.0273949"><ele>334.0</ele><time>2026-03-21T13:14:31.131Z</time></trkpt><trkpt lat="44.7898491" lon="9.0273821"><ele>334.0</ele><time>2026-03-21T13:14:32.131Z</time></trkpt><trkpt lat="44.789925" lon="9.0273964"><ele>334.0</ele><time>2026-03-21T13:14:33.131Z</time></trkpt><trkpt lat="44.7900054" lon="9.0274266"><ele>335.4</ele><time>2026-03-21T13:14:34.131Z</time></trkpt><trkpt lat="44.7900918" lon="9.0273485"><ele>336.79999999999995</ele><time>2026-03-21T13:14:36.131Z</time></trkpt><trkpt lat="44.7900973" lon="9.0271844"><ele>338.20000000000005</ele><time>2026-03-21T13:14:38.132Z</time></trkpt><trkpt lat="44.7900818" lon="9.0270919"><ele>339.6</ele><time>2026-03-21T13:14:39.132Z</time></trkpt><trkpt lat="44.789978" lon="9.0269953"><ele>341.0</ele><time>2026-03-21T13:14:40.131Z</time></trkpt><trkpt lat="44.789899" lon="9.0269003"><ele>341.0</ele><time>2026-03-21T13:14:41.131Z</time></trkpt><trkpt lat="44.7898064" lon="9.0268013"><ele>341.0</ele><time>2026-03-21T13:14:42.132Z</time></trkpt><trkpt lat="44.7897261" lon="9.0267067"><ele>341.0</ele><time>2026-03-21T13:14:43.132Z</time></trkpt><trkpt lat="44.7896504" lon="9.0266112"><ele>341.0</ele><time>2026-03-21T13:14:44.132Z</time></trkpt><trkpt lat="44.7896266" lon="9.0264852"><ele>341.0</ele><time>2026-03-21T13:14:45.132Z</time></trkpt><trkpt lat="44.7896208" lon="9.0263458"><ele>341.75</ele><time>2026-03-21T13:14:46.132Z</time></trkpt><trkpt lat="44.7896495" lon="9.0261995"><ele>342.5</ele><time>2026-03-21T13:14:47.131Z</time></trkpt><trkpt lat="44.7896845" lon="9.0260483"><ele>343.25</ele><time>2026-03-21T13:14:48.132Z</time></trkpt><trkpt lat="44.7897275" lon="9.025872"><ele>344.0</ele><time>2026-03-21T13:14:49.131Z</time></trkpt><trkpt lat="44.7897679" lon="9.0257009"><ele>342.0</ele><time>2026-03-21T13:14:50.132Z</time></trkpt><trkpt lat="44.7897917" lon="9.025532"><ele>340.0</ele><time>2026-03-21T13:14:51.131Z</time></trkpt><trkpt lat="44.7897999" lon="9.0253585"><ele>338.0</ele><time>2026-03-21T13:14:52.131Z</time></trkpt><trkpt lat="44.789799" lon="9.0251936"><ele>336.0</ele><time>2026-03-21T13:14:53.132Z</time></trkpt><trkpt lat="44.7898052" lon="9.0250376"><ele>332.5</ele><time>2026-03-21T13:14:54.132Z</time></trkpt><trkpt lat="44.7898289" lon="9.0248764"><ele>329.0</ele><time>2026-03-21T13:14:55.132Z</time></trkpt><trkpt lat="44.7898624" lon="9.0247193"><ele>325.5</ele><time>2026-03-21T13:14:56.132Z</time></trkpt><trkpt lat="44.7899017" lon="9.0245615"><ele>322.0</ele><time>2026-03-21T13:14:57.131Z</time></trkpt><trkpt lat="44.7899434" lon="9.0243975"><ele>322.0</ele><time>2026-03-21T13:14:58.132Z</time></trkpt><trkpt lat="44.7899872" lon="9.0242301"><ele>322.0</ele><time>2026-03-21T13:14:59.132Z</time></trkpt><trkpt lat="44.7900293" lon="9.024059"><ele>322.0</ele><time>2026-03-21T13:15:00.132Z</time></trkpt><trkpt lat="44.7900648" lon="9.0238945"><ele>322.0</ele><time>2026-03-21T13:15:01.132Z</time></trkpt><trkpt lat="44.7900743" lon="9.023724"><ele>319.75</ele><time>2026-03-21T13:15:02.132Z</time></trkpt><trkpt lat="44.7900609" lon="9.0235603"><ele>317.5</ele><time>2026-03-21T13:15:03.132Z</time></trkpt><trkpt lat="44.7900504" lon="9.0233888"><ele>315.25</ele><time>2026-03-21T13:15:04.132Z</time></trkpt><trkpt lat="44.790039" lon="9.0232255"><ele>313.0</ele><time>2026-03-21T13:15:05.131Z</time></trkpt><trkpt lat="44.7900275" lon="9.0230603"><ele>312.5</ele><time>2026-03-21T13:15:06.131Z</time></trkpt><trkpt lat="44.7900196" lon="9.0228969"><ele>312.0</ele><time>2026-03-21T13:15:07.131Z</time></trkpt><trkpt lat="44.790026" lon="9.0227222"><ele>311.5</ele><time>2026-03-21T13:15:08.132Z</time></trkpt><trkpt lat="44.790037" lon="9.0225349"><ele>311.0</ele><time>2026-03-21T13:15:09.132Z</time></trkpt><trkpt lat="44.7900635" lon="9.022339"><ele>312.33333333333337</ele><time>2026-03-21T13:15:10.131Z</time></trkpt><trkpt lat="44.7900956" lon="9.0221275"><ele>313.6666666666667</ele><time>2026-03-21T13:15:11.131Z</time></trkpt><trkpt lat="44.7901301" lon="9.0219052"><ele>315.0</ele><time>2026-03-21T13:15:12.132Z</time></trkpt><trkpt lat="44.7901701" lon="9.0216959"><ele>312.75</ele><time>2026-03-21T13:15:13.131Z</time></trkpt><trkpt lat="44.7902087" lon="9.0214938"><ele>310.5</ele><time>2026-03-21T13:15:14.132Z</time></trkpt><trkpt lat="44.7902453" lon="9.0213013"><ele>308.25</ele><time>2026-03-21T13:15:15.131Z</time></trkpt><trkpt lat="44.7902955" lon="9.0211199"><ele>306.0</ele><time>2026-03-21T13:15:16.131Z</time></trkpt><trkpt lat="44.790366" lon="9.0209607"><ele>306.0</ele><time>2026-03-21T13:15:17.132Z</time></trkpt><trkpt lat="44.7904437" lon="9.0208317"><ele>306.0</ele><time>2026-03-21T13:15:18.131Z</time></trkpt><trkpt lat="44.7905212" lon="9.0207219"><ele>306.0</ele><time>2026-03-21T13:15:19.132Z</time></trkpt><trkpt lat="44.7905799" lon="9.0206101"><ele>306.0</ele><time>2026-03-21T13:15:20.132Z</time></trkpt><trkpt lat="44.7906166" lon="9.0204874"><ele>306.0</ele><time>2026-03-21T13:15:21.132Z</time></trkpt><trkpt lat="44.79062" lon="9.0203521"><ele>306.0</ele><time>2026-03-21T13:15:22.132Z</time></trkpt><trkpt lat="44.7905928" lon="9.0202159"><ele>306.0</ele><time>2026-03-21T13:15:23.131Z</time></trkpt><trkpt lat="44.7905693" lon="9.0200665"><ele>306.0</ele><time>2026-03-21T13:15:24.131Z</time></trkpt><trkpt lat="44.7905554" lon="9.0198862"><ele>306.0</ele><time>2026-03-21T13:15:25.132Z</time></trkpt><trkpt lat="44.7905691" lon="9.0196965"><ele>306.0</ele><time>2026-03-21T13:15:26.132Z</time></trkpt><trkpt lat="44.7905903" lon="9.0194962"><ele>306.0</ele><time>2026-03-21T13:15:27.131Z</time></trkpt><trkpt lat="44.7906104" lon="9.0192931"><ele>306.0</ele><time>2026-03-21T13:15:28.132Z</time></trkpt><trkpt lat="44.7906184" lon="9.0190834"><ele>306.0</ele><time>2026-03-21T13:15:29.132Z</time></trkpt><trkpt lat="44.79061" lon="9.0188833"><ele>305.0</ele><time>2026-03-21T13:15:30.131Z</time></trkpt><trkpt lat="44.7905921" lon="9.0186973"><ele>304.0</ele><time>2026-03-21T13:15:31.132Z</time></trkpt><trkpt lat="44.7905677" lon="9.0185181"><ele>303.0</ele><time>2026-03-21T13:15:32.132Z</time></trkpt><trkpt lat="44.7905726" lon="9.0183365"><ele>302.0</ele><time>2026-03-21T13:15:33.132Z</time></trkpt><trkpt lat="44.7906041" lon="9.018159"><ele>301.25</ele><time>2026-03-21T13:15:34.131Z</time></trkpt><trkpt lat="44.7906537" lon="9.0179867"><ele>300.5</ele><time>2026-03-21T13:15:35.131Z</time></trkpt><trkpt lat="44.7907117" lon="9.0178009"><ele>299.75</ele><time>2026-03-21T13:15:36.132Z</time></trkpt><trkpt lat="44.790769" lon="9.017601"><ele>299.0</ele><time>2026-03-21T13:15:37.131Z</time></trkpt><trkpt lat="44.7908198" lon="9.0173896"><ele>298.6666666666667</ele><time>2026-03-21T13:15:38.132Z</time></trkpt><trkpt lat="44.7908779" lon="9.0171915"><ele>298.3333333333333</ele><time>2026-03-21T13:15:39.131Z</time></trkpt><trkpt lat="44.7909242" lon="9.0169899"><ele>298.0</ele><time>2026-03-21T13:15:40.132Z</time></trkpt><trkpt lat="44.7909459" lon="9.0167741"><ele>296.66666666666663</ele><time>2026-03-21T13:15:41.131Z</time></trkpt><trkpt lat="44.7909408" lon="9.0165436"><ele>295.3333333333333</ele><time>2026-03-21T13:15:42.132Z</time></trkpt><trkpt lat="44.7909153" lon="9.0163137"><ele>294.0</ele><time>2026-03-21T13:15:43.132Z</time></trkpt><trkpt lat="44.7908824" lon="9.0160765"><ele>294.0</ele><time>2026-03-21T13:15:44.132Z</time></trkpt><trkpt lat="44.7908376" lon="9.0158315"><ele>294.0</ele><time>2026-03-21T13:15:45.132Z</time></trkpt><trkpt lat="44.7907819" lon="9.015577"><ele>294.0</ele><time>2026-03-21T13:15:46.131Z</time></trkpt><trkpt lat="44.7907307" lon="9.015319"><ele>292.6666666666667</ele><time>2026-03-21T13:15:47.132Z</time></trkpt><trkpt lat="44.7906813" lon="9.0150517"><ele>291.33333333333337</ele><time>2026-03-21T13:15:48.132Z</time></trkpt><trkpt lat="44.7906423" lon="9.0147847"><ele>290.0</ele><time>2026-03-21T13:15:49.132Z</time></trkpt><trkpt lat="44.7906081" lon="9.0145153"><ele>289.33333333333337</ele><time>2026-03-21T13:15:50.131Z</time></trkpt><trkpt lat="44.7905761" lon="9.0142601"><ele>288.6666666666667</ele><time>2026-03-21T13:15:51.131Z</time></trkpt><trkpt lat="44.7905416" lon="9.0140208"><ele>288.0</ele><time>2026-03-21T13:15:52.131Z</time></trkpt><trkpt lat="44.7904966" lon="9.0137996"><ele>288.0</ele><time>2026-03-21T13:15:53.131Z</time></trkpt><trkpt lat="44.7904269" lon="9.0135893"><ele>288.0</ele><time>2026-03-21T13:15:54.132Z</time></trkpt><trkpt lat="44.7903351" lon="9.0133837"><ele>288.0</ele><time>2026-03-21T13:15:55.131Z</time></trkpt><trkpt lat="44.7902379" lon="9.0131779"><ele>286.0</ele><time>2026-03-21T13:15:56.132Z</time></trkpt><trkpt lat="44.790135" lon="9.0129645"><ele>284.0</ele><time>2026-03-21T13:15:57.132Z</time></trkpt><trkpt lat="44.790026" lon="9.0127548"><ele>282.0</ele><time>2026-03-21T13:15:58.132Z</time></trkpt><trkpt lat="44.7899084" lon="9.0125447"><ele>282.0</ele><time>2026-03-21T13:15:59.131Z</time></trkpt><trkpt lat="44.7897906" lon="9.0123392"><ele>282.0</ele><time>2026-03-21T13:16:00.131Z</time></trkpt><trkpt lat="44.7896827" lon="9.0121443"><ele>282.0</ele><time>2026-03-21T13:16:01.131Z</time></trkpt><trkpt lat="44.7896066" lon="9.0119405"><ele>282.0</ele><time>2026-03-21T13:16:02.132Z</time></trkpt><trkpt lat="44.7895588" lon="9.0117355"><ele>282.0</ele><time>2026-03-21T13:16:03.132Z</time></trkpt><trkpt lat="44.7895313" lon="9.0115227"><ele>282.0</ele><time>2026-03-21T13:16:04.131Z</time></trkpt><trkpt lat="44.7894983" lon="9.0113079"><ele>281.6666666666667</ele><time>2026-03-21T13:16:05.132Z</time></trkpt><trkpt lat="44.7894369" lon="9.0111113"><ele>281.33333333333337</ele><time>2026-03-21T13:16:06.132Z</time></trkpt><trkpt lat="44.7893509" lon="9.0109287"><ele>281.0</ele><time>2026-03-21T13:16:07.132Z</time></trkpt><trkpt lat="44.78926" lon="9.0107691"><ele>281.0</ele><time>2026-03-21T13:16:08.132Z</time></trkpt><trkpt lat="44.789186" lon="9.0106037"><ele>281.0</ele><time>2026-03-21T13:16:09.132Z</time></trkpt><trkpt lat="44.7891301" lon="9.0104261"><ele>281.0</ele><time>2026-03-21T13:16:10.131Z</time></trkpt><trkpt lat="44.7890932" lon="9.0102226"><ele>281.0</ele><time>2026-03-21T13:16:11.132Z</time></trkpt><trkpt lat="44.7890556" lon="9.0100014"><ele>279.33333333333337</ele><time>2026-03-21T13:16:12.131Z</time></trkpt><trkpt lat="44.7890099" lon="9.009769"><ele>277.6666666666667</ele><time>2026-03-21T13:16:13.131Z</time></trkpt><trkpt lat="44.7889492" lon="9.009522"><ele>276.0</ele><time>2026-03-21T13:16:14.132Z</time></trkpt><trkpt lat="44.7888762" lon="9.0092804"><ele>275.6666666666667</ele><time>2026-03-21T13:16:15.132Z</time></trkpt><trkpt lat="44.78881" lon="9.0090522"><ele>275.33333333333337</ele><time>2026-03-21T13:16:16.131Z</time></trkpt><trkpt lat="44.7887532" lon="9.0088308"><ele>275.0</ele><time>2026-03-21T13:16:17.131Z</time></trkpt><trkpt lat="44.7887266" lon="9.0086139"><ele>275.0</ele><time>2026-03-21T13:16:18.131Z</time></trkpt><trkpt lat="44.7887276" lon="9.0083987"><ele>275.0</ele><time>2026-03-21T13:16:19.132Z</time></trkpt><trkpt lat="44.7887569" lon="9.0082012"><ele>275.0</ele><time>2026-03-21T13:16:20.131Z</time></trkpt><trkpt lat="44.7888086" lon="9.0080158"><ele>275.0</ele><time>2026-03-21T13:16:21.132Z</time></trkpt><trkpt lat="44.7888764" lon="9.0078509"><ele>274.75</ele><time>2026-03-21T13:16:22.131Z</time></trkpt><trkpt lat="44.7889345" lon="9.0076791"><ele>274.5</ele><time>2026-03-21T13:16:23.131Z</time></trkpt><trkpt lat="44.7889797" lon="9.0075037"><ele>274.25</ele><time>2026-03-21T13:16:24.131Z</time></trkpt><trkpt lat="44.7890073" lon="9.0073164"><ele>274.0</ele><time>2026-03-21T13:16:25.131Z</time></trkpt><trkpt lat="44.7890136" lon="9.0071097"><ele>273.66666666666663</ele><time>2026-03-21T13:16:26.132Z</time></trkpt><trkpt lat="44.7890028" lon="9.0068841"><ele>273.3333333333333</ele><time>2026-03-21T13:16:27.131Z</time></trkpt><trkpt lat="44.7889934" lon="9.006647"><ele>273.0</ele><time>2026-03-21T13:16:28.132Z</time></trkpt><trkpt lat="44.7889975" lon="9.0063995"><ele>272.6666666666667</ele><time>2026-03-21T13:16:29.131Z</time></trkpt><trkpt lat="44.7890216" lon="9.006148"><ele>272.33333333333337</ele><time>2026-03-21T13:16:30.131Z</time></trkpt><trkpt lat="44.7890715" lon="9.0059035"><ele>272.0</ele><time>2026-03-21T13:16:31.131Z</time></trkpt><trkpt lat="44.7891328" lon="9.0056815"><ele>272.0</ele><time>2026-03-21T13:16:32.131Z</time></trkpt><trkpt lat="44.7892024" lon="9.0054862"><ele>272.0</ele><time>2026-03-21T13:16:33.132Z</time></trkpt><trkpt lat="44.7892629" lon="9.0053137"><ele>272.0</ele><time>2026-03-21T13:16:34.132Z</time></trkpt><trkpt lat="44.7892876" lon="9.0051679"><ele>272.0</ele><time>2026-03-21T13:16:35.132Z</time></trkpt><trkpt lat="44.789273" lon="9.0050393"><ele>271.0</ele><time>2026-03-21T13:16:36.132Z</time></trkpt><trkpt lat="44.7892298" lon="9.0049125"><ele>270.0</ele><time>2026-03-21T13:16:37.131Z</time></trkpt><trkpt lat="44.7891753" lon="9.0047888"><ele>269.0</ele><time>2026-03-21T13:16:38.131Z</time></trkpt><trkpt lat="44.7891167" lon="9.0046685"><ele>268.0</ele><time>2026-03-21T13:16:39.131Z</time></trkpt><trkpt lat="44.7890647" lon="9.0045675"><ele>267.0</ele><time>2026-03-21T13:16:40.131Z</time></trkpt><trkpt lat="44.7890134" lon="9.0044813"><ele>267.0</ele><time>2026-03-21T13:16:41.132Z</time></trkpt><trkpt lat="44.7889597" lon="9.0044004"><ele>267.0</ele><time>2026-03-21T13:16:42.132Z</time></trkpt><trkpt lat="44.7889" lon="9.004324"><ele>267.0</ele><time>2026-03-21T13:16:43.132Z</time></trkpt><trkpt lat="44.7888333" lon="9.0042557"><ele>267.0</ele><time>2026-03-21T13:16:44.132Z</time></trkpt><trkpt lat="44.7887608" lon="9.0042024"><ele>267.0</ele><time>2026-03-21T13:16:45.131Z</time></trkpt><trkpt lat="44.7886854" lon="9.0041541"><ele>267.0</ele><time>2026-03-21T13:16:46.131Z</time></trkpt><trkpt lat="44.7886081" lon="9.0041023"><ele>267.0</ele><time>2026-03-21T13:16:47.132Z</time></trkpt><trkpt lat="44.7885288" lon="9.0040406"><ele>267.0</ele><time>2026-03-21T13:16:48.132Z</time></trkpt><trkpt lat="44.7884577" lon="9.0039659"><ele>267.0</ele><time>2026-03-21T13:16:49.132Z</time></trkpt><trkpt lat="44.7884009" lon="9.0038719"><ele>267.0</ele><time>2026-03-21T13:16:50.131Z</time></trkpt><trkpt lat="44.7883584" lon="9.0037736"><ele>267.0</ele><time>2026-03-21T13:16:51.132Z</time></trkpt><trkpt lat="44.7883085" lon="9.0036731"><ele>267.0</ele><time>2026-03-21T13:16:52.132Z</time></trkpt><trkpt lat="44.7882467" lon="9.0036042"><ele>267.0</ele><time>2026-03-21T13:16:53.132Z</time></trkpt><trkpt lat="44.7881799" lon="9.0035767"><ele>267.0</ele><time>2026-03-21T13:16:54.132Z</time></trkpt><trkpt lat="44.7881092" lon="9.0035742"><ele>267.0</ele><time>2026-03-21T13:16:55.132Z</time></trkpt><trkpt lat="44.7880463" lon="9.0035874"><ele>267.0</ele><time>2026-03-21T13:16:56.131Z</time></trkpt><trkpt lat="44.7879442" lon="9.003602"><ele>267.0</ele><time>2026-03-21T13:16:58.132Z</time></trkpt><trkpt lat="44.7878747" lon="9.0035765"><ele>267.0</ele><time>2026-03-21T13:17:00.131Z</time></trkpt><trkpt lat="44.7878066" lon="9.0035192"><ele>267.0</ele><time>2026-03-21T13:17:28.131Z</time></trkpt><trkpt lat="44.7877684" lon="9.0034023"><ele>267.0</ele><time>2026-03-21T13:17:31.131Z</time></trkpt><trkpt lat="44.7877207" lon="9.0032211"><ele>267.0</ele><time>2026-03-21T13:17:33.132Z</time></trkpt><trkpt lat="44.7876996" lon="9.0031263"><ele>267.0</ele><time>2026-03-21T13:17:34.132Z</time></trkpt><trkpt lat="44.7876804" lon="9.0030378"><ele>267.0</ele><time>2026-03-21T13:17:35.132Z</time></trkpt><trkpt lat="44.7876477" lon="9.002915"><ele>267.5</ele><time>2026-03-21T13:17:37.132Z</time></trkpt><trkpt lat="44.7875824" lon="9.0028236"><ele>268.0</ele><time>2026-03-21T13:17:39.132Z</time></trkpt><trkpt lat="44.7875185" lon="9.0027973"><ele>268.5</ele><time>2026-03-21T13:17:40.131Z</time></trkpt><trkpt lat="44.7874381" lon="9.002785"><ele>269.0</ele><time>2026-03-21T13:17:41.132Z</time></trkpt><trkpt lat="44.7873485" lon="9.0027668"><ele>269.5</ele><time>2026-03-21T13:17:42.132Z</time></trkpt><trkpt lat="44.7872497" lon="9.0027366"><ele>270.0</ele><time>2026-03-21T13:17:43.132Z</time></trkpt><trkpt lat="44.7871466" lon="9.0026838"><ele>270.0</ele><time>2026-03-21T13:17:44.131Z</time></trkpt><trkpt lat="44.787043" lon="9.0026032"><ele>270.0</ele><time>2026-03-21T13:17:45.131Z</time></trkpt><trkpt lat="44.7869128" lon="9.0025026"><ele>270.0</ele><time>2026-03-21T13:17:46.131Z</time></trkpt><trkpt lat="44.7867908" lon="9.0024035"><ele>270.0</ele><time>2026-03-21T13:17:47.131Z</time></trkpt><trkpt lat="44.7866799" lon="9.0023117"><ele>270.6</ele><time>2026-03-21T13:17:48.131Z</time></trkpt><trkpt lat="44.786577" lon="9.0022251"><ele>271.2</ele><time>2026-03-21T13:17:49.131Z</time></trkpt><trkpt lat="44.7864829" lon="9.0021481"><ele>271.8</ele><time>2026-03-21T13:17:50.132Z</time></trkpt><trkpt lat="44.7863959" lon="9.0020753"><ele>272.4</ele><time>2026-03-21T13:17:51.132Z</time></trkpt><trkpt lat="44.7863065" lon="9.0019996"><ele>273.0</ele><time>2026-03-21T13:17:52.131Z</time></trkpt><trkpt lat="44.7862138" lon="9.0019288"><ele>273.0</ele><time>2026-03-21T13:17:53.132Z</time></trkpt><trkpt lat="44.7861192" lon="9.0018432"><ele>273.0</ele><time>2026-03-21T13:17:54.132Z</time></trkpt><trkpt lat="44.7860197" lon="9.0017598"><ele>273.0</ele><time>2026-03-21T13:17:55.132Z</time></trkpt><trkpt lat="44.7859189" lon="9.0016761"><ele>273.0</ele><time>2026-03-21T13:17:56.132Z</time></trkpt><trkpt lat="44.7858071" lon="9.0015862"><ele>275.5</ele><time>2026-03-21T13:17:57.132Z</time></trkpt><trkpt lat="44.7857084" lon="9.0015035"><ele>278.0</ele><time>2026-03-21T13:17:58.131Z</time></trkpt><trkpt lat="44.7856111" lon="9.0014201"><ele>280.5</ele><time>2026-03-21T13:17:59.131Z</time></trkpt><trkpt lat="44.7855078" lon="9.0013393"><ele>283.0</ele><time>2026-03-21T13:18:00.132Z</time></trkpt><trkpt lat="44.785415" lon="9.0012591"><ele>283.0</ele><time>2026-03-21T13:18:01.132Z</time></trkpt><trkpt lat="44.7853195" lon="9.0011741"><ele>283.0</ele><time>2026-03-21T13:18:02.131Z</time></trkpt><trkpt lat="44.7852246" lon="9.0010941"><ele>283.0</ele><time>2026-03-21T13:18:03.132Z</time></trkpt><trkpt lat="44.7851316" lon="9.0010162"><ele>283.0</ele><time>2026-03-21T13:18:04.132Z</time></trkpt><trkpt lat="44.7850332" lon="9.0009369"><ele>283.0</ele><time>2026-03-21T13:18:05.132Z</time></trkpt><trkpt lat="44.7849359" lon="9.0008597"><ele>286.75</ele><time>2026-03-21T13:18:06.131Z</time></trkpt><trkpt lat="44.784839" lon="9.0007799"><ele>290.5</ele><time>2026-03-21T13:18:07.132Z</time></trkpt><trkpt lat="44.7847388" lon="9.0007018"><ele>294.25</ele><time>2026-03-21T13:18:08.131Z</time></trkpt><trkpt lat="44.7846234" lon="9.0006203"><ele>298.0</ele><time>2026-03-21T13:18:09.131Z</time></trkpt><trkpt lat="44.7845054" lon="9.0005313"><ele>298.0</ele><time>2026-03-21T13:18:10.132Z</time></trkpt><trkpt lat="44.784385" lon="9.0004416"><ele>298.0</ele><time>2026-03-21T13:18:11.132Z</time></trkpt><trkpt lat="44.7842675" lon="9.0003417"><ele>298.0</ele><time>2026-03-21T13:18:12.131Z</time></trkpt><trkpt lat="44.7841409" lon="9.0002324"><ele>298.0</ele><time>2026-03-21T13:18:13.132Z</time></trkpt><trkpt lat="44.784013" lon="9.0001126"><ele>294.0</ele><time>2026-03-21T13:18:14.132Z</time></trkpt><trkpt lat="44.7838786" lon="8.9999951"><ele>290.0</ele><time>2026-03-21T13:18:15.132Z</time></trkpt><trkpt lat="44.7837418" lon="8.9998733"><ele>286.0</ele><time>2026-03-21T13:18:16.131Z</time></trkpt><trkpt lat="44.7836023" lon="8.9997446"><ele>285.0</ele><time>2026-03-21T13:18:17.132Z</time></trkpt><trkpt lat="44.783465" lon="8.9996099"><ele>284.0</ele><time>2026-03-21T13:18:18.131Z</time></trkpt><trkpt lat="44.7833159" lon="8.999474"><ele>283.0</ele><time>2026-03-21T13:18:19.131Z</time></trkpt><trkpt lat="44.7831687" lon="8.9993378"><ele>283.0</ele><time>2026-03-21T13:18:20.131Z</time></trkpt><trkpt lat="44.7830223" lon="8.9992082"><ele>283.0</ele><time>2026-03-21T13:18:21.132Z</time></trkpt><trkpt lat="44.7828796" lon="8.9990804"><ele>283.0</ele><time>2026-03-21T13:18:22.131Z</time></trkpt><trkpt lat="44.7827513" lon="8.9989621"><ele>283.75</ele><time>2026-03-21T13:18:23.132Z</time></trkpt><trkpt lat="44.78263" lon="8.9988552"><ele>284.5</ele><time>2026-03-21T13:18:24.131Z</time></trkpt><trkpt lat="44.7825142" lon="8.9987692"><ele>285.25</ele><time>2026-03-21T13:18:25.131Z</time></trkpt><trkpt lat="44.7824028" lon="8.9986758"><ele>286.0</ele><time>2026-03-21T13:18:26.131Z</time></trkpt><trkpt lat="44.7823023" lon="8.9985583"><ele>286.0</ele><time>2026-03-21T13:18:27.131Z</time></trkpt><trkpt lat="44.7822237" lon="8.9984008"><ele>286.0</ele><time>2026-03-21T13:18:28.132Z</time></trkpt><trkpt lat="44.7821548" lon="8.9982252"><ele>286.0</ele><time>2026-03-21T13:18:29.132Z</time></trkpt><trkpt lat="44.7820789" lon="8.9980472"><ele>286.0</ele><time>2026-03-21T13:18:30.132Z</time></trkpt><trkpt lat="44.7819935" lon="8.9978712"><ele>286.0</ele><time>2026-03-21T13:18:31.132Z</time></trkpt><trkpt lat="44.781889" lon="8.9977166"><ele>286.0</ele><time>2026-03-21T13:18:32.132Z</time></trkpt><trkpt lat="44.7817715" lon="8.9975822"><ele>286.0</ele><time>2026-03-21T13:18:33.131Z</time></trkpt><trkpt lat="44.781645" lon="8.9974715"><ele>286.0</ele><time>2026-03-21T13:18:34.132Z</time></trkpt><trkpt lat="44.7815157" lon="8.9973712"><ele>286.0</ele><time>2026-03-21T13:18:35.132Z</time></trkpt><trkpt lat="44.7813944" lon="8.9972747"><ele>286.0</ele><time>2026-03-21T13:18:36.131Z</time></trkpt><trkpt lat="44.7812746" lon="8.997179"><ele>286.0</ele><time>2026-03-21T13:18:37.131Z</time></trkpt><trkpt lat="44.7811538" lon="8.9970894"><ele>286.0</ele><time>2026-03-21T13:18:38.132Z</time></trkpt><trkpt lat="44.7810417" lon="8.9970074"><ele>286.0</ele><time>2026-03-21T13:18:39.131Z</time></trkpt><trkpt lat="44.7809299" lon="8.9969199"><ele>286.0</ele><time>2026-03-21T13:18:40.131Z</time></trkpt><trkpt lat="44.7808204" lon="8.9968384"><ele>286.0</ele><time>2026-03-21T13:18:41.131Z</time></trkpt><trkpt lat="44.7807111" lon="8.9967584"><ele>287.25</ele><time>2026-03-21T13:18:42.132Z</time></trkpt><trkpt lat="44.7806029" lon="8.9966771"><ele>288.5</ele><time>2026-03-21T13:18:43.131Z</time></trkpt><trkpt lat="44.7804948" lon="8.996603"><ele>289.75</ele><time>2026-03-21T13:18:44.132Z</time></trkpt><trkpt lat="44.7803925" lon="8.9965238"><ele>291.0</ele><time>2026-03-21T13:18:45.131Z</time></trkpt><trkpt lat="44.780296" lon="8.9964466"><ele>291.2</ele><time>2026-03-21T13:18:46.132Z</time></trkpt><trkpt lat="44.7802045" lon="8.996379"><ele>291.40000000000003</ele><time>2026-03-21T13:18:47.132Z</time></trkpt><trkpt lat="44.7801281" lon="8.9963186"><ele>291.6</ele><time>2026-03-21T13:18:48.132Z</time></trkpt><trkpt lat="44.7800657" lon="8.9962712"><ele>291.8</ele><time>2026-03-21T13:18:49.132Z</time></trkpt><trkpt lat="44.7799728" lon="8.9961908"><ele>292.0</ele><time>2026-03-21T13:18:51.132Z</time></trkpt><trkpt lat="44.7798922" lon="8.9961357"><ele>292.2</ele><time>2026-03-21T13:18:53.132Z</time></trkpt><trkpt lat="44.7797936" lon="8.9960464"><ele>292.4</ele><time>2026-03-21T13:18:55.132Z</time></trkpt><trkpt lat="44.7797278" lon="8.9959539"><ele>292.6</ele><time>2026-03-21T13:18:57.131Z</time></trkpt><trkpt lat="44.7797537" lon="8.9960655"><ele>292.8</ele><time>2026-03-21T13:19:05.131Z</time></trkpt><trkpt lat="44.7798318" lon="8.9961177"><ele>293.0</ele><time>2026-03-21T13:19:06.132Z</time></trkpt><trkpt lat="44.7798979" lon="8.9961723"><ele>293.0</ele><time>2026-03-21T13:19:07.131Z</time></trkpt><trkpt lat="44.7800004" lon="8.9962195"><ele>293.0</ele><time>2026-03-21T13:19:09.131Z</time></trkpt><trkpt lat="44.780028" lon="8.9961313"><ele>293.0</ele><time>2026-03-21T13:19:11.132Z</time></trkpt><trkpt lat="44.7800646" lon="8.9959944"><ele>293.0</ele><time>2026-03-21T13:19:13.131Z</time></trkpt><trkpt lat="44.7800935" lon="8.9959098"><ele>293.0</ele><time>2026-03-21T13:19:14.131Z</time></trkpt><trkpt lat="44.7801202" lon="8.9957555"><ele>292.8</ele><time>2026-03-21T13:19:16.132Z</time></trkpt><trkpt lat="44.7801094" lon="8.99566"><ele>292.6</ele><time>2026-03-21T13:19:17.132Z</time></trkpt><trkpt lat="44.780075" lon="8.9955577"><ele>292.4</ele><time>2026-03-21T13:19:18.131Z</time></trkpt><trkpt lat="44.7800286" lon="8.9954386"><ele>292.2</ele><time>2026-03-21T13:19:19.131Z</time></trkpt><trkpt lat="44.779989" lon="8.9952965"><ele>292.0</ele><time>2026-03-21T13:19:20.131Z</time></trkpt><trkpt lat="44.7799472" lon="8.9951285"><ele>291.75</ele><time>2026-03-21T13:19:21.131Z</time></trkpt><trkpt lat="44.7799024" lon="8.9949361"><ele>291.5</ele><time>2026-03-21T13:19:22.132Z</time></trkpt><trkpt lat="44.779846" lon="8.9947387"><ele>291.25</ele><time>2026-03-21T13:19:23.132Z</time></trkpt><trkpt lat="44.7797916" lon="8.9945535"><ele>291.0</ele><time>2026-03-21T13:19:24.131Z</time></trkpt><trkpt lat="44.7797464" lon="8.9943844"><ele>291.0</ele><time>2026-03-21T13:19:25.131Z</time></trkpt><trkpt lat="44.7797144" lon="8.9942153"><ele>291.0</ele><time>2026-03-21T13:19:26.131Z</time></trkpt><trkpt lat="44.7796967" lon="8.9940595"><ele>291.0</ele><time>2026-03-21T13:19:27.131Z</time></trkpt><trkpt lat="44.7796869" lon="8.9939315"><ele>291.0</ele><time>2026-03-21T13:19:28.131Z</time></trkpt><trkpt lat="44.779684" lon="8.9938241"><ele>291.0</ele><time>2026-03-21T13:19:29.132Z</time></trkpt><trkpt lat="44.7796885" lon="8.9937234"><ele>291.6</ele><time>2026-03-21T13:19:30.131Z</time></trkpt><trkpt lat="44.7797043" lon="8.993612"><ele>292.20000000000005</ele><time>2026-03-21T13:19:31.131Z</time></trkpt><trkpt lat="44.7797306" lon="8.9934909"><ele>292.79999999999995</ele><time>2026-03-21T13:19:32.132Z</time></trkpt><trkpt lat="44.7797584" lon="8.9933575"><ele>293.4</ele><time>2026-03-21T13:19:33.132Z</time></trkpt><trkpt lat="44.7797825" lon="8.9932105"><ele>294.0</ele><time>2026-03-21T13:19:34.132Z</time></trkpt><trkpt lat="44.7798" lon="8.9930486"><ele>294.25</ele><time>2026-03-21T13:19:35.131Z</time></trkpt><trkpt lat="44.779806" lon="8.9928772"><ele>294.5</ele><time>2026-03-21T13:19:36.131Z</time></trkpt><trkpt lat="44.7797864" lon="8.9927077"><ele>294.75</ele><time>2026-03-21T13:19:37.131Z</time></trkpt><trkpt lat="44.7797459" lon="8.9925401"><ele>295.0</ele><time>2026-03-21T13:19:38.132Z</time></trkpt><trkpt lat="44.7796898" lon="8.9923907"><ele>295.4</ele><time>2026-03-21T13:19:39.132Z</time></trkpt><trkpt lat="44.7796434" lon="8.992266"><ele>295.8</ele><time>2026-03-21T13:19:40.131Z</time></trkpt><trkpt lat="44.7795949" lon="8.9921617"><ele>296.2</ele><time>2026-03-21T13:19:41.132Z</time></trkpt><trkpt lat="44.7795365" lon="8.9920732"><ele>296.6</ele><time>2026-03-21T13:19:42.131Z</time></trkpt><trkpt lat="44.7794587" lon="8.9919875"><ele>297.0</ele><time>2026-03-21T13:19:43.132Z</time></trkpt><trkpt lat="44.7793741" lon="8.9918895"><ele>298.5</ele><time>2026-03-21T13:19:44.132Z</time></trkpt><trkpt lat="44.7793048" lon="8.991765"><ele>300.0</ele><time>2026-03-21T13:19:45.132Z</time></trkpt><trkpt lat="44.7792467" lon="8.9916119"><ele>301.5</ele><time>2026-03-21T13:19:46.131Z</time></trkpt><trkpt lat="44.7791774" lon="8.9914522"><ele>303.0</ele><time>2026-03-21T13:19:47.132Z</time></trkpt><trkpt lat="44.7790758" lon="8.9913177"><ele>303.0</ele><time>2026-03-21T13:19:48.131Z</time></trkpt><trkpt lat="44.7789426" lon="8.9912078"><ele>303.0</ele><time>2026-03-21T13:19:49.132Z</time></trkpt><trkpt lat="44.7787663" lon="8.9910867"><ele>303.0</ele><time>2026-03-21T13:19:50.131Z</time></trkpt><trkpt lat="44.7785761" lon="8.9909695"><ele>305.3333333333333</ele><time>2026-03-21T13:19:51.132Z</time></trkpt><trkpt lat="44.7784088" lon="8.9908789"><ele>307.66666666666663</ele><time>2026-03-21T13:19:52.132Z</time></trkpt><trkpt lat="44.7782446" lon="8.9907931"><ele>310.0</ele><time>2026-03-21T13:19:53.131Z</time></trkpt><trkpt lat="44.7781037" lon="8.9907004"><ele>310.0</ele><time>2026-03-21T13:19:54.132Z</time></trkpt><trkpt lat="44.7779921" lon="8.9905816"><ele>310.0</ele><time>2026-03-21T13:19:55.131Z</time></trkpt><trkpt lat="44.7779075" lon="8.990454"><ele>310.0</ele><time>2026-03-21T13:19:56.132Z</time></trkpt><trkpt lat="44.7778362" lon="8.9902933"><ele>310.0</ele><time>2026-03-21T13:19:57.132Z</time></trkpt><trkpt lat="44.7777948" lon="8.9901116"><ele>312.5</ele><time>2026-03-21T13:19:58.131Z</time></trkpt><trkpt lat="44.7777679" lon="8.9899188"><ele>315.0</ele><time>2026-03-21T13:19:59.131Z</time></trkpt><trkpt lat="44.7777608" lon="8.9897157"><ele>317.5</ele><time>2026-03-21T13:20:00.131Z</time></trkpt><trkpt lat="44.7777652" lon="8.9895006"><ele>320.0</ele><time>2026-03-21T13:20:01.132Z</time></trkpt><trkpt lat="44.7777772" lon="8.9892802"><ele>325.33333333333337</ele><time>2026-03-21T13:20:02.132Z</time></trkpt><trkpt lat="44.7777873" lon="8.9890443"><ele>330.6666666666667</ele><time>2026-03-21T13:20:03.132Z</time></trkpt><trkpt lat="44.7777983" lon="8.9888254"><ele>336.0</ele><time>2026-03-21T13:20:04.131Z</time></trkpt><trkpt lat="44.7778088" lon="8.9886312"><ele>336.0</ele><time>2026-03-21T13:20:05.131Z</time></trkpt><trkpt lat="44.7778097" lon="8.9884527"><ele>336.0</ele><time>2026-03-21T13:20:06.131Z</time></trkpt><trkpt lat="44.777791" lon="8.9882711"><ele>336.0</ele><time>2026-03-21T13:20:07.131Z</time></trkpt><trkpt lat="44.7777496" lon="8.9880893"><ele>336.0</ele><time>2026-03-21T13:20:08.131Z</time></trkpt><trkpt lat="44.7776936" lon="8.9878946"><ele>334.5</ele><time>2026-03-21T13:20:09.131Z</time></trkpt><trkpt lat="44.7776292" lon="8.987695"><ele>333.0</ele><time>2026-03-21T13:20:10.131Z</time></trkpt><trkpt lat="44.7775639" lon="8.9875348"><ele>331.5</ele><time>2026-03-21T13:20:11.131Z</time></trkpt><trkpt lat="44.7774837" lon="8.9874312"><ele>330.0</ele><time>2026-03-21T13:20:12.131Z</time></trkpt><trkpt lat="44.7773936" lon="8.9873859"><ele>330.0</ele><time>2026-03-21T13:20:13.132Z</time></trkpt><trkpt lat="44.7772782" lon="8.9874025"><ele>330.0</ele><time>2026-03-21T13:20:14.132Z</time></trkpt><trkpt lat="44.7771415" lon="8.9874755"><ele>330.0</ele><time>2026-03-21T13:20:15.131Z</time></trkpt><trkpt lat="44.7769841" lon="8.9875772"><ele>330.0</ele><time>2026-03-21T13:20:16.131Z</time></trkpt><trkpt lat="44.7768217" lon="8.9876636"><ele>328.6666666666667</ele><time>2026-03-21T13:20:17.132Z</time></trkpt><trkpt lat="44.7766527" lon="8.9877368"><ele>327.33333333333337</ele><time>2026-03-21T13:20:18.131Z</time></trkpt><trkpt lat="44.7764843" lon="8.9878062"><ele>326.0</ele><time>2026-03-21T13:20:19.132Z</time></trkpt><trkpt lat="44.7763183" lon="8.9878698"><ele>326.0</ele><time>2026-03-21T13:20:20.132Z</time></trkpt><trkpt lat="44.7761579" lon="8.9879401"><ele>326.0</ele><time>2026-03-21T13:20:21.131Z</time></trkpt><trkpt lat="44.7760023" lon="8.9879997"><ele>326.0</ele><time>2026-03-21T13:20:22.132Z</time></trkpt><trkpt lat="44.7758368" lon="8.9880386"><ele>329.6666666666667</ele><time>2026-03-21T13:20:23.132Z</time></trkpt><trkpt lat="44.7756628" lon="8.9880666"><ele>333.3333333333333</ele><time>2026-03-21T13:20:24.132Z</time></trkpt><trkpt lat="44.7754844" lon="8.9880825"><ele>337.0</ele><time>2026-03-21T13:20:25.131Z</time></trkpt><trkpt lat="44.7753053" lon="8.988095"><ele>340.0</ele><time>2026-03-21T13:20:26.131Z</time></trkpt><trkpt lat="44.7751327" lon="8.9881121"><ele>343.0</ele><time>2026-03-21T13:20:27.132Z</time></trkpt><trkpt lat="44.7749753" lon="8.9881375"><ele>346.0</ele><time>2026-03-21T13:20:28.132Z</time></trkpt><trkpt lat="44.7748395" lon="8.9881678"><ele>346.0</ele><time>2026-03-21T13:20:29.132Z</time></trkpt><trkpt lat="44.7747136" lon="8.9881903"><ele>346.0</ele><time>2026-03-21T13:20:30.132Z</time></trkpt><trkpt lat="44.7745886" lon="8.9881811"><ele>346.0</ele><time>2026-03-21T13:20:31.131Z</time></trkpt><trkpt lat="44.7744793" lon="8.9881598"><ele>346.0</ele><time>2026-03-21T13:20:32.131Z</time></trkpt><trkpt lat="44.7743909" lon="8.9881254"><ele>346.0</ele><time>2026-03-21T13:20:33.131Z</time></trkpt><trkpt lat="44.7743278" lon="8.9880735"><ele>346.0</ele><time>2026-03-21T13:20:34.132Z</time></trkpt><trkpt lat="44.7743346" lon="8.987916"><ele>346.0</ele><time>2026-03-21T13:20:36.131Z</time></trkpt><trkpt lat="44.7743906" lon="8.9878533"><ele>346.0</ele><time>2026-03-21T13:20:37.131Z</time></trkpt><trkpt lat="44.7745004" lon="8.9877816"><ele>346.0</ele><time>2026-03-21T13:20:38.131Z</time></trkpt><trkpt lat="44.7746416" lon="8.9876987"><ele>346.0</ele><time>2026-03-21T13:20:39.132Z</time></trkpt><trkpt lat="44.7747781" lon="8.9875971"><ele>346.0</ele><time>2026-03-21T13:20:40.132Z</time></trkpt><trkpt lat="44.7749182" lon="8.9874801"><ele>346.0</ele><time>2026-03-21T13:20:41.131Z</time></trkpt><trkpt lat="44.7750438" lon="8.9873583"><ele>348.0</ele><time>2026-03-21T13:20:42.131Z</time></trkpt><trkpt lat="44.7751588" lon="8.9872149"><ele>350.0</ele><time>2026-03-21T13:20:43.131Z</time></trkpt><trkpt lat="44.775271" lon="8.9870338"><ele>352.0</ele><time>2026-03-21T13:20:44.131Z</time></trkpt><trkpt lat="44.7753759" lon="8.9868414"><ele>356.66666666666663</ele><time>2026-03-21T13:20:45.132Z</time></trkpt><trkpt lat="44.7754766" lon="8.9866453"><ele>361.3333333333333</ele><time>2026-03-21T13:20:46.131Z</time></trkpt><trkpt lat="44.7755758" lon="8.9864517"><ele>366.0</ele><time>2026-03-21T13:20:47.132Z</time></trkpt><trkpt lat="44.7756612" lon="8.9862792"><ele>366.0</ele><time>2026-03-21T13:20:48.132Z</time></trkpt><trkpt lat="44.775733" lon="8.9861168"><ele>366.0</ele><time>2026-03-21T13:20:49.131Z</time></trkpt><trkpt lat="44.7757966" lon="8.985955"><ele>366.0</ele><time>2026-03-21T13:20:50.132Z</time></trkpt><trkpt lat="44.7758482" lon="8.9858004"><ele>366.0</ele><time>2026-03-21T13:20:51.132Z</time></trkpt><trkpt lat="44.7758737" lon="8.9856561"><ele>367.8333333333333</ele><time>2026-03-21T13:20:52.132Z</time></trkpt><trkpt lat="44.7758617" lon="8.9855339"><ele>369.6666666666667</ele><time>2026-03-21T13:20:53.131Z</time></trkpt><trkpt lat="44.7758117" lon="8.9854547"><ele>371.5</ele><time>2026-03-21T13:20:54.132Z</time></trkpt><trkpt lat="44.7757404" lon="8.985432"><ele>373.33333333333337</ele><time>2026-03-21T13:20:55.131Z</time></trkpt><trkpt lat="44.7756467" lon="8.9854496"><ele>375.1666666666667</ele><time>2026-03-21T13:20:56.132Z</time></trkpt><trkpt lat="44.7755425" lon="8.9855048"><ele>377.0</ele><time>2026-03-21T13:20:57.132Z</time></trkpt><trkpt lat="44.7754265" lon="8.9855851"><ele>377.0</ele><time>2026-03-21T13:20:58.131Z</time></trkpt><trkpt lat="44.7753049" lon="8.9856845"><ele>377.0</ele><time>2026-03-21T13:20:59.131Z</time></trkpt><trkpt lat="44.7751707" lon="8.9858049"><ele>377.0</ele><time>2026-03-21T13:21:00.132Z</time></trkpt><trkpt lat="44.7750306" lon="8.9859259"><ele>378.0</ele><time>2026-03-21T13:21:01.131Z</time></trkpt><trkpt lat="44.7748932" lon="8.9860461"><ele>379.0</ele><time>2026-03-21T13:21:02.132Z</time></trkpt><trkpt lat="44.7747494" lon="8.9861506"><ele>380.0</ele><time>2026-03-21T13:21:03.131Z</time></trkpt><trkpt lat="44.7745962" lon="8.986239"><ele>380.0</ele><time>2026-03-21T13:21:04.131Z</time></trkpt><trkpt lat="44.7744405" lon="8.9863275"><ele>380.0</ele><time>2026-03-21T13:21:05.132Z</time></trkpt><trkpt lat="44.7742834" lon="8.9864151"><ele>380.0</ele><time>2026-03-21T13:21:06.131Z</time></trkpt><trkpt lat="44.7741408" lon="8.9864832"><ele>382.75</ele><time>2026-03-21T13:21:07.131Z</time></trkpt><trkpt lat="44.7740111" lon="8.9865329"><ele>385.5</ele><time>2026-03-21T13:21:08.132Z</time></trkpt><trkpt lat="44.7738961" lon="8.986546"><ele>388.25</ele><time>2026-03-21T13:21:09.131Z</time></trkpt><trkpt lat="44.7738009" lon="8.9865119"><ele>391.0</ele><time>2026-03-21T13:21:10.132Z</time></trkpt><trkpt lat="44.7737024" lon="8.9864506"><ele>391.00000000000006</ele><time>2026-03-21T13:21:11.131Z</time></trkpt><trkpt lat="44.7736274" lon="8.9863709"><ele>391.0</ele><time>2026-03-21T13:21:12.132Z</time></trkpt><trkpt lat="44.7735829" lon="8.986279"><ele>391.0</ele><time>2026-03-21T13:21:13.131Z</time></trkpt><trkpt lat="44.773579" lon="8.9861825"><ele>391.0</ele><time>2026-03-21T13:21:14.132Z</time></trkpt><trkpt lat="44.7736106" lon="8.9861041"><ele>391.00000000000006</ele><time>2026-03-21T13:21:15.131Z</time></trkpt><trkpt lat="44.7736819" lon="8.9860279"><ele>391.0</ele><time>2026-03-21T13:21:16.132Z</time></trkpt><trkpt lat="44.7737826" lon="8.9859694"><ele>391.0</ele><time>2026-03-21T13:21:17.131Z</time></trkpt><trkpt lat="44.7738928" lon="8.9859106"><ele>391.0</ele><time>2026-03-21T13:21:18.131Z</time></trkpt><trkpt lat="44.7739882" lon="8.9858538"><ele>391.0</ele><time>2026-03-21T13:21:19.131Z</time></trkpt><trkpt lat="44.7740662" lon="8.985777"><ele>391.0</ele><time>2026-03-21T13:21:20.132Z</time></trkpt><trkpt lat="44.7741241" lon="8.9856734"><ele>391.0</ele><time>2026-03-21T13:21:21.132Z</time></trkpt><trkpt lat="44.7741578" lon="8.9855442"><ele>394.4</ele><time>2026-03-21T13:21:22.132Z</time></trkpt><trkpt lat="44.7741739" lon="8.9854505"><ele>397.8</ele><time>2026-03-21T13:21:23.131Z</time></trkpt><trkpt lat="44.7742046" lon="8.9852793"><ele>401.2</ele><time>2026-03-21T13:21:25.132Z</time></trkpt><trkpt lat="44.7742266" lon="8.9851926"><ele>404.59999999999997</ele><time>2026-03-21T13:21:26.132Z</time></trkpt><trkpt lat="44.7742652" lon="8.9850314"><ele>408.0</ele><time>2026-03-21T13:21:28.131Z</time></trkpt><trkpt lat="44.7743123" lon="8.9848908"><ele>406.59999999999997</ele><time>2026-03-21T13:21:30.132Z</time></trkpt><trkpt lat="44.774356" lon="8.9847381"><ele>405.2</ele><time>2026-03-21T13:21:32.132Z</time></trkpt><trkpt lat="44.7744118" lon="8.9845675"><ele>403.8</ele><time>2026-03-21T13:21:34.132Z</time></trkpt><trkpt lat="44.7744507" lon="8.984401"><ele>402.4</ele><time>2026-03-21T13:21:36.132Z</time></trkpt><trkpt lat="44.774467" lon="8.9843128"><ele>401.0</ele><time>2026-03-21T13:21:37.132Z</time></trkpt><trkpt lat="44.7744768" lon="8.9842209"><ele>401.8333333333333</ele><time>2026-03-21T13:21:38.131Z</time></trkpt><trkpt lat="44.774473" lon="8.984124"><ele>402.66666666666663</ele><time>2026-03-21T13:21:39.132Z</time></trkpt><trkpt lat="44.774444" lon="8.9840382"><ele>403.5</ele><time>2026-03-21T13:21:40.132Z</time></trkpt><trkpt lat="44.774325" lon="8.9839759"><ele>404.33333333333337</ele><time>2026-03-21T13:21:42.132Z</time></trkpt><trkpt lat="44.7742471" lon="8.9840031"><ele>405.1666666666667</ele><time>2026-03-21T13:21:43.131Z</time></trkpt><trkpt lat="44.7741615" lon="8.9840676"><ele>406.0</ele><time>2026-03-21T13:21:44.131Z</time></trkpt><trkpt lat="44.774076" lon="8.9841683"><ele>409.75</ele><time>2026-03-21T13:21:45.131Z</time></trkpt><trkpt lat="44.7739773" lon="8.984295"><ele>413.5</ele><time>2026-03-21T13:21:46.131Z</time></trkpt><trkpt lat="44.7738833" lon="8.9843968"><ele>417.25</ele><time>2026-03-21T13:21:47.132Z</time></trkpt><trkpt lat="44.7737889" lon="8.9844674"><ele>421.0</ele><time>2026-03-21T13:21:48.132Z</time></trkpt><trkpt lat="44.7736894" lon="8.9845002"><ele>421.0</ele><time>2026-03-21T13:21:49.132Z</time></trkpt><trkpt lat="44.7735698" lon="8.9845012"><ele>421.0</ele><time>2026-03-21T13:21:50.131Z</time></trkpt><trkpt lat="44.7734323" lon="8.9844865"><ele>421.0</ele><time>2026-03-21T13:21:51.131Z</time></trkpt><trkpt lat="44.7732813" lon="8.9844601"><ele>421.0</ele><time>2026-03-21T13:21:52.132Z</time></trkpt><trkpt lat="44.7731241" lon="8.9844341"><ele>422.6</ele><time>2026-03-21T13:21:53.132Z</time></trkpt><trkpt lat="44.7729894" lon="8.9844102"><ele>424.20000000000005</ele><time>2026-03-21T13:21:54.131Z</time></trkpt><trkpt lat="44.7728818" lon="8.9843731"><ele>425.79999999999995</ele><time>2026-03-21T13:21:55.132Z</time></trkpt><trkpt lat="44.7728075" lon="8.9843082"><ele>427.4</ele><time>2026-03-21T13:21:56.132Z</time></trkpt><trkpt lat="44.7727827" lon="8.9842175"><ele>429.0</ele><time>2026-03-21T13:21:57.132Z</time></trkpt><trkpt lat="44.772804" lon="8.9841304"><ele>431.75</ele><time>2026-03-21T13:21:58.131Z</time></trkpt><trkpt lat="44.7728637" lon="8.9840448"><ele>434.5</ele><time>2026-03-21T13:21:59.131Z</time></trkpt><trkpt lat="44.7729553" lon="8.9839557"><ele>437.25</ele><time>2026-03-21T13:22:00.132Z</time></trkpt><trkpt lat="44.7730641" lon="8.9838454"><ele>440.0</ele><time>2026-03-21T13:22:01.132Z</time></trkpt><trkpt lat="44.7731776" lon="8.9837206"><ele>440.0</ele><time>2026-03-21T13:22:02.131Z</time></trkpt><trkpt lat="44.7732731" lon="8.9835948"><ele>440.0</ele><time>2026-03-21T13:22:03.131Z</time></trkpt><trkpt lat="44.7733508" lon="8.9834623"><ele>440.0</ele><time>2026-03-21T13:22:04.131Z</time></trkpt><trkpt lat="44.773395" lon="8.9833369"><ele>440.0</ele><time>2026-03-21T13:22:05.132Z</time></trkpt><trkpt lat="44.7733952" lon="8.9832373"><ele>440.0</ele><time>2026-03-21T13:22:06.131Z</time></trkpt><trkpt lat="44.7733551" lon="8.9831662"><ele>442.6</ele><time>2026-03-21T13:22:07.132Z</time></trkpt><trkpt lat="44.77329" lon="8.9831359"><ele>445.2</ele><time>2026-03-21T13:22:08.131Z</time></trkpt><trkpt lat="44.7731994" lon="8.9831422"><ele>447.79999999999995</ele><time>2026-03-21T13:22:09.132Z</time></trkpt><trkpt lat="44.7730885" lon="8.9831802"><ele>450.4</ele><time>2026-03-21T13:22:10.131Z</time></trkpt><trkpt lat="44.7729538" lon="8.9832231"><ele>453.0</ele><time>2026-03-21T13:22:11.131Z</time></trkpt><trkpt lat="44.772811" lon="8.9832772"><ele>452.66666666666663</ele><time>2026-03-21T13:22:12.132Z</time></trkpt><trkpt lat="44.7726587" lon="8.9833508"><ele>452.3333333333333</ele><time>2026-03-21T13:22:13.132Z</time></trkpt><trkpt lat="44.772504" lon="8.9834372"><ele>452.0</ele><time>2026-03-21T13:22:14.132Z</time></trkpt><trkpt lat="44.7723506" lon="8.9835388"><ele>452.0</ele><time>2026-03-21T13:22:15.132Z</time></trkpt><trkpt lat="44.7721928" lon="8.9836492"><ele>452.0</ele><time>2026-03-21T13:22:16.132Z</time></trkpt><trkpt lat="44.772033" lon="8.9837574"><ele>452.0</ele><time>2026-03-21T13:22:17.131Z</time></trkpt><trkpt lat="44.77187" lon="8.9838659"><ele>456.66666666666663</ele><time>2026-03-21T13:22:18.131Z</time></trkpt><trkpt lat="44.7717107" lon="8.9839698"><ele>461.33333333333337</ele><time>2026-03-21T13:22:19.131Z</time></trkpt><trkpt lat="44.7715681" lon="8.9840506"><ele>466.0</ele><time>2026-03-21T13:22:20.132Z</time></trkpt><trkpt lat="44.7714436" lon="8.9841055"><ele>466.0</ele><time>2026-03-21T13:22:21.132Z</time></trkpt><trkpt lat="44.7713367" lon="8.9841223"><ele>466.0</ele><time>2026-03-21T13:22:22.132Z</time></trkpt><trkpt lat="44.7712384" lon="8.9840833"><ele>466.0</ele><time>2026-03-21T13:22:23.132Z</time></trkpt><trkpt lat="44.7711758" lon="8.9839975"><ele>466.0</ele><time>2026-03-21T13:22:24.132Z</time></trkpt><trkpt lat="44.771145" lon="8.9838832"><ele>466.0</ele><time>2026-03-21T13:22:25.131Z</time></trkpt><trkpt lat="44.7711512" lon="8.9837413"><ele>466.0</ele><time>2026-03-21T13:22:26.132Z</time></trkpt><trkpt lat="44.7711898" lon="8.9835793"><ele>466.0</ele><time>2026-03-21T13:22:27.132Z</time></trkpt><trkpt lat="44.7712561" lon="8.9833834"><ele>466.0</ele><time>2026-03-21T13:22:28.132Z</time></trkpt><trkpt lat="44.7713339" lon="8.9831555"><ele>469.25</ele><time>2026-03-21T13:22:29.131Z</time></trkpt><trkpt lat="44.771403" lon="8.9829613"><ele>472.5</ele><time>2026-03-21T13:22:30.132Z</time></trkpt><trkpt lat="44.7714593" lon="8.9827904"><ele>475.75</ele><time>2026-03-21T13:22:31.131Z</time></trkpt><trkpt lat="44.7714848" lon="8.9826583"><ele>479.0</ele><time>2026-03-21T13:22:32.132Z</time></trkpt><trkpt lat="44.7714726" lon="8.9825534"><ele>478.99999999999994</ele><time>2026-03-21T13:22:33.132Z</time></trkpt><trkpt lat="44.7714175" lon="8.9824933"><ele>479.0</ele><time>2026-03-21T13:22:34.132Z</time></trkpt><trkpt lat="44.7713495" lon="8.9824906"><ele>479.0</ele><time>2026-03-21T13:22:35.132Z</time></trkpt><trkpt lat="44.7712637" lon="8.9825379"><ele>479.0</ele><time>2026-03-21T13:22:36.132Z</time></trkpt><trkpt lat="44.771165" lon="8.9825904"><ele>478.99999999999994</ele><time>2026-03-21T13:22:37.131Z</time></trkpt><trkpt lat="44.7710734" lon="8.9826107"><ele>479.0</ele><time>2026-03-21T13:22:38.132Z</time></trkpt><trkpt lat="44.7710142" lon="8.9825789"><ele>483.0</ele><time>2026-03-21T13:22:39.132Z</time></trkpt><trkpt lat="44.7710164" lon="8.9824355"><ele>487.0</ele><time>2026-03-21T13:22:41.132Z</time></trkpt><trkpt lat="44.771079" lon="8.982345"><ele>491.0</ele><time>2026-03-21T13:22:42.132Z</time></trkpt><trkpt lat="44.7711605" lon="8.9822297"><ele>495.0</ele><time>2026-03-21T13:22:43.131Z</time></trkpt><trkpt lat="44.771251" lon="8.9821027"><ele>499.0</ele><time>2026-03-21T13:22:44.132Z</time></trkpt><trkpt lat="44.7713408" lon="8.9819703"><ele>499.0</ele><time>2026-03-21T13:22:45.132Z</time></trkpt><trkpt lat="44.7714124" lon="8.9818264"><ele>499.0</ele><time>2026-03-21T13:22:46.132Z</time></trkpt><trkpt lat="44.7714724" lon="8.981676"><ele>499.0</ele><time>2026-03-21T13:22:47.131Z</time></trkpt><trkpt lat="44.7715092" lon="8.9815445"><ele>499.0</ele><time>2026-03-21T13:22:48.131Z</time></trkpt><trkpt lat="44.7715403" lon="8.9814348"><ele>499.0</ele><time>2026-03-21T13:22:49.131Z</time></trkpt><trkpt lat="44.7715591" lon="8.981348"><ele>501.79999999999995</ele><time>2026-03-21T13:22:50.132Z</time></trkpt><trkpt lat="44.7715426" lon="8.9812032"><ele>504.59999999999997</ele><time>2026-03-21T13:22:52.131Z</time></trkpt><trkpt lat="44.7714662" lon="8.9810628"><ele>507.4</ele><time>2026-03-21T13:22:54.132Z</time></trkpt><trkpt lat="44.7713999" lon="8.9809602"><ele>510.2</ele><time>2026-03-21T13:22:56.132Z</time></trkpt><trkpt lat="44.771317" lon="8.9809279"><ele>513.0</ele><time>2026-03-21T13:22:59.132Z</time></trkpt><trkpt lat="44.7712458" lon="8.980978"><ele>513.0</ele><time>2026-03-21T13:23:01.132Z</time></trkpt><trkpt lat="44.7711751" lon="8.9810528"><ele>513.0</ele><time>2026-03-21T13:23:03.132Z</time></trkpt><trkpt lat="44.7711035" lon="8.9811343"><ele>513.0</ele><time>2026-03-21T13:23:05.132Z</time></trkpt><trkpt lat="44.7710427" lon="8.981212"><ele>513.0</ele><time>2026-03-21T13:23:07.132Z</time></trkpt><trkpt lat="44.7709852" lon="8.9812686"><ele>513.0</ele><time>2026-03-21T13:23:10.131Z</time></trkpt><trkpt lat="44.7709217" lon="8.9813258"><ele>513.0</ele><time>2026-03-21T13:23:29.132Z</time></trkpt><trkpt lat="44.770854" lon="8.9813685"><ele>514.1666666666666</ele><time>2026-03-21T13:23:30.132Z</time></trkpt><trkpt lat="44.7707786" lon="8.9814274"><ele>515.3333333333334</ele><time>2026-03-21T13:23:31.131Z</time></trkpt><trkpt lat="44.7706906" lon="8.981487"><ele>516.5</ele><time>2026-03-21T13:23:32.132Z</time></trkpt><trkpt lat="44.770599" lon="8.9815436"><ele>517.6666666666667</ele><time>2026-03-21T13:23:33.132Z</time></trkpt><trkpt lat="44.7705215" lon="8.9815732"><ele>518.8333333333334</ele><time>2026-03-21T13:23:34.131Z</time></trkpt><trkpt lat="44.7704417" lon="8.9815797"><ele>520.0</ele><time>2026-03-21T13:23:35.131Z</time></trkpt><trkpt lat="44.7703797" lon="8.9815364"><ele>520.0</ele><time>2026-03-21T13:23:36.131Z</time></trkpt><trkpt lat="44.7703339" lon="8.9814618"><ele>520.0</ele><time>2026-03-21T13:23:37.131Z</time></trkpt><trkpt lat="44.7703024" lon="8.9813546"><ele>520.0</ele><time>2026-03-21T13:23:38.132Z</time></trkpt><trkpt lat="44.7702705" lon="8.9812136"><ele>520.0</ele><time>2026-03-21T13:23:39.132Z</time></trkpt><trkpt lat="44.7702369" lon="8.9810365"><ele>520.0</ele><time>2026-03-21T13:23:40.131Z</time></trkpt><trkpt lat="44.7701959" lon="8.9808211"><ele>524.5</ele><time>2026-03-21T13:23:41.132Z</time></trkpt><trkpt lat="44.7701635" lon="8.9806153"><ele>529.0</ele><time>2026-03-21T13:23:42.132Z</time></trkpt><trkpt lat="44.7701419" lon="8.9804254"><ele>533.5</ele><time>2026-03-21T13:23:43.131Z</time></trkpt><trkpt lat="44.7701145" lon="8.9802629"><ele>538.0</ele><time>2026-03-21T13:23:44.131Z</time></trkpt><trkpt lat="44.7700757" lon="8.9801506"><ele>538.0</ele><time>2026-03-21T13:23:45.132Z</time></trkpt><trkpt lat="44.7700194" lon="8.9801008"><ele>538.0</ele><time>2026-03-21T13:23:46.131Z</time></trkpt><trkpt lat="44.7699034" lon="8.9801785"><ele>538.0</ele><time>2026-03-21T13:23:48.131Z</time></trkpt><trkpt lat="44.7698652" lon="8.9802863"><ele>538.0</ele><time>2026-03-21T13:23:49.132Z</time></trkpt><trkpt lat="44.7698241" lon="8.98038"><ele>538.0</ele><time>2026-03-21T13:23:50.132Z</time></trkpt><trkpt lat="44.7697546" lon="8.980502"><ele>538.0</ele><time>2026-03-21T13:23:52.132Z</time></trkpt><trkpt lat="44.7697113" lon="8.9806117"><ele>538.0</ele><time>2026-03-21T13:23:54.132Z</time></trkpt><trkpt lat="44.7697017" lon="8.9807123"><ele>538.0</ele><time>2026-03-21T13:23:55.132Z</time></trkpt><trkpt lat="44.7696961" lon="8.980834"><ele>538.0</ele><time>2026-03-21T13:23:56.132Z</time></trkpt><trkpt lat="44.7696962" lon="8.9809735"><ele>538.0</ele><time>2026-03-21T13:23:57.131Z</time></trkpt><trkpt lat="44.7696941" lon="8.981125"><ele>536.8</ele><time>2026-03-21T13:23:58.131Z</time></trkpt><trkpt lat="44.769675" lon="8.981259"><ele>535.5999999999999</ele><time>2026-03-21T13:23:59.132Z</time></trkpt><trkpt lat="44.7696298" lon="8.9813656"><ele>534.4000000000001</ele><time>2026-03-21T13:24:00.131Z</time></trkpt><trkpt lat="44.7695613" lon="8.9814354"><ele>533.2</ele><time>2026-03-21T13:24:01.131Z</time></trkpt><trkpt lat="44.7694711" lon="8.9814622"><ele>532.0</ele><time>2026-03-21T13:24:02.132Z</time></trkpt><trkpt lat="44.7693501" lon="8.9814486"><ele>536.75</ele><time>2026-03-21T13:24:03.131Z</time></trkpt><trkpt lat="44.7692134" lon="8.9814235"><ele>541.5</ele><time>2026-03-21T13:24:04.132Z</time></trkpt><trkpt lat="44.7691001" lon="8.9814284"><ele>546.25</ele><time>2026-03-21T13:24:05.131Z</time></trkpt><trkpt lat="44.7689849" lon="8.9814614"><ele>551.0</ele><time>2026-03-21T13:24:06.131Z</time></trkpt><trkpt lat="44.7688846" lon="8.9815366"><ele>551.0</ele><time>2026-03-21T13:24:07.131Z</time></trkpt><trkpt lat="44.7688114" lon="8.9816584"><ele>551.0</ele><time>2026-03-21T13:24:08.131Z</time></trkpt><trkpt lat="44.7687409" lon="8.9818306"><ele>551.0</ele><time>2026-03-21T13:24:09.131Z</time></trkpt><trkpt lat="44.768658" lon="8.9820242"><ele>551.0</ele><time>2026-03-21T13:24:10.132Z</time></trkpt><trkpt lat="44.7685558" lon="8.9822025"><ele>552.75</ele><time>2026-03-21T13:24:11.131Z</time></trkpt><trkpt lat="44.7684594" lon="8.9823402"><ele>554.5</ele><time>2026-03-21T13:24:12.132Z</time></trkpt><trkpt lat="44.7683433" lon="8.9824283"><ele>556.25</ele><time>2026-03-21T13:24:13.131Z</time></trkpt><trkpt lat="44.768211" lon="8.9825179"><ele>558.0</ele><time>2026-03-21T13:24:14.131Z</time></trkpt><trkpt lat="44.7680877" lon="8.9826511"><ele>560.3333333333334</ele><time>2026-03-21T13:24:15.132Z</time></trkpt><trkpt lat="44.7679388" lon="8.9827894"><ele>562.6666666666667</ele><time>2026-03-21T13:24:16.132Z</time></trkpt><trkpt lat="44.7677659" lon="8.9829087"><ele>565.0</ele><time>2026-03-21T13:24:17.131Z</time></trkpt><trkpt lat="44.7676011" lon="8.9829996"><ele>565.0</ele><time>2026-03-21T13:24:18.131Z</time></trkpt><trkpt lat="44.7674581" lon="8.9830936"><ele>565.0</ele><time>2026-03-21T13:24:19.132Z</time></trkpt><trkpt lat="44.7673335" lon="8.9832358"><ele>565.0</ele><time>2026-03-21T13:24:20.131Z</time></trkpt><trkpt lat="44.7672083" lon="8.9833838"><ele>562.3333333333334</ele><time>2026-03-21T13:24:21.132Z</time></trkpt><trkpt lat="44.7670828" lon="8.9834942"><ele>559.6666666666666</ele><time>2026-03-21T13:24:22.132Z</time></trkpt><trkpt lat="44.7669507" lon="8.9835908"><ele>557.0</ele><time>2026-03-21T13:24:23.131Z</time></trkpt><trkpt lat="44.7667889" lon="8.9836762"><ele>557.0</ele><time>2026-03-21T13:24:24.131Z</time></trkpt><trkpt lat="44.7666289" lon="8.9837414"><ele>557.0</ele><time>2026-03-21T13:24:25.132Z</time></trkpt><trkpt lat="44.766503" lon="8.9837858"><ele>557.0</ele><time>2026-03-21T13:24:26.132Z</time></trkpt><trkpt lat="44.7663936" lon="8.9838123"><ele>557.0</ele><time>2026-03-21T13:24:27.131Z</time></trkpt><trkpt lat="44.7663098" lon="8.9837908"><ele>557.0</ele><time>2026-03-21T13:24:28.132Z</time></trkpt><trkpt lat="44.766258" lon="8.9837356"><ele>557.0</ele><time>2026-03-21T13:24:29.132Z</time></trkpt><trkpt lat="44.7662328" lon="8.9836455"><ele>557.0</ele><time>2026-03-21T13:24:30.131Z</time></trkpt><trkpt lat="44.7662253" lon="8.9834953"><ele>557.0</ele><time>2026-03-21T13:24:31.132Z</time></trkpt><trkpt lat="44.7662285" lon="8.9833137"><ele>557.0</ele><time>2026-03-21T13:24:32.132Z</time></trkpt><trkpt lat="44.7662223" lon="8.9830421"><ele>564.6666666666666</ele><time>2026-03-21T13:24:33.131Z</time></trkpt><trkpt lat="44.7662119" lon="8.9827317"><ele>572.3333333333334</ele><time>2026-03-21T13:24:34.132Z</time></trkpt><trkpt lat="44.7661791" lon="8.9824298"><ele>580.0</ele><time>2026-03-21T13:24:35.132Z</time></trkpt><trkpt lat="44.7661434" lon="8.9821649"><ele>578.0</ele><time>2026-03-21T13:24:36.131Z</time></trkpt><trkpt lat="44.7661037" lon="8.9819467"><ele>576.0</ele><time>2026-03-21T13:24:37.132Z</time></trkpt><trkpt lat="44.7660411" lon="8.9817639"><ele>574.0</ele><time>2026-03-21T13:24:38.132Z</time></trkpt><trkpt lat="44.7659554" lon="8.9815921"><ele>574.0</ele><time>2026-03-21T13:24:39.132Z</time></trkpt><trkpt lat="44.7658589" lon="8.981423"><ele>574.0</ele><time>2026-03-21T13:24:40.131Z</time></trkpt><trkpt lat="44.7657666" lon="8.9812557"><ele>574.0</ele><time>2026-03-21T13:24:41.132Z</time></trkpt><trkpt lat="44.7656903" lon="8.9810782"><ele>574.0</ele><time>2026-03-21T13:24:42.132Z</time></trkpt><trkpt lat="44.7656359" lon="8.9808874"><ele>574.0</ele><time>2026-03-21T13:24:43.131Z</time></trkpt><trkpt lat="44.7655935" lon="8.9806799"><ele>574.0</ele><time>2026-03-21T13:24:44.132Z</time></trkpt><trkpt lat="44.7655352" lon="8.9804622"><ele>578.6666666666667</ele><time>2026-03-21T13:24:45.131Z</time></trkpt><trkpt lat="44.7654515" lon="8.9802503"><ele>583.3333333333334</ele><time>2026-03-21T13:24:46.131Z</time></trkpt><trkpt lat="44.7653327" lon="8.9800182"><ele>588.0</ele><time>2026-03-21T13:24:47.132Z</time></trkpt><trkpt lat="44.7652153" lon="8.9797962"><ele>584.6666666666666</ele><time>2026-03-21T13:24:48.132Z</time></trkpt><trkpt lat="44.765097" lon="8.9795999"><ele>581.3333333333333</ele><time>2026-03-21T13:24:49.131Z</time></trkpt><trkpt lat="44.7649674" lon="8.9794483"><ele>578.0</ele><time>2026-03-21T13:24:50.131Z</time></trkpt><trkpt lat="44.7648475" lon="8.979322"><ele>578.0</ele><time>2026-03-21T13:24:51.132Z</time></trkpt><trkpt lat="44.7647532" lon="8.9791947"><ele>578.0</ele><time>2026-03-21T13:24:52.131Z</time></trkpt><trkpt lat="44.7646873" lon="8.9790507"><ele>578.0</ele><time>2026-03-21T13:24:53.132Z</time></trkpt><trkpt lat="44.7646342" lon="8.9788539"><ele>578.0</ele><time>2026-03-21T13:24:54.132Z</time></trkpt><trkpt lat="44.7645775" lon="8.9786061"><ele>582.3333333333333</ele><time>2026-03-21T13:24:55.131Z</time></trkpt><trkpt lat="44.7645393" lon="8.9783737"><ele>586.6666666666666</ele><time>2026-03-21T13:24:56.131Z</time></trkpt><trkpt lat="44.7644958" lon="8.9781523"><ele>591.0</ele><time>2026-03-21T13:24:57.132Z</time></trkpt><trkpt lat="44.7644536" lon="8.9779495"><ele>593.5</ele><time>2026-03-21T13:24:58.131Z</time></trkpt><trkpt lat="44.7644068" lon="8.9777613"><ele>596.0</ele><time>2026-03-21T13:24:59.131Z</time></trkpt><trkpt lat="44.7643342" lon="8.9775995"><ele>598.5</ele><time>2026-03-21T13:25:00.131Z</time></trkpt><trkpt lat="44.764247" lon="8.9774321"><ele>601.0</ele><time>2026-03-21T13:25:01.131Z</time></trkpt><trkpt lat="44.7641732" lon="8.9772587"><ele>597.4</ele><time>2026-03-21T13:25:02.132Z</time></trkpt><trkpt lat="44.7641045" lon="8.9770958"><ele>593.8</ele><time>2026-03-21T13:25:03.131Z</time></trkpt><trkpt lat="44.76405" lon="8.9769455"><ele>590.1999999999999</ele><time>2026-03-21T13:25:04.132Z</time></trkpt><trkpt lat="44.7640116" lon="8.9768106"><ele>586.6</ele><time>2026-03-21T13:25:05.131Z</time></trkpt><trkpt lat="44.7639832" lon="8.9766907"><ele>583.0</ele><time>2026-03-21T13:25:06.131Z</time></trkpt><trkpt lat="44.7639705" lon="8.9765671"><ele>583.0</ele><time>2026-03-21T13:25:07.132Z</time></trkpt><trkpt lat="44.7639676" lon="8.9764365"><ele>583.0</ele><time>2026-03-21T13:25:08.131Z</time></trkpt><trkpt lat="44.763968" lon="8.9762947"><ele>583.0</ele><time>2026-03-21T13:25:09.131Z</time></trkpt><trkpt lat="44.7639575" lon="8.9761374"><ele>583.0</ele><time>2026-03-21T13:25:10.131Z</time></trkpt><trkpt lat="44.7639398" lon="8.9759678"><ele>583.0</ele><time>2026-03-21T13:25:11.131Z</time></trkpt><trkpt lat="44.7639244" lon="8.9757958"><ele>582.75</ele><time>2026-03-21T13:25:12.132Z</time></trkpt><trkpt lat="44.7639101" lon="8.9756257"><ele>582.5</ele><time>2026-03-21T13:25:13.132Z</time></trkpt><trkpt lat="44.7638907" lon="8.9754519"><ele>582.25</ele><time>2026-03-21T13:25:14.132Z</time></trkpt><trkpt lat="44.7638675" lon="8.9752778"><ele>582.0</ele><time>2026-03-21T13:25:15.131Z</time></trkpt><trkpt lat="44.7638462" lon="8.9751043"><ele>582.0</ele><time>2026-03-21T13:25:16.131Z</time></trkpt><trkpt lat="44.7638405" lon="8.9749212"><ele>582.0</ele><time>2026-03-21T13:25:17.132Z</time></trkpt><trkpt lat="44.7638483" lon="8.9747351"><ele>582.0</ele><time>2026-03-21T13:25:18.132Z</time></trkpt><trkpt lat="44.7638524" lon="8.9745618"><ele>582.0</ele><time>2026-03-21T13:25:19.131Z</time></trkpt><trkpt lat="44.7638773" lon="8.9743893"><ele>582.0</ele><time>2026-03-21T13:25:20.131Z</time></trkpt><trkpt lat="44.7639345" lon="8.9742326"><ele>582.0</ele><time>2026-03-21T13:25:21.132Z</time></trkpt><trkpt lat="44.7640005" lon="8.9740971"><ele>582.0</ele><time>2026-03-21T13:25:22.132Z</time></trkpt><trkpt lat="44.7640417" lon="8.9739799"><ele>582.0</ele><time>2026-03-21T13:25:23.132Z</time></trkpt><trkpt lat="44.7640578" lon="8.9738759"><ele>582.0</ele><time>2026-03-21T13:25:24.131Z</time></trkpt><trkpt lat="44.7640372" lon="8.9737809"><ele>581.8333333333334</ele><time>2026-03-21T13:25:25.132Z</time></trkpt><trkpt lat="44.7640117" lon="8.9736768"><ele>581.6666666666666</ele><time>2026-03-21T13:25:26.131Z</time></trkpt><trkpt lat="44.7639908" lon="8.9735633"><ele>581.5</ele><time>2026-03-21T13:25:27.132Z</time></trkpt><trkpt lat="44.7639758" lon="8.9734446"><ele>581.3333333333333</ele><time>2026-03-21T13:25:28.132Z</time></trkpt><trkpt lat="44.7639624" lon="8.9733302"><ele>581.1666666666666</ele><time>2026-03-21T13:25:29.132Z</time></trkpt><trkpt lat="44.7639523" lon="8.9732198"><ele>581.0</ele><time>2026-03-21T13:25:30.131Z</time></trkpt><trkpt lat="44.763941" lon="8.9731142"><ele>581.0</ele><time>2026-03-21T13:25:31.131Z</time></trkpt><trkpt lat="44.763932" lon="8.9730211"><ele>581.0</ele><time>2026-03-21T13:25:32.131Z</time></trkpt><trkpt lat="44.7639175" lon="8.9729253"><ele>581.0</ele><time>2026-03-21T13:25:33.132Z</time></trkpt><trkpt lat="44.7638852" lon="8.9727625"><ele>581.0</ele><time>2026-03-21T13:25:35.131Z</time></trkpt><trkpt lat="44.7638482" lon="8.9726326"><ele>581.0</ele><time>2026-03-21T13:25:37.131Z</time></trkpt><trkpt lat="44.7638075" lon="8.9725042"><ele>582.0</ele><time>2026-03-21T13:25:39.131Z</time></trkpt><trkpt lat="44.7637631" lon="8.972356"><ele>583.0</ele><time>2026-03-21T13:25:41.132Z</time></trkpt><trkpt lat="44.7637264" lon="8.9722251"><ele>584.0</ele><time>2026-03-21T13:25:43.132Z</time></trkpt><trkpt lat="44.7637061" lon="8.9720676"><ele>585.0</ele><time>2026-03-21T13:25:45.132Z</time></trkpt><trkpt lat="44.7637078" lon="8.97197"><ele>586.0</ele><time>2026-03-21T13:25:46.131Z</time></trkpt><trkpt lat="44.7637235" lon="8.9718602"><ele>586.0</ele><time>2026-03-21T13:25:47.131Z</time></trkpt><trkpt lat="44.7637387" lon="8.9717429"><ele>586.0</ele><time>2026-03-21T13:25:48.131Z</time></trkpt><trkpt lat="44.7637553" lon="8.9716138"><ele>586.0</ele><time>2026-03-21T13:25:49.131Z</time></trkpt><trkpt lat="44.7637646" lon="8.9714773"><ele>586.0</ele><time>2026-03-21T13:25:50.131Z</time></trkpt><trkpt lat="44.763754" lon="8.971332"><ele>586.0</ele><time>2026-03-21T13:25:51.132Z</time></trkpt><trkpt lat="44.763731" lon="8.97118"><ele>587.75</ele><time>2026-03-21T13:25:52.132Z</time></trkpt><trkpt lat="44.7637018" lon="8.9710187"><ele>589.5</ele><time>2026-03-21T13:25:53.132Z</time></trkpt><trkpt lat="44.7636705" lon="8.9708494"><ele>591.25</ele><time>2026-03-21T13:25:54.131Z</time></trkpt><trkpt lat="44.7636368" lon="8.9706633"><ele>593.0</ele><time>2026-03-21T13:25:55.132Z</time></trkpt><trkpt lat="44.7636029" lon="8.9704559"><ele>595.3333333333333</ele><time>2026-03-21T13:25:56.132Z</time></trkpt><trkpt lat="44.7635728" lon="8.970239"><ele>597.6666666666666</ele><time>2026-03-21T13:25:57.132Z</time></trkpt><trkpt lat="44.7635299" lon="8.9700175"><ele>600.0</ele><time>2026-03-21T13:25:58.132Z</time></trkpt><trkpt lat="44.7634667" lon="8.9698022"><ele>589.0</ele><time>2026-03-21T13:25:59.132Z</time></trkpt><trkpt lat="44.7633868" lon="8.9695751"><ele>578.0</ele><time>2026-03-21T13:26:00.131Z</time></trkpt><trkpt lat="44.7633166" lon="8.9693358"><ele>567.0</ele><time>2026-03-21T13:26:01.131Z</time></trkpt><trkpt lat="44.7632608" lon="8.9690931"><ele>567.0</ele><time>2026-03-21T13:26:02.131Z</time></trkpt><trkpt lat="44.7632194" lon="8.9688439"><ele>567.0</ele><time>2026-03-21T13:26:03.131Z</time></trkpt><trkpt lat="44.763193" lon="8.9686124"><ele>567.0</ele><time>2026-03-21T13:26:04.132Z</time></trkpt><trkpt lat="44.7631304" lon="8.968388"><ele>571.3333333333334</ele><time>2026-03-21T13:26:05.131Z</time></trkpt><trkpt lat="44.7630592" lon="8.9681709"><ele>575.6666666666667</ele><time>2026-03-21T13:26:06.132Z</time></trkpt><trkpt lat="44.7629935" lon="8.967947"><ele>580.0</ele><time>2026-03-21T13:26:07.131Z</time></trkpt><trkpt lat="44.7629273" lon="8.9677254"><ele>581.6666666666667</ele><time>2026-03-21T13:26:08.131Z</time></trkpt><trkpt lat="44.7628658" lon="8.9675171"><ele>583.3333333333334</ele><time>2026-03-21T13:26:09.131Z</time></trkpt><trkpt lat="44.7627999" lon="8.9673175"><ele>585.0</ele><time>2026-03-21T13:26:10.131Z</time></trkpt><trkpt lat="44.7627164" lon="8.9671396"><ele>576.6666666666666</ele><time>2026-03-21T13:26:11.132Z</time></trkpt><trkpt lat="44.7626107" lon="8.9669778"><ele>568.3333333333333</ele><time>2026-03-21T13:26:12.132Z</time></trkpt><trkpt lat="44.7624847" lon="8.9668285"><ele>560.0</ele><time>2026-03-21T13:26:13.132Z</time></trkpt><trkpt lat="44.7623633" lon="8.9666918"><ele>560.0</ele><time>2026-03-21T13:26:14.132Z</time></trkpt><trkpt lat="44.7622517" lon="8.9665664"><ele>560.0</ele><time>2026-03-21T13:26:15.132Z</time></trkpt><trkpt lat="44.7621607" lon="8.9664401"><ele>560.0</ele><time>2026-03-21T13:26:16.131Z</time></trkpt><trkpt lat="44.7620818" lon="8.9662888"><ele>560.0</ele><time>2026-03-21T13:26:17.131Z</time></trkpt><trkpt lat="44.7620112" lon="8.9661266"><ele>560.0</ele><time>2026-03-21T13:26:18.132Z</time></trkpt><trkpt lat="44.7619394" lon="8.9659537"><ele>560.0</ele><time>2026-03-21T13:26:19.132Z</time></trkpt><trkpt lat="44.7618627" lon="8.9657834"><ele>560.0</ele><time>2026-03-21T13:26:20.132Z</time></trkpt><trkpt lat="44.7617857" lon="8.9656119"><ele>560.0</ele><time>2026-03-21T13:26:21.131Z</time></trkpt><trkpt lat="44.7617123" lon="8.965431"><ele>561.75</ele><time>2026-03-21T13:26:22.132Z</time></trkpt><trkpt lat="44.761636" lon="8.9652612"><ele>563.5</ele><time>2026-03-21T13:26:23.131Z</time></trkpt><trkpt lat="44.7615604" lon="8.965098"><ele>565.25</ele><time>2026-03-21T13:26:24.131Z</time></trkpt><trkpt lat="44.7614877" lon="8.9649338"><ele>567.0</ele><time>2026-03-21T13:26:25.132Z</time></trkpt><trkpt lat="44.7614203" lon="8.9647726"><ele>567.0</ele><time>2026-03-21T13:26:26.132Z</time></trkpt><trkpt lat="44.7613602" lon="8.964618"><ele>567.0</ele><time>2026-03-21T13:26:27.131Z</time></trkpt><trkpt lat="44.7613108" lon="8.9644625"><ele>567.0</ele><time>2026-03-21T13:26:28.132Z</time></trkpt><trkpt lat="44.7612749" lon="8.9643027"><ele>567.0</ele><time>2026-03-21T13:26:29.131Z</time></trkpt><trkpt lat="44.761246" lon="8.964144"><ele>570.2</ele><time>2026-03-21T13:26:30.132Z</time></trkpt><trkpt lat="44.7612179" lon="8.963991"><ele>573.4000000000001</ele><time>2026-03-21T13:26:31.131Z</time></trkpt><trkpt lat="44.761195" lon="8.9638465"><ele>576.5999999999999</ele><time>2026-03-21T13:26:32.131Z</time></trkpt><trkpt lat="44.7611703" lon="8.9637034"><ele>579.8</ele><time>2026-03-21T13:26:33.131Z</time></trkpt><trkpt lat="44.7611438" lon="8.9635611"><ele>583.0</ele><time>2026-03-21T13:26:34.132Z</time></trkpt><trkpt lat="44.7611207" lon="8.9634134"><ele>582.25</ele><time>2026-03-21T13:26:35.132Z</time></trkpt><trkpt lat="44.7611" lon="8.963256"><ele>581.5</ele><time>2026-03-21T13:26:36.131Z</time></trkpt><trkpt lat="44.7610681" lon="8.9631003"><ele>580.75</ele><time>2026-03-21T13:26:37.131Z</time></trkpt><trkpt lat="44.7610321" lon="8.9629438"><ele>580.0</ele><time>2026-03-21T13:26:38.131Z</time></trkpt><trkpt lat="44.7609777" lon="8.9627898"><ele>573.25</ele><time>2026-03-21T13:26:39.131Z</time></trkpt><trkpt lat="44.7609228" lon="8.9626316"><ele>566.5</ele><time>2026-03-21T13:26:40.131Z</time></trkpt><trkpt lat="44.7608571" lon="8.9624765"><ele>559.75</ele><time>2026-03-21T13:26:41.131Z</time></trkpt><trkpt lat="44.7607884" lon="8.9623165"><ele>553.0</ele><time>2026-03-21T13:26:42.131Z</time></trkpt><trkpt lat="44.7607122" lon="8.9621512"><ele>553.0</ele><time>2026-03-21T13:26:43.132Z</time></trkpt><trkpt lat="44.7606231" lon="8.9619781"><ele>553.0</ele><time>2026-03-21T13:26:44.132Z</time></trkpt><trkpt lat="44.7605162" lon="8.9618173"><ele>553.0</ele><time>2026-03-21T13:26:45.132Z</time></trkpt><trkpt lat="44.7604197" lon="8.9616374"><ele>556.25</ele><time>2026-03-21T13:26:46.132Z</time></trkpt><trkpt lat="44.760353" lon="8.9614365"><ele>559.5</ele><time>2026-03-21T13:26:47.131Z</time></trkpt><trkpt lat="44.7603016" lon="8.9612407"><ele>562.75</ele><time>2026-03-21T13:26:48.132Z</time></trkpt><trkpt lat="44.7602849" lon="8.9610493"><ele>566.0</ele><time>2026-03-21T13:26:49.132Z</time></trkpt><trkpt lat="44.7602548" lon="8.9608511"><ele>556.3333333333333</ele><time>2026-03-21T13:26:50.131Z</time></trkpt><trkpt lat="44.7601947" lon="8.9606438"><ele>546.6666666666666</ele><time>2026-03-21T13:26:51.132Z</time></trkpt><trkpt lat="44.7601067" lon="8.9604567"><ele>537.0</ele><time>2026-03-21T13:26:52.131Z</time></trkpt><trkpt lat="44.7599907" lon="8.9602759"><ele>537.0</ele><time>2026-03-21T13:26:53.131Z</time></trkpt><trkpt lat="44.7598556" lon="8.9601024"><ele>537.0</ele><time>2026-03-21T13:26:54.132Z</time></trkpt><trkpt lat="44.7597154" lon="8.95995"><ele>537.0</ele><time>2026-03-21T13:26:55.131Z</time></trkpt><trkpt lat="44.7595567" lon="8.9598288"><ele>534.0</ele><time>2026-03-21T13:26:56.132Z</time></trkpt><trkpt lat="44.7593937" lon="8.9597514"><ele>531.0</ele><time>2026-03-21T13:26:57.132Z</time></trkpt><trkpt lat="44.759245" lon="8.9597045"><ele>528.0</ele><time>2026-03-21T13:26:58.131Z</time></trkpt><trkpt lat="44.7591072" lon="8.9596716"><ele>528.0</ele><time>2026-03-21T13:26:59.132Z</time></trkpt><trkpt lat="44.7589766" lon="8.9596716"><ele>528.0</ele><time>2026-03-21T13:27:00.131Z</time></trkpt><trkpt lat="44.7588576" lon="8.9597103"><ele>528.0</ele><time>2026-03-21T13:27:01.131Z</time></trkpt><trkpt lat="44.7587565" lon="8.9597586"><ele>528.0</ele><time>2026-03-21T13:27:02.131Z</time></trkpt><trkpt lat="44.7586651" lon="8.9597786"><ele>528.0</ele><time>2026-03-21T13:27:03.132Z</time></trkpt><trkpt lat="44.7585941" lon="8.9597313"><ele>528.0</ele><time>2026-03-21T13:27:04.131Z</time></trkpt><trkpt lat="44.7585482" lon="8.9596522"><ele>528.0</ele><time>2026-03-21T13:27:05.131Z</time></trkpt><trkpt lat="44.7585311" lon="8.9595535"><ele>528.0</ele><time>2026-03-21T13:27:06.131Z</time></trkpt><trkpt lat="44.7585475" lon="8.9594494"><ele>528.0</ele><time>2026-03-21T13:27:07.132Z</time></trkpt><trkpt lat="44.7585819" lon="8.959331"><ele>528.0</ele><time>2026-03-21T13:27:08.131Z</time></trkpt><trkpt lat="44.7586335" lon="8.9591944"><ele>531.0</ele><time>2026-03-21T13:27:09.132Z</time></trkpt><trkpt lat="44.7586914" lon="8.9590428"><ele>534.0</ele><time>2026-03-21T13:27:10.131Z</time></trkpt><trkpt lat="44.7587561" lon="8.958876"><ele>537.0</ele><time>2026-03-21T13:27:11.131Z</time></trkpt><trkpt lat="44.7588267" lon="8.9586949"><ele>540.0</ele><time>2026-03-21T13:27:12.131Z</time></trkpt><trkpt lat="44.7588951" lon="8.9585176"><ele>537.5</ele><time>2026-03-21T13:27:13.132Z</time></trkpt><trkpt lat="44.7589626" lon="8.9583469"><ele>535.0</ele><time>2026-03-21T13:27:14.132Z</time></trkpt><trkpt lat="44.7590314" lon="8.9581815"><ele>532.5</ele><time>2026-03-21T13:27:15.131Z</time></trkpt><trkpt lat="44.7590988" lon="8.9580218"><ele>530.0</ele><time>2026-03-21T13:27:16.132Z</time></trkpt><trkpt lat="44.7591608" lon="8.9578821"><ele>530.0</ele><time>2026-03-21T13:27:17.132Z</time></trkpt><trkpt lat="44.7592081" lon="8.9577674"><ele>530.0</ele><time>2026-03-21T13:27:18.132Z</time></trkpt><trkpt lat="44.7592312" lon="8.9576645"><ele>530.0</ele><time>2026-03-21T13:27:19.132Z</time></trkpt><trkpt lat="44.7591969" lon="8.9575114"><ele>530.0</ele><time>2026-03-21T13:27:21.131Z</time></trkpt><trkpt lat="44.759092" lon="8.9575081"><ele>530.0</ele><time>2026-03-21T13:27:23.131Z</time></trkpt><trkpt lat="44.7590379" lon="8.9575572"><ele>530.0</ele><time>2026-03-21T13:27:24.132Z</time></trkpt><trkpt lat="44.758983" lon="8.9576571"><ele>530.0</ele><time>2026-03-21T13:27:25.132Z</time></trkpt><trkpt lat="44.7589193" lon="8.9577917"><ele>530.0</ele><time>2026-03-21T13:27:26.131Z</time></trkpt><trkpt lat="44.7588504" lon="8.9579508"><ele>530.0</ele><time>2026-03-21T13:27:27.132Z</time></trkpt><trkpt lat="44.7587719" lon="8.958122"><ele>530.0</ele><time>2026-03-21T13:27:28.131Z</time></trkpt><trkpt lat="44.7586947" lon="8.9582857"><ele>530.0</ele><time>2026-03-21T13:27:29.132Z</time></trkpt><trkpt lat="44.7586116" lon="8.9584381"><ele>530.0</ele><time>2026-03-21T13:27:30.132Z</time></trkpt><trkpt lat="44.7585188" lon="8.9585682"><ele>530.0</ele><time>2026-03-21T13:27:31.132Z</time></trkpt><trkpt lat="44.7584163" lon="8.958685"><ele>526.5</ele><time>2026-03-21T13:27:32.131Z</time></trkpt><trkpt lat="44.7583012" lon="8.9587876"><ele>523.0</ele><time>2026-03-21T13:27:33.132Z</time></trkpt><trkpt lat="44.7581682" lon="8.9588661"><ele>519.5</ele><time>2026-03-21T13:27:34.132Z</time></trkpt><trkpt lat="44.7580284" lon="8.9589187"><ele>516.0</ele><time>2026-03-21T13:27:35.132Z</time></trkpt><trkpt lat="44.7578881" lon="8.9589488"><ele>516.0</ele><time>2026-03-21T13:27:36.131Z</time></trkpt><trkpt lat="44.7577552" lon="8.9589546"><ele>516.0</ele><time>2026-03-21T13:27:37.132Z</time></trkpt><trkpt lat="44.7576304" lon="8.9589576"><ele>516.0</ele><time>2026-03-21T13:27:38.132Z</time></trkpt><trkpt lat="44.757516" lon="8.9589643"><ele>516.0</ele><time>2026-03-21T13:27:39.132Z</time></trkpt><trkpt lat="44.7574172" lon="8.9589894"><ele>511.6</ele><time>2026-03-21T13:27:40.132Z</time></trkpt><trkpt lat="44.7573287" lon="8.9590313"><ele>507.20000000000005</ele><time>2026-03-21T13:27:41.132Z</time></trkpt><trkpt lat="44.757244" lon="8.9590658"><ele>502.79999999999995</ele><time>2026-03-21T13:27:42.132Z</time></trkpt><trkpt lat="44.7571508" lon="8.9590703"><ele>498.4</ele><time>2026-03-21T13:27:43.132Z</time></trkpt><trkpt lat="44.7570522" lon="8.9590532"><ele>494.0</ele><time>2026-03-21T13:27:44.132Z</time></trkpt><trkpt lat="44.7569476" lon="8.9590096"><ele>493.25</ele><time>2026-03-21T13:27:45.131Z</time></trkpt><trkpt lat="44.7568348" lon="8.9589942"><ele>492.5</ele><time>2026-03-21T13:27:46.131Z</time></trkpt><trkpt lat="44.7567121" lon="8.959004"><ele>491.75</ele><time>2026-03-21T13:27:47.131Z</time></trkpt><trkpt lat="44.7565834" lon="8.9590316"><ele>491.0</ele><time>2026-03-21T13:27:48.131Z</time></trkpt><trkpt lat="44.7564469" lon="8.9590503"><ele>491.0</ele><time>2026-03-21T13:27:49.131Z</time></trkpt><trkpt lat="44.7563066" lon="8.9590609"><ele>491.0</ele><time>2026-03-21T13:27:50.131Z</time></trkpt><trkpt lat="44.7561667" lon="8.9590502"><ele>491.0</ele><time>2026-03-21T13:27:51.132Z</time></trkpt><trkpt lat="44.7560283" lon="8.9590322"><ele>491.0</ele><time>2026-03-21T13:27:52.131Z</time></trkpt><trkpt lat="44.7558868" lon="8.9590311"><ele>491.25</ele><time>2026-03-21T13:27:53.132Z</time></trkpt><trkpt lat="44.7557555" lon="8.9590329"><ele>491.5</ele><time>2026-03-21T13:27:54.131Z</time></trkpt><trkpt lat="44.7556335" lon="8.9590217"><ele>491.75</ele><time>2026-03-21T13:27:55.131Z</time></trkpt><trkpt lat="44.7555106" lon="8.958994"><ele>492.0</ele><time>2026-03-21T13:27:56.132Z</time></trkpt><trkpt lat="44.7553828" lon="8.958936"><ele>492.0</ele><time>2026-03-21T13:27:57.132Z</time></trkpt><trkpt lat="44.7552482" lon="8.9588556"><ele>492.0</ele><time>2026-03-21T13:27:58.132Z</time></trkpt><trkpt lat="44.755104" lon="8.9587662"><ele>492.0</ele><time>2026-03-21T13:27:59.132Z</time></trkpt><trkpt lat="44.7549514" lon="8.9586704"><ele>488.66666666666663</ele><time>2026-03-21T13:28:00.132Z</time></trkpt><trkpt lat="44.7548045" lon="8.958576"><ele>485.3333333333333</ele><time>2026-03-21T13:28:01.132Z</time></trkpt><trkpt lat="44.7546446" lon="8.9584804"><ele>482.0</ele><time>2026-03-21T13:28:02.132Z</time></trkpt><trkpt lat="44.7544847" lon="8.9583735"><ele>483.0</ele><time>2026-03-21T13:28:03.132Z</time></trkpt><trkpt lat="44.7543263" lon="8.958256"><ele>484.0</ele><time>2026-03-21T13:28:04.132Z</time></trkpt><trkpt lat="44.7541753" lon="8.9581392"><ele>485.0</ele><time>2026-03-21T13:28:05.132Z</time></trkpt><trkpt lat="44.7540354" lon="8.9580368"><ele>485.0</ele><time>2026-03-21T13:28:06.132Z</time></trkpt><trkpt lat="44.7539002" lon="8.9579375"><ele>485.0</ele><time>2026-03-21T13:28:07.132Z</time></trkpt><trkpt lat="44.7537822" lon="8.9578396"><ele>485.0</ele><time>2026-03-21T13:28:08.132Z</time></trkpt><trkpt lat="44.7536736" lon="8.9577492"><ele>485.0</ele><time>2026-03-21T13:28:09.131Z</time></trkpt><trkpt lat="44.7535831" lon="8.9576448"><ele>488.25</ele><time>2026-03-21T13:28:10.131Z</time></trkpt><trkpt lat="44.7535245" lon="8.9575106"><ele>491.5</ele><time>2026-03-21T13:28:11.132Z</time></trkpt><trkpt lat="44.7534939" lon="8.9573479"><ele>494.75</ele><time>2026-03-21T13:28:12.131Z</time></trkpt><trkpt lat="44.7534822" lon="8.9571705"><ele>498.0</ele><time>2026-03-21T13:28:13.131Z</time></trkpt><trkpt lat="44.7534826" lon="8.9569885"><ele>498.0</ele><time>2026-03-21T13:28:14.131Z</time></trkpt><trkpt lat="44.7534963" lon="8.9568076"><ele>498.0</ele><time>2026-03-21T13:28:15.132Z</time></trkpt><trkpt lat="44.7535437" lon="8.9566398"><ele>498.0</ele><time>2026-03-21T13:28:16.132Z</time></trkpt><trkpt lat="44.7536238" lon="8.9565143"><ele>498.0</ele><time>2026-03-21T13:28:17.132Z</time></trkpt><trkpt lat="44.7537087" lon="8.9564258"><ele>496.59999999999997</ele><time>2026-03-21T13:28:18.132Z</time></trkpt><trkpt lat="44.7537891" lon="8.9563278"><ele>495.19999999999993</ele><time>2026-03-21T13:28:19.132Z</time></trkpt><trkpt lat="44.7538443" lon="8.9562175"><ele>493.8</ele><time>2026-03-21T13:28:20.132Z</time></trkpt><trkpt lat="44.7538569" lon="8.9560959"><ele>492.4</ele><time>2026-03-21T13:28:21.131Z</time></trkpt><trkpt lat="44.7538324" lon="8.9559754"><ele>491.0</ele><time>2026-03-21T13:28:22.132Z</time></trkpt><trkpt lat="44.7538014" lon="8.9558551"><ele>491.0</ele><time>2026-03-21T13:28:23.131Z</time></trkpt><trkpt lat="44.7537991" lon="8.955716"><ele>491.0</ele><time>2026-03-21T13:28:24.132Z</time></trkpt><trkpt lat="44.7538273" lon="8.9555789"><ele>491.0</ele><time>2026-03-21T13:28:25.132Z</time></trkpt><trkpt lat="44.7538857" lon="8.9554584"><ele>491.0</ele><time>2026-03-21T13:28:26.131Z</time></trkpt><trkpt lat="44.7539608" lon="8.9553337"><ele>491.0</ele><time>2026-03-21T13:28:27.132Z</time></trkpt><trkpt lat="44.7540381" lon="8.9551962"><ele>491.0</ele><time>2026-03-21T13:28:28.131Z</time></trkpt><trkpt lat="44.7541071" lon="8.9550406"><ele>491.0</ele><time>2026-03-21T13:28:29.132Z</time></trkpt><trkpt lat="44.7541741" lon="8.9548681"><ele>491.0</ele><time>2026-03-21T13:28:30.131Z</time></trkpt><trkpt lat="44.754223" lon="8.9546836"><ele>491.0</ele><time>2026-03-21T13:28:31.131Z</time></trkpt><trkpt lat="44.7542416" lon="8.9544925"><ele>488.5</ele><time>2026-03-21T13:28:32.132Z</time></trkpt><trkpt lat="44.7542338" lon="8.9543004"><ele>486.0</ele><time>2026-03-21T13:28:33.132Z</time></trkpt><trkpt lat="44.7542448" lon="8.9541215"><ele>483.5</ele><time>2026-03-21T13:28:34.132Z</time></trkpt><trkpt lat="44.7543008" lon="8.9539663"><ele>481.0</ele><time>2026-03-21T13:28:35.131Z</time></trkpt><trkpt lat="44.7543724" lon="8.953825"><ele>481.0</ele><time>2026-03-21T13:28:36.131Z</time></trkpt><trkpt lat="44.754423" lon="8.9536738"><ele>481.0</ele><time>2026-03-21T13:28:37.131Z</time></trkpt><trkpt lat="44.7544115" lon="8.9534843"><ele>481.0</ele><time>2026-03-21T13:28:38.131Z</time></trkpt><trkpt lat="44.7543963" lon="8.953301"><ele>481.0</ele><time>2026-03-21T13:28:39.132Z</time></trkpt><trkpt lat="44.7543913" lon="8.9531008"><ele>483.0</ele><time>2026-03-21T13:28:40.132Z</time></trkpt><trkpt lat="44.7543904" lon="8.9528882"><ele>485.0</ele><time>2026-03-21T13:28:41.131Z</time></trkpt><trkpt lat="44.7544097" lon="8.9526686"><ele>487.0</ele><time>2026-03-21T13:28:42.132Z</time></trkpt><trkpt lat="44.7544465" lon="8.9524483"><ele>488.0</ele><time>2026-03-21T13:28:43.131Z</time></trkpt><trkpt lat="44.7544903" lon="8.9522321"><ele>489.0</ele><time>2026-03-21T13:28:44.132Z</time></trkpt><trkpt lat="44.7545395" lon="8.9520126"><ele>490.0</ele><time>2026-03-21T13:28:45.131Z</time></trkpt><trkpt lat="44.7545881" lon="8.9517906"><ele>491.25</ele><time>2026-03-21T13:28:46.132Z</time></trkpt><trkpt lat="44.7546391" lon="8.951582"><ele>492.5</ele><time>2026-03-21T13:28:47.131Z</time></trkpt><trkpt lat="44.754686" lon="8.9513922"><ele>493.75</ele><time>2026-03-21T13:28:48.131Z</time></trkpt><trkpt lat="44.7547297" lon="8.9512086"><ele>495.0</ele><time>2026-03-21T13:28:49.132Z</time></trkpt><trkpt lat="44.754761" lon="8.9510414"><ele>495.0</ele><time>2026-03-21T13:28:50.131Z</time></trkpt><trkpt lat="44.7547718" lon="8.9508993"><ele>495.0</ele><time>2026-03-21T13:28:51.131Z</time></trkpt><trkpt lat="44.7547701" lon="8.9507797"><ele>495.0</ele><time>2026-03-21T13:28:52.131Z</time></trkpt><trkpt lat="44.7547534" lon="8.9506861"><ele>495.0</ele><time>2026-03-21T13:28:53.131Z</time></trkpt><trkpt lat="44.754728" lon="8.9505977"><ele>495.0</ele><time>2026-03-21T13:28:55.131Z</time></trkpt><trkpt lat="44.7546413" lon="8.9505049"><ele>495.0</ele><time>2026-03-21T13:29:33.131Z</time></trkpt><trkpt lat="44.7545809" lon="8.9504785"><ele>496.0</ele><time>2026-03-21T13:29:34.132Z</time></trkpt><trkpt lat="44.7545129" lon="8.9504586"><ele>497.0</ele><time>2026-03-21T13:29:35.132Z</time></trkpt><trkpt lat="44.7543993" lon="8.9504272"><ele>498.0</ele><time>2026-03-21T13:29:36.131Z</time></trkpt><trkpt lat="44.7542746" lon="8.9503932"><ele>499.0</ele><time>2026-03-21T13:29:37.131Z</time></trkpt><trkpt lat="44.7541415" lon="8.9503571"><ele>500.0</ele><time>2026-03-21T13:29:38.131Z</time></trkpt><trkpt lat="44.7540049" lon="8.9503213"><ele>505.5</ele><time>2026-03-21T13:29:39.132Z</time></trkpt><trkpt lat="44.7538621" lon="8.950309"><ele>511.0</ele><time>2026-03-21T13:29:40.131Z</time></trkpt><trkpt lat="44.7537219" lon="8.9503115"><ele>516.5</ele><time>2026-03-21T13:29:41.132Z</time></trkpt><trkpt lat="44.753587" lon="8.9503095"><ele>522.0</ele><time>2026-03-21T13:29:42.132Z</time></trkpt><trkpt lat="44.7534613" lon="8.9503089"><ele>523.0</ele><time>2026-03-21T13:29:43.131Z</time></trkpt><trkpt lat="44.7533441" lon="8.9503012"><ele>524.0</ele><time>2026-03-21T13:29:44.131Z</time></trkpt><trkpt lat="44.7532317" lon="8.9503018"><ele>525.0</ele><time>2026-03-21T13:29:45.131Z</time></trkpt><trkpt lat="44.7531121" lon="8.9503253"><ele>526.0</ele><time>2026-03-21T13:29:46.131Z</time></trkpt><trkpt lat="44.7529777" lon="8.9503628"><ele>526.0</ele><time>2026-03-21T13:29:47.132Z</time></trkpt><trkpt lat="44.752857" lon="8.9503591"><ele>526.0</ele><time>2026-03-21T13:29:48.131Z</time></trkpt><trkpt lat="44.7527454" lon="8.9503216"><ele>526.0</ele><time>2026-03-21T13:29:49.132Z</time></trkpt><trkpt lat="44.7526344" lon="8.9502776"><ele>526.0</ele><time>2026-03-21T13:29:50.131Z</time></trkpt><trkpt lat="44.752537" lon="8.9502665"><ele>526.0</ele><time>2026-03-21T13:29:51.132Z</time></trkpt><trkpt lat="44.7524469" lon="8.9502581"><ele>526.5</ele><time>2026-03-21T13:29:52.132Z</time></trkpt><trkpt lat="44.7523686" lon="8.950223"><ele>527.0</ele><time>2026-03-21T13:29:53.132Z</time></trkpt><trkpt lat="44.7523098" lon="8.9501531"><ele>527.5</ele><time>2026-03-21T13:29:54.132Z</time></trkpt><trkpt lat="44.7522913" lon="8.9500609"><ele>528.0</ele><time>2026-03-21T13:29:55.131Z</time></trkpt><trkpt lat="44.7523037" lon="8.9499648"><ele>528.5</ele><time>2026-03-21T13:29:56.131Z</time></trkpt><trkpt lat="44.7523461" lon="8.9498622"><ele>529.0</ele><time>2026-03-21T13:29:57.132Z</time></trkpt><trkpt lat="44.752426" lon="8.9497664"><ele>527.0</ele><time>2026-03-21T13:29:58.132Z</time></trkpt><trkpt lat="44.7525008" lon="8.9496463"><ele>525.0</ele><time>2026-03-21T13:29:59.131Z</time></trkpt><trkpt lat="44.7525662" lon="8.9494971"><ele>523.0</ele><time>2026-03-21T13:30:00.132Z</time></trkpt><trkpt lat="44.7526372" lon="8.9493321"><ele>521.0</ele><time>2026-03-21T13:30:01.131Z</time></trkpt><trkpt lat="44.7526827" lon="8.9491518"><ele>513.0</ele><time>2026-03-21T13:30:02.132Z</time></trkpt><trkpt lat="44.7527359" lon="8.9489878"><ele>505.0</ele><time>2026-03-21T13:30:03.131Z</time></trkpt><trkpt lat="44.7527916" lon="8.9488147"><ele>497.0</ele><time>2026-03-21T13:30:04.132Z</time></trkpt><trkpt lat="44.7528471" lon="8.9486402"><ele>489.0</ele><time>2026-03-21T13:30:05.132Z</time></trkpt><trkpt lat="44.7528927" lon="8.9484567"><ele>488.75</ele><time>2026-03-21T13:30:06.131Z</time></trkpt><trkpt lat="44.752919" lon="8.9482685"><ele>488.5</ele><time>2026-03-21T13:30:07.132Z</time></trkpt><trkpt lat="44.7529305" lon="8.9480845"><ele>488.25</ele><time>2026-03-21T13:30:08.132Z</time></trkpt><trkpt lat="44.7529458" lon="8.9479085"><ele>488.0</ele><time>2026-03-21T13:30:09.132Z</time></trkpt><trkpt lat="44.7529779" lon="8.9477433"><ele>488.0</ele><time>2026-03-21T13:30:10.131Z</time></trkpt><trkpt lat="44.7530296" lon="8.9476026"><ele>487.99999999999994</ele><time>2026-03-21T13:30:11.131Z</time></trkpt><trkpt lat="44.7530754" lon="8.9474597"><ele>487.99999999999994</ele><time>2026-03-21T13:30:12.131Z</time></trkpt><trkpt lat="44.7531034" lon="8.947315"><ele>488.0</ele><time>2026-03-21T13:30:13.131Z</time></trkpt><trkpt lat="44.753125" lon="8.947166"><ele>488.0</ele><time>2026-03-21T13:30:14.131Z</time></trkpt><trkpt lat="44.7531438" lon="8.9470199"><ele>489.49999999999994</ele><time>2026-03-21T13:30:15.131Z</time></trkpt><trkpt lat="44.753148" lon="8.9468953"><ele>491.0</ele><time>2026-03-21T13:30:16.131Z</time></trkpt><trkpt lat="44.7531263" lon="8.9468027"><ele>492.5</ele><time>2026-03-21T13:30:17.132Z</time></trkpt><trkpt lat="44.7530826" lon="8.9467318"><ele>494.0</ele><time>2026-03-21T13:30:18.131Z</time></trkpt><trkpt lat="44.7530203" lon="8.9466785"><ele>495.49999999999994</ele><time>2026-03-21T13:30:19.132Z</time></trkpt><trkpt lat="44.7529485" lon="8.9466246"><ele>497.0</ele><time>2026-03-21T13:30:20.131Z</time></trkpt><trkpt lat="44.7528716" lon="8.9465689"><ele>498.40000000000003</ele><time>2026-03-21T13:30:21.131Z</time></trkpt><trkpt lat="44.7527959" lon="8.9465182"><ele>499.80000000000007</ele><time>2026-03-21T13:30:22.131Z</time></trkpt><trkpt lat="44.7527246" lon="8.9464652"><ele>501.2</ele><time>2026-03-21T13:30:23.132Z</time></trkpt><trkpt lat="44.7526573" lon="8.9463898"><ele>502.6</ele><time>2026-03-21T13:30:24.131Z</time></trkpt><trkpt lat="44.7525934" lon="8.9462905"><ele>504.0</ele><time>2026-03-21T13:30:25.131Z</time></trkpt><trkpt lat="44.7525308" lon="8.9461706"><ele>503.5</ele><time>2026-03-21T13:30:26.131Z</time></trkpt><trkpt lat="44.7524569" lon="8.9460466"><ele>503.0</ele><time>2026-03-21T13:30:27.132Z</time></trkpt><trkpt lat="44.7523779" lon="8.9459174"><ele>502.5</ele><time>2026-03-21T13:30:28.131Z</time></trkpt><trkpt lat="44.7522902" lon="8.9457911"><ele>502.0</ele><time>2026-03-21T13:30:29.131Z</time></trkpt><trkpt lat="44.7521901" lon="8.9456673"><ele>502.0</ele><time>2026-03-21T13:30:30.132Z</time></trkpt><trkpt lat="44.7520841" lon="8.9455505"><ele>502.0</ele><time>2026-03-21T13:30:31.131Z</time></trkpt><trkpt lat="44.7519705" lon="8.9454368"><ele>502.0</ele><time>2026-03-21T13:30:32.131Z</time></trkpt><trkpt lat="44.7518517" lon="8.9453227"><ele>502.0</ele><time>2026-03-21T13:30:33.131Z</time></trkpt><trkpt lat="44.7517281" lon="8.9452072"><ele>500.5</ele><time>2026-03-21T13:30:34.132Z</time></trkpt><trkpt lat="44.7516088" lon="8.9450932"><ele>499.0</ele><time>2026-03-21T13:30:35.131Z</time></trkpt><trkpt lat="44.7514953" lon="8.9449845"><ele>497.5</ele><time>2026-03-21T13:30:36.132Z</time></trkpt><trkpt lat="44.751391" lon="8.9448838"><ele>496.0</ele><time>2026-03-21T13:30:37.131Z</time></trkpt><trkpt lat="44.7512808" lon="8.9448086"><ele>496.0</ele><time>2026-03-21T13:30:38.132Z</time></trkpt><trkpt lat="44.7511685" lon="8.9447585"><ele>496.0</ele><time>2026-03-21T13:30:39.131Z</time></trkpt><trkpt lat="44.7510575" lon="8.9447348"><ele>496.0</ele><time>2026-03-21T13:30:40.131Z</time></trkpt><trkpt lat="44.7509599" lon="8.9446799"><ele>496.0</ele><time>2026-03-21T13:30:41.132Z</time></trkpt><trkpt lat="44.7508632" lon="8.9445882"><ele>495.25</ele><time>2026-03-21T13:30:42.132Z</time></trkpt><trkpt lat="44.7507861" lon="8.9444682"><ele>494.5</ele><time>2026-03-21T13:30:43.131Z</time></trkpt><trkpt lat="44.7507264" lon="8.9443339"><ele>493.75</ele><time>2026-03-21T13:30:44.131Z</time></trkpt><trkpt lat="44.750692" lon="8.9441757"><ele>493.0</ele><time>2026-03-21T13:30:45.131Z</time></trkpt><trkpt lat="44.7506835" lon="8.9439985"><ele>493.0</ele><time>2026-03-21T13:30:46.132Z</time></trkpt><trkpt lat="44.7506904" lon="8.9438136"><ele>493.0</ele><time>2026-03-21T13:30:47.132Z</time></trkpt><trkpt lat="44.7507158" lon="8.9436218"><ele>493.0</ele><time>2026-03-21T13:30:48.132Z</time></trkpt><trkpt lat="44.7507421" lon="8.9434424"><ele>493.0</ele><time>2026-03-21T13:30:49.131Z</time></trkpt><trkpt lat="44.7507388" lon="8.9432772"><ele>492.0</ele><time>2026-03-21T13:30:50.132Z</time></trkpt><trkpt lat="44.7506986" lon="8.9431403"><ele>490.99999999999994</ele><time>2026-03-21T13:30:51.132Z</time></trkpt><trkpt lat="44.7506232" lon="8.9430367"><ele>489.99999999999994</ele><time>2026-03-21T13:30:52.132Z</time></trkpt><trkpt lat="44.7505181" lon="8.9429833"><ele>489.0</ele><time>2026-03-21T13:30:53.131Z</time></trkpt><trkpt lat="44.7504035" lon="8.9429529"><ele>488.0</ele><time>2026-03-21T13:30:54.131Z</time></trkpt><trkpt lat="44.7502904" lon="8.9428982"><ele>489.75</ele><time>2026-03-21T13:30:55.132Z</time></trkpt><trkpt lat="44.7501979" lon="8.9428088"><ele>491.5</ele><time>2026-03-21T13:30:56.131Z</time></trkpt><trkpt lat="44.7501187" lon="8.942676"><ele>493.25</ele><time>2026-03-21T13:30:57.132Z</time></trkpt><trkpt lat="44.7500428" lon="8.9425547"><ele>495.0</ele><time>2026-03-21T13:30:58.132Z</time></trkpt><trkpt lat="44.7499459" lon="8.9424592"><ele>495.0</ele><time>2026-03-21T13:30:59.131Z</time></trkpt><trkpt lat="44.7498262" lon="8.9423974"><ele>495.0</ele><time>2026-03-21T13:31:00.132Z</time></trkpt><trkpt lat="44.749694" lon="8.9423716"><ele>495.0</ele><time>2026-03-21T13:31:01.131Z</time></trkpt><trkpt lat="44.7495532" lon="8.942368"><ele>495.0</ele><time>2026-03-21T13:31:02.131Z</time></trkpt><trkpt lat="44.74943" lon="8.9423516"><ele>495.0</ele><time>2026-03-21T13:31:03.131Z</time></trkpt><trkpt lat="44.7493437" lon="8.9422996"><ele>495.0</ele><time>2026-03-21T13:31:04.131Z</time></trkpt><trkpt lat="44.7492985" lon="8.9422165"><ele>495.0</ele><time>2026-03-21T13:31:05.132Z</time></trkpt><trkpt lat="44.7492919" lon="8.9420972"><ele>495.0</ele><time>2026-03-21T13:31:06.132Z</time></trkpt><trkpt lat="44.7493228" lon="8.9419686"><ele>495.0</ele><time>2026-03-21T13:31:07.132Z</time></trkpt><trkpt lat="44.749382" lon="8.9418549"><ele>495.0</ele><time>2026-03-21T13:31:08.132Z</time></trkpt><trkpt lat="44.7494668" lon="8.9417902"><ele>495.0</ele><time>2026-03-21T13:31:09.131Z</time></trkpt><trkpt lat="44.7495788" lon="8.9417866"><ele>495.0</ele><time>2026-03-21T13:31:10.131Z</time></trkpt><trkpt lat="44.7496991" lon="8.9417982"><ele>495.0</ele><time>2026-03-21T13:31:11.132Z</time></trkpt><trkpt lat="44.7498188" lon="8.9418083"><ele>495.0</ele><time>2026-03-21T13:31:12.131Z</time></trkpt><trkpt lat="44.7499424" lon="8.9418171"><ele>495.0</ele><time>2026-03-21T13:31:13.132Z</time></trkpt><trkpt lat="44.7500659" lon="8.9418178"><ele>495.0</ele><time>2026-03-21T13:31:14.131Z</time></trkpt><trkpt lat="44.7501944" lon="8.9418066"><ele>495.0</ele><time>2026-03-21T13:31:15.132Z</time></trkpt><trkpt lat="44.7503233" lon="8.9417883"><ele>495.0</ele><time>2026-03-21T13:31:16.131Z</time></trkpt><trkpt lat="44.7504485" lon="8.9417628"><ele>496.5</ele><time>2026-03-21T13:31:17.131Z</time></trkpt><trkpt lat="44.750576" lon="8.9417307"><ele>498.0</ele><time>2026-03-21T13:31:18.131Z</time></trkpt><trkpt lat="44.7507015" lon="8.9416998"><ele>499.5</ele><time>2026-03-21T13:31:19.131Z</time></trkpt><trkpt lat="44.7508329" lon="8.9416649"><ele>501.0</ele><time>2026-03-21T13:31:20.131Z</time></trkpt><trkpt lat="44.7509658" lon="8.9416407"><ele>499.0</ele><time>2026-03-21T13:31:21.131Z</time></trkpt><trkpt lat="44.7511032" lon="8.9416072"><ele>497.0</ele><time>2026-03-21T13:31:22.131Z</time></trkpt><trkpt lat="44.7512447" lon="8.9415522"><ele>495.0</ele><time>2026-03-21T13:31:23.132Z</time></trkpt><trkpt lat="44.7514027" lon="8.9415091"><ele>493.0</ele><time>2026-03-21T13:31:24.131Z</time></trkpt><trkpt lat="44.751558" lon="8.9414794"><ele>493.0</ele><time>2026-03-21T13:31:25.131Z</time></trkpt><trkpt lat="44.7517159" lon="8.9414424"><ele>493.0</ele><time>2026-03-21T13:31:26.131Z</time></trkpt><trkpt lat="44.7518679" lon="8.9413966"><ele>493.0</ele><time>2026-03-21T13:31:27.132Z</time></trkpt><trkpt lat="44.752012" lon="8.9413315"><ele>488.25</ele><time>2026-03-21T13:31:28.131Z</time></trkpt><trkpt lat="44.7521448" lon="8.9412456"><ele>483.5</ele><time>2026-03-21T13:31:29.132Z</time></trkpt><trkpt lat="44.7522761" lon="8.9411659"><ele>478.75</ele><time>2026-03-21T13:31:30.131Z</time></trkpt><trkpt lat="44.7524163" lon="8.9411323"><ele>474.0</ele><time>2026-03-21T13:31:31.132Z</time></trkpt><trkpt lat="44.7525528" lon="8.9411298"><ele>474.0</ele><time>2026-03-21T13:31:32.132Z</time></trkpt><trkpt lat="44.7526863" lon="8.941101"><ele>474.0</ele><time>2026-03-21T13:31:33.131Z</time></trkpt><trkpt lat="44.7528245" lon="8.941039"><ele>474.0</ele><time>2026-03-21T13:31:34.132Z</time></trkpt><trkpt lat="44.7529716" lon="8.9409748"><ele>474.0</ele><time>2026-03-21T13:31:35.132Z</time></trkpt><trkpt lat="44.753115" lon="8.9409256"><ele>475.0</ele><time>2026-03-21T13:31:36.132Z</time></trkpt><trkpt lat="44.7532552" lon="8.940865"><ele>476.0</ele><time>2026-03-21T13:31:37.131Z</time></trkpt><trkpt lat="44.7533715" lon="8.940823"><ele>477.0</ele><time>2026-03-21T13:31:38.132Z</time></trkpt><trkpt lat="44.7534755" lon="8.9407612"><ele>478.0</ele><time>2026-03-21T13:31:39.132Z</time></trkpt><trkpt lat="44.7535539" lon="8.9406653"><ele>472.0</ele><time>2026-03-21T13:31:40.132Z</time></trkpt><trkpt lat="44.7536043" lon="8.9405411"><ele>466.0</ele><time>2026-03-21T13:31:41.131Z</time></trkpt><trkpt lat="44.7536536" lon="8.9404014"><ele>460.0</ele><time>2026-03-21T13:31:42.132Z</time></trkpt><trkpt lat="44.7537213" lon="8.9402668"><ele>454.0</ele><time>2026-03-21T13:31:43.131Z</time></trkpt><trkpt lat="44.7538174" lon="8.9401653"><ele>454.0</ele><time>2026-03-21T13:31:44.132Z</time></trkpt><trkpt lat="44.7539284" lon="8.9401055"><ele>454.0</ele><time>2026-03-21T13:31:45.131Z</time></trkpt><trkpt lat="44.7540572" lon="8.9400868"><ele>454.0</ele><time>2026-03-21T13:31:46.131Z</time></trkpt><trkpt lat="44.7541922" lon="8.9400948"><ele>454.0</ele><time>2026-03-21T13:31:47.132Z</time></trkpt><trkpt lat="44.7543203" lon="8.9400892"><ele>451.5</ele><time>2026-03-21T13:31:48.132Z</time></trkpt><trkpt lat="44.7544462" lon="8.9400569"><ele>449.0</ele><time>2026-03-21T13:31:49.131Z</time></trkpt><trkpt lat="44.7545744" lon="8.9399921"><ele>446.5</ele><time>2026-03-21T13:31:50.132Z</time></trkpt><trkpt lat="44.7547057" lon="8.9399255"><ele>444.0</ele><time>2026-03-21T13:31:51.131Z</time></trkpt><trkpt lat="44.7548343" lon="8.9398654"><ele>447.25</ele><time>2026-03-21T13:31:52.131Z</time></trkpt><trkpt lat="44.7549632" lon="8.939814"><ele>450.5</ele><time>2026-03-21T13:31:53.132Z</time></trkpt><trkpt lat="44.7550963" lon="8.939764"><ele>453.75</ele><time>2026-03-21T13:31:54.132Z</time></trkpt><trkpt lat="44.7552217" lon="8.9397211"><ele>457.0</ele><time>2026-03-21T13:31:55.131Z</time></trkpt><trkpt lat="44.7553485" lon="8.9396783"><ele>457.0</ele><time>2026-03-21T13:31:56.132Z</time></trkpt><trkpt lat="44.7554688" lon="8.9396188"><ele>457.00000000000006</ele><time>2026-03-21T13:31:57.132Z</time></trkpt><trkpt lat="44.7555822" lon="8.9395753"><ele>457.00000000000006</ele><time>2026-03-21T13:31:58.131Z</time></trkpt><trkpt lat="44.7556831" lon="8.9395408"><ele>457.0</ele><time>2026-03-21T13:31:59.131Z</time></trkpt><trkpt lat="44.7557797" lon="8.9395056"><ele>457.0</ele><time>2026-03-21T13:32:00.132Z</time></trkpt><trkpt lat="44.7558675" lon="8.9394672"><ele>457.00000000000006</ele><time>2026-03-21T13:32:01.131Z</time></trkpt><trkpt lat="44.7559469" lon="8.93944"><ele>457.0</ele><time>2026-03-21T13:32:02.132Z</time></trkpt><trkpt lat="44.7560198" lon="8.9393931"><ele>457.0</ele><time>2026-03-21T13:32:03.132Z</time></trkpt><trkpt lat="44.7560759" lon="8.9393167"><ele>457.0</ele><time>2026-03-21T13:32:04.131Z</time></trkpt><trkpt lat="44.7561053" lon="8.9392201"><ele>457.00000000000006</ele><time>2026-03-21T13:32:05.131Z</time></trkpt><trkpt lat="44.7561029" lon="8.939109"><ele>457.0</ele><time>2026-03-21T13:32:06.131Z</time></trkpt><trkpt lat="44.7560705" lon="8.9390095"><ele>460.6</ele><time>2026-03-21T13:32:07.132Z</time></trkpt><trkpt lat="44.7560324" lon="8.938914"><ele>464.20000000000005</ele><time>2026-03-21T13:32:08.132Z</time></trkpt><trkpt lat="44.7559284" lon="8.9388401"><ele>467.8</ele><time>2026-03-21T13:32:09.132Z</time></trkpt><trkpt lat="44.755835" lon="8.9387549"><ele>471.4</ele><time>2026-03-21T13:32:10.131Z</time></trkpt><trkpt lat="44.7557254" lon="8.9386586"><ele>475.0</ele><time>2026-03-21T13:32:11.132Z</time></trkpt><trkpt lat="44.755626" lon="8.9385379"><ele>472.0</ele><time>2026-03-21T13:32:12.132Z</time></trkpt><trkpt lat="44.755554" lon="8.9383476"><ele>469.0</ele><time>2026-03-21T13:32:13.131Z</time></trkpt><trkpt lat="44.7555005" lon="8.9381606"><ele>466.0</ele><time>2026-03-21T13:32:14.131Z</time></trkpt><trkpt lat="44.7554892" lon="8.9379541"><ele>463.0</ele><time>2026-03-21T13:32:15.132Z</time></trkpt><trkpt lat="44.7555077" lon="8.9377304"><ele>461.0</ele><time>2026-03-21T13:32:16.132Z</time></trkpt><trkpt lat="44.7555645" lon="8.9375071"><ele>459.0</ele><time>2026-03-21T13:32:17.131Z</time></trkpt><trkpt lat="44.7556378" lon="8.937307"><ele>457.0</ele><time>2026-03-21T13:32:18.132Z</time></trkpt><trkpt lat="44.7557039" lon="8.9371291"><ele>457.0</ele><time>2026-03-21T13:32:19.131Z</time></trkpt><trkpt lat="44.7557556" lon="8.9369737"><ele>457.00000000000006</ele><time>2026-03-21T13:32:20.132Z</time></trkpt><trkpt lat="44.7557843" lon="8.9368413"><ele>457.00000000000006</ele><time>2026-03-21T13:32:21.131Z</time></trkpt><trkpt lat="44.7557842" lon="8.9367222"><ele>457.0</ele><time>2026-03-21T13:32:22.131Z</time></trkpt><trkpt lat="44.7557441" lon="8.9366273"><ele>457.0</ele><time>2026-03-21T13:32:23.132Z</time></trkpt><trkpt lat="44.7556723" lon="8.9365477"><ele>457.25</ele><time>2026-03-21T13:32:24.132Z</time></trkpt><trkpt lat="44.7555692" lon="8.9364746"><ele>457.5</ele><time>2026-03-21T13:32:25.131Z</time></trkpt><trkpt lat="44.7554392" lon="8.9363753"><ele>457.75</ele><time>2026-03-21T13:32:26.131Z</time></trkpt><trkpt lat="44.7553132" lon="8.9362499"><ele>458.0</ele><time>2026-03-21T13:32:27.131Z</time></trkpt><trkpt lat="44.7551983" lon="8.9361045"><ele>460.3333333333333</ele><time>2026-03-21T13:32:28.131Z</time></trkpt><trkpt lat="44.755108" lon="8.9359376"><ele>462.66666666666663</ele><time>2026-03-21T13:32:29.132Z</time></trkpt><trkpt lat="44.7550418" lon="8.9357389"><ele>465.0</ele><time>2026-03-21T13:32:30.132Z</time></trkpt><trkpt lat="44.7550005" lon="8.935516"><ele>465.0</ele><time>2026-03-21T13:32:31.131Z</time></trkpt><trkpt lat="44.7549767" lon="8.9352704"><ele>465.0</ele><time>2026-03-21T13:32:32.132Z</time></trkpt><trkpt lat="44.7549749" lon="8.9349961"><ele>465.0</ele><time>2026-03-21T13:32:33.131Z</time></trkpt><trkpt lat="44.7549825" lon="8.934726"><ele>461.66666666666663</ele><time>2026-03-21T13:32:34.131Z</time></trkpt><trkpt lat="44.7550016" lon="8.9344724"><ele>458.3333333333333</ele><time>2026-03-21T13:32:35.132Z</time></trkpt><trkpt lat="44.7550281" lon="8.9342397"><ele>455.0</ele><time>2026-03-21T13:32:36.132Z</time></trkpt><trkpt lat="44.7550617" lon="8.9340216"><ele>453.25</ele><time>2026-03-21T13:32:37.131Z</time></trkpt><trkpt lat="44.7550837" lon="8.9338189"><ele>451.5</ele><time>2026-03-21T13:32:38.131Z</time></trkpt><trkpt lat="44.7550847" lon="8.9336242"><ele>449.75</ele><time>2026-03-21T13:32:39.131Z</time></trkpt><trkpt lat="44.755057" lon="8.933422"><ele>448.0</ele><time>2026-03-21T13:32:40.131Z</time></trkpt><trkpt lat="44.7550294" lon="8.9332226"><ele>446.25</ele><time>2026-03-21T13:32:41.132Z</time></trkpt><trkpt lat="44.755016" lon="8.9330273"><ele>444.5</ele><time>2026-03-21T13:32:42.132Z</time></trkpt><trkpt lat="44.7550257" lon="8.9328388"><ele>442.75</ele><time>2026-03-21T13:32:43.131Z</time></trkpt><trkpt lat="44.7550647" lon="8.9326467"><ele>441.0</ele><time>2026-03-21T13:32:44.132Z</time></trkpt><trkpt lat="44.7551303" lon="8.9324561"><ele>440.5</ele><time>2026-03-21T13:32:45.131Z</time></trkpt><trkpt lat="44.7552" lon="8.932276"><ele>440.0</ele><time>2026-03-21T13:32:46.132Z</time></trkpt><trkpt lat="44.7552633" lon="8.9321128"><ele>439.5</ele><time>2026-03-21T13:32:47.132Z</time></trkpt><trkpt lat="44.7553185" lon="8.931956"><ele>439.0</ele><time>2026-03-21T13:32:48.131Z</time></trkpt><trkpt lat="44.7553394" lon="8.931792"><ele>437.75</ele><time>2026-03-21T13:32:49.131Z</time></trkpt><trkpt lat="44.7553189" lon="8.9316151"><ele>436.5</ele><time>2026-03-21T13:32:50.131Z</time></trkpt><trkpt lat="44.7552682" lon="8.9314198"><ele>435.25</ele><time>2026-03-21T13:32:51.131Z</time></trkpt><trkpt lat="44.7551982" lon="8.9312123"><ele>434.0</ele><time>2026-03-21T13:32:52.132Z</time></trkpt><trkpt lat="44.7551132" lon="8.9309888"><ele>429.66666666666663</ele><time>2026-03-21T13:32:53.132Z</time></trkpt><trkpt lat="44.7550252" lon="8.9307528"><ele>425.33333333333337</ele><time>2026-03-21T13:32:54.131Z</time></trkpt><trkpt lat="44.7549303" lon="8.9305018"><ele>421.0</ele><time>2026-03-21T13:32:55.131Z</time></trkpt><trkpt lat="44.7548302" lon="8.9302514"><ele>417.0</ele><time>2026-03-21T13:32:56.132Z</time></trkpt><trkpt lat="44.7547338" lon="8.9299964"><ele>413.0</ele><time>2026-03-21T13:32:57.132Z</time></trkpt><trkpt lat="44.7546419" lon="8.9297393"><ele>409.0</ele><time>2026-03-21T13:32:58.131Z</time></trkpt><trkpt lat="44.7545551" lon="8.9295007"><ele>409.0</ele><time>2026-03-21T13:32:59.132Z</time></trkpt><trkpt lat="44.7544716" lon="8.9292694"><ele>409.0</ele><time>2026-03-21T13:33:00.132Z</time></trkpt><trkpt lat="44.7543913" lon="8.9290615"><ele>409.0</ele><time>2026-03-21T13:33:01.132Z</time></trkpt><trkpt lat="44.7543139" lon="8.9288804"><ele>410.0</ele><time>2026-03-21T13:33:02.132Z</time></trkpt><trkpt lat="44.7542342" lon="8.928721"><ele>411.0</ele><time>2026-03-21T13:33:03.132Z</time></trkpt><trkpt lat="44.7541509" lon="8.9285888"><ele>412.0</ele><time>2026-03-21T13:33:04.131Z</time></trkpt><trkpt lat="44.7540403" lon="8.9284826"><ele>413.0</ele><time>2026-03-21T13:33:05.132Z</time></trkpt><trkpt lat="44.7539101" lon="8.9283957"><ele>408.66666666666663</ele><time>2026-03-21T13:33:06.132Z</time></trkpt><trkpt lat="44.7537688" lon="8.9282973"><ele>404.33333333333337</ele><time>2026-03-21T13:33:07.132Z</time></trkpt><trkpt lat="44.7536219" lon="8.9281805"><ele>400.0</ele><time>2026-03-21T13:33:08.132Z</time></trkpt><trkpt lat="44.7534698" lon="8.9280492"><ele>397.6666666666667</ele><time>2026-03-21T13:33:09.132Z</time></trkpt><trkpt lat="44.7533205" lon="8.9279068"><ele>395.33333333333337</ele><time>2026-03-21T13:33:10.131Z</time></trkpt><trkpt lat="44.7531745" lon="8.9277463"><ele>393.0</ele><time>2026-03-21T13:33:11.131Z</time></trkpt><trkpt lat="44.7530352" lon="8.9275655"><ele>391.33333333333337</ele><time>2026-03-21T13:33:12.132Z</time></trkpt><trkpt lat="44.7529016" lon="8.9273709"><ele>389.6666666666667</ele><time>2026-03-21T13:33:13.132Z</time></trkpt><trkpt lat="44.7527633" lon="8.9271843"><ele>388.0</ele><time>2026-03-21T13:33:14.132Z</time></trkpt><trkpt lat="44.7526157" lon="8.9270071"><ele>386.6666666666667</ele><time>2026-03-21T13:33:15.131Z</time></trkpt><trkpt lat="44.7524689" lon="8.9268405"><ele>385.33333333333337</ele><time>2026-03-21T13:33:16.131Z</time></trkpt><trkpt lat="44.7523246" lon="8.926683"><ele>384.0</ele><time>2026-03-21T13:33:17.132Z</time></trkpt><trkpt lat="44.7521788" lon="8.9265268"><ele>383.3333333333333</ele><time>2026-03-21T13:33:18.131Z</time></trkpt><trkpt lat="44.7520331" lon="8.9263702"><ele>382.66666666666663</ele><time>2026-03-21T13:33:19.132Z</time></trkpt><trkpt lat="44.7518952" lon="8.9261924"><ele>382.0</ele><time>2026-03-21T13:33:20.131Z</time></trkpt><trkpt lat="44.7517566" lon="8.9259961"><ele>386.0</ele><time>2026-03-21T13:33:21.131Z</time></trkpt><trkpt lat="44.7516186" lon="8.9257885"><ele>390.0</ele><time>2026-03-21T13:33:22.131Z</time></trkpt><trkpt lat="44.751482" lon="8.9255905"><ele>394.0</ele><time>2026-03-21T13:33:23.131Z</time></trkpt><trkpt lat="44.7513456" lon="8.9254072"><ele>394.0</ele><time>2026-03-21T13:33:24.132Z</time></trkpt><trkpt lat="44.7512015" lon="8.9252383"><ele>394.0</ele><time>2026-03-21T13:33:25.132Z</time></trkpt><trkpt lat="44.7510466" lon="8.9250864"><ele>394.0</ele><time>2026-03-21T13:33:26.131Z</time></trkpt><trkpt lat="44.750884" lon="8.9249605"><ele>391.6666666666667</ele><time>2026-03-21T13:33:27.132Z</time></trkpt><trkpt lat="44.7507268" lon="8.9248495"><ele>389.33333333333337</ele><time>2026-03-21T13:33:28.132Z</time></trkpt><trkpt lat="44.7505864" lon="8.9247522"><ele>387.0</ele><time>2026-03-21T13:33:29.131Z</time></trkpt><trkpt lat="44.7504688" lon="8.9246504"><ele>387.0</ele><time>2026-03-21T13:33:30.132Z</time></trkpt><trkpt lat="44.7503927" lon="8.9245606"><ele>387.0</ele><time>2026-03-21T13:33:31.131Z</time></trkpt><trkpt lat="44.7503305" lon="8.9244521"><ele>387.0</ele><time>2026-03-21T13:33:32.132Z</time></trkpt><trkpt lat="44.7502762" lon="8.9243078"><ele>387.0</ele><time>2026-03-21T13:33:33.131Z</time></trkpt><trkpt lat="44.750229" lon="8.9241448"><ele>387.0</ele><time>2026-03-21T13:33:34.131Z</time></trkpt><trkpt lat="44.7501756" lon="8.9239601"><ele>385.3333333333333</ele><time>2026-03-21T13:33:35.132Z</time></trkpt><trkpt lat="44.750131" lon="8.9237488"><ele>383.66666666666663</ele><time>2026-03-21T13:33:36.132Z</time></trkpt><trkpt lat="44.7501057" lon="8.9235323"><ele>382.0</ele><time>2026-03-21T13:33:37.131Z</time></trkpt><trkpt lat="44.7501012" lon="8.9233047"><ele>381.3333333333333</ele><time>2026-03-21T13:33:38.131Z</time></trkpt><trkpt lat="44.7501093" lon="8.923084"><ele>380.6666666666667</ele><time>2026-03-21T13:33:39.131Z</time></trkpt><trkpt lat="44.7501117" lon="8.9228716"><ele>380.0</ele><time>2026-03-21T13:33:40.132Z</time></trkpt><trkpt lat="44.7501067" lon="8.922666"><ele>379.5</ele><time>2026-03-21T13:33:41.131Z</time></trkpt><trkpt lat="44.7500947" lon="8.9224709"><ele>379.0</ele><time>2026-03-21T13:33:42.131Z</time></trkpt><trkpt lat="44.7500864" lon="8.9222815"><ele>378.5</ele><time>2026-03-21T13:33:43.132Z</time></trkpt><trkpt lat="44.7500685" lon="8.9221046"><ele>378.0</ele><time>2026-03-21T13:33:44.132Z</time></trkpt><trkpt lat="44.7500415" lon="8.921943"><ele>378.0</ele><time>2026-03-21T13:33:45.131Z</time></trkpt><trkpt lat="44.7500119" lon="8.9217931"><ele>378.0</ele><time>2026-03-21T13:33:46.131Z</time></trkpt><trkpt lat="44.7499859" lon="8.9216475"><ele>378.0</ele><time>2026-03-21T13:33:47.131Z</time></trkpt><trkpt lat="44.7499613" lon="8.9215057"><ele>378.0</ele><time>2026-03-21T13:33:48.131Z</time></trkpt><trkpt lat="44.7499361" lon="8.9213662"><ele>378.0</ele><time>2026-03-21T13:33:49.131Z</time></trkpt><trkpt lat="44.7499147" lon="8.9212248"><ele>377.59999999999997</ele><time>2026-03-21T13:33:50.131Z</time></trkpt><trkpt lat="44.749896" lon="8.9210893"><ele>377.2</ele><time>2026-03-21T13:33:51.132Z</time></trkpt><trkpt lat="44.7498731" lon="8.9209587"><ele>376.8</ele><time>2026-03-21T13:33:52.132Z</time></trkpt><trkpt lat="44.7498499" lon="8.9208244"><ele>376.4</ele><time>2026-03-21T13:33:53.132Z</time></trkpt><trkpt lat="44.7498279" lon="8.9206911"><ele>376.0</ele><time>2026-03-21T13:33:54.132Z</time></trkpt><trkpt lat="44.7498067" lon="8.9205623"><ele>376.0</ele><time>2026-03-21T13:33:55.132Z</time></trkpt><trkpt lat="44.7497875" lon="8.9204342"><ele>376.0</ele><time>2026-03-21T13:33:56.131Z</time></trkpt><trkpt lat="44.7497691" lon="8.920315"><ele>376.0</ele><time>2026-03-21T13:33:57.132Z</time></trkpt><trkpt lat="44.7497514" lon="8.9202001"><ele>376.0</ele><time>2026-03-21T13:33:58.132Z</time></trkpt><trkpt lat="44.7497362" lon="8.9200909"><ele>376.0</ele><time>2026-03-21T13:33:59.132Z</time></trkpt><trkpt lat="44.7497122" lon="8.9199852"><ele>376.0</ele><time>2026-03-21T13:34:00.131Z</time></trkpt><trkpt lat="44.749686" lon="8.9198836"><ele>375.85714285714283</ele><time>2026-03-21T13:34:01.132Z</time></trkpt><trkpt lat="44.7496607" lon="8.919788"><ele>375.71428571428567</ele><time>2026-03-21T13:34:02.131Z</time></trkpt><trkpt lat="44.7496384" lon="8.9196889"><ele>375.57142857142856</ele><time>2026-03-21T13:34:03.131Z</time></trkpt><trkpt lat="44.7496177" lon="8.9195828"><ele>375.42857142857144</ele><time>2026-03-21T13:34:04.131Z</time></trkpt><trkpt lat="44.749591" lon="8.9194867"><ele>375.2857142857143</ele><time>2026-03-21T13:34:05.132Z</time></trkpt><trkpt lat="44.7495656" lon="8.9193925"><ele>375.14285714285717</ele><time>2026-03-21T13:34:06.131Z</time></trkpt><trkpt lat="44.7495429" lon="8.9193017"><ele>375.0</ele><time>2026-03-21T13:34:07.131Z</time></trkpt><trkpt lat="44.7495145" lon="8.9192157"><ele>374.2857142857143</ele><time>2026-03-21T13:34:08.131Z</time></trkpt><trkpt lat="44.7494922" lon="8.9191274"><ele>373.57142857142856</ele><time>2026-03-21T13:34:09.131Z</time></trkpt><trkpt lat="44.7494602" lon="8.9190412"><ele>372.85714285714283</ele><time>2026-03-21T13:34:10.131Z</time></trkpt><trkpt lat="44.7494405" lon="8.9189521"><ele>372.1428571428571</ele><time>2026-03-21T13:34:11.131Z</time></trkpt><trkpt lat="44.7494228" lon="8.9188658"><ele>371.42857142857144</ele><time>2026-03-21T13:34:12.131Z</time></trkpt><trkpt lat="44.7493981" lon="8.9187621"><ele>370.71428571428567</ele><time>2026-03-21T13:34:13.131Z</time></trkpt><trkpt lat="44.7493683" lon="8.91864"><ele>370.0</ele><time>2026-03-21T13:34:14.131Z</time></trkpt><trkpt lat="44.7493678" lon="8.9185358"><ele>369.6</ele><time>2026-03-21T13:34:15.132Z</time></trkpt><trkpt lat="44.7493634" lon="8.9184396"><ele>369.2</ele><time>2026-03-21T13:34:16.132Z</time></trkpt><trkpt lat="44.7493375" lon="8.9182892"><ele>368.79999999999995</ele><time>2026-03-21T13:34:18.131Z</time></trkpt><trkpt lat="44.7492774" lon="8.9181813"><ele>368.4</ele><time>2026-03-21T13:34:20.131Z</time></trkpt><trkpt lat="44.7492021" lon="8.9180893"><ele>368.0</ele><time>2026-03-21T13:34:22.131Z</time></trkpt><trkpt lat="44.7491151" lon="8.9179906"><ele>369.0</ele><time>2026-03-21T13:34:24.131Z</time></trkpt><trkpt lat="44.7490289" lon="8.917878"><ele>370.0</ele><time>2026-03-21T13:34:26.131Z</time></trkpt><trkpt lat="44.748985" lon="8.9177291"><ele>371.0</ele><time>2026-03-21T13:34:28.132Z</time></trkpt><trkpt lat="44.748971" lon="8.9175571"><ele>372.0</ele><time>2026-03-21T13:34:30.132Z</time></trkpt><trkpt lat="44.7489622" lon="8.9174674"><ele>373.0</ele><time>2026-03-21T13:34:31.132Z</time></trkpt><trkpt lat="44.7489455" lon="8.9173699"><ele>373.0</ele><time>2026-03-21T13:34:32.132Z</time></trkpt><trkpt lat="44.7489216" lon="8.9172834"><ele>373.0</ele><time>2026-03-21T13:34:33.131Z</time></trkpt><trkpt lat="44.7488977" lon="8.9171963"><ele>373.0</ele><time>2026-03-21T13:34:34.132Z</time></trkpt><trkpt lat="44.7488658" lon="8.9170238"><ele>373.0</ele><time>2026-03-21T13:34:36.131Z</time></trkpt><trkpt lat="44.7488449" lon="8.9169392"><ele>373.0</ele><time>2026-03-21T13:34:37.132Z</time></trkpt><trkpt lat="44.7488098" lon="8.9167803"><ele>373.0</ele><time>2026-03-21T13:34:39.132Z</time></trkpt><trkpt lat="44.7487746" lon="8.9166076"><ele>371.66666666666663</ele><time>2026-03-21T13:34:41.132Z</time></trkpt><trkpt lat="44.7487613" lon="8.9165155"><ele>370.3333333333333</ele><time>2026-03-21T13:34:42.131Z</time></trkpt><trkpt lat="44.7487508" lon="8.9163893"><ele>369.0</ele><time>2026-03-21T13:34:43.132Z</time></trkpt><trkpt lat="44.7487457" lon="8.9162635"><ele>367.6666666666667</ele><time>2026-03-21T13:34:44.132Z</time></trkpt><trkpt lat="44.7487438" lon="8.916144"><ele>366.33333333333337</ele><time>2026-03-21T13:34:45.131Z</time></trkpt><trkpt lat="44.7487377" lon="8.9160285"><ele>365.0</ele><time>2026-03-21T13:34:46.132Z</time></trkpt><trkpt lat="44.7487363" lon="8.9159034"><ele>364.0</ele><time>2026-03-21T13:34:47.131Z</time></trkpt><trkpt lat="44.7487352" lon="8.9157655"><ele>363.0</ele><time>2026-03-21T13:34:48.131Z</time></trkpt><trkpt lat="44.7487305" lon="8.9156235"><ele>362.0</ele><time>2026-03-21T13:34:49.132Z</time></trkpt><trkpt lat="44.7487242" lon="8.9154754"><ele>361.0</ele><time>2026-03-21T13:34:50.131Z</time></trkpt><trkpt lat="44.7487145" lon="8.9153312"><ele>360.0</ele><time>2026-03-21T13:34:51.131Z</time></trkpt><trkpt lat="44.7486977" lon="8.9151877"><ele>358.4</ele><time>2026-03-21T13:34:52.132Z</time></trkpt><trkpt lat="44.7486706" lon="8.9150573"><ele>356.8</ele><time>2026-03-21T13:34:53.132Z</time></trkpt><trkpt lat="44.7486385" lon="8.9149381"><ele>355.20000000000005</ele><time>2026-03-21T13:34:54.132Z</time></trkpt><trkpt lat="44.7486018" lon="8.9148291"><ele>353.6</ele><time>2026-03-21T13:34:55.131Z</time></trkpt><trkpt lat="44.7485796" lon="8.914709"><ele>352.0</ele><time>2026-03-21T13:34:56.131Z</time></trkpt><trkpt lat="44.7485704" lon="8.914575"><ele>352.0</ele><time>2026-03-21T13:34:57.132Z</time></trkpt><trkpt lat="44.7485679" lon="8.9144319"><ele>352.0</ele><time>2026-03-21T13:34:58.132Z</time></trkpt><trkpt lat="44.7485563" lon="8.9142852"><ele>352.0</ele><time>2026-03-21T13:34:59.132Z</time></trkpt><trkpt lat="44.7485454" lon="8.9141407"><ele>352.0</ele><time>2026-03-21T13:35:00.132Z</time></trkpt><trkpt lat="44.7485315" lon="8.9139628"><ele>352.0</ele><time>2026-03-21T13:35:01.131Z</time></trkpt><trkpt lat="44.7485226" lon="8.9138016"><ele>355.20000000000005</ele><time>2026-03-21T13:35:02.131Z</time></trkpt><trkpt lat="44.7485121" lon="8.9136471"><ele>358.4</ele><time>2026-03-21T13:35:03.131Z</time></trkpt><trkpt lat="44.7485058" lon="8.9134936"><ele>361.6</ele><time>2026-03-21T13:35:04.131Z</time></trkpt><trkpt lat="44.7485028" lon="8.9133402"><ele>364.79999999999995</ele><time>2026-03-21T13:35:05.132Z</time></trkpt><trkpt lat="44.7485085" lon="8.9131902"><ele>368.0</ele><time>2026-03-21T13:35:06.131Z</time></trkpt><trkpt lat="44.748512" lon="8.9130455"><ele>368.0</ele><time>2026-03-21T13:35:07.132Z</time></trkpt><trkpt lat="44.7485057" lon="8.912898"><ele>368.0</ele><time>2026-03-21T13:35:08.132Z</time></trkpt><trkpt lat="44.7484816" lon="8.9127451"><ele>368.0</ele><time>2026-03-21T13:35:09.131Z</time></trkpt><trkpt lat="44.7484355" lon="8.9125976"><ele>368.0</ele><time>2026-03-21T13:35:10.132Z</time></trkpt><trkpt lat="44.7483865" lon="8.9124539"><ele>368.0</ele><time>2026-03-21T13:35:11.132Z</time></trkpt><trkpt lat="44.7483306" lon="8.9122982"><ele>366.75</ele><time>2026-03-21T13:35:12.131Z</time></trkpt><trkpt lat="44.7482736" lon="8.9121369"><ele>365.5</ele><time>2026-03-21T13:35:13.132Z</time></trkpt><trkpt lat="44.7482164" lon="8.9119677"><ele>364.25</ele><time>2026-03-21T13:35:14.132Z</time></trkpt><trkpt lat="44.7481591" lon="8.9117984"><ele>363.0</ele><time>2026-03-21T13:35:15.131Z</time></trkpt><trkpt lat="44.7480945" lon="8.9116226"><ele>359.5</ele><time>2026-03-21T13:35:16.132Z</time></trkpt><trkpt lat="44.7480339" lon="8.9114465"><ele>356.0</ele><time>2026-03-21T13:35:17.132Z</time></trkpt><trkpt lat="44.7479724" lon="8.9112786"><ele>352.5</ele><time>2026-03-21T13:35:18.131Z</time></trkpt><trkpt lat="44.7479118" lon="8.9111181"><ele>349.0</ele><time>2026-03-21T13:35:19.131Z</time></trkpt><trkpt lat="44.7478591" lon="8.9109637"><ele>349.6</ele><time>2026-03-21T13:35:20.132Z</time></trkpt><trkpt lat="44.7478137" lon="8.9108164"><ele>350.2</ele><time>2026-03-21T13:35:21.132Z</time></trkpt><trkpt lat="44.7477679" lon="8.9106765"><ele>350.8</ele><time>2026-03-21T13:35:22.132Z</time></trkpt><trkpt lat="44.7477243" lon="8.910534"><ele>351.40000000000003</ele><time>2026-03-21T13:35:23.132Z</time></trkpt><trkpt lat="44.7476792" lon="8.9103937"><ele>352.0</ele><time>2026-03-21T13:35:24.132Z</time></trkpt><trkpt lat="44.7476339" lon="8.9102469"><ele>352.0</ele><time>2026-03-21T13:35:25.132Z</time></trkpt><trkpt lat="44.7475856" lon="8.9100991"><ele>352.0</ele><time>2026-03-21T13:35:26.131Z</time></trkpt><trkpt lat="44.7475245" lon="8.9099666"><ele>352.0</ele><time>2026-03-21T13:35:27.131Z</time></trkpt><trkpt lat="44.7474416" lon="8.9098529"><ele>352.0</ele><time>2026-03-21T13:35:28.131Z</time></trkpt><trkpt lat="44.7473199" lon="8.909775"><ele>350.3333333333333</ele><time>2026-03-21T13:35:29.132Z</time></trkpt><trkpt lat="44.7471652" lon="8.9097295"><ele>348.6666666666667</ele><time>2026-03-21T13:35:30.132Z</time></trkpt><trkpt lat="44.746977" lon="8.9096949"><ele>347.0</ele><time>2026-03-21T13:35:31.131Z</time></trkpt><trkpt lat="44.7467552" lon="8.9096649"><ele>343.0</ele><time>2026-03-21T13:35:32.131Z</time></trkpt><trkpt lat="44.7465444" lon="8.9096425"><ele>339.0</ele><time>2026-03-21T13:35:33.132Z</time></trkpt><trkpt lat="44.7463477" lon="8.9096215"><ele>335.0</ele><time>2026-03-21T13:35:34.132Z</time></trkpt><trkpt lat="44.7461597" lon="8.909596"><ele>329.6666666666667</ele><time>2026-03-21T13:35:35.131Z</time></trkpt><trkpt lat="44.7459864" lon="8.9095463"><ele>324.3333333333333</ele><time>2026-03-21T13:35:36.131Z</time></trkpt><trkpt lat="44.7458347" lon="8.9094662"><ele>319.0</ele><time>2026-03-21T13:35:37.131Z</time></trkpt><trkpt lat="44.7457086" lon="8.9093517"><ele>323.3333333333333</ele><time>2026-03-21T13:35:38.132Z</time></trkpt><trkpt lat="44.7455923" lon="8.909192"><ele>327.6666666666667</ele><time>2026-03-21T13:35:39.131Z</time></trkpt><trkpt lat="44.7454795" lon="8.9089958"><ele>332.0</ele><time>2026-03-21T13:35:40.131Z</time></trkpt><trkpt lat="44.7453724" lon="8.9087908"><ele>332.0</ele><time>2026-03-21T13:35:41.132Z</time></trkpt><trkpt lat="44.7452699" lon="8.9085962"><ele>332.0</ele><time>2026-03-21T13:35:42.132Z</time></trkpt><trkpt lat="44.745184" lon="8.9084189"><ele>332.0</ele><time>2026-03-21T13:35:43.131Z</time></trkpt><trkpt lat="44.745125" lon="8.9082663"><ele>332.0</ele><time>2026-03-21T13:35:44.132Z</time></trkpt><trkpt lat="44.7451006" lon="8.9081267"><ele>331.0</ele><time>2026-03-21T13:35:45.131Z</time></trkpt><trkpt lat="44.7451202" lon="8.9079747"><ele>330.0</ele><time>2026-03-21T13:35:46.131Z</time></trkpt><trkpt lat="44.7451703" lon="8.9077969"><ele>329.0</ele><time>2026-03-21T13:35:47.132Z</time></trkpt><trkpt lat="44.7452193" lon="8.9076325"><ele>328.0</ele><time>2026-03-21T13:35:48.131Z</time></trkpt><trkpt lat="44.7452564" lon="8.9074817"><ele>328.0</ele><time>2026-03-21T13:35:49.131Z</time></trkpt><trkpt lat="44.7452589" lon="8.9073338"><ele>328.0</ele><time>2026-03-21T13:35:50.132Z</time></trkpt><trkpt lat="44.7452216" lon="8.9071895"><ele>328.0</ele><time>2026-03-21T13:35:51.132Z</time></trkpt><trkpt lat="44.745144" lon="8.9070645"><ele>328.0</ele><time>2026-03-21T13:35:52.131Z</time></trkpt><trkpt lat="44.7450365" lon="8.9069714"><ele>322.75</ele><time>2026-03-21T13:35:53.131Z</time></trkpt><trkpt lat="44.7449296" lon="8.90689"><ele>317.5</ele><time>2026-03-21T13:35:54.131Z</time></trkpt><trkpt lat="44.7448302" lon="8.9067569"><ele>312.25</ele><time>2026-03-21T13:35:55.132Z</time></trkpt><trkpt lat="44.7447427" lon="8.9065869"><ele>307.0</ele><time>2026-03-21T13:35:56.131Z</time></trkpt><trkpt lat="44.7446146" lon="8.906366"><ele>307.0</ele><time>2026-03-21T13:35:57.131Z</time></trkpt><trkpt lat="44.7444336" lon="8.9061476"><ele>307.0</ele><time>2026-03-21T13:35:58.131Z</time></trkpt><trkpt lat="44.7442629" lon="8.9059267"><ele>301.66666666666663</ele><time>2026-03-21T13:35:59.132Z</time></trkpt><trkpt lat="44.7441096" lon="8.9057231"><ele>296.3333333333333</ele><time>2026-03-21T13:36:00.132Z</time></trkpt><trkpt lat="44.7439589" lon="8.9055398"><ele>291.0</ele><time>2026-03-21T13:36:01.132Z</time></trkpt><trkpt lat="44.7438044" lon="8.9053969"><ele>291.0</ele><time>2026-03-21T13:36:02.131Z</time></trkpt><trkpt lat="44.7436565" lon="8.9052701"><ele>291.0</ele><time>2026-03-21T13:36:03.132Z</time></trkpt><trkpt lat="44.743507" lon="8.9051635"><ele>291.0</ele><time>2026-03-21T13:36:04.132Z</time></trkpt><trkpt lat="44.7433452" lon="8.9050994"><ele>290.6666666666667</ele><time>2026-03-21T13:36:05.131Z</time></trkpt><trkpt lat="44.7431704" lon="8.9050619"><ele>290.33333333333337</ele><time>2026-03-21T13:36:06.132Z</time></trkpt><trkpt lat="44.743008" lon="8.9050213"><ele>290.0</ele><time>2026-03-21T13:36:07.131Z</time></trkpt><trkpt lat="44.7428544" lon="8.9049751"><ele>290.0</ele><time>2026-03-21T13:36:08.132Z</time></trkpt><trkpt lat="44.7427183" lon="8.9048969"><ele>290.0</ele><time>2026-03-21T13:36:09.132Z</time></trkpt><trkpt lat="44.7426043" lon="8.9047703"><ele>290.0</ele><time>2026-03-21T13:36:10.132Z</time></trkpt><trkpt lat="44.7425052" lon="8.9045887"><ele>287.6666666666667</ele><time>2026-03-21T13:36:11.131Z</time></trkpt><trkpt lat="44.7424145" lon="8.9043767"><ele>285.3333333333333</ele><time>2026-03-21T13:36:12.132Z</time></trkpt><trkpt lat="44.7423074" lon="8.9041655"><ele>283.0</ele><time>2026-03-21T13:36:13.131Z</time></trkpt><trkpt lat="44.742201" lon="8.9039371"><ele>283.0</ele><time>2026-03-21T13:36:14.131Z</time></trkpt><trkpt lat="44.7421319" lon="8.9037001"><ele>283.0</ele><time>2026-03-21T13:36:15.131Z</time></trkpt><trkpt lat="44.7420899" lon="8.903461"><ele>283.0</ele><time>2026-03-21T13:36:16.131Z</time></trkpt><trkpt lat="44.7420739" lon="8.9032469"><ele>284.25</ele><time>2026-03-21T13:36:17.132Z</time></trkpt><trkpt lat="44.7420531" lon="8.9030558"><ele>285.5</ele><time>2026-03-21T13:36:18.132Z</time></trkpt><trkpt lat="44.7419986" lon="8.9028799"><ele>286.75</ele><time>2026-03-21T13:36:19.131Z</time></trkpt><trkpt lat="44.7419504" lon="8.902697"><ele>288.0</ele><time>2026-03-21T13:36:20.132Z</time></trkpt><trkpt lat="44.7417642" lon="8.9025365"><ele>281.6666666666667</ele><time>2026-03-21T13:36:21.131Z</time></trkpt><trkpt lat="44.7416153" lon="8.9023223"><ele>275.33333333333337</ele><time>2026-03-21T13:36:22.131Z</time></trkpt><trkpt lat="44.7414435" lon="8.9021373"><ele>269.0</ele><time>2026-03-21T13:36:23.132Z</time></trkpt><trkpt lat="44.7412471" lon="8.9019992"><ele>269.0</ele><time>2026-03-21T13:36:24.132Z</time></trkpt><trkpt lat="44.7410523" lon="8.901907"><ele>269.0</ele><time>2026-03-21T13:36:25.132Z</time></trkpt><trkpt lat="44.7408835" lon="8.9018162"><ele>269.0</ele><time>2026-03-21T13:36:26.131Z</time></trkpt><trkpt lat="44.7407421" lon="8.9016912"><ele>271.33333333333337</ele><time>2026-03-21T13:36:27.132Z</time></trkpt><trkpt lat="44.7406186" lon="8.9015494"><ele>273.6666666666667</ele><time>2026-03-21T13:36:28.131Z</time></trkpt><trkpt lat="44.7405073" lon="8.9013772"><ele>276.0</ele><time>2026-03-21T13:36:29.131Z</time></trkpt><trkpt lat="44.740409" lon="8.9011812"><ele>276.0</ele><time>2026-03-21T13:36:30.132Z</time></trkpt><trkpt lat="44.7402988" lon="8.9009711"><ele>276.0</ele><time>2026-03-21T13:36:31.131Z</time></trkpt><trkpt lat="44.7401772" lon="8.9007466"><ele>276.0</ele><time>2026-03-21T13:36:32.132Z</time></trkpt><trkpt lat="44.7400672" lon="8.9005008"><ele>275.0</ele><time>2026-03-21T13:36:33.131Z</time></trkpt><trkpt lat="44.7399684" lon="8.9002217"><ele>274.0</ele><time>2026-03-21T13:36:34.132Z</time></trkpt><trkpt lat="44.7398853" lon="8.8999179"><ele>274.0</ele><time>2026-03-21T13:36:35.132Z</time></trkpt><trkpt lat="44.739829" lon="8.8996319"><ele>274.0</ele><time>2026-03-21T13:36:36.132Z</time></trkpt><trkpt lat="44.7397842" lon="8.8993764"><ele>274.0</ele><time>2026-03-21T13:36:37.131Z</time></trkpt><trkpt lat="44.7397178" lon="8.8991538"><ele>273.66666666666663</ele><time>2026-03-21T13:36:38.132Z</time></trkpt><trkpt lat="44.7396197" lon="8.89897"><ele>273.3333333333333</ele><time>2026-03-21T13:36:39.131Z</time></trkpt><trkpt lat="44.7394814" lon="8.8988016"><ele>273.0</ele><time>2026-03-21T13:36:40.132Z</time></trkpt><trkpt lat="44.7393056" lon="8.8986391"><ele>270.0</ele><time>2026-03-21T13:36:41.131Z</time></trkpt><trkpt lat="44.7391434" lon="8.8984941"><ele>267.0</ele><time>2026-03-21T13:36:42.132Z</time></trkpt><trkpt lat="44.7390029" lon="8.8983384"><ele>264.0</ele><time>2026-03-21T13:36:43.131Z</time></trkpt><trkpt lat="44.7388729" lon="8.8981329"><ele>264.0</ele><time>2026-03-21T13:36:44.131Z</time></trkpt><trkpt lat="44.7387672" lon="8.8978858"><ele>264.0</ele><time>2026-03-21T13:36:45.131Z</time></trkpt><trkpt lat="44.7386671" lon="8.8976576"><ele>264.0</ele><time>2026-03-21T13:36:46.132Z</time></trkpt><trkpt lat="44.7385494" lon="8.8974756"><ele>260.0</ele><time>2026-03-21T13:36:47.131Z</time></trkpt><trkpt lat="44.7383909" lon="8.8972928"><ele>256.0</ele><time>2026-03-21T13:36:48.132Z</time></trkpt><trkpt lat="44.7381931" lon="8.8970939"><ele>252.0</ele><time>2026-03-21T13:36:49.132Z</time></trkpt><trkpt lat="44.737983" lon="8.896883"><ele>249.0</ele><time>2026-03-21T13:36:50.132Z</time></trkpt><trkpt lat="44.7377898" lon="8.8966784"><ele>246.0</ele><time>2026-03-21T13:36:51.132Z</time></trkpt><trkpt lat="44.7376009" lon="8.8964826"><ele>246.0</ele><time>2026-03-21T13:36:52.132Z</time></trkpt><trkpt lat="44.7374344" lon="8.8962872"><ele>246.0</ele><time>2026-03-21T13:36:53.132Z</time></trkpt><trkpt lat="44.7372862" lon="8.8960875"><ele>246.0</ele><time>2026-03-21T13:36:54.131Z</time></trkpt><trkpt lat="44.7371441" lon="8.8958657"><ele>244.0</ele><time>2026-03-21T13:36:55.131Z</time></trkpt><trkpt lat="44.7370095" lon="8.8956229"><ele>242.0</ele><time>2026-03-21T13:36:56.131Z</time></trkpt><trkpt lat="44.7368789" lon="8.8953561"><ele>240.0</ele><time>2026-03-21T13:36:57.131Z</time></trkpt><trkpt lat="44.7367562" lon="8.8950956"><ele>239.66666666666669</ele><time>2026-03-21T13:36:58.132Z</time></trkpt><trkpt lat="44.7366548" lon="8.8948722"><ele>239.33333333333334</ele><time>2026-03-21T13:36:59.131Z</time></trkpt><trkpt lat="44.7365786" lon="8.8946789"><ele>239.0</ele><time>2026-03-21T13:37:00.132Z</time></trkpt><trkpt lat="44.7365326" lon="8.8944885"><ele>239.0</ele><time>2026-03-21T13:37:01.132Z</time></trkpt><trkpt lat="44.736505" lon="8.8942853"><ele>239.0</ele><time>2026-03-21T13:37:02.131Z</time></trkpt><trkpt lat="44.7364955" lon="8.8940821"><ele>239.0</ele><time>2026-03-21T13:37:03.132Z</time></trkpt><trkpt lat="44.7365135" lon="8.8938812"><ele>239.0</ele><time>2026-03-21T13:37:04.132Z</time></trkpt><trkpt lat="44.7365611" lon="8.8936551"><ele>236.66666666666669</ele><time>2026-03-21T13:37:05.132Z</time></trkpt><trkpt lat="44.73662" lon="8.8933967"><ele>234.33333333333331</ele><time>2026-03-21T13:37:06.132Z</time></trkpt><trkpt lat="44.736686" lon="8.8931247"><ele>232.0</ele><time>2026-03-21T13:37:07.131Z</time></trkpt><trkpt lat="44.7367599" lon="8.8928459"><ele>231.0</ele><time>2026-03-21T13:37:08.131Z</time></trkpt><trkpt lat="44.7368607" lon="8.8925483"><ele>230.0</ele><time>2026-03-21T13:37:09.131Z</time></trkpt><trkpt lat="44.7369767" lon="8.8922403"><ele>232.0</ele><time>2026-03-21T13:37:10.131Z</time></trkpt><trkpt lat="44.7370851" lon="8.8919662"><ele>234.0</ele><time>2026-03-21T13:37:11.132Z</time></trkpt><trkpt lat="44.7371729" lon="8.8917255"><ele>236.0</ele><time>2026-03-21T13:37:12.131Z</time></trkpt><trkpt lat="44.7372305" lon="8.8915212"><ele>236.0</ele><time>2026-03-21T13:37:13.131Z</time></trkpt><trkpt lat="44.7372524" lon="8.8913046"><ele>236.0</ele><time>2026-03-21T13:37:14.131Z</time></trkpt><trkpt lat="44.7372333" lon="8.8910701"><ele>236.0</ele><time>2026-03-21T13:37:15.131Z</time></trkpt><trkpt lat="44.7371834" lon="8.8907993"><ele>235.5</ele><time>2026-03-21T13:37:16.131Z</time></trkpt><trkpt lat="44.7371252" lon="8.8904821"><ele>235.0</ele><time>2026-03-21T13:37:17.132Z</time></trkpt><trkpt lat="44.7370733" lon="8.8901476"><ele>234.5</ele><time>2026-03-21T13:37:18.132Z</time></trkpt><trkpt lat="44.7370228" lon="8.8898172"><ele>234.0</ele><time>2026-03-21T13:37:19.132Z</time></trkpt><trkpt lat="44.7369733" lon="8.8894927"><ele>234.0</ele><time>2026-03-21T13:37:20.132Z</time></trkpt><trkpt lat="44.7369216" lon="8.8891812"><ele>234.0</ele><time>2026-03-21T13:37:21.132Z</time></trkpt><trkpt lat="44.7368701" lon="8.8888862"><ele>234.0</ele><time>2026-03-21T13:37:22.131Z</time></trkpt><trkpt lat="44.7368127" lon="8.8886108"><ele>230.33333333333331</ele><time>2026-03-21T13:37:23.131Z</time></trkpt><trkpt lat="44.7367598" lon="8.8883495"><ele>226.66666666666666</ele><time>2026-03-21T13:37:24.131Z</time></trkpt><trkpt lat="44.7367168" lon="8.888101"><ele>223.0</ele><time>2026-03-21T13:37:25.131Z</time></trkpt><trkpt lat="44.7366918" lon="8.8878476"><ele>222.33333333333331</ele><time>2026-03-21T13:37:26.132Z</time></trkpt><trkpt lat="44.7366891" lon="8.8875905"><ele>221.66666666666669</ele><time>2026-03-21T13:37:27.132Z</time></trkpt><trkpt lat="44.7366939" lon="8.8873519"><ele>221.0</ele><time>2026-03-21T13:37:28.132Z</time></trkpt><trkpt lat="44.7366942" lon="8.8871255"><ele>221.0</ele><time>2026-03-21T13:37:29.131Z</time></trkpt><trkpt lat="44.7366838" lon="8.8869149"><ele>221.0</ele><time>2026-03-21T13:37:30.132Z</time></trkpt><trkpt lat="44.7366721" lon="8.8867141"><ele>221.0</ele><time>2026-03-21T13:37:31.132Z</time></trkpt><trkpt lat="44.736664" lon="8.8865316"><ele>221.0</ele><time>2026-03-21T13:37:32.131Z</time></trkpt><trkpt lat="44.7366579" lon="8.8863609"><ele>221.20000000000002</ele><time>2026-03-21T13:37:33.132Z</time></trkpt><trkpt lat="44.7366632" lon="8.8861984"><ele>221.40000000000003</ele><time>2026-03-21T13:37:34.131Z</time></trkpt><trkpt lat="44.7366658" lon="8.8860513"><ele>221.6</ele><time>2026-03-21T13:37:35.131Z</time></trkpt><trkpt lat="44.7366702" lon="8.8859211"><ele>221.8</ele><time>2026-03-21T13:37:36.132Z</time></trkpt><trkpt lat="44.736674" lon="8.8858077"><ele>222.0</ele><time>2026-03-21T13:37:37.132Z</time></trkpt><trkpt lat="44.7366804" lon="8.8857059"><ele>221.16666666666666</ele><time>2026-03-21T13:37:38.131Z</time></trkpt><trkpt lat="44.7366893" lon="8.8855433"><ele>220.33333333333331</ele><time>2026-03-21T13:37:40.132Z</time></trkpt><trkpt lat="44.7366697" lon="8.8854334"><ele>219.5</ele><time>2026-03-21T13:37:42.131Z</time></trkpt><trkpt lat="44.7366098" lon="8.8853779"><ele>218.66666666666666</ele><time>2026-03-21T13:37:44.131Z</time></trkpt><trkpt lat="44.7365423" lon="8.8853771"><ele>217.83333333333331</ele><time>2026-03-21T13:37:46.132Z</time></trkpt><trkpt lat="44.7364877" lon="8.8854362"><ele>217.0</ele><time>2026-03-21T13:38:07.132Z</time></trkpt><trkpt lat="44.7363689" lon="8.8854533"><ele>217.0</ele><time>2026-03-21T13:38:09.132Z</time></trkpt><trkpt lat="44.7363003" lon="8.8854076"><ele>217.0</ele><time>2026-03-21T13:38:10.132Z</time></trkpt><trkpt lat="44.7362374" lon="8.885322"><ele>217.0</ele><time>2026-03-21T13:38:11.131Z</time></trkpt><trkpt lat="44.7361893" lon="8.8852049"><ele>217.0</ele><time>2026-03-21T13:38:12.132Z</time></trkpt><trkpt lat="44.7361511" lon="8.8850539"><ele>217.0</ele><time>2026-03-21T13:38:13.131Z</time></trkpt><trkpt lat="44.7361131" lon="8.8848932"><ele>217.0</ele><time>2026-03-21T13:38:14.131Z</time></trkpt><trkpt lat="44.7360662" lon="8.8847197"><ele>217.0</ele><time>2026-03-21T13:38:15.131Z</time></trkpt><trkpt lat="44.7360121" lon="8.8845402"><ele>217.0</ele><time>2026-03-21T13:38:16.131Z</time></trkpt><trkpt lat="44.7359432" lon="8.884368"><ele>217.0</ele><time>2026-03-21T13:38:17.131Z</time></trkpt><trkpt lat="44.7358402" lon="8.8841905"><ele>216.66666666666666</ele><time>2026-03-21T13:38:18.131Z</time></trkpt><trkpt lat="44.7356943" lon="8.8840184"><ele>216.33333333333331</ele><time>2026-03-21T13:38:19.132Z</time></trkpt><trkpt lat="44.7355075" lon="8.8838392"><ele>216.0</ele><time>2026-03-21T13:38:20.132Z</time></trkpt><trkpt lat="44.735288" lon="8.8836376"><ele>214.5</ele><time>2026-03-21T13:38:21.132Z</time></trkpt><trkpt lat="44.7350415" lon="8.8833974"><ele>213.0</ele><time>2026-03-21T13:38:22.132Z</time></trkpt><trkpt lat="44.7347997" lon="8.883159"><ele>213.0</ele><time>2026-03-21T13:38:23.132Z</time></trkpt><trkpt lat="44.734579" lon="8.882939"><ele>213.0</ele><time>2026-03-21T13:38:24.132Z</time></trkpt><trkpt lat="44.7343712" lon="8.8827244"><ele>211.0</ele><time>2026-03-21T13:38:25.132Z</time></trkpt><trkpt lat="44.7341843" lon="8.8825122"><ele>209.0</ele><time>2026-03-21T13:38:26.131Z</time></trkpt><trkpt lat="44.7340242" lon="8.8822859"><ele>209.0</ele><time>2026-03-21T13:38:27.132Z</time></trkpt><trkpt lat="44.7338881" lon="8.8820568"><ele>209.0</ele><time>2026-03-21T13:38:28.132Z</time></trkpt><trkpt lat="44.7337781" lon="8.8818319"><ele>209.0</ele><time>2026-03-21T13:38:29.132Z</time></trkpt><trkpt lat="44.7336822" lon="8.8816134"><ele>209.33333333333334</ele><time>2026-03-21T13:38:30.132Z</time></trkpt><trkpt lat="44.7335817" lon="8.8814225"><ele>209.66666666666669</ele><time>2026-03-21T13:38:31.131Z</time></trkpt><trkpt lat="44.7334722" lon="8.8812732"><ele>210.0</ele><time>2026-03-21T13:38:32.132Z</time></trkpt><trkpt lat="44.7333603" lon="8.8811455"><ele>210.0</ele><time>2026-03-21T13:38:33.132Z</time></trkpt><trkpt lat="44.7332607" lon="8.8810254"><ele>210.0</ele><time>2026-03-21T13:38:34.132Z</time></trkpt><trkpt lat="44.7331744" lon="8.8808972"><ele>210.0</ele><time>2026-03-21T13:38:35.131Z</time></trkpt><trkpt lat="44.7331" lon="8.8807468"><ele>210.0</ele><time>2026-03-21T13:38:36.132Z</time></trkpt><trkpt lat="44.7330466" lon="8.8805561"><ele>210.0</ele><time>2026-03-21T13:38:37.132Z</time></trkpt><trkpt lat="44.7330112" lon="8.880328"><ele>210.0</ele><time>2026-03-21T13:38:38.132Z</time></trkpt><trkpt lat="44.7329866" lon="8.8800984"><ele>210.0</ele><time>2026-03-21T13:38:39.131Z</time></trkpt><trkpt lat="44.7329631" lon="8.8798809"><ele>210.0</ele><time>2026-03-21T13:38:40.132Z</time></trkpt><trkpt lat="44.7329315" lon="8.8796873"><ele>210.0</ele><time>2026-03-21T13:38:41.132Z</time></trkpt><trkpt lat="44.7328693" lon="8.8795179"><ele>210.0</ele><time>2026-03-21T13:38:42.132Z</time></trkpt><trkpt lat="44.7327781" lon="8.879377"><ele>210.0</ele><time>2026-03-21T13:38:43.132Z</time></trkpt><trkpt lat="44.7326663" lon="8.8792515"><ele>211.0</ele><time>2026-03-21T13:38:44.132Z</time></trkpt><trkpt lat="44.7325523" lon="8.8791008"><ele>212.0</ele><time>2026-03-21T13:38:45.131Z</time></trkpt><trkpt lat="44.732458" lon="8.878915"><ele>213.0</ele><time>2026-03-21T13:38:46.132Z</time></trkpt><trkpt lat="44.7323766" lon="8.8787056"><ele>213.0</ele><time>2026-03-21T13:38:47.132Z</time></trkpt><trkpt lat="44.7322973" lon="8.8784849"><ele>213.0</ele><time>2026-03-21T13:38:48.131Z</time></trkpt><trkpt lat="44.7322051" lon="8.8782625"><ele>213.0</ele><time>2026-03-21T13:38:49.132Z</time></trkpt><trkpt lat="44.7320904" lon="8.8780474"><ele>213.0</ele><time>2026-03-21T13:38:50.131Z</time></trkpt><trkpt lat="44.7319575" lon="8.877849"><ele>213.0</ele><time>2026-03-21T13:38:51.131Z</time></trkpt><trkpt lat="44.7318135" lon="8.8776738"><ele>213.0</ele><time>2026-03-21T13:38:52.132Z</time></trkpt><trkpt lat="44.7316646" lon="8.8775015"><ele>213.0</ele><time>2026-03-21T13:38:53.131Z</time></trkpt><trkpt lat="44.7315252" lon="8.8773192"><ele>213.0</ele><time>2026-03-21T13:38:54.131Z</time></trkpt><trkpt lat="44.7313993" lon="8.87713"><ele>213.0</ele><time>2026-03-21T13:38:55.132Z</time></trkpt><trkpt lat="44.7312923" lon="8.8769156"><ele>213.0</ele><time>2026-03-21T13:38:56.132Z</time></trkpt><trkpt lat="44.7311969" lon="8.8766992"><ele>213.0</ele><time>2026-03-21T13:38:57.132Z</time></trkpt><trkpt lat="44.7311085" lon="8.8764888"><ele>213.0</ele><time>2026-03-21T13:38:58.132Z</time></trkpt><trkpt lat="44.7310283" lon="8.876292"><ele>214.25</ele><time>2026-03-21T13:38:59.131Z</time></trkpt><trkpt lat="44.7309537" lon="8.8761017"><ele>215.5</ele><time>2026-03-21T13:39:00.131Z</time></trkpt><trkpt lat="44.7308862" lon="8.8759224"><ele>216.75</ele><time>2026-03-21T13:39:01.132Z</time></trkpt><trkpt lat="44.7308255" lon="8.8757558"><ele>218.0</ele><time>2026-03-21T13:39:02.131Z</time></trkpt><trkpt lat="44.7307682" lon="8.8755967"><ele>218.0</ele><time>2026-03-21T13:39:03.131Z</time></trkpt><trkpt lat="44.730717" lon="8.875445"><ele>218.0</ele><time>2026-03-21T13:39:04.131Z</time></trkpt><trkpt lat="44.7306711" lon="8.8752964"><ele>218.0</ele><time>2026-03-21T13:39:05.131Z</time></trkpt><trkpt lat="44.730626" lon="8.875146"><ele>218.0</ele><time>2026-03-21T13:39:06.132Z</time></trkpt><trkpt lat="44.7305803" lon="8.8749963"><ele>217.5</ele><time>2026-03-21T13:39:07.132Z</time></trkpt><trkpt lat="44.7305338" lon="8.8748494"><ele>217.0</ele><time>2026-03-21T13:39:08.131Z</time></trkpt><trkpt lat="44.7304901" lon="8.874698"><ele>216.5</ele><time>2026-03-21T13:39:09.131Z</time></trkpt><trkpt lat="44.7304436" lon="8.8745443"><ele>216.0</ele><time>2026-03-21T13:39:10.132Z</time></trkpt><trkpt lat="44.7303978" lon="8.8743921"><ele>216.25</ele><time>2026-03-21T13:39:11.131Z</time></trkpt><trkpt lat="44.7303508" lon="8.8742343"><ele>216.5</ele><time>2026-03-21T13:39:12.131Z</time></trkpt><trkpt lat="44.7303135" lon="8.8740774"><ele>216.75</ele><time>2026-03-21T13:39:13.132Z</time></trkpt><trkpt lat="44.7302711" lon="8.8739164"><ele>217.0</ele><time>2026-03-21T13:39:14.132Z</time></trkpt><trkpt lat="44.7302338" lon="8.8737493"><ele>217.25</ele><time>2026-03-21T13:39:15.132Z</time></trkpt><trkpt lat="44.7302006" lon="8.8735801"><ele>217.5</ele><time>2026-03-21T13:39:16.132Z</time></trkpt><trkpt lat="44.7301784" lon="8.8734004"><ele>217.75</ele><time>2026-03-21T13:39:17.132Z</time></trkpt><trkpt lat="44.7301556" lon="8.8732224"><ele>218.0</ele><time>2026-03-21T13:39:18.131Z</time></trkpt><trkpt lat="44.7301272" lon="8.8730426"><ele>218.0</ele><time>2026-03-21T13:39:19.132Z</time></trkpt><trkpt lat="44.7300977" lon="8.8728659"><ele>218.0</ele><time>2026-03-21T13:39:20.131Z</time></trkpt><trkpt lat="44.7300638" lon="8.8726817"><ele>218.0</ele><time>2026-03-21T13:39:21.132Z</time></trkpt><trkpt lat="44.7300146" lon="8.8725068"><ele>218.0</ele><time>2026-03-21T13:39:22.132Z</time></trkpt><trkpt lat="44.7299539" lon="8.8723362"><ele>218.0</ele><time>2026-03-21T13:39:23.132Z</time></trkpt><trkpt lat="44.7298767" lon="8.8721803"><ele>218.0</ele><time>2026-03-21T13:39:24.131Z</time></trkpt><trkpt lat="44.7297822" lon="8.8720432"><ele>218.0</ele><time>2026-03-21T13:39:25.132Z</time></trkpt><trkpt lat="44.7296763" lon="8.8719161"><ele>218.0</ele><time>2026-03-21T13:39:26.132Z</time></trkpt><trkpt lat="44.7295701" lon="8.8718093"><ele>218.2</ele><time>2026-03-21T13:39:27.131Z</time></trkpt><trkpt lat="44.7294781" lon="8.8717024"><ele>218.4</ele><time>2026-03-21T13:39:28.131Z</time></trkpt><trkpt lat="44.7294008" lon="8.8715968"><ele>218.59999999999997</ele><time>2026-03-21T13:39:29.131Z</time></trkpt><trkpt lat="44.729344" lon="8.8714724"><ele>218.79999999999998</ele><time>2026-03-21T13:39:30.131Z</time></trkpt><trkpt lat="44.7293136" lon="8.8713272"><ele>219.0</ele><time>2026-03-21T13:39:31.131Z</time></trkpt><trkpt lat="44.7292897" lon="8.8711684"><ele>219.0</ele><time>2026-03-21T13:39:32.131Z</time></trkpt><trkpt lat="44.7292708" lon="8.8710019"><ele>219.0</ele><time>2026-03-21T13:39:33.131Z</time></trkpt><trkpt lat="44.7292553" lon="8.8708245"><ele>219.0</ele><time>2026-03-21T13:39:34.132Z</time></trkpt><trkpt lat="44.7292376" lon="8.8706432"><ele>219.0</ele><time>2026-03-21T13:39:35.131Z</time></trkpt><trkpt lat="44.7292162" lon="8.8704595"><ele>218.5</ele><time>2026-03-21T13:39:36.131Z</time></trkpt><trkpt lat="44.7291927" lon="8.8702791"><ele>218.0</ele><time>2026-03-21T13:39:37.132Z</time></trkpt><trkpt lat="44.7291736" lon="8.8700973"><ele>217.5</ele><time>2026-03-21T13:39:38.131Z</time></trkpt><trkpt lat="44.7291592" lon="8.8699117"><ele>217.0</ele><time>2026-03-21T13:39:39.132Z</time></trkpt><trkpt lat="44.7291466" lon="8.8697297"><ele>217.0</ele><time>2026-03-21T13:39:40.131Z</time></trkpt><trkpt lat="44.7291354" lon="8.86955"><ele>217.0</ele><time>2026-03-21T13:39:41.131Z</time></trkpt><trkpt lat="44.7291205" lon="8.869373"><ele>217.0</ele><time>2026-03-21T13:39:42.131Z</time></trkpt><trkpt lat="44.7291048" lon="8.8692039"><ele>217.0</ele><time>2026-03-21T13:39:43.132Z</time></trkpt><trkpt lat="44.7290797" lon="8.8690488"><ele>216.0</ele><time>2026-03-21T13:39:44.132Z</time></trkpt><trkpt lat="44.7290328" lon="8.8688993"><ele>215.0</ele><time>2026-03-21T13:39:45.131Z</time></trkpt><trkpt lat="44.7289607" lon="8.8687613"><ele>214.0</ele><time>2026-03-21T13:39:46.132Z</time></trkpt><trkpt lat="44.7288917" lon="8.8686323"><ele>213.0</ele><time>2026-03-21T13:39:47.131Z</time></trkpt><trkpt lat="44.7287809" lon="8.8685211"><ele>213.0</ele><time>2026-03-21T13:39:48.132Z</time></trkpt><trkpt lat="44.7286772" lon="8.8684203"><ele>213.0</ele><time>2026-03-21T13:39:49.131Z</time></trkpt><trkpt lat="44.7285568" lon="8.8683418"><ele>213.0</ele><time>2026-03-21T13:39:50.132Z</time></trkpt><trkpt lat="44.7284268" lon="8.8682775"><ele>213.0</ele><time>2026-03-21T13:39:51.132Z</time></trkpt><trkpt lat="44.7282942" lon="8.8682229"><ele>214.0</ele><time>2026-03-21T13:39:52.131Z</time></trkpt><trkpt lat="44.7281589" lon="8.868181"><ele>215.0</ele><time>2026-03-21T13:39:53.131Z</time></trkpt><trkpt lat="44.7280316" lon="8.8681393"><ele>216.0</ele><time>2026-03-21T13:39:54.132Z</time></trkpt><trkpt lat="44.7279009" lon="8.868113"><ele>217.0</ele><time>2026-03-21T13:39:55.131Z</time></trkpt><trkpt lat="44.7277771" lon="8.8680846"><ele>218.0</ele><time>2026-03-21T13:39:56.131Z</time></trkpt><trkpt lat="44.7276559" lon="8.8680695"><ele>219.0</ele><time>2026-03-21T13:39:57.131Z</time></trkpt><trkpt lat="44.7275334" lon="8.8680643"><ele>220.0</ele><time>2026-03-21T13:39:58.132Z</time></trkpt><trkpt lat="44.7274085" lon="8.8680587"><ele>221.0</ele><time>2026-03-21T13:39:59.132Z</time></trkpt><trkpt lat="44.7272867" lon="8.8680558"><ele>221.0</ele><time>2026-03-21T13:40:00.132Z</time></trkpt><trkpt lat="44.7271694" lon="8.8680532"><ele>221.0</ele><time>2026-03-21T13:40:01.131Z</time></trkpt><trkpt lat="44.7270496" lon="8.8680591"><ele>221.0</ele><time>2026-03-21T13:40:02.131Z</time></trkpt><trkpt lat="44.7269305" lon="8.8680557"><ele>221.0</ele><time>2026-03-21T13:40:03.132Z</time></trkpt><trkpt lat="44.7268065" lon="8.8680541"><ele>222.5</ele><time>2026-03-21T13:40:04.131Z</time></trkpt><trkpt lat="44.7266823" lon="8.8680598"><ele>224.0</ele><time>2026-03-21T13:40:05.132Z</time></trkpt><trkpt lat="44.7265558" lon="8.8680721"><ele>225.5</ele><time>2026-03-21T13:40:06.131Z</time></trkpt><trkpt lat="44.7264278" lon="8.8680866"><ele>227.0</ele><time>2026-03-21T13:40:07.132Z</time></trkpt><trkpt lat="44.7262953" lon="8.8681019"><ele>227.0</ele><time>2026-03-21T13:40:08.131Z</time></trkpt><trkpt lat="44.7261653" lon="8.8681228"><ele>227.0</ele><time>2026-03-21T13:40:09.131Z</time></trkpt><trkpt lat="44.7260316" lon="8.8681444"><ele>227.0</ele><time>2026-03-21T13:40:10.132Z</time></trkpt><trkpt lat="44.7258974" lon="8.8681602"><ele>227.0</ele><time>2026-03-21T13:40:11.132Z</time></trkpt><trkpt lat="44.7257612" lon="8.8681814"><ele>227.0</ele><time>2026-03-21T13:40:12.132Z</time></trkpt><trkpt lat="44.7256252" lon="8.8681975"><ele>227.0</ele><time>2026-03-21T13:40:13.132Z</time></trkpt><trkpt lat="44.725484" lon="8.8682173"><ele>227.0</ele><time>2026-03-21T13:40:14.132Z</time></trkpt><trkpt lat="44.7253443" lon="8.8682336"><ele>227.0</ele><time>2026-03-21T13:40:15.132Z</time></trkpt><trkpt lat="44.7252101" lon="8.8682285"><ele>227.0</ele><time>2026-03-21T13:40:16.131Z</time></trkpt><trkpt lat="44.7250806" lon="8.8681872"><ele>227.0</ele><time>2026-03-21T13:40:17.132Z</time></trkpt><trkpt lat="44.7249649" lon="8.868107"><ele>227.0</ele><time>2026-03-21T13:40:18.131Z</time></trkpt><trkpt lat="44.724865" lon="8.8679984"><ele>227.0</ele><time>2026-03-21T13:40:19.132Z</time></trkpt><trkpt lat="44.7247701" lon="8.8678768"><ele>227.0</ele><time>2026-03-21T13:40:20.131Z</time></trkpt><trkpt lat="44.7246707" lon="8.8677577"><ele>227.0</ele><time>2026-03-21T13:40:21.131Z</time></trkpt><trkpt lat="44.7245687" lon="8.867655"><ele>227.0</ele><time>2026-03-21T13:40:22.131Z</time></trkpt><trkpt lat="44.7244652" lon="8.8675713"><ele>227.0</ele><time>2026-03-21T13:40:23.132Z</time></trkpt><trkpt lat="44.7243483" lon="8.8675105"><ele>225.75</ele><time>2026-03-21T13:40:24.132Z</time></trkpt><trkpt lat="44.7242276" lon="8.8674597"><ele>224.5</ele><time>2026-03-21T13:40:25.132Z</time></trkpt><trkpt lat="44.7241058" lon="8.8674161"><ele>223.25</ele><time>2026-03-21T13:40:26.132Z</time></trkpt><trkpt lat="44.7239768" lon="8.8673763"><ele>222.0</ele><time>2026-03-21T13:40:27.132Z</time></trkpt><trkpt lat="44.723845" lon="8.8673361"><ele>222.0</ele><time>2026-03-21T13:40:28.131Z</time></trkpt><trkpt lat="44.7237156" lon="8.8672937"><ele>222.0</ele><time>2026-03-21T13:40:29.132Z</time></trkpt><trkpt lat="44.7235909" lon="8.8672525"><ele>222.0</ele><time>2026-03-21T13:40:30.131Z</time></trkpt><trkpt lat="44.7234617" lon="8.8672159"><ele>222.0</ele><time>2026-03-21T13:40:31.131Z</time></trkpt><trkpt lat="44.7233348" lon="8.8671743"><ele>222.25</ele><time>2026-03-21T13:40:32.131Z</time></trkpt><trkpt lat="44.7232112" lon="8.8671279"><ele>222.5</ele><time>2026-03-21T13:40:33.131Z</time></trkpt><trkpt lat="44.7230928" lon="8.8670818"><ele>222.75</ele><time>2026-03-21T13:40:34.131Z</time></trkpt><trkpt lat="44.7229863" lon="8.867034"><ele>223.0</ele><time>2026-03-21T13:40:35.132Z</time></trkpt><trkpt lat="44.7228836" lon="8.8669621"><ele>223.0</ele><time>2026-03-21T13:40:36.132Z</time></trkpt><trkpt lat="44.7227952" lon="8.8668627"><ele>223.0</ele><time>2026-03-21T13:40:37.131Z</time></trkpt><trkpt lat="44.7227123" lon="8.8667427"><ele>223.0</ele><time>2026-03-21T13:40:38.132Z</time></trkpt><trkpt lat="44.7226364" lon="8.86661"><ele>223.0</ele><time>2026-03-21T13:40:39.131Z</time></trkpt><trkpt lat="44.7225621" lon="8.8664699"><ele>222.8</ele><time>2026-03-21T13:40:40.131Z</time></trkpt><trkpt lat="44.7224925" lon="8.8663225"><ele>222.60000000000002</ele><time>2026-03-21T13:40:41.131Z</time></trkpt><trkpt lat="44.7224377" lon="8.866183"><ele>222.39999999999998</ele><time>2026-03-21T13:40:42.131Z</time></trkpt><trkpt lat="44.7224149" lon="8.8660465"><ele>222.2</ele><time>2026-03-21T13:40:43.132Z</time></trkpt><trkpt lat="44.722421" lon="8.8659207"><ele>222.0</ele><time>2026-03-21T13:40:44.132Z</time></trkpt><trkpt lat="44.7223981" lon="8.8657931"><ele>221.75</ele><time>2026-03-21T13:40:45.132Z</time></trkpt><trkpt lat="44.7223386" lon="8.8656677"><ele>221.5</ele><time>2026-03-21T13:40:46.132Z</time></trkpt><trkpt lat="44.7222576" lon="8.8655415"><ele>221.25</ele><time>2026-03-21T13:40:47.131Z</time></trkpt><trkpt lat="44.7221673" lon="8.8654171"><ele>221.0</ele><time>2026-03-21T13:40:48.131Z</time></trkpt><trkpt lat="44.7220626" lon="8.8652877"><ele>221.0</ele><time>2026-03-21T13:40:49.132Z</time></trkpt><trkpt lat="44.7219487" lon="8.8651744"><ele>221.0</ele><time>2026-03-21T13:40:50.131Z</time></trkpt><trkpt lat="44.7218251" lon="8.8650605"><ele>221.0</ele><time>2026-03-21T13:40:51.132Z</time></trkpt><trkpt lat="44.7216946" lon="8.8649466"><ele>221.0</ele><time>2026-03-21T13:40:52.131Z</time></trkpt><trkpt lat="44.7215632" lon="8.8648298"><ele>221.0</ele><time>2026-03-21T13:40:53.131Z</time></trkpt><trkpt lat="44.7214313" lon="8.8647152"><ele>221.0</ele><time>2026-03-21T13:40:54.132Z</time></trkpt><trkpt lat="44.7212993" lon="8.8646054"><ele>221.0</ele><time>2026-03-21T13:40:55.132Z</time></trkpt><trkpt lat="44.7211755" lon="8.8644989"><ele>221.0</ele><time>2026-03-21T13:40:56.131Z</time></trkpt><trkpt lat="44.7210613" lon="8.8643956"><ele>221.0</ele><time>2026-03-21T13:40:57.132Z</time></trkpt><trkpt lat="44.7209466" lon="8.8643044"><ele>221.0</ele><time>2026-03-21T13:40:58.132Z</time></trkpt><trkpt lat="44.7208479" lon="8.8642133"><ele>221.0</ele><time>2026-03-21T13:40:59.132Z</time></trkpt><trkpt lat="44.7207492" lon="8.8641382"><ele>221.0</ele><time>2026-03-21T13:41:00.131Z</time></trkpt><trkpt lat="44.7206462" lon="8.8640824"><ele>221.00000000000003</ele><time>2026-03-21T13:41:01.131Z</time></trkpt><trkpt lat="44.7205427" lon="8.8640579"><ele>221.00000000000003</ele><time>2026-03-21T13:41:02.131Z</time></trkpt><trkpt lat="44.7204539" lon="8.8640364"><ele>221.0</ele><time>2026-03-21T13:41:03.131Z</time></trkpt><trkpt lat="44.7203819" lon="8.8639939"><ele>221.0</ele><time>2026-03-21T13:41:04.132Z</time></trkpt><trkpt lat="44.7203455" lon="8.8638993"><ele>221.0</ele><time>2026-03-21T13:41:05.132Z</time></trkpt><trkpt lat="44.7203367" lon="8.8637832"><ele>221.00000000000003</ele><time>2026-03-21T13:41:06.131Z</time></trkpt><trkpt lat="44.7203408" lon="8.8636491"><ele>221.00000000000003</ele><time>2026-03-21T13:41:07.132Z</time></trkpt><trkpt lat="44.7203406" lon="8.8635093"><ele>221.0</ele><time>2026-03-21T13:41:08.131Z</time></trkpt><trkpt lat="44.7203414" lon="8.8633552"><ele>221.0</ele><time>2026-03-21T13:41:09.131Z</time></trkpt><trkpt lat="44.7203392" lon="8.8632065"><ele>219.75</ele><time>2026-03-21T13:41:10.131Z</time></trkpt><trkpt lat="44.7203297" lon="8.8630355"><ele>218.5</ele><time>2026-03-21T13:41:11.132Z</time></trkpt><trkpt lat="44.72033" lon="8.8628724"><ele>217.25</ele><time>2026-03-21T13:41:12.132Z</time></trkpt><trkpt lat="44.7203222" lon="8.862684"><ele>216.0</ele><time>2026-03-21T13:41:13.132Z</time></trkpt><trkpt lat="44.7203141" lon="8.8624868"><ele>215.25</ele><time>2026-03-21T13:41:14.132Z</time></trkpt><trkpt lat="44.7203053" lon="8.8622936"><ele>214.5</ele><time>2026-03-21T13:41:15.131Z</time></trkpt><trkpt lat="44.7202913" lon="8.8620973"><ele>213.75</ele><time>2026-03-21T13:41:16.131Z</time></trkpt><trkpt lat="44.7202758" lon="8.8618969"><ele>213.0</ele><time>2026-03-21T13:41:17.132Z</time></trkpt><trkpt lat="44.7202559" lon="8.8617001"><ele>212.0</ele><time>2026-03-21T13:41:18.132Z</time></trkpt><trkpt lat="44.7202374" lon="8.8614953"><ele>211.0</ele><time>2026-03-21T13:41:19.132Z</time></trkpt><trkpt lat="44.7202189" lon="8.8612926"><ele>210.0</ele><time>2026-03-21T13:41:20.131Z</time></trkpt><trkpt lat="44.7202007" lon="8.8610868"><ele>209.0</ele><time>2026-03-21T13:41:21.132Z</time></trkpt><trkpt lat="44.7201826" lon="8.8608834"><ele>205.75</ele><time>2026-03-21T13:41:22.132Z</time></trkpt><trkpt lat="44.72017" lon="8.8607009"><ele>202.5</ele><time>2026-03-21T13:41:23.132Z</time></trkpt><trkpt lat="44.7201539" lon="8.8605318"><ele>199.25</ele><time>2026-03-21T13:41:24.131Z</time></trkpt><trkpt lat="44.7201405" lon="8.8603603"><ele>196.0</ele><time>2026-03-21T13:41:25.131Z</time></trkpt><trkpt lat="44.7201318" lon="8.8601891"><ele>197.0</ele><time>2026-03-21T13:41:26.131Z</time></trkpt><trkpt lat="44.7201276" lon="8.8600347"><ele>198.0</ele><time>2026-03-21T13:41:27.132Z</time></trkpt><trkpt lat="44.7201445" lon="8.8598996"><ele>199.0</ele><time>2026-03-21T13:41:28.131Z</time></trkpt><trkpt lat="44.7201861" lon="8.8597852"><ele>200.0</ele><time>2026-03-21T13:41:29.131Z</time></trkpt><trkpt lat="44.7202524" lon="8.859693"><ele>201.0</ele><time>2026-03-21T13:41:30.132Z</time></trkpt><trkpt lat="44.7203336" lon="8.8596359"><ele>201.0</ele><time>2026-03-21T13:41:31.131Z</time></trkpt><trkpt lat="44.7204121" lon="8.8595855"><ele>201.0</ele><time>2026-03-21T13:41:32.131Z</time></trkpt><trkpt lat="44.7204762" lon="8.8595713"><ele>201.0</ele><time>2026-03-21T13:41:33.131Z</time></trkpt><trkpt lat="44.7205394" lon="8.8595672"><ele>201.0</ele><time>2026-03-21T13:41:34.132Z</time></trkpt><trkpt lat="44.7206034" lon="8.8595626"><ele>201.0</ele><time>2026-03-21T13:41:35.131Z</time></trkpt><trkpt lat="44.7207185" lon="8.8595584"><ele>201.0</ele><time>2026-03-21T13:41:37.132Z</time></trkpt><trkpt lat="44.7208364" lon="8.8595514"><ele>201.0</ele><time>2026-03-21T13:41:39.131Z</time></trkpt><trkpt lat="44.7209026" lon="8.8595259"><ele>201.0</ele><time>2026-03-21T13:41:40.132Z</time></trkpt><trkpt lat="44.7209707" lon="8.8595174"><ele>201.0</ele><time>2026-03-21T13:41:41.131Z</time></trkpt><trkpt lat="44.7210428" lon="8.8595081"><ele>201.0</ele><time>2026-03-21T13:41:42.131Z</time></trkpt><trkpt lat="44.7211225" lon="8.8595073"><ele>201.0</ele><time>2026-03-21T13:41:43.131Z</time></trkpt><trkpt lat="44.721207" lon="8.8595136"><ele>201.0</ele><time>2026-03-21T13:41:44.131Z</time></trkpt><trkpt lat="44.7212919" lon="8.8595079"><ele>202.83333333333334</ele><time>2026-03-21T13:41:45.131Z</time></trkpt><trkpt lat="44.721378" lon="8.8595006"><ele>204.66666666666669</ele><time>2026-03-21T13:41:46.132Z</time></trkpt><trkpt lat="44.7214602" lon="8.8594955"><ele>206.5</ele><time>2026-03-21T13:41:47.132Z</time></trkpt><trkpt lat="44.7215457" lon="8.8594878"><ele>208.33333333333334</ele><time>2026-03-21T13:41:48.131Z</time></trkpt><trkpt lat="44.7216375" lon="8.8594847"><ele>210.16666666666669</ele><time>2026-03-21T13:41:49.131Z</time></trkpt><trkpt lat="44.7217309" lon="8.8594716"><ele>212.0</ele><time>2026-03-21T13:41:50.131Z</time></trkpt><trkpt lat="44.7218231" lon="8.8594482"><ele>212.16666666666669</ele><time>2026-03-21T13:41:51.131Z</time></trkpt><trkpt lat="44.7219152" lon="8.8594311"><ele>212.33333333333334</ele><time>2026-03-21T13:41:52.132Z</time></trkpt><trkpt lat="44.7220026" lon="8.8594114"><ele>212.5</ele><time>2026-03-21T13:41:53.132Z</time></trkpt><trkpt lat="44.7220878" lon="8.8593828"><ele>212.66666666666669</ele><time>2026-03-21T13:41:54.132Z</time></trkpt><trkpt lat="44.722169" lon="8.8593709"><ele>212.83333333333334</ele><time>2026-03-21T13:41:55.131Z</time></trkpt><trkpt lat="44.7222491" lon="8.8593655"><ele>213.0</ele><time>2026-03-21T13:41:56.132Z</time></trkpt><trkpt lat="44.722331" lon="8.8593707"><ele>213.0</ele><time>2026-03-21T13:41:57.131Z</time></trkpt><trkpt lat="44.7224222" lon="8.8593692"><ele>213.0</ele><time>2026-03-21T13:41:58.132Z</time></trkpt><trkpt lat="44.722515" lon="8.8593534"><ele>213.0</ele><time>2026-03-21T13:41:59.132Z</time></trkpt><trkpt lat="44.7226121" lon="8.8593313"><ele>213.0</ele><time>2026-03-21T13:42:00.132Z</time></trkpt><trkpt lat="44.7227121" lon="8.8593041"><ele>213.0</ele><time>2026-03-21T13:42:01.131Z</time></trkpt><trkpt lat="44.7228136" lon="8.8592886"><ele>214.0</ele><time>2026-03-21T13:42:02.132Z</time></trkpt><trkpt lat="44.722906" lon="8.8592747"><ele>215.0</ele><time>2026-03-21T13:42:03.131Z</time></trkpt><trkpt lat="44.7230012" lon="8.8592547"><ele>216.0</ele><time>2026-03-21T13:42:04.131Z</time></trkpt><trkpt lat="44.7230912" lon="8.8592448"><ele>217.0</ele><time>2026-03-21T13:42:05.132Z</time></trkpt><trkpt lat="44.7231874" lon="8.8592355"><ele>218.0</ele><time>2026-03-21T13:42:06.131Z</time></trkpt><trkpt lat="44.7232825" lon="8.859208"><ele>218.0</ele><time>2026-03-21T13:42:07.132Z</time></trkpt><trkpt lat="44.7233794" lon="8.8591713"><ele>218.0</ele><time>2026-03-21T13:42:08.132Z</time></trkpt><trkpt lat="44.7234746" lon="8.8591288"><ele>218.0</ele><time>2026-03-21T13:42:09.131Z</time></trkpt><trkpt lat="44.7235712" lon="8.8590803"><ele>218.0</ele><time>2026-03-21T13:42:10.132Z</time></trkpt><trkpt lat="44.7236699" lon="8.8590301"><ele>218.0</ele><time>2026-03-21T13:42:11.132Z</time></trkpt><trkpt lat="44.7237687" lon="8.8589749"><ele>218.2</ele><time>2026-03-21T13:42:12.131Z</time></trkpt><trkpt lat="44.7238678" lon="8.8589125"><ele>218.4</ele><time>2026-03-21T13:42:13.132Z</time></trkpt><trkpt lat="44.7239647" lon="8.8588528"><ele>218.59999999999997</ele><time>2026-03-21T13:42:14.132Z</time></trkpt><trkpt lat="44.7240699" lon="8.8587833"><ele>218.79999999999998</ele><time>2026-03-21T13:42:15.131Z</time></trkpt><trkpt lat="44.7241738" lon="8.8587152"><ele>219.0</ele><time>2026-03-21T13:42:16.132Z</time></trkpt><trkpt lat="44.7242807" lon="8.8586402"><ele>219.0</ele><time>2026-03-21T13:42:17.132Z</time></trkpt><trkpt lat="44.7243911" lon="8.8585619"><ele>219.0</ele><time>2026-03-21T13:42:18.131Z</time></trkpt><trkpt lat="44.7245034" lon="8.8584757"><ele>219.0</ele><time>2026-03-21T13:42:19.131Z</time></trkpt><trkpt lat="44.7246206" lon="8.8583751"><ele>219.0</ele><time>2026-03-21T13:42:20.131Z</time></trkpt><trkpt lat="44.7247384" lon="8.8582799"><ele>219.5</ele><time>2026-03-21T13:42:21.131Z</time></trkpt><trkpt lat="44.7248506" lon="8.858174"><ele>220.0</ele><time>2026-03-21T13:42:22.132Z</time></trkpt><trkpt lat="44.724957" lon="8.8580719"><ele>220.5</ele><time>2026-03-21T13:42:23.131Z</time></trkpt><trkpt lat="44.725071" lon="8.8579719"><ele>221.0</ele><time>2026-03-21T13:42:24.131Z</time></trkpt><trkpt lat="44.7251791" lon="8.8578567"><ele>220.25</ele><time>2026-03-21T13:42:25.132Z</time></trkpt><trkpt lat="44.7252909" lon="8.8577486"><ele>219.5</ele><time>2026-03-21T13:42:26.132Z</time></trkpt><trkpt lat="44.7254009" lon="8.8576359"><ele>218.75</ele><time>2026-03-21T13:42:27.132Z</time></trkpt><trkpt lat="44.7255102" lon="8.8575335"><ele>218.0</ele><time>2026-03-21T13:42:28.132Z</time></trkpt><trkpt lat="44.7256124" lon="8.8574351"><ele>218.0</ele><time>2026-03-21T13:42:29.132Z</time></trkpt><trkpt lat="44.7257098" lon="8.8573501"><ele>218.0</ele><time>2026-03-21T13:42:30.131Z</time></trkpt><trkpt lat="44.7258059" lon="8.8572743"><ele>218.0</ele><time>2026-03-21T13:42:31.131Z</time></trkpt><trkpt lat="44.7258967" lon="8.8572101"><ele>218.0</ele><time>2026-03-21T13:42:32.131Z</time></trkpt><trkpt lat="44.7259811" lon="8.8571394"><ele>218.0</ele><time>2026-03-21T13:42:33.132Z</time></trkpt><trkpt lat="44.7260618" lon="8.8570787"><ele>216.2</ele><time>2026-03-21T13:42:34.132Z</time></trkpt><trkpt lat="44.7261464" lon="8.8570211"><ele>214.4</ele><time>2026-03-21T13:42:35.131Z</time></trkpt><trkpt lat="44.7262383" lon="8.8569623"><ele>212.6</ele><time>2026-03-21T13:42:36.131Z</time></trkpt><trkpt lat="44.7263238" lon="8.8568963"><ele>210.79999999999998</ele><time>2026-03-21T13:42:37.131Z</time></trkpt><trkpt lat="44.7264153" lon="8.8568346"><ele>209.0</ele><time>2026-03-21T13:42:38.132Z</time></trkpt><trkpt lat="44.7265019" lon="8.8568009"><ele>209.00000000000003</ele><time>2026-03-21T13:42:39.132Z</time></trkpt><trkpt lat="44.7265723" lon="8.8567838"><ele>209.0</ele><time>2026-03-21T13:42:40.132Z</time></trkpt><trkpt lat="44.7266321" lon="8.8567243"><ele>209.0</ele><time>2026-03-21T13:42:42.131Z</time></trkpt><trkpt lat="44.7265637" lon="8.856734"><ele>209.0</ele><time>2026-03-21T13:42:45.131Z</time></trkpt><trkpt lat="44.726488" lon="8.8568333"><ele>209.00000000000003</ele><time>2026-03-21T13:42:47.132Z</time></trkpt><trkpt lat="44.7264162" lon="8.8569075"><ele>209.0</ele><time>2026-03-21T13:42:49.132Z</time></trkpt><trkpt lat="44.7263519" lon="8.856952"><ele>209.0</ele><time>2026-03-21T13:43:47.132Z</time></trkpt><trkpt lat="44.726286" lon="8.8569425"><ele>209.0</ele><time>2026-03-21T13:50:03.131Z</time></trkpt><trkpt lat="44.7262313" lon="8.8570228"><ele>209.0</ele><time>2026-03-21T13:50:08.132Z</time></trkpt><trkpt lat="44.7261517" lon="8.8570801"><ele>209.0</ele><time>2026-03-21T13:50:11.132Z</time></trkpt><trkpt lat="44.7260821" lon="8.8571024"><ele>209.0</ele><time>2026-03-21T13:51:01.132Z</time></trkpt><trkpt lat="44.7260155" lon="8.8570896"><ele>209.0</ele><time>2026-03-21T13:51:03.132Z</time></trkpt><trkpt lat="44.725958" lon="8.8570408"><ele>209.0</ele><time>2026-03-21T13:51:05.132Z</time></trkpt><trkpt lat="44.7259102" lon="8.8569744"><ele>210.16666666666669</ele><time>2026-03-21T13:51:07.131Z</time></trkpt><trkpt lat="44.7258801" lon="8.8568942"><ele>211.33333333333334</ele><time>2026-03-21T13:51:09.132Z</time></trkpt><trkpt lat="44.7259128" lon="8.8567673"><ele>212.5</ele><time>2026-03-21T13:51:11.132Z</time></trkpt><trkpt lat="44.7259934" lon="8.8566891"><ele>213.66666666666669</ele><time>2026-03-21T13:51:13.132Z</time></trkpt><trkpt lat="44.7260735" lon="8.8566369"><ele>214.83333333333334</ele><time>2026-03-21T13:51:15.131Z</time></trkpt><trkpt lat="44.7261484" lon="8.856579"><ele>216.0</ele><time>2026-03-21T13:51:17.132Z</time></trkpt><trkpt lat="44.7262153" lon="8.8565074"><ele>216.0</ele><time>2026-03-21T13:51:19.131Z</time></trkpt><trkpt lat="44.7262678" lon="8.8564122"><ele>216.00000000000003</ele><time>2026-03-21T13:51:21.131Z</time></trkpt><trkpt lat="44.7263189" lon="8.8563067"><ele>216.00000000000003</ele><time>2026-03-21T13:51:28.131Z</time></trkpt><trkpt lat="44.7264104" lon="8.8561981"><ele>216.0</ele><time>2026-03-21T13:51:30.132Z</time></trkpt><trkpt lat="44.7265214" lon="8.8560997"><ele>216.0</ele><time>2026-03-21T13:51:32.132Z</time></trkpt><trkpt lat="44.7265808" lon="8.8560461"><ele>216.0</ele><time>2026-03-21T13:51:33.131Z</time></trkpt><trkpt lat="44.7266424" lon="8.8559914"><ele>216.0</ele><time>2026-03-21T13:51:34.131Z</time></trkpt><trkpt lat="44.7267001" lon="8.8559292"><ele>216.0</ele><time>2026-03-21T13:51:35.132Z</time></trkpt><trkpt lat="44.7267491" lon="8.8558548"><ele>216.0</ele><time>2026-03-21T13:51:36.132Z</time></trkpt><trkpt lat="44.7267674" lon="8.8557591"><ele>216.0</ele><time>2026-03-21T13:51:37.132Z</time></trkpt><trkpt lat="44.726752" lon="8.8556684"><ele>216.0</ele><time>2026-03-21T13:51:38.132Z</time></trkpt><trkpt lat="44.7267217" lon="8.8555822"><ele>216.0</ele><time>2026-03-21T13:51:39.132Z</time></trkpt><trkpt lat="44.7266832" lon="8.8554819"><ele>217.0</ele><time>2026-03-21T13:51:40.131Z</time></trkpt><trkpt lat="44.7266509" lon="8.85539"><ele>218.0</ele><time>2026-03-21T13:51:41.132Z</time></trkpt><trkpt lat="44.7266209" lon="8.8553058"><ele>219.0</ele><time>2026-03-21T13:51:42.131Z</time></trkpt><trkpt lat="44.7265788" lon="8.8551804"><ele>220.0</ele><time>2026-03-21T13:51:44.131Z</time></trkpt><trkpt lat="44.7265762" lon="8.8550888"><ele>221.0</ele><time>2026-03-21T13:51:46.131Z</time></trkpt><trkpt lat="44.7266314" lon="8.855026"><ele>222.0</ele><time>2026-03-21T13:51:48.132Z</time></trkpt><trkpt lat="44.726716" lon="8.8549533"><ele>222.33333333333334</ele><time>2026-03-21T13:52:07.131Z</time></trkpt><trkpt lat="44.7268185" lon="8.8548709"><ele>222.66666666666669</ele><time>2026-03-21T13:52:09.132Z</time></trkpt><trkpt lat="44.7268776" lon="8.8548202"><ele>223.0</ele><time>2026-03-21T13:52:10.132Z</time></trkpt><trkpt lat="44.7269379" lon="8.8547542"><ele>223.33333333333334</ele><time>2026-03-21T13:52:11.132Z</time></trkpt><trkpt lat="44.7270064" lon="8.8547"><ele>223.66666666666669</ele><time>2026-03-21T13:52:12.132Z</time></trkpt><trkpt lat="44.7270794" lon="8.8546386"><ele>224.0</ele><time>2026-03-21T13:52:13.132Z</time></trkpt><trkpt lat="44.7271619" lon="8.8545743"><ele>223.2</ele><time>2026-03-21T13:52:14.131Z</time></trkpt><trkpt lat="44.7272477" lon="8.8545075"><ele>222.39999999999998</ele><time>2026-03-21T13:52:15.131Z</time></trkpt><trkpt lat="44.7273388" lon="8.8544365"><ele>221.6</ele><time>2026-03-21T13:52:16.132Z</time></trkpt><trkpt lat="44.7274251" lon="8.8543704"><ele>220.8</ele><time>2026-03-21T13:52:17.132Z</time></trkpt><trkpt lat="44.7275157" lon="8.8542942"><ele>220.0</ele><time>2026-03-21T13:52:18.131Z</time></trkpt><trkpt lat="44.7276068" lon="8.8542212"><ele>220.0</ele><time>2026-03-21T13:52:19.131Z</time></trkpt><trkpt lat="44.7276975" lon="8.8541427"><ele>220.0</ele><time>2026-03-21T13:52:20.131Z</time></trkpt><trkpt lat="44.7277976" lon="8.8540666"><ele>220.0</ele><time>2026-03-21T13:52:21.131Z</time></trkpt><trkpt lat="44.7278972" lon="8.8539843"><ele>220.0</ele><time>2026-03-21T13:52:22.131Z</time></trkpt><trkpt lat="44.7279982" lon="8.8539066"><ele>219.5</ele><time>2026-03-21T13:52:23.131Z</time></trkpt><trkpt lat="44.7281008" lon="8.8538237"><ele>219.0</ele><time>2026-03-21T13:52:24.132Z</time></trkpt><trkpt lat="44.7282088" lon="8.8537366"><ele>218.5</ele><time>2026-03-21T13:52:25.132Z</time></trkpt><trkpt lat="44.7283144" lon="8.8536437"><ele>218.0</ele><time>2026-03-21T13:52:26.132Z</time></trkpt><trkpt lat="44.7284184" lon="8.8535499"><ele>217.5</ele><time>2026-03-21T13:52:27.131Z</time></trkpt><trkpt lat="44.7285177" lon="8.8534477"><ele>217.0</ele><time>2026-03-21T13:52:28.131Z</time></trkpt><trkpt lat="44.7286143" lon="8.853345"><ele>216.5</ele><time>2026-03-21T13:52:29.131Z</time></trkpt><trkpt lat="44.7287063" lon="8.8532318"><ele>216.0</ele><time>2026-03-21T13:52:30.131Z</time></trkpt><trkpt lat="44.7287943" lon="8.8531079"><ele>215.75</ele><time>2026-03-21T13:52:31.132Z</time></trkpt><trkpt lat="44.7288747" lon="8.8529765"><ele>215.5</ele><time>2026-03-21T13:52:32.131Z</time></trkpt><trkpt lat="44.728949" lon="8.8528457"><ele>215.25</ele><time>2026-03-21T13:52:33.132Z</time></trkpt><trkpt lat="44.7290109" lon="8.852714"><ele>215.0</ele><time>2026-03-21T13:52:34.131Z</time></trkpt><trkpt lat="44.7290617" lon="8.8525881"><ele>215.00000000000003</ele><time>2026-03-21T13:52:35.131Z</time></trkpt><trkpt lat="44.7290882" lon="8.8524729"><ele>215.0</ele><time>2026-03-21T13:52:36.131Z</time></trkpt><trkpt lat="44.7291012" lon="8.8523733"><ele>215.0</ele><time>2026-03-21T13:52:37.132Z</time></trkpt><trkpt lat="44.7291163" lon="8.852286"><ele>215.0</ele><time>2026-03-21T13:52:39.131Z</time></trkpt><trkpt lat="44.7291292" lon="8.8521485"><ele>215.00000000000003</ele><time>2026-03-21T13:52:49.131Z</time></trkpt><trkpt lat="44.7291386" lon="8.8520416"><ele>215.0</ele><time>2026-03-21T13:52:50.132Z</time></trkpt><trkpt lat="44.7291407" lon="8.8519088"><ele>216.0</ele><time>2026-03-21T13:52:51.131Z</time></trkpt><trkpt lat="44.7291238" lon="8.8517576"><ele>217.0</ele><time>2026-03-21T13:52:52.132Z</time></trkpt><trkpt lat="44.7290821" lon="8.8516088"><ele>218.0</ele><time>2026-03-21T13:52:53.132Z</time></trkpt><trkpt lat="44.7290221" lon="8.8514626"><ele>219.0</ele><time>2026-03-21T13:52:54.132Z</time></trkpt><trkpt lat="44.72894" lon="8.8513176"><ele>219.0</ele><time>2026-03-21T13:52:55.132Z</time></trkpt><trkpt lat="44.7288421" lon="8.8511754"><ele>219.0</ele><time>2026-03-21T13:52:56.132Z</time></trkpt><trkpt lat="44.7287412" lon="8.8510284"><ele>219.0</ele><time>2026-03-21T13:52:57.131Z</time></trkpt><trkpt lat="44.7286412" lon="8.8508797"><ele>219.0</ele><time>2026-03-21T13:52:58.131Z</time></trkpt><trkpt lat="44.728538" lon="8.85073"><ele>222.5</ele><time>2026-03-21T13:52:59.131Z</time></trkpt><trkpt lat="44.7284322" lon="8.8505946"><ele>226.0</ele><time>2026-03-21T13:53:00.131Z</time></trkpt><trkpt lat="44.7283155" lon="8.8504719"><ele>229.5</ele><time>2026-03-21T13:53:01.131Z</time></trkpt><trkpt lat="44.7281915" lon="8.8503562"><ele>233.0</ele><time>2026-03-21T13:53:02.131Z</time></trkpt><trkpt lat="44.7280651" lon="8.8502535"><ele>233.0</ele><time>2026-03-21T13:53:03.131Z</time></trkpt><trkpt lat="44.7279382" lon="8.8501551"><ele>233.0</ele><time>2026-03-21T13:53:04.131Z</time></trkpt><trkpt lat="44.7278057" lon="8.8500603"><ele>233.0</ele><time>2026-03-21T13:53:05.131Z</time></trkpt><trkpt lat="44.7276743" lon="8.8499529"><ele>233.0</ele><time>2026-03-21T13:53:06.132Z</time></trkpt><trkpt lat="44.7275511" lon="8.8498327"><ele>233.25</ele><time>2026-03-21T13:53:07.131Z</time></trkpt><trkpt lat="44.7274442" lon="8.8497102"><ele>233.5</ele><time>2026-03-21T13:53:08.131Z</time></trkpt><trkpt lat="44.7273474" lon="8.8495906"><ele>233.75</ele><time>2026-03-21T13:53:09.131Z</time></trkpt><trkpt lat="44.7272724" lon="8.8494668"><ele>234.0</ele><time>2026-03-21T13:53:10.132Z</time></trkpt><trkpt lat="44.7272188" lon="8.8493416"><ele>234.2</ele><time>2026-03-21T13:53:11.131Z</time></trkpt><trkpt lat="44.7271786" lon="8.8492183"><ele>234.39999999999998</ele><time>2026-03-21T13:53:12.132Z</time></trkpt><trkpt lat="44.7271073" lon="8.8491184"><ele>234.6</ele><time>2026-03-21T13:53:13.132Z</time></trkpt><trkpt lat="44.7270227" lon="8.8490258"><ele>234.8</ele><time>2026-03-21T13:53:14.132Z</time></trkpt><trkpt lat="44.7269312" lon="8.8488975"><ele>235.0</ele><time>2026-03-21T13:53:15.131Z</time></trkpt><trkpt lat="44.726842" lon="8.8487511"><ele>235.33333333333331</ele><time>2026-03-21T13:53:16.132Z</time></trkpt><trkpt lat="44.7267456" lon="8.8485968"><ele>235.66666666666669</ele><time>2026-03-21T13:53:17.131Z</time></trkpt><trkpt lat="44.7266535" lon="8.8484322"><ele>236.0</ele><time>2026-03-21T13:53:18.131Z</time></trkpt><trkpt lat="44.7265608" lon="8.8482545"><ele>236.66666666666669</ele><time>2026-03-21T13:53:19.131Z</time></trkpt><trkpt lat="44.7264646" lon="8.8480762"><ele>237.33333333333331</ele><time>2026-03-21T13:53:20.132Z</time></trkpt><trkpt lat="44.7263646" lon="8.8478894"><ele>238.0</ele><time>2026-03-21T13:53:21.131Z</time></trkpt><trkpt lat="44.7262641" lon="8.8477034"><ele>237.66666666666666</ele><time>2026-03-21T13:53:22.132Z</time></trkpt><trkpt lat="44.7261616" lon="8.8475136"><ele>237.33333333333331</ele><time>2026-03-21T13:53:23.132Z</time></trkpt><trkpt lat="44.7260559" lon="8.8473258"><ele>237.0</ele><time>2026-03-21T13:53:24.131Z</time></trkpt><trkpt lat="44.7259514" lon="8.8471479"><ele>238.33333333333331</ele><time>2026-03-21T13:53:25.132Z</time></trkpt><trkpt lat="44.7258408" lon="8.846989"><ele>239.66666666666666</ele><time>2026-03-21T13:53:26.132Z</time></trkpt><trkpt lat="44.7257151" lon="8.8468592"><ele>241.0</ele><time>2026-03-21T13:53:27.132Z</time></trkpt><trkpt lat="44.7255746" lon="8.8467572"><ele>241.0</ele><time>2026-03-21T13:53:28.132Z</time></trkpt><trkpt lat="44.7254243" lon="8.8466955"><ele>241.0</ele><time>2026-03-21T13:53:29.132Z</time></trkpt><trkpt lat="44.7252599" lon="8.8466729"><ele>241.0</ele><time>2026-03-21T13:53:30.131Z</time></trkpt><trkpt lat="44.7250892" lon="8.846674"><ele>242.0</ele><time>2026-03-21T13:53:31.132Z</time></trkpt><trkpt lat="44.7249195" lon="8.8466953"><ele>243.0</ele><time>2026-03-21T13:53:32.131Z</time></trkpt><trkpt lat="44.7247498" lon="8.846718"><ele>244.0</ele><time>2026-03-21T13:53:33.132Z</time></trkpt><trkpt lat="44.7245773" lon="8.8467384"><ele>244.0</ele><time>2026-03-21T13:53:34.131Z</time></trkpt><trkpt lat="44.7244067" lon="8.8467609"><ele>244.0</ele><time>2026-03-21T13:53:35.132Z</time></trkpt><trkpt lat="44.7242444" lon="8.8467811"><ele>244.0</ele><time>2026-03-21T13:53:36.132Z</time></trkpt><trkpt lat="44.724098" lon="8.8467962"><ele>244.75</ele><time>2026-03-21T13:53:37.132Z</time></trkpt><trkpt lat="44.7239665" lon="8.8467888"><ele>245.5</ele><time>2026-03-21T13:53:38.131Z</time></trkpt><trkpt lat="44.7238581" lon="8.8467394"><ele>246.25</ele><time>2026-03-21T13:53:39.131Z</time></trkpt><trkpt lat="44.7237764" lon="8.846637"><ele>247.0</ele><time>2026-03-21T13:53:40.131Z</time></trkpt><trkpt lat="44.7237223" lon="8.8465032"><ele>247.0</ele><time>2026-03-21T13:53:41.131Z</time></trkpt><trkpt lat="44.7236865" lon="8.8463536"><ele>247.0</ele><time>2026-03-21T13:53:42.131Z</time></trkpt><trkpt lat="44.7236679" lon="8.8461847"><ele>247.0</ele><time>2026-03-21T13:53:43.131Z</time></trkpt><trkpt lat="44.7236642" lon="8.8460013"><ele>247.0</ele><time>2026-03-21T13:53:44.132Z</time></trkpt><trkpt lat="44.7236687" lon="8.8458016"><ele>247.0</ele><time>2026-03-21T13:53:45.132Z</time></trkpt><trkpt lat="44.7236741" lon="8.845602"><ele>247.0</ele><time>2026-03-21T13:53:46.131Z</time></trkpt><trkpt lat="44.7236751" lon="8.8453963"><ele>247.0</ele><time>2026-03-21T13:53:47.132Z</time></trkpt><trkpt lat="44.7236639" lon="8.8451842"><ele>247.0</ele><time>2026-03-21T13:53:48.132Z</time></trkpt><trkpt lat="44.723645" lon="8.8449699"><ele>248.33333333333331</ele><time>2026-03-21T13:53:49.131Z</time></trkpt><trkpt lat="44.7236195" lon="8.8447577"><ele>249.66666666666669</ele><time>2026-03-21T13:53:50.132Z</time></trkpt><trkpt lat="44.7235896" lon="8.8445438"><ele>251.0</ele><time>2026-03-21T13:53:51.131Z</time></trkpt><trkpt lat="44.7235597" lon="8.8443285"><ele>255.0</ele><time>2026-03-21T13:53:52.132Z</time></trkpt><trkpt lat="44.7235304" lon="8.844119"><ele>259.0</ele><time>2026-03-21T13:53:53.132Z</time></trkpt><trkpt lat="44.7234988" lon="8.8439282"><ele>263.0</ele><time>2026-03-21T13:53:54.131Z</time></trkpt><trkpt lat="44.7234669" lon="8.843751"><ele>267.0</ele><time>2026-03-21T13:53:55.131Z</time></trkpt><trkpt lat="44.7234476" lon="8.8435708"><ele>267.5</ele><time>2026-03-21T13:53:56.132Z</time></trkpt><trkpt lat="44.7234445" lon="8.8433864"><ele>268.0</ele><time>2026-03-21T13:53:57.131Z</time></trkpt><trkpt lat="44.723465" lon="8.8431907"><ele>268.5</ele><time>2026-03-21T13:53:58.132Z</time></trkpt><trkpt lat="44.7234939" lon="8.8429918"><ele>269.0</ele><time>2026-03-21T13:53:59.132Z</time></trkpt><trkpt lat="44.7235225" lon="8.8427834"><ele>267.0</ele><time>2026-03-21T13:54:00.131Z</time></trkpt><trkpt lat="44.7235532" lon="8.8425772"><ele>265.0</ele><time>2026-03-21T13:54:01.132Z</time></trkpt><trkpt lat="44.7235838" lon="8.8423617"><ele>263.0</ele><time>2026-03-21T13:54:02.131Z</time></trkpt><trkpt lat="44.723618" lon="8.8421368"><ele>263.0</ele><time>2026-03-21T13:54:03.131Z</time></trkpt><trkpt lat="44.7236506" lon="8.8419181"><ele>263.0</ele><time>2026-03-21T13:54:04.132Z</time></trkpt><trkpt lat="44.7236789" lon="8.8416981"><ele>263.0</ele><time>2026-03-21T13:54:05.131Z</time></trkpt><trkpt lat="44.7237067" lon="8.8414847"><ele>264.6666666666667</ele><time>2026-03-21T13:54:06.131Z</time></trkpt><trkpt lat="44.7237146" lon="8.8412644"><ele>266.3333333333333</ele><time>2026-03-21T13:54:07.132Z</time></trkpt><trkpt lat="44.7237124" lon="8.8410466"><ele>268.0</ele><time>2026-03-21T13:54:08.132Z</time></trkpt><trkpt lat="44.7237362" lon="8.8408307"><ele>269.25</ele><time>2026-03-21T13:54:09.132Z</time></trkpt><trkpt lat="44.7237936" lon="8.840642"><ele>270.5</ele><time>2026-03-21T13:54:10.132Z</time></trkpt><trkpt lat="44.7238801" lon="8.840504"><ele>271.75</ele><time>2026-03-21T13:54:11.132Z</time></trkpt><trkpt lat="44.7239446" lon="8.8403656"><ele>273.0</ele><time>2026-03-21T13:54:12.132Z</time></trkpt><trkpt lat="44.7239689" lon="8.8402156"><ele>274.25</ele><time>2026-03-21T13:54:13.132Z</time></trkpt><trkpt lat="44.7239608" lon="8.8400522"><ele>275.5</ele><time>2026-03-21T13:54:14.132Z</time></trkpt><trkpt lat="44.7239131" lon="8.8398892"><ele>276.75</ele><time>2026-03-21T13:54:15.132Z</time></trkpt><trkpt lat="44.7238382" lon="8.8397254"><ele>278.0</ele><time>2026-03-21T13:54:16.132Z</time></trkpt><trkpt lat="44.7237514" lon="8.8395518"><ele>278.0</ele><time>2026-03-21T13:54:17.131Z</time></trkpt><trkpt lat="44.7236589" lon="8.8393695"><ele>278.0</ele><time>2026-03-21T13:54:18.132Z</time></trkpt><trkpt lat="44.7235724" lon="8.83919"><ele>278.0</ele><time>2026-03-21T13:54:19.131Z</time></trkpt><trkpt lat="44.7234915" lon="8.8390022"><ele>280.5</ele><time>2026-03-21T13:54:20.132Z</time></trkpt><trkpt lat="44.7234165" lon="8.8388075"><ele>283.0</ele><time>2026-03-21T13:54:21.132Z</time></trkpt><trkpt lat="44.7233725" lon="8.838632"><ele>285.5</ele><time>2026-03-21T13:54:22.131Z</time></trkpt><trkpt lat="44.7233476" lon="8.8384777"><ele>288.0</ele><time>2026-03-21T13:54:23.131Z</time></trkpt><trkpt lat="44.7233474" lon="8.8383462"><ele>288.0</ele><time>2026-03-21T13:54:24.132Z</time></trkpt><trkpt lat="44.7233797" lon="8.8382358"><ele>288.0</ele><time>2026-03-21T13:54:25.131Z</time></trkpt><trkpt lat="44.7234386" lon="8.8381371"><ele>288.0</ele><time>2026-03-21T13:54:26.132Z</time></trkpt><trkpt lat="44.723516" lon="8.8380451"><ele>288.0</ele><time>2026-03-21T13:54:27.132Z</time></trkpt><trkpt lat="44.7236028" lon="8.8379559"><ele>288.0</ele><time>2026-03-21T13:54:28.131Z</time></trkpt><trkpt lat="44.7236874" lon="8.837872"><ele>287.0</ele><time>2026-03-21T13:54:29.132Z</time></trkpt><trkpt lat="44.7237712" lon="8.8377934"><ele>286.0</ele><time>2026-03-21T13:54:30.131Z</time></trkpt><trkpt lat="44.7238565" lon="8.8377138"><ele>285.0</ele><time>2026-03-21T13:54:31.132Z</time></trkpt><trkpt lat="44.7239258" lon="8.8376201"><ele>284.0</ele><time>2026-03-21T13:54:32.132Z</time></trkpt><trkpt lat="44.7239793" lon="8.8375103"><ele>283.0</ele><time>2026-03-21T13:54:33.131Z</time></trkpt><trkpt lat="44.7240128" lon="8.8373919"><ele>283.0</ele><time>2026-03-21T13:54:34.131Z</time></trkpt><trkpt lat="44.7240275" lon="8.8372879"><ele>283.0</ele><time>2026-03-21T13:54:35.131Z</time></trkpt><trkpt lat="44.7240222" lon="8.8371935"><ele>283.0</ele><time>2026-03-21T13:54:36.131Z</time></trkpt><trkpt lat="44.7239573" lon="8.8371129"><ele>283.0</ele><time>2026-03-21T13:54:38.131Z</time></trkpt><trkpt lat="44.7238525" lon="8.8371063"><ele>283.0</ele><time>2026-03-21T13:54:40.132Z</time></trkpt><trkpt lat="44.7237395" lon="8.8371156"><ele>283.0</ele><time>2026-03-21T13:54:42.132Z</time></trkpt><trkpt lat="44.7236261" lon="8.8371338"><ele>282.4</ele><time>2026-03-21T13:54:44.131Z</time></trkpt><trkpt lat="44.7235633" lon="8.8371456"><ele>281.8</ele><time>2026-03-21T13:54:45.131Z</time></trkpt><trkpt lat="44.7234811" lon="8.8371627"><ele>281.2</ele><time>2026-03-21T13:54:46.132Z</time></trkpt><trkpt lat="44.7233905" lon="8.8371876"><ele>280.6</ele><time>2026-03-21T13:54:47.131Z</time></trkpt><trkpt lat="44.7232805" lon="8.8372211"><ele>280.0</ele><time>2026-03-21T13:54:48.131Z</time></trkpt><trkpt lat="44.7231649" lon="8.8372599"><ele>280.0</ele><time>2026-03-21T13:54:49.132Z</time></trkpt><trkpt lat="44.7230451" lon="8.8373106"><ele>280.0</ele><time>2026-03-21T13:54:50.131Z</time></trkpt><trkpt lat="44.7229156" lon="8.837366"><ele>280.0</ele><time>2026-03-21T13:54:51.132Z</time></trkpt><trkpt lat="44.7227799" lon="8.8374191"><ele>280.0</ele><time>2026-03-21T13:54:52.132Z</time></trkpt><trkpt lat="44.7226421" lon="8.8374798"><ele>279.0</ele><time>2026-03-21T13:54:53.132Z</time></trkpt><trkpt lat="44.7225079" lon="8.8375255"><ele>278.0</ele><time>2026-03-21T13:54:54.132Z</time></trkpt><trkpt lat="44.7223842" lon="8.8375577"><ele>277.0</ele><time>2026-03-21T13:54:55.132Z</time></trkpt><trkpt lat="44.722266" lon="8.837574"><ele>276.0</ele><time>2026-03-21T13:54:56.132Z</time></trkpt><trkpt lat="44.7221529" lon="8.8375678"><ele>276.0</ele><time>2026-03-21T13:54:57.131Z</time></trkpt><trkpt lat="44.7220447" lon="8.8375271"><ele>276.0</ele><time>2026-03-21T13:54:58.132Z</time></trkpt><trkpt lat="44.72195" lon="8.8374462"><ele>276.0</ele><time>2026-03-21T13:54:59.131Z</time></trkpt><trkpt lat="44.7218715" lon="8.8373269"><ele>276.0</ele><time>2026-03-21T13:55:00.132Z</time></trkpt><trkpt lat="44.7218106" lon="8.8371977"><ele>276.0</ele><time>2026-03-21T13:55:01.132Z</time></trkpt><trkpt lat="44.7217417" lon="8.8370863"><ele>275.5</ele><time>2026-03-21T13:55:02.132Z</time></trkpt><trkpt lat="44.721649" lon="8.8370124"><ele>275.0</ele><time>2026-03-21T13:55:03.131Z</time></trkpt><trkpt lat="44.7215394" lon="8.8369868"><ele>274.5</ele><time>2026-03-21T13:55:04.132Z</time></trkpt><trkpt lat="44.721419" lon="8.8369986"><ele>274.0</ele><time>2026-03-21T13:55:05.131Z</time></trkpt><trkpt lat="44.721293" lon="8.8370332"><ele>274.0</ele><time>2026-03-21T13:55:06.131Z</time></trkpt><trkpt lat="44.7211586" lon="8.8370888"><ele>274.0</ele><time>2026-03-21T13:55:07.132Z</time></trkpt><trkpt lat="44.7210252" lon="8.8371673"><ele>274.0</ele><time>2026-03-21T13:55:08.132Z</time></trkpt><trkpt lat="44.7208913" lon="8.8372646"><ele>274.0</ele><time>2026-03-21T13:55:09.131Z</time></trkpt><trkpt lat="44.7207589" lon="8.8373626"><ele>275.0</ele><time>2026-03-21T13:55:10.131Z</time></trkpt><trkpt lat="44.7206238" lon="8.8374445"><ele>276.0</ele><time>2026-03-21T13:55:11.131Z</time></trkpt><trkpt lat="44.7204747" lon="8.8374987"><ele>277.0</ele><time>2026-03-21T13:55:12.131Z</time></trkpt><trkpt lat="44.7203315" lon="8.8375257"><ele>278.0</ele><time>2026-03-21T13:55:13.132Z</time></trkpt><trkpt lat="44.7201822" lon="8.8375234"><ele>278.33333333333337</ele><time>2026-03-21T13:55:14.132Z</time></trkpt><trkpt lat="44.7200302" lon="8.8375284"><ele>278.6666666666667</ele><time>2026-03-21T13:55:15.131Z</time></trkpt><trkpt lat="44.7198771" lon="8.8375491"><ele>279.0</ele><time>2026-03-21T13:55:16.132Z</time></trkpt><trkpt lat="44.7197205" lon="8.837578"><ele>279.0</ele><time>2026-03-21T13:55:17.131Z</time></trkpt><trkpt lat="44.7195584" lon="8.8376048"><ele>279.0</ele><time>2026-03-21T13:55:18.132Z</time></trkpt><trkpt lat="44.7193904" lon="8.8376298"><ele>279.0</ele><time>2026-03-21T13:55:19.132Z</time></trkpt><trkpt lat="44.7192273" lon="8.837645"><ele>278.3333333333333</ele><time>2026-03-21T13:55:20.131Z</time></trkpt><trkpt lat="44.7190595" lon="8.837667"><ele>277.66666666666663</ele><time>2026-03-21T13:55:21.132Z</time></trkpt><trkpt lat="44.7188847" lon="8.8376798"><ele>277.0</ele><time>2026-03-21T13:55:22.132Z</time></trkpt><trkpt lat="44.7187122" lon="8.8376956"><ele>277.66666666666663</ele><time>2026-03-21T13:55:23.131Z</time></trkpt><trkpt lat="44.7185369" lon="8.8377185"><ele>278.3333333333333</ele><time>2026-03-21T13:55:24.131Z</time></trkpt><trkpt lat="44.7183619" lon="8.8377499"><ele>279.0</ele><time>2026-03-21T13:55:25.132Z</time></trkpt><trkpt lat="44.7181861" lon="8.8377844"><ele>279.0</ele><time>2026-03-21T13:55:26.131Z</time></trkpt><trkpt lat="44.7180135" lon="8.8378073"><ele>279.0</ele><time>2026-03-21T13:55:27.131Z</time></trkpt><trkpt lat="44.7178336" lon="8.8378233"><ele>279.0</ele><time>2026-03-21T13:55:28.131Z</time></trkpt><trkpt lat="44.7176502" lon="8.8378386"><ele>279.0</ele><time>2026-03-21T13:55:29.131Z</time></trkpt><trkpt lat="44.717472" lon="8.8378571"><ele>279.0</ele><time>2026-03-21T13:55:30.132Z</time></trkpt><trkpt lat="44.7172991" lon="8.8378738"><ele>279.0</ele><time>2026-03-21T13:55:31.131Z</time></trkpt><trkpt lat="44.7171268" lon="8.8378928"><ele>279.0</ele><time>2026-03-21T13:55:32.131Z</time></trkpt><trkpt lat="44.7169536" lon="8.8379047"><ele>279.0</ele><time>2026-03-21T13:55:33.131Z</time></trkpt><trkpt lat="44.7167798" lon="8.8379016"><ele>279.0</ele><time>2026-03-21T13:55:34.132Z</time></trkpt><trkpt lat="44.716607" lon="8.8378767"><ele>279.0</ele><time>2026-03-21T13:55:35.131Z</time></trkpt><trkpt lat="44.7164352" lon="8.8378394"><ele>279.0</ele><time>2026-03-21T13:55:36.131Z</time></trkpt><trkpt lat="44.7162636" lon="8.8378054"><ele>279.0</ele><time>2026-03-21T13:55:37.132Z</time></trkpt><trkpt lat="44.7160952" lon="8.8377767"><ele>279.6666666666667</ele><time>2026-03-21T13:55:38.131Z</time></trkpt><trkpt lat="44.7159274" lon="8.8377759"><ele>280.33333333333337</ele><time>2026-03-21T13:55:39.131Z</time></trkpt><trkpt lat="44.7157626" lon="8.8378188"><ele>281.0</ele><time>2026-03-21T13:55:40.131Z</time></trkpt><trkpt lat="44.7156012" lon="8.8378934"><ele>281.0</ele><time>2026-03-21T13:55:41.132Z</time></trkpt><trkpt lat="44.7154401" lon="8.8379806"><ele>281.0</ele><time>2026-03-21T13:55:42.131Z</time></trkpt><trkpt lat="44.7152765" lon="8.838072"><ele>281.0</ele><time>2026-03-21T13:55:43.132Z</time></trkpt><trkpt lat="44.7151132" lon="8.8381615"><ele>283.0</ele><time>2026-03-21T13:55:44.131Z</time></trkpt><trkpt lat="44.7149449" lon="8.8382564"><ele>285.0</ele><time>2026-03-21T13:55:45.131Z</time></trkpt><trkpt lat="44.7147774" lon="8.8383484"><ele>287.0</ele><time>2026-03-21T13:55:46.132Z</time></trkpt><trkpt lat="44.7146119" lon="8.8384388"><ele>287.0</ele><time>2026-03-21T13:55:47.132Z</time></trkpt><trkpt lat="44.714447" lon="8.8385351"><ele>287.0</ele><time>2026-03-21T13:55:48.131Z</time></trkpt><trkpt lat="44.7142855" lon="8.8386374"><ele>287.0</ele><time>2026-03-21T13:55:49.132Z</time></trkpt><trkpt lat="44.7141259" lon="8.8387584"><ele>286.33333333333337</ele><time>2026-03-21T13:55:50.132Z</time></trkpt><trkpt lat="44.7139699" lon="8.8388685"><ele>285.6666666666667</ele><time>2026-03-21T13:55:51.132Z</time></trkpt><trkpt lat="44.7138126" lon="8.8389848"><ele>285.0</ele><time>2026-03-21T13:55:52.132Z</time></trkpt><trkpt lat="44.7136507" lon="8.8390895"><ele>286.6666666666667</ele><time>2026-03-21T13:55:53.131Z</time></trkpt><trkpt lat="44.7134868" lon="8.8391647"><ele>288.33333333333337</ele><time>2026-03-21T13:55:54.132Z</time></trkpt><trkpt lat="44.7133309" lon="8.8392181"><ele>290.0</ele><time>2026-03-21T13:55:55.131Z</time></trkpt><trkpt lat="44.7131876" lon="8.839224"><ele>290.0</ele><time>2026-03-21T13:55:56.132Z</time></trkpt><trkpt lat="44.7130467" lon="8.8391816"><ele>290.0</ele><time>2026-03-21T13:55:57.132Z</time></trkpt><trkpt lat="44.7129099" lon="8.8391134"><ele>290.0</ele><time>2026-03-21T13:55:58.132Z</time></trkpt><trkpt lat="44.7127774" lon="8.8390093"><ele>290.0</ele><time>2026-03-21T13:55:59.131Z</time></trkpt><trkpt lat="44.7126607" lon="8.8388604"><ele>289.0</ele><time>2026-03-21T13:56:00.132Z</time></trkpt><trkpt lat="44.7125676" lon="8.8386988"><ele>288.0</ele><time>2026-03-21T13:56:01.131Z</time></trkpt><trkpt lat="44.7124977" lon="8.8385036"><ele>287.0</ele><time>2026-03-21T13:56:02.132Z</time></trkpt><trkpt lat="44.7124528" lon="8.838289"><ele>289.33333333333337</ele><time>2026-03-21T13:56:03.131Z</time></trkpt><trkpt lat="44.7124426" lon="8.8380664"><ele>291.6666666666667</ele><time>2026-03-21T13:56:04.131Z</time></trkpt><trkpt lat="44.7124607" lon="8.8378332"><ele>294.0</ele><time>2026-03-21T13:56:05.131Z</time></trkpt><trkpt lat="44.7124964" lon="8.8375987"><ele>294.6666666666667</ele><time>2026-03-21T13:56:06.131Z</time></trkpt><trkpt lat="44.7125265" lon="8.8373564"><ele>295.33333333333337</ele><time>2026-03-21T13:56:07.131Z</time></trkpt><trkpt lat="44.7125401" lon="8.8371095"><ele>296.0</ele><time>2026-03-21T13:56:08.131Z</time></trkpt><trkpt lat="44.7125371" lon="8.8368607"><ele>296.6666666666667</ele><time>2026-03-21T13:56:09.131Z</time></trkpt><trkpt lat="44.712538" lon="8.8366127"><ele>297.3333333333333</ele><time>2026-03-21T13:56:10.131Z</time></trkpt><trkpt lat="44.7125661" lon="8.8363788"><ele>298.0</ele><time>2026-03-21T13:56:11.131Z</time></trkpt><trkpt lat="44.7126171" lon="8.836148"><ele>298.3333333333333</ele><time>2026-03-21T13:56:12.131Z</time></trkpt><trkpt lat="44.7126854" lon="8.8359354"><ele>298.6666666666667</ele><time>2026-03-21T13:56:13.132Z</time></trkpt><trkpt lat="44.7127445" lon="8.8357158"><ele>299.0</ele><time>2026-03-21T13:56:14.132Z</time></trkpt><trkpt lat="44.7127732" lon="8.8354804"><ele>304.33333333333337</ele><time>2026-03-21T13:56:15.132Z</time></trkpt><trkpt lat="44.7127899" lon="8.8352382"><ele>309.6666666666667</ele><time>2026-03-21T13:56:16.132Z</time></trkpt><trkpt lat="44.7128141" lon="8.8349988"><ele>315.0</ele><time>2026-03-21T13:56:17.132Z</time></trkpt><trkpt lat="44.7128388" lon="8.8347497"><ele>316.3333333333333</ele><time>2026-03-21T13:56:18.132Z</time></trkpt><trkpt lat="44.7128721" lon="8.8344993"><ele>317.66666666666663</ele><time>2026-03-21T13:56:19.132Z</time></trkpt><trkpt lat="44.7129141" lon="8.834257"><ele>319.0</ele><time>2026-03-21T13:56:20.132Z</time></trkpt><trkpt lat="44.7129676" lon="8.8340271"><ele>319.3333333333333</ele><time>2026-03-21T13:56:21.132Z</time></trkpt><trkpt lat="44.7130437" lon="8.8338083"><ele>319.6666666666667</ele><time>2026-03-21T13:56:22.131Z</time></trkpt><trkpt lat="44.7131402" lon="8.8336045"><ele>320.0</ele><time>2026-03-21T13:56:23.132Z</time></trkpt><trkpt lat="44.7132397" lon="8.8334043"><ele>320.0</ele><time>2026-03-21T13:56:24.131Z</time></trkpt><trkpt lat="44.7133372" lon="8.8332037"><ele>320.0</ele><time>2026-03-21T13:56:25.132Z</time></trkpt><trkpt lat="44.7134227" lon="8.8329969"><ele>320.0</ele><time>2026-03-21T13:56:26.132Z</time></trkpt><trkpt lat="44.7134971" lon="8.8327786"><ele>320.0</ele><time>2026-03-21T13:56:27.132Z</time></trkpt><trkpt lat="44.7135502" lon="8.8325543"><ele>320.0</ele><time>2026-03-21T13:56:28.132Z</time></trkpt><trkpt lat="44.7135807" lon="8.8323181"><ele>320.0</ele><time>2026-03-21T13:56:29.131Z</time></trkpt><trkpt lat="44.7135855" lon="8.8320938"><ele>320.0</ele><time>2026-03-21T13:56:30.131Z</time></trkpt><trkpt lat="44.7135647" lon="8.8318751"><ele>320.0</ele><time>2026-03-21T13:56:31.131Z</time></trkpt><trkpt lat="44.7135316" lon="8.8316811"><ele>320.0</ele><time>2026-03-21T13:56:32.131Z</time></trkpt><trkpt lat="44.7134836" lon="8.8315081"><ele>320.0</ele><time>2026-03-21T13:56:33.132Z</time></trkpt><trkpt lat="44.7134202" lon="8.8313527"><ele>321.25</ele><time>2026-03-21T13:56:34.132Z</time></trkpt><trkpt lat="44.7133477" lon="8.8312015"><ele>322.5</ele><time>2026-03-21T13:56:35.132Z</time></trkpt><trkpt lat="44.7132653" lon="8.831061"><ele>323.75</ele><time>2026-03-21T13:56:36.132Z</time></trkpt><trkpt lat="44.71317" lon="8.8309222"><ele>325.0</ele><time>2026-03-21T13:56:37.131Z</time></trkpt><trkpt lat="44.7130742" lon="8.8307831"><ele>325.0</ele><time>2026-03-21T13:56:38.132Z</time></trkpt><trkpt lat="44.7129726" lon="8.8306493"><ele>325.0</ele><time>2026-03-21T13:56:39.132Z</time></trkpt><trkpt lat="44.7128775" lon="8.830514"><ele>325.0</ele><time>2026-03-21T13:56:40.131Z</time></trkpt><trkpt lat="44.7127935" lon="8.830394"><ele>325.0</ele><time>2026-03-21T13:56:41.132Z</time></trkpt><trkpt lat="44.7127127" lon="8.8302864"><ele>325.8</ele><time>2026-03-21T13:56:42.132Z</time></trkpt><trkpt lat="44.7126387" lon="8.8301849"><ele>326.6</ele><time>2026-03-21T13:56:43.132Z</time></trkpt><trkpt lat="44.7125741" lon="8.8300625"><ele>327.4</ele><time>2026-03-21T13:56:44.131Z</time></trkpt><trkpt lat="44.7125252" lon="8.8299239"><ele>328.2</ele><time>2026-03-21T13:56:45.132Z</time></trkpt><trkpt lat="44.7124823" lon="8.8297733"><ele>329.0</ele><time>2026-03-21T13:56:46.131Z</time></trkpt><trkpt lat="44.7124474" lon="8.8296215"><ele>329.0</ele><time>2026-03-21T13:56:47.131Z</time></trkpt><trkpt lat="44.7124305" lon="8.8294911"><ele>329.0</ele><time>2026-03-21T13:56:48.131Z</time></trkpt><trkpt lat="44.712441" lon="8.8293581"><ele>329.0</ele><time>2026-03-21T13:56:49.131Z</time></trkpt><trkpt lat="44.7124802" lon="8.8292267"><ele>329.0</ele><time>2026-03-21T13:56:50.132Z</time></trkpt><trkpt lat="44.7125424" lon="8.829084"><ele>329.0</ele><time>2026-03-21T13:56:51.132Z</time></trkpt><trkpt lat="44.7126098" lon="8.8289169"><ele>327.33333333333337</ele><time>2026-03-21T13:56:52.131Z</time></trkpt><trkpt lat="44.7126889" lon="8.8287387"><ele>325.6666666666667</ele><time>2026-03-21T13:56:53.131Z</time></trkpt><trkpt lat="44.712771" lon="8.8285514"><ele>324.0</ele><time>2026-03-21T13:56:54.132Z</time></trkpt><trkpt lat="44.7128488" lon="8.8283704"><ele>322.0</ele><time>2026-03-21T13:56:55.132Z</time></trkpt><trkpt lat="44.7129254" lon="8.8281972"><ele>320.0</ele><time>2026-03-21T13:56:56.132Z</time></trkpt><trkpt lat="44.7130024" lon="8.8280338"><ele>318.0</ele><time>2026-03-21T13:56:57.131Z</time></trkpt><trkpt lat="44.7130738" lon="8.8278801"><ele>316.0</ele><time>2026-03-21T13:56:58.132Z</time></trkpt><trkpt lat="44.7131342" lon="8.8277234"><ele>316.2</ele><time>2026-03-21T13:56:59.132Z</time></trkpt><trkpt lat="44.7131687" lon="8.8275647"><ele>316.40000000000003</ele><time>2026-03-21T13:57:00.132Z</time></trkpt><trkpt lat="44.7131826" lon="8.827409"><ele>316.6</ele><time>2026-03-21T13:57:01.132Z</time></trkpt><trkpt lat="44.7131821" lon="8.8272663"><ele>316.8</ele><time>2026-03-21T13:57:02.131Z</time></trkpt><trkpt lat="44.7131727" lon="8.8271202"><ele>317.0</ele><time>2026-03-21T13:57:03.131Z</time></trkpt><trkpt lat="44.7131602" lon="8.8269778"><ele>317.0</ele><time>2026-03-21T13:57:04.131Z</time></trkpt><trkpt lat="44.713145" lon="8.8268382"><ele>317.0</ele><time>2026-03-21T13:57:05.131Z</time></trkpt><trkpt lat="44.713131" lon="8.8267071"><ele>317.0</ele><time>2026-03-21T13:57:06.132Z</time></trkpt><trkpt lat="44.7131179" lon="8.8265825"><ele>317.0</ele><time>2026-03-21T13:57:07.132Z</time></trkpt><trkpt lat="44.7131104" lon="8.8264655"><ele>317.0</ele><time>2026-03-21T13:57:08.131Z</time></trkpt><trkpt lat="44.7131065" lon="8.8263457"><ele>316.5</ele><time>2026-03-21T13:57:09.132Z</time></trkpt><trkpt lat="44.7131019" lon="8.8262271"><ele>316.0</ele><time>2026-03-21T13:57:10.132Z</time></trkpt><trkpt lat="44.7131021" lon="8.8261132"><ele>315.5</ele><time>2026-03-21T13:57:11.132Z</time></trkpt><trkpt lat="44.713102" lon="8.8260092"><ele>315.0</ele><time>2026-03-21T13:57:12.131Z</time></trkpt><trkpt lat="44.7131058" lon="8.8259101"><ele>314.5</ele><time>2026-03-21T13:57:13.132Z</time></trkpt><trkpt lat="44.7131045" lon="8.8257436"><ele>314.0</ele><time>2026-03-21T13:57:15.132Z</time></trkpt><trkpt lat="44.7131108" lon="8.8256339"><ele>314.0</ele><time>2026-03-21T13:57:16.132Z</time></trkpt><trkpt lat="44.7131194" lon="8.8255165"><ele>314.0</ele><time>2026-03-21T13:57:17.131Z</time></trkpt><trkpt lat="44.7131302" lon="8.8253853"><ele>314.0</ele><time>2026-03-21T13:57:18.132Z</time></trkpt><trkpt lat="44.7131379" lon="8.825258"><ele>314.0</ele><time>2026-03-21T13:57:19.132Z</time></trkpt><trkpt lat="44.7131274" lon="8.825151"><ele>314.0</ele><time>2026-03-21T13:57:20.132Z</time></trkpt><trkpt lat="44.7130969" lon="8.8250602"><ele>314.0</ele><time>2026-03-21T13:57:21.132Z</time></trkpt><trkpt lat="44.713039" lon="8.8249826"><ele>314.0</ele><time>2026-03-21T13:57:22.132Z</time></trkpt><trkpt lat="44.7129401" lon="8.8249037"><ele>314.0</ele><time>2026-03-21T13:57:23.132Z</time></trkpt><trkpt lat="44.712782" lon="8.8247916"><ele>314.0</ele><time>2026-03-21T13:57:24.131Z</time></trkpt><trkpt lat="44.7125905" lon="8.8246326"><ele>314.25</ele><time>2026-03-21T13:57:25.131Z</time></trkpt><trkpt lat="44.7124483" lon="8.8245171"><ele>314.5</ele><time>2026-03-21T13:57:26.131Z</time></trkpt><trkpt lat="44.712327" lon="8.8244168"><ele>314.75</ele><time>2026-03-21T13:57:27.131Z</time></trkpt><trkpt lat="44.7122047" lon="8.824327"><ele>315.0</ele><time>2026-03-21T13:57:28.131Z</time></trkpt><trkpt lat="44.7120869" lon="8.8242533"><ele>315.0</ele><time>2026-03-21T13:57:29.132Z</time></trkpt><trkpt lat="44.7119556" lon="8.8241743"><ele>315.0</ele><time>2026-03-21T13:57:30.132Z</time></trkpt><trkpt lat="44.7117918" lon="8.8241111"><ele>315.0</ele><time>2026-03-21T13:57:31.131Z</time></trkpt><trkpt lat="44.7116152" lon="8.8240671"><ele>315.0</ele><time>2026-03-21T13:57:32.131Z</time></trkpt><trkpt lat="44.7114509" lon="8.8240392"><ele>315.0</ele><time>2026-03-21T13:57:33.132Z</time></trkpt><trkpt lat="44.7112991" lon="8.8240142"><ele>315.0</ele><time>2026-03-21T13:57:34.132Z</time></trkpt><trkpt lat="44.7111576" lon="8.8239818"><ele>311.0</ele><time>2026-03-21T13:57:35.132Z</time></trkpt><trkpt lat="44.7110157" lon="8.8239442"><ele>307.0</ele><time>2026-03-21T13:57:36.132Z</time></trkpt><trkpt lat="44.7108691" lon="8.8238805"><ele>303.0</ele><time>2026-03-21T13:57:37.132Z</time></trkpt><trkpt lat="44.710716" lon="8.8237793"><ele>303.0</ele><time>2026-03-21T13:57:38.132Z</time></trkpt><trkpt lat="44.7105709" lon="8.8236793"><ele>303.0</ele><time>2026-03-21T13:57:39.131Z</time></trkpt><trkpt lat="44.7104257" lon="8.823605"><ele>303.0</ele><time>2026-03-21T13:57:40.131Z</time></trkpt><trkpt lat="44.7102704" lon="8.8235724"><ele>299.3333333333333</ele><time>2026-03-21T13:57:41.131Z</time></trkpt><trkpt lat="44.710105" lon="8.8235878"><ele>295.66666666666663</ele><time>2026-03-21T13:57:42.132Z</time></trkpt><trkpt lat="44.7099299" lon="8.8236429"><ele>292.0</ele><time>2026-03-21T13:57:43.131Z</time></trkpt><trkpt lat="44.7097559" lon="8.8236857"><ele>292.0</ele><time>2026-03-21T13:57:44.131Z</time></trkpt><trkpt lat="44.709591" lon="8.8237002"><ele>292.0</ele><time>2026-03-21T13:57:45.131Z</time></trkpt><trkpt lat="44.7094315" lon="8.8236808"><ele>292.0</ele><time>2026-03-21T13:57:46.132Z</time></trkpt><trkpt lat="44.7092878" lon="8.8236304"><ele>291.5</ele><time>2026-03-21T13:57:47.131Z</time></trkpt><trkpt lat="44.7091621" lon="8.8235489"><ele>291.0</ele><time>2026-03-21T13:57:48.131Z</time></trkpt><trkpt lat="44.7090537" lon="8.8234258"><ele>290.5</ele><time>2026-03-21T13:57:49.132Z</time></trkpt><trkpt lat="44.7089756" lon="8.8232672"><ele>290.0</ele><time>2026-03-21T13:57:50.131Z</time></trkpt><trkpt lat="44.7089266" lon="8.8230869"><ele>291.0</ele><time>2026-03-21T13:57:51.132Z</time></trkpt><trkpt lat="44.7088803" lon="8.8229227"><ele>292.0</ele><time>2026-03-21T13:57:52.132Z</time></trkpt><trkpt lat="44.7088062" lon="8.822772"><ele>293.0</ele><time>2026-03-21T13:57:53.132Z</time></trkpt><trkpt lat="44.7086958" lon="8.8226501"><ele>294.0</ele><time>2026-03-21T13:57:54.131Z</time></trkpt><trkpt lat="44.7085536" lon="8.822564"><ele>291.0</ele><time>2026-03-21T13:57:55.132Z</time></trkpt><trkpt lat="44.7083815" lon="8.8224874"><ele>288.0</ele><time>2026-03-21T13:57:56.132Z</time></trkpt><trkpt lat="44.7081875" lon="8.8223996"><ele>285.0</ele><time>2026-03-21T13:57:57.132Z</time></trkpt><trkpt lat="44.7079788" lon="8.8223055"><ele>285.0</ele><time>2026-03-21T13:57:58.132Z</time></trkpt><trkpt lat="44.70776" lon="8.8222161"><ele>285.0</ele><time>2026-03-21T13:57:59.132Z</time></trkpt><trkpt lat="44.7075417" lon="8.8221499"><ele>287.3333333333333</ele><time>2026-03-21T13:58:00.131Z</time></trkpt><trkpt lat="44.707352" lon="8.8220998"><ele>289.66666666666663</ele><time>2026-03-21T13:58:01.131Z</time></trkpt><trkpt lat="44.7071823" lon="8.8220497"><ele>292.0</ele><time>2026-03-21T13:58:02.132Z</time></trkpt><trkpt lat="44.7070353" lon="8.8219876"><ele>292.0</ele><time>2026-03-21T13:58:03.132Z</time></trkpt><trkpt lat="44.7069167" lon="8.8218881"><ele>292.0</ele><time>2026-03-21T13:58:04.132Z</time></trkpt><trkpt lat="44.7068059" lon="8.8217982"><ele>292.0</ele><time>2026-03-21T13:58:05.132Z</time></trkpt><trkpt lat="44.7066815" lon="8.8217782"><ele>292.0</ele><time>2026-03-21T13:58:06.131Z</time></trkpt><trkpt lat="44.7065597" lon="8.8217779"><ele>295.4</ele><time>2026-03-21T13:58:07.132Z</time></trkpt><trkpt lat="44.7064689" lon="8.8217254"><ele>298.79999999999995</ele><time>2026-03-21T13:58:08.131Z</time></trkpt><trkpt lat="44.7064169" lon="8.8216455"><ele>302.2</ele><time>2026-03-21T13:58:09.131Z</time></trkpt><trkpt lat="44.7063901" lon="8.8215153"><ele>305.59999999999997</ele><time>2026-03-21T13:58:10.131Z</time></trkpt><trkpt lat="44.7063636" lon="8.8213509"><ele>309.0</ele><time>2026-03-21T13:58:11.132Z</time></trkpt><trkpt lat="44.7063148" lon="8.8211944"><ele>309.0</ele><time>2026-03-21T13:58:12.131Z</time></trkpt><trkpt lat="44.7062217" lon="8.8210728"><ele>309.0</ele><time>2026-03-21T13:58:13.132Z</time></trkpt><trkpt lat="44.7061148" lon="8.8209473"><ele>309.0</ele><time>2026-03-21T13:58:14.132Z</time></trkpt><trkpt lat="44.7060198" lon="8.820843"><ele>309.0</ele><time>2026-03-21T13:58:15.131Z</time></trkpt><trkpt lat="44.7059302" lon="8.8207643"><ele>307.3333333333333</ele><time>2026-03-21T13:58:16.131Z</time></trkpt><trkpt lat="44.7057718" lon="8.8207934"><ele>305.66666666666663</ele><time>2026-03-21T13:58:18.131Z</time></trkpt><trkpt lat="44.7056909" lon="8.8210812"><ele>304.0</ele><time>2026-03-21T13:58:19.131Z</time></trkpt><trkpt lat="44.7055941" lon="8.8211445"><ele>304.0</ele><time>2026-03-21T13:58:20.131Z</time></trkpt><trkpt lat="44.705519" lon="8.821181"><ele>304.0</ele><time>2026-03-21T13:58:21.131Z</time></trkpt><trkpt lat="44.7054424" lon="8.8211202"><ele>304.0</ele><time>2026-03-21T13:58:22.132Z</time></trkpt><trkpt lat="44.7053532" lon="8.8210256"><ele>304.0</ele><time>2026-03-21T13:58:23.131Z</time></trkpt><trkpt lat="44.7052313" lon="8.8209023"><ele>304.0</ele><time>2026-03-21T13:58:24.132Z</time></trkpt><trkpt lat="44.7050964" lon="8.8207589"><ele>310.5</ele><time>2026-03-21T13:58:25.132Z</time></trkpt><trkpt lat="44.7049727" lon="8.8206384"><ele>317.0</ele><time>2026-03-21T13:58:26.132Z</time></trkpt><trkpt lat="44.7048574" lon="8.8205585"><ele>323.5</ele><time>2026-03-21T13:58:27.131Z</time></trkpt><trkpt lat="44.7047491" lon="8.8205389"><ele>330.0</ele><time>2026-03-21T13:58:28.131Z</time></trkpt><trkpt lat="44.7046437" lon="8.8205152"><ele>330.0</ele><time>2026-03-21T13:58:29.131Z</time></trkpt><trkpt lat="44.7045455" lon="8.8206713"><ele>330.0</ele><time>2026-03-21T13:58:30.132Z</time></trkpt><trkpt lat="44.7044505" lon="8.8207966"><ele>330.0</ele><time>2026-03-21T13:58:31.132Z</time></trkpt><trkpt lat="44.7043646" lon="8.8208489"><ele>330.0</ele><time>2026-03-21T13:58:32.132Z</time></trkpt><trkpt lat="44.704277" lon="8.8208369"><ele>332.8</ele><time>2026-03-21T13:58:33.132Z</time></trkpt><trkpt lat="44.7042138" lon="8.8207743"><ele>335.6</ele><time>2026-03-21T13:58:34.132Z</time></trkpt><trkpt lat="44.7041492" lon="8.8206807"><ele>338.4</ele><time>2026-03-21T13:58:35.132Z</time></trkpt><trkpt lat="44.7040842" lon="8.8205722"><ele>341.2</ele><time>2026-03-21T13:58:36.131Z</time></trkpt><trkpt lat="44.7040205" lon="8.8204804"><ele>344.0</ele><time>2026-03-21T13:58:37.132Z</time></trkpt><trkpt lat="44.703899" lon="8.8204769"><ele>344.0</ele><time>2026-03-21T13:58:38.132Z</time></trkpt><trkpt lat="44.703789" lon="8.8204788"><ele>344.0</ele><time>2026-03-21T13:58:39.131Z</time></trkpt><trkpt lat="44.7036748" lon="8.8205149"><ele>344.0</ele><time>2026-03-21T13:58:40.131Z</time></trkpt><trkpt lat="44.7035709" lon="8.8205947"><ele>344.0</ele><time>2026-03-21T13:58:41.132Z</time></trkpt><trkpt lat="44.7034798" lon="8.8207281"><ele>344.0</ele><time>2026-03-21T13:58:42.132Z</time></trkpt><trkpt lat="44.7033878" lon="8.8208615"><ele>344.0</ele><time>2026-03-21T13:58:43.132Z</time></trkpt><trkpt lat="44.7032778" lon="8.8209554"><ele>344.0</ele><time>2026-03-21T13:58:44.132Z</time></trkpt><trkpt lat="44.7031487" lon="8.8209866"><ele>344.0</ele><time>2026-03-21T13:58:45.132Z</time></trkpt><trkpt lat="44.7030213" lon="8.8209648"><ele>344.0</ele><time>2026-03-21T13:58:46.131Z</time></trkpt><trkpt lat="44.7029046" lon="8.8208827"><ele>344.0</ele><time>2026-03-21T13:58:47.132Z</time></trkpt><trkpt lat="44.702803" lon="8.8207534"><ele>344.0</ele><time>2026-03-21T13:58:48.131Z</time></trkpt><trkpt lat="44.7027141" lon="8.8205974"><ele>344.0</ele><time>2026-03-21T13:58:49.132Z</time></trkpt><trkpt lat="44.7026301" lon="8.8204671"><ele>345.25</ele><time>2026-03-21T13:58:50.132Z</time></trkpt><trkpt lat="44.7025222" lon="8.8203841"><ele>346.5</ele><time>2026-03-21T13:58:51.131Z</time></trkpt><trkpt lat="44.7023916" lon="8.8203262"><ele>347.75</ele><time>2026-03-21T13:58:52.132Z</time></trkpt><trkpt lat="44.7022374" lon="8.8202569"><ele>349.0</ele><time>2026-03-21T13:58:53.132Z</time></trkpt><trkpt lat="44.7021089" lon="8.8201722"><ele>349.0</ele><time>2026-03-21T13:58:54.131Z</time></trkpt><trkpt lat="44.7020113" lon="8.8200663"><ele>349.0</ele><time>2026-03-21T13:58:55.132Z</time></trkpt><trkpt lat="44.7019586" lon="8.8199285"><ele>349.0</ele><time>2026-03-21T13:58:56.131Z</time></trkpt><trkpt lat="44.7019178" lon="8.8197657"><ele>349.0</ele><time>2026-03-21T13:58:57.131Z</time></trkpt><trkpt lat="44.7018551" lon="8.8196159"><ele>349.0</ele><time>2026-03-21T13:58:58.131Z</time></trkpt><trkpt lat="44.7017655" lon="8.8194575"><ele>349.0</ele><time>2026-03-21T13:58:59.131Z</time></trkpt><trkpt lat="44.7016531" lon="8.8192698"><ele>349.0</ele><time>2026-03-21T13:59:00.132Z</time></trkpt><trkpt lat="44.7015439" lon="8.8190754"><ele>345.66666666666663</ele><time>2026-03-21T13:59:01.131Z</time></trkpt><trkpt lat="44.7014438" lon="8.8188817"><ele>342.3333333333333</ele><time>2026-03-21T13:59:02.132Z</time></trkpt><trkpt lat="44.7013438" lon="8.8187"><ele>339.0</ele><time>2026-03-21T13:59:03.131Z</time></trkpt><trkpt lat="44.7012282" lon="8.8185442"><ele>340.0</ele><time>2026-03-21T13:59:04.131Z</time></trkpt><trkpt lat="44.7010827" lon="8.8184101"><ele>341.0</ele><time>2026-03-21T13:59:05.132Z</time></trkpt><trkpt lat="44.7009188" lon="8.8182905"><ele>342.0</ele><time>2026-03-21T13:59:06.132Z</time></trkpt><trkpt lat="44.7007401" lon="8.8181569"><ele>339.0</ele><time>2026-03-21T13:59:07.132Z</time></trkpt><trkpt lat="44.7005721" lon="8.8180254"><ele>336.0</ele><time>2026-03-21T13:59:08.132Z</time></trkpt><trkpt lat="44.70041" lon="8.8178868"><ele>333.0</ele><time>2026-03-21T13:59:09.132Z</time></trkpt><trkpt lat="44.7002581" lon="8.8177459"><ele>329.6666666666667</ele><time>2026-03-21T13:59:10.131Z</time></trkpt><trkpt lat="44.7001059" lon="8.8176319"><ele>326.33333333333337</ele><time>2026-03-21T13:59:11.132Z</time></trkpt><trkpt lat="44.6999592" lon="8.8175433"><ele>323.0</ele><time>2026-03-21T13:59:12.132Z</time></trkpt><trkpt lat="44.6998244" lon="8.8174863"><ele>323.0</ele><time>2026-03-21T13:59:13.131Z</time></trkpt><trkpt lat="44.6997092" lon="8.817438"><ele>323.0</ele><time>2026-03-21T13:59:14.132Z</time></trkpt><trkpt lat="44.6996058" lon="8.8173688"><ele>323.0</ele><time>2026-03-21T13:59:15.132Z</time></trkpt><trkpt lat="44.6995346" lon="8.8172691"><ele>323.0</ele><time>2026-03-21T13:59:16.131Z</time></trkpt><trkpt lat="44.6994785" lon="8.8171704"><ele>323.0</ele><time>2026-03-21T13:59:17.131Z</time></trkpt><trkpt lat="44.6994056" lon="8.817118"><ele>320.0</ele><time>2026-03-21T13:59:18.132Z</time></trkpt><trkpt lat="44.6993279" lon="8.8171156"><ele>317.0</ele><time>2026-03-21T13:59:19.131Z</time></trkpt><trkpt lat="44.6992363" lon="8.8171835"><ele>314.0</ele><time>2026-03-21T13:59:20.132Z</time></trkpt><trkpt lat="44.6991304" lon="8.8172156"><ele>311.0</ele><time>2026-03-21T13:59:21.132Z</time></trkpt><trkpt lat="44.69901" lon="8.8172067"><ele>308.0</ele><time>2026-03-21T13:59:22.131Z</time></trkpt><trkpt lat="44.6988692" lon="8.8171573"><ele>308.0</ele><time>2026-03-21T13:59:23.131Z</time></trkpt><trkpt lat="44.698704" lon="8.8170968"><ele>308.0</ele><time>2026-03-21T13:59:24.132Z</time></trkpt><trkpt lat="44.6985223" lon="8.8170523"><ele>308.0</ele><time>2026-03-21T13:59:25.131Z</time></trkpt><trkpt lat="44.6983418" lon="8.8170246"><ele>304.33333333333337</ele><time>2026-03-21T13:59:26.131Z</time></trkpt><trkpt lat="44.6981671" lon="8.8169824"><ele>300.6666666666667</ele><time>2026-03-21T13:59:27.132Z</time></trkpt><trkpt lat="44.6980034" lon="8.8169348"><ele>297.0</ele><time>2026-03-21T13:59:28.131Z</time></trkpt><trkpt lat="44.6978526" lon="8.8169173"><ele>296.0</ele><time>2026-03-21T13:59:29.131Z</time></trkpt><trkpt lat="44.6977166" lon="8.8169037"><ele>295.0</ele><time>2026-03-21T13:59:30.131Z</time></trkpt><trkpt lat="44.6975996" lon="8.8168799"><ele>294.0</ele><time>2026-03-21T13:59:31.131Z</time></trkpt><trkpt lat="44.6975054" lon="8.8168402"><ele>293.0</ele><time>2026-03-21T13:59:32.131Z</time></trkpt><trkpt lat="44.6974393" lon="8.8167679"><ele>292.0</ele><time>2026-03-21T13:59:33.131Z</time></trkpt><trkpt lat="44.6974015" lon="8.8166736"><ele>292.0</ele><time>2026-03-21T13:59:34.132Z</time></trkpt><trkpt lat="44.6973894" lon="8.8165326"><ele>292.0</ele><time>2026-03-21T13:59:35.131Z</time></trkpt><trkpt lat="44.6973754" lon="8.8163911"><ele>292.0</ele><time>2026-03-21T13:59:36.132Z</time></trkpt><trkpt lat="44.6973431" lon="8.8162723"><ele>292.0</ele><time>2026-03-21T13:59:37.131Z</time></trkpt><trkpt lat="44.6972655" lon="8.8162096"><ele>292.0</ele><time>2026-03-21T13:59:38.131Z</time></trkpt><trkpt lat="44.6971976" lon="8.8161858"><ele>292.0</ele><time>2026-03-21T13:59:39.132Z</time></trkpt><trkpt lat="44.6971314" lon="8.8162321"><ele>292.0</ele><time>2026-03-21T13:59:40.132Z</time></trkpt><trkpt lat="44.6970966" lon="8.8163113"><ele>292.0</ele><time>2026-03-21T13:59:41.131Z</time></trkpt><trkpt lat="44.6970633" lon="8.8164022"><ele>292.0</ele><time>2026-03-21T13:59:42.132Z</time></trkpt><trkpt lat="44.6971264" lon="8.8165531"><ele>292.0</ele><time>2026-03-21T13:59:43.131Z</time></trkpt><trkpt lat="44.6971608" lon="8.8166885"><ele>292.0</ele><time>2026-03-21T13:59:44.131Z</time></trkpt><trkpt lat="44.6971737" lon="8.8168336"><ele>290.4</ele><time>2026-03-21T13:59:45.131Z</time></trkpt><trkpt lat="44.6972091" lon="8.8169578"><ele>288.79999999999995</ele><time>2026-03-21T13:59:46.131Z</time></trkpt><trkpt lat="44.6972684" lon="8.8170459"><ele>287.2</ele><time>2026-03-21T13:59:47.132Z</time></trkpt><trkpt lat="44.6973535" lon="8.8171139"><ele>285.59999999999997</ele><time>2026-03-21T13:59:48.132Z</time></trkpt><trkpt lat="44.6974531" lon="8.8171684"><ele>284.0</ele><time>2026-03-21T13:59:49.132Z</time></trkpt><trkpt lat="44.6975278" lon="8.8172271"><ele>284.0</ele><time>2026-03-21T13:59:50.132Z</time></trkpt><trkpt lat="44.6975792" lon="8.8173038"><ele>284.0</ele><time>2026-03-21T13:59:51.132Z</time></trkpt><trkpt lat="44.6975837" lon="8.8173925"><ele>284.0</ele><time>2026-03-21T13:59:52.131Z</time></trkpt><trkpt lat="44.6975403" lon="8.8174624"><ele>284.0</ele><time>2026-03-21T13:59:53.132Z</time></trkpt><trkpt lat="44.6974688" lon="8.8174989"><ele>284.0</ele><time>2026-03-21T13:59:54.132Z</time></trkpt><trkpt lat="44.6973729" lon="8.8174884"><ele>284.0</ele><time>2026-03-21T13:59:55.131Z</time></trkpt><trkpt lat="44.6972722" lon="8.8174173"><ele>284.0</ele><time>2026-03-21T13:59:56.132Z</time></trkpt><trkpt lat="44.6971726" lon="8.8172993"><ele>284.0</ele><time>2026-03-21T13:59:57.131Z</time></trkpt><trkpt lat="44.6970841" lon="8.8171553"><ele>284.0</ele><time>2026-03-21T13:59:58.132Z</time></trkpt><trkpt lat="44.6969986" lon="8.8170255"><ele>284.0</ele><time>2026-03-21T13:59:59.132Z</time></trkpt><trkpt lat="44.6969016" lon="8.8169367"><ele>280.25</ele><time>2026-03-21T14:00:00.131Z</time></trkpt><trkpt lat="44.6967836" lon="8.8169132"><ele>276.5</ele><time>2026-03-21T14:00:01.132Z</time></trkpt><trkpt lat="44.6966378" lon="8.8169455"><ele>272.75</ele><time>2026-03-21T14:00:02.131Z</time></trkpt><trkpt lat="44.6964978" lon="8.8169946"><ele>269.0</ele><time>2026-03-21T14:00:03.132Z</time></trkpt><trkpt lat="44.6963713" lon="8.8170355"><ele>269.0</ele><time>2026-03-21T14:00:04.132Z</time></trkpt><trkpt lat="44.6962632" lon="8.8171029"><ele>269.0</ele><time>2026-03-21T14:00:05.131Z</time></trkpt><trkpt lat="44.6961808" lon="8.817203"><ele>269.0</ele><time>2026-03-21T14:00:06.132Z</time></trkpt><trkpt lat="44.6961243" lon="8.8173175"><ele>269.0</ele><time>2026-03-21T14:00:07.132Z</time></trkpt><trkpt lat="44.696087" lon="8.8174145"><ele>269.0</ele><time>2026-03-21T14:00:08.131Z</time></trkpt><trkpt lat="44.6960581" lon="8.8175049"><ele>268.25</ele><time>2026-03-21T14:00:09.132Z</time></trkpt><trkpt lat="44.6960096" lon="8.8176623"><ele>267.5</ele><time>2026-03-21T14:00:11.131Z</time></trkpt><trkpt lat="44.6959441" lon="8.8177848"><ele>266.75</ele><time>2026-03-21T14:00:13.131Z</time></trkpt><trkpt lat="44.6958485" lon="8.8178754"><ele>266.0</ele><time>2026-03-21T14:00:15.132Z</time></trkpt><trkpt lat="44.6957328" lon="8.8179668"><ele>266.0</ele><time>2026-03-21T14:00:17.131Z</time></trkpt><trkpt lat="44.6956688" lon="8.818023"><ele>266.0</ele><time>2026-03-21T14:00:18.131Z</time></trkpt><trkpt lat="44.6956028" lon="8.8180886"><ele>266.0</ele><time>2026-03-21T14:00:19.131Z</time></trkpt><trkpt lat="44.6955386" lon="8.8181634"><ele>266.0</ele><time>2026-03-21T14:00:20.132Z</time></trkpt><trkpt lat="44.6954824" lon="8.8182252"><ele>266.0</ele><time>2026-03-21T14:00:21.132Z</time></trkpt><trkpt lat="44.6954198" lon="8.8182784"><ele>266.0</ele><time>2026-03-21T14:00:22.132Z</time></trkpt><trkpt lat="44.6953569" lon="8.8182914"><ele>266.0</ele><time>2026-03-21T14:00:23.131Z</time></trkpt><trkpt lat="44.6952982" lon="8.8182565"><ele>262.7142857142857</ele><time>2026-03-21T14:00:24.131Z</time></trkpt><trkpt lat="44.6952533" lon="8.8181787"><ele>259.42857142857144</ele><time>2026-03-21T14:00:25.131Z</time></trkpt><trkpt lat="44.6952261" lon="8.8180903"><ele>256.1428571428571</ele><time>2026-03-21T14:00:26.131Z</time></trkpt><trkpt lat="44.6951989" lon="8.8179996"><ele>252.85714285714286</ele><time>2026-03-21T14:00:27.131Z</time></trkpt><trkpt lat="44.6951696" lon="8.8178991"><ele>249.57142857142858</ele><time>2026-03-21T14:00:28.131Z</time></trkpt><trkpt lat="44.6951432" lon="8.8178082"><ele>246.28571428571428</ele><time>2026-03-21T14:00:29.131Z</time></trkpt><trkpt lat="44.6951129" lon="8.8177154"><ele>243.0</ele><time>2026-03-21T14:00:30.132Z</time></trkpt><trkpt lat="44.6950719" lon="8.8176247"><ele>242.66666666666666</ele><time>2026-03-21T14:00:31.132Z</time></trkpt><trkpt lat="44.6950234" lon="8.8175443"><ele>242.33333333333331</ele><time>2026-03-21T14:00:32.131Z</time></trkpt><trkpt lat="44.6949572" lon="8.8174819"><ele>242.0</ele><time>2026-03-21T14:00:33.132Z</time></trkpt><trkpt lat="44.6948867" lon="8.8174409"><ele>241.66666666666666</ele><time>2026-03-21T14:00:34.132Z</time></trkpt><trkpt lat="44.6948054" lon="8.8174232"><ele>241.33333333333331</ele><time>2026-03-21T14:00:35.131Z</time></trkpt><trkpt lat="44.6947221" lon="8.8174175"><ele>241.0</ele><time>2026-03-21T14:00:36.132Z</time></trkpt><trkpt lat="44.6946376" lon="8.8174169"><ele>240.99999999999997</ele><time>2026-03-21T14:00:37.132Z</time></trkpt><trkpt lat="44.6945555" lon="8.8174206"><ele>241.0</ele><time>2026-03-21T14:00:38.132Z</time></trkpt><trkpt lat="44.6944727" lon="8.8174271"><ele>241.0</ele><time>2026-03-21T14:00:39.132Z</time></trkpt><trkpt lat="44.6943909" lon="8.8174318"><ele>241.0</ele><time>2026-03-21T14:00:40.132Z</time></trkpt><trkpt lat="44.6943113" lon="8.8174398"><ele>240.99999999999997</ele><time>2026-03-21T14:00:41.131Z</time></trkpt><trkpt lat="44.6942302" lon="8.8174479"><ele>241.0</ele><time>2026-03-21T14:00:42.132Z</time></trkpt><trkpt lat="44.6941518" lon="8.8174541"><ele>240.2857142857143</ele><time>2026-03-21T14:00:43.132Z</time></trkpt><trkpt lat="44.6940751" lon="8.8174573"><ele>239.5714285714286</ele><time>2026-03-21T14:00:44.131Z</time></trkpt><trkpt lat="44.6940001" lon="8.8174636"><ele>238.85714285714286</ele><time>2026-03-21T14:00:45.131Z</time></trkpt><trkpt lat="44.6939251" lon="8.8174684"><ele>238.14285714285717</ele><time>2026-03-21T14:00:46.131Z</time></trkpt><trkpt lat="44.6938549" lon="8.8174725"><ele>237.42857142857144</ele><time>2026-03-21T14:00:47.132Z</time></trkpt><trkpt lat="44.6937835" lon="8.8174662"><ele>236.71428571428572</ele><time>2026-03-21T14:00:48.132Z</time></trkpt><trkpt lat="44.693714" lon="8.8174557"><ele>236.0</ele><time>2026-03-21T14:00:49.132Z</time></trkpt><trkpt lat="44.6936468" lon="8.8174431"><ele>235.85714285714283</ele><time>2026-03-21T14:00:50.132Z</time></trkpt><trkpt lat="44.693578" lon="8.8174249"><ele>235.71428571428572</ele><time>2026-03-21T14:00:51.131Z</time></trkpt><trkpt lat="44.6935057" lon="8.8174027"><ele>235.57142857142856</ele><time>2026-03-21T14:00:52.132Z</time></trkpt><trkpt lat="44.6934345" lon="8.8173782"><ele>235.42857142857142</ele><time>2026-03-21T14:00:53.131Z</time></trkpt><trkpt lat="44.6933677" lon="8.8173556"><ele>235.28571428571428</ele><time>2026-03-21T14:00:54.132Z</time></trkpt><trkpt lat="44.6933043" lon="8.8173267"><ele>235.14285714285714</ele><time>2026-03-21T14:00:55.132Z</time></trkpt><trkpt lat="44.6932422" lon="8.8173012"><ele>235.0</ele><time>2026-03-21T14:00:56.131Z</time></trkpt><trkpt lat="44.6931161" lon="8.8172616"><ele>235.0</ele><time>2026-03-21T14:00:58.132Z</time></trkpt><trkpt lat="44.6930554" lon="8.8172312"><ele>234.99999999999997</ele><time>2026-03-21T14:00:59.131Z</time></trkpt><trkpt lat="44.6929902" lon="8.8172039"><ele>235.0</ele><time>2026-03-21T14:01:00.131Z</time></trkpt><trkpt lat="44.6929246" lon="8.8171763"><ele>235.0</ele><time>2026-03-21T14:01:01.131Z</time></trkpt><trkpt lat="44.6928564" lon="8.8171555"><ele>234.99999999999997</ele><time>2026-03-21T14:01:02.132Z</time></trkpt><trkpt lat="44.6927891" lon="8.8171206"><ele>235.0</ele><time>2026-03-21T14:01:03.132Z</time></trkpt><trkpt lat="44.6927256" lon="8.8170903"><ele>235.0</ele><time>2026-03-21T14:01:04.132Z</time></trkpt><trkpt lat="44.6926598" lon="8.8170613"><ele>235.33333333333331</ele><time>2026-03-21T14:01:05.132Z</time></trkpt><trkpt lat="44.6925949" lon="8.81703"><ele>235.66666666666666</ele><time>2026-03-21T14:01:06.132Z</time></trkpt><trkpt lat="44.692523" lon="8.8169961"><ele>236.0</ele><time>2026-03-21T14:01:07.132Z</time></trkpt><trkpt lat="44.6924501" lon="8.8169643"><ele>236.33333333333331</ele><time>2026-03-21T14:01:08.131Z</time></trkpt><trkpt lat="44.6923732" lon="8.8169254"><ele>236.66666666666666</ele><time>2026-03-21T14:01:09.131Z</time></trkpt><trkpt lat="44.6922926" lon="8.8168885"><ele>237.0</ele><time>2026-03-21T14:01:10.132Z</time></trkpt><trkpt lat="44.6922102" lon="8.8168467"><ele>237.0</ele><time>2026-03-21T14:01:11.132Z</time></trkpt><trkpt lat="44.6921217" lon="8.8168042"><ele>237.0</ele><time>2026-03-21T14:01:12.132Z</time></trkpt><trkpt lat="44.6920307" lon="8.8167703"><ele>237.0</ele><time>2026-03-21T14:01:13.131Z</time></trkpt><trkpt lat="44.6919389" lon="8.8167406"><ele>237.0</ele><time>2026-03-21T14:01:14.132Z</time></trkpt><trkpt lat="44.6918467" lon="8.8167116"><ele>237.0</ele><time>2026-03-21T14:01:15.132Z</time></trkpt><trkpt lat="44.6917525" lon="8.8166813"><ele>237.0</ele><time>2026-03-21T14:01:16.131Z</time></trkpt><trkpt lat="44.6916543" lon="8.8166577"><ele>237.0</ele><time>2026-03-21T14:01:17.132Z</time></trkpt><trkpt lat="44.6915502" lon="8.8166436"><ele>237.0</ele><time>2026-03-21T14:01:18.132Z</time></trkpt><trkpt lat="44.6914428" lon="8.8166312"><ele>237.0</ele><time>2026-03-21T14:01:19.131Z</time></trkpt><trkpt lat="44.6913328" lon="8.8166188"><ele>237.0</ele><time>2026-03-21T14:01:20.132Z</time></trkpt><trkpt lat="44.6912203" lon="8.8166093"><ele>237.0</ele><time>2026-03-21T14:01:21.132Z</time></trkpt><trkpt lat="44.6910997" lon="8.8165963"><ele>237.0</ele><time>2026-03-21T14:01:22.132Z</time></trkpt><trkpt lat="44.6909756" lon="8.816581"><ele>237.0</ele><time>2026-03-21T14:01:23.132Z</time></trkpt><trkpt lat="44.69085" lon="8.8165704"><ele>237.0</ele><time>2026-03-21T14:01:24.132Z</time></trkpt><trkpt lat="44.6907359" lon="8.8165568"><ele>238.0</ele><time>2026-03-21T14:01:25.131Z</time></trkpt><trkpt lat="44.6906288" lon="8.8165454"><ele>239.0</ele><time>2026-03-21T14:01:26.132Z</time></trkpt><trkpt lat="44.6905326" lon="8.8165306"><ele>240.0</ele><time>2026-03-21T14:01:27.132Z</time></trkpt><trkpt lat="44.6904453" lon="8.8165144"><ele>241.0</ele><time>2026-03-21T14:01:28.131Z</time></trkpt><trkpt lat="44.6903668" lon="8.8165032"><ele>242.0</ele><time>2026-03-21T14:01:29.132Z</time></trkpt><trkpt lat="44.6902638" lon="8.8164775"><ele>242.66666666666669</ele><time>2026-03-21T14:01:31.132Z</time></trkpt><trkpt lat="44.6901931" lon="8.816423"><ele>243.33333333333334</ele><time>2026-03-21T14:01:38.132Z</time></trkpt><trkpt lat="44.6901593" lon="8.8163415"><ele>244.0</ele><time>2026-03-21T14:01:39.131Z</time></trkpt><trkpt lat="44.6901119" lon="8.8162473"><ele>244.66666666666669</ele><time>2026-03-21T14:01:40.131Z</time></trkpt><trkpt lat="44.6900574" lon="8.8161329"><ele>245.33333333333334</ele><time>2026-03-21T14:01:41.131Z</time></trkpt><trkpt lat="44.6899948" lon="8.8160136"><ele>246.0</ele><time>2026-03-21T14:01:42.132Z</time></trkpt><trkpt lat="44.6899203" lon="8.8158906"><ele>246.0</ele><time>2026-03-21T14:01:43.131Z</time></trkpt><trkpt lat="44.6898384" lon="8.8157678"><ele>246.0</ele><time>2026-03-21T14:01:44.131Z</time></trkpt><trkpt lat="44.689755" lon="8.8156359"><ele>246.0</ele><time>2026-03-21T14:01:45.132Z</time></trkpt><trkpt lat="44.6896642" lon="8.815486"><ele>246.0</ele><time>2026-03-21T14:01:46.131Z</time></trkpt><trkpt lat="44.6895766" lon="8.8153213"><ele>246.0</ele><time>2026-03-21T14:01:47.131Z</time></trkpt><trkpt lat="44.6894986" lon="8.8151569"><ele>246.0</ele><time>2026-03-21T14:01:48.132Z</time></trkpt><trkpt lat="44.68942" lon="8.8149811"><ele>246.0</ele><time>2026-03-21T14:01:49.131Z</time></trkpt><trkpt lat="44.6893449" lon="8.8147992"><ele>246.0</ele><time>2026-03-21T14:01:50.131Z</time></trkpt><trkpt lat="44.6892722" lon="8.8146117"><ele>246.75</ele><time>2026-03-21T14:01:51.131Z</time></trkpt><trkpt lat="44.6891988" lon="8.8144228"><ele>247.5</ele><time>2026-03-21T14:01:52.131Z</time></trkpt><trkpt lat="44.6891282" lon="8.8142471"><ele>248.25</ele><time>2026-03-21T14:01:53.132Z</time></trkpt><trkpt lat="44.6890675" lon="8.8140849"><ele>249.0</ele><time>2026-03-21T14:01:54.131Z</time></trkpt><trkpt lat="44.6890152" lon="8.8139279"><ele>249.6</ele><time>2026-03-21T14:01:55.132Z</time></trkpt><trkpt lat="44.6889701" lon="8.8137781"><ele>250.2</ele><time>2026-03-21T14:01:56.131Z</time></trkpt><trkpt lat="44.6889351" lon="8.8136297"><ele>250.79999999999998</ele><time>2026-03-21T14:01:57.132Z</time></trkpt><trkpt lat="44.6889052" lon="8.8134839"><ele>251.39999999999998</ele><time>2026-03-21T14:01:58.131Z</time></trkpt><trkpt lat="44.688877" lon="8.8133365"><ele>252.0</ele><time>2026-03-21T14:01:59.132Z</time></trkpt><trkpt lat="44.6888453" lon="8.8131855"><ele>252.8</ele><time>2026-03-21T14:02:00.131Z</time></trkpt><trkpt lat="44.6888198" lon="8.8130367"><ele>253.6</ele><time>2026-03-21T14:02:01.132Z</time></trkpt><trkpt lat="44.6887982" lon="8.8128911"><ele>254.40000000000003</ele><time>2026-03-21T14:02:02.132Z</time></trkpt><trkpt lat="44.688777" lon="8.8127454"><ele>255.20000000000002</ele><time>2026-03-21T14:02:03.132Z</time></trkpt><trkpt lat="44.6887559" lon="8.8126054"><ele>256.0</ele><time>2026-03-21T14:02:04.131Z</time></trkpt><trkpt lat="44.6887378" lon="8.8124686"><ele>257.0</ele><time>2026-03-21T14:02:05.131Z</time></trkpt><trkpt lat="44.6887152" lon="8.8123348"><ele>258.0</ele><time>2026-03-21T14:02:06.132Z</time></trkpt><trkpt lat="44.6886933" lon="8.8122025"><ele>259.0</ele><time>2026-03-21T14:02:07.132Z</time></trkpt><trkpt lat="44.6886727" lon="8.8120758"><ele>260.0</ele><time>2026-03-21T14:02:08.132Z</time></trkpt><trkpt lat="44.6886504" lon="8.8119493"><ele>261.0</ele><time>2026-03-21T14:02:09.131Z</time></trkpt><trkpt lat="44.6886254" lon="8.8118191"><ele>261.40000000000003</ele><time>2026-03-21T14:02:10.131Z</time></trkpt><trkpt lat="44.6885959" lon="8.8116906"><ele>261.8</ele><time>2026-03-21T14:02:11.132Z</time></trkpt><trkpt lat="44.6885559" lon="8.8115709"><ele>262.20000000000005</ele><time>2026-03-21T14:02:12.132Z</time></trkpt><trkpt lat="44.6885034" lon="8.8114566"><ele>262.6</ele><time>2026-03-21T14:02:13.131Z</time></trkpt><trkpt lat="44.6884408" lon="8.8113514"><ele>263.0</ele><time>2026-03-21T14:02:14.131Z</time></trkpt><trkpt lat="44.6883717" lon="8.8112576"><ele>263.0</ele><time>2026-03-21T14:02:15.131Z</time></trkpt><trkpt lat="44.6882963" lon="8.8111691"><ele>263.0</ele><time>2026-03-21T14:02:16.132Z</time></trkpt><trkpt lat="44.6882264" lon="8.8110742"><ele>263.0</ele><time>2026-03-21T14:02:17.131Z</time></trkpt><trkpt lat="44.6881625" lon="8.8109742"><ele>263.0</ele><time>2026-03-21T14:02:18.131Z</time></trkpt><trkpt lat="44.6881072" lon="8.8108589"><ele>263.0</ele><time>2026-03-21T14:02:19.131Z</time></trkpt><trkpt lat="44.6880614" lon="8.8107381"><ele>261.6</ele><time>2026-03-21T14:02:20.131Z</time></trkpt><trkpt lat="44.6880215" lon="8.8106056"><ele>260.20000000000005</ele><time>2026-03-21T14:02:21.131Z</time></trkpt><trkpt lat="44.6879927" lon="8.8104706"><ele>258.8</ele><time>2026-03-21T14:02:22.132Z</time></trkpt><trkpt lat="44.6879756" lon="8.8103322"><ele>257.40000000000003</ele><time>2026-03-21T14:02:23.132Z</time></trkpt><trkpt lat="44.6879626" lon="8.8101967"><ele>256.0</ele><time>2026-03-21T14:02:24.132Z</time></trkpt><trkpt lat="44.6879524" lon="8.8100627"><ele>255.4</ele><time>2026-03-21T14:02:25.131Z</time></trkpt><trkpt lat="44.6879493" lon="8.8099297"><ele>254.8</ele><time>2026-03-21T14:02:26.132Z</time></trkpt><trkpt lat="44.6879451" lon="8.809802"><ele>254.20000000000002</ele><time>2026-03-21T14:02:27.132Z</time></trkpt><trkpt lat="44.6879463" lon="8.8096685"><ele>253.60000000000002</ele><time>2026-03-21T14:02:28.131Z</time></trkpt><trkpt lat="44.6879481" lon="8.8095424"><ele>253.0</ele><time>2026-03-21T14:02:29.131Z</time></trkpt><trkpt lat="44.6879562" lon="8.8094221"><ele>252.49999999999997</ele><time>2026-03-21T14:02:30.131Z</time></trkpt><trkpt lat="44.6879711" lon="8.8093041"><ele>252.0</ele><time>2026-03-21T14:02:31.132Z</time></trkpt><trkpt lat="44.6879797" lon="8.8091856"><ele>251.5</ele><time>2026-03-21T14:02:32.132Z</time></trkpt><trkpt lat="44.6879945" lon="8.8090711"><ele>251.0</ele><time>2026-03-21T14:02:33.131Z</time></trkpt><trkpt lat="44.6880185" lon="8.8089559"><ele>250.49999999999997</ele><time>2026-03-21T14:02:34.132Z</time></trkpt><trkpt lat="44.6880287" lon="8.8088402"><ele>250.0</ele><time>2026-03-21T14:02:35.132Z</time></trkpt><trkpt lat="44.6880376" lon="8.8087302"><ele>249.99999999999997</ele><time>2026-03-21T14:02:36.132Z</time></trkpt><trkpt lat="44.6880537" lon="8.8086213"><ele>250.0</ele><time>2026-03-21T14:02:37.132Z</time></trkpt><trkpt lat="44.6880666" lon="8.8085131"><ele>250.0</ele><time>2026-03-21T14:02:38.132Z</time></trkpt><trkpt lat="44.6880853" lon="8.8084035"><ele>250.0</ele><time>2026-03-21T14:02:39.131Z</time></trkpt><trkpt lat="44.688104" lon="8.808293"><ele>249.99999999999997</ele><time>2026-03-21T14:02:40.132Z</time></trkpt><trkpt lat="44.6881209" lon="8.8081807"><ele>250.0</ele><time>2026-03-21T14:02:41.132Z</time></trkpt><trkpt lat="44.6881337" lon="8.8080687"><ele>249.0</ele><time>2026-03-21T14:02:42.132Z</time></trkpt><trkpt lat="44.6881496" lon="8.8079571"><ele>248.0</ele><time>2026-03-21T14:02:43.132Z</time></trkpt><trkpt lat="44.6881623" lon="8.8078493"><ele>247.0</ele><time>2026-03-21T14:02:44.131Z</time></trkpt><trkpt lat="44.688174" lon="8.8077465"><ele>246.0</ele><time>2026-03-21T14:02:45.131Z</time></trkpt><trkpt lat="44.6881993" lon="8.8075818"><ele>245.0</ele><time>2026-03-21T14:02:47.132Z</time></trkpt><trkpt lat="44.6882149" lon="8.8074433"><ele>243.66666666666669</ele><time>2026-03-21T14:02:49.132Z</time></trkpt><trkpt lat="44.6882326" lon="8.8073261"><ele>242.33333333333334</ele><time>2026-03-21T14:02:51.132Z</time></trkpt><trkpt lat="44.6882536" lon="8.8072184"><ele>241.0</ele><time>2026-03-21T14:02:53.131Z</time></trkpt><trkpt lat="44.6882754" lon="8.807108"><ele>239.66666666666669</ele><time>2026-03-21T14:02:55.132Z</time></trkpt><trkpt lat="44.6882902" lon="8.8069905"><ele>238.33333333333334</ele><time>2026-03-21T14:02:57.131Z</time></trkpt><trkpt lat="44.688306" lon="8.8068498"><ele>237.0</ele><time>2026-03-21T14:02:59.132Z</time></trkpt><trkpt lat="44.688317" lon="8.8067579"><ele>236.16666666666666</ele><time>2026-03-21T14:03:00.131Z</time></trkpt><trkpt lat="44.6883305" lon="8.8066487"><ele>235.33333333333331</ele><time>2026-03-21T14:03:01.132Z</time></trkpt><trkpt lat="44.6883509" lon="8.8065276"><ele>234.5</ele><time>2026-03-21T14:03:02.131Z</time></trkpt><trkpt lat="44.688372" lon="8.8064069"><ele>233.66666666666666</ele><time>2026-03-21T14:03:03.131Z</time></trkpt><trkpt lat="44.6883974" lon="8.8062957"><ele>232.83333333333331</ele><time>2026-03-21T14:03:04.132Z</time></trkpt><trkpt lat="44.688416" lon="8.8061823"><ele>232.0</ele><time>2026-03-21T14:03:05.131Z</time></trkpt><trkpt lat="44.6884301" lon="8.8060747"><ele>231.49999999999997</ele><time>2026-03-21T14:03:06.131Z</time></trkpt><trkpt lat="44.6884442" lon="8.8059793"><ele>231.0</ele><time>2026-03-21T14:03:07.131Z</time></trkpt><trkpt lat="44.688458" lon="8.8058329"><ele>230.5</ele><time>2026-03-21T14:03:09.132Z</time></trkpt><trkpt lat="44.6884637" lon="8.8057156"><ele>230.0</ele><time>2026-03-21T14:03:11.131Z</time></trkpt><trkpt lat="44.6884248" lon="8.8056068"><ele>229.49999999999997</ele><time>2026-03-21T14:03:13.131Z</time></trkpt><trkpt lat="44.6883615" lon="8.8055648"><ele>229.0</ele><time>2026-03-21T14:03:15.132Z</time></trkpt><trkpt lat="44.6882738" lon="8.8055831"><ele>229.0</ele><time>2026-03-21T14:03:18.132Z</time></trkpt><trkpt lat="44.6882035" lon="8.8056264"><ele>228.99999999999997</ele><time>2026-03-21T14:03:20.132Z</time></trkpt><trkpt lat="44.6881388" lon="8.8057127"><ele>228.99999999999997</ele><time>2026-03-21T14:03:22.131Z</time></trkpt><trkpt lat="44.6881009" lon="8.8058512"><ele>229.0</ele><time>2026-03-21T14:03:24.132Z</time></trkpt><trkpt lat="44.6880597" lon="8.8060014"><ele>229.0</ele><time>2026-03-21T14:03:26.131Z</time></trkpt><trkpt lat="44.6880065" lon="8.8061742"><ele>229.49999999999997</ele><time>2026-03-21T14:03:28.132Z</time></trkpt><trkpt lat="44.6879773" lon="8.8062799"><ele>230.0</ele><time>2026-03-21T14:03:29.132Z</time></trkpt><trkpt lat="44.6879512" lon="8.8063995"><ele>230.5</ele><time>2026-03-21T14:03:30.131Z</time></trkpt><trkpt lat="44.6879171" lon="8.8065234"><ele>231.0</ele><time>2026-03-21T14:03:31.132Z</time></trkpt><trkpt lat="44.6878831" lon="8.8066339"><ele>231.49999999999997</ele><time>2026-03-21T14:03:32.132Z</time></trkpt><trkpt lat="44.6878485" lon="8.8067462"><ele>232.0</ele><time>2026-03-21T14:03:33.132Z</time></trkpt><trkpt lat="44.6877898" lon="8.8068286"><ele>231.16666666666666</ele><time>2026-03-21T14:03:34.131Z</time></trkpt><trkpt lat="44.6877176" lon="8.80688"><ele>230.33333333333331</ele><time>2026-03-21T14:03:35.132Z</time></trkpt><trkpt lat="44.6876398" lon="8.8069126"><ele>229.5</ele><time>2026-03-21T14:03:36.132Z</time></trkpt><trkpt lat="44.6875551" lon="8.8069137"><ele>228.66666666666669</ele><time>2026-03-21T14:03:37.131Z</time></trkpt><trkpt lat="44.6874755" lon="8.8069101"><ele>227.83333333333334</ele><time>2026-03-21T14:03:38.131Z</time></trkpt><trkpt lat="44.6874145" lon="8.8068784"><ele>227.0</ele><time>2026-03-21T14:03:39.131Z</time></trkpt><trkpt lat="44.6873537" lon="8.8068488"><ele>226.0</ele><time>2026-03-21T14:03:40.131Z</time></trkpt><trkpt lat="44.6872881" lon="8.8068142"><ele>225.0</ele><time>2026-03-21T14:03:41.131Z</time></trkpt><trkpt lat="44.6872103" lon="8.806783"><ele>224.0</ele><time>2026-03-21T14:03:42.132Z</time></trkpt><trkpt lat="44.6871044" lon="8.8067533"><ele>223.0</ele><time>2026-03-21T14:03:43.131Z</time></trkpt><trkpt lat="44.6869768" lon="8.8066718"><ele>222.0</ele><time>2026-03-21T14:03:44.132Z</time></trkpt><trkpt lat="44.6868627" lon="8.8065924"><ele>220.33333333333331</ele><time>2026-03-21T14:03:45.132Z</time></trkpt><trkpt lat="44.6867297" lon="8.8065501"><ele>218.66666666666666</ele><time>2026-03-21T14:03:46.131Z</time></trkpt><trkpt lat="44.6865644" lon="8.8065483"><ele>217.0</ele><time>2026-03-21T14:03:47.131Z</time></trkpt><trkpt lat="44.6864055" lon="8.8065517"><ele>217.0</ele><time>2026-03-21T14:03:48.132Z</time></trkpt><trkpt lat="44.6862489" lon="8.8065489"><ele>217.0</ele><time>2026-03-21T14:03:49.131Z</time></trkpt><trkpt lat="44.6861054" lon="8.8065427"><ele>217.0</ele><time>2026-03-21T14:03:50.131Z</time></trkpt><trkpt lat="44.6859676" lon="8.8065409"><ele>217.0</ele><time>2026-03-21T14:03:51.132Z</time></trkpt><trkpt lat="44.6858285" lon="8.8065478"><ele>217.5</ele><time>2026-03-21T14:03:52.132Z</time></trkpt><trkpt lat="44.6856906" lon="8.8065831"><ele>218.0</ele><time>2026-03-21T14:03:53.131Z</time></trkpt><trkpt lat="44.6855587" lon="8.8066287"><ele>218.5</ele><time>2026-03-21T14:03:54.132Z</time></trkpt><trkpt lat="44.6854325" lon="8.8066782"><ele>219.0</ele><time>2026-03-21T14:03:55.132Z</time></trkpt><trkpt lat="44.6853238" lon="8.8067231"><ele>218.79999999999998</ele><time>2026-03-21T14:03:56.131Z</time></trkpt><trkpt lat="44.6852324" lon="8.8067509"><ele>218.59999999999997</ele><time>2026-03-21T14:03:57.132Z</time></trkpt><trkpt lat="44.6851651" lon="8.8067438"><ele>218.4</ele><time>2026-03-21T14:03:58.131Z</time></trkpt><trkpt lat="44.6851156" lon="8.8066053"><ele>218.2</ele><time>2026-03-21T14:04:00.132Z</time></trkpt><trkpt lat="44.6851057" lon="8.8064836"><ele>218.0</ele><time>2026-03-21T14:04:01.131Z</time></trkpt><trkpt lat="44.6850934" lon="8.8063416"><ele>218.0</ele><time>2026-03-21T14:04:02.132Z</time></trkpt><trkpt lat="44.6850797" lon="8.8061854"><ele>218.0</ele><time>2026-03-21T14:04:03.131Z</time></trkpt><trkpt lat="44.6850742" lon="8.806026"><ele>218.0</ele><time>2026-03-21T14:04:04.132Z</time></trkpt><trkpt lat="44.6850845" lon="8.8058599"><ele>218.0</ele><time>2026-03-21T14:04:05.132Z</time></trkpt><trkpt lat="44.6851168" lon="8.8057032"><ele>217.5</ele><time>2026-03-21T14:04:06.132Z</time></trkpt><trkpt lat="44.685157" lon="8.8055481"><ele>217.0</ele><time>2026-03-21T14:04:07.132Z</time></trkpt><trkpt lat="44.6851943" lon="8.8053911"><ele>216.5</ele><time>2026-03-21T14:04:08.132Z</time></trkpt><trkpt lat="44.6852291" lon="8.8052418"><ele>216.0</ele><time>2026-03-21T14:04:09.132Z</time></trkpt><trkpt lat="44.6852617" lon="8.8050961"><ele>215.5</ele><time>2026-03-21T14:04:10.132Z</time></trkpt><trkpt lat="44.6852888" lon="8.804956"><ele>215.0</ele><time>2026-03-21T14:04:11.131Z</time></trkpt><trkpt lat="44.6853041" lon="8.8048215"><ele>214.5</ele><time>2026-03-21T14:04:12.131Z</time></trkpt><trkpt lat="44.6853049" lon="8.8046944"><ele>214.0</ele><time>2026-03-21T14:04:13.131Z</time></trkpt><trkpt lat="44.6852977" lon="8.80458"><ele>213.5</ele><time>2026-03-21T14:04:14.132Z</time></trkpt><trkpt lat="44.68529" lon="8.8044804"><ele>213.0</ele><time>2026-03-21T14:04:15.132Z</time></trkpt><trkpt lat="44.6852943" lon="8.8043814"><ele>213.25</ele><time>2026-03-21T14:04:16.132Z</time></trkpt><trkpt lat="44.6853223" lon="8.8042669"><ele>213.5</ele><time>2026-03-21T14:04:17.132Z</time></trkpt><trkpt lat="44.6853797" lon="8.8041376"><ele>213.75</ele><time>2026-03-21T14:04:18.132Z</time></trkpt><trkpt lat="44.6854447" lon="8.8039858"><ele>214.0</ele><time>2026-03-21T14:04:19.131Z</time></trkpt><trkpt lat="44.6855091" lon="8.8038144"><ele>214.0</ele><time>2026-03-21T14:04:20.132Z</time></trkpt><trkpt lat="44.6855792" lon="8.8036347"><ele>214.0</ele><time>2026-03-21T14:04:21.131Z</time></trkpt><trkpt lat="44.6856489" lon="8.8034533"><ele>214.0</ele><time>2026-03-21T14:04:22.131Z</time></trkpt><trkpt lat="44.6857197" lon="8.8032733"><ele>214.0</ele><time>2026-03-21T14:04:23.131Z</time></trkpt><trkpt lat="44.6857866" lon="8.8030937"><ele>213.75</ele><time>2026-03-21T14:04:24.132Z</time></trkpt><trkpt lat="44.685855" lon="8.8029305"><ele>213.5</ele><time>2026-03-21T14:04:25.131Z</time></trkpt><trkpt lat="44.6859176" lon="8.8027779"><ele>213.25</ele><time>2026-03-21T14:04:26.132Z</time></trkpt><trkpt lat="44.6859719" lon="8.8026312"><ele>213.0</ele><time>2026-03-21T14:04:27.131Z</time></trkpt><trkpt lat="44.6860098" lon="8.8024952"><ele>212.8</ele><time>2026-03-21T14:04:28.131Z</time></trkpt><trkpt lat="44.686017" lon="8.8023755"><ele>212.60000000000002</ele><time>2026-03-21T14:04:29.132Z</time></trkpt><trkpt lat="44.6859919" lon="8.802282"><ele>212.39999999999998</ele><time>2026-03-21T14:04:30.131Z</time></trkpt><trkpt lat="44.6859372" lon="8.802213"><ele>212.2</ele><time>2026-03-21T14:04:31.131Z</time></trkpt><trkpt lat="44.6858414" lon="8.8021449"><ele>212.0</ele><time>2026-03-21T14:04:32.132Z</time></trkpt><trkpt lat="44.6857148" lon="8.8020654"><ele>212.0</ele><time>2026-03-21T14:04:33.131Z</time></trkpt><trkpt lat="44.6855751" lon="8.8019543"><ele>212.0</ele><time>2026-03-21T14:04:34.131Z</time></trkpt><trkpt lat="44.6854162" lon="8.8018133"><ele>212.0</ele><time>2026-03-21T14:04:35.132Z</time></trkpt><trkpt lat="44.6852395" lon="8.8016366"><ele>213.0</ele><time>2026-03-21T14:04:36.132Z</time></trkpt><trkpt lat="44.6850489" lon="8.8014267"><ele>214.0</ele><time>2026-03-21T14:04:37.132Z</time></trkpt><trkpt lat="44.6848481" lon="8.8011914"><ele>213.5</ele><time>2026-03-21T14:04:38.131Z</time></trkpt><trkpt lat="44.6846555" lon="8.8009728"><ele>213.0</ele><time>2026-03-21T14:04:39.132Z</time></trkpt><trkpt lat="44.6844765" lon="8.8007752"><ele>213.33333333333331</ele><time>2026-03-21T14:04:40.132Z</time></trkpt><trkpt lat="44.6843124" lon="8.8005903"><ele>213.66666666666666</ele><time>2026-03-21T14:04:41.132Z</time></trkpt><trkpt lat="44.6841707" lon="8.8004288"><ele>214.0</ele><time>2026-03-21T14:04:42.131Z</time></trkpt><trkpt lat="44.6840531" lon="8.800264"><ele>213.66666666666666</ele><time>2026-03-21T14:04:43.132Z</time></trkpt><trkpt lat="44.6839502" lon="8.8000508"><ele>213.33333333333331</ele><time>2026-03-21T14:04:44.132Z</time></trkpt><trkpt lat="44.683856" lon="8.7997828"><ele>213.0</ele><time>2026-03-21T14:04:45.132Z</time></trkpt><trkpt lat="44.6837679" lon="8.7994994"><ele>212.66666666666669</ele><time>2026-03-21T14:04:46.132Z</time></trkpt><trkpt lat="44.6836919" lon="8.7992498"><ele>212.33333333333334</ele><time>2026-03-21T14:04:47.132Z</time></trkpt><trkpt lat="44.6836233" lon="8.7990215"><ele>212.0</ele><time>2026-03-21T14:04:48.132Z</time></trkpt><trkpt lat="44.6835665" lon="8.7988374"><ele>213.2</ele><time>2026-03-21T14:04:49.131Z</time></trkpt><trkpt lat="44.683506" lon="8.7986977"><ele>214.39999999999998</ele><time>2026-03-21T14:04:50.131Z</time></trkpt><trkpt lat="44.6834307" lon="8.7986218"><ele>215.60000000000002</ele><time>2026-03-21T14:04:51.132Z</time></trkpt><trkpt lat="44.6833425" lon="8.7986153"><ele>216.8</ele><time>2026-03-21T14:04:52.131Z</time></trkpt><trkpt lat="44.6832515" lon="8.7986797"><ele>218.0</ele><time>2026-03-21T14:04:53.132Z</time></trkpt><trkpt lat="44.6831688" lon="8.798806"><ele>218.0</ele><time>2026-03-21T14:04:54.132Z</time></trkpt><trkpt lat="44.6830954" lon="8.7989635"><ele>218.0</ele><time>2026-03-21T14:04:55.132Z</time></trkpt><trkpt lat="44.6830254" lon="8.7991497"><ele>218.0</ele><time>2026-03-21T14:04:56.131Z</time></trkpt><trkpt lat="44.6829571" lon="8.7992975"><ele>218.0</ele><time>2026-03-21T14:04:57.131Z</time></trkpt><trkpt lat="44.6828894" lon="8.7993876"><ele>218.4</ele><time>2026-03-21T14:04:58.132Z</time></trkpt><trkpt lat="44.682819" lon="8.799409"><ele>218.8</ele><time>2026-03-21T14:04:59.131Z</time></trkpt><trkpt lat="44.6827521" lon="8.7993642"><ele>219.2</ele><time>2026-03-21T14:05:00.132Z</time></trkpt><trkpt lat="44.6826902" lon="8.799245"><ele>219.6</ele><time>2026-03-21T14:05:01.132Z</time></trkpt><trkpt lat="44.6826112" lon="8.7990784"><ele>220.0</ele><time>2026-03-21T14:05:02.132Z</time></trkpt><trkpt lat="44.6824958" lon="8.7988784"><ele>224.0</ele><time>2026-03-21T14:05:03.132Z</time></trkpt><trkpt lat="44.6823847" lon="8.798711"><ele>228.0</ele><time>2026-03-21T14:05:04.132Z</time></trkpt><trkpt lat="44.6822663" lon="8.7985757"><ele>232.0</ele><time>2026-03-21T14:05:05.132Z</time></trkpt><trkpt lat="44.6821194" lon="8.798452"><ele>235.0</ele><time>2026-03-21T14:05:06.132Z</time></trkpt><trkpt lat="44.6819435" lon="8.798355"><ele>238.0</ele><time>2026-03-21T14:05:07.131Z</time></trkpt><trkpt lat="44.6817811" lon="8.7982682"><ele>241.0</ele><time>2026-03-21T14:05:08.132Z</time></trkpt><trkpt lat="44.681627" lon="8.7981582"><ele>241.0</ele><time>2026-03-21T14:05:09.132Z</time></trkpt><trkpt lat="44.6814885" lon="8.7980118"><ele>241.0</ele><time>2026-03-21T14:05:10.132Z</time></trkpt><trkpt lat="44.6813573" lon="8.7978316"><ele>241.0</ele><time>2026-03-21T14:05:11.132Z</time></trkpt><trkpt lat="44.6812349" lon="8.7976316"><ele>244.66666666666666</ele><time>2026-03-21T14:05:12.131Z</time></trkpt><trkpt lat="44.6811308" lon="8.7974089"><ele>248.33333333333331</ele><time>2026-03-21T14:05:13.132Z</time></trkpt><trkpt lat="44.6810512" lon="8.7971922"><ele>252.0</ele><time>2026-03-21T14:05:14.132Z</time></trkpt><trkpt lat="44.6810045" lon="8.7969973"><ele>252.0</ele><time>2026-03-21T14:05:15.132Z</time></trkpt><trkpt lat="44.6810029" lon="8.7968533"><ele>252.0</ele><time>2026-03-21T14:05:16.132Z</time></trkpt><trkpt lat="44.6810391" lon="8.7967287"><ele>252.0</ele><time>2026-03-21T14:05:17.131Z</time></trkpt><trkpt lat="44.6811333" lon="8.7966017"><ele>252.0</ele><time>2026-03-21T14:05:18.131Z</time></trkpt><trkpt lat="44.6812397" lon="8.7964654"><ele>255.0</ele><time>2026-03-21T14:05:19.132Z</time></trkpt><trkpt lat="44.6813397" lon="8.7963067"><ele>258.0</ele><time>2026-03-21T14:05:20.131Z</time></trkpt><trkpt lat="44.6814435" lon="8.7961183"><ele>261.0</ele><time>2026-03-21T14:05:21.131Z</time></trkpt><trkpt lat="44.6815595" lon="8.7959072"><ele>261.3333333333333</ele><time>2026-03-21T14:05:22.131Z</time></trkpt><trkpt lat="44.6816893" lon="8.7956735"><ele>261.66666666666663</ele><time>2026-03-21T14:05:23.132Z</time></trkpt><trkpt lat="44.6818237" lon="8.7954132"><ele>262.0</ele><time>2026-03-21T14:05:24.131Z</time></trkpt><trkpt lat="44.6819669" lon="8.7951386"><ele>261.0</ele><time>2026-03-21T14:05:25.131Z</time></trkpt><trkpt lat="44.6821013" lon="8.794848"><ele>260.0</ele><time>2026-03-21T14:05:26.132Z</time></trkpt><trkpt lat="44.6822143" lon="8.7945454"><ele>263.0</ele><time>2026-03-21T14:05:27.132Z</time></trkpt><trkpt lat="44.6823151" lon="8.7942391"><ele>266.0</ele><time>2026-03-21T14:05:28.131Z</time></trkpt><trkpt lat="44.6824021" lon="8.7939624"><ele>266.0</ele><time>2026-03-21T14:05:29.132Z</time></trkpt><trkpt lat="44.6824816" lon="8.7937156"><ele>266.0</ele><time>2026-03-21T14:05:30.131Z</time></trkpt><trkpt lat="44.6825537" lon="8.7934995"><ele>266.0</ele><time>2026-03-21T14:05:31.131Z</time></trkpt><trkpt lat="44.6826105" lon="8.7933197"><ele>268.5</ele><time>2026-03-21T14:05:32.132Z</time></trkpt><trkpt lat="44.6826299" lon="8.7931552"><ele>271.0</ele><time>2026-03-21T14:05:33.132Z</time></trkpt><trkpt lat="44.6826034" lon="8.7930059"><ele>273.5</ele><time>2026-03-21T14:05:34.132Z</time></trkpt><trkpt lat="44.6825327" lon="8.7928814"><ele>276.0</ele><time>2026-03-21T14:05:35.131Z</time></trkpt><trkpt lat="44.6824126" lon="8.7927651"><ele>281.0</ele><time>2026-03-21T14:05:36.132Z</time></trkpt><trkpt lat="44.682261" lon="8.7926522"><ele>286.0</ele><time>2026-03-21T14:05:37.132Z</time></trkpt><trkpt lat="44.682103" lon="8.7925531"><ele>291.0</ele><time>2026-03-21T14:05:38.132Z</time></trkpt><trkpt lat="44.6819252" lon="8.7924975"><ele>291.0</ele><time>2026-03-21T14:05:39.132Z</time></trkpt><trkpt lat="44.6817528" lon="8.7924871"><ele>291.0</ele><time>2026-03-21T14:05:40.132Z</time></trkpt><trkpt lat="44.6816019" lon="8.7924933"><ele>291.0</ele><time>2026-03-21T14:05:41.131Z</time></trkpt><trkpt lat="44.6814687" lon="8.792458"><ele>291.0</ele><time>2026-03-21T14:05:42.132Z</time></trkpt><trkpt lat="44.6813502" lon="8.7923658"><ele>291.0</ele><time>2026-03-21T14:05:43.132Z</time></trkpt><trkpt lat="44.6812166" lon="8.7922586"><ele>291.0</ele><time>2026-03-21T14:05:44.132Z</time></trkpt><trkpt lat="44.681047" lon="8.7921872"><ele>292.3333333333333</ele><time>2026-03-21T14:05:45.132Z</time></trkpt><trkpt lat="44.6808389" lon="8.7921558"><ele>293.66666666666663</ele><time>2026-03-21T14:05:46.131Z</time></trkpt><trkpt lat="44.680655" lon="8.7921567"><ele>295.0</ele><time>2026-03-21T14:05:47.131Z</time></trkpt><trkpt lat="44.6804911" lon="8.7921446"><ele>295.0</ele><time>2026-03-21T14:05:48.131Z</time></trkpt><trkpt lat="44.6803613" lon="8.792097"><ele>295.0</ele><time>2026-03-21T14:05:49.131Z</time></trkpt><trkpt lat="44.6802323" lon="8.7920197"><ele>295.0</ele><time>2026-03-21T14:05:50.132Z</time></trkpt><trkpt lat="44.6800911" lon="8.7919429"><ele>295.0</ele><time>2026-03-21T14:05:51.132Z</time></trkpt><trkpt lat="44.6799381" lon="8.7918433"><ele>301.3333333333333</ele><time>2026-03-21T14:05:52.131Z</time></trkpt><trkpt lat="44.6797943" lon="8.7917479"><ele>307.6666666666667</ele><time>2026-03-21T14:05:53.131Z</time></trkpt><trkpt lat="44.6796641" lon="8.7916245"><ele>314.0</ele><time>2026-03-21T14:05:54.131Z</time></trkpt><trkpt lat="44.6795388" lon="8.7914612"><ele>313.6666666666667</ele><time>2026-03-21T14:05:55.131Z</time></trkpt><trkpt lat="44.6794143" lon="8.7912637"><ele>313.3333333333333</ele><time>2026-03-21T14:05:56.132Z</time></trkpt><trkpt lat="44.6792986" lon="8.7910834"><ele>313.0</ele><time>2026-03-21T14:05:57.132Z</time></trkpt><trkpt lat="44.6791763" lon="8.7909358"><ele>316.25</ele><time>2026-03-21T14:05:58.131Z</time></trkpt><trkpt lat="44.6790383" lon="8.7908591"><ele>319.5</ele><time>2026-03-21T14:05:59.132Z</time></trkpt><trkpt lat="44.6788905" lon="8.7908525"><ele>322.75</ele><time>2026-03-21T14:06:00.131Z</time></trkpt><trkpt lat="44.678744" lon="8.7908968"><ele>326.0</ele><time>2026-03-21T14:06:01.131Z</time></trkpt><trkpt lat="44.6786022" lon="8.7909224"><ele>324.25</ele><time>2026-03-21T14:06:02.131Z</time></trkpt><trkpt lat="44.67849" lon="8.790895"><ele>322.5</ele><time>2026-03-21T14:06:03.132Z</time></trkpt><trkpt lat="44.6784086" lon="8.7908023"><ele>320.75</ele><time>2026-03-21T14:06:04.132Z</time></trkpt><trkpt lat="44.6783454" lon="8.790651"><ele>319.0</ele><time>2026-03-21T14:06:05.132Z</time></trkpt><trkpt lat="44.6782863" lon="8.7904448"><ele>319.0</ele><time>2026-03-21T14:06:06.132Z</time></trkpt><trkpt lat="44.6781938" lon="8.7902284"><ele>319.0</ele><time>2026-03-21T14:06:07.132Z</time></trkpt><trkpt lat="44.6780642" lon="8.7900239"><ele>319.0</ele><time>2026-03-21T14:06:08.132Z</time></trkpt><trkpt lat="44.6779473" lon="8.7898219"><ele>321.0</ele><time>2026-03-21T14:06:09.132Z</time></trkpt><trkpt lat="44.6777485" lon="8.789768"><ele>323.0</ele><time>2026-03-21T14:06:10.132Z</time></trkpt><trkpt lat="44.6776183" lon="8.7896242"><ele>325.0</ele><time>2026-03-21T14:06:11.131Z</time></trkpt><trkpt lat="44.677506" lon="8.7894605"><ele>330.25</ele><time>2026-03-21T14:06:12.131Z</time></trkpt><trkpt lat="44.6774121" lon="8.789321"><ele>335.5</ele><time>2026-03-21T14:06:13.132Z</time></trkpt><trkpt lat="44.6773036" lon="8.7892302"><ele>340.75</ele><time>2026-03-21T14:06:14.131Z</time></trkpt><trkpt lat="44.677178" lon="8.789174"><ele>346.0</ele><time>2026-03-21T14:06:15.132Z</time></trkpt><trkpt lat="44.6770509" lon="8.7891597"><ele>346.3333333333333</ele><time>2026-03-21T14:06:16.131Z</time></trkpt><trkpt lat="44.6769078" lon="8.7892247"><ele>346.6666666666667</ele><time>2026-03-21T14:06:17.131Z</time></trkpt><trkpt lat="44.6767819" lon="8.7893392"><ele>347.0</ele><time>2026-03-21T14:06:18.131Z</time></trkpt><trkpt lat="44.6766716" lon="8.7894987"><ele>344.6</ele><time>2026-03-21T14:06:19.132Z</time></trkpt><trkpt lat="44.6765815" lon="8.789642"><ele>342.20000000000005</ele><time>2026-03-21T14:06:20.132Z</time></trkpt><trkpt lat="44.6764923" lon="8.7897339"><ele>339.8</ele><time>2026-03-21T14:06:21.132Z</time></trkpt><trkpt lat="44.6764037" lon="8.7897548"><ele>337.4</ele><time>2026-03-21T14:06:22.132Z</time></trkpt><trkpt lat="44.6763454" lon="8.7897043"><ele>335.0</ele><time>2026-03-21T14:06:23.131Z</time></trkpt><trkpt lat="44.6763168" lon="8.7896059"><ele>335.0</ele><time>2026-03-21T14:06:24.131Z</time></trkpt><trkpt lat="44.6762992" lon="8.7894526"><ele>335.0</ele><time>2026-03-21T14:06:25.131Z</time></trkpt><trkpt lat="44.6762467" lon="8.7892755"><ele>335.0</ele><time>2026-03-21T14:06:26.132Z</time></trkpt><trkpt lat="44.6761594" lon="8.7891105"><ele>335.0</ele><time>2026-03-21T14:06:27.131Z</time></trkpt><trkpt lat="44.6760406" lon="8.7889718"><ele>336.33333333333337</ele><time>2026-03-21T14:06:28.132Z</time></trkpt><trkpt lat="44.675893" lon="8.7888709"><ele>337.6666666666667</ele><time>2026-03-21T14:06:29.131Z</time></trkpt><trkpt lat="44.6757515" lon="8.7887858"><ele>339.0</ele><time>2026-03-21T14:06:30.131Z</time></trkpt><trkpt lat="44.6756313" lon="8.7886768"><ele>339.0</ele><time>2026-03-21T14:06:31.132Z</time></trkpt><trkpt lat="44.6755301" lon="8.7885469"><ele>339.0</ele><time>2026-03-21T14:06:32.132Z</time></trkpt><trkpt lat="44.6754587" lon="8.7884173"><ele>339.0</ele><time>2026-03-21T14:06:33.131Z</time></trkpt><trkpt lat="44.6754294" lon="8.7882886"><ele>339.0</ele><time>2026-03-21T14:06:34.131Z</time></trkpt><trkpt lat="44.6754342" lon="8.7881856"><ele>339.0</ele><time>2026-03-21T14:06:35.132Z</time></trkpt><trkpt lat="44.6754958" lon="8.7880819"><ele>339.0</ele><time>2026-03-21T14:06:37.131Z</time></trkpt><trkpt lat="44.6755522" lon="8.7880102"><ele>339.0</ele><time>2026-03-21T14:06:39.132Z</time></trkpt><trkpt lat="44.6755919" lon="8.7879212"><ele>339.0</ele><time>2026-03-21T14:06:41.131Z</time></trkpt><trkpt lat="44.6756184" lon="8.7878293"><ele>339.0</ele><time>2026-03-21T14:06:43.132Z</time></trkpt><trkpt lat="44.6756072" lon="8.7877151"><ele>339.0</ele><time>2026-03-21T14:06:55.132Z</time></trkpt><trkpt lat="44.6755604" lon="8.7875328"><ele>339.0</ele><time>2026-03-21T14:06:57.131Z</time></trkpt><trkpt lat="44.6755289" lon="8.7874051"><ele>339.0</ele><time>2026-03-21T14:06:58.131Z</time></trkpt><trkpt lat="44.6754901" lon="8.7872638"><ele>339.0</ele><time>2026-03-21T14:06:59.132Z</time></trkpt><trkpt lat="44.6754471" lon="8.7871278"><ele>339.0</ele><time>2026-03-21T14:07:00.132Z</time></trkpt><trkpt lat="44.6753819" lon="8.7869966"><ele>339.0</ele><time>2026-03-21T14:07:01.132Z</time></trkpt><trkpt lat="44.6753068" lon="8.7869063"><ele>339.0</ele><time>2026-03-21T14:07:02.131Z</time></trkpt><trkpt lat="44.6752183" lon="8.7868689"><ele>337.75</ele><time>2026-03-21T14:07:03.132Z</time></trkpt><trkpt lat="44.675096" lon="8.7868859"><ele>336.5</ele><time>2026-03-21T14:07:04.131Z</time></trkpt><trkpt lat="44.6749502" lon="8.7869066"><ele>335.25</ele><time>2026-03-21T14:07:05.132Z</time></trkpt><trkpt lat="44.6747821" lon="8.7868869"><ele>334.0</ele><time>2026-03-21T14:07:06.131Z</time></trkpt><trkpt lat="44.6746024" lon="8.7868184"><ele>333.66666666666663</ele><time>2026-03-21T14:07:07.131Z</time></trkpt><trkpt lat="44.6744295" lon="8.7867153"><ele>333.3333333333333</ele><time>2026-03-21T14:07:08.132Z</time></trkpt><trkpt lat="44.674277" lon="8.7865775"><ele>333.0</ele><time>2026-03-21T14:07:09.132Z</time></trkpt><trkpt lat="44.6741537" lon="8.7864234"><ele>333.0</ele><time>2026-03-21T14:07:10.131Z</time></trkpt><trkpt lat="44.674043" lon="8.7862941"><ele>333.0</ele><time>2026-03-21T14:07:11.131Z</time></trkpt><trkpt lat="44.6739378" lon="8.7862145"><ele>333.0</ele><time>2026-03-21T14:07:12.132Z</time></trkpt><trkpt lat="44.6738412" lon="8.7861756"><ele>333.0</ele><time>2026-03-21T14:07:13.132Z</time></trkpt><trkpt lat="44.6737573" lon="8.7861842"><ele>333.0</ele><time>2026-03-21T14:07:14.132Z</time></trkpt><trkpt lat="44.6736791" lon="8.7862654"><ele>332.59999999999997</ele><time>2026-03-21T14:07:15.131Z</time></trkpt><trkpt lat="44.6735964" lon="8.7863898"><ele>332.2</ele><time>2026-03-21T14:07:16.131Z</time></trkpt><trkpt lat="44.6735024" lon="8.7864889"><ele>331.8</ele><time>2026-03-21T14:07:17.131Z</time></trkpt><trkpt lat="44.6734036" lon="8.7865338"><ele>331.4</ele><time>2026-03-21T14:07:18.132Z</time></trkpt><trkpt lat="44.6732981" lon="8.7865203"><ele>331.0</ele><time>2026-03-21T14:07:19.131Z</time></trkpt><trkpt lat="44.6731942" lon="8.7864411"><ele>331.0</ele><time>2026-03-21T14:07:20.132Z</time></trkpt><trkpt lat="44.6730856" lon="8.7863174"><ele>331.0</ele><time>2026-03-21T14:07:21.132Z</time></trkpt><trkpt lat="44.6729563" lon="8.7861759"><ele>331.0</ele><time>2026-03-21T14:07:22.131Z</time></trkpt><trkpt lat="44.6728349" lon="8.786044"><ele>326.3333333333333</ele><time>2026-03-21T14:07:23.131Z</time></trkpt><trkpt lat="44.6726994" lon="8.7859255"><ele>321.6666666666667</ele><time>2026-03-21T14:07:24.132Z</time></trkpt><trkpt lat="44.6725415" lon="8.7858241"><ele>317.0</ele><time>2026-03-21T14:07:25.132Z</time></trkpt><trkpt lat="44.6723674" lon="8.7857327"><ele>317.0</ele><time>2026-03-21T14:07:26.132Z</time></trkpt><trkpt lat="44.6721952" lon="8.7856608"><ele>317.0</ele><time>2026-03-21T14:07:27.132Z</time></trkpt><trkpt lat="44.6720202" lon="8.7856076"><ele>317.0</ele><time>2026-03-21T14:07:28.131Z</time></trkpt><trkpt lat="44.6718358" lon="8.7855976"><ele>317.0</ele><time>2026-03-21T14:07:29.131Z</time></trkpt><trkpt lat="44.6716551" lon="8.7856124"><ele>317.0</ele><time>2026-03-21T14:07:30.132Z</time></trkpt><trkpt lat="44.6714887" lon="8.7856235"><ele>317.0</ele><time>2026-03-21T14:07:31.132Z</time></trkpt><trkpt lat="44.6713408" lon="8.7856005"><ele>317.0</ele><time>2026-03-21T14:07:32.131Z</time></trkpt><trkpt lat="44.6712272" lon="8.7855385"><ele>317.0</ele><time>2026-03-21T14:07:33.131Z</time></trkpt><trkpt lat="44.6711438" lon="8.785416"><ele>317.0</ele><time>2026-03-21T14:07:34.132Z</time></trkpt><trkpt lat="44.6710817" lon="8.7852453"><ele>317.0</ele><time>2026-03-21T14:07:35.131Z</time></trkpt><trkpt lat="44.6710344" lon="8.7850468"><ele>315.0</ele><time>2026-03-21T14:07:36.132Z</time></trkpt><trkpt lat="44.6710139" lon="8.7848783"><ele>313.0</ele><time>2026-03-21T14:07:37.131Z</time></trkpt><trkpt lat="44.6710347" lon="8.7847332"><ele>311.0</ele><time>2026-03-21T14:07:38.132Z</time></trkpt><trkpt lat="44.6711024" lon="8.7846171"><ele>309.0</ele><time>2026-03-21T14:07:39.132Z</time></trkpt><trkpt lat="44.671225" lon="8.7845185"><ele>309.3333333333333</ele><time>2026-03-21T14:07:40.132Z</time></trkpt><trkpt lat="44.671398" lon="8.7844278"><ele>309.66666666666663</ele><time>2026-03-21T14:07:41.132Z</time></trkpt><trkpt lat="44.6715729" lon="8.7843401"><ele>310.0</ele><time>2026-03-21T14:07:42.132Z</time></trkpt><trkpt lat="44.6717264" lon="8.784254"><ele>310.0</ele><time>2026-03-21T14:07:43.132Z</time></trkpt><trkpt lat="44.6718598" lon="8.7841459"><ele>310.0</ele><time>2026-03-21T14:07:44.132Z</time></trkpt><trkpt lat="44.6719798" lon="8.7839853"><ele>310.0</ele><time>2026-03-21T14:07:45.131Z</time></trkpt><trkpt lat="44.6720963" lon="8.7837823"><ele>310.3333333333333</ele><time>2026-03-21T14:07:46.132Z</time></trkpt><trkpt lat="44.6722126" lon="8.7835569"><ele>310.6666666666667</ele><time>2026-03-21T14:07:47.131Z</time></trkpt><trkpt lat="44.6723189" lon="8.7833447"><ele>311.0</ele><time>2026-03-21T14:07:48.131Z</time></trkpt><trkpt lat="44.6724047" lon="8.7831498"><ele>311.0</ele><time>2026-03-21T14:07:49.132Z</time></trkpt><trkpt lat="44.6724725" lon="8.7829715"><ele>311.0</ele><time>2026-03-21T14:07:50.132Z</time></trkpt><trkpt lat="44.6725067" lon="8.7827883"><ele>311.0</ele><time>2026-03-21T14:07:51.132Z</time></trkpt><trkpt lat="44.6725133" lon="8.7825941"><ele>311.0</ele><time>2026-03-21T14:07:52.132Z</time></trkpt><trkpt lat="44.6725131" lon="8.7824274"><ele>311.83333333333337</ele><time>2026-03-21T14:07:53.132Z</time></trkpt><trkpt lat="44.6725039" lon="8.782265"><ele>312.6666666666667</ele><time>2026-03-21T14:07:54.131Z</time></trkpt><trkpt lat="44.6724948" lon="8.7821349"><ele>313.5</ele><time>2026-03-21T14:07:55.131Z</time></trkpt><trkpt lat="44.6724824" lon="8.7820215"><ele>314.3333333333333</ele><time>2026-03-21T14:07:56.132Z</time></trkpt><trkpt lat="44.6724719" lon="8.7819133"><ele>315.16666666666663</ele><time>2026-03-21T14:07:57.131Z</time></trkpt><trkpt lat="44.6724588" lon="8.781823"><ele>316.0</ele><time>2026-03-21T14:07:58.131Z</time></trkpt><trkpt lat="44.6724214" lon="8.7817455"><ele>316.0</ele><time>2026-03-21T14:07:59.132Z</time></trkpt><trkpt lat="44.6723166" lon="8.7817025"><ele>316.0</ele><time>2026-03-21T14:08:01.131Z</time></trkpt><trkpt lat="44.672192" lon="8.7817293"><ele>316.0</ele><time>2026-03-21T14:08:03.131Z</time></trkpt><trkpt lat="44.6721258" lon="8.7817464"><ele>316.0</ele><time>2026-03-21T14:08:04.131Z</time></trkpt><trkpt lat="44.6720615" lon="8.7817626"><ele>316.0</ele><time>2026-03-21T14:08:05.131Z</time></trkpt><trkpt lat="44.6719893" lon="8.7817777"><ele>316.0</ele><time>2026-03-21T14:08:06.131Z</time></trkpt><trkpt lat="44.6719222" lon="8.7817952"><ele>313.3333333333333</ele><time>2026-03-21T14:08:07.132Z</time></trkpt><trkpt lat="44.6718518" lon="8.7818198"><ele>310.66666666666663</ele><time>2026-03-21T14:08:08.131Z</time></trkpt><trkpt lat="44.6717895" lon="8.7818411"><ele>308.0</ele><time>2026-03-21T14:08:09.132Z</time></trkpt><trkpt lat="44.6717112" lon="8.7818412"><ele>305.3333333333333</ele><time>2026-03-21T14:08:11.131Z</time></trkpt><trkpt lat="44.6717013" lon="8.7817489"><ele>302.6666666666667</ele><time>2026-03-21T14:08:13.131Z</time></trkpt><trkpt lat="44.6718178" lon="8.7816192"><ele>300.0</ele><time>2026-03-21T14:08:15.131Z</time></trkpt><trkpt lat="44.6719115" lon="8.7815431"><ele>301.5</ele><time>2026-03-21T14:08:16.132Z</time></trkpt><trkpt lat="44.6720056" lon="8.7814305"><ele>303.0</ele><time>2026-03-21T14:08:17.131Z</time></trkpt><trkpt lat="44.6720907" lon="8.7812896"><ele>304.5</ele><time>2026-03-21T14:08:18.131Z</time></trkpt><trkpt lat="44.6721519" lon="8.781122"><ele>306.0</ele><time>2026-03-21T14:08:19.132Z</time></trkpt><trkpt lat="44.6721933" lon="8.7809412"><ele>306.0</ele><time>2026-03-21T14:08:20.132Z</time></trkpt><trkpt lat="44.6721948" lon="8.7807435"><ele>306.0</ele><time>2026-03-21T14:08:21.131Z</time></trkpt><trkpt lat="44.6721661" lon="8.7805358"><ele>306.0</ele><time>2026-03-21T14:08:22.132Z</time></trkpt><trkpt lat="44.6721371" lon="8.780323"><ele>306.0</ele><time>2026-03-21T14:08:23.132Z</time></trkpt><trkpt lat="44.6721142" lon="8.7801007"><ele>304.75</ele><time>2026-03-21T14:08:24.132Z</time></trkpt><trkpt lat="44.6720893" lon="8.7798928"><ele>303.5</ele><time>2026-03-21T14:08:25.131Z</time></trkpt><trkpt lat="44.6720707" lon="8.7796911"><ele>302.25</ele><time>2026-03-21T14:08:26.132Z</time></trkpt><trkpt lat="44.672063" lon="8.779501"><ele>301.0</ele><time>2026-03-21T14:08:27.132Z</time></trkpt><trkpt lat="44.6720615" lon="8.7793195"><ele>300.6</ele><time>2026-03-21T14:08:28.132Z</time></trkpt><trkpt lat="44.6720683" lon="8.779153"><ele>300.20000000000005</ele><time>2026-03-21T14:08:29.131Z</time></trkpt><trkpt lat="44.6720947" lon="8.7790088"><ele>299.79999999999995</ele><time>2026-03-21T14:08:30.131Z</time></trkpt><trkpt lat="44.6721491" lon="8.7788837"><ele>299.4</ele><time>2026-03-21T14:08:31.132Z</time></trkpt><trkpt lat="44.6722287" lon="8.7787922"><ele>299.0</ele><time>2026-03-21T14:08:32.132Z</time></trkpt><trkpt lat="44.672306" lon="8.7786976"><ele>299.0</ele><time>2026-03-21T14:08:33.132Z</time></trkpt><trkpt lat="44.6723866" lon="8.7785781"><ele>299.0</ele><time>2026-03-21T14:08:34.131Z</time></trkpt><trkpt lat="44.6724686" lon="8.7784152"><ele>299.0</ele><time>2026-03-21T14:08:35.131Z</time></trkpt><trkpt lat="44.6725472" lon="8.7782557"><ele>299.0</ele><time>2026-03-21T14:08:36.131Z</time></trkpt><trkpt lat="44.6726197" lon="8.778104"><ele>295.0</ele><time>2026-03-21T14:08:37.131Z</time></trkpt><trkpt lat="44.6726816" lon="8.7779489"><ele>291.0</ele><time>2026-03-21T14:08:38.131Z</time></trkpt><trkpt lat="44.6727176" lon="8.7777998"><ele>287.0</ele><time>2026-03-21T14:08:39.132Z</time></trkpt><trkpt lat="44.6727203" lon="8.7776401"><ele>283.0</ele><time>2026-03-21T14:08:40.131Z</time></trkpt><trkpt lat="44.6726723" lon="8.7774739"><ele>280.3333333333333</ele><time>2026-03-21T14:08:41.132Z</time></trkpt><trkpt lat="44.6725906" lon="8.7773145"><ele>277.6666666666667</ele><time>2026-03-21T14:08:42.131Z</time></trkpt><trkpt lat="44.6724799" lon="8.7771564"><ele>275.0</ele><time>2026-03-21T14:08:43.132Z</time></trkpt><trkpt lat="44.672361" lon="8.7770103"><ele>275.0</ele><time>2026-03-21T14:08:44.132Z</time></trkpt><trkpt lat="44.6722458" lon="8.7768671"><ele>275.0</ele><time>2026-03-21T14:08:45.131Z</time></trkpt><trkpt lat="44.6721493" lon="8.7767218"><ele>275.0</ele><time>2026-03-21T14:08:46.132Z</time></trkpt><trkpt lat="44.672071" lon="8.7765666"><ele>275.0</ele><time>2026-03-21T14:08:47.132Z</time></trkpt><trkpt lat="44.6720268" lon="8.7764187"><ele>275.75</ele><time>2026-03-21T14:08:48.132Z</time></trkpt><trkpt lat="44.6720188" lon="8.7762825"><ele>276.5</ele><time>2026-03-21T14:08:49.131Z</time></trkpt><trkpt lat="44.6720539" lon="8.776145"><ele>277.25</ele><time>2026-03-21T14:08:50.132Z</time></trkpt><trkpt lat="44.6721102" lon="8.775986"><ele>278.0</ele><time>2026-03-21T14:08:51.132Z</time></trkpt><trkpt lat="44.6721711" lon="8.7758012"><ele>274.33333333333337</ele><time>2026-03-21T14:08:52.132Z</time></trkpt><trkpt lat="44.6722297" lon="8.7755852"><ele>270.6666666666667</ele><time>2026-03-21T14:08:53.131Z</time></trkpt><trkpt lat="44.6722792" lon="8.7753509"><ele>267.0</ele><time>2026-03-21T14:08:54.132Z</time></trkpt><trkpt lat="44.6723153" lon="8.7751228"><ele>262.25</ele><time>2026-03-21T14:08:55.132Z</time></trkpt><trkpt lat="44.6723479" lon="8.7749152"><ele>257.5</ele><time>2026-03-21T14:08:56.131Z</time></trkpt><trkpt lat="44.672389" lon="8.7747439"><ele>252.75</ele><time>2026-03-21T14:08:57.132Z</time></trkpt><trkpt lat="44.6724533" lon="8.7746024"><ele>248.0</ele><time>2026-03-21T14:08:58.131Z</time></trkpt><trkpt lat="44.6725393" lon="8.7745062"><ele>248.0</ele><time>2026-03-21T14:08:59.131Z</time></trkpt><trkpt lat="44.6726434" lon="8.774459"><ele>248.0</ele><time>2026-03-21T14:09:00.131Z</time></trkpt><trkpt lat="44.6727527" lon="8.7744507"><ele>248.0</ele><time>2026-03-21T14:09:01.132Z</time></trkpt><trkpt lat="44.6728625" lon="8.7744884"><ele>248.0</ele><time>2026-03-21T14:09:02.132Z</time></trkpt><trkpt lat="44.6729679" lon="8.7745166"><ele>248.0</ele><time>2026-03-21T14:09:03.131Z</time></trkpt><trkpt lat="44.6730663" lon="8.7745045"><ele>247.0</ele><time>2026-03-21T14:09:04.132Z</time></trkpt><trkpt lat="44.6731447" lon="8.7744447"><ele>246.0</ele><time>2026-03-21T14:09:05.132Z</time></trkpt><trkpt lat="44.6731779" lon="8.7743365"><ele>245.0</ele><time>2026-03-21T14:09:06.132Z</time></trkpt><trkpt lat="44.6731675" lon="8.7742147"><ele>244.0</ele><time>2026-03-21T14:09:07.131Z</time></trkpt><trkpt lat="44.6731108" lon="8.7740857"><ele>243.0</ele><time>2026-03-21T14:09:08.131Z</time></trkpt><trkpt lat="44.6730257" lon="8.7739594"><ele>243.0</ele><time>2026-03-21T14:09:09.131Z</time></trkpt><trkpt lat="44.6729228" lon="8.7738263"><ele>243.0</ele><time>2026-03-21T14:09:10.132Z</time></trkpt><trkpt lat="44.6728042" lon="8.7737042"><ele>243.0</ele><time>2026-03-21T14:09:11.131Z</time></trkpt><trkpt lat="44.672671" lon="8.7735851"><ele>243.0</ele><time>2026-03-21T14:09:12.131Z</time></trkpt><trkpt lat="44.6725327" lon="8.773472"><ele>237.66666666666669</ele><time>2026-03-21T14:09:13.131Z</time></trkpt><trkpt lat="44.672394" lon="8.7733622"><ele>232.33333333333334</ele><time>2026-03-21T14:09:14.132Z</time></trkpt><trkpt lat="44.6722597" lon="8.7732546"><ele>227.0</ele><time>2026-03-21T14:09:15.132Z</time></trkpt><trkpt lat="44.6721305" lon="8.7731493"><ele>227.0</ele><time>2026-03-21T14:09:16.132Z</time></trkpt><trkpt lat="44.67201" lon="8.773049"><ele>227.0</ele><time>2026-03-21T14:09:17.131Z</time></trkpt><trkpt lat="44.6718971" lon="8.7729557"><ele>227.0</ele><time>2026-03-21T14:09:18.132Z</time></trkpt><trkpt lat="44.6717907" lon="8.7728683"><ele>227.0</ele><time>2026-03-21T14:09:19.131Z</time></trkpt><trkpt lat="44.6716982" lon="8.7727958"><ele>226.50000000000003</ele><time>2026-03-21T14:09:20.132Z</time></trkpt><trkpt lat="44.6716192" lon="8.7727324"><ele>226.0</ele><time>2026-03-21T14:09:21.132Z</time></trkpt><trkpt lat="44.6715518" lon="8.7726812"><ele>225.5</ele><time>2026-03-21T14:09:22.132Z</time></trkpt><trkpt lat="44.6714927" lon="8.7726367"><ele>225.0</ele><time>2026-03-21T14:09:23.131Z</time></trkpt><trkpt lat="44.6713977" lon="8.7726178"><ele>224.50000000000003</ele><time>2026-03-21T14:09:25.131Z</time></trkpt><trkpt lat="44.6713397" lon="8.7726763"><ele>224.0</ele><time>2026-03-21T14:09:27.132Z</time></trkpt><trkpt lat="44.6712931" lon="8.7727471"><ele>224.0</ele><time>2026-03-21T14:09:30.131Z</time></trkpt><trkpt lat="44.6712019" lon="8.7728563"><ele>223.99999999999997</ele><time>2026-03-21T14:09:36.131Z</time></trkpt><trkpt lat="44.6711379" lon="8.7729243"><ele>223.99999999999997</ele><time>2026-03-21T14:09:37.132Z</time></trkpt><trkpt lat="44.6710654" lon="8.7730006"><ele>224.0</ele><time>2026-03-21T14:09:38.132Z</time></trkpt><trkpt lat="44.6709947" lon="8.7730825"><ele>224.0</ele><time>2026-03-21T14:09:39.131Z</time></trkpt><trkpt lat="44.6709136" lon="8.7731726"><ele>224.0</ele><time>2026-03-21T14:09:40.132Z</time></trkpt><trkpt lat="44.670825" lon="8.7732737"><ele>224.0</ele><time>2026-03-21T14:09:41.132Z</time></trkpt><trkpt lat="44.6707278" lon="8.7733756"><ele>224.0</ele><time>2026-03-21T14:09:42.132Z</time></trkpt><trkpt lat="44.6706276" lon="8.7734864"><ele>224.0</ele><time>2026-03-21T14:09:43.132Z</time></trkpt><trkpt lat="44.6705274" lon="8.7735908"><ele>224.0</ele><time>2026-03-21T14:09:44.132Z</time></trkpt><trkpt lat="44.6704274" lon="8.7737037"><ele>224.0</ele><time>2026-03-21T14:09:45.132Z</time></trkpt><trkpt lat="44.6703234" lon="8.7738228"><ele>224.0</ele><time>2026-03-21T14:09:46.131Z</time></trkpt><trkpt lat="44.6702143" lon="8.7739448"><ele>224.0</ele><time>2026-03-21T14:09:47.132Z</time></trkpt><trkpt lat="44.6700988" lon="8.7740734"><ele>224.33333333333334</ele><time>2026-03-21T14:09:48.131Z</time></trkpt><trkpt lat="44.6699838" lon="8.774204"><ele>224.66666666666669</ele><time>2026-03-21T14:09:49.131Z</time></trkpt><trkpt lat="44.6698667" lon="8.7743381"><ele>225.0</ele><time>2026-03-21T14:09:50.132Z</time></trkpt><trkpt lat="44.6697437" lon="8.7744755"><ele>226.0</ele><time>2026-03-21T14:09:51.132Z</time></trkpt><trkpt lat="44.6696213" lon="8.7746136"><ele>227.0</ele><time>2026-03-21T14:09:52.132Z</time></trkpt><trkpt lat="44.6694939" lon="8.7747573"><ele>228.0</ele><time>2026-03-21T14:09:53.132Z</time></trkpt><trkpt lat="44.6693629" lon="8.7748922"><ele>228.0</ele><time>2026-03-21T14:09:54.132Z</time></trkpt><trkpt lat="44.6692393" lon="8.7750428"><ele>228.0</ele><time>2026-03-21T14:09:55.131Z</time></trkpt><trkpt lat="44.6691179" lon="8.7751886"><ele>228.0</ele><time>2026-03-21T14:09:56.132Z</time></trkpt><trkpt lat="44.6689949" lon="8.7753329"><ele>229.33333333333331</ele><time>2026-03-21T14:09:57.131Z</time></trkpt><trkpt lat="44.6688716" lon="8.7754747"><ele>230.66666666666666</ele><time>2026-03-21T14:09:58.132Z</time></trkpt><trkpt lat="44.6687497" lon="8.7756085"><ele>232.0</ele><time>2026-03-21T14:09:59.132Z</time></trkpt><trkpt lat="44.6686273" lon="8.7757196"><ele>232.5</ele><time>2026-03-21T14:10:00.132Z</time></trkpt><trkpt lat="44.6684916" lon="8.7757921"><ele>233.0</ele><time>2026-03-21T14:10:01.131Z</time></trkpt><trkpt lat="44.6683489" lon="8.7758088"><ele>233.5</ele><time>2026-03-21T14:10:02.131Z</time></trkpt><trkpt lat="44.6682074" lon="8.7757624"><ele>234.0</ele><time>2026-03-21T14:10:03.131Z</time></trkpt><trkpt lat="44.6680723" lon="8.7756734"><ele>234.0</ele><time>2026-03-21T14:10:04.131Z</time></trkpt><trkpt lat="44.6679267" lon="8.7755779"><ele>234.0</ele><time>2026-03-21T14:10:05.131Z</time></trkpt><trkpt lat="44.667775" lon="8.7754848"><ele>234.0</ele><time>2026-03-21T14:10:06.131Z</time></trkpt><trkpt lat="44.6676167" lon="8.775405"><ele>234.33333333333331</ele><time>2026-03-21T14:10:07.131Z</time></trkpt><trkpt lat="44.6674527" lon="8.7753408"><ele>234.66666666666666</ele><time>2026-03-21T14:10:08.132Z</time></trkpt><trkpt lat="44.6672884" lon="8.7752753"><ele>235.0</ele><time>2026-03-21T14:10:09.132Z</time></trkpt><trkpt lat="44.6671263" lon="8.775185"><ele>235.0</ele><time>2026-03-21T14:10:10.132Z</time></trkpt><trkpt lat="44.6669652" lon="8.7750746"><ele>235.0</ele><time>2026-03-21T14:10:11.132Z</time></trkpt><trkpt lat="44.6668071" lon="8.7749545"><ele>235.0</ele><time>2026-03-21T14:10:12.132Z</time></trkpt><trkpt lat="44.6666465" lon="8.7748306"><ele>236.66666666666666</ele><time>2026-03-21T14:10:13.132Z</time></trkpt><trkpt lat="44.6664854" lon="8.7747041"><ele>238.33333333333331</ele><time>2026-03-21T14:10:14.131Z</time></trkpt><trkpt lat="44.6663176" lon="8.7745877"><ele>240.0</ele><time>2026-03-21T14:10:15.131Z</time></trkpt><trkpt lat="44.6661483" lon="8.7744764"><ele>239.33333333333331</ele><time>2026-03-21T14:10:16.131Z</time></trkpt><trkpt lat="44.6659803" lon="8.7743775"><ele>238.66666666666666</ele><time>2026-03-21T14:10:17.131Z</time></trkpt><trkpt lat="44.6658117" lon="8.7742739"><ele>238.0</ele><time>2026-03-21T14:10:18.131Z</time></trkpt><trkpt lat="44.6656513" lon="8.7741591"><ele>238.0</ele><time>2026-03-21T14:10:19.132Z</time></trkpt><trkpt lat="44.6655055" lon="8.774016"><ele>238.0</ele><time>2026-03-21T14:10:20.132Z</time></trkpt><trkpt lat="44.6653766" lon="8.7738507"><ele>238.0</ele><time>2026-03-21T14:10:21.131Z</time></trkpt><trkpt lat="44.6652473" lon="8.7736732"><ele>238.0</ele><time>2026-03-21T14:10:22.132Z</time></trkpt><trkpt lat="44.6651152" lon="8.7734927"><ele>238.0</ele><time>2026-03-21T14:10:23.131Z</time></trkpt><trkpt lat="44.6649723" lon="8.7733105"><ele>238.0</ele><time>2026-03-21T14:10:24.131Z</time></trkpt><trkpt lat="44.6648295" lon="8.7731371"><ele>238.0</ele><time>2026-03-21T14:10:25.132Z</time></trkpt><trkpt lat="44.6646882" lon="8.7729722"><ele>238.0</ele><time>2026-03-21T14:10:26.131Z</time></trkpt><trkpt lat="44.6645513" lon="8.7728105"><ele>238.0</ele><time>2026-03-21T14:10:27.132Z</time></trkpt><trkpt lat="44.6644214" lon="8.7726638"><ele>234.75</ele><time>2026-03-21T14:10:28.131Z</time></trkpt><trkpt lat="44.6642949" lon="8.7725405"><ele>231.5</ele><time>2026-03-21T14:10:29.131Z</time></trkpt><trkpt lat="44.6641682" lon="8.7724555"><ele>228.25</ele><time>2026-03-21T14:10:30.132Z</time></trkpt><trkpt lat="44.6640392" lon="8.7724236"><ele>225.0</ele><time>2026-03-21T14:10:31.131Z</time></trkpt><trkpt lat="44.6638997" lon="8.7724456"><ele>225.0</ele><time>2026-03-21T14:10:32.131Z</time></trkpt><trkpt lat="44.6637604" lon="8.772498"><ele>225.0</ele><time>2026-03-21T14:10:33.131Z</time></trkpt><trkpt lat="44.663614" lon="8.7725793"><ele>225.0</ele><time>2026-03-21T14:10:34.131Z</time></trkpt><trkpt lat="44.6634622" lon="8.7726703"><ele>226.0</ele><time>2026-03-21T14:10:35.131Z</time></trkpt><trkpt lat="44.6633127" lon="8.7727688"><ele>227.0</ele><time>2026-03-21T14:10:36.132Z</time></trkpt><trkpt lat="44.6631615" lon="8.7728592"><ele>228.0</ele><time>2026-03-21T14:10:37.131Z</time></trkpt><trkpt lat="44.6630093" lon="8.772958"><ele>228.0</ele><time>2026-03-21T14:10:38.132Z</time></trkpt><trkpt lat="44.6628565" lon="8.7730591"><ele>228.0</ele><time>2026-03-21T14:10:39.131Z</time></trkpt><trkpt lat="44.6627001" lon="8.7731608"><ele>228.0</ele><time>2026-03-21T14:10:40.131Z</time></trkpt><trkpt lat="44.6625436" lon="8.7732613"><ele>226.66666666666669</ele><time>2026-03-21T14:10:41.132Z</time></trkpt><trkpt lat="44.6623823" lon="8.7733652"><ele>225.33333333333334</ele><time>2026-03-21T14:10:42.131Z</time></trkpt><trkpt lat="44.6622196" lon="8.7734709"><ele>224.0</ele><time>2026-03-21T14:10:43.132Z</time></trkpt><trkpt lat="44.6620562" lon="8.7735752"><ele>225.66666666666669</ele><time>2026-03-21T14:10:44.131Z</time></trkpt><trkpt lat="44.6618909" lon="8.773685"><ele>227.33333333333331</ele><time>2026-03-21T14:10:45.131Z</time></trkpt><trkpt lat="44.6617255" lon="8.7737963"><ele>229.0</ele><time>2026-03-21T14:10:46.132Z</time></trkpt><trkpt lat="44.6615559" lon="8.7739021"><ele>229.0</ele><time>2026-03-21T14:10:47.132Z</time></trkpt><trkpt lat="44.6613882" lon="8.7740056"><ele>229.0</ele><time>2026-03-21T14:10:48.132Z</time></trkpt><trkpt lat="44.6612221" lon="8.7741077"><ele>229.0</ele><time>2026-03-21T14:10:49.131Z</time></trkpt><trkpt lat="44.6610517" lon="8.7742143"><ele>229.33333333333331</ele><time>2026-03-21T14:10:50.131Z</time></trkpt><trkpt lat="44.660881" lon="8.7743184"><ele>229.66666666666669</ele><time>2026-03-21T14:10:51.131Z</time></trkpt><trkpt lat="44.6607131" lon="8.774432"><ele>230.0</ele><time>2026-03-21T14:10:52.132Z</time></trkpt><trkpt lat="44.6605475" lon="8.7745417"><ele>230.0</ele><time>2026-03-21T14:10:53.131Z</time></trkpt><trkpt lat="44.6603776" lon="8.7746533"><ele>230.0</ele><time>2026-03-21T14:10:54.132Z</time></trkpt><trkpt lat="44.6602158" lon="8.7747593"><ele>230.0</ele><time>2026-03-21T14:10:55.131Z</time></trkpt><trkpt lat="44.6600643" lon="8.7748578"><ele>229.0</ele><time>2026-03-21T14:10:56.132Z</time></trkpt><trkpt lat="44.6599234" lon="8.7749532"><ele>228.0</ele><time>2026-03-21T14:10:57.132Z</time></trkpt><trkpt lat="44.6597889" lon="8.7750397"><ele>227.0</ele><time>2026-03-21T14:10:58.131Z</time></trkpt><trkpt lat="44.6596665" lon="8.7751034"><ele>226.0</ele><time>2026-03-21T14:10:59.131Z</time></trkpt><trkpt lat="44.6595568" lon="8.7751181"><ele>226.0</ele><time>2026-03-21T14:11:00.132Z</time></trkpt><trkpt lat="44.659462" lon="8.7750792"><ele>226.0</ele><time>2026-03-21T14:11:01.132Z</time></trkpt><trkpt lat="44.6593886" lon="8.7749677"><ele>226.0</ele><time>2026-03-21T14:11:02.131Z</time></trkpt><trkpt lat="44.6593361" lon="8.7748175"><ele>226.0</ele><time>2026-03-21T14:11:03.131Z</time></trkpt><trkpt lat="44.6592857" lon="8.7746444"><ele>226.66666666666666</ele><time>2026-03-21T14:11:04.131Z</time></trkpt><trkpt lat="44.6592183" lon="8.7744639"><ele>227.33333333333331</ele><time>2026-03-21T14:11:05.131Z</time></trkpt><trkpt lat="44.6591349" lon="8.7742853"><ele>228.0</ele><time>2026-03-21T14:11:06.13Z</time></trkpt><trkpt lat="44.6590299" lon="8.7741164"><ele>228.0</ele><time>2026-03-21T14:11:07.131Z</time></trkpt><trkpt lat="44.6589103" lon="8.7739673"><ele>228.0</ele><time>2026-03-21T14:11:08.132Z</time></trkpt><trkpt lat="44.6587679" lon="8.7738427"><ele>228.0</ele><time>2026-03-21T14:11:09.132Z</time></trkpt><trkpt lat="44.658611" lon="8.7737414"><ele>228.33333333333331</ele><time>2026-03-21T14:11:10.131Z</time></trkpt><trkpt lat="44.6584442" lon="8.7736512"><ele>228.66666666666666</ele><time>2026-03-21T14:11:11.131Z</time></trkpt><trkpt lat="44.6582739" lon="8.7735653"><ele>229.0</ele><time>2026-03-21T14:11:12.131Z</time></trkpt><trkpt lat="44.6581087" lon="8.7734753"><ele>229.0</ele><time>2026-03-21T14:11:13.132Z</time></trkpt><trkpt lat="44.657939" lon="8.7733879"><ele>229.0</ele><time>2026-03-21T14:11:14.131Z</time></trkpt><trkpt lat="44.6577695" lon="8.7732996"><ele>229.0</ele><time>2026-03-21T14:11:15.132Z</time></trkpt><trkpt lat="44.6576043" lon="8.7732215"><ele>229.75</ele><time>2026-03-21T14:11:16.131Z</time></trkpt><trkpt lat="44.6574585" lon="8.7731364"><ele>230.5</ele><time>2026-03-21T14:11:17.132Z</time></trkpt><trkpt lat="44.657331" lon="8.7730233"><ele>231.25</ele><time>2026-03-21T14:11:18.132Z</time></trkpt><trkpt lat="44.6572361" lon="8.7728861"><ele>232.0</ele><time>2026-03-21T14:11:19.132Z</time></trkpt><trkpt lat="44.6571748" lon="8.7727126"><ele>230.75</ele><time>2026-03-21T14:11:20.131Z</time></trkpt><trkpt lat="44.6571347" lon="8.7725163"><ele>229.5</ele><time>2026-03-21T14:11:21.131Z</time></trkpt><trkpt lat="44.6570993" lon="8.7723165"><ele>228.25</ele><time>2026-03-21T14:11:22.131Z</time></trkpt><trkpt lat="44.6570698" lon="8.7721363"><ele>227.0</ele><time>2026-03-21T14:11:23.132Z</time></trkpt><trkpt lat="44.6570335" lon="8.7719825"><ele>227.25</ele><time>2026-03-21T14:11:24.132Z</time></trkpt><trkpt lat="44.6569729" lon="8.7718554"><ele>227.5</ele><time>2026-03-21T14:11:25.131Z</time></trkpt><trkpt lat="44.6568829" lon="8.7717677"><ele>227.75</ele><time>2026-03-21T14:11:26.131Z</time></trkpt><trkpt lat="44.6567712" lon="8.7717138"><ele>228.0</ele><time>2026-03-21T14:11:27.132Z</time></trkpt><trkpt lat="44.6566421" lon="8.771679"><ele>229.0</ele><time>2026-03-21T14:11:28.132Z</time></trkpt><trkpt lat="44.6565032" lon="8.7716416"><ele>230.0</ele><time>2026-03-21T14:11:29.131Z</time></trkpt><trkpt lat="44.6563613" lon="8.771592"><ele>231.0</ele><time>2026-03-21T14:11:30.132Z</time></trkpt><trkpt lat="44.6562186" lon="8.7715308"><ele>232.0</ele><time>2026-03-21T14:11:31.132Z</time></trkpt><trkpt lat="44.6560783" lon="8.7714602"><ele>234.5</ele><time>2026-03-21T14:11:32.131Z</time></trkpt><trkpt lat="44.655935" lon="8.7713985"><ele>237.0</ele><time>2026-03-21T14:11:33.131Z</time></trkpt><trkpt lat="44.6557916" lon="8.77136"><ele>239.5</ele><time>2026-03-21T14:11:34.132Z</time></trkpt><trkpt lat="44.6556421" lon="8.7713519"><ele>242.0</ele><time>2026-03-21T14:11:35.131Z</time></trkpt><trkpt lat="44.6554945" lon="8.7713603"><ele>242.0</ele><time>2026-03-21T14:11:36.132Z</time></trkpt><trkpt lat="44.6553486" lon="8.771389"><ele>242.0</ele><time>2026-03-21T14:11:37.131Z</time></trkpt><trkpt lat="44.655205" lon="8.7714156"><ele>242.0</ele><time>2026-03-21T14:11:38.131Z</time></trkpt><trkpt lat="44.6550628" lon="8.7714364"><ele>242.0</ele><time>2026-03-21T14:11:39.132Z</time></trkpt><trkpt lat="44.6549242" lon="8.7714555"><ele>244.0</ele><time>2026-03-21T14:11:40.131Z</time></trkpt><trkpt lat="44.6547854" lon="8.7714711"><ele>246.0</ele><time>2026-03-21T14:11:41.131Z</time></trkpt><trkpt lat="44.6546452" lon="8.7714991"><ele>248.0</ele><time>2026-03-21T14:11:42.132Z</time></trkpt><trkpt lat="44.6545035" lon="8.771523"><ele>250.0</ele><time>2026-03-21T14:11:43.131Z</time></trkpt><trkpt lat="44.6543605" lon="8.7715476"><ele>250.5</ele><time>2026-03-21T14:11:44.131Z</time></trkpt><trkpt lat="44.6542175" lon="8.7715572"><ele>251.0</ele><time>2026-03-21T14:11:45.131Z</time></trkpt><trkpt lat="44.6540757" lon="8.7715404"><ele>251.5</ele><time>2026-03-21T14:11:46.132Z</time></trkpt><trkpt lat="44.6539461" lon="8.7714846"><ele>252.0</ele><time>2026-03-21T14:11:47.132Z</time></trkpt><trkpt lat="44.6538216" lon="8.7714263"><ele>252.0</ele><time>2026-03-21T14:11:48.132Z</time></trkpt><trkpt lat="44.6536976" lon="8.7713762"><ele>252.0</ele><time>2026-03-21T14:11:49.131Z</time></trkpt><trkpt lat="44.6535725" lon="8.7713325"><ele>252.0</ele><time>2026-03-21T14:11:50.132Z</time></trkpt><trkpt lat="44.6534456" lon="8.7712858"><ele>252.0</ele><time>2026-03-21T14:11:51.132Z</time></trkpt><trkpt lat="44.6533187" lon="8.771231"><ele>252.75</ele><time>2026-03-21T14:11:52.131Z</time></trkpt><trkpt lat="44.6531889" lon="8.7711802"><ele>253.5</ele><time>2026-03-21T14:11:53.132Z</time></trkpt><trkpt lat="44.6530553" lon="8.7711328"><ele>254.25</ele><time>2026-03-21T14:11:54.132Z</time></trkpt><trkpt lat="44.6529213" lon="8.7711012"><ele>255.0</ele><time>2026-03-21T14:11:55.131Z</time></trkpt><trkpt lat="44.6527865" lon="8.7710846"><ele>257.2</ele><time>2026-03-21T14:11:56.131Z</time></trkpt><trkpt lat="44.6526623" lon="8.771086"><ele>259.4</ele><time>2026-03-21T14:11:57.132Z</time></trkpt><trkpt lat="44.6525478" lon="8.7710998"><ele>261.6</ele><time>2026-03-21T14:11:58.131Z</time></trkpt><trkpt lat="44.6524476" lon="8.771124"><ele>263.8</ele><time>2026-03-21T14:11:59.132Z</time></trkpt><trkpt lat="44.6523658" lon="8.7711484"><ele>266.0</ele><time>2026-03-21T14:12:00.131Z</time></trkpt><trkpt lat="44.6523135" lon="8.7712047"><ele>266.0</ele><time>2026-03-21T14:12:01.132Z</time></trkpt><trkpt lat="44.6522856" lon="8.771291"><ele>266.0</ele><time>2026-03-21T14:12:02.131Z</time></trkpt><trkpt lat="44.6522784" lon="8.7714132"><ele>266.0</ele><time>2026-03-21T14:12:03.132Z</time></trkpt><trkpt lat="44.6522692" lon="8.7715578"><ele>266.0</ele><time>2026-03-21T14:12:04.131Z</time></trkpt><trkpt lat="44.6522481" lon="8.7717213"><ele>266.0</ele><time>2026-03-21T14:12:05.132Z</time></trkpt><trkpt lat="44.6522238" lon="8.7718939"><ele>265.8</ele><time>2026-03-21T14:12:06.132Z</time></trkpt><trkpt lat="44.6521956" lon="8.7720569"><ele>265.6</ele><time>2026-03-21T14:12:07.132Z</time></trkpt><trkpt lat="44.6521582" lon="8.7722145"><ele>265.4</ele><time>2026-03-21T14:12:08.132Z</time></trkpt><trkpt lat="44.6521077" lon="8.7723481"><ele>265.2</ele><time>2026-03-21T14:12:09.132Z</time></trkpt><trkpt lat="44.652041" lon="8.772453"><ele>265.0</ele><time>2026-03-21T14:12:10.131Z</time></trkpt><trkpt lat="44.65195" lon="8.7725092"><ele>266.4</ele><time>2026-03-21T14:12:11.132Z</time></trkpt><trkpt lat="44.6518476" lon="8.7725338"><ele>267.8</ele><time>2026-03-21T14:12:12.131Z</time></trkpt><trkpt lat="44.651737" lon="8.7725765"><ele>269.2</ele><time>2026-03-21T14:12:13.132Z</time></trkpt><trkpt lat="44.6516361" lon="8.7726584"><ele>270.6</ele><time>2026-03-21T14:12:14.132Z</time></trkpt><trkpt lat="44.6515546" lon="8.7727676"><ele>272.0</ele><time>2026-03-21T14:12:15.132Z</time></trkpt><trkpt lat="44.6514883" lon="8.7728707"><ele>272.0</ele><time>2026-03-21T14:12:16.131Z</time></trkpt><trkpt lat="44.6514177" lon="8.7729317"><ele>272.0</ele><time>2026-03-21T14:12:17.132Z</time></trkpt><trkpt lat="44.6513216" lon="8.772864"><ele>272.0</ele><time>2026-03-21T14:12:19.132Z</time></trkpt><trkpt lat="44.6513056" lon="8.7727717"><ele>272.0</ele><time>2026-03-21T14:12:20.132Z</time></trkpt><trkpt lat="44.6512904" lon="8.7726716"><ele>272.0</ele><time>2026-03-21T14:12:21.132Z</time></trkpt><trkpt lat="44.6512624" lon="8.772579"><ele>272.0</ele><time>2026-03-21T14:12:22.131Z</time></trkpt><trkpt lat="44.6511943" lon="8.7724419"><ele>273.6666666666667</ele><time>2026-03-21T14:12:24.131Z</time></trkpt><trkpt lat="44.6511267" lon="8.7723946"><ele>275.33333333333337</ele><time>2026-03-21T14:12:26.131Z</time></trkpt><trkpt lat="44.6510093" lon="8.7724441"><ele>277.0</ele><time>2026-03-21T14:12:28.132Z</time></trkpt><trkpt lat="44.6509392" lon="8.7724866"><ele>278.6666666666667</ele><time>2026-03-21T14:12:29.131Z</time></trkpt><trkpt lat="44.6508549" lon="8.7725395"><ele>280.3333333333333</ele><time>2026-03-21T14:12:30.131Z</time></trkpt><trkpt lat="44.6507943" lon="8.772591"><ele>282.0</ele><time>2026-03-21T14:12:31.131Z</time></trkpt><trkpt lat="44.6506891" lon="8.7726626"><ele>283.2</ele><time>2026-03-21T14:12:33.131Z</time></trkpt><trkpt lat="44.6506093" lon="8.7726292"><ele>284.4</ele><time>2026-03-21T14:12:35.132Z</time></trkpt><trkpt lat="44.6505169" lon="8.7726289"><ele>285.6</ele><time>2026-03-21T14:12:37.132Z</time></trkpt><trkpt lat="44.6504018" lon="8.7726786"><ele>286.8</ele><time>2026-03-21T14:12:39.131Z</time></trkpt><trkpt lat="44.6503123" lon="8.7727542"><ele>288.0</ele><time>2026-03-21T14:12:41.131Z</time></trkpt><trkpt lat="44.6502573" lon="8.7728858"><ele>290.6</ele><time>2026-03-21T14:12:43.131Z</time></trkpt><trkpt lat="44.6502018" lon="8.7729611"><ele>293.20000000000005</ele><time>2026-03-21T14:12:45.132Z</time></trkpt><trkpt lat="44.6501261" lon="8.7729673"><ele>295.8</ele><time>2026-03-21T14:12:47.132Z</time></trkpt><trkpt lat="44.6500144" lon="8.7729507"><ele>298.40000000000003</ele><time>2026-03-21T14:12:49.131Z</time></trkpt><trkpt lat="44.6498801" lon="8.7729276"><ele>301.0</ele><time>2026-03-21T14:12:51.131Z</time></trkpt><trkpt lat="44.6498056" lon="8.7729002"><ele>301.0</ele><time>2026-03-21T14:12:52.132Z</time></trkpt><trkpt lat="44.6497318" lon="8.7728688"><ele>301.0</ele><time>2026-03-21T14:12:53.131Z</time></trkpt><trkpt lat="44.6496612" lon="8.7728423"><ele>301.0</ele><time>2026-03-21T14:12:54.131Z</time></trkpt><trkpt lat="44.6495853" lon="8.7727956"><ele>301.0</ele><time>2026-03-21T14:12:55.132Z</time></trkpt><trkpt lat="44.6495022" lon="8.7727583"><ele>301.0</ele><time>2026-03-21T14:12:56.131Z</time></trkpt><trkpt lat="44.6494129" lon="8.7727397"><ele>301.0</ele><time>2026-03-21T14:12:57.132Z</time></trkpt><trkpt lat="44.6493174" lon="8.772717"><ele>301.0</ele><time>2026-03-21T14:12:58.132Z</time></trkpt><trkpt lat="44.6492153" lon="8.7727047"><ele>301.0</ele><time>2026-03-21T14:12:59.132Z</time></trkpt><trkpt lat="44.6491097" lon="8.7726915"><ele>301.0</ele><time>2026-03-21T14:13:00.131Z</time></trkpt><trkpt lat="44.6489982" lon="8.7726653"><ele>301.0</ele><time>2026-03-21T14:13:01.131Z</time></trkpt><trkpt lat="44.6488852" lon="8.7726427"><ele>301.0</ele><time>2026-03-21T14:13:02.131Z</time></trkpt><trkpt lat="44.6487691" lon="8.7726308"><ele>301.0</ele><time>2026-03-21T14:13:03.132Z</time></trkpt><trkpt lat="44.6486506" lon="8.7726229"><ele>301.0</ele><time>2026-03-21T14:13:04.131Z</time></trkpt><trkpt lat="44.6485381" lon="8.7726292"><ele>301.0</ele><time>2026-03-21T14:13:05.131Z</time></trkpt><trkpt lat="44.6484296" lon="8.7726679"><ele>301.0</ele><time>2026-03-21T14:13:06.132Z</time></trkpt><trkpt lat="44.6483206" lon="8.772715"><ele>301.0</ele><time>2026-03-21T14:13:07.131Z</time></trkpt><trkpt lat="44.6482103" lon="8.7727578"><ele>301.0</ele><time>2026-03-21T14:13:08.131Z</time></trkpt><trkpt lat="44.6480923" lon="8.7727916"><ele>301.0</ele><time>2026-03-21T14:13:09.132Z</time></trkpt><trkpt lat="44.6479685" lon="8.7728479"><ele>301.0</ele><time>2026-03-21T14:13:10.132Z</time></trkpt><trkpt lat="44.6478363" lon="8.7729154"><ele>302.5</ele><time>2026-03-21T14:13:11.131Z</time></trkpt><trkpt lat="44.6477088" lon="8.7729923"><ele>304.0</ele><time>2026-03-21T14:13:12.132Z</time></trkpt><trkpt lat="44.6475763" lon="8.7730643"><ele>305.5</ele><time>2026-03-21T14:13:13.132Z</time></trkpt><trkpt lat="44.6474375" lon="8.773122"><ele>307.0</ele><time>2026-03-21T14:13:14.132Z</time></trkpt><trkpt lat="44.6472913" lon="8.773167"><ele>307.0</ele><time>2026-03-21T14:13:15.131Z</time></trkpt><trkpt lat="44.6471379" lon="8.7731909"><ele>307.0</ele><time>2026-03-21T14:13:16.132Z</time></trkpt><trkpt lat="44.6469802" lon="8.7732005"><ele>307.0</ele><time>2026-03-21T14:13:17.131Z</time></trkpt><trkpt lat="44.6468222" lon="8.7732131"><ele>308.0</ele><time>2026-03-21T14:13:18.131Z</time></trkpt><trkpt lat="44.6466707" lon="8.7732218"><ele>309.0</ele><time>2026-03-21T14:13:19.131Z</time></trkpt><trkpt lat="44.6465306" lon="8.7732444"><ele>310.0</ele><time>2026-03-21T14:13:20.131Z</time></trkpt><trkpt lat="44.6464042" lon="8.7732935"><ele>311.0</ele><time>2026-03-21T14:13:21.131Z</time></trkpt><trkpt lat="44.6462921" lon="8.7733675"><ele>311.0</ele><time>2026-03-21T14:13:22.131Z</time></trkpt><trkpt lat="44.6461949" lon="8.7734762"><ele>311.0</ele><time>2026-03-21T14:13:23.131Z</time></trkpt><trkpt lat="44.6461143" lon="8.7736133"><ele>311.0</ele><time>2026-03-21T14:13:24.131Z</time></trkpt><trkpt lat="44.6460426" lon="8.7737534"><ele>311.0</ele><time>2026-03-21T14:13:25.131Z</time></trkpt><trkpt lat="44.6459652" lon="8.7739068"><ele>310.75</ele><time>2026-03-21T14:13:26.132Z</time></trkpt><trkpt lat="44.6458843" lon="8.7740517"><ele>310.5</ele><time>2026-03-21T14:13:27.132Z</time></trkpt><trkpt lat="44.6457925" lon="8.7741916"><ele>310.25</ele><time>2026-03-21T14:13:28.131Z</time></trkpt><trkpt lat="44.6456967" lon="8.7743175"><ele>310.0</ele><time>2026-03-21T14:13:29.131Z</time></trkpt><trkpt lat="44.6455897" lon="8.7744214"><ele>310.0</ele><time>2026-03-21T14:13:30.132Z</time></trkpt><trkpt lat="44.6454688" lon="8.7744941"><ele>310.0</ele><time>2026-03-21T14:13:31.131Z</time></trkpt><trkpt lat="44.6453416" lon="8.774532"><ele>310.0</ele><time>2026-03-21T14:13:32.131Z</time></trkpt><trkpt lat="44.6452121" lon="8.7745589"><ele>310.0</ele><time>2026-03-21T14:13:33.131Z</time></trkpt><trkpt lat="44.6450799" lon="8.7745735"><ele>313.0</ele><time>2026-03-21T14:13:34.131Z</time></trkpt><trkpt lat="44.6449459" lon="8.7745851"><ele>316.0</ele><time>2026-03-21T14:13:35.131Z</time></trkpt><trkpt lat="44.6448109" lon="8.7745917"><ele>319.0</ele><time>2026-03-21T14:13:36.132Z</time></trkpt><trkpt lat="44.6446814" lon="8.7745778"><ele>322.0</ele><time>2026-03-21T14:13:37.131Z</time></trkpt><trkpt lat="44.6445603" lon="8.7745383"><ele>324.5</ele><time>2026-03-21T14:13:38.131Z</time></trkpt><trkpt lat="44.6444488" lon="8.7744592"><ele>327.0</ele><time>2026-03-21T14:13:39.131Z</time></trkpt><trkpt lat="44.6443358" lon="8.7743737"><ele>329.5</ele><time>2026-03-21T14:13:40.132Z</time></trkpt><trkpt lat="44.6442235" lon="8.7742913"><ele>332.0</ele><time>2026-03-21T14:13:41.132Z</time></trkpt><trkpt lat="44.6441113" lon="8.774233"><ele>332.0</ele><time>2026-03-21T14:13:42.131Z</time></trkpt><trkpt lat="44.6439969" lon="8.774217"><ele>332.0</ele><time>2026-03-21T14:13:43.131Z</time></trkpt><trkpt lat="44.6438851" lon="8.7742433"><ele>332.0</ele><time>2026-03-21T14:13:44.132Z</time></trkpt><trkpt lat="44.6437799" lon="8.7743176"><ele>332.0</ele><time>2026-03-21T14:13:45.132Z</time></trkpt><trkpt lat="44.6436865" lon="8.774423"><ele>333.25</ele><time>2026-03-21T14:13:46.132Z</time></trkpt><trkpt lat="44.6436162" lon="8.7745527"><ele>334.5</ele><time>2026-03-21T14:13:47.132Z</time></trkpt><trkpt lat="44.6435646" lon="8.7747066"><ele>335.75</ele><time>2026-03-21T14:13:48.132Z</time></trkpt><trkpt lat="44.643525" lon="8.7748783"><ele>337.0</ele><time>2026-03-21T14:13:49.132Z</time></trkpt><trkpt lat="44.6434963" lon="8.775047"><ele>339.5</ele><time>2026-03-21T14:13:50.131Z</time></trkpt><trkpt lat="44.6434634" lon="8.7752235"><ele>342.0</ele><time>2026-03-21T14:13:51.132Z</time></trkpt><trkpt lat="44.6434237" lon="8.7753949"><ele>344.5</ele><time>2026-03-21T14:13:52.131Z</time></trkpt><trkpt lat="44.6433707" lon="8.7755587"><ele>347.0</ele><time>2026-03-21T14:13:53.132Z</time></trkpt><trkpt lat="44.6433061" lon="8.7757056"><ele>347.0</ele><time>2026-03-21T14:13:54.132Z</time></trkpt><trkpt lat="44.6432339" lon="8.7758374"><ele>347.0</ele><time>2026-03-21T14:13:55.132Z</time></trkpt><trkpt lat="44.6431621" lon="8.7759463"><ele>347.0</ele><time>2026-03-21T14:13:56.132Z</time></trkpt><trkpt lat="44.6431001" lon="8.7760427"><ele>347.0</ele><time>2026-03-21T14:13:57.131Z</time></trkpt><trkpt lat="44.643038" lon="8.7761356"><ele>347.0</ele><time>2026-03-21T14:13:58.131Z</time></trkpt><trkpt lat="44.6429763" lon="8.7762254"><ele>346.8</ele><time>2026-03-21T14:13:59.131Z</time></trkpt><trkpt lat="44.6429121" lon="8.7763179"><ele>346.6</ele><time>2026-03-21T14:14:00.132Z</time></trkpt><trkpt lat="44.6428445" lon="8.7764119"><ele>346.40000000000003</ele><time>2026-03-21T14:14:01.131Z</time></trkpt><trkpt lat="44.6427717" lon="8.7764964"><ele>346.20000000000005</ele><time>2026-03-21T14:14:02.131Z</time></trkpt><trkpt lat="44.6426942" lon="8.7765636"><ele>346.0</ele><time>2026-03-21T14:14:03.131Z</time></trkpt><trkpt lat="44.642598" lon="8.7766072"><ele>346.0</ele><time>2026-03-21T14:14:04.132Z</time></trkpt><trkpt lat="44.6424842" lon="8.776628"><ele>346.0</ele><time>2026-03-21T14:14:05.131Z</time></trkpt><trkpt lat="44.6423582" lon="8.7766231"><ele>346.0</ele><time>2026-03-21T14:14:06.131Z</time></trkpt><trkpt lat="44.6422239" lon="8.776604"><ele>346.0</ele><time>2026-03-21T14:14:07.131Z</time></trkpt><trkpt lat="44.6420928" lon="8.7765982"><ele>344.25</ele><time>2026-03-21T14:14:08.131Z</time></trkpt><trkpt lat="44.6419634" lon="8.7765997"><ele>342.5</ele><time>2026-03-21T14:14:09.131Z</time></trkpt><trkpt lat="44.6418346" lon="8.7766289"><ele>340.75</ele><time>2026-03-21T14:14:10.131Z</time></trkpt><trkpt lat="44.6417102" lon="8.7766822"><ele>339.0</ele><time>2026-03-21T14:14:11.131Z</time></trkpt><trkpt lat="44.6415887" lon="8.7767506"><ele>339.0</ele><time>2026-03-21T14:14:12.131Z</time></trkpt><trkpt lat="44.6414751" lon="8.7768358"><ele>339.0</ele><time>2026-03-21T14:14:13.131Z</time></trkpt><trkpt lat="44.6413672" lon="8.7769446"><ele>339.0</ele><time>2026-03-21T14:14:14.131Z</time></trkpt><trkpt lat="44.6412729" lon="8.7770741"><ele>339.0</ele><time>2026-03-21T14:14:15.132Z</time></trkpt><trkpt lat="44.641194" lon="8.7772077"><ele>339.5</ele><time>2026-03-21T14:14:16.131Z</time></trkpt><trkpt lat="44.6411191" lon="8.7773502"><ele>340.0</ele><time>2026-03-21T14:14:17.131Z</time></trkpt><trkpt lat="44.6410423" lon="8.7774867"><ele>340.5</ele><time>2026-03-21T14:14:18.132Z</time></trkpt><trkpt lat="44.6409568" lon="8.7776284"><ele>341.0</ele><time>2026-03-21T14:14:19.132Z</time></trkpt><trkpt lat="44.6408665" lon="8.777764"><ele>343.0</ele><time>2026-03-21T14:14:20.132Z</time></trkpt><trkpt lat="44.6407696" lon="8.7778959"><ele>345.0</ele><time>2026-03-21T14:14:21.132Z</time></trkpt><trkpt lat="44.6406675" lon="8.7780228"><ele>347.0</ele><time>2026-03-21T14:14:22.131Z</time></trkpt><trkpt lat="44.640566" lon="8.7781526"><ele>349.0</ele><time>2026-03-21T14:14:23.131Z</time></trkpt><trkpt lat="44.6404669" lon="8.778292"><ele>349.0</ele><time>2026-03-21T14:14:24.132Z</time></trkpt><trkpt lat="44.640364" lon="8.7784214"><ele>349.0</ele><time>2026-03-21T14:14:25.132Z</time></trkpt><trkpt lat="44.6402672" lon="8.7785363"><ele>349.0</ele><time>2026-03-21T14:14:26.132Z</time></trkpt><trkpt lat="44.6401682" lon="8.7786195"><ele>349.0</ele><time>2026-03-21T14:14:27.131Z</time></trkpt><trkpt lat="44.6400759" lon="8.7786898"><ele>351.0</ele><time>2026-03-21T14:14:28.132Z</time></trkpt><trkpt lat="44.6399947" lon="8.7787833"><ele>353.0</ele><time>2026-03-21T14:14:29.131Z</time></trkpt><trkpt lat="44.6399422" lon="8.7789035"><ele>355.0</ele><time>2026-03-21T14:14:30.131Z</time></trkpt><trkpt lat="44.6399123" lon="8.7790344"><ele>357.0</ele><time>2026-03-21T14:14:31.131Z</time></trkpt><trkpt lat="44.6398857" lon="8.779188"><ele>359.0</ele><time>2026-03-21T14:14:32.132Z</time></trkpt><trkpt lat="44.6398649" lon="8.779347"><ele>361.0</ele><time>2026-03-21T14:14:33.132Z</time></trkpt><trkpt lat="44.6398462" lon="8.7795081"><ele>363.0</ele><time>2026-03-21T14:14:34.132Z</time></trkpt><trkpt lat="44.6398329" lon="8.7796731"><ele>365.0</ele><time>2026-03-21T14:14:35.131Z</time></trkpt><trkpt lat="44.6398186" lon="8.7798366"><ele>367.0</ele><time>2026-03-21T14:14:36.131Z</time></trkpt><trkpt lat="44.6397999" lon="8.7799987"><ele>367.0</ele><time>2026-03-21T14:14:37.132Z</time></trkpt><trkpt lat="44.6397818" lon="8.7801603"><ele>367.0</ele><time>2026-03-21T14:14:38.131Z</time></trkpt><trkpt lat="44.6397622" lon="8.7803223"><ele>367.0</ele><time>2026-03-21T14:14:39.132Z</time></trkpt><trkpt lat="44.6397509" lon="8.7804893"><ele>367.0</ele><time>2026-03-21T14:14:40.131Z</time></trkpt><trkpt lat="44.6397461" lon="8.7806564"><ele>369.5</ele><time>2026-03-21T14:14:41.131Z</time></trkpt><trkpt lat="44.6397312" lon="8.7808202"><ele>372.0</ele><time>2026-03-21T14:14:42.131Z</time></trkpt><trkpt lat="44.6397052" lon="8.7809912"><ele>374.5</ele><time>2026-03-21T14:14:43.131Z</time></trkpt><trkpt lat="44.6396838" lon="8.7811692"><ele>377.0</ele><time>2026-03-21T14:14:44.131Z</time></trkpt><trkpt lat="44.6396737" lon="8.7813551"><ele>377.0</ele><time>2026-03-21T14:14:45.132Z</time></trkpt><trkpt lat="44.6396714" lon="8.7815481"><ele>377.0</ele><time>2026-03-21T14:14:46.132Z</time></trkpt><trkpt lat="44.6396699" lon="8.7817436"><ele>377.0</ele><time>2026-03-21T14:14:47.131Z</time></trkpt><trkpt lat="44.6396609" lon="8.7819361"><ele>377.0</ele><time>2026-03-21T14:14:48.132Z</time></trkpt><trkpt lat="44.639643" lon="8.7821174"><ele>377.0</ele><time>2026-03-21T14:14:49.132Z</time></trkpt><trkpt lat="44.6396178" lon="8.7822725"><ele>377.0</ele><time>2026-03-21T14:14:50.132Z</time></trkpt><trkpt lat="44.639594" lon="8.7824015"><ele>377.0</ele><time>2026-03-21T14:14:51.131Z</time></trkpt><trkpt lat="44.6395796" lon="8.7825115"><ele>377.0</ele><time>2026-03-21T14:14:52.132Z</time></trkpt><trkpt lat="44.6395282" lon="8.782593"><ele>377.0</ele><time>2026-03-21T14:14:54.131Z</time></trkpt><trkpt lat="44.6395096" lon="8.7824319"><ele>377.0</ele><time>2026-03-21T14:14:57.131Z</time></trkpt><trkpt lat="44.6395276" lon="8.7822328"><ele>377.0</ele><time>2026-03-21T14:14:59.131Z</time></trkpt><trkpt lat="44.6395341" lon="8.7821024"><ele>377.0</ele><time>2026-03-21T14:15:00.132Z</time></trkpt><trkpt lat="44.6395353" lon="8.7819688"><ele>377.0</ele><time>2026-03-21T14:15:01.132Z</time></trkpt><trkpt lat="44.6395251" lon="8.7818206"><ele>377.0</ele><time>2026-03-21T14:15:02.132Z</time></trkpt><trkpt lat="44.6394957" lon="8.7816713"><ele>381.8</ele><time>2026-03-21T14:15:03.131Z</time></trkpt><trkpt lat="44.6394646" lon="8.7815292"><ele>386.6</ele><time>2026-03-21T14:15:04.132Z</time></trkpt><trkpt lat="44.6394324" lon="8.7813964"><ele>391.40000000000003</ele><time>2026-03-21T14:15:05.132Z</time></trkpt><trkpt lat="44.6393769" lon="8.7812866"><ele>396.20000000000005</ele><time>2026-03-21T14:15:06.132Z</time></trkpt><trkpt lat="44.6393027" lon="8.7812163"><ele>401.0</ele><time>2026-03-21T14:15:07.132Z</time></trkpt><trkpt lat="44.6392286" lon="8.7812067"><ele>401.0</ele><time>2026-03-21T14:15:08.132Z</time></trkpt><trkpt lat="44.639164" lon="8.7812524"><ele>401.0</ele><time>2026-03-21T14:15:09.131Z</time></trkpt><trkpt lat="44.6391091" lon="8.781336"><ele>401.0</ele><time>2026-03-21T14:15:10.131Z</time></trkpt><trkpt lat="44.6390387" lon="8.7814381"><ele>401.0</ele><time>2026-03-21T14:15:11.132Z</time></trkpt><trkpt lat="44.6389656" lon="8.7815555"><ele>401.0</ele><time>2026-03-21T14:15:12.132Z</time></trkpt><trkpt lat="44.6388811" lon="8.7816846"><ele>401.0</ele><time>2026-03-21T14:15:13.131Z</time></trkpt><trkpt lat="44.6387922" lon="8.7818161"><ele>401.0</ele><time>2026-03-21T14:15:14.131Z</time></trkpt><trkpt lat="44.6387036" lon="8.7819472"><ele>401.0</ele><time>2026-03-21T14:15:15.131Z</time></trkpt><trkpt lat="44.6386127" lon="8.7820459"><ele>401.0</ele><time>2026-03-21T14:15:16.132Z</time></trkpt><trkpt lat="44.6385159" lon="8.7821002"><ele>404.0</ele><time>2026-03-21T14:15:17.131Z</time></trkpt><trkpt lat="44.6384262" lon="8.7821041"><ele>407.0</ele><time>2026-03-21T14:15:18.132Z</time></trkpt><trkpt lat="44.6383344" lon="8.7820575"><ele>410.0</ele><time>2026-03-21T14:15:19.131Z</time></trkpt><trkpt lat="44.638241" lon="8.7819872"><ele>413.0</ele><time>2026-03-21T14:15:20.131Z</time></trkpt><trkpt lat="44.6381338" lon="8.7819219"><ele>416.0</ele><time>2026-03-21T14:15:21.132Z</time></trkpt><trkpt lat="44.638013" lon="8.7818706"><ele>413.75</ele><time>2026-03-21T14:15:22.131Z</time></trkpt><trkpt lat="44.6378844" lon="8.7818263"><ele>411.5</ele><time>2026-03-21T14:15:23.131Z</time></trkpt><trkpt lat="44.6377558" lon="8.7817911"><ele>409.25</ele><time>2026-03-21T14:15:24.132Z</time></trkpt><trkpt lat="44.6376359" lon="8.7817577"><ele>407.0</ele><time>2026-03-21T14:15:25.132Z</time></trkpt><trkpt lat="44.6375238" lon="8.7817213"><ele>407.0</ele><time>2026-03-21T14:15:26.132Z</time></trkpt><trkpt lat="44.6374241" lon="8.7816786"><ele>407.0</ele><time>2026-03-21T14:15:27.132Z</time></trkpt><trkpt lat="44.6373357" lon="8.7816248"><ele>407.0</ele><time>2026-03-21T14:15:28.131Z</time></trkpt><trkpt lat="44.6372688" lon="8.7815666"><ele>407.0</ele><time>2026-03-21T14:15:29.131Z</time></trkpt><trkpt lat="44.6372081" lon="8.7815299"><ele>407.0</ele><time>2026-03-21T14:15:30.131Z</time></trkpt><trkpt lat="44.6370914" lon="8.7815419"><ele>407.0</ele><time>2026-03-21T14:15:32.132Z</time></trkpt><trkpt lat="44.6370416" lon="8.7816041"><ele>407.0</ele><time>2026-03-21T14:15:33.131Z</time></trkpt><trkpt lat="44.6370402" lon="8.7817613"><ele>407.0</ele><time>2026-03-21T14:15:35.132Z</time></trkpt><trkpt lat="44.6371531" lon="8.7818389"><ele>407.0</ele><time>2026-03-21T14:15:37.132Z</time></trkpt><trkpt lat="44.6372194" lon="8.7818794"><ele>407.0</ele><time>2026-03-21T14:15:38.132Z</time></trkpt><trkpt lat="44.6372708" lon="8.7819598"><ele>410.0</ele><time>2026-03-21T14:15:39.131Z</time></trkpt><trkpt lat="44.6373044" lon="8.7820737"><ele>413.0</ele><time>2026-03-21T14:15:40.132Z</time></trkpt><trkpt lat="44.6373447" lon="8.7822084"><ele>416.0</ele><time>2026-03-21T14:15:41.131Z</time></trkpt><trkpt lat="44.6373936" lon="8.7823607"><ele>419.0</ele><time>2026-03-21T14:15:42.131Z</time></trkpt><trkpt lat="44.6374361" lon="8.7824856"><ele>422.0</ele><time>2026-03-21T14:15:43.132Z</time></trkpt><trkpt lat="44.6374494" lon="8.7825857"><ele>422.0</ele><time>2026-03-21T14:15:44.132Z</time></trkpt><trkpt lat="44.6373734" lon="8.7826337"><ele>422.0</ele><time>2026-03-21T14:15:46.131Z</time></trkpt><trkpt lat="44.6373022" lon="8.7824646"><ele>422.0</ele><time>2026-03-21T14:15:48.132Z</time></trkpt><trkpt lat="44.6372495" lon="8.782338"><ele>422.0</ele><time>2026-03-21T14:15:49.132Z</time></trkpt><trkpt lat="44.6371879" lon="8.7822276"><ele>422.0</ele><time>2026-03-21T14:15:50.132Z</time></trkpt><trkpt lat="44.6371084" lon="8.7821515"><ele>421.99999999999994</ele><time>2026-03-21T14:15:51.132Z</time></trkpt><trkpt lat="44.6370266" lon="8.7821273"><ele>422.0</ele><time>2026-03-21T14:15:52.132Z</time></trkpt><trkpt lat="44.6369622" lon="8.782143"><ele>422.0</ele><time>2026-03-21T14:15:53.131Z</time></trkpt><trkpt lat="44.6368932" lon="8.7821783"><ele>422.0</ele><time>2026-03-21T14:15:54.131Z</time></trkpt><trkpt lat="44.6368258" lon="8.7822386"><ele>421.99999999999994</ele><time>2026-03-21T14:15:55.132Z</time></trkpt><trkpt lat="44.6367603" lon="8.7823075"><ele>422.0</ele><time>2026-03-21T14:15:56.132Z</time></trkpt><trkpt lat="44.6366926" lon="8.7823719"><ele>423.6</ele><time>2026-03-21T14:15:57.132Z</time></trkpt><trkpt lat="44.6366271" lon="8.782436"><ele>425.20000000000005</ele><time>2026-03-21T14:15:58.132Z</time></trkpt><trkpt lat="44.6365557" lon="8.782521"><ele>426.8</ele><time>2026-03-21T14:15:59.132Z</time></trkpt><trkpt lat="44.6364889" lon="8.7826107"><ele>428.4</ele><time>2026-03-21T14:16:00.132Z</time></trkpt><trkpt lat="44.6364142" lon="8.7827043"><ele>430.0</ele><time>2026-03-21T14:16:01.132Z</time></trkpt><trkpt lat="44.6363354" lon="8.7827964"><ele>432.6</ele><time>2026-03-21T14:16:02.131Z</time></trkpt><trkpt lat="44.6362506" lon="8.7828783"><ele>435.2</ele><time>2026-03-21T14:16:03.131Z</time></trkpt><trkpt lat="44.636161" lon="8.7829604"><ele>437.79999999999995</ele><time>2026-03-21T14:16:04.132Z</time></trkpt><trkpt lat="44.6360672" lon="8.7830407"><ele>440.4</ele><time>2026-03-21T14:16:05.132Z</time></trkpt><trkpt lat="44.6359665" lon="8.7831059"><ele>443.0</ele><time>2026-03-21T14:16:06.132Z</time></trkpt><trkpt lat="44.6358601" lon="8.7831531"><ele>443.16666666666663</ele><time>2026-03-21T14:16:07.132Z</time></trkpt><trkpt lat="44.6357704" lon="8.7831888"><ele>443.3333333333333</ele><time>2026-03-21T14:16:08.132Z</time></trkpt><trkpt lat="44.6357081" lon="8.7832327"><ele>443.5</ele><time>2026-03-21T14:16:09.131Z</time></trkpt><trkpt lat="44.6356834" lon="8.7833413"><ele>443.66666666666663</ele><time>2026-03-21T14:16:11.132Z</time></trkpt><trkpt lat="44.6357756" lon="8.7833948"><ele>443.8333333333333</ele><time>2026-03-21T14:16:13.131Z</time></trkpt><trkpt lat="44.6358451" lon="8.7833861"><ele>444.0</ele><time>2026-03-21T14:16:14.132Z</time></trkpt><trkpt lat="44.635933" lon="8.7833705"><ele>444.0</ele><time>2026-03-21T14:16:15.132Z</time></trkpt><trkpt lat="44.6360552" lon="8.7833822"><ele>444.0</ele><time>2026-03-21T14:16:16.132Z</time></trkpt><trkpt lat="44.6361834" lon="8.7833657"><ele>444.0</ele><time>2026-03-21T14:16:17.132Z</time></trkpt><trkpt lat="44.6363135" lon="8.7832819"><ele>444.0</ele><time>2026-03-21T14:16:18.132Z</time></trkpt><trkpt lat="44.6364263" lon="8.7831751"><ele>443.79999999999995</ele><time>2026-03-21T14:16:19.131Z</time></trkpt><trkpt lat="44.6365336" lon="8.7831029"><ele>443.59999999999997</ele><time>2026-03-21T14:16:20.131Z</time></trkpt><trkpt lat="44.6366368" lon="8.7830586"><ele>443.4</ele><time>2026-03-21T14:16:21.131Z</time></trkpt><trkpt lat="44.6367294" lon="8.7830615"><ele>443.2</ele><time>2026-03-21T14:16:22.131Z</time></trkpt><trkpt lat="44.6367877" lon="8.7831139"><ele>443.0</ele><time>2026-03-21T14:16:23.132Z</time></trkpt><trkpt lat="44.6368213" lon="8.783192"><ele>443.0</ele><time>2026-03-21T14:16:24.131Z</time></trkpt><trkpt lat="44.636849" lon="8.7833058"><ele>443.0</ele><time>2026-03-21T14:16:25.131Z</time></trkpt><trkpt lat="44.6368631" lon="8.7834538"><ele>443.0</ele><time>2026-03-21T14:16:26.132Z</time></trkpt><trkpt lat="44.6368799" lon="8.7836306"><ele>443.0</ele><time>2026-03-21T14:16:27.132Z</time></trkpt><trkpt lat="44.6369031" lon="8.7838728"><ele>442.66666666666663</ele><time>2026-03-21T14:16:28.131Z</time></trkpt><trkpt lat="44.6369365" lon="8.7841247"><ele>442.33333333333337</ele><time>2026-03-21T14:16:29.131Z</time></trkpt><trkpt lat="44.6369733" lon="8.7843581"><ele>442.0</ele><time>2026-03-21T14:16:30.132Z</time></trkpt><trkpt lat="44.6370092" lon="8.7845769"><ele>442.0</ele><time>2026-03-21T14:16:31.131Z</time></trkpt><trkpt lat="44.6370319" lon="8.7847759"><ele>442.0</ele><time>2026-03-21T14:16:32.131Z</time></trkpt><trkpt lat="44.6370536" lon="8.7849469"><ele>442.0</ele><time>2026-03-21T14:16:33.132Z</time></trkpt><trkpt lat="44.63706" lon="8.7850985"><ele>442.0</ele><time>2026-03-21T14:16:34.132Z</time></trkpt><trkpt lat="44.637048" lon="8.7852174"><ele>442.6</ele><time>2026-03-21T14:16:35.132Z</time></trkpt><trkpt lat="44.6370075" lon="8.7853045"><ele>443.20000000000005</ele><time>2026-03-21T14:16:36.131Z</time></trkpt><trkpt lat="44.6369431" lon="8.7853557"><ele>443.8</ele><time>2026-03-21T14:16:37.131Z</time></trkpt><trkpt lat="44.6368574" lon="8.7853778"><ele>444.4</ele><time>2026-03-21T14:16:38.131Z</time></trkpt><trkpt lat="44.6367479" lon="8.7853987"><ele>445.0</ele><time>2026-03-21T14:16:39.132Z</time></trkpt><trkpt lat="44.6366244" lon="8.7854174"><ele>445.0</ele><time>2026-03-21T14:16:40.132Z</time></trkpt><trkpt lat="44.6364833" lon="8.7854269"><ele>445.0</ele><time>2026-03-21T14:16:41.132Z</time></trkpt><trkpt lat="44.6363368" lon="8.7854311"><ele>445.0</ele><time>2026-03-21T14:16:42.132Z</time></trkpt><trkpt lat="44.636189" lon="8.7854196"><ele>445.0</ele><time>2026-03-21T14:16:43.131Z</time></trkpt><trkpt lat="44.6360409" lon="8.7853796"><ele>448.0</ele><time>2026-03-21T14:16:44.132Z</time></trkpt><trkpt lat="44.6358803" lon="8.7853282"><ele>451.0</ele><time>2026-03-21T14:16:45.131Z</time></trkpt><trkpt lat="44.6357115" lon="8.7852685"><ele>454.0</ele><time>2026-03-21T14:16:46.132Z</time></trkpt><trkpt lat="44.6355529" lon="8.7852316"><ele>454.0</ele><time>2026-03-21T14:16:47.131Z</time></trkpt><trkpt lat="44.6354026" lon="8.7851902"><ele>454.0</ele><time>2026-03-21T14:16:48.132Z</time></trkpt><trkpt lat="44.6352688" lon="8.7851353"><ele>454.0</ele><time>2026-03-21T14:16:49.131Z</time></trkpt><trkpt lat="44.6351413" lon="8.7850488"><ele>454.0</ele><time>2026-03-21T14:16:50.132Z</time></trkpt><trkpt lat="44.6350183" lon="8.7849364"><ele>461.33333333333337</ele><time>2026-03-21T14:16:51.132Z</time></trkpt><trkpt lat="44.6348968" lon="8.7848054"><ele>468.66666666666663</ele><time>2026-03-21T14:16:52.131Z</time></trkpt><trkpt lat="44.6347718" lon="8.7846557"><ele>476.0</ele><time>2026-03-21T14:16:53.131Z</time></trkpt><trkpt lat="44.6346517" lon="8.784501"><ele>473.3333333333333</ele><time>2026-03-21T14:16:54.131Z</time></trkpt><trkpt lat="44.6345266" lon="8.7843442"><ele>470.66666666666663</ele><time>2026-03-21T14:16:55.132Z</time></trkpt><trkpt lat="44.6344" lon="8.7841839"><ele>468.0</ele><time>2026-03-21T14:16:56.131Z</time></trkpt><trkpt lat="44.6342734" lon="8.7840275"><ele>475.66666666666663</ele><time>2026-03-21T14:16:57.131Z</time></trkpt><trkpt lat="44.6341513" lon="8.7838758"><ele>483.3333333333333</ele><time>2026-03-21T14:16:58.131Z</time></trkpt><trkpt lat="44.6340494" lon="8.7837199"><ele>491.0</ele><time>2026-03-21T14:16:59.131Z</time></trkpt><trkpt lat="44.633973" lon="8.7835564"><ele>489.8</ele><time>2026-03-21T14:17:00.131Z</time></trkpt><trkpt lat="44.6339326" lon="8.7834005"><ele>488.6</ele><time>2026-03-21T14:17:01.131Z</time></trkpt><trkpt lat="44.6338894" lon="8.7832647"><ele>487.4</ele><time>2026-03-21T14:17:02.132Z</time></trkpt><trkpt lat="44.6338193" lon="8.7831436"><ele>486.2</ele><time>2026-03-21T14:17:03.131Z</time></trkpt><trkpt lat="44.6337261" lon="8.783054"><ele>485.0</ele><time>2026-03-21T14:17:04.132Z</time></trkpt><trkpt lat="44.6336159" lon="8.7829819"><ele>488.25</ele><time>2026-03-21T14:17:05.131Z</time></trkpt><trkpt lat="44.6334969" lon="8.7829435"><ele>491.5</ele><time>2026-03-21T14:17:06.131Z</time></trkpt><trkpt lat="44.633379" lon="8.7828965"><ele>494.75</ele><time>2026-03-21T14:17:07.131Z</time></trkpt><trkpt lat="44.6332782" lon="8.782802"><ele>498.0</ele><time>2026-03-21T14:17:08.132Z</time></trkpt><trkpt lat="44.6332131" lon="8.782681"><ele>498.0</ele><time>2026-03-21T14:17:09.132Z</time></trkpt><trkpt lat="44.6331755" lon="8.7825528"><ele>497.99999999999994</ele><time>2026-03-21T14:17:10.131Z</time></trkpt><trkpt lat="44.6331306" lon="8.7824255"><ele>497.99999999999994</ele><time>2026-03-21T14:17:11.131Z</time></trkpt><trkpt lat="44.6330718" lon="8.7823013"><ele>498.0</ele><time>2026-03-21T14:17:12.131Z</time></trkpt><trkpt lat="44.6329852" lon="8.7821898"><ele>498.0</ele><time>2026-03-21T14:17:13.131Z</time></trkpt><trkpt lat="44.6328867" lon="8.7820911"><ele>501.5</ele><time>2026-03-21T14:17:14.131Z</time></trkpt><trkpt lat="44.6327826" lon="8.7819821"><ele>505.0</ele><time>2026-03-21T14:17:15.131Z</time></trkpt><trkpt lat="44.6326793" lon="8.7818596"><ele>508.5</ele><time>2026-03-21T14:17:16.131Z</time></trkpt><trkpt lat="44.6325864" lon="8.7817107"><ele>512.0</ele><time>2026-03-21T14:17:17.132Z</time></trkpt><trkpt lat="44.6325146" lon="8.7815539"><ele>512.0</ele><time>2026-03-21T14:17:18.132Z</time></trkpt><trkpt lat="44.6324636" lon="8.7814049"><ele>512.0</ele><time>2026-03-21T14:17:19.131Z</time></trkpt><trkpt lat="44.6324131" lon="8.781288"><ele>512.0</ele><time>2026-03-21T14:17:20.132Z</time></trkpt><trkpt lat="44.6323495" lon="8.7812063"><ele>512.0</ele><time>2026-03-21T14:17:21.132Z</time></trkpt><trkpt lat="44.632266" lon="8.7811689"><ele>512.0</ele><time>2026-03-21T14:17:22.131Z</time></trkpt><trkpt lat="44.6321695" lon="8.7811725"><ele>512.0</ele><time>2026-03-21T14:17:23.131Z</time></trkpt><trkpt lat="44.6320647" lon="8.7812203"><ele>512.0</ele><time>2026-03-21T14:17:24.132Z</time></trkpt><trkpt lat="44.6319472" lon="8.7813049"><ele>512.0</ele><time>2026-03-21T14:17:25.132Z</time></trkpt><trkpt lat="44.6318307" lon="8.7814062"><ele>512.0</ele><time>2026-03-21T14:17:26.132Z</time></trkpt><trkpt lat="44.6316986" lon="8.781491"><ele>516.0</ele><time>2026-03-21T14:17:27.132Z</time></trkpt><trkpt lat="44.6315702" lon="8.7815336"><ele>520.0</ele><time>2026-03-21T14:17:28.131Z</time></trkpt><trkpt lat="44.6314456" lon="8.7815495"><ele>524.0</ele><time>2026-03-21T14:17:29.132Z</time></trkpt><trkpt lat="44.631325" lon="8.7815391"><ele>528.0</ele><time>2026-03-21T14:17:30.131Z</time></trkpt><trkpt lat="44.6312091" lon="8.7814872"><ele>529.8</ele><time>2026-03-21T14:17:31.131Z</time></trkpt><trkpt lat="44.6311092" lon="8.7814016"><ele>531.5999999999999</ele><time>2026-03-21T14:17:32.131Z</time></trkpt><trkpt lat="44.6310136" lon="8.7813347"><ele>533.4000000000001</ele><time>2026-03-21T14:17:33.131Z</time></trkpt><trkpt lat="44.6309305" lon="8.7812821"><ele>535.2</ele><time>2026-03-21T14:17:34.131Z</time></trkpt><trkpt lat="44.6308617" lon="8.7812687"><ele>537.0</ele><time>2026-03-21T14:17:35.131Z</time></trkpt><trkpt lat="44.6307883" lon="8.781301"><ele>537.0</ele><time>2026-03-21T14:17:36.131Z</time></trkpt><trkpt lat="44.6307099" lon="8.7813727"><ele>537.0</ele><time>2026-03-21T14:17:37.131Z</time></trkpt><trkpt lat="44.630627" lon="8.7814527"><ele>537.0</ele><time>2026-03-21T14:17:38.132Z</time></trkpt><trkpt lat="44.6305632" lon="8.7815488"><ele>537.0</ele><time>2026-03-21T14:17:39.132Z</time></trkpt><trkpt lat="44.6305375" lon="8.7816429"><ele>537.0</ele><time>2026-03-21T14:17:40.131Z</time></trkpt><trkpt lat="44.6305403" lon="8.7817477"><ele>537.0</ele><time>2026-03-21T14:17:41.132Z</time></trkpt><trkpt lat="44.6305754" lon="8.7818324"><ele>537.0</ele><time>2026-03-21T14:17:42.131Z</time></trkpt><trkpt lat="44.6306341" lon="8.7818843"><ele>537.0</ele><time>2026-03-21T14:17:43.132Z</time></trkpt><trkpt lat="44.6307135" lon="8.7819033"><ele>537.0</ele><time>2026-03-21T14:17:44.132Z</time></trkpt><trkpt lat="44.6307888" lon="8.7819028"><ele>537.0</ele><time>2026-03-21T14:17:45.131Z</time></trkpt><trkpt lat="44.6308527" lon="8.781803"><ele>537.0</ele><time>2026-03-21T14:17:46.132Z</time></trkpt><trkpt lat="44.6308918" lon="8.7817114"><ele>537.0</ele><time>2026-03-21T14:17:47.131Z</time></trkpt><trkpt lat="44.6309557" lon="8.7816671"><ele>537.0</ele><time>2026-03-21T14:17:48.132Z</time></trkpt><trkpt lat="44.6310194" lon="8.7816682"><ele>537.0</ele><time>2026-03-21T14:17:49.131Z</time></trkpt><trkpt lat="44.6310782" lon="8.7817248"><ele>537.0</ele><time>2026-03-21T14:17:50.131Z</time></trkpt><trkpt lat="44.6311386" lon="8.7818063"><ele>537.0</ele><time>2026-03-21T14:17:51.132Z</time></trkpt><trkpt lat="44.6311997" lon="8.7818987"><ele>537.0</ele><time>2026-03-21T14:17:52.132Z</time></trkpt><trkpt lat="44.6312627" lon="8.781996"><ele>537.0</ele><time>2026-03-21T14:17:53.132Z</time></trkpt><trkpt lat="44.6313216" lon="8.782112"><ele>539.0</ele><time>2026-03-21T14:17:54.131Z</time></trkpt><trkpt lat="44.6313711" lon="8.7822367"><ele>541.0</ele><time>2026-03-21T14:17:55.132Z</time></trkpt><trkpt lat="44.6314196" lon="8.782349"><ele>543.0</ele><time>2026-03-21T14:17:56.131Z</time></trkpt><trkpt lat="44.6314937" lon="8.7824251"><ele>545.0</ele><time>2026-03-21T14:17:57.132Z</time></trkpt><trkpt lat="44.6315801" lon="8.7824518"><ele>547.0</ele><time>2026-03-21T14:17:58.131Z</time></trkpt><trkpt lat="44.6316754" lon="8.7824698"><ele>547.0</ele><time>2026-03-21T14:17:59.131Z</time></trkpt><trkpt lat="44.6317673" lon="8.7825304"><ele>547.0</ele><time>2026-03-21T14:18:00.132Z</time></trkpt><trkpt lat="44.6318327" lon="8.7826397"><ele>547.0</ele><time>2026-03-21T14:18:01.132Z</time></trkpt><trkpt lat="44.6318833" lon="8.782776"><ele>547.0</ele><time>2026-03-21T14:18:02.132Z</time></trkpt><trkpt lat="44.6319312" lon="8.7829253"><ele>547.0</ele><time>2026-03-21T14:18:03.132Z</time></trkpt><trkpt lat="44.6319659" lon="8.7830752"><ele>547.5</ele><time>2026-03-21T14:18:04.132Z</time></trkpt><trkpt lat="44.6319921" lon="8.7832156"><ele>548.0</ele><time>2026-03-21T14:18:05.132Z</time></trkpt><trkpt lat="44.6319806" lon="8.7833343"><ele>548.5</ele><time>2026-03-21T14:18:06.131Z</time></trkpt><trkpt lat="44.6319359" lon="8.7834243"><ele>549.0</ele><time>2026-03-21T14:18:07.132Z</time></trkpt><trkpt lat="44.6318577" lon="8.7834657"><ele>549.5</ele><time>2026-03-21T14:18:08.132Z</time></trkpt><trkpt lat="44.6317638" lon="8.7834671"><ele>550.0</ele><time>2026-03-21T14:18:09.132Z</time></trkpt><trkpt lat="44.6316545" lon="8.7834579"><ele>550.0</ele><time>2026-03-21T14:18:10.131Z</time></trkpt><trkpt lat="44.6315423" lon="8.7834454"><ele>550.0</ele><time>2026-03-21T14:18:11.132Z</time></trkpt><trkpt lat="44.6314305" lon="8.7834329"><ele>550.0</ele><time>2026-03-21T14:18:12.132Z</time></trkpt><trkpt lat="44.6313105" lon="8.7833915"><ele>550.0</ele><time>2026-03-21T14:18:13.131Z</time></trkpt><trkpt lat="44.6311866" lon="8.7833258"><ele>551.25</ele><time>2026-03-21T14:18:14.131Z</time></trkpt><trkpt lat="44.631051" lon="8.7832549"><ele>552.5</ele><time>2026-03-21T14:18:15.131Z</time></trkpt><trkpt lat="44.6309089" lon="8.783216"><ele>553.75</ele><time>2026-03-21T14:18:16.131Z</time></trkpt><trkpt lat="44.6307628" lon="8.7831913"><ele>555.0</ele><time>2026-03-21T14:18:17.132Z</time></trkpt><trkpt lat="44.6306181" lon="8.78316"><ele>555.0</ele><time>2026-03-21T14:18:18.131Z</time></trkpt><trkpt lat="44.6304791" lon="8.7831027"><ele>555.0</ele><time>2026-03-21T14:18:19.132Z</time></trkpt><trkpt lat="44.6303446" lon="8.7830281"><ele>555.0</ele><time>2026-03-21T14:18:20.132Z</time></trkpt><trkpt lat="44.6302269" lon="8.78292"><ele>555.0</ele><time>2026-03-21T14:18:21.131Z</time></trkpt><trkpt lat="44.6301276" lon="8.7827791"><ele>558.75</ele><time>2026-03-21T14:18:22.131Z</time></trkpt><trkpt lat="44.630033" lon="8.7826255"><ele>562.5</ele><time>2026-03-21T14:18:23.131Z</time></trkpt><trkpt lat="44.6299357" lon="8.7824655"><ele>566.25</ele><time>2026-03-21T14:18:24.132Z</time></trkpt><trkpt lat="44.6298399" lon="8.7822977"><ele>570.0</ele><time>2026-03-21T14:18:25.131Z</time></trkpt><trkpt lat="44.6297398" lon="8.7821249"><ele>570.0</ele><time>2026-03-21T14:18:26.131Z</time></trkpt><trkpt lat="44.6296397" lon="8.7819524"><ele>570.0</ele><time>2026-03-21T14:18:27.131Z</time></trkpt><trkpt lat="44.6295379" lon="8.7817928"><ele>570.0</ele><time>2026-03-21T14:18:28.132Z</time></trkpt><trkpt lat="44.629423" lon="8.7816612"><ele>577.3333333333334</ele><time>2026-03-21T14:18:29.131Z</time></trkpt><trkpt lat="44.6292928" lon="8.7815535"><ele>584.6666666666667</ele><time>2026-03-21T14:18:30.131Z</time></trkpt><trkpt lat="44.6291561" lon="8.7814417"><ele>592.0</ele><time>2026-03-21T14:18:31.132Z</time></trkpt><trkpt lat="44.6290223" lon="8.7813238"><ele>592.0</ele><time>2026-03-21T14:18:32.132Z</time></trkpt><trkpt lat="44.6288889" lon="8.781204"><ele>592.0</ele><time>2026-03-21T14:18:33.131Z</time></trkpt><trkpt lat="44.6287785" lon="8.7810861"><ele>592.0</ele><time>2026-03-21T14:18:34.132Z</time></trkpt><trkpt lat="44.628685" lon="8.780962"><ele>592.0</ele><time>2026-03-21T14:18:35.132Z</time></trkpt><trkpt lat="44.6286234" lon="8.7808057"><ele>595.25</ele><time>2026-03-21T14:18:36.132Z</time></trkpt><trkpt lat="44.6285883" lon="8.7806286"><ele>598.5</ele><time>2026-03-21T14:18:37.131Z</time></trkpt><trkpt lat="44.6285735" lon="8.7804402"><ele>601.75</ele><time>2026-03-21T14:18:38.132Z</time></trkpt><trkpt lat="44.6285911" lon="8.7802703"><ele>605.0</ele><time>2026-03-21T14:18:39.132Z</time></trkpt><trkpt lat="44.6286205" lon="8.7801099"><ele>605.0</ele><time>2026-03-21T14:18:40.132Z</time></trkpt><trkpt lat="44.6286185" lon="8.7799437"><ele>605.0</ele><time>2026-03-21T14:18:41.132Z</time></trkpt><trkpt lat="44.6285906" lon="8.7797867"><ele>605.0</ele><time>2026-03-21T14:18:42.131Z</time></trkpt><trkpt lat="44.6285491" lon="8.779668"><ele>605.0</ele><time>2026-03-21T14:18:43.131Z</time></trkpt><trkpt lat="44.6284826" lon="8.7796027"><ele>605.0</ele><time>2026-03-21T14:18:44.131Z</time></trkpt><trkpt lat="44.6283977" lon="8.7795829"><ele>605.0</ele><time>2026-03-21T14:18:45.132Z</time></trkpt><trkpt lat="44.6283077" lon="8.7796166"><ele>605.0</ele><time>2026-03-21T14:18:46.132Z</time></trkpt><trkpt lat="44.6282103" lon="8.779684"><ele>605.0</ele><time>2026-03-21T14:18:47.131Z</time></trkpt><trkpt lat="44.6280859" lon="8.77975"><ele>605.0</ele><time>2026-03-21T14:18:48.132Z</time></trkpt><trkpt lat="44.6279469" lon="8.7797756"><ele>609.25</ele><time>2026-03-21T14:18:49.132Z</time></trkpt><trkpt lat="44.6278046" lon="8.7797588"><ele>613.5</ele><time>2026-03-21T14:18:50.132Z</time></trkpt><trkpt lat="44.6276655" lon="8.7797072"><ele>617.75</ele><time>2026-03-21T14:18:51.131Z</time></trkpt><trkpt lat="44.6275353" lon="8.7796227"><ele>622.0</ele><time>2026-03-21T14:18:52.132Z</time></trkpt><trkpt lat="44.6274099" lon="8.7795328"><ele>622.0</ele><time>2026-03-21T14:18:53.132Z</time></trkpt><trkpt lat="44.6273023" lon="8.7794421"><ele>622.0</ele><time>2026-03-21T14:18:54.131Z</time></trkpt><trkpt lat="44.6272036" lon="8.7793361"><ele>622.0</ele><time>2026-03-21T14:18:55.132Z</time></trkpt><trkpt lat="44.6271154" lon="8.7792161"><ele>622.0</ele><time>2026-03-21T14:18:56.132Z</time></trkpt><trkpt lat="44.6270444" lon="8.779069"><ele>623.25</ele><time>2026-03-21T14:18:57.132Z</time></trkpt><trkpt lat="44.6269852" lon="8.7788981"><ele>624.5</ele><time>2026-03-21T14:18:58.132Z</time></trkpt><trkpt lat="44.6269281" lon="8.7787188"><ele>625.75</ele><time>2026-03-21T14:18:59.132Z</time></trkpt><trkpt lat="44.6268716" lon="8.7785324"><ele>627.0</ele><time>2026-03-21T14:19:00.131Z</time></trkpt><trkpt lat="44.6268227" lon="8.7783378"><ele>627.0</ele><time>2026-03-21T14:19:01.132Z</time></trkpt><trkpt lat="44.6267873" lon="8.7781432"><ele>627.0</ele><time>2026-03-21T14:19:02.131Z</time></trkpt><trkpt lat="44.6267712" lon="8.7779545"><ele>627.0</ele><time>2026-03-21T14:19:03.132Z</time></trkpt><trkpt lat="44.6267726" lon="8.7777769"><ele>627.0</ele><time>2026-03-21T14:19:04.132Z</time></trkpt><trkpt lat="44.6267994" lon="8.7776209"><ele>625.4</ele><time>2026-03-21T14:19:05.131Z</time></trkpt><trkpt lat="44.6268148" lon="8.7774787"><ele>623.8000000000001</ele><time>2026-03-21T14:19:06.131Z</time></trkpt><trkpt lat="44.6268246" lon="8.7773639"><ele>622.2</ele><time>2026-03-21T14:19:07.132Z</time></trkpt><trkpt lat="44.6267714" lon="8.777219"><ele>620.6</ele><time>2026-03-21T14:19:09.132Z</time></trkpt><trkpt lat="44.6266479" lon="8.7772328"><ele>619.0</ele><time>2026-03-21T14:19:11.132Z</time></trkpt><trkpt lat="44.6265781" lon="8.7772957"><ele>619.0</ele><time>2026-03-21T14:19:12.131Z</time></trkpt><trkpt lat="44.6265072" lon="8.7773748"><ele>619.0</ele><time>2026-03-21T14:19:13.131Z</time></trkpt><trkpt lat="44.6264357" lon="8.7774662"><ele>619.0</ele><time>2026-03-21T14:19:14.132Z</time></trkpt><trkpt lat="44.6263555" lon="8.7775566"><ele>619.0</ele><time>2026-03-21T14:19:15.132Z</time></trkpt><trkpt lat="44.6262689" lon="8.7776507"><ele>619.0</ele><time>2026-03-21T14:19:16.131Z</time></trkpt><trkpt lat="44.6261736" lon="8.7777472"><ele>623.5</ele><time>2026-03-21T14:19:17.132Z</time></trkpt><trkpt lat="44.6260674" lon="8.7778442"><ele>628.0</ele><time>2026-03-21T14:19:18.132Z</time></trkpt><trkpt lat="44.6259651" lon="8.7779385"><ele>632.5</ele><time>2026-03-21T14:19:19.132Z</time></trkpt><trkpt lat="44.6258568" lon="8.7780303"><ele>637.0</ele><time>2026-03-21T14:19:20.132Z</time></trkpt><trkpt lat="44.625744" lon="8.7781151"><ele>637.0</ele><time>2026-03-21T14:19:21.131Z</time></trkpt><trkpt lat="44.6256331" lon="8.7781834"><ele>637.0</ele><time>2026-03-21T14:19:22.132Z</time></trkpt><trkpt lat="44.6255333" lon="8.7782548"><ele>637.0</ele><time>2026-03-21T14:19:23.132Z</time></trkpt><trkpt lat="44.6254621" lon="8.7783369"><ele>637.0</ele><time>2026-03-21T14:19:24.131Z</time></trkpt><trkpt lat="44.6254204" lon="8.7784516"><ele>637.0</ele><time>2026-03-21T14:19:25.131Z</time></trkpt><trkpt lat="44.6254047" lon="8.7785826"><ele>639.2</ele><time>2026-03-21T14:19:26.131Z</time></trkpt><trkpt lat="44.6254088" lon="8.7787225"><ele>641.4000000000001</ele><time>2026-03-21T14:19:27.132Z</time></trkpt><trkpt lat="44.6254295" lon="8.7788721"><ele>643.5999999999999</ele><time>2026-03-21T14:19:28.131Z</time></trkpt><trkpt lat="44.6254422" lon="8.7790328"><ele>645.8</ele><time>2026-03-21T14:19:29.131Z</time></trkpt><trkpt lat="44.6254366" lon="8.7792027"><ele>648.0</ele><time>2026-03-21T14:19:30.131Z</time></trkpt><trkpt lat="44.6254126" lon="8.7793792"><ele>649.2</ele><time>2026-03-21T14:19:31.132Z</time></trkpt><trkpt lat="44.6253647" lon="8.7795452"><ele>650.4</ele><time>2026-03-21T14:19:32.132Z</time></trkpt><trkpt lat="44.6253117" lon="8.7796853"><ele>651.6</ele><time>2026-03-21T14:19:33.131Z</time></trkpt><trkpt lat="44.625273" lon="8.7798204"><ele>652.8000000000001</ele><time>2026-03-21T14:19:34.131Z</time></trkpt><trkpt lat="44.6252701" lon="8.7799531"><ele>654.0</ele><time>2026-03-21T14:19:35.132Z</time></trkpt><trkpt lat="44.625301" lon="8.7800649"><ele>654.0</ele><time>2026-03-21T14:19:36.132Z</time></trkpt><trkpt lat="44.6253642" lon="8.7801614"><ele>654.0</ele><time>2026-03-21T14:19:37.132Z</time></trkpt><trkpt lat="44.6254483" lon="8.7802493"><ele>654.0</ele><time>2026-03-21T14:19:38.131Z</time></trkpt><trkpt lat="44.6255388" lon="8.7803405"><ele>654.0</ele><time>2026-03-21T14:19:39.131Z</time></trkpt><trkpt lat="44.6256338" lon="8.7804546"><ele>654.0</ele><time>2026-03-21T14:19:40.131Z</time></trkpt><trkpt lat="44.6257166" lon="8.7805923"><ele>652.75</ele><time>2026-03-21T14:19:41.132Z</time></trkpt><trkpt lat="44.6257853" lon="8.78076"><ele>651.5</ele><time>2026-03-21T14:19:42.132Z</time></trkpt><trkpt lat="44.6258309" lon="8.7809495"><ele>650.25</ele><time>2026-03-21T14:19:43.132Z</time></trkpt><trkpt lat="44.6258532" lon="8.7811563"><ele>649.0</ele><time>2026-03-21T14:19:44.132Z</time></trkpt><trkpt lat="44.6258557" lon="8.7813708"><ele>649.0</ele><time>2026-03-21T14:19:45.132Z</time></trkpt><trkpt lat="44.6258571" lon="8.7815877"><ele>649.0</ele><time>2026-03-21T14:19:46.131Z</time></trkpt><trkpt lat="44.6258568" lon="8.7818043"><ele>649.0</ele><time>2026-03-21T14:19:47.132Z</time></trkpt><trkpt lat="44.6258464" lon="8.7820206"><ele>649.3333333333334</ele><time>2026-03-21T14:19:48.131Z</time></trkpt><trkpt lat="44.6258299" lon="8.7822401"><ele>649.6666666666666</ele><time>2026-03-21T14:19:49.131Z</time></trkpt><trkpt lat="44.6258165" lon="8.7824584"><ele>650.0</ele><time>2026-03-21T14:19:50.132Z</time></trkpt><trkpt lat="44.6258012" lon="8.7826793"><ele>651.0</ele><time>2026-03-21T14:19:51.132Z</time></trkpt><trkpt lat="44.6257867" lon="8.7829099"><ele>652.0</ele><time>2026-03-21T14:19:52.131Z</time></trkpt><trkpt lat="44.6257702" lon="8.7831465"><ele>653.0</ele><time>2026-03-21T14:19:53.132Z</time></trkpt><trkpt lat="44.6257532" lon="8.7833833"><ele>653.3333333333333</ele><time>2026-03-21T14:19:54.132Z</time></trkpt><trkpt lat="44.6257291" lon="8.7836229"><ele>653.6666666666666</ele><time>2026-03-21T14:19:55.132Z</time></trkpt><trkpt lat="44.6256965" lon="8.7838658"><ele>654.0</ele><time>2026-03-21T14:19:56.131Z</time></trkpt><trkpt lat="44.6256657" lon="8.784099"><ele>654.0</ele><time>2026-03-21T14:19:57.131Z</time></trkpt><trkpt lat="44.6256298" lon="8.7843314"><ele>654.0</ele><time>2026-03-21T14:19:58.132Z</time></trkpt><trkpt lat="44.6255817" lon="8.7845711"><ele>654.0</ele><time>2026-03-21T14:19:59.131Z</time></trkpt><trkpt lat="44.6255346" lon="8.7848065"><ele>654.3333333333334</ele><time>2026-03-21T14:20:00.132Z</time></trkpt><trkpt lat="44.625473" lon="8.7850343"><ele>654.6666666666667</ele><time>2026-03-21T14:20:01.132Z</time></trkpt><trkpt lat="44.6254043" lon="8.7852565"><ele>655.0</ele><time>2026-03-21T14:20:02.131Z</time></trkpt><trkpt lat="44.6253234" lon="8.7854779"><ele>659.6666666666667</ele><time>2026-03-21T14:20:03.132Z</time></trkpt><trkpt lat="44.6252382" lon="8.785683"><ele>664.3333333333334</ele><time>2026-03-21T14:20:04.132Z</time></trkpt><trkpt lat="44.625143" lon="8.7858617"><ele>669.0</ele><time>2026-03-21T14:20:05.131Z</time></trkpt><trkpt lat="44.6250484" lon="8.786005"><ele>671.0</ele><time>2026-03-21T14:20:06.131Z</time></trkpt><trkpt lat="44.6249434" lon="8.7861085"><ele>673.0</ele><time>2026-03-21T14:20:07.131Z</time></trkpt><trkpt lat="44.624828" lon="8.786164"><ele>675.0</ele><time>2026-03-21T14:20:08.132Z</time></trkpt><trkpt lat="44.6247191" lon="8.7861505"><ele>677.0</ele><time>2026-03-21T14:20:09.132Z</time></trkpt><trkpt lat="44.6246183" lon="8.7861083"><ele>677.0</ele><time>2026-03-21T14:20:10.132Z</time></trkpt><trkpt lat="44.6245299" lon="8.7860896"><ele>677.0</ele><time>2026-03-21T14:20:11.132Z</time></trkpt><trkpt lat="44.6244547" lon="8.7861147"><ele>677.0</ele><time>2026-03-21T14:20:12.132Z</time></trkpt><trkpt lat="44.6243915" lon="8.7861872"><ele>677.0</ele><time>2026-03-21T14:20:13.132Z</time></trkpt><trkpt lat="44.6243651" lon="8.786288"><ele>677.0</ele><time>2026-03-21T14:20:14.131Z</time></trkpt><trkpt lat="44.6243514" lon="8.7864034"><ele>677.0</ele><time>2026-03-21T14:20:15.131Z</time></trkpt><trkpt lat="44.6243455" lon="8.7865309"><ele>677.75</ele><time>2026-03-21T14:20:16.132Z</time></trkpt><trkpt lat="44.6243361" lon="8.7866753"><ele>678.5</ele><time>2026-03-21T14:20:17.132Z</time></trkpt><trkpt lat="44.6243258" lon="8.7868457"><ele>679.25</ele><time>2026-03-21T14:20:18.132Z</time></trkpt><trkpt lat="44.6243162" lon="8.787052"><ele>680.0</ele><time>2026-03-21T14:20:19.131Z</time></trkpt><trkpt lat="44.6243014" lon="8.7872766"><ele>680.0</ele><time>2026-03-21T14:20:20.132Z</time></trkpt><trkpt lat="44.6242741" lon="8.7874968"><ele>680.0</ele><time>2026-03-21T14:20:21.132Z</time></trkpt><trkpt lat="44.6242356" lon="8.7877202"><ele>680.0</ele><time>2026-03-21T14:20:22.132Z</time></trkpt><trkpt lat="44.6241814" lon="8.7879365"><ele>683.25</ele><time>2026-03-21T14:20:23.131Z</time></trkpt><trkpt lat="44.6241045" lon="8.7881241"><ele>686.5</ele><time>2026-03-21T14:20:24.132Z</time></trkpt><trkpt lat="44.6240181" lon="8.7882707"><ele>689.75</ele><time>2026-03-21T14:20:25.132Z</time></trkpt><trkpt lat="44.62395" lon="8.7884222"><ele>693.0</ele><time>2026-03-21T14:20:26.132Z</time></trkpt><trkpt lat="44.6239157" lon="8.788602"><ele>697.3333333333334</ele><time>2026-03-21T14:20:27.132Z</time></trkpt><trkpt lat="44.6238776" lon="8.7887868"><ele>701.6666666666667</ele><time>2026-03-21T14:20:28.132Z</time></trkpt><trkpt lat="44.6238776" lon="8.7890105"><ele>706.0</ele><time>2026-03-21T14:20:29.132Z</time></trkpt><trkpt lat="44.62384" lon="8.789225"><ele>707.0</ele><time>2026-03-21T14:20:30.132Z</time></trkpt><trkpt lat="44.6237872" lon="8.7894353"><ele>708.0</ele><time>2026-03-21T14:20:31.132Z</time></trkpt><trkpt lat="44.6237017" lon="8.7896449"><ele>709.0</ele><time>2026-03-21T14:20:32.132Z</time></trkpt><trkpt lat="44.6236093" lon="8.7898318"><ele>706.3333333333334</ele><time>2026-03-21T14:20:33.131Z</time></trkpt><trkpt lat="44.6234825" lon="8.7899815"><ele>703.6666666666666</ele><time>2026-03-21T14:20:34.132Z</time></trkpt><trkpt lat="44.6233403" lon="8.7900941"><ele>701.0</ele><time>2026-03-21T14:20:35.131Z</time></trkpt><trkpt lat="44.6231987" lon="8.7902094"><ele>700.0</ele><time>2026-03-21T14:20:36.131Z</time></trkpt><trkpt lat="44.6229144" lon="8.7903978"><ele>699.0</ele><time>2026-03-21T14:20:38.112Z</time></trkpt><trkpt lat="44.6227755" lon="8.7904843"><ele>700.25</ele><time>2026-03-21T14:20:39.11Z</time></trkpt><trkpt lat="44.6226372" lon="8.790561"><ele>701.5</ele><time>2026-03-21T14:20:40.112Z</time></trkpt><trkpt lat="44.6225077" lon="8.790615"><ele>702.75</ele><time>2026-03-21T14:20:41.112Z</time></trkpt><trkpt lat="44.6223865" lon="8.790655"><ele>704.0</ele><time>2026-03-21T14:20:42.111Z</time></trkpt><trkpt lat="44.6222787" lon="8.7906839"><ele>704.0</ele><time>2026-03-21T14:20:43.112Z</time></trkpt><trkpt lat="44.6221869" lon="8.7907092"><ele>704.0</ele><time>2026-03-21T14:20:44.112Z</time></trkpt><trkpt lat="44.6221087" lon="8.7907239"><ele>704.0</ele><time>2026-03-21T14:20:45.111Z</time></trkpt><trkpt lat="44.6220436" lon="8.7907376"><ele>704.0</ele><time>2026-03-21T14:20:46.112Z</time></trkpt><trkpt lat="44.6219395" lon="8.7907412"><ele>704.0</ele><time>2026-03-21T14:20:48.112Z</time></trkpt><trkpt lat="44.6218732" lon="8.790756"><ele>704.0</ele><time>2026-03-21T14:21:12.112Z</time></trkpt><trkpt lat="44.6218199" lon="8.7908363"><ele>704.8333333333333</ele><time>2026-03-21T14:21:14.111Z</time></trkpt><trkpt lat="44.6217676" lon="8.7909054"><ele>705.6666666666666</ele><time>2026-03-21T14:21:16.111Z</time></trkpt><trkpt lat="44.6216925" lon="8.7909825"><ele>706.5</ele><time>2026-03-21T14:21:19.112Z</time></trkpt><trkpt lat="44.6216074" lon="8.7910268"><ele>707.3333333333334</ele><time>2026-03-21T14:21:21.112Z</time></trkpt><trkpt lat="44.6215444" lon="8.7910544"><ele>708.1666666666667</ele><time>2026-03-21T14:21:22.112Z</time></trkpt><trkpt lat="44.6214726" lon="8.7910846"><ele>709.0</ele><time>2026-03-21T14:21:23.111Z</time></trkpt><trkpt lat="44.6213957" lon="8.7911188"><ele>709.0</ele><time>2026-03-21T14:21:24.112Z</time></trkpt><trkpt lat="44.6213293" lon="8.7911699"><ele>709.0</ele><time>2026-03-21T14:21:25.111Z</time></trkpt><trkpt lat="44.621274" lon="8.7912132"><ele>709.0</ele><time>2026-03-21T14:21:26.112Z</time></trkpt><trkpt lat="44.6211911" lon="8.7912949"><ele>709.0</ele><time>2026-03-21T14:21:28.112Z</time></trkpt><trkpt lat="44.6211051" lon="8.7913757"><ele>709.0</ele><time>2026-03-21T14:21:30.112Z</time></trkpt><trkpt lat="44.621022" lon="8.7914537"><ele>709.0</ele><time>2026-03-21T14:21:32.111Z</time></trkpt><trkpt lat="44.6209453" lon="8.791511"><ele>712.5714285714287</ele><time>2026-03-21T14:21:34.111Z</time></trkpt><trkpt lat="44.6208827" lon="8.7915515"><ele>716.1428571428571</ele><time>2026-03-21T14:21:37.111Z</time></trkpt><trkpt lat="44.6208141" lon="8.7915423"><ele>719.7142857142858</ele><time>2026-03-21T14:21:55.111Z</time></trkpt><trkpt lat="44.6207446" lon="8.7915624"><ele>723.2857142857143</ele><time>2026-03-21T14:21:57.111Z</time></trkpt><trkpt lat="44.6206751" lon="8.7915898"><ele>726.8571428571429</ele><time>2026-03-21T14:21:59.111Z</time></trkpt><trkpt lat="44.6206113" lon="8.7916022"><ele>730.4285714285714</ele><time>2026-03-21T14:22:01.112Z</time></trkpt><trkpt lat="44.6205316" lon="8.7916136"><ele>734.0</ele><time>2026-03-21T14:22:03.111Z</time></trkpt><trkpt lat="44.6204477" lon="8.7916388"><ele>734.0</ele><time>2026-03-21T14:22:05.111Z</time></trkpt><trkpt lat="44.6203681" lon="8.7916594"><ele>734.0</ele><time>2026-03-21T14:22:07.112Z</time></trkpt><trkpt lat="44.6202861" lon="8.7916811"><ele>734.0</ele><time>2026-03-21T14:22:09.111Z</time></trkpt><trkpt lat="44.6201978" lon="8.7917128"><ele>734.0</ele><time>2026-03-21T14:22:11.112Z</time></trkpt><trkpt lat="44.6201097" lon="8.7917372"><ele>734.0</ele><time>2026-03-21T14:22:13.112Z</time></trkpt><trkpt lat="44.6200232" lon="8.7917484"><ele>734.0</ele><time>2026-03-21T14:22:15.112Z</time></trkpt><trkpt lat="44.6199297" lon="8.7917628"><ele>738.0</ele><time>2026-03-21T14:22:17.111Z</time></trkpt><trkpt lat="44.6198276" lon="8.7917765"><ele>742.0</ele><time>2026-03-21T14:22:19.111Z</time></trkpt><trkpt lat="44.6196959" lon="8.7917964"><ele>746.0</ele><time>2026-03-21T14:22:21.112Z</time></trkpt><trkpt lat="44.6196324" lon="8.7917925"><ele>750.0</ele><time>2026-03-21T14:22:22.112Z</time></trkpt><trkpt lat="44.619525" lon="8.7917803"><ele>754.0</ele><time>2026-03-21T14:22:24.112Z</time></trkpt><trkpt lat="44.6194249" lon="8.7917758"><ele>754.5</ele><time>2026-03-21T14:22:26.112Z</time></trkpt><trkpt lat="44.6193537" lon="8.7918249"><ele>755.0</ele><time>2026-03-21T14:22:28.112Z</time></trkpt><trkpt lat="44.6192998" lon="8.791911"><ele>755.5</ele><time>2026-03-21T14:22:30.111Z</time></trkpt><trkpt lat="44.619265" lon="8.792007"><ele>756.0</ele><time>2026-03-21T14:22:32.112Z</time></trkpt><trkpt lat="44.6192454" lon="8.7920956"><ele>756.5</ele><time>2026-03-21T14:22:35.112Z</time></trkpt><trkpt lat="44.6192263" lon="8.7922225"><ele>757.0</ele><time>2026-03-21T14:23:00.111Z</time></trkpt><trkpt lat="44.6192063" lon="8.7923553"><ele>759.0</ele><time>2026-03-21T14:23:02.112Z</time></trkpt><trkpt lat="44.6191926" lon="8.7925027"><ele>761.0</ele><time>2026-03-21T14:23:04.112Z</time></trkpt><trkpt lat="44.6191887" lon="8.792595"><ele>763.0</ele><time>2026-03-21T14:23:06.111Z</time></trkpt><trkpt lat="44.6192519" lon="8.7926213"><ele>765.0</ele><time>2026-03-21T14:23:09.111Z</time></trkpt><trkpt lat="44.6193088" lon="8.7925578"><ele>766.9999999999999</ele><time>2026-03-21T14:23:12.111Z</time></trkpt><trkpt lat="44.6193592" lon="8.7924913"><ele>769.0</ele><time>2026-03-21T14:23:14.111Z</time></trkpt><trkpt lat="44.6194254" lon="8.7924346"><ele>769.0</ele><time>2026-03-21T14:23:16.112Z</time></trkpt><trkpt lat="44.6194807" lon="8.7923662"><ele>769.0</ele><time>2026-03-21T14:23:20.111Z</time></trkpt><trkpt lat="44.6194393" lon="8.7922978"><ele>769.0</ele><time>2026-03-21T14:23:28.112Z</time></trkpt><trkpt lat="44.6193808" lon="8.7923402"><ele>769.0</ele><time>2026-03-21T14:23:32.111Z</time></trkpt><trkpt lat="44.6194047" lon="8.7924374"><ele>769.0</ele><time>2026-03-21T14:23:37.111Z</time></trkpt><trkpt lat="44.6194453" lon="8.7923646"><ele>769.0</ele><time>2026-03-21T14:24:03.111Z</time></trkpt><trkpt lat="44.6193893" lon="8.7923131"><ele>769.0</ele><time>2026-03-21T14:34:05.111Z</time></trkpt><trkpt lat="44.61934" lon="8.7923759"><ele>768.9999999999999</ele><time>2026-03-21T14:34:11.111Z</time></trkpt><trkpt lat="44.6193231" lon="8.7924704"><ele>769.0</ele><time>2026-03-21T14:34:14.112Z</time></trkpt><trkpt lat="44.6192802" lon="8.7925842"><ele>769.0</ele><time>2026-03-21T14:34:17.112Z</time></trkpt><trkpt lat="44.6192111" lon="8.7926532"><ele>769.0</ele><time>2026-03-21T14:34:20.111Z</time></trkpt><trkpt lat="44.6191635" lon="8.7925582"><ele>768.9999999999999</ele><time>2026-03-21T14:34:23.112Z</time></trkpt><trkpt lat="44.6191684" lon="8.7924534"><ele>769.0</ele><time>2026-03-21T14:34:25.111Z</time></trkpt><trkpt lat="44.6192033" lon="8.7923099"><ele>768.9999999999999</ele><time>2026-03-21T14:34:27.112Z</time></trkpt><trkpt lat="44.6192218" lon="8.7921759"><ele>769.0</ele><time>2026-03-21T14:34:29.112Z</time></trkpt><trkpt lat="44.6192393" lon="8.792049"><ele>769.0</ele><time>2026-03-21T14:34:31.112Z</time></trkpt><trkpt lat="44.619274" lon="8.7919387"><ele>769.0</ele><time>2026-03-21T14:34:33.112Z</time></trkpt><trkpt lat="44.619323" lon="8.7918536"><ele>768.9999999999999</ele><time>2026-03-21T14:34:35.111Z</time></trkpt><trkpt lat="44.6193841" lon="8.7917746"><ele>769.0</ele><time>2026-03-21T14:34:37.112Z</time></trkpt><trkpt lat="44.6194579" lon="8.7917516"><ele>766.8571428571428</ele><time>2026-03-21T14:34:39.111Z</time></trkpt><trkpt lat="44.6195311" lon="8.7917776"><ele>764.7142857142858</ele><time>2026-03-21T14:34:41.111Z</time></trkpt><trkpt lat="44.619613" lon="8.791796"><ele>762.5714285714286</ele><time>2026-03-21T14:34:43.112Z</time></trkpt><trkpt lat="44.6196817" lon="8.7918063"><ele>760.4285714285713</ele><time>2026-03-21T14:34:45.111Z</time></trkpt><trkpt lat="44.6197449" lon="8.7918016"><ele>758.2857142857142</ele><time>2026-03-21T14:34:47.112Z</time></trkpt><trkpt lat="44.6198086" lon="8.7917864"><ele>756.1428571428571</ele><time>2026-03-21T14:34:49.112Z</time></trkpt><trkpt lat="44.6198703" lon="8.7917675"><ele>754.0</ele><time>2026-03-21T14:34:51.111Z</time></trkpt><trkpt lat="44.6199328" lon="8.7917518"><ele>754.0</ele><time>2026-03-21T14:34:53.112Z</time></trkpt><trkpt lat="44.6200185" lon="8.7917401"><ele>754.0</ele><time>2026-03-21T14:34:56.112Z</time></trkpt><trkpt lat="44.6201093" lon="8.7917139"><ele>754.0</ele><time>2026-03-21T14:34:59.111Z</time></trkpt><trkpt lat="44.6201727" lon="8.791695"><ele>754.0</ele><time>2026-03-21T14:35:01.112Z</time></trkpt><trkpt lat="44.6202478" lon="8.7916817"><ele>754.0</ele><time>2026-03-21T14:35:04.112Z</time></trkpt><trkpt lat="44.6203265" lon="8.7916711"><ele>754.0</ele><time>2026-03-21T14:35:07.111Z</time></trkpt><trkpt lat="44.6203938" lon="8.7916403"><ele>750.6666666666667</ele><time>2026-03-21T14:35:10.111Z</time></trkpt><trkpt lat="44.6204587" lon="8.7916357"><ele>747.3333333333334</ele><time>2026-03-21T14:35:13.111Z</time></trkpt><trkpt lat="44.6205439" lon="8.7916089"><ele>744.0</ele><time>2026-03-21T14:35:16.111Z</time></trkpt><trkpt lat="44.6206309" lon="8.791596"><ele>740.6666666666666</ele><time>2026-03-21T14:35:19.112Z</time></trkpt><trkpt lat="44.6207161" lon="8.7915842"><ele>737.3333333333333</ele><time>2026-03-21T14:35:22.111Z</time></trkpt><trkpt lat="44.6208013" lon="8.7915718"><ele>734.0</ele><time>2026-03-21T14:35:25.112Z</time></trkpt><trkpt lat="44.620863" lon="8.7915509"><ele>734.0</ele><time>2026-03-21T14:35:27.111Z</time></trkpt><trkpt lat="44.62093" lon="8.7915174"><ele>734.0</ele><time>2026-03-21T14:35:29.112Z</time></trkpt><trkpt lat="44.6209967" lon="8.7914694"><ele>734.0</ele><time>2026-03-21T14:35:31.112Z</time></trkpt><trkpt lat="44.6210593" lon="8.7914177"><ele>734.0</ele><time>2026-03-21T14:35:33.111Z</time></trkpt><trkpt lat="44.6211301" lon="8.7913398"><ele>734.0</ele><time>2026-03-21T14:35:35.112Z</time></trkpt><trkpt lat="44.6211892" lon="8.7912871"><ele>734.0</ele><time>2026-03-21T14:35:37.111Z</time></trkpt><trkpt lat="44.6212501" lon="8.7912277"><ele>730.8333333333333</ele><time>2026-03-21T14:35:40.111Z</time></trkpt><trkpt lat="44.6213526" lon="8.7911488"><ele>727.6666666666666</ele><time>2026-03-21T14:35:43.112Z</time></trkpt><trkpt lat="44.6214307" lon="8.7911024"><ele>724.5</ele><time>2026-03-21T14:35:45.112Z</time></trkpt><trkpt lat="44.6215033" lon="8.7910605"><ele>721.3333333333334</ele><time>2026-03-21T14:35:47.111Z</time></trkpt><trkpt lat="44.6216028" lon="8.7910175"><ele>718.1666666666667</ele><time>2026-03-21T14:35:49.111Z</time></trkpt><trkpt lat="44.6216632" lon="8.7909889"><ele>715.0</ele><time>2026-03-21T14:35:50.112Z</time></trkpt><trkpt lat="44.6217497" lon="8.7909346"><ele>715.0</ele><time>2026-03-21T14:35:52.112Z</time></trkpt><trkpt lat="44.6218049" lon="8.7908701"><ele>715.0</ele><time>2026-03-21T14:35:55.111Z</time></trkpt><trkpt lat="44.6217436" lon="8.7908132"><ele>715.0</ele><time>2026-03-21T14:36:02.112Z</time></trkpt><trkpt lat="44.621683" lon="8.7908377"><ele>715.0</ele><time>2026-03-21T14:37:02.111Z</time></trkpt><trkpt lat="44.6216057" lon="8.7908693"><ele>715.0</ele><time>2026-03-21T14:37:04.112Z</time></trkpt><trkpt lat="44.6215178" lon="8.7909012"><ele>715.0</ele><time>2026-03-21T14:37:06.111Z</time></trkpt><trkpt lat="44.6214137" lon="8.7909549"><ele>715.0</ele><time>2026-03-21T14:37:08.111Z</time></trkpt><trkpt lat="44.6213525" lon="8.7909889"><ele>715.0</ele><time>2026-03-21T14:37:09.112Z</time></trkpt><trkpt lat="44.6212879" lon="8.7910228"><ele>715.0</ele><time>2026-03-21T14:37:10.111Z</time></trkpt><trkpt lat="44.6212138" lon="8.791059"><ele>715.0</ele><time>2026-03-21T14:37:11.112Z</time></trkpt><trkpt lat="44.6211418" lon="8.7910994"><ele>715.0</ele><time>2026-03-21T14:37:12.111Z</time></trkpt><trkpt lat="44.6210585" lon="8.791137"><ele>715.0</ele><time>2026-03-21T14:37:13.112Z</time></trkpt><trkpt lat="44.6209727" lon="8.791164"><ele>718.8</ele><time>2026-03-21T14:37:14.111Z</time></trkpt><trkpt lat="44.62088" lon="8.791179"><ele>722.6</ele><time>2026-03-21T14:37:15.111Z</time></trkpt><trkpt lat="44.6207845" lon="8.7911744"><ele>726.4000000000001</ele><time>2026-03-21T14:37:16.112Z</time></trkpt><trkpt lat="44.6206901" lon="8.7911578"><ele>730.2</ele><time>2026-03-21T14:37:17.111Z</time></trkpt><trkpt lat="44.6205938" lon="8.7911196"><ele>734.0</ele><time>2026-03-21T14:37:18.111Z</time></trkpt><trkpt lat="44.6204991" lon="8.79106"><ele>734.2</ele><time>2026-03-21T14:37:19.112Z</time></trkpt><trkpt lat="44.6204073" lon="8.7909892"><ele>734.4000000000001</ele><time>2026-03-21T14:37:20.112Z</time></trkpt><trkpt lat="44.6203073" lon="8.7909194"><ele>734.6</ele><time>2026-03-21T14:37:21.112Z</time></trkpt><trkpt lat="44.6202076" lon="8.7908611"><ele>734.8</ele><time>2026-03-21T14:37:22.111Z</time></trkpt><trkpt lat="44.6201023" lon="8.7908077"><ele>735.0</ele><time>2026-03-21T14:37:23.111Z</time></trkpt><trkpt lat="44.6199923" lon="8.7907518"><ele>735.0</ele><time>2026-03-21T14:37:24.112Z</time></trkpt><trkpt lat="44.6198806" lon="8.7906821"><ele>735.0</ele><time>2026-03-21T14:37:25.111Z</time></trkpt><trkpt lat="44.6197721" lon="8.7906109"><ele>735.0</ele><time>2026-03-21T14:37:26.112Z</time></trkpt><trkpt lat="44.6196757" lon="8.7905266"><ele>735.0</ele><time>2026-03-21T14:37:27.111Z</time></trkpt><trkpt lat="44.6195971" lon="8.790445"><ele>735.0</ele><time>2026-03-21T14:37:28.112Z</time></trkpt><trkpt lat="44.6195216" lon="8.7903794"><ele>735.0</ele><time>2026-03-21T14:37:29.112Z</time></trkpt><trkpt lat="44.6194409" lon="8.7903398"><ele>735.0</ele><time>2026-03-21T14:37:30.111Z</time></trkpt><trkpt lat="44.6193593" lon="8.7903331"><ele>735.0</ele><time>2026-03-21T14:37:31.112Z</time></trkpt><trkpt lat="44.6192789" lon="8.7903755"><ele>735.0</ele><time>2026-03-21T14:37:32.111Z</time></trkpt><trkpt lat="44.6191999" lon="8.7904429"><ele>735.0</ele><time>2026-03-21T14:37:33.112Z</time></trkpt><trkpt lat="44.6191148" lon="8.7905204"><ele>735.6</ele><time>2026-03-21T14:37:34.111Z</time></trkpt><trkpt lat="44.6190235" lon="8.7906089"><ele>736.2</ele><time>2026-03-21T14:37:35.112Z</time></trkpt><trkpt lat="44.6189362" lon="8.7907024"><ele>736.8</ele><time>2026-03-21T14:37:36.112Z</time></trkpt><trkpt lat="44.6188453" lon="8.7908012"><ele>737.4</ele><time>2026-03-21T14:37:37.111Z</time></trkpt><trkpt lat="44.6187609" lon="8.7909084"><ele>738.0</ele><time>2026-03-21T14:37:38.112Z</time></trkpt><trkpt lat="44.6186886" lon="8.791028"><ele>734.0</ele><time>2026-03-21T14:37:39.112Z</time></trkpt><trkpt lat="44.6186281" lon="8.7911676"><ele>730.0</ele><time>2026-03-21T14:37:40.111Z</time></trkpt><trkpt lat="44.6185865" lon="8.7913263"><ele>726.0</ele><time>2026-03-21T14:37:41.111Z</time></trkpt><trkpt lat="44.6185496" lon="8.7914982"><ele>722.0</ele><time>2026-03-21T14:37:42.111Z</time></trkpt><trkpt lat="44.618501" lon="8.7916684"><ele>722.0</ele><time>2026-03-21T14:37:43.111Z</time></trkpt><trkpt lat="44.6184434" lon="8.7918373"><ele>722.0</ele><time>2026-03-21T14:37:44.112Z</time></trkpt><trkpt lat="44.6183925" lon="8.7920073"><ele>722.0</ele><time>2026-03-21T14:37:45.112Z</time></trkpt><trkpt lat="44.6183489" lon="8.7921711"><ele>722.0</ele><time>2026-03-21T14:37:46.112Z</time></trkpt><trkpt lat="44.6183093" lon="8.7923261"><ele>726.75</ele><time>2026-03-21T14:37:47.111Z</time></trkpt><trkpt lat="44.6182502" lon="8.7924726"><ele>731.5</ele><time>2026-03-21T14:37:48.111Z</time></trkpt><trkpt lat="44.6181658" lon="8.7925946"><ele>736.25</ele><time>2026-03-21T14:37:49.112Z</time></trkpt><trkpt lat="44.6180643" lon="8.7927071"><ele>741.0</ele><time>2026-03-21T14:37:50.111Z</time></trkpt><trkpt lat="44.6179518" lon="8.7927968"><ele>740.5</ele><time>2026-03-21T14:37:51.112Z</time></trkpt><trkpt lat="44.617831" lon="8.7928447"><ele>740.0</ele><time>2026-03-21T14:37:52.112Z</time></trkpt><trkpt lat="44.6177079" lon="8.7928582"><ele>739.5</ele><time>2026-03-21T14:37:53.111Z</time></trkpt><trkpt lat="44.617588" lon="8.7928814"><ele>739.0</ele><time>2026-03-21T14:37:54.112Z</time></trkpt><trkpt lat="44.6174814" lon="8.7929346"><ele>739.0</ele><time>2026-03-21T14:37:55.112Z</time></trkpt><trkpt lat="44.6173787" lon="8.7930156"><ele>739.0</ele><time>2026-03-21T14:37:56.111Z</time></trkpt><trkpt lat="44.617285" lon="8.7931352"><ele>739.0</ele><time>2026-03-21T14:37:57.112Z</time></trkpt><trkpt lat="44.6171937" lon="8.7932765"><ele>739.0</ele><time>2026-03-21T14:37:58.112Z</time></trkpt><trkpt lat="44.6170845" lon="8.7934046"><ele>738.3333333333334</ele><time>2026-03-21T14:37:59.112Z</time></trkpt><trkpt lat="44.6169561" lon="8.793516"><ele>737.6666666666666</ele><time>2026-03-21T14:38:00.111Z</time></trkpt><trkpt lat="44.6168176" lon="8.7936086"><ele>737.0</ele><time>2026-03-21T14:38:01.111Z</time></trkpt><trkpt lat="44.6166797" lon="8.7937096"><ele>737.0</ele><time>2026-03-21T14:38:02.111Z</time></trkpt><trkpt lat="44.6165558" lon="8.7938285"><ele>737.0</ele><time>2026-03-21T14:38:03.111Z</time></trkpt><trkpt lat="44.6164302" lon="8.793936"><ele>737.0</ele><time>2026-03-21T14:38:04.111Z</time></trkpt><trkpt lat="44.6162981" lon="8.7939873"><ele>737.0</ele><time>2026-03-21T14:38:05.111Z</time></trkpt><trkpt lat="44.6161537" lon="8.793999"><ele>734.0</ele><time>2026-03-21T14:38:06.112Z</time></trkpt><trkpt lat="44.6160084" lon="8.7940076"><ele>731.0</ele><time>2026-03-21T14:38:07.112Z</time></trkpt><trkpt lat="44.6158563" lon="8.7940069"><ele>728.0</ele><time>2026-03-21T14:38:08.112Z</time></trkpt><trkpt lat="44.6157052" lon="8.7940024"><ele>725.0</ele><time>2026-03-21T14:38:09.111Z</time></trkpt><trkpt lat="44.615554" lon="8.7939897"><ele>725.0</ele><time>2026-03-21T14:38:10.111Z</time></trkpt><trkpt lat="44.6154025" lon="8.79398"><ele>725.0</ele><time>2026-03-21T14:38:11.112Z</time></trkpt><trkpt lat="44.615253" lon="8.7939822"><ele>725.0</ele><time>2026-03-21T14:38:12.112Z</time></trkpt><trkpt lat="44.6151063" lon="8.7939958"><ele>725.0</ele><time>2026-03-21T14:38:13.112Z</time></trkpt><trkpt lat="44.6149789" lon="8.7940214"><ele>723.6</ele><time>2026-03-21T14:38:14.112Z</time></trkpt><trkpt lat="44.6148681" lon="8.7940791"><ele>722.2</ele><time>2026-03-21T14:38:15.112Z</time></trkpt><trkpt lat="44.6147837" lon="8.7941663"><ele>720.8</ele><time>2026-03-21T14:38:16.111Z</time></trkpt><trkpt lat="44.6147211" lon="8.7942834"><ele>719.4</ele><time>2026-03-21T14:38:17.112Z</time></trkpt><trkpt lat="44.6146797" lon="8.794425"><ele>718.0</ele><time>2026-03-21T14:38:18.111Z</time></trkpt><trkpt lat="44.6146443" lon="8.7945858"><ele>715.5</ele><time>2026-03-21T14:38:19.112Z</time></trkpt><trkpt lat="44.6146076" lon="8.7947563"><ele>713.0</ele><time>2026-03-21T14:38:20.112Z</time></trkpt><trkpt lat="44.6145639" lon="8.7949365"><ele>710.5</ele><time>2026-03-21T14:38:21.111Z</time></trkpt><trkpt lat="44.6145122" lon="8.79512"><ele>708.0</ele><time>2026-03-21T14:38:22.111Z</time></trkpt><trkpt lat="44.6144595" lon="8.7953099"><ele>708.0</ele><time>2026-03-21T14:38:23.111Z</time></trkpt><trkpt lat="44.6144067" lon="8.7954951"><ele>708.0</ele><time>2026-03-21T14:38:24.112Z</time></trkpt><trkpt lat="44.6143453" lon="8.7956637"><ele>708.0</ele><time>2026-03-21T14:38:25.112Z</time></trkpt><trkpt lat="44.6142767" lon="8.7958049"><ele>708.0</ele><time>2026-03-21T14:38:26.112Z</time></trkpt><trkpt lat="44.6142157" lon="8.7959402"><ele>711.25</ele><time>2026-03-21T14:38:27.112Z</time></trkpt><trkpt lat="44.6141705" lon="8.7960841"><ele>714.5</ele><time>2026-03-21T14:38:28.111Z</time></trkpt><trkpt lat="44.6141427" lon="8.7962395"><ele>717.75</ele><time>2026-03-21T14:38:29.111Z</time></trkpt><trkpt lat="44.6141221" lon="8.7963966"><ele>721.0</ele><time>2026-03-21T14:38:30.112Z</time></trkpt><trkpt lat="44.6140903" lon="8.7965445"><ele>721.0</ele><time>2026-03-21T14:38:31.111Z</time></trkpt><trkpt lat="44.6140362" lon="8.7966763"><ele>721.0</ele><time>2026-03-21T14:38:32.112Z</time></trkpt><trkpt lat="44.6139828" lon="8.7967947"><ele>721.0</ele><time>2026-03-21T14:38:33.111Z</time></trkpt><trkpt lat="44.6139407" lon="8.7969092"><ele>721.0</ele><time>2026-03-21T14:38:34.112Z</time></trkpt><trkpt lat="44.613927" lon="8.7970256"><ele>721.0</ele><time>2026-03-21T14:38:35.112Z</time></trkpt><trkpt lat="44.613926" lon="8.7971432"><ele>720.6666666666667</ele><time>2026-03-21T14:38:36.112Z</time></trkpt><trkpt lat="44.6139326" lon="8.7972651"><ele>720.3333333333334</ele><time>2026-03-21T14:38:37.112Z</time></trkpt><trkpt lat="44.613943" lon="8.7973848"><ele>720.0</ele><time>2026-03-21T14:38:38.112Z</time></trkpt><trkpt lat="44.6139552" lon="8.7975092"><ele>719.6666666666666</ele><time>2026-03-21T14:38:39.112Z</time></trkpt><trkpt lat="44.6139661" lon="8.7976318"><ele>719.3333333333333</ele><time>2026-03-21T14:38:40.112Z</time></trkpt><trkpt lat="44.6139768" lon="8.7977571"><ele>719.0</ele><time>2026-03-21T14:38:41.112Z</time></trkpt><trkpt lat="44.6139724" lon="8.7978861"><ele>719.0</ele><time>2026-03-21T14:38:42.112Z</time></trkpt><trkpt lat="44.6139601" lon="8.798011"><ele>719.0</ele><time>2026-03-21T14:38:43.112Z</time></trkpt><trkpt lat="44.6139531" lon="8.7981335"><ele>719.0</ele><time>2026-03-21T14:38:44.111Z</time></trkpt><trkpt lat="44.6139498" lon="8.7982571"><ele>719.0</ele><time>2026-03-21T14:38:45.111Z</time></trkpt><trkpt lat="44.6139547" lon="8.7983795"><ele>719.0</ele><time>2026-03-21T14:38:46.111Z</time></trkpt><trkpt lat="44.6139581" lon="8.7985043"><ele>719.0</ele><time>2026-03-21T14:38:47.111Z</time></trkpt><trkpt lat="44.6139611" lon="8.7986231"><ele>717.3333333333333</ele><time>2026-03-21T14:38:48.111Z</time></trkpt><trkpt lat="44.6139571" lon="8.7987472"><ele>715.6666666666666</ele><time>2026-03-21T14:38:49.111Z</time></trkpt><trkpt lat="44.6139385" lon="8.7988599"><ele>714.0</ele><time>2026-03-21T14:38:50.111Z</time></trkpt><trkpt lat="44.613907" lon="8.7989613"><ele>712.3333333333334</ele><time>2026-03-21T14:38:51.112Z</time></trkpt><trkpt lat="44.6138685" lon="8.7990504"><ele>710.6666666666667</ele><time>2026-03-21T14:38:52.112Z</time></trkpt><trkpt lat="44.6137849" lon="8.7991674"><ele>709.0</ele><time>2026-03-21T14:38:54.111Z</time></trkpt><trkpt lat="44.6137269" lon="8.7992231"><ele>706.2</ele><time>2026-03-21T14:38:56.111Z</time></trkpt><trkpt lat="44.6136548" lon="8.7992578"><ele>703.4000000000001</ele><time>2026-03-21T14:39:24.112Z</time></trkpt><trkpt lat="44.6135348" lon="8.7992577"><ele>700.6</ele><time>2026-03-21T14:39:26.111Z</time></trkpt><trkpt lat="44.6134626" lon="8.7992542"><ele>697.8</ele><time>2026-03-21T14:39:27.111Z</time></trkpt><trkpt lat="44.6133692" lon="8.7992518"><ele>695.0</ele><time>2026-03-21T14:39:28.112Z</time></trkpt><trkpt lat="44.613273" lon="8.7992454"><ele>695.0</ele><time>2026-03-21T14:39:29.112Z</time></trkpt><trkpt lat="44.6131712" lon="8.7992342"><ele>695.0</ele><time>2026-03-21T14:39:30.111Z</time></trkpt><trkpt lat="44.6130655" lon="8.7992183"><ele>695.0</ele><time>2026-03-21T14:39:31.112Z</time></trkpt><trkpt lat="44.6129588" lon="8.7991983"><ele>695.0</ele><time>2026-03-21T14:39:32.111Z</time></trkpt><trkpt lat="44.6128506" lon="8.799183"><ele>695.0</ele><time>2026-03-21T14:39:33.112Z</time></trkpt><trkpt lat="44.6127447" lon="8.7991807"><ele>694.5</ele><time>2026-03-21T14:39:34.112Z</time></trkpt><trkpt lat="44.6126319" lon="8.7991916"><ele>694.0</ele><time>2026-03-21T14:39:35.111Z</time></trkpt><trkpt lat="44.6125117" lon="8.7992169"><ele>693.5</ele><time>2026-03-21T14:39:36.112Z</time></trkpt><trkpt lat="44.6123811" lon="8.7992378"><ele>693.0</ele><time>2026-03-21T14:39:37.112Z</time></trkpt><trkpt lat="44.6122486" lon="8.799265"><ele>693.0</ele><time>2026-03-21T14:39:38.112Z</time></trkpt><trkpt lat="44.612113" lon="8.7993087"><ele>693.0</ele><time>2026-03-21T14:39:39.112Z</time></trkpt><trkpt lat="44.6119762" lon="8.7993851"><ele>693.0</ele><time>2026-03-21T14:39:40.112Z</time></trkpt><trkpt lat="44.6118403" lon="8.7994856"><ele>693.0</ele><time>2026-03-21T14:39:41.112Z</time></trkpt><trkpt lat="44.6117044" lon="8.7995994"><ele>688.0</ele><time>2026-03-21T14:39:42.112Z</time></trkpt><trkpt lat="44.6115741" lon="8.7997233"><ele>683.0</ele><time>2026-03-21T14:39:43.112Z</time></trkpt><trkpt lat="44.6114605" lon="8.7998757"><ele>678.0</ele><time>2026-03-21T14:39:44.112Z</time></trkpt><trkpt lat="44.6113581" lon="8.8000476"><ele>676.25</ele><time>2026-03-21T14:39:45.112Z</time></trkpt><trkpt lat="44.6112679" lon="8.8002159"><ele>674.5</ele><time>2026-03-21T14:39:46.111Z</time></trkpt><trkpt lat="44.6111688" lon="8.8003602"><ele>672.75</ele><time>2026-03-21T14:39:47.111Z</time></trkpt><trkpt lat="44.6110527" lon="8.8004651"><ele>671.0</ele><time>2026-03-21T14:39:48.112Z</time></trkpt><trkpt lat="44.6109297" lon="8.8005209"><ele>676.5</ele><time>2026-03-21T14:39:49.111Z</time></trkpt><trkpt lat="44.6108026" lon="8.8005176"><ele>682.0</ele><time>2026-03-21T14:39:50.112Z</time></trkpt><trkpt lat="44.6106743" lon="8.8004959"><ele>687.5</ele><time>2026-03-21T14:39:51.111Z</time></trkpt><trkpt lat="44.6105499" lon="8.8004695"><ele>693.0</ele><time>2026-03-21T14:39:52.111Z</time></trkpt><trkpt lat="44.610422" lon="8.8004614"><ele>693.25</ele><time>2026-03-21T14:39:53.112Z</time></trkpt><trkpt lat="44.6102872" lon="8.8004767"><ele>693.5</ele><time>2026-03-21T14:39:54.111Z</time></trkpt><trkpt lat="44.6101511" lon="8.8005168"><ele>693.75</ele><time>2026-03-21T14:39:55.112Z</time></trkpt><trkpt lat="44.6100139" lon="8.8005716"><ele>694.0</ele><time>2026-03-21T14:39:56.111Z</time></trkpt><trkpt lat="44.6098757" lon="8.8006351"><ele>694.0</ele><time>2026-03-21T14:39:57.111Z</time></trkpt><trkpt lat="44.609734" lon="8.8007084"><ele>694.0</ele><time>2026-03-21T14:39:58.111Z</time></trkpt><trkpt lat="44.6095938" lon="8.800793"><ele>694.0</ele><time>2026-03-21T14:39:59.112Z</time></trkpt><trkpt lat="44.6094558" lon="8.8008847"><ele>692.3333333333334</ele><time>2026-03-21T14:40:00.111Z</time></trkpt><trkpt lat="44.6093163" lon="8.8009936"><ele>690.6666666666666</ele><time>2026-03-21T14:40:01.111Z</time></trkpt><trkpt lat="44.6091725" lon="8.801099"><ele>689.0</ele><time>2026-03-21T14:40:02.112Z</time></trkpt><trkpt lat="44.6090231" lon="8.8011981"><ele>691.6666666666666</ele><time>2026-03-21T14:40:03.112Z</time></trkpt><trkpt lat="44.6088712" lon="8.8012878"><ele>694.3333333333334</ele><time>2026-03-21T14:40:04.112Z</time></trkpt><trkpt lat="44.6087173" lon="8.8013693"><ele>697.0</ele><time>2026-03-21T14:40:05.112Z</time></trkpt><trkpt lat="44.6085652" lon="8.8014444"><ele>697.0</ele><time>2026-03-21T14:40:06.112Z</time></trkpt><trkpt lat="44.6084182" lon="8.8015201"><ele>697.0</ele><time>2026-03-21T14:40:07.111Z</time></trkpt><trkpt lat="44.6082783" lon="8.8015901"><ele>697.0</ele><time>2026-03-21T14:40:08.111Z</time></trkpt><trkpt lat="44.6081496" lon="8.8016548"><ele>697.0</ele><time>2026-03-21T14:40:09.111Z</time></trkpt><trkpt lat="44.6080335" lon="8.8017212"><ele>697.0</ele><time>2026-03-21T14:40:10.111Z</time></trkpt><trkpt lat="44.607931" lon="8.8018011"><ele>697.0</ele><time>2026-03-21T14:40:11.112Z</time></trkpt><trkpt lat="44.6078439" lon="8.8019162"><ele>697.0</ele><time>2026-03-21T14:40:12.112Z</time></trkpt><trkpt lat="44.6077817" lon="8.8020746"><ele>697.0</ele><time>2026-03-21T14:40:13.112Z</time></trkpt><trkpt lat="44.6077344" lon="8.802269"><ele>696.3333333333334</ele><time>2026-03-21T14:40:14.112Z</time></trkpt><trkpt lat="44.6076756" lon="8.8024788"><ele>695.6666666666666</ele><time>2026-03-21T14:40:15.112Z</time></trkpt><trkpt lat="44.6076123" lon="8.8026928"><ele>695.0</ele><time>2026-03-21T14:40:16.112Z</time></trkpt><trkpt lat="44.6075383" lon="8.8029019"><ele>695.0</ele><time>2026-03-21T14:40:17.112Z</time></trkpt><trkpt lat="44.6074684" lon="8.8030997"><ele>695.0</ele><time>2026-03-21T14:40:18.111Z</time></trkpt><trkpt lat="44.6073985" lon="8.8032795"><ele>695.0</ele><time>2026-03-21T14:40:19.111Z</time></trkpt><trkpt lat="44.6073267" lon="8.8034384"><ele>695.0</ele><time>2026-03-21T14:40:20.112Z</time></trkpt><trkpt lat="44.6072379" lon="8.8035661"><ele>696.5</ele><time>2026-03-21T14:40:21.112Z</time></trkpt><trkpt lat="44.6071309" lon="8.8036589"><ele>698.0</ele><time>2026-03-21T14:40:22.112Z</time></trkpt><trkpt lat="44.6070084" lon="8.8037101"><ele>699.5</ele><time>2026-03-21T14:40:23.111Z</time></trkpt><trkpt lat="44.6068773" lon="8.8037175"><ele>701.0</ele><time>2026-03-21T14:40:24.112Z</time></trkpt><trkpt lat="44.6067371" lon="8.8036929"><ele>701.6666666666666</ele><time>2026-03-21T14:40:25.111Z</time></trkpt><trkpt lat="44.6065943" lon="8.8036435"><ele>702.3333333333334</ele><time>2026-03-21T14:40:26.112Z</time></trkpt><trkpt lat="44.6064504" lon="8.8035672"><ele>703.0</ele><time>2026-03-21T14:40:27.111Z</time></trkpt><trkpt lat="44.6063082" lon="8.80347"><ele>700.6666666666667</ele><time>2026-03-21T14:40:28.111Z</time></trkpt><trkpt lat="44.6061686" lon="8.8033592"><ele>698.3333333333334</ele><time>2026-03-21T14:40:29.112Z</time></trkpt><trkpt lat="44.6060399" lon="8.8032473"><ele>696.0</ele><time>2026-03-21T14:40:30.111Z</time></trkpt><trkpt lat="44.60593" lon="8.8031203"><ele>696.0</ele><time>2026-03-21T14:40:31.112Z</time></trkpt><trkpt lat="44.6058393" lon="8.8029751"><ele>696.0</ele><time>2026-03-21T14:40:32.112Z</time></trkpt><trkpt lat="44.6057639" lon="8.8028119"><ele>696.0</ele><time>2026-03-21T14:40:33.111Z</time></trkpt><trkpt lat="44.6056969" lon="8.8026279"><ele>696.0</ele><time>2026-03-21T14:40:34.112Z</time></trkpt><trkpt lat="44.6056303" lon="8.8024355"><ele>693.0</ele><time>2026-03-21T14:40:35.112Z</time></trkpt><trkpt lat="44.6055758" lon="8.8022384"><ele>690.0</ele><time>2026-03-21T14:40:36.112Z</time></trkpt><trkpt lat="44.6055157" lon="8.802053"><ele>687.0</ele><time>2026-03-21T14:40:37.112Z</time></trkpt><trkpt lat="44.6054487" lon="8.8018804"><ele>684.0</ele><time>2026-03-21T14:40:38.112Z</time></trkpt><trkpt lat="44.6053754" lon="8.8017322"><ele>686.25</ele><time>2026-03-21T14:40:39.112Z</time></trkpt><trkpt lat="44.6052897" lon="8.801612"><ele>688.5</ele><time>2026-03-21T14:40:40.111Z</time></trkpt><trkpt lat="44.6052015" lon="8.8015061"><ele>690.75</ele><time>2026-03-21T14:40:41.112Z</time></trkpt><trkpt lat="44.6051237" lon="8.8013955"><ele>693.0</ele><time>2026-03-21T14:40:42.112Z</time></trkpt><trkpt lat="44.6050605" lon="8.8012783"><ele>693.0</ele><time>2026-03-21T14:40:43.111Z</time></trkpt><trkpt lat="44.6050241" lon="8.8011353"><ele>693.0</ele><time>2026-03-21T14:40:44.112Z</time></trkpt><trkpt lat="44.6050267" lon="8.8009716"><ele>693.0</ele><time>2026-03-21T14:40:45.111Z</time></trkpt><trkpt lat="44.6050151" lon="8.8007967"><ele>693.0</ele><time>2026-03-21T14:40:46.111Z</time></trkpt><trkpt lat="44.6049836" lon="8.8006154"><ele>690.3333333333334</ele><time>2026-03-21T14:40:47.111Z</time></trkpt><trkpt lat="44.6049381" lon="8.8004227"><ele>687.6666666666667</ele><time>2026-03-21T14:40:48.111Z</time></trkpt><trkpt lat="44.6048983" lon="8.8002143"><ele>685.0</ele><time>2026-03-21T14:40:49.112Z</time></trkpt><trkpt lat="44.6048557" lon="8.7999988"><ele>681.6666666666667</ele><time>2026-03-21T14:40:50.112Z</time></trkpt><trkpt lat="44.6048057" lon="8.7997876"><ele>678.3333333333334</ele><time>2026-03-21T14:40:51.112Z</time></trkpt><trkpt lat="44.6047693" lon="8.7995801"><ele>675.0</ele><time>2026-03-21T14:40:52.111Z</time></trkpt><trkpt lat="44.6047395" lon="8.7993771"><ele>672.0</ele><time>2026-03-21T14:40:53.112Z</time></trkpt><trkpt lat="44.6047038" lon="8.799174"><ele>669.0</ele><time>2026-03-21T14:40:54.111Z</time></trkpt><trkpt lat="44.6046432" lon="8.7989727"><ele>666.0</ele><time>2026-03-21T14:40:55.112Z</time></trkpt><trkpt lat="44.6045616" lon="8.7987763"><ele>666.3333333333334</ele><time>2026-03-21T14:40:56.111Z</time></trkpt><trkpt lat="44.6044783" lon="8.7985765"><ele>666.6666666666667</ele><time>2026-03-21T14:40:57.112Z</time></trkpt><trkpt lat="44.6043981" lon="8.79837"><ele>667.0</ele><time>2026-03-21T14:40:58.111Z</time></trkpt><trkpt lat="44.604326" lon="8.7981689"><ele>666.5</ele><time>2026-03-21T14:40:59.112Z</time></trkpt><trkpt lat="44.6042536" lon="8.797981"><ele>666.0</ele><time>2026-03-21T14:41:00.112Z</time></trkpt><trkpt lat="44.604191" lon="8.7978017"><ele>665.5</ele><time>2026-03-21T14:41:01.112Z</time></trkpt><trkpt lat="44.6041358" lon="8.7976569"><ele>665.0</ele><time>2026-03-21T14:41:02.112Z</time></trkpt><trkpt lat="44.6040865" lon="8.7975442"><ele>665.0</ele><time>2026-03-21T14:41:03.112Z</time></trkpt><trkpt lat="44.6040346" lon="8.7974805"><ele>665.0</ele><time>2026-03-21T14:41:04.111Z</time></trkpt><trkpt lat="44.6039537" lon="8.7974561"><ele>665.0</ele><time>2026-03-21T14:41:06.111Z</time></trkpt><trkpt lat="44.6038943" lon="8.7975064"><ele>665.0</ele><time>2026-03-21T14:41:09.111Z</time></trkpt><trkpt lat="44.6038856" lon="8.7976319"><ele>665.0</ele><time>2026-03-21T14:41:33.112Z</time></trkpt><trkpt lat="44.6038965" lon="8.7977293"><ele>665.0</ele><time>2026-03-21T14:41:34.111Z</time></trkpt><trkpt lat="44.6039033" lon="8.7978479"><ele>665.0</ele><time>2026-03-21T14:41:35.112Z</time></trkpt><trkpt lat="44.6039024" lon="8.7979759"><ele>665.0</ele><time>2026-03-21T14:41:36.111Z</time></trkpt><trkpt lat="44.6038994" lon="8.7981188"><ele>665.0</ele><time>2026-03-21T14:41:37.112Z</time></trkpt><trkpt lat="44.6039085" lon="8.7982654"><ele>665.0</ele><time>2026-03-21T14:41:38.112Z</time></trkpt><trkpt lat="44.6039325" lon="8.7984052"><ele>665.0</ele><time>2026-03-21T14:41:39.111Z</time></trkpt><trkpt lat="44.603961" lon="8.798555"><ele>665.5</ele><time>2026-03-21T14:41:40.112Z</time></trkpt><trkpt lat="44.6039756" lon="8.798719"><ele>666.0</ele><time>2026-03-21T14:41:41.111Z</time></trkpt><trkpt lat="44.6039712" lon="8.7989008"><ele>666.5</ele><time>2026-03-21T14:41:42.111Z</time></trkpt><trkpt lat="44.6039665" lon="8.7990945"><ele>667.0</ele><time>2026-03-21T14:41:43.111Z</time></trkpt><trkpt lat="44.603954" lon="8.7992894"><ele>668.5</ele><time>2026-03-21T14:41:44.112Z</time></trkpt><trkpt lat="44.6039302" lon="8.7994895"><ele>670.0</ele><time>2026-03-21T14:41:45.112Z</time></trkpt><trkpt lat="44.6038929" lon="8.7996779"><ele>671.5</ele><time>2026-03-21T14:41:46.112Z</time></trkpt><trkpt lat="44.6038526" lon="8.7998515"><ele>673.0</ele><time>2026-03-21T14:41:47.111Z</time></trkpt><trkpt lat="44.6038167" lon="8.8000321"><ele>673.5</ele><time>2026-03-21T14:41:48.111Z</time></trkpt><trkpt lat="44.60378" lon="8.8001993"><ele>674.0</ele><time>2026-03-21T14:41:49.111Z</time></trkpt><trkpt lat="44.6037358" lon="8.8003494"><ele>674.5</ele><time>2026-03-21T14:41:50.112Z</time></trkpt><trkpt lat="44.6036689" lon="8.8004687"><ele>675.0</ele><time>2026-03-21T14:41:51.111Z</time></trkpt><trkpt lat="44.6036019" lon="8.8005784"><ele>666.5</ele><time>2026-03-21T14:41:52.111Z</time></trkpt><trkpt lat="44.6035471" lon="8.8007047"><ele>658.0</ele><time>2026-03-21T14:41:53.111Z</time></trkpt><trkpt lat="44.603517" lon="8.8008609"><ele>649.5</ele><time>2026-03-21T14:41:54.112Z</time></trkpt><trkpt lat="44.6034996" lon="8.801029"><ele>641.0</ele><time>2026-03-21T14:41:55.111Z</time></trkpt><trkpt lat="44.6034803" lon="8.8011968"><ele>640.5999999999999</ele><time>2026-03-21T14:41:56.111Z</time></trkpt><trkpt lat="44.603454" lon="8.8013582"><ele>640.1999999999999</ele><time>2026-03-21T14:41:57.111Z</time></trkpt><trkpt lat="44.6034435" lon="8.8015119"><ele>639.8</ele><time>2026-03-21T14:41:58.112Z</time></trkpt><trkpt lat="44.6034609" lon="8.801653"><ele>639.4</ele><time>2026-03-21T14:41:59.112Z</time></trkpt><trkpt lat="44.603478" lon="8.8017845"><ele>639.0</ele><time>2026-03-21T14:42:00.112Z</time></trkpt><trkpt lat="44.6034577" lon="8.8019072"><ele>639.8</ele><time>2026-03-21T14:42:01.112Z</time></trkpt><trkpt lat="44.6034038" lon="8.801992"><ele>640.5999999999999</ele><time>2026-03-21T14:42:02.112Z</time></trkpt><trkpt lat="44.6033276" lon="8.8020494"><ele>641.4</ele><time>2026-03-21T14:42:03.112Z</time></trkpt><trkpt lat="44.603245" lon="8.802113"><ele>642.1999999999999</ele><time>2026-03-21T14:42:04.111Z</time></trkpt><trkpt lat="44.6031741" lon="8.8022068"><ele>643.0</ele><time>2026-03-21T14:42:05.111Z</time></trkpt><trkpt lat="44.6030917" lon="8.802515"><ele>642.1999999999999</ele><time>2026-03-21T14:42:07.114Z</time></trkpt><trkpt lat="44.6030566" lon="8.8026842"><ele>641.4</ele><time>2026-03-21T14:42:08.11Z</time></trkpt><trkpt lat="44.6030209" lon="8.8028327"><ele>640.5999999999999</ele><time>2026-03-21T14:42:09.112Z</time></trkpt><trkpt lat="44.6030025" lon="8.8029608"><ele>639.8</ele><time>2026-03-21T14:42:10.112Z</time></trkpt><trkpt lat="44.6030128" lon="8.8030786"><ele>639.0</ele><time>2026-03-21T14:42:11.111Z</time></trkpt><trkpt lat="44.6030548" lon="8.8031995"><ele>639.0</ele><time>2026-03-21T14:42:12.112Z</time></trkpt><trkpt lat="44.6031004" lon="8.8033393"><ele>639.0</ele><time>2026-03-21T14:42:13.111Z</time></trkpt><trkpt lat="44.6031213" lon="8.8035038"><ele>639.0</ele><time>2026-03-21T14:42:14.111Z</time></trkpt><trkpt lat="44.6031232" lon="8.8036828"><ele>639.0</ele><time>2026-03-21T14:42:15.111Z</time></trkpt><trkpt lat="44.6031171" lon="8.8038718"><ele>638.5</ele><time>2026-03-21T14:42:16.111Z</time></trkpt><trkpt lat="44.6031124" lon="8.8040605"><ele>638.0</ele><time>2026-03-21T14:42:17.111Z</time></trkpt><trkpt lat="44.6031254" lon="8.8042327"><ele>637.5</ele><time>2026-03-21T14:42:18.111Z</time></trkpt><trkpt lat="44.6031583" lon="8.8043769"><ele>637.0</ele><time>2026-03-21T14:42:19.111Z</time></trkpt><trkpt lat="44.6031753" lon="8.8045082"><ele>637.0</ele><time>2026-03-21T14:42:20.111Z</time></trkpt><trkpt lat="44.6031532" lon="8.8046305"><ele>637.0</ele><time>2026-03-21T14:42:21.112Z</time></trkpt><trkpt lat="44.6030962" lon="8.8047385"><ele>637.0</ele><time>2026-03-21T14:42:22.112Z</time></trkpt><trkpt lat="44.6030258" lon="8.8048681"><ele>637.0</ele><time>2026-03-21T14:42:23.112Z</time></trkpt><trkpt lat="44.6029461" lon="8.8050087"><ele>637.0</ele><time>2026-03-21T14:42:24.112Z</time></trkpt><trkpt lat="44.6028564" lon="8.8051412"><ele>629.75</ele><time>2026-03-21T14:42:25.112Z</time></trkpt><trkpt lat="44.6027558" lon="8.8052579"><ele>622.5</ele><time>2026-03-21T14:42:26.112Z</time></trkpt><trkpt lat="44.602648" lon="8.805338"><ele>615.25</ele><time>2026-03-21T14:42:27.111Z</time></trkpt><trkpt lat="44.6025452" lon="8.8054036"><ele>608.0</ele><time>2026-03-21T14:42:28.111Z</time></trkpt><trkpt lat="44.6024461" lon="8.8054541"><ele>608.0</ele><time>2026-03-21T14:42:29.111Z</time></trkpt><trkpt lat="44.6023618" lon="8.8055256"><ele>608.0</ele><time>2026-03-21T14:42:30.111Z</time></trkpt><trkpt lat="44.602296" lon="8.8056103"><ele>608.0</ele><time>2026-03-21T14:42:31.111Z</time></trkpt><trkpt lat="44.6022524" lon="8.8056956"><ele>608.0</ele><time>2026-03-21T14:42:32.112Z</time></trkpt><trkpt lat="44.6022499" lon="8.8057889"><ele>608.0</ele><time>2026-03-21T14:42:33.111Z</time></trkpt><trkpt lat="44.6022805" lon="8.8058662"><ele>608.0</ele><time>2026-03-21T14:42:34.111Z</time></trkpt><trkpt lat="44.6023424" lon="8.8059241"><ele>608.0</ele><time>2026-03-21T14:42:35.111Z</time></trkpt><trkpt lat="44.6024482" lon="8.8059649"><ele>608.0</ele><time>2026-03-21T14:42:36.112Z</time></trkpt><trkpt lat="44.6025771" lon="8.8060561"><ele>608.0</ele><time>2026-03-21T14:42:37.111Z</time></trkpt><trkpt lat="44.6026921" lon="8.8061632"><ele>608.0</ele><time>2026-03-21T14:42:38.111Z</time></trkpt><trkpt lat="44.6027962" lon="8.8062886"><ele>608.0</ele><time>2026-03-21T14:42:39.111Z</time></trkpt><trkpt lat="44.6028822" lon="8.8064426"><ele>608.0</ele><time>2026-03-21T14:42:40.111Z</time></trkpt><trkpt lat="44.6029563" lon="8.8065961"><ele>608.0</ele><time>2026-03-21T14:42:41.112Z</time></trkpt><trkpt lat="44.6030305" lon="8.8067366"><ele>608.0</ele><time>2026-03-21T14:42:42.111Z</time></trkpt><trkpt lat="44.6031054" lon="8.8068542"><ele>604.0</ele><time>2026-03-21T14:42:43.112Z</time></trkpt><trkpt lat="44.6031626" lon="8.8069503"><ele>600.0</ele><time>2026-03-21T14:42:44.111Z</time></trkpt><trkpt lat="44.6031896" lon="8.8070404"><ele>596.0</ele><time>2026-03-21T14:42:45.111Z</time></trkpt><trkpt lat="44.6031229" lon="8.8071077"><ele>592.0</ele><time>2026-03-21T14:42:47.111Z</time></trkpt><trkpt lat="44.6030673" lon="8.8070551"><ele>588.0</ele><time>2026-03-21T14:42:48.112Z</time></trkpt><trkpt lat="44.6030073" lon="8.8069641"><ele>584.0</ele><time>2026-03-21T14:42:49.112Z</time></trkpt><trkpt lat="44.6029223" lon="8.806863"><ele>584.8</ele><time>2026-03-21T14:42:50.112Z</time></trkpt><trkpt lat="44.6028384" lon="8.806764"><ele>585.5999999999999</ele><time>2026-03-21T14:42:51.111Z</time></trkpt><trkpt lat="44.6027527" lon="8.8066658"><ele>586.4</ele><time>2026-03-21T14:42:52.112Z</time></trkpt><trkpt lat="44.6026545" lon="8.8065947"><ele>587.1999999999999</ele><time>2026-03-21T14:42:53.111Z</time></trkpt><trkpt lat="44.602554" lon="8.8065572"><ele>588.0</ele><time>2026-03-21T14:42:54.112Z</time></trkpt><trkpt lat="44.6024465" lon="8.8065399"><ele>588.0</ele><time>2026-03-21T14:42:55.111Z</time></trkpt><trkpt lat="44.6023336" lon="8.8065749"><ele>588.0</ele><time>2026-03-21T14:42:56.111Z</time></trkpt><trkpt lat="44.6022216" lon="8.8066351"><ele>588.0</ele><time>2026-03-21T14:42:57.112Z</time></trkpt><trkpt lat="44.6021097" lon="8.8066942"><ele>588.0</ele><time>2026-03-21T14:42:58.111Z</time></trkpt><trkpt lat="44.6019991" lon="8.8067637"><ele>581.75</ele><time>2026-03-21T14:42:59.112Z</time></trkpt><trkpt lat="44.6018921" lon="8.806833"><ele>575.5</ele><time>2026-03-21T14:43:00.111Z</time></trkpt><trkpt lat="44.6017852" lon="8.8069104"><ele>569.25</ele><time>2026-03-21T14:43:01.112Z</time></trkpt><trkpt lat="44.6016875" lon="8.8069918"><ele>563.0</ele><time>2026-03-21T14:43:02.111Z</time></trkpt><trkpt lat="44.6015896" lon="8.8070655"><ele>563.0</ele><time>2026-03-21T14:43:03.111Z</time></trkpt><trkpt lat="44.6014857" lon="8.8071114"><ele>563.0</ele><time>2026-03-21T14:43:04.112Z</time></trkpt><trkpt lat="44.601382" lon="8.8071225"><ele>563.0</ele><time>2026-03-21T14:43:05.111Z</time></trkpt><trkpt lat="44.6012782" lon="8.8071289"><ele>563.0</ele><time>2026-03-21T14:43:06.111Z</time></trkpt><trkpt lat="44.6011777" lon="8.8071523"><ele>563.0</ele><time>2026-03-21T14:43:07.112Z</time></trkpt><trkpt lat="44.6010858" lon="8.8072066"><ele>563.8333333333333</ele><time>2026-03-21T14:43:08.111Z</time></trkpt><trkpt lat="44.6010075" lon="8.8072835"><ele>564.6666666666666</ele><time>2026-03-21T14:43:09.111Z</time></trkpt><trkpt lat="44.6009334" lon="8.8073598"><ele>565.5</ele><time>2026-03-21T14:43:10.112Z</time></trkpt><trkpt lat="44.6008596" lon="8.80742"><ele>566.3333333333334</ele><time>2026-03-21T14:43:11.111Z</time></trkpt><trkpt lat="44.6007791" lon="8.8074528"><ele>567.1666666666667</ele><time>2026-03-21T14:43:12.112Z</time></trkpt><trkpt lat="44.6007006" lon="8.8074433"><ele>568.0</ele><time>2026-03-21T14:43:13.111Z</time></trkpt><trkpt lat="44.600623" lon="8.8073953"><ele>568.0</ele><time>2026-03-21T14:43:14.111Z</time></trkpt><trkpt lat="44.6005455" lon="8.8073372"><ele>568.0</ele><time>2026-03-21T14:43:15.111Z</time></trkpt><trkpt lat="44.6004686" lon="8.8072903"><ele>568.0</ele><time>2026-03-21T14:43:16.112Z</time></trkpt><trkpt lat="44.6003975" lon="8.8072683"><ele>568.0</ele><time>2026-03-21T14:43:17.111Z</time></trkpt><trkpt lat="44.600328" lon="8.8072829"><ele>568.0</ele><time>2026-03-21T14:43:18.112Z</time></trkpt><trkpt lat="44.6002657" lon="8.8073185"><ele>568.0</ele><time>2026-03-21T14:43:19.112Z</time></trkpt><trkpt lat="44.600203" lon="8.8073484"><ele>568.0</ele><time>2026-03-21T14:43:20.112Z</time></trkpt><trkpt lat="44.6000941" lon="8.8073782"><ele>567.5</ele><time>2026-03-21T14:43:22.111Z</time></trkpt><trkpt lat="44.6000045" lon="8.8073699"><ele>567.0</ele><time>2026-03-21T14:43:24.112Z</time></trkpt><trkpt lat="44.5999299" lon="8.8073306"><ele>566.5</ele><time>2026-03-21T14:43:26.111Z</time></trkpt><trkpt lat="44.5998648" lon="8.8072548"><ele>566.0</ele><time>2026-03-21T14:43:28.112Z</time></trkpt><trkpt lat="44.599818" lon="8.8071938"><ele>565.5</ele><time>2026-03-21T14:43:30.112Z</time></trkpt><trkpt lat="44.5997516" lon="8.8070594"><ele>565.0</ele><time>2026-03-21T14:43:45.111Z</time></trkpt><trkpt lat="44.5997084" lon="8.8068863"><ele>565.5</ele><time>2026-03-21T14:43:47.111Z</time></trkpt><trkpt lat="44.5996829" lon="8.8067804"><ele>566.0</ele><time>2026-03-21T14:43:48.112Z</time></trkpt><trkpt lat="44.5996571" lon="8.8066735"><ele>566.5</ele><time>2026-03-21T14:43:49.111Z</time></trkpt><trkpt lat="44.5996264" lon="8.8065617"><ele>567.0</ele><time>2026-03-21T14:43:50.111Z</time></trkpt><trkpt lat="44.5995973" lon="8.8064384"><ele>567.5</ele><time>2026-03-21T14:43:51.112Z</time></trkpt><trkpt lat="44.5995664" lon="8.8063064"><ele>568.0</ele><time>2026-03-21T14:43:52.112Z</time></trkpt><trkpt lat="44.5995529" lon="8.8061691"><ele>568.0</ele><time>2026-03-21T14:43:53.111Z</time></trkpt><trkpt lat="44.5995495" lon="8.8060247"><ele>568.0</ele><time>2026-03-21T14:43:54.111Z</time></trkpt><trkpt lat="44.5995485" lon="8.8058698"><ele>568.0</ele><time>2026-03-21T14:43:55.111Z</time></trkpt><trkpt lat="44.59954" lon="8.805712"><ele>568.0</ele><time>2026-03-21T14:43:56.112Z</time></trkpt><trkpt lat="44.5995238" lon="8.8055459"><ele>568.0</ele><time>2026-03-21T14:43:57.112Z</time></trkpt><trkpt lat="44.5995" lon="8.8053749"><ele>569.0</ele><time>2026-03-21T14:43:58.112Z</time></trkpt><trkpt lat="44.5994721" lon="8.8052093"><ele>570.0</ele><time>2026-03-21T14:43:59.111Z</time></trkpt><trkpt lat="44.599447" lon="8.8050436"><ele>571.0</ele><time>2026-03-21T14:44:00.112Z</time></trkpt><trkpt lat="44.5994183" lon="8.8048731"><ele>572.0</ele><time>2026-03-21T14:44:01.111Z</time></trkpt><trkpt lat="44.5993757" lon="8.8047182"><ele>572.0</ele><time>2026-03-21T14:44:02.111Z</time></trkpt><trkpt lat="44.5993388" lon="8.8045547"><ele>572.0</ele><time>2026-03-21T14:44:03.111Z</time></trkpt><trkpt lat="44.5992993" lon="8.804393"><ele>572.0</ele><time>2026-03-21T14:44:04.111Z</time></trkpt><trkpt lat="44.5992635" lon="8.8042372"><ele>572.0</ele><time>2026-03-21T14:44:05.112Z</time></trkpt><trkpt lat="44.5992261" lon="8.8040787"><ele>569.75</ele><time>2026-03-21T14:44:06.112Z</time></trkpt><trkpt lat="44.5991908" lon="8.8039169"><ele>567.5</ele><time>2026-03-21T14:44:07.112Z</time></trkpt><trkpt lat="44.5991589" lon="8.8037494"><ele>565.25</ele><time>2026-03-21T14:44:08.111Z</time></trkpt><trkpt lat="44.5991315" lon="8.8035806"><ele>563.0</ele><time>2026-03-21T14:44:09.111Z</time></trkpt><trkpt lat="44.5991144" lon="8.8034202"><ele>561.1999999999999</ele><time>2026-03-21T14:44:10.112Z</time></trkpt><trkpt lat="44.5990976" lon="8.8032757"><ele>559.4</ele><time>2026-03-21T14:44:11.112Z</time></trkpt><trkpt lat="44.5990789" lon="8.8031279"><ele>557.5999999999999</ele><time>2026-03-21T14:44:12.111Z</time></trkpt><trkpt lat="44.599037" lon="8.8029858"><ele>555.8</ele><time>2026-03-21T14:44:13.112Z</time></trkpt><trkpt lat="44.5989677" lon="8.8028436"><ele>554.0</ele><time>2026-03-21T14:44:14.112Z</time></trkpt><trkpt lat="44.598901" lon="8.8027055"><ele>552.5</ele><time>2026-03-21T14:44:15.111Z</time></trkpt><trkpt lat="44.5988248" lon="8.802558"><ele>551.0</ele><time>2026-03-21T14:44:16.114Z</time></trkpt><trkpt lat="44.598757" lon="8.8024072"><ele>549.5</ele><time>2026-03-21T14:44:17.114Z</time></trkpt><trkpt lat="44.5986975" lon="8.8022342"><ele>548.0</ele><time>2026-03-21T14:44:18.114Z</time></trkpt><trkpt lat="44.5986361" lon="8.8020577"><ele>549.25</ele><time>2026-03-21T14:44:19.11Z</time></trkpt><trkpt lat="44.5985735" lon="8.8018826"><ele>550.5</ele><time>2026-03-21T14:44:20.112Z</time></trkpt><trkpt lat="44.5985146" lon="8.8017103"><ele>551.75</ele><time>2026-03-21T14:44:21.111Z</time></trkpt><trkpt lat="44.5984754" lon="8.8015238"><ele>553.0</ele><time>2026-03-21T14:44:22.112Z</time></trkpt><trkpt lat="44.5984433" lon="8.8013375"><ele>553.0</ele><time>2026-03-21T14:44:23.112Z</time></trkpt><trkpt lat="44.5984068" lon="8.8011738"><ele>553.0</ele><time>2026-03-21T14:44:24.111Z</time></trkpt><trkpt lat="44.5983745" lon="8.8010203"><ele>553.0</ele><time>2026-03-21T14:44:25.111Z</time></trkpt><trkpt lat="44.5983468" lon="8.8008749"><ele>553.0</ele><time>2026-03-21T14:44:26.112Z</time></trkpt><trkpt lat="44.5982978" lon="8.800748"><ele>553.0</ele><time>2026-03-21T14:44:27.111Z</time></trkpt><trkpt lat="44.5982456" lon="8.8006207"><ele>553.0</ele><time>2026-03-21T14:44:28.111Z</time></trkpt><trkpt lat="44.598185" lon="8.8004914"><ele>553.0</ele><time>2026-03-21T14:44:29.112Z</time></trkpt><trkpt lat="44.5981315" lon="8.8003589"><ele>553.0</ele><time>2026-03-21T14:44:30.112Z</time></trkpt><trkpt lat="44.598083" lon="8.8002263"><ele>553.0</ele><time>2026-03-21T14:44:31.112Z</time></trkpt><trkpt lat="44.5980364" lon="8.8000783"><ele>553.0</ele><time>2026-03-21T14:44:32.111Z</time></trkpt><trkpt lat="44.597997" lon="8.799915"><ele>552.0</ele><time>2026-03-21T14:44:33.111Z</time></trkpt><trkpt lat="44.597955" lon="8.7997565"><ele>551.0</ele><time>2026-03-21T14:44:34.111Z</time></trkpt><trkpt lat="44.597913" lon="8.7996033"><ele>550.0</ele><time>2026-03-21T14:44:35.112Z</time></trkpt><trkpt lat="44.5978829" lon="8.7994626"><ele>549.0</ele><time>2026-03-21T14:44:36.112Z</time></trkpt><trkpt lat="44.597861" lon="8.7993232"><ele>548.0</ele><time>2026-03-21T14:44:37.111Z</time></trkpt><trkpt lat="44.5978514" lon="8.7991837"><ele>547.3333333333333</ele><time>2026-03-21T14:44:38.111Z</time></trkpt><trkpt lat="44.5978635" lon="8.7990636"><ele>546.6666666666666</ele><time>2026-03-21T14:44:39.111Z</time></trkpt><trkpt lat="44.5979032" lon="8.7989622"><ele>546.0</ele><time>2026-03-21T14:44:40.111Z</time></trkpt><trkpt lat="44.59795" lon="8.7988734"><ele>545.3333333333334</ele><time>2026-03-21T14:44:41.111Z</time></trkpt><trkpt lat="44.5979814" lon="8.7987727"><ele>544.6666666666667</ele><time>2026-03-21T14:44:42.112Z</time></trkpt><trkpt lat="44.5979871" lon="8.7986626"><ele>544.0</ele><time>2026-03-21T14:44:43.112Z</time></trkpt><trkpt lat="44.597973" lon="8.7985538"><ele>543.8333333333334</ele><time>2026-03-21T14:44:44.111Z</time></trkpt><trkpt lat="44.5979441" lon="8.7984443"><ele>543.6666666666667</ele><time>2026-03-21T14:44:45.111Z</time></trkpt><trkpt lat="44.597909" lon="8.7983335"><ele>543.5</ele><time>2026-03-21T14:44:46.112Z</time></trkpt><trkpt lat="44.5978721" lon="8.7982212"><ele>543.3333333333334</ele><time>2026-03-21T14:44:47.111Z</time></trkpt><trkpt lat="44.5978339" lon="8.7981083"><ele>543.1666666666666</ele><time>2026-03-21T14:44:48.112Z</time></trkpt><trkpt lat="44.5977939" lon="8.7979871"><ele>543.0</ele><time>2026-03-21T14:44:49.111Z</time></trkpt><trkpt lat="44.5977568" lon="8.7978633"><ele>547.4</ele><time>2026-03-21T14:44:50.111Z</time></trkpt><trkpt lat="44.5977159" lon="8.797739"><ele>551.8</ele><time>2026-03-21T14:44:51.111Z</time></trkpt><trkpt lat="44.5976731" lon="8.7976202"><ele>556.2</ele><time>2026-03-21T14:44:52.112Z</time></trkpt><trkpt lat="44.597629" lon="8.7975105"><ele>560.6</ele><time>2026-03-21T14:44:53.111Z</time></trkpt><trkpt lat="44.5975766" lon="8.7974212"><ele>565.0</ele><time>2026-03-21T14:44:54.112Z</time></trkpt><trkpt lat="44.5975188" lon="8.7973328"><ele>565.0</ele><time>2026-03-21T14:44:55.111Z</time></trkpt><trkpt lat="44.5974883" lon="8.7972258"><ele>565.0</ele><time>2026-03-21T14:44:56.111Z</time></trkpt><trkpt lat="44.5974881" lon="8.7971117"><ele>565.0</ele><time>2026-03-21T14:44:57.111Z</time></trkpt><trkpt lat="44.5974957" lon="8.796992"><ele>565.0</ele><time>2026-03-21T14:44:58.111Z</time></trkpt><trkpt lat="44.5974823" lon="8.7968791"><ele>565.0</ele><time>2026-03-21T14:44:59.112Z</time></trkpt><trkpt lat="44.597446" lon="8.7967856"><ele>565.0</ele><time>2026-03-21T14:45:00.112Z</time></trkpt><trkpt lat="44.5973813" lon="8.7967263"><ele>563.1666666666667</ele><time>2026-03-21T14:45:01.111Z</time></trkpt><trkpt lat="44.5973052" lon="8.7967098"><ele>561.3333333333334</ele><time>2026-03-21T14:45:02.112Z</time></trkpt><trkpt lat="44.5972221" lon="8.7966854"><ele>559.5</ele><time>2026-03-21T14:45:03.112Z</time></trkpt><trkpt lat="44.597152" lon="8.796616"><ele>557.6666666666666</ele><time>2026-03-21T14:45:04.111Z</time></trkpt><trkpt lat="44.5971088" lon="8.7965063"><ele>555.8333333333333</ele><time>2026-03-21T14:45:05.112Z</time></trkpt><trkpt lat="44.5970796" lon="8.7963816"><ele>554.0</ele><time>2026-03-21T14:45:06.112Z</time></trkpt><trkpt lat="44.5970371" lon="8.796246"><ele>558.4</ele><time>2026-03-21T14:45:07.111Z</time></trkpt><trkpt lat="44.5969761" lon="8.7961248"><ele>562.8</ele><time>2026-03-21T14:45:08.112Z</time></trkpt><trkpt lat="44.5969053" lon="8.7960109"><ele>567.2</ele><time>2026-03-21T14:45:09.112Z</time></trkpt><trkpt lat="44.5968391" lon="8.7958876"><ele>571.6</ele><time>2026-03-21T14:45:10.112Z</time></trkpt><trkpt lat="44.5967916" lon="8.7957482"><ele>576.0</ele><time>2026-03-21T14:45:11.112Z</time></trkpt><trkpt lat="44.5967696" lon="8.7956033"><ele>576.0</ele><time>2026-03-21T14:45:12.112Z</time></trkpt><trkpt lat="44.5967449" lon="8.7954652"><ele>576.0</ele><time>2026-03-21T14:45:13.111Z</time></trkpt><trkpt lat="44.5966941" lon="8.7953422"><ele>576.0</ele><time>2026-03-21T14:45:14.111Z</time></trkpt><trkpt lat="44.5966224" lon="8.7952331"><ele>576.0</ele><time>2026-03-21T14:45:15.112Z</time></trkpt><trkpt lat="44.5965409" lon="8.7951286"><ele>576.0</ele><time>2026-03-21T14:45:16.112Z</time></trkpt><trkpt lat="44.5964632" lon="8.7950111"><ele>572.8</ele><time>2026-03-21T14:45:17.112Z</time></trkpt><trkpt lat="44.5963906" lon="8.7948889"><ele>569.6</ele><time>2026-03-21T14:45:18.112Z</time></trkpt><trkpt lat="44.5963186" lon="8.7947648"><ele>566.4</ele><time>2026-03-21T14:45:19.112Z</time></trkpt><trkpt lat="44.5962465" lon="8.7946447"><ele>563.2</ele><time>2026-03-21T14:45:20.112Z</time></trkpt><trkpt lat="44.5961743" lon="8.7945357"><ele>560.0</ele><time>2026-03-21T14:45:21.112Z</time></trkpt><trkpt lat="44.5960883" lon="8.7944458"><ele>560.0</ele><time>2026-03-21T14:45:22.112Z</time></trkpt><trkpt lat="44.5959976" lon="8.7943791"><ele>560.0</ele><time>2026-03-21T14:45:23.111Z</time></trkpt><trkpt lat="44.5958959" lon="8.7943378"><ele>560.0</ele><time>2026-03-21T14:45:24.111Z</time></trkpt><trkpt lat="44.595791" lon="8.7943012"><ele>560.0</ele><time>2026-03-21T14:45:25.113Z</time></trkpt><trkpt lat="44.5956923" lon="8.7942384"><ele>560.0</ele><time>2026-03-21T14:45:26.113Z</time></trkpt><trkpt lat="44.59561" lon="8.7941325"><ele>560.0</ele><time>2026-03-21T14:45:27.112Z</time></trkpt><trkpt lat="44.5955409" lon="8.7940181"><ele>560.0</ele><time>2026-03-21T14:45:28.112Z</time></trkpt><trkpt lat="44.5954585" lon="8.7939222"><ele>560.0</ele><time>2026-03-21T14:45:29.115Z</time></trkpt><trkpt lat="44.5953603" lon="8.7938438"><ele>560.0</ele><time>2026-03-21T14:45:30.115Z</time></trkpt><trkpt lat="44.5952736" lon="8.7937354"><ele>560.0</ele><time>2026-03-21T14:45:31.115Z</time></trkpt><trkpt lat="44.5952045" lon="8.7936079"><ele>559.8</ele><time>2026-03-21T14:45:32.115Z</time></trkpt><trkpt lat="44.5951364" lon="8.7934939"><ele>559.6</ele><time>2026-03-21T14:45:33.115Z</time></trkpt><trkpt lat="44.595058" lon="8.7934135"><ele>559.4</ele><time>2026-03-21T14:45:34.115Z</time></trkpt><trkpt lat="44.5949746" lon="8.7933805"><ele>559.2</ele><time>2026-03-21T14:45:35.115Z</time></trkpt><trkpt lat="44.5948931" lon="8.7933878"><ele>559.0</ele><time>2026-03-21T14:45:36.115Z</time></trkpt><trkpt lat="44.5948164" lon="8.7934322"><ele>561.0</ele><time>2026-03-21T14:45:37.112Z</time></trkpt><trkpt lat="44.5947562" lon="8.7935273"><ele>563.0</ele><time>2026-03-21T14:45:38.112Z</time></trkpt><trkpt lat="44.5947078" lon="8.7936478"><ele>565.0</ele><time>2026-03-21T14:45:39.114Z</time></trkpt><trkpt lat="44.5946522" lon="8.793766"><ele>567.0</ele><time>2026-03-21T14:45:40.111Z</time></trkpt><trkpt lat="44.5945748" lon="8.7938614"><ele>569.0</ele><time>2026-03-21T14:45:41.111Z</time></trkpt><trkpt lat="44.594479" lon="8.7939186"><ele>569.0</ele><time>2026-03-21T14:45:42.113Z</time></trkpt><trkpt lat="44.5943814" lon="8.7939757"><ele>569.0</ele><time>2026-03-21T14:45:43.113Z</time></trkpt><trkpt lat="44.5942867" lon="8.7940459"><ele>569.0</ele><time>2026-03-21T14:45:44.113Z</time></trkpt><trkpt lat="44.5941861" lon="8.794119"><ele>569.0</ele><time>2026-03-21T14:45:45.113Z</time></trkpt><trkpt lat="44.5940824" lon="8.7941816"><ele>569.0</ele><time>2026-03-21T14:45:46.113Z</time></trkpt><trkpt lat="44.5939863" lon="8.7942339"><ele>569.0</ele><time>2026-03-21T14:45:47.113Z</time></trkpt><trkpt lat="44.5939212" lon="8.7942606"><ele>569.0</ele><time>2026-03-21T14:45:50.113Z</time></trkpt><trkpt lat="44.5938604" lon="8.7942878"><ele>569.0</ele><time>2026-03-21T14:47:02.113Z</time></trkpt><trkpt lat="44.5938303" lon="8.7943672"><ele>569.0</ele><time>2026-03-21T14:47:28.113Z</time></trkpt><trkpt lat="44.593751" lon="8.7943848"><ele>569.0</ele><time>2026-03-21T14:47:41.113Z</time></trkpt><trkpt lat="44.5936334" lon="8.7943942"><ele>569.0</ele><time>2026-03-21T14:47:43.113Z</time></trkpt><trkpt lat="44.5935658" lon="8.7944011"><ele>571.6666666666666</ele><time>2026-03-21T14:47:44.113Z</time></trkpt><trkpt lat="44.5934976" lon="8.7944091"><ele>574.3333333333333</ele><time>2026-03-21T14:47:45.112Z</time></trkpt><trkpt lat="44.5934294" lon="8.7944128"><ele>577.0</ele><time>2026-03-21T14:47:46.113Z</time></trkpt><trkpt lat="44.593303" lon="8.7944333"><ele>579.6666666666666</ele><time>2026-03-21T14:47:48.113Z</time></trkpt><trkpt lat="44.5932381" lon="8.794458"><ele>582.3333333333334</ele><time>2026-03-21T14:47:49.112Z</time></trkpt><trkpt lat="44.5931759" lon="8.7944814"><ele>585.0</ele><time>2026-03-21T14:47:50.113Z</time></trkpt><trkpt lat="44.5931104" lon="8.7945131"><ele>585.0</ele><time>2026-03-21T14:47:51.112Z</time></trkpt><trkpt lat="44.5930368" lon="8.7945471"><ele>585.0</ele><time>2026-03-21T14:47:52.113Z</time></trkpt><trkpt lat="44.5929622" lon="8.7945897"><ele>585.0</ele><time>2026-03-21T14:47:53.113Z</time></trkpt><trkpt lat="44.5928781" lon="8.7946427"><ele>585.0</ele><time>2026-03-21T14:47:54.112Z</time></trkpt><trkpt lat="44.5928035" lon="8.7946928"><ele>585.0</ele><time>2026-03-21T14:47:55.112Z</time></trkpt><trkpt lat="44.5927327" lon="8.7947449"><ele>585.0</ele><time>2026-03-21T14:47:56.112Z</time></trkpt><trkpt lat="44.5926715" lon="8.7948003"><ele>582.2857142857143</ele><time>2026-03-21T14:47:57.113Z</time></trkpt><trkpt lat="44.5926133" lon="8.7948552"><ele>579.5714285714286</ele><time>2026-03-21T14:47:58.112Z</time></trkpt><trkpt lat="44.5925534" lon="8.7949031"><ele>576.8571428571429</ele><time>2026-03-21T14:47:59.112Z</time></trkpt><trkpt lat="44.5924881" lon="8.7949367"><ele>574.1428571428571</ele><time>2026-03-21T14:48:00.112Z</time></trkpt><trkpt lat="44.5924142" lon="8.7949508"><ele>571.4285714285714</ele><time>2026-03-21T14:48:01.112Z</time></trkpt><trkpt lat="44.5923402" lon="8.7949421"><ele>568.7142857142858</ele><time>2026-03-21T14:48:02.112Z</time></trkpt><trkpt lat="44.592261" lon="8.7949315"><ele>566.0</ele><time>2026-03-21T14:48:03.113Z</time></trkpt><trkpt lat="44.5921743" lon="8.7949268"><ele>566.0</ele><time>2026-03-21T14:48:04.113Z</time></trkpt><trkpt lat="44.5920922" lon="8.7949149"><ele>566.0</ele><time>2026-03-21T14:48:05.112Z</time></trkpt><trkpt lat="44.5920127" lon="8.7948848"><ele>566.0</ele><time>2026-03-21T14:48:06.113Z</time></trkpt><trkpt lat="44.5919473" lon="8.7948189"><ele>566.0</ele><time>2026-03-21T14:48:07.112Z</time></trkpt><trkpt lat="44.5919115" lon="8.7947278"><ele>566.0</ele><time>2026-03-21T14:48:08.113Z</time></trkpt><trkpt lat="44.5918893" lon="8.7946281"><ele>566.0</ele><time>2026-03-21T14:48:09.112Z</time></trkpt><trkpt lat="44.5918686" lon="8.794511"><ele>564.0</ele><time>2026-03-21T14:48:10.112Z</time></trkpt><trkpt lat="44.5918386" lon="8.7943923"><ele>562.0</ele><time>2026-03-21T14:48:11.112Z</time></trkpt><trkpt lat="44.5918045" lon="8.794277"><ele>560.0</ele><time>2026-03-21T14:48:12.112Z</time></trkpt><trkpt lat="44.5917714" lon="8.7941684"><ele>558.0</ele><time>2026-03-21T14:48:13.112Z</time></trkpt><trkpt lat="44.5917212" lon="8.794076"><ele>556.0</ele><time>2026-03-21T14:48:14.112Z</time></trkpt><trkpt lat="44.5916485" lon="8.7940185"><ele>554.0</ele><time>2026-03-21T14:48:15.113Z</time></trkpt><trkpt lat="44.5915698" lon="8.7939867"><ele>554.0</ele><time>2026-03-21T14:48:16.113Z</time></trkpt><trkpt lat="44.5914861" lon="8.7939503"><ele>554.0</ele><time>2026-03-21T14:48:17.112Z</time></trkpt><trkpt lat="44.5914058" lon="8.7938851"><ele>554.0</ele><time>2026-03-21T14:48:18.113Z</time></trkpt><trkpt lat="44.5913322" lon="8.7938061"><ele>554.0</ele><time>2026-03-21T14:48:19.112Z</time></trkpt><trkpt lat="44.5912563" lon="8.7937277"><ele>554.0</ele><time>2026-03-21T14:48:20.112Z</time></trkpt><trkpt lat="44.5911748" lon="8.7936574"><ele>552.8333333333333</ele><time>2026-03-21T14:48:21.112Z</time></trkpt><trkpt lat="44.5910939" lon="8.7935949"><ele>551.6666666666666</ele><time>2026-03-21T14:48:22.112Z</time></trkpt><trkpt lat="44.5910181" lon="8.7935187"><ele>550.5</ele><time>2026-03-21T14:48:23.112Z</time></trkpt><trkpt lat="44.5909557" lon="8.7934207"><ele>549.3333333333334</ele><time>2026-03-21T14:48:24.113Z</time></trkpt><trkpt lat="44.5909382" lon="8.7933089"><ele>548.1666666666667</ele><time>2026-03-21T14:48:25.113Z</time></trkpt><trkpt lat="44.5909194" lon="8.793203"><ele>547.0</ele><time>2026-03-21T14:48:26.112Z</time></trkpt><trkpt lat="44.5908897" lon="8.793103"><ele>547.0</ele><time>2026-03-21T14:48:27.112Z</time></trkpt><trkpt lat="44.5908507" lon="8.7930038"><ele>547.0</ele><time>2026-03-21T14:48:28.112Z</time></trkpt><trkpt lat="44.5908069" lon="8.7929028"><ele>547.0</ele><time>2026-03-21T14:48:29.113Z</time></trkpt><trkpt lat="44.5907654" lon="8.7927923"><ele>547.0</ele><time>2026-03-21T14:48:30.112Z</time></trkpt><trkpt lat="44.5907366" lon="8.7926761"><ele>547.0</ele><time>2026-03-21T14:48:31.113Z</time></trkpt><trkpt lat="44.5907139" lon="8.7925533"><ele>547.0</ele><time>2026-03-21T14:48:32.112Z</time></trkpt><trkpt lat="44.5907023" lon="8.7924315"><ele>544.0</ele><time>2026-03-21T14:48:33.113Z</time></trkpt><trkpt lat="44.5906955" lon="8.7923156"><ele>541.0</ele><time>2026-03-21T14:48:34.113Z</time></trkpt><trkpt lat="44.5906807" lon="8.7922063"><ele>538.0</ele><time>2026-03-21T14:48:35.113Z</time></trkpt><trkpt lat="44.5906592" lon="8.7921133"><ele>535.0</ele><time>2026-03-21T14:48:36.113Z</time></trkpt><trkpt lat="44.590614" lon="8.7920264"><ele>532.0</ele><time>2026-03-21T14:48:37.112Z</time></trkpt><trkpt lat="44.5905455" lon="8.7919481"><ele>529.0</ele><time>2026-03-21T14:48:38.113Z</time></trkpt><trkpt lat="44.5904828" lon="8.7918746"><ele>530.5</ele><time>2026-03-21T14:48:39.112Z</time></trkpt><trkpt lat="44.5904194" lon="8.7917988"><ele>532.0</ele><time>2026-03-21T14:48:40.113Z</time></trkpt><trkpt lat="44.5903505" lon="8.7917431"><ele>533.5</ele><time>2026-03-21T14:48:41.113Z</time></trkpt><trkpt lat="44.5902828" lon="8.7917143"><ele>535.0</ele><time>2026-03-21T14:48:42.113Z</time></trkpt><trkpt lat="44.5902107" lon="8.791729"><ele>536.5</ele><time>2026-03-21T14:48:43.113Z</time></trkpt><trkpt lat="44.5901448" lon="8.791784"><ele>538.0</ele><time>2026-03-21T14:48:44.112Z</time></trkpt><trkpt lat="44.5900928" lon="8.7918769"><ele>538.0</ele><time>2026-03-21T14:48:45.113Z</time></trkpt><trkpt lat="44.590048" lon="8.7919807"><ele>538.0</ele><time>2026-03-21T14:48:46.113Z</time></trkpt><trkpt lat="44.5899908" lon="8.792082"><ele>538.0</ele><time>2026-03-21T14:48:47.112Z</time></trkpt><trkpt lat="44.5899218" lon="8.7921543"><ele>538.0</ele><time>2026-03-21T14:48:48.113Z</time></trkpt><trkpt lat="44.5898511" lon="8.7921985"><ele>538.0</ele><time>2026-03-21T14:48:49.112Z</time></trkpt><trkpt lat="44.5897766" lon="8.7922443"><ele>538.0</ele><time>2026-03-21T14:48:50.113Z</time></trkpt><trkpt lat="44.5897123" lon="8.792295"><ele>538.0</ele><time>2026-03-21T14:48:51.113Z</time></trkpt><trkpt lat="44.5896446" lon="8.7923589"><ele>538.0</ele><time>2026-03-21T14:48:52.113Z</time></trkpt><trkpt lat="44.5895707" lon="8.7924238"><ele>538.0</ele><time>2026-03-21T14:48:53.112Z</time></trkpt><trkpt lat="44.5894852" lon="8.7925"><ele>538.0</ele><time>2026-03-21T14:48:54.112Z</time></trkpt><trkpt lat="44.5893987" lon="8.7925884"><ele>538.0</ele><time>2026-03-21T14:48:55.112Z</time></trkpt><trkpt lat="44.5893116" lon="8.7926934"><ele>539.0</ele><time>2026-03-21T14:48:56.113Z</time></trkpt><trkpt lat="44.5892312" lon="8.7928165"><ele>540.0</ele><time>2026-03-21T14:48:57.112Z</time></trkpt><trkpt lat="44.5891599" lon="8.7929376"><ele>541.0</ele><time>2026-03-21T14:48:58.112Z</time></trkpt><trkpt lat="44.5890973" lon="8.7930517"><ele>542.0</ele><time>2026-03-21T14:48:59.112Z</time></trkpt><trkpt lat="44.5890381" lon="8.7931598"><ele>543.0</ele><time>2026-03-21T14:49:00.112Z</time></trkpt><trkpt lat="44.588978" lon="8.7932587"><ele>543.0</ele><time>2026-03-21T14:49:01.113Z</time></trkpt><trkpt lat="44.5889046" lon="8.7933217"><ele>543.0</ele><time>2026-03-21T14:49:02.113Z</time></trkpt><trkpt lat="44.5888285" lon="8.7933493"><ele>543.0</ele><time>2026-03-21T14:49:03.112Z</time></trkpt><trkpt lat="44.5887555" lon="8.7933198"><ele>543.0</ele><time>2026-03-21T14:49:04.113Z</time></trkpt><trkpt lat="44.5886865" lon="8.7932417"><ele>543.0</ele><time>2026-03-21T14:49:05.112Z</time></trkpt><trkpt lat="44.5886318" lon="8.7931261"><ele>543.0</ele><time>2026-03-21T14:49:06.113Z</time></trkpt><trkpt lat="44.5885996" lon="8.7930015"><ele>544.8</ele><time>2026-03-21T14:49:07.111Z</time></trkpt><trkpt lat="44.5885715" lon="8.7928738"><ele>546.5999999999999</ele><time>2026-03-21T14:49:08.112Z</time></trkpt><trkpt lat="44.588541" lon="8.7927362"><ele>548.4000000000001</ele><time>2026-03-21T14:49:09.113Z</time></trkpt><trkpt lat="44.5885011" lon="8.7926011"><ele>550.2</ele><time>2026-03-21T14:49:10.113Z</time></trkpt><trkpt lat="44.5884599" lon="8.7924722"><ele>552.0</ele><time>2026-03-21T14:49:11.112Z</time></trkpt><trkpt lat="44.5884148" lon="8.792353"><ele>547.5</ele><time>2026-03-21T14:49:12.112Z</time></trkpt><trkpt lat="44.5883645" lon="8.7922509"><ele>543.0</ele><time>2026-03-21T14:49:13.113Z</time></trkpt><trkpt lat="44.588303" lon="8.7921766"><ele>538.5</ele><time>2026-03-21T14:49:14.112Z</time></trkpt><trkpt lat="44.5882347" lon="8.7921338"><ele>534.0</ele><time>2026-03-21T14:49:15.112Z</time></trkpt><trkpt lat="44.5881666" lon="8.7921239"><ele>529.5</ele><time>2026-03-21T14:49:16.112Z</time></trkpt><trkpt lat="44.5880924" lon="8.7921374"><ele>525.0</ele><time>2026-03-21T14:49:17.113Z</time></trkpt><trkpt lat="44.5880072" lon="8.7921551"><ele>525.0</ele><time>2026-03-21T14:49:18.113Z</time></trkpt><trkpt lat="44.5879141" lon="8.7921729"><ele>525.0</ele><time>2026-03-21T14:49:19.112Z</time></trkpt><trkpt lat="44.5878067" lon="8.792179"><ele>525.0</ele><time>2026-03-21T14:49:20.113Z</time></trkpt><trkpt lat="44.5876964" lon="8.792176"><ele>525.0</ele><time>2026-03-21T14:49:21.112Z</time></trkpt><trkpt lat="44.5875881" lon="8.7921758"><ele>525.0</ele><time>2026-03-21T14:49:22.113Z</time></trkpt><trkpt lat="44.5874838" lon="8.7921557"><ele>529.4</ele><time>2026-03-21T14:49:23.112Z</time></trkpt><trkpt lat="44.5873758" lon="8.7921025"><ele>533.8</ele><time>2026-03-21T14:49:24.112Z</time></trkpt><trkpt lat="44.5872766" lon="8.7920488"><ele>538.2</ele><time>2026-03-21T14:49:25.112Z</time></trkpt><trkpt lat="44.587172" lon="8.7920043"><ele>542.6</ele><time>2026-03-21T14:49:26.113Z</time></trkpt><trkpt lat="44.5870631" lon="8.7919664"><ele>547.0</ele><time>2026-03-21T14:49:27.112Z</time></trkpt><trkpt lat="44.5869553" lon="8.7919312"><ele>544.4</ele><time>2026-03-21T14:49:28.113Z</time></trkpt><trkpt lat="44.5868572" lon="8.7918845"><ele>541.8000000000001</ele><time>2026-03-21T14:49:29.112Z</time></trkpt><trkpt lat="44.5867536" lon="8.7918242"><ele>539.2</ele><time>2026-03-21T14:49:30.113Z</time></trkpt><trkpt lat="44.5867195" lon="8.7917312"><ele>536.6</ele><time>2026-03-21T14:49:31.113Z</time></trkpt><trkpt lat="44.5866697" lon="8.7916368"><ele>534.0</ele><time>2026-03-21T14:49:32.113Z</time></trkpt><trkpt lat="44.5866315" lon="8.7915422"><ele>534.0</ele><time>2026-03-21T14:49:33.113Z</time></trkpt><trkpt lat="44.586586" lon="8.7914523"><ele>534.0</ele><time>2026-03-21T14:49:34.112Z</time></trkpt><trkpt lat="44.5865296" lon="8.7913681"><ele>534.0</ele><time>2026-03-21T14:49:35.112Z</time></trkpt><trkpt lat="44.586456" lon="8.7912827"><ele>534.0</ele><time>2026-03-21T14:49:36.112Z</time></trkpt><trkpt lat="44.5863747" lon="8.7912085"><ele>534.0</ele><time>2026-03-21T14:49:37.113Z</time></trkpt><trkpt lat="44.5862915" lon="8.7911517"><ele>534.0</ele><time>2026-03-21T14:49:38.112Z</time></trkpt><trkpt lat="44.5862111" lon="8.791123"><ele>534.1666666666666</ele><time>2026-03-21T14:49:39.113Z</time></trkpt><trkpt lat="44.5861331" lon="8.7911403"><ele>534.3333333333334</ele><time>2026-03-21T14:49:40.112Z</time></trkpt><trkpt lat="44.5860607" lon="8.7911962"><ele>534.5</ele><time>2026-03-21T14:49:41.113Z</time></trkpt><trkpt lat="44.5859911" lon="8.7912709"><ele>534.6666666666667</ele><time>2026-03-21T14:49:42.113Z</time></trkpt><trkpt lat="44.5859376" lon="8.7913519"><ele>534.8333333333334</ele><time>2026-03-21T14:49:43.112Z</time></trkpt><trkpt lat="44.5858954" lon="8.7914451"><ele>535.0</ele><time>2026-03-21T14:49:44.112Z</time></trkpt><trkpt lat="44.585868" lon="8.7915395"><ele>535.0</ele><time>2026-03-21T14:49:45.112Z</time></trkpt><trkpt lat="44.5858259" lon="8.7916256"><ele>535.0</ele><time>2026-03-21T14:49:46.112Z</time></trkpt><trkpt lat="44.585775" lon="8.7917093"><ele>535.0</ele><time>2026-03-21T14:49:47.112Z</time></trkpt><trkpt lat="44.5857137" lon="8.7917772"><ele>535.0</ele><time>2026-03-21T14:49:48.113Z</time></trkpt><trkpt lat="44.585644" lon="8.7917996"><ele>535.0</ele><time>2026-03-21T14:49:49.112Z</time></trkpt><trkpt lat="44.5855794" lon="8.7917638"><ele>535.0</ele><time>2026-03-21T14:49:50.112Z</time></trkpt><trkpt lat="44.585521" lon="8.7916792"><ele>535.0</ele><time>2026-03-21T14:49:51.113Z</time></trkpt><trkpt lat="44.5854801" lon="8.7915726"><ele>535.0</ele><time>2026-03-21T14:49:52.113Z</time></trkpt><trkpt lat="44.5854676" lon="8.7914578"><ele>535.0</ele><time>2026-03-21T14:49:53.113Z</time></trkpt><trkpt lat="44.5854421" lon="8.7913411"><ele>535.0</ele><time>2026-03-21T14:49:54.112Z</time></trkpt><trkpt lat="44.5853984" lon="8.7912283"><ele>535.0</ele><time>2026-03-21T14:49:55.113Z</time></trkpt><trkpt lat="44.585338" lon="8.7911142"><ele>535.0</ele><time>2026-03-21T14:49:56.113Z</time></trkpt><trkpt lat="44.5852715" lon="8.7909854"><ele>533.4</ele><time>2026-03-21T14:49:57.112Z</time></trkpt><trkpt lat="44.5852292" lon="8.790854"><ele>531.8</ele><time>2026-03-21T14:49:58.113Z</time></trkpt><trkpt lat="44.5851913" lon="8.790724"><ele>530.2</ele><time>2026-03-21T14:49:59.113Z</time></trkpt><trkpt lat="44.5851751" lon="8.7905966"><ele>528.6</ele><time>2026-03-21T14:50:00.112Z</time></trkpt><trkpt lat="44.5851466" lon="8.7904764"><ele>527.0</ele><time>2026-03-21T14:50:01.113Z</time></trkpt><trkpt lat="44.5851111" lon="8.7903987"><ele>527.0</ele><time>2026-03-21T14:50:02.112Z</time></trkpt><trkpt lat="44.5850682" lon="8.7903312"><ele>527.0</ele><time>2026-03-21T14:50:03.113Z</time></trkpt><trkpt lat="44.5849369" lon="8.7903261"><ele>527.0</ele><time>2026-03-21T14:50:05.112Z</time></trkpt><trkpt lat="44.5848491" lon="8.7903621"><ele>527.0</ele><time>2026-03-21T14:50:06.112Z</time></trkpt><trkpt lat="44.5847601" lon="8.7904335"><ele>527.0</ele><time>2026-03-21T14:50:07.113Z</time></trkpt><trkpt lat="44.5846858" lon="8.7905221"><ele>527.0</ele><time>2026-03-21T14:50:08.113Z</time></trkpt><trkpt lat="44.5846046" lon="8.7906061"><ele>527.0</ele><time>2026-03-21T14:50:09.113Z</time></trkpt><trkpt lat="44.5845217" lon="8.7906595"><ele>527.0</ele><time>2026-03-21T14:50:10.113Z</time></trkpt><trkpt lat="44.5844417" lon="8.7906697"><ele>527.0</ele><time>2026-03-21T14:50:11.112Z</time></trkpt><trkpt lat="44.5843676" lon="8.7906564"><ele>527.0</ele><time>2026-03-21T14:50:12.113Z</time></trkpt><trkpt lat="44.5842915" lon="8.7906545"><ele>527.0</ele><time>2026-03-21T14:50:13.113Z</time></trkpt><trkpt lat="44.584221" lon="8.790676"><ele>526.4</ele><time>2026-03-21T14:50:14.113Z</time></trkpt><trkpt lat="44.5841475" lon="8.7907335"><ele>525.8000000000001</ele><time>2026-03-21T14:50:15.113Z</time></trkpt><trkpt lat="44.5840691" lon="8.7907877"><ele>525.2</ele><time>2026-03-21T14:50:16.113Z</time></trkpt><trkpt lat="44.5839764" lon="8.7908347"><ele>524.6</ele><time>2026-03-21T14:50:17.113Z</time></trkpt><trkpt lat="44.5838883" lon="8.7908889"><ele>524.0</ele><time>2026-03-21T14:50:18.113Z</time></trkpt><trkpt lat="44.5837972" lon="8.7909631"><ele>531.5</ele><time>2026-03-21T14:50:19.112Z</time></trkpt><trkpt lat="44.5836979" lon="8.7910459"><ele>539.0</ele><time>2026-03-21T14:50:20.113Z</time></trkpt><trkpt lat="44.5835883" lon="8.7911093"><ele>546.5</ele><time>2026-03-21T14:50:21.113Z</time></trkpt><trkpt lat="44.5834741" lon="8.7911518"><ele>554.0</ele><time>2026-03-21T14:50:22.112Z</time></trkpt><trkpt lat="44.5833636" lon="8.7911734"><ele>554.0</ele><time>2026-03-21T14:50:23.113Z</time></trkpt><trkpt lat="44.5832511" lon="8.7911781"><ele>554.0</ele><time>2026-03-21T14:50:24.112Z</time></trkpt><trkpt lat="44.5831358" lon="8.7911682"><ele>554.0</ele><time>2026-03-21T14:50:25.113Z</time></trkpt><trkpt lat="44.5830268" lon="8.7911514"><ele>554.0</ele><time>2026-03-21T14:50:26.113Z</time></trkpt><trkpt lat="44.5829127" lon="8.7911284"><ele>553.4</ele><time>2026-03-21T14:50:27.113Z</time></trkpt><trkpt lat="44.5828144" lon="8.7910963"><ele>552.8</ele><time>2026-03-21T14:50:28.113Z</time></trkpt><trkpt lat="44.5827184" lon="8.7910651"><ele>552.2</ele><time>2026-03-21T14:50:29.112Z</time></trkpt><trkpt lat="44.5826183" lon="8.7910527"><ele>551.6</ele><time>2026-03-21T14:50:30.112Z</time></trkpt><trkpt lat="44.5825163" lon="8.7910788"><ele>551.0</ele><time>2026-03-21T14:50:31.112Z</time></trkpt><trkpt lat="44.5824123" lon="8.7911229"><ele>551.0</ele><time>2026-03-21T14:50:32.112Z</time></trkpt><trkpt lat="44.5823201" lon="8.7911714"><ele>551.0</ele><time>2026-03-21T14:50:33.113Z</time></trkpt><trkpt lat="44.5822294" lon="8.791201"><ele>551.0</ele><time>2026-03-21T14:50:34.113Z</time></trkpt><trkpt lat="44.5821459" lon="8.7911846"><ele>551.0</ele><time>2026-03-21T14:50:35.112Z</time></trkpt><trkpt lat="44.5820808" lon="8.7911197"><ele>551.0</ele><time>2026-03-21T14:50:36.113Z</time></trkpt><trkpt lat="44.5820324" lon="8.7910211"><ele>551.0</ele><time>2026-03-21T14:50:37.113Z</time></trkpt><trkpt lat="44.5819802" lon="8.7909331"><ele>545.0</ele><time>2026-03-21T14:50:38.112Z</time></trkpt><trkpt lat="44.5819161" lon="8.7908492"><ele>539.0</ele><time>2026-03-21T14:50:39.113Z</time></trkpt><trkpt lat="44.5818185" lon="8.7908379"><ele>533.0</ele><time>2026-03-21T14:50:40.112Z</time></trkpt><trkpt lat="44.5817236" lon="8.7908167"><ele>527.0</ele><time>2026-03-21T14:50:41.113Z</time></trkpt><trkpt lat="44.5816168" lon="8.7908161"><ele>521.0</ele><time>2026-03-21T14:50:42.113Z</time></trkpt><trkpt lat="44.58151" lon="8.7908387"><ele>521.0</ele><time>2026-03-21T14:50:43.113Z</time></trkpt><trkpt lat="44.5814107" lon="8.7908527"><ele>521.0</ele><time>2026-03-21T14:50:44.112Z</time></trkpt><trkpt lat="44.5813137" lon="8.7908263"><ele>521.0</ele><time>2026-03-21T14:50:45.112Z</time></trkpt><trkpt lat="44.5812282" lon="8.7907617"><ele>521.0</ele><time>2026-03-21T14:50:46.112Z</time></trkpt><trkpt lat="44.5811575" lon="8.7906776"><ele>521.0</ele><time>2026-03-21T14:50:47.112Z</time></trkpt><trkpt lat="44.5810874" lon="8.7905802"><ele>521.5</ele><time>2026-03-21T14:50:48.112Z</time></trkpt><trkpt lat="44.5810303" lon="8.7904739"><ele>522.0</ele><time>2026-03-21T14:50:49.113Z</time></trkpt><trkpt lat="44.5809809" lon="8.7903724"><ele>522.5</ele><time>2026-03-21T14:50:50.113Z</time></trkpt><trkpt lat="44.580945" lon="8.7902711"><ele>523.0</ele><time>2026-03-21T14:50:51.112Z</time></trkpt><trkpt lat="44.5809274" lon="8.7901685"><ele>523.5</ele><time>2026-03-21T14:50:52.112Z</time></trkpt><trkpt lat="44.5809126" lon="8.7900582"><ele>524.0</ele><time>2026-03-21T14:50:53.112Z</time></trkpt><trkpt lat="44.5808874" lon="8.7899374"><ele>524.0</ele><time>2026-03-21T14:50:54.112Z</time></trkpt><trkpt lat="44.5808669" lon="8.7898084"><ele>524.0</ele><time>2026-03-21T14:50:55.113Z</time></trkpt><trkpt lat="44.580877" lon="8.7896811"><ele>524.0</ele><time>2026-03-21T14:50:56.113Z</time></trkpt><trkpt lat="44.5808724" lon="8.7895566"><ele>524.0</ele><time>2026-03-21T14:50:57.112Z</time></trkpt><trkpt lat="44.5808366" lon="8.7894297"><ele>524.0</ele><time>2026-03-21T14:50:58.112Z</time></trkpt><trkpt lat="44.5808005" lon="8.7893104"><ele>520.4</ele><time>2026-03-21T14:50:59.113Z</time></trkpt><trkpt lat="44.5807606" lon="8.7891898"><ele>516.8</ele><time>2026-03-21T14:51:00.112Z</time></trkpt><trkpt lat="44.5807115" lon="8.7890785"><ele>513.2</ele><time>2026-03-21T14:51:01.112Z</time></trkpt><trkpt lat="44.5806463" lon="8.7889895"><ele>509.6</ele><time>2026-03-21T14:51:02.112Z</time></trkpt><trkpt lat="44.5805674" lon="8.7889165"><ele>506.0</ele><time>2026-03-21T14:51:03.112Z</time></trkpt><trkpt lat="44.5804816" lon="8.7888429"><ele>506.0</ele><time>2026-03-21T14:51:04.113Z</time></trkpt><trkpt lat="44.5804086" lon="8.7887398"><ele>506.0</ele><time>2026-03-21T14:51:05.112Z</time></trkpt><trkpt lat="44.580359" lon="8.7886172"><ele>506.0</ele><time>2026-03-21T14:51:06.113Z</time></trkpt><trkpt lat="44.58031" lon="8.7884903"><ele>506.0</ele><time>2026-03-21T14:51:07.113Z</time></trkpt><trkpt lat="44.5802581" lon="8.7883546"><ele>506.0</ele><time>2026-03-21T14:51:08.113Z</time></trkpt><trkpt lat="44.5802009" lon="8.7882129"><ele>509.0</ele><time>2026-03-21T14:51:09.113Z</time></trkpt><trkpt lat="44.5801303" lon="8.7880834"><ele>512.0</ele><time>2026-03-21T14:51:10.112Z</time></trkpt><trkpt lat="44.580057" lon="8.7879542"><ele>515.0</ele><time>2026-03-21T14:51:11.112Z</time></trkpt><trkpt lat="44.5799858" lon="8.7878131"><ele>518.0</ele><time>2026-03-21T14:51:12.112Z</time></trkpt><trkpt lat="44.5799261" lon="8.7876682"><ele>518.0</ele><time>2026-03-21T14:51:13.112Z</time></trkpt><trkpt lat="44.5798596" lon="8.7875436"><ele>518.0</ele><time>2026-03-21T14:51:14.113Z</time></trkpt><trkpt lat="44.5797912" lon="8.7874329"><ele>518.0</ele><time>2026-03-21T14:51:15.113Z</time></trkpt><trkpt lat="44.5797385" lon="8.7873263"><ele>518.0</ele><time>2026-03-21T14:51:16.112Z</time></trkpt><trkpt lat="44.5796993" lon="8.7872133"><ele>518.0</ele><time>2026-03-21T14:51:17.112Z</time></trkpt><trkpt lat="44.579685" lon="8.7870983"><ele>518.0</ele><time>2026-03-21T14:51:18.113Z</time></trkpt><trkpt lat="44.5796994" lon="8.7869823"><ele>518.0</ele><time>2026-03-21T14:51:19.113Z</time></trkpt><trkpt lat="44.5797261" lon="8.7868733"><ele>518.0</ele><time>2026-03-21T14:51:20.112Z</time></trkpt><trkpt lat="44.5797466" lon="8.7867543"><ele>518.0</ele><time>2026-03-21T14:51:21.112Z</time></trkpt><trkpt lat="44.5797449" lon="8.7866367"><ele>518.0</ele><time>2026-03-21T14:51:22.112Z</time></trkpt><trkpt lat="44.5797149" lon="8.786517"><ele>518.0</ele><time>2026-03-21T14:51:23.113Z</time></trkpt><trkpt lat="44.5796675" lon="8.7863996"><ele>514.6</ele><time>2026-03-21T14:51:24.112Z</time></trkpt><trkpt lat="44.5796223" lon="8.7862594"><ele>511.19999999999993</ele><time>2026-03-21T14:51:25.113Z</time></trkpt><trkpt lat="44.5796041" lon="8.7861135"><ele>507.8</ele><time>2026-03-21T14:51:26.112Z</time></trkpt><trkpt lat="44.5796089" lon="8.785977"><ele>504.4</ele><time>2026-03-21T14:51:27.113Z</time></trkpt><trkpt lat="44.5796058" lon="8.785858"><ele>501.0</ele><time>2026-03-21T14:51:28.113Z</time></trkpt><trkpt lat="44.5795846" lon="8.7857452"><ele>499.6</ele><time>2026-03-21T14:51:29.113Z</time></trkpt><trkpt lat="44.579555" lon="8.7856182"><ele>498.20000000000005</ele><time>2026-03-21T14:51:30.112Z</time></trkpt><trkpt lat="44.5795247" lon="8.7854789"><ele>496.79999999999995</ele><time>2026-03-21T14:51:31.112Z</time></trkpt><trkpt lat="44.5795007" lon="8.7853312"><ele>495.4</ele><time>2026-03-21T14:51:32.113Z</time></trkpt><trkpt lat="44.5794746" lon="8.7851776"><ele>494.0</ele><time>2026-03-21T14:51:33.112Z</time></trkpt><trkpt lat="44.5794421" lon="8.7850251"><ele>500.4</ele><time>2026-03-21T14:51:34.113Z</time></trkpt><trkpt lat="44.5794047" lon="8.7848833"><ele>506.79999999999995</ele><time>2026-03-21T14:51:35.113Z</time></trkpt><trkpt lat="44.5793703" lon="8.7847503"><ele>513.2</ele><time>2026-03-21T14:51:36.112Z</time></trkpt><trkpt lat="44.5793396" lon="8.7846209"><ele>519.6</ele><time>2026-03-21T14:51:37.113Z</time></trkpt><trkpt lat="44.5793087" lon="8.7844955"><ele>526.0</ele><time>2026-03-21T14:51:38.113Z</time></trkpt><trkpt lat="44.5792717" lon="8.7843801"><ele>526.0</ele><time>2026-03-21T14:51:39.112Z</time></trkpt><trkpt lat="44.5792213" lon="8.7842842"><ele>526.0</ele><time>2026-03-21T14:51:40.112Z</time></trkpt><trkpt lat="44.5791538" lon="8.7842257"><ele>526.0</ele><time>2026-03-21T14:51:41.113Z</time></trkpt><trkpt lat="44.5790841" lon="8.7842166"><ele>526.0</ele><time>2026-03-21T14:51:42.113Z</time></trkpt><trkpt lat="44.5790201" lon="8.7842178"><ele>526.0</ele><time>2026-03-21T14:51:43.113Z</time></trkpt><trkpt lat="44.5789593" lon="8.7843266"><ele>526.0</ele><time>2026-03-21T14:51:44.113Z</time></trkpt><trkpt lat="44.5788907" lon="8.7844089"><ele>526.0</ele><time>2026-03-21T14:51:45.113Z</time></trkpt><trkpt lat="44.5788348" lon="8.784525"><ele>526.0</ele><time>2026-03-21T14:51:46.113Z</time></trkpt><trkpt lat="44.5787785" lon="8.7846596"><ele>526.0</ele><time>2026-03-21T14:51:47.113Z</time></trkpt><trkpt lat="44.5787179" lon="8.7848097"><ele>526.0</ele><time>2026-03-21T14:51:48.113Z</time></trkpt><trkpt lat="44.5786535" lon="8.7849685"><ele>526.5</ele><time>2026-03-21T14:51:49.112Z</time></trkpt><trkpt lat="44.5785933" lon="8.7851362"><ele>527.0</ele><time>2026-03-21T14:51:50.112Z</time></trkpt><trkpt lat="44.5785292" lon="8.7853154"><ele>527.5</ele><time>2026-03-21T14:51:51.113Z</time></trkpt><trkpt lat="44.5784588" lon="8.7854837"><ele>528.0</ele><time>2026-03-21T14:51:52.112Z</time></trkpt><trkpt lat="44.5783835" lon="8.7856356"><ele>528.0</ele><time>2026-03-21T14:51:53.112Z</time></trkpt><trkpt lat="44.578304" lon="8.7857705"><ele>528.0</ele><time>2026-03-21T14:51:54.113Z</time></trkpt><trkpt lat="44.5782185" lon="8.7859098"><ele>528.0</ele><time>2026-03-21T14:51:55.113Z</time></trkpt><trkpt lat="44.5781404" lon="8.7860435"><ele>528.0</ele><time>2026-03-21T14:51:56.112Z</time></trkpt><trkpt lat="44.57805" lon="8.7861804"><ele>524.5</ele><time>2026-03-21T14:51:57.112Z</time></trkpt><trkpt lat="44.5779586" lon="8.7862987"><ele>521.0</ele><time>2026-03-21T14:51:58.113Z</time></trkpt><trkpt lat="44.5778647" lon="8.7864124"><ele>517.5</ele><time>2026-03-21T14:51:59.112Z</time></trkpt><trkpt lat="44.5777756" lon="8.7865346"><ele>514.0</ele><time>2026-03-21T14:52:00.113Z</time></trkpt><trkpt lat="44.5776903" lon="8.7866659"><ele>514.0</ele><time>2026-03-21T14:52:01.113Z</time></trkpt><trkpt lat="44.5776061" lon="8.7867897"><ele>514.0</ele><time>2026-03-21T14:52:02.112Z</time></trkpt><trkpt lat="44.5775329" lon="8.7869126"><ele>514.0</ele><time>2026-03-21T14:52:03.113Z</time></trkpt><trkpt lat="44.5774435" lon="8.7870266"><ele>514.0</ele><time>2026-03-21T14:52:04.113Z</time></trkpt><trkpt lat="44.5773484" lon="8.7871339"><ele>512.25</ele><time>2026-03-21T14:52:05.113Z</time></trkpt><trkpt lat="44.5772576" lon="8.7872576"><ele>510.5</ele><time>2026-03-21T14:52:06.112Z</time></trkpt><trkpt lat="44.5771678" lon="8.7873907"><ele>508.75</ele><time>2026-03-21T14:52:07.112Z</time></trkpt><trkpt lat="44.5770698" lon="8.7875112"><ele>507.0</ele><time>2026-03-21T14:52:08.113Z</time></trkpt><trkpt lat="44.5769742" lon="8.7876223"><ele>513.4</ele><time>2026-03-21T14:52:09.112Z</time></trkpt><trkpt lat="44.5768782" lon="8.7877293"><ele>519.8000000000001</ele><time>2026-03-21T14:52:10.113Z</time></trkpt><trkpt lat="44.576787" lon="8.7878228"><ele>526.2</ele><time>2026-03-21T14:52:11.113Z</time></trkpt><trkpt lat="44.576707" lon="8.7879018"><ele>532.6</ele><time>2026-03-21T14:52:12.113Z</time></trkpt><trkpt lat="44.5766393" lon="8.7879925"><ele>539.0</ele><time>2026-03-21T14:52:13.112Z</time></trkpt><trkpt lat="44.5765718" lon="8.7881025"><ele>539.0</ele><time>2026-03-21T14:52:14.113Z</time></trkpt><trkpt lat="44.5765003" lon="8.7882046"><ele>539.0</ele><time>2026-03-21T14:52:15.112Z</time></trkpt><trkpt lat="44.5764217" lon="8.7882876"><ele>539.0</ele><time>2026-03-21T14:52:16.113Z</time></trkpt><trkpt lat="44.5763459" lon="8.7883495"><ele>539.0</ele><time>2026-03-21T14:52:17.113Z</time></trkpt><trkpt lat="44.5762666" lon="8.7883822"><ele>539.0</ele><time>2026-03-21T14:52:18.112Z</time></trkpt><trkpt lat="44.576193" lon="8.7883742"><ele>539.0</ele><time>2026-03-21T14:52:19.112Z</time></trkpt><trkpt lat="44.5761281" lon="8.7883543"><ele>537.6</ele><time>2026-03-21T14:52:20.112Z</time></trkpt><trkpt lat="44.5760585" lon="8.7883386"><ele>536.2</ele><time>2026-03-21T14:52:21.113Z</time></trkpt><trkpt lat="44.5759958" lon="8.7883595"><ele>534.8000000000001</ele><time>2026-03-21T14:52:22.113Z</time></trkpt><trkpt lat="44.575919" lon="8.7885023"><ele>533.4</ele><time>2026-03-21T14:52:24.113Z</time></trkpt><trkpt lat="44.5758813" lon="8.788613"><ele>532.0</ele><time>2026-03-21T14:52:25.112Z</time></trkpt><trkpt lat="44.5758228" lon="8.7887306"><ele>532.0</ele><time>2026-03-21T14:52:26.112Z</time></trkpt><trkpt lat="44.575775" lon="8.7888506"><ele>532.0</ele><time>2026-03-21T14:52:27.113Z</time></trkpt><trkpt lat="44.5757444" lon="8.7889752"><ele>532.0</ele><time>2026-03-21T14:52:28.112Z</time></trkpt><trkpt lat="44.5757197" lon="8.7890892"><ele>532.0</ele><time>2026-03-21T14:52:29.112Z</time></trkpt><trkpt lat="44.5756887" lon="8.7891925"><ele>532.0</ele><time>2026-03-21T14:52:30.113Z</time></trkpt><trkpt lat="44.5756322" lon="8.7892702"><ele>532.0</ele><time>2026-03-21T14:52:31.112Z</time></trkpt><trkpt lat="44.5755564" lon="8.78933"><ele>534.0</ele><time>2026-03-21T14:52:32.112Z</time></trkpt><trkpt lat="44.5754588" lon="8.7893901"><ele>536.0</ele><time>2026-03-21T14:52:33.113Z</time></trkpt><trkpt lat="44.5753527" lon="8.7894557"><ele>538.0</ele><time>2026-03-21T14:52:34.112Z</time></trkpt><trkpt lat="44.5752407" lon="8.7895088"><ele>540.0</ele><time>2026-03-21T14:52:35.113Z</time></trkpt><trkpt lat="44.5751216" lon="8.7895474"><ele>540.0</ele><time>2026-03-21T14:52:36.113Z</time></trkpt><trkpt lat="44.5750081" lon="8.7895779"><ele>540.0</ele><time>2026-03-21T14:52:37.112Z</time></trkpt><trkpt lat="44.5748989" lon="8.7895892"><ele>540.0</ele><time>2026-03-21T14:52:38.112Z</time></trkpt><trkpt lat="44.5747945" lon="8.7895784"><ele>540.0</ele><time>2026-03-21T14:52:39.113Z</time></trkpt><trkpt lat="44.5747051" lon="8.7895501"><ele>540.0</ele><time>2026-03-21T14:52:40.113Z</time></trkpt><trkpt lat="44.5746113" lon="8.7895098"><ele>540.0</ele><time>2026-03-21T14:52:41.113Z</time></trkpt><trkpt lat="44.5745221" lon="8.7894768"><ele>540.0</ele><time>2026-03-21T14:52:42.113Z</time></trkpt><trkpt lat="44.5744278" lon="8.7894315"><ele>540.0</ele><time>2026-03-21T14:52:43.112Z</time></trkpt><trkpt lat="44.5743263" lon="8.7893925"><ele>540.0</ele><time>2026-03-21T14:52:44.112Z</time></trkpt><trkpt lat="44.5742275" lon="8.7893621"><ele>540.0</ele><time>2026-03-21T14:52:45.112Z</time></trkpt><trkpt lat="44.5741257" lon="8.7893314"><ele>532.0</ele><time>2026-03-21T14:52:46.112Z</time></trkpt><trkpt lat="44.5740233" lon="8.7893142"><ele>524.0</ele><time>2026-03-21T14:52:47.112Z</time></trkpt><trkpt lat="44.5739223" lon="8.7892986"><ele>516.0</ele><time>2026-03-21T14:52:48.113Z</time></trkpt><trkpt lat="44.573823" lon="8.7892793"><ele>508.0</ele><time>2026-03-21T14:52:49.112Z</time></trkpt><trkpt lat="44.5737229" lon="8.7892449"><ele>500.0</ele><time>2026-03-21T14:52:50.113Z</time></trkpt><trkpt lat="44.5736271" lon="8.7891923"><ele>498.6</ele><time>2026-03-21T14:52:51.113Z</time></trkpt><trkpt lat="44.5735346" lon="8.7891437"><ele>497.2</ele><time>2026-03-21T14:52:52.113Z</time></trkpt><trkpt lat="44.5734395" lon="8.7890973"><ele>495.79999999999995</ele><time>2026-03-21T14:52:53.113Z</time></trkpt><trkpt lat="44.5733425" lon="8.7890639"><ele>494.4</ele><time>2026-03-21T14:52:54.112Z</time></trkpt><trkpt lat="44.5732495" lon="8.7890246"><ele>493.0</ele><time>2026-03-21T14:52:55.112Z</time></trkpt><trkpt lat="44.5731557" lon="8.7890036"><ele>493.0</ele><time>2026-03-21T14:52:56.112Z</time></trkpt><trkpt lat="44.5730694" lon="8.7889802"><ele>493.0</ele><time>2026-03-21T14:52:57.112Z</time></trkpt><trkpt lat="44.572993" lon="8.7889585"><ele>493.0</ele><time>2026-03-21T14:52:58.112Z</time></trkpt><trkpt lat="44.5729288" lon="8.7889439"><ele>493.0</ele><time>2026-03-21T14:52:59.113Z</time></trkpt><trkpt lat="44.5728625" lon="8.7889377"><ele>493.0</ele><time>2026-03-21T14:53:00.112Z</time></trkpt><trkpt lat="44.5727981" lon="8.7889403"><ele>493.0</ele><time>2026-03-21T14:53:01.112Z</time></trkpt><trkpt lat="44.5727311" lon="8.7889493"><ele>493.0</ele><time>2026-03-21T14:53:02.112Z</time></trkpt><trkpt lat="44.5726292" lon="8.7890161"><ele>493.6666666666667</ele><time>2026-03-21T14:53:04.113Z</time></trkpt><trkpt lat="44.5725847" lon="8.789152"><ele>494.33333333333337</ele><time>2026-03-21T14:53:06.113Z</time></trkpt><trkpt lat="44.5725774" lon="8.7892414"><ele>495.0</ele><time>2026-03-21T14:53:07.112Z</time></trkpt><trkpt lat="44.572566" lon="8.7893429"><ele>495.66666666666663</ele><time>2026-03-21T14:53:08.112Z</time></trkpt><trkpt lat="44.572549" lon="8.7894534"><ele>496.3333333333333</ele><time>2026-03-21T14:53:09.113Z</time></trkpt><trkpt lat="44.5725274" lon="8.7896026"><ele>497.0</ele><time>2026-03-21T14:53:10.112Z</time></trkpt><trkpt lat="44.5725005" lon="8.7897503"><ele>497.0</ele><time>2026-03-21T14:53:11.112Z</time></trkpt><trkpt lat="44.5724787" lon="8.7898819"><ele>497.00000000000006</ele><time>2026-03-21T14:53:12.113Z</time></trkpt><trkpt lat="44.5724625" lon="8.7900205"><ele>497.00000000000006</ele><time>2026-03-21T14:53:13.112Z</time></trkpt><trkpt lat="44.5724497" lon="8.7901612"><ele>497.0</ele><time>2026-03-21T14:53:14.112Z</time></trkpt><trkpt lat="44.5724462" lon="8.7903016"><ele>497.0</ele><time>2026-03-21T14:53:15.113Z</time></trkpt><trkpt lat="44.5724455" lon="8.7904468"><ele>497.8</ele><time>2026-03-21T14:53:16.112Z</time></trkpt><trkpt lat="44.5724493" lon="8.7905935"><ele>498.6</ele><time>2026-03-21T14:53:17.112Z</time></trkpt><trkpt lat="44.5724469" lon="8.7907432"><ele>499.40000000000003</ele><time>2026-03-21T14:53:18.113Z</time></trkpt><trkpt lat="44.5724377" lon="8.7908894"><ele>500.20000000000005</ele><time>2026-03-21T14:53:19.113Z</time></trkpt><trkpt lat="44.5724221" lon="8.7910344"><ele>501.0</ele><time>2026-03-21T14:53:20.113Z</time></trkpt><trkpt lat="44.5723872" lon="8.791177"><ele>502.25</ele><time>2026-03-21T14:53:21.112Z</time></trkpt><trkpt lat="44.5723563" lon="8.7913234"><ele>503.5</ele><time>2026-03-21T14:53:22.113Z</time></trkpt><trkpt lat="44.572323" lon="8.7914771"><ele>504.75</ele><time>2026-03-21T14:53:23.113Z</time></trkpt><trkpt lat="44.5723056" lon="8.7916334"><ele>506.0</ele><time>2026-03-21T14:53:24.113Z</time></trkpt><trkpt lat="44.5722928" lon="8.7918035"><ele>505.75</ele><time>2026-03-21T14:53:25.113Z</time></trkpt><trkpt lat="44.5722899" lon="8.7919801"><ele>505.5</ele><time>2026-03-21T14:53:26.112Z</time></trkpt><trkpt lat="44.5722845" lon="8.7921664"><ele>505.25</ele><time>2026-03-21T14:53:27.113Z</time></trkpt><trkpt lat="44.5722781" lon="8.7923369"><ele>505.0</ele><time>2026-03-21T14:53:28.112Z</time></trkpt><trkpt lat="44.5722679" lon="8.7924704"><ele>505.0</ele><time>2026-03-21T14:53:29.112Z</time></trkpt><trkpt lat="44.5722442" lon="8.7925598"><ele>505.0</ele><time>2026-03-21T14:53:30.112Z</time></trkpt><trkpt lat="44.5721451" lon="8.7925913"><ele>505.0</ele><time>2026-03-21T14:53:32.112Z</time></trkpt><trkpt lat="44.5720933" lon="8.7924613"><ele>505.0</ele><time>2026-03-21T14:53:34.113Z</time></trkpt><trkpt lat="44.5720739" lon="8.7923561"><ele>505.0</ele><time>2026-03-21T14:53:35.112Z</time></trkpt><trkpt lat="44.572044" lon="8.7922238"><ele>512.75</ele><time>2026-03-21T14:53:36.112Z</time></trkpt><trkpt lat="44.5720023" lon="8.7920675"><ele>520.5</ele><time>2026-03-21T14:53:37.112Z</time></trkpt><trkpt lat="44.571945" lon="8.7918961"><ele>528.25</ele><time>2026-03-21T14:53:38.113Z</time></trkpt><trkpt lat="44.5718899" lon="8.7917056"><ele>536.0</ele><time>2026-03-21T14:53:39.113Z</time></trkpt><trkpt lat="44.5718571" lon="8.7915242"><ele>536.0</ele><time>2026-03-21T14:53:40.113Z</time></trkpt><trkpt lat="44.5718489" lon="8.7913538"><ele>536.0</ele><time>2026-03-21T14:53:41.113Z</time></trkpt><trkpt lat="44.5718561" lon="8.7912146"><ele>536.0</ele><time>2026-03-21T14:53:42.113Z</time></trkpt><trkpt lat="44.5718543" lon="8.7911022"><ele>536.0</ele><time>2026-03-21T14:53:43.112Z</time></trkpt><trkpt lat="44.5717864" lon="8.7909827"><ele>536.0</ele><time>2026-03-21T14:53:45.113Z</time></trkpt><trkpt lat="44.5717042" lon="8.7910621"><ele>536.0</ele><time>2026-03-21T14:53:47.112Z</time></trkpt><trkpt lat="44.5716752" lon="8.7911593"><ele>536.0</ele><time>2026-03-21T14:53:48.112Z</time></trkpt><trkpt lat="44.5716439" lon="8.791286"><ele>536.0</ele><time>2026-03-21T14:53:49.113Z</time></trkpt><trkpt lat="44.5716126" lon="8.7914324"><ele>536.0</ele><time>2026-03-21T14:53:50.112Z</time></trkpt><trkpt lat="44.5715849" lon="8.7916069"><ele>536.0</ele><time>2026-03-21T14:53:51.113Z</time></trkpt><trkpt lat="44.5715722" lon="8.7917993"><ele>536.0</ele><time>2026-03-21T14:53:52.113Z</time></trkpt><trkpt lat="44.5715725" lon="8.7920091"><ele>536.0</ele><time>2026-03-21T14:53:53.112Z</time></trkpt><trkpt lat="44.5715568" lon="8.7922262"><ele>536.0</ele><time>2026-03-21T14:53:54.112Z</time></trkpt><trkpt lat="44.5715273" lon="8.7924129"><ele>536.0</ele><time>2026-03-21T14:53:55.113Z</time></trkpt><trkpt lat="44.5715109" lon="8.7925901"><ele>534.2</ele><time>2026-03-21T14:53:56.112Z</time></trkpt><trkpt lat="44.5715053" lon="8.7927648"><ele>532.4000000000001</ele><time>2026-03-21T14:53:57.113Z</time></trkpt><trkpt lat="44.5715079" lon="8.7929301"><ele>530.6</ele><time>2026-03-21T14:53:58.113Z</time></trkpt><trkpt lat="44.5715096" lon="8.7930692"><ele>528.8000000000001</ele><time>2026-03-21T14:53:59.113Z</time></trkpt><trkpt lat="44.5715043" lon="8.7931941"><ele>527.0</ele><time>2026-03-21T14:54:00.113Z</time></trkpt><trkpt lat="44.5714868" lon="8.7932934"><ele>527.0</ele><time>2026-03-21T14:54:01.113Z</time></trkpt><trkpt lat="44.5713977" lon="8.7933793"><ele>527.0</ele><time>2026-03-21T14:54:03.113Z</time></trkpt><trkpt lat="44.5712673" lon="8.7933158"><ele>527.0</ele><time>2026-03-21T14:54:05.113Z</time></trkpt><trkpt lat="44.5711931" lon="8.793255"><ele>527.0</ele><time>2026-03-21T14:54:06.112Z</time></trkpt><trkpt lat="44.571098" lon="8.7932019"><ele>527.0</ele><time>2026-03-21T14:54:07.112Z</time></trkpt><trkpt lat="44.5710068" lon="8.7931675"><ele>532.0</ele><time>2026-03-21T14:54:08.113Z</time></trkpt><trkpt lat="44.5709159" lon="8.793167"><ele>537.0</ele><time>2026-03-21T14:54:09.113Z</time></trkpt><trkpt lat="44.5708251" lon="8.7931967"><ele>542.0</ele><time>2026-03-21T14:54:10.112Z</time></trkpt><trkpt lat="44.5707391" lon="8.7932522"><ele>547.0</ele><time>2026-03-21T14:54:11.113Z</time></trkpt><trkpt lat="44.5706509" lon="8.7932992"><ele>552.0</ele><time>2026-03-21T14:54:12.113Z</time></trkpt><trkpt lat="44.5705625" lon="8.7933178"><ele>552.0</ele><time>2026-03-21T14:54:13.113Z</time></trkpt><trkpt lat="44.5704764" lon="8.7933214"><ele>552.0</ele><time>2026-03-21T14:54:14.113Z</time></trkpt><trkpt lat="44.570401" lon="8.7933343"><ele>552.0</ele><time>2026-03-21T14:54:15.113Z</time></trkpt><trkpt lat="44.5703434" lon="8.793372"><ele>552.0</ele><time>2026-03-21T14:54:16.112Z</time></trkpt><trkpt lat="44.5702841" lon="8.7934902"><ele>552.0</ele><time>2026-03-21T14:54:18.113Z</time></trkpt><trkpt lat="44.5702986" lon="8.7936465"><ele>552.0</ele><time>2026-03-21T14:54:20.113Z</time></trkpt><trkpt lat="44.570325" lon="8.7937712"><ele>554.3333333333334</ele><time>2026-03-21T14:54:21.112Z</time></trkpt><trkpt lat="44.5703291" lon="8.7938822"><ele>556.6666666666666</ele><time>2026-03-21T14:54:22.113Z</time></trkpt><trkpt lat="44.5703072" lon="8.7939917"><ele>559.0</ele><time>2026-03-21T14:54:23.113Z</time></trkpt><trkpt lat="44.5702584" lon="8.7940962"><ele>561.3333333333333</ele><time>2026-03-21T14:54:24.112Z</time></trkpt><trkpt lat="44.5701888" lon="8.794182"><ele>563.6666666666666</ele><time>2026-03-21T14:54:25.113Z</time></trkpt><trkpt lat="44.570101" lon="8.7942456"><ele>566.0</ele><time>2026-03-21T14:54:26.113Z</time></trkpt><trkpt lat="44.5700046" lon="8.7942985"><ele>563.0</ele><time>2026-03-21T14:54:27.113Z</time></trkpt><trkpt lat="44.5699163" lon="8.7943597"><ele>560.0</ele><time>2026-03-21T14:54:28.113Z</time></trkpt><trkpt lat="44.5698313" lon="8.7944213"><ele>557.0</ele><time>2026-03-21T14:54:29.113Z</time></trkpt><trkpt lat="44.5697464" lon="8.7944857"><ele>554.0</ele><time>2026-03-21T14:54:30.112Z</time></trkpt><trkpt lat="44.5696603" lon="8.7945421"><ele>551.0</ele><time>2026-03-21T14:54:31.112Z</time></trkpt><trkpt lat="44.5695663" lon="8.794562"><ele>554.6</ele><time>2026-03-21T14:54:32.112Z</time></trkpt><trkpt lat="44.5694666" lon="8.7945546"><ele>558.2</ele><time>2026-03-21T14:54:33.112Z</time></trkpt><trkpt lat="44.5693643" lon="8.7945454"><ele>561.8</ele><time>2026-03-21T14:54:34.113Z</time></trkpt><trkpt lat="44.5692594" lon="8.7945418"><ele>565.4</ele><time>2026-03-21T14:54:35.113Z</time></trkpt><trkpt lat="44.5691559" lon="8.7945392"><ele>569.0</ele><time>2026-03-21T14:54:36.112Z</time></trkpt><trkpt lat="44.5690357" lon="8.7945911"><ele>569.0</ele><time>2026-03-21T14:54:37.112Z</time></trkpt><trkpt lat="44.5689288" lon="8.794649"><ele>569.0</ele><time>2026-03-21T14:54:38.112Z</time></trkpt><trkpt lat="44.5688238" lon="8.7947055"><ele>569.0</ele><time>2026-03-21T14:54:39.113Z</time></trkpt><trkpt lat="44.568718" lon="8.7947604"><ele>569.0</ele><time>2026-03-21T14:54:40.113Z</time></trkpt><trkpt lat="44.5686071" lon="8.7948031"><ele>573.2</ele><time>2026-03-21T14:54:41.112Z</time></trkpt><trkpt lat="44.5684928" lon="8.7948389"><ele>577.4</ele><time>2026-03-21T14:54:42.113Z</time></trkpt><trkpt lat="44.5683846" lon="8.7948871"><ele>581.6</ele><time>2026-03-21T14:54:43.113Z</time></trkpt><trkpt lat="44.5682792" lon="8.7949306"><ele>585.8</ele><time>2026-03-21T14:54:44.113Z</time></trkpt><trkpt lat="44.5681809" lon="8.7949795"><ele>590.0</ele><time>2026-03-21T14:54:45.113Z</time></trkpt><trkpt lat="44.5680863" lon="8.7950546"><ele>590.0</ele><time>2026-03-21T14:54:46.112Z</time></trkpt><trkpt lat="44.5679989" lon="8.7951497"><ele>590.0</ele><time>2026-03-21T14:54:47.112Z</time></trkpt><trkpt lat="44.5679086" lon="8.7952319"><ele>590.0</ele><time>2026-03-21T14:54:48.112Z</time></trkpt><trkpt lat="44.5678117" lon="8.7952919"><ele>590.0</ele><time>2026-03-21T14:54:49.113Z</time></trkpt><trkpt lat="44.5677187" lon="8.7952879"><ele>590.0</ele><time>2026-03-21T14:54:50.113Z</time></trkpt><trkpt lat="44.5676397" lon="8.795244"><ele>590.8</ele><time>2026-03-21T14:54:51.112Z</time></trkpt><trkpt lat="44.5675827" lon="8.7951592"><ele>591.6</ele><time>2026-03-21T14:54:52.112Z</time></trkpt><trkpt lat="44.5675483" lon="8.7950409"><ele>592.4</ele><time>2026-03-21T14:54:53.112Z</time></trkpt><trkpt lat="44.5675472" lon="8.7948917"><ele>593.2</ele><time>2026-03-21T14:54:54.113Z</time></trkpt><trkpt lat="44.5675672" lon="8.7947143"><ele>594.0</ele><time>2026-03-21T14:54:55.113Z</time></trkpt><trkpt lat="44.5675935" lon="8.7945292"><ele>594.0</ele><time>2026-03-21T14:54:56.113Z</time></trkpt><trkpt lat="44.5676252" lon="8.7943466"><ele>594.0</ele><time>2026-03-21T14:54:57.112Z</time></trkpt><trkpt lat="44.5676704" lon="8.794201"><ele>594.0</ele><time>2026-03-21T14:54:58.112Z</time></trkpt><trkpt lat="44.5677415" lon="8.7940981"><ele>594.0</ele><time>2026-03-21T14:54:59.113Z</time></trkpt><trkpt lat="44.5678346" lon="8.7940308"><ele>596.5</ele><time>2026-03-21T14:55:00.113Z</time></trkpt><trkpt lat="44.5679424" lon="8.7939818"><ele>599.0</ele><time>2026-03-21T14:55:01.112Z</time></trkpt><trkpt lat="44.5680503" lon="8.7939073"><ele>601.5</ele><time>2026-03-21T14:55:02.113Z</time></trkpt><trkpt lat="44.5681451" lon="8.7937977"><ele>604.0</ele><time>2026-03-21T14:55:03.112Z</time></trkpt><trkpt lat="44.5682457" lon="8.793665"><ele>604.0</ele><time>2026-03-21T14:55:04.113Z</time></trkpt><trkpt lat="44.5683588" lon="8.7935471"><ele>604.0</ele><time>2026-03-21T14:55:05.112Z</time></trkpt><trkpt lat="44.5684765" lon="8.7934333"><ele>604.0</ele><time>2026-03-21T14:55:06.113Z</time></trkpt><trkpt lat="44.5685838" lon="8.7933395"><ele>604.0</ele><time>2026-03-21T14:55:07.113Z</time></trkpt><trkpt lat="44.5686745" lon="8.7932788"><ele>603.8333333333334</ele><time>2026-03-21T14:55:08.113Z</time></trkpt><trkpt lat="44.5687455" lon="8.7932304"><ele>603.6666666666667</ele><time>2026-03-21T14:55:09.112Z</time></trkpt><trkpt lat="44.5687977" lon="8.7931093"><ele>603.5</ele><time>2026-03-21T14:55:11.112Z</time></trkpt><trkpt lat="44.5687207" lon="8.7930437"><ele>603.3333333333334</ele><time>2026-03-21T14:55:13.112Z</time></trkpt><trkpt lat="44.5686436" lon="8.7930563"><ele>603.1666666666666</ele><time>2026-03-21T14:55:14.113Z</time></trkpt><trkpt lat="44.5685422" lon="8.7930654"><ele>603.0</ele><time>2026-03-21T14:55:15.112Z</time></trkpt><trkpt lat="44.5684368" lon="8.7930791"><ele>607.25</ele><time>2026-03-21T14:55:16.112Z</time></trkpt><trkpt lat="44.5683244" lon="8.7930872"><ele>611.5</ele><time>2026-03-21T14:55:17.113Z</time></trkpt><trkpt lat="44.5682138" lon="8.7930609"><ele>615.75</ele><time>2026-03-21T14:55:18.113Z</time></trkpt><trkpt lat="44.5680793" lon="8.7930102"><ele>620.0</ele><time>2026-03-21T14:55:19.112Z</time></trkpt><trkpt lat="44.5679285" lon="8.7929507"><ele>622.0</ele><time>2026-03-21T14:55:20.113Z</time></trkpt><trkpt lat="44.5677758" lon="8.7928899"><ele>624.0</ele><time>2026-03-21T14:55:21.113Z</time></trkpt><trkpt lat="44.5676288" lon="8.792847"><ele>626.0</ele><time>2026-03-21T14:55:22.113Z</time></trkpt><trkpt lat="44.5674845" lon="8.7928333"><ele>626.0</ele><time>2026-03-21T14:55:23.112Z</time></trkpt><trkpt lat="44.5673488" lon="8.7928192"><ele>626.0</ele><time>2026-03-21T14:55:24.112Z</time></trkpt><trkpt lat="44.5672101" lon="8.7928376"><ele>626.0</ele><time>2026-03-21T14:55:25.113Z</time></trkpt><trkpt lat="44.5670719" lon="8.7928437"><ele>626.0</ele><time>2026-03-21T14:55:26.112Z</time></trkpt><trkpt lat="44.5669525" lon="8.7928442"><ele>626.0</ele><time>2026-03-21T14:55:27.113Z</time></trkpt><trkpt lat="44.566848" lon="8.7928385"><ele>626.0</ele><time>2026-03-21T14:55:28.112Z</time></trkpt><trkpt lat="44.5667418" lon="8.7928205"><ele>626.0</ele><time>2026-03-21T14:55:29.112Z</time></trkpt><trkpt lat="44.5666374" lon="8.7927759"><ele>626.0</ele><time>2026-03-21T14:55:30.112Z</time></trkpt><trkpt lat="44.5665292" lon="8.7927124"><ele>626.0</ele><time>2026-03-21T14:55:31.112Z</time></trkpt><trkpt lat="44.5664099" lon="8.7926649"><ele>630.75</ele><time>2026-03-21T14:55:32.113Z</time></trkpt><trkpt lat="44.5662864" lon="8.7926162"><ele>635.5</ele><time>2026-03-21T14:55:33.113Z</time></trkpt><trkpt lat="44.566161" lon="8.7925681"><ele>640.25</ele><time>2026-03-21T14:55:34.112Z</time></trkpt><trkpt lat="44.5660376" lon="8.7924717"><ele>645.0</ele><time>2026-03-21T14:55:35.113Z</time></trkpt><trkpt lat="44.565929" lon="8.7923803"><ele>645.0</ele><time>2026-03-21T14:55:36.112Z</time></trkpt><trkpt lat="44.5658479" lon="8.7922729"><ele>645.0</ele><time>2026-03-21T14:55:37.112Z</time></trkpt><trkpt lat="44.5657854" lon="8.7921607"><ele>645.0</ele><time>2026-03-21T14:55:38.113Z</time></trkpt><trkpt lat="44.5657452" lon="8.7920326"><ele>645.0</ele><time>2026-03-21T14:55:39.112Z</time></trkpt><trkpt lat="44.5657306" lon="8.7918957"><ele>645.0</ele><time>2026-03-21T14:55:40.112Z</time></trkpt><trkpt lat="44.5657471" lon="8.7917443"><ele>647.25</ele><time>2026-03-21T14:55:41.112Z</time></trkpt><trkpt lat="44.5657703" lon="8.7915815"><ele>649.5</ele><time>2026-03-21T14:55:42.112Z</time></trkpt><trkpt lat="44.5657799" lon="8.7914022"><ele>651.75</ele><time>2026-03-21T14:55:43.113Z</time></trkpt><trkpt lat="44.5657715" lon="8.7912197"><ele>654.0</ele><time>2026-03-21T14:55:44.113Z</time></trkpt><trkpt lat="44.5657371" lon="8.7910507"><ele>655.0</ele><time>2026-03-21T14:55:45.112Z</time></trkpt><trkpt lat="44.5657031" lon="8.7909125"><ele>656.0</ele><time>2026-03-21T14:55:46.113Z</time></trkpt><trkpt lat="44.5656809" lon="8.7907837"><ele>657.0</ele><time>2026-03-21T14:55:47.113Z</time></trkpt><trkpt lat="44.5656801" lon="8.7906614"><ele>658.0</ele><time>2026-03-21T14:55:48.113Z</time></trkpt><trkpt lat="44.5657144" lon="8.7905419"><ele>659.0</ele><time>2026-03-21T14:55:49.112Z</time></trkpt><trkpt lat="44.565779" lon="8.7904363"><ele>659.0</ele><time>2026-03-21T14:55:50.113Z</time></trkpt><trkpt lat="44.5658647" lon="8.7903292"><ele>659.0</ele><time>2026-03-21T14:55:51.112Z</time></trkpt><trkpt lat="44.56596" lon="8.7901953"><ele>659.0</ele><time>2026-03-21T14:55:52.112Z</time></trkpt><trkpt lat="44.5660614" lon="8.790021"><ele>659.0</ele><time>2026-03-21T14:55:53.112Z</time></trkpt><trkpt lat="44.5661659" lon="8.7898339"><ele>661.25</ele><time>2026-03-21T14:55:54.112Z</time></trkpt><trkpt lat="44.5662626" lon="8.7896604"><ele>663.5</ele><time>2026-03-21T14:55:55.112Z</time></trkpt><trkpt lat="44.5663491" lon="8.7895087"><ele>665.75</ele><time>2026-03-21T14:55:56.113Z</time></trkpt><trkpt lat="44.56643" lon="8.7893693"><ele>668.0</ele><time>2026-03-21T14:55:57.112Z</time></trkpt><trkpt lat="44.566499" lon="8.7892434"><ele>668.0</ele><time>2026-03-21T14:55:58.112Z</time></trkpt><trkpt lat="44.5665534" lon="8.7891282"><ele>668.0</ele><time>2026-03-21T14:55:59.112Z</time></trkpt><trkpt lat="44.5665831" lon="8.7890128"><ele>668.0</ele><time>2026-03-21T14:56:00.113Z</time></trkpt><trkpt lat="44.5665913" lon="8.7888961"><ele>668.0</ele><time>2026-03-21T14:56:01.112Z</time></trkpt><trkpt lat="44.5665864" lon="8.7887764"><ele>668.0</ele><time>2026-03-21T14:56:02.113Z</time></trkpt><trkpt lat="44.5665842" lon="8.7886576"><ele>668.0</ele><time>2026-03-21T14:56:03.113Z</time></trkpt><trkpt lat="44.5665903" lon="8.7885358"><ele>667.5</ele><time>2026-03-21T14:56:04.112Z</time></trkpt><trkpt lat="44.5665983" lon="8.7884079"><ele>667.0</ele><time>2026-03-21T14:56:05.112Z</time></trkpt><trkpt lat="44.5666017" lon="8.7882849"><ele>666.5</ele><time>2026-03-21T14:56:06.112Z</time></trkpt><trkpt lat="44.5665938" lon="8.7881808"><ele>666.0</ele><time>2026-03-21T14:56:07.113Z</time></trkpt><trkpt lat="44.5665684" lon="8.788088"><ele>665.5</ele><time>2026-03-21T14:56:08.112Z</time></trkpt><trkpt lat="44.5665219" lon="8.7879952"><ele>665.0</ele><time>2026-03-21T14:56:09.113Z</time></trkpt><trkpt lat="44.566464" lon="8.787904"><ele>665.0</ele><time>2026-03-21T14:56:10.112Z</time></trkpt><trkpt lat="44.5663834" lon="8.7877948"><ele>665.0</ele><time>2026-03-21T14:56:11.112Z</time></trkpt><trkpt lat="44.5663168" lon="8.7876638"><ele>665.0</ele><time>2026-03-21T14:56:12.113Z</time></trkpt><trkpt lat="44.56626" lon="8.787532"><ele>665.0</ele><time>2026-03-21T14:56:13.113Z</time></trkpt><trkpt lat="44.5662016" lon="8.7874028"><ele>665.0</ele><time>2026-03-21T14:56:14.113Z</time></trkpt><trkpt lat="44.5661559" lon="8.7872856"><ele>664.5</ele><time>2026-03-21T14:56:15.113Z</time></trkpt><trkpt lat="44.5661301" lon="8.7871657"><ele>664.0</ele><time>2026-03-21T14:56:16.112Z</time></trkpt><trkpt lat="44.5661446" lon="8.7870492"><ele>663.5</ele><time>2026-03-21T14:56:17.112Z</time></trkpt><trkpt lat="44.5661832" lon="8.7869528"><ele>663.0</ele><time>2026-03-21T14:56:18.113Z</time></trkpt><trkpt lat="44.5662251" lon="8.7868663"><ele>662.5</ele><time>2026-03-21T14:56:19.113Z</time></trkpt><trkpt lat="44.5662467" lon="8.7867655"><ele>662.0</ele><time>2026-03-21T14:56:20.113Z</time></trkpt><trkpt lat="44.5662335" lon="8.7866665"><ele>660.8</ele><time>2026-03-21T14:56:21.113Z</time></trkpt><trkpt lat="44.5661877" lon="8.786571"><ele>659.6</ele><time>2026-03-21T14:56:22.113Z</time></trkpt><trkpt lat="44.566128" lon="8.7864516"><ele>658.4</ele><time>2026-03-21T14:56:23.113Z</time></trkpt><trkpt lat="44.5660808" lon="8.7863017"><ele>657.1999999999999</ele><time>2026-03-21T14:56:24.113Z</time></trkpt><trkpt lat="44.5660445" lon="8.7861515"><ele>656.0</ele><time>2026-03-21T14:56:25.112Z</time></trkpt><trkpt lat="44.5659993" lon="8.7860206"><ele>654.8</ele><time>2026-03-21T14:56:26.113Z</time></trkpt><trkpt lat="44.5659402" lon="8.7858937"><ele>653.5999999999999</ele><time>2026-03-21T14:56:27.113Z</time></trkpt><trkpt lat="44.5658693" lon="8.7857871"><ele>652.4</ele><time>2026-03-21T14:56:28.113Z</time></trkpt><trkpt lat="44.5657974" lon="8.7856916"><ele>651.2</ele><time>2026-03-21T14:56:29.112Z</time></trkpt><trkpt lat="44.5657317" lon="8.7855905"><ele>650.0</ele><time>2026-03-21T14:56:30.112Z</time></trkpt><trkpt lat="44.5656678" lon="8.785455"><ele>650.0</ele><time>2026-03-21T14:56:31.112Z</time></trkpt><trkpt lat="44.5656169" lon="8.7853192"><ele>650.0</ele><time>2026-03-21T14:56:32.112Z</time></trkpt><trkpt lat="44.5655935" lon="8.7851777"><ele>650.0</ele><time>2026-03-21T14:56:33.112Z</time></trkpt><trkpt lat="44.5655975" lon="8.7850182"><ele>650.0</ele><time>2026-03-21T14:56:34.113Z</time></trkpt><trkpt lat="44.5655926" lon="8.7848458"><ele>650.0</ele><time>2026-03-21T14:56:35.113Z</time></trkpt><trkpt lat="44.5655947" lon="8.7846196"><ele>652.0</ele><time>2026-03-21T14:56:36.112Z</time></trkpt><trkpt lat="44.565555" lon="8.7843416"><ele>654.0</ele><time>2026-03-21T14:56:37.113Z</time></trkpt><trkpt lat="44.5655262" lon="8.7840898"><ele>656.0</ele><time>2026-03-21T14:56:38.112Z</time></trkpt><trkpt lat="44.565516" lon="8.7838938"><ele>656.0</ele><time>2026-03-21T14:56:39.112Z</time></trkpt><trkpt lat="44.5654987" lon="8.7837323"><ele>656.0</ele><time>2026-03-21T14:56:40.113Z</time></trkpt><trkpt lat="44.5654864" lon="8.7835902"><ele>656.0</ele><time>2026-03-21T14:56:41.112Z</time></trkpt><trkpt lat="44.565494" lon="8.7834672"><ele>656.0</ele><time>2026-03-21T14:56:42.112Z</time></trkpt><trkpt lat="44.5655187" lon="8.7833477"><ele>656.0</ele><time>2026-03-21T14:56:43.113Z</time></trkpt><trkpt lat="44.5655702" lon="8.7832403"><ele>657.3333333333333</ele><time>2026-03-21T14:56:44.113Z</time></trkpt><trkpt lat="44.5656488" lon="8.7831358"><ele>658.6666666666666</ele><time>2026-03-21T14:56:45.113Z</time></trkpt><trkpt lat="44.5657127" lon="8.7830307"><ele>660.0</ele><time>2026-03-21T14:56:46.113Z</time></trkpt><trkpt lat="44.5657469" lon="8.7829138"><ele>661.3333333333334</ele><time>2026-03-21T14:56:47.113Z</time></trkpt><trkpt lat="44.5657465" lon="8.7828126"><ele>662.6666666666667</ele><time>2026-03-21T14:56:48.112Z</time></trkpt><trkpt lat="44.5657159" lon="8.782729"><ele>664.0</ele><time>2026-03-21T14:56:49.113Z</time></trkpt><trkpt lat="44.5656534" lon="8.7826536"><ele>665.75</ele><time>2026-03-21T14:56:50.113Z</time></trkpt><trkpt lat="44.5655809" lon="8.7825633"><ele>667.5</ele><time>2026-03-21T14:56:51.113Z</time></trkpt><trkpt lat="44.5655108" lon="8.7824351"><ele>669.25</ele><time>2026-03-21T14:56:52.112Z</time></trkpt><trkpt lat="44.565432" lon="8.7822661"><ele>671.0</ele><time>2026-03-21T14:56:53.112Z</time></trkpt><trkpt lat="44.565367" lon="8.7820843"><ele>671.25</ele><time>2026-03-21T14:56:54.113Z</time></trkpt><trkpt lat="44.565302" lon="8.7818919"><ele>671.5</ele><time>2026-03-21T14:56:55.112Z</time></trkpt><trkpt lat="44.5652546" lon="8.7817151"><ele>671.75</ele><time>2026-03-21T14:56:56.113Z</time></trkpt><trkpt lat="44.5652193" lon="8.7815499"><ele>672.0</ele><time>2026-03-21T14:56:57.112Z</time></trkpt><trkpt lat="44.5652007" lon="8.7813949"><ele>672.0</ele><time>2026-03-21T14:56:58.113Z</time></trkpt><trkpt lat="44.5652162" lon="8.7812467"><ele>672.0</ele><time>2026-03-21T14:56:59.112Z</time></trkpt><trkpt lat="44.5652625" lon="8.7811053"><ele>672.0</ele><time>2026-03-21T14:57:00.113Z</time></trkpt><trkpt lat="44.5653251" lon="8.7809496"><ele>672.0</ele><time>2026-03-21T14:57:01.112Z</time></trkpt><trkpt lat="44.5653991" lon="8.7807772"><ele>676.3333333333334</ele><time>2026-03-21T14:57:02.112Z</time></trkpt><trkpt lat="44.5654686" lon="8.7805955"><ele>680.6666666666667</ele><time>2026-03-21T14:57:03.113Z</time></trkpt><trkpt lat="44.565539" lon="8.7803935"><ele>685.0</ele><time>2026-03-21T14:57:04.112Z</time></trkpt><trkpt lat="44.5656075" lon="8.7801896"><ele>686.25</ele><time>2026-03-21T14:57:05.113Z</time></trkpt><trkpt lat="44.5656693" lon="8.7800043"><ele>687.5</ele><time>2026-03-21T14:57:06.112Z</time></trkpt><trkpt lat="44.5657193" lon="8.779834"><ele>688.75</ele><time>2026-03-21T14:57:07.113Z</time></trkpt><trkpt lat="44.5657672" lon="8.7796793"><ele>690.0</ele><time>2026-03-21T14:57:08.112Z</time></trkpt><trkpt lat="44.5658131" lon="8.779527"><ele>690.0</ele><time>2026-03-21T14:57:09.112Z</time></trkpt><trkpt lat="44.565871" lon="8.7793882"><ele>690.0</ele><time>2026-03-21T14:57:10.113Z</time></trkpt><trkpt lat="44.5659359" lon="8.7792632"><ele>690.0</ele><time>2026-03-21T14:57:11.112Z</time></trkpt><trkpt lat="44.5659949" lon="8.7791363"><ele>690.0</ele><time>2026-03-21T14:57:12.112Z</time></trkpt><trkpt lat="44.5660496" lon="8.779004"><ele>690.0</ele><time>2026-03-21T14:57:13.113Z</time></trkpt><trkpt lat="44.5661088" lon="8.7788608"><ele>689.75</ele><time>2026-03-21T14:57:14.112Z</time></trkpt><trkpt lat="44.566159" lon="8.7787096"><ele>689.5</ele><time>2026-03-21T14:57:15.113Z</time></trkpt><trkpt lat="44.5661975" lon="8.7785515"><ele>689.25</ele><time>2026-03-21T14:57:16.112Z</time></trkpt><trkpt lat="44.5662236" lon="8.7783849"><ele>689.0</ele><time>2026-03-21T14:57:17.112Z</time></trkpt><trkpt lat="44.5662334" lon="8.7782206"><ele>689.0</ele><time>2026-03-21T14:57:18.112Z</time></trkpt><trkpt lat="44.5662362" lon="8.7780658"><ele>689.0</ele><time>2026-03-21T14:57:19.113Z</time></trkpt><trkpt lat="44.5662272" lon="8.7779287"><ele>689.0</ele><time>2026-03-21T14:57:20.112Z</time></trkpt><trkpt lat="44.5662013" lon="8.777822"><ele>689.0</ele><time>2026-03-21T14:57:21.112Z</time></trkpt><trkpt lat="44.566157" lon="8.7777416"><ele>689.0</ele><time>2026-03-21T14:57:22.113Z</time></trkpt><trkpt lat="44.5660541" lon="8.7777127"><ele>689.0</ele><time>2026-03-21T14:57:24.113Z</time></trkpt><trkpt lat="44.5659385" lon="8.7778485"><ele>689.0</ele><time>2026-03-21T14:57:26.113Z</time></trkpt><trkpt lat="44.5658711" lon="8.7779479"><ele>689.0</ele><time>2026-03-21T14:57:27.113Z</time></trkpt><trkpt lat="44.5658041" lon="8.7780587"><ele>689.0</ele><time>2026-03-21T14:57:28.113Z</time></trkpt><trkpt lat="44.5657178" lon="8.778175"><ele>689.0</ele><time>2026-03-21T14:57:29.113Z</time></trkpt><trkpt lat="44.5656356" lon="8.7782703"><ele>689.0</ele><time>2026-03-21T14:57:30.112Z</time></trkpt><trkpt lat="44.5655455" lon="8.7783257"><ele>689.0</ele><time>2026-03-21T14:57:31.113Z</time></trkpt><trkpt lat="44.5654491" lon="8.7783435"><ele>689.0</ele><time>2026-03-21T14:57:32.113Z</time></trkpt><trkpt lat="44.5653401" lon="8.7783494"><ele>689.0</ele><time>2026-03-21T14:57:33.113Z</time></trkpt><trkpt lat="44.5652241" lon="8.7783556"><ele>688.8000000000001</ele><time>2026-03-21T14:57:34.112Z</time></trkpt><trkpt lat="44.5651068" lon="8.7783686"><ele>688.6</ele><time>2026-03-21T14:57:35.112Z</time></trkpt><trkpt lat="44.564997" lon="8.778373"><ele>688.4</ele><time>2026-03-21T14:57:36.112Z</time></trkpt><trkpt lat="44.5649025" lon="8.7783553"><ele>688.2</ele><time>2026-03-21T14:57:37.113Z</time></trkpt><trkpt lat="44.5648159" lon="8.7783016"><ele>688.0</ele><time>2026-03-21T14:57:38.112Z</time></trkpt><trkpt lat="44.564757" lon="8.7782268"><ele>688.0000000000001</ele><time>2026-03-21T14:57:39.112Z</time></trkpt><trkpt lat="44.5647099" lon="8.7781479"><ele>688.0</ele><time>2026-03-21T14:57:40.112Z</time></trkpt><trkpt lat="44.5646755" lon="8.7780638"><ele>688.0</ele><time>2026-03-21T14:57:41.112Z</time></trkpt><trkpt lat="44.5646519" lon="8.7779737"><ele>688.0</ele><time>2026-03-21T14:57:42.112Z</time></trkpt><trkpt lat="44.5646446" lon="8.777881"><ele>688.0</ele><time>2026-03-21T14:57:43.113Z</time></trkpt><trkpt lat="44.5646583" lon="8.7777841"><ele>688.0000000000001</ele><time>2026-03-21T14:57:44.112Z</time></trkpt><trkpt lat="44.5646853" lon="8.7776861"><ele>688.0</ele><time>2026-03-21T14:57:45.113Z</time></trkpt><trkpt lat="44.5647094" lon="8.7775712"><ele>690.75</ele><time>2026-03-21T14:57:46.113Z</time></trkpt><trkpt lat="44.5647256" lon="8.7774317"><ele>693.5</ele><time>2026-03-21T14:57:47.113Z</time></trkpt><trkpt lat="44.5647175" lon="8.7772648"><ele>696.25</ele><time>2026-03-21T14:57:48.112Z</time></trkpt><trkpt lat="44.5646917" lon="8.7770709"><ele>699.0</ele><time>2026-03-21T14:57:49.113Z</time></trkpt><trkpt lat="44.5646584" lon="8.7768758"><ele>699.0</ele><time>2026-03-21T14:57:50.113Z</time></trkpt><trkpt lat="44.5646162" lon="8.7766816"><ele>699.0</ele><time>2026-03-21T14:57:51.113Z</time></trkpt><trkpt lat="44.5645748" lon="8.7764865"><ele>699.0</ele><time>2026-03-21T14:57:52.113Z</time></trkpt><trkpt lat="44.5645464" lon="8.7762989"><ele>699.0</ele><time>2026-03-21T14:57:53.112Z</time></trkpt><trkpt lat="44.5645235" lon="8.7761213"><ele>701.4000000000001</ele><time>2026-03-21T14:57:54.112Z</time></trkpt><trkpt lat="44.5644953" lon="8.7759695"><ele>703.8</ele><time>2026-03-21T14:57:55.113Z</time></trkpt><trkpt lat="44.5644541" lon="8.7758357"><ele>706.2</ele><time>2026-03-21T14:57:56.113Z</time></trkpt><trkpt lat="44.5643887" lon="8.7757399"><ele>708.5999999999999</ele><time>2026-03-21T14:57:57.112Z</time></trkpt><trkpt lat="44.5643045" lon="8.7756606"><ele>711.0</ele><time>2026-03-21T14:57:58.112Z</time></trkpt><trkpt lat="44.5642107" lon="8.7755671"><ele>711.0</ele><time>2026-03-21T14:57:59.112Z</time></trkpt><trkpt lat="44.5641222" lon="8.7754539"><ele>711.0</ele><time>2026-03-21T14:58:00.113Z</time></trkpt><trkpt lat="44.5640466" lon="8.7753384"><ele>711.0</ele><time>2026-03-21T14:58:01.112Z</time></trkpt><trkpt lat="44.563997" lon="8.7752193"><ele>711.0</ele><time>2026-03-21T14:58:02.113Z</time></trkpt><trkpt lat="44.5639751" lon="8.7750759"><ele>711.0</ele><time>2026-03-21T14:58:03.112Z</time></trkpt><trkpt lat="44.5639893" lon="8.7749089"><ele>713.0</ele><time>2026-03-21T14:58:04.112Z</time></trkpt><trkpt lat="44.5640076" lon="8.7747249"><ele>715.0</ele><time>2026-03-21T14:58:05.113Z</time></trkpt><trkpt lat="44.564023" lon="8.7745769"><ele>717.0</ele><time>2026-03-21T14:58:06.113Z</time></trkpt><trkpt lat="44.5640287" lon="8.7744568"><ele>719.0</ele><time>2026-03-21T14:58:07.113Z</time></trkpt><trkpt lat="44.5640149" lon="8.7743601"><ele>721.0</ele><time>2026-03-21T14:58:08.113Z</time></trkpt><trkpt lat="44.5639709" lon="8.7742891"><ele>720.5</ele><time>2026-03-21T14:58:09.113Z</time></trkpt><trkpt lat="44.5639149" lon="8.7742314"><ele>720.0</ele><time>2026-03-21T14:58:10.113Z</time></trkpt><trkpt lat="44.5638399" lon="8.7742829"><ele>719.5</ele><time>2026-03-21T14:58:11.113Z</time></trkpt><trkpt lat="44.5637651" lon="8.7743248"><ele>719.0</ele><time>2026-03-21T14:58:12.113Z</time></trkpt><trkpt lat="44.563681" lon="8.7743585"><ele>718.5</ele><time>2026-03-21T14:58:13.112Z</time></trkpt><trkpt lat="44.563592" lon="8.7743805"><ele>718.0</ele><time>2026-03-21T14:58:14.113Z</time></trkpt><trkpt lat="44.5635022" lon="8.7743852"><ele>720.0</ele><time>2026-03-21T14:58:15.113Z</time></trkpt><trkpt lat="44.563419" lon="8.7743505"><ele>722.0</ele><time>2026-03-21T14:58:16.113Z</time></trkpt><trkpt lat="44.5633417" lon="8.7742847"><ele>724.0</ele><time>2026-03-21T14:58:17.113Z</time></trkpt><trkpt lat="44.5632686" lon="8.7741892"><ele>726.0</ele><time>2026-03-21T14:58:18.112Z</time></trkpt><trkpt lat="44.5631993" lon="8.7740658"><ele>728.0</ele><time>2026-03-21T14:58:19.112Z</time></trkpt><trkpt lat="44.5631432" lon="8.7739153"><ele>728.0</ele><time>2026-03-21T14:58:20.113Z</time></trkpt><trkpt lat="44.5630889" lon="8.7737461"><ele>728.0</ele><time>2026-03-21T14:58:21.112Z</time></trkpt><trkpt lat="44.5630215" lon="8.773572"><ele>728.0</ele><time>2026-03-21T14:58:22.113Z</time></trkpt><trkpt lat="44.5629363" lon="8.7733892"><ele>728.0</ele><time>2026-03-21T14:58:23.112Z</time></trkpt><trkpt lat="44.5628367" lon="8.773201"><ele>730.3333333333333</ele><time>2026-03-21T14:58:24.112Z</time></trkpt><trkpt lat="44.5627261" lon="8.7730264"><ele>732.6666666666666</ele><time>2026-03-21T14:58:25.112Z</time></trkpt><trkpt lat="44.5626195" lon="8.7728601"><ele>735.0</ele><time>2026-03-21T14:58:26.112Z</time></trkpt><trkpt lat="44.5625209" lon="8.7727067"><ele>737.0</ele><time>2026-03-21T14:58:27.113Z</time></trkpt><trkpt lat="44.562437" lon="8.7725681"><ele>739.0</ele><time>2026-03-21T14:58:28.113Z</time></trkpt><trkpt lat="44.5623721" lon="8.7724304"><ele>741.0</ele><time>2026-03-21T14:58:29.113Z</time></trkpt><trkpt lat="44.5623268" lon="8.772278"><ele>743.0</ele><time>2026-03-21T14:58:30.112Z</time></trkpt><trkpt lat="44.5622964" lon="8.772145"><ele>743.0</ele><time>2026-03-21T14:58:31.113Z</time></trkpt><trkpt lat="44.5622652" lon="8.7720289"><ele>743.0</ele><time>2026-03-21T14:58:32.113Z</time></trkpt><trkpt lat="44.5622153" lon="8.7719277"><ele>743.0</ele><time>2026-03-21T14:58:33.112Z</time></trkpt><trkpt lat="44.5621513" lon="8.7718594"><ele>743.0</ele><time>2026-03-21T14:58:34.113Z</time></trkpt><trkpt lat="44.5620745" lon="8.7718432"><ele>743.0</ele><time>2026-03-21T14:58:35.113Z</time></trkpt><trkpt lat="44.5619957" lon="8.7718392"><ele>743.0</ele><time>2026-03-21T14:58:36.112Z</time></trkpt><trkpt lat="44.5619279" lon="8.7719616"><ele>744.75</ele><time>2026-03-21T14:58:37.113Z</time></trkpt><trkpt lat="44.5618248" lon="8.7720401"><ele>746.5</ele><time>2026-03-21T14:58:38.113Z</time></trkpt><trkpt lat="44.561701" lon="8.772114"><ele>748.25</ele><time>2026-03-21T14:58:39.112Z</time></trkpt><trkpt lat="44.561572" lon="8.7721974"><ele>750.0</ele><time>2026-03-21T14:58:40.113Z</time></trkpt><trkpt lat="44.5614483" lon="8.7722799"><ele>750.0</ele><time>2026-03-21T14:58:41.113Z</time></trkpt><trkpt lat="44.5613369" lon="8.7723524"><ele>750.0</ele><time>2026-03-21T14:58:42.112Z</time></trkpt><trkpt lat="44.5612324" lon="8.7723935"><ele>750.0</ele><time>2026-03-21T14:58:43.113Z</time></trkpt><trkpt lat="44.5611301" lon="8.7724143"><ele>750.0</ele><time>2026-03-21T14:58:44.113Z</time></trkpt><trkpt lat="44.5610371" lon="8.7724376"><ele>750.0</ele><time>2026-03-21T14:58:45.112Z</time></trkpt><trkpt lat="44.5609542" lon="8.7724802"><ele>751.2</ele><time>2026-03-21T14:58:46.113Z</time></trkpt><trkpt lat="44.5608894" lon="8.7725827"><ele>752.4</ele><time>2026-03-21T14:58:47.112Z</time></trkpt><trkpt lat="44.5608356" lon="8.7727042"><ele>753.5999999999999</ele><time>2026-03-21T14:58:48.113Z</time></trkpt><trkpt lat="44.5607726" lon="8.7728423"><ele>754.8</ele><time>2026-03-21T14:58:49.112Z</time></trkpt><trkpt lat="44.5607035" lon="8.772984"><ele>756.0</ele><time>2026-03-21T14:58:50.112Z</time></trkpt><trkpt lat="44.5606241" lon="8.7731049"><ele>756.0</ele><time>2026-03-21T14:58:51.113Z</time></trkpt><trkpt lat="44.5605208" lon="8.7732005"><ele>756.0</ele><time>2026-03-21T14:58:52.113Z</time></trkpt><trkpt lat="44.5604075" lon="8.7732891"><ele>756.0</ele><time>2026-03-21T14:58:53.113Z</time></trkpt><trkpt lat="44.5602978" lon="8.7733518"><ele>756.0</ele><time>2026-03-21T14:58:54.113Z</time></trkpt><trkpt lat="44.5601684" lon="8.773382"><ele>760.5</ele><time>2026-03-21T14:58:55.113Z</time></trkpt><trkpt lat="44.5600362" lon="8.7733942"><ele>765.0</ele><time>2026-03-21T14:58:56.113Z</time></trkpt><trkpt lat="44.5598981" lon="8.7733968"><ele>769.5</ele><time>2026-03-21T14:58:57.113Z</time></trkpt><trkpt lat="44.5597603" lon="8.7734035"><ele>774.0</ele><time>2026-03-21T14:58:58.112Z</time></trkpt><trkpt lat="44.5596349" lon="8.773408"><ele>774.5</ele><time>2026-03-21T14:58:59.112Z</time></trkpt><trkpt lat="44.5595176" lon="8.7734166"><ele>775.0</ele><time>2026-03-21T14:59:00.112Z</time></trkpt><trkpt lat="44.559406" lon="8.7734362"><ele>775.5</ele><time>2026-03-21T14:59:01.112Z</time></trkpt><trkpt lat="44.5592941" lon="8.7734678"><ele>776.0</ele><time>2026-03-21T14:59:02.112Z</time></trkpt><trkpt lat="44.5591907" lon="8.7735195"><ele>777.8</ele><time>2026-03-21T14:59:03.112Z</time></trkpt><trkpt lat="44.5590919" lon="8.7735898"><ele>779.5999999999999</ele><time>2026-03-21T14:59:04.112Z</time></trkpt><trkpt lat="44.558996" lon="8.7736666"><ele>781.4</ele><time>2026-03-21T14:59:05.112Z</time></trkpt><trkpt lat="44.5589036" lon="8.7737456"><ele>783.2</ele><time>2026-03-21T14:59:06.112Z</time></trkpt><trkpt lat="44.5588087" lon="8.7738292"><ele>785.0</ele><time>2026-03-21T14:59:07.112Z</time></trkpt><trkpt lat="44.5587091" lon="8.7739096"><ele>784.8</ele><time>2026-03-21T14:59:08.112Z</time></trkpt><trkpt lat="44.5586036" lon="8.7739744"><ele>784.6</ele><time>2026-03-21T14:59:09.112Z</time></trkpt><trkpt lat="44.5584916" lon="8.7740005"><ele>784.4000000000001</ele><time>2026-03-21T14:59:10.112Z</time></trkpt><trkpt lat="44.5583841" lon="8.774003"><ele>784.2</ele><time>2026-03-21T14:59:11.113Z</time></trkpt><trkpt lat="44.5582767" lon="8.7739985"><ele>784.0</ele><time>2026-03-21T14:59:12.112Z</time></trkpt><trkpt lat="44.5581593" lon="8.773984"><ele>784.0</ele><time>2026-03-21T14:59:13.112Z</time></trkpt><trkpt lat="44.5580403" lon="8.773986"><ele>784.0</ele><time>2026-03-21T14:59:14.112Z</time></trkpt><trkpt lat="44.5579175" lon="8.7739925"><ele>784.0</ele><time>2026-03-21T14:59:15.112Z</time></trkpt><trkpt lat="44.5577963" lon="8.7740023"><ele>784.0</ele><time>2026-03-21T14:59:16.112Z</time></trkpt><trkpt lat="44.5576694" lon="8.7740006"><ele>783.75</ele><time>2026-03-21T14:59:17.113Z</time></trkpt><trkpt lat="44.5575468" lon="8.7739748"><ele>783.5</ele><time>2026-03-21T14:59:18.112Z</time></trkpt><trkpt lat="44.5574247" lon="8.773959"><ele>783.25</ele><time>2026-03-21T14:59:19.112Z</time></trkpt><trkpt lat="44.5573307" lon="8.7738697"><ele>783.0</ele><time>2026-03-21T14:59:20.112Z</time></trkpt><trkpt lat="44.5572357" lon="8.7738182"><ele>783.0</ele><time>2026-03-21T14:59:21.113Z</time></trkpt><trkpt lat="44.5571311" lon="8.7737729"><ele>783.0</ele><time>2026-03-21T14:59:22.113Z</time></trkpt><trkpt lat="44.5570065" lon="8.7737636"><ele>783.0</ele><time>2026-03-21T14:59:23.113Z</time></trkpt><trkpt lat="44.5568809" lon="8.7737492"><ele>783.0</ele><time>2026-03-21T14:59:24.113Z</time></trkpt><trkpt lat="44.5567544" lon="8.773705"><ele>782.75</ele><time>2026-03-21T14:59:25.112Z</time></trkpt><trkpt lat="44.5566418" lon="8.7736422"><ele>782.5</ele><time>2026-03-21T14:59:26.113Z</time></trkpt><trkpt lat="44.5565214" lon="8.7735782"><ele>782.25</ele><time>2026-03-21T14:59:27.113Z</time></trkpt><trkpt lat="44.5564439" lon="8.7734592"><ele>782.0</ele><time>2026-03-21T14:59:28.112Z</time></trkpt><trkpt lat="44.5563685" lon="8.7733308"><ele>782.0</ele><time>2026-03-21T14:59:29.112Z</time></trkpt><trkpt lat="44.5562824" lon="8.773181"><ele>782.0</ele><time>2026-03-21T14:59:30.112Z</time></trkpt><trkpt lat="44.5561877" lon="8.773029"><ele>782.0</ele><time>2026-03-21T14:59:31.112Z</time></trkpt><trkpt lat="44.5560964" lon="8.7728633"><ele>782.0</ele><time>2026-03-21T14:59:32.113Z</time></trkpt><trkpt lat="44.5560179" lon="8.7726894"><ele>781.75</ele><time>2026-03-21T14:59:33.113Z</time></trkpt><trkpt lat="44.5559382" lon="8.7725213"><ele>781.5</ele><time>2026-03-21T14:59:34.113Z</time></trkpt><trkpt lat="44.555849" lon="8.7723724"><ele>781.25</ele><time>2026-03-21T14:59:35.112Z</time></trkpt><trkpt lat="44.5557621" lon="8.7722217"><ele>781.0</ele><time>2026-03-21T14:59:36.112Z</time></trkpt><trkpt lat="44.5556875" lon="8.7720698"><ele>781.0</ele><time>2026-03-21T14:59:37.112Z</time></trkpt><trkpt lat="44.555624" lon="8.7719143"><ele>781.0</ele><time>2026-03-21T14:59:38.113Z</time></trkpt><trkpt lat="44.5555788" lon="8.77176"><ele>781.0</ele><time>2026-03-21T14:59:39.113Z</time></trkpt><trkpt lat="44.555547" lon="8.7716048"><ele>781.0</ele><time>2026-03-21T14:59:40.113Z</time></trkpt><trkpt lat="44.5555115" lon="8.7714575"><ele>780.5</ele><time>2026-03-21T14:59:41.112Z</time></trkpt><trkpt lat="44.5554592" lon="8.771331"><ele>780.0</ele><time>2026-03-21T14:59:42.112Z</time></trkpt><trkpt lat="44.5553802" lon="8.7712164"><ele>779.5</ele><time>2026-03-21T14:59:43.112Z</time></trkpt><trkpt lat="44.5552758" lon="8.7711231"><ele>779.0</ele><time>2026-03-21T14:59:44.112Z</time></trkpt><trkpt lat="44.5551697" lon="8.7710581"><ele>775.0</ele><time>2026-03-21T14:59:45.112Z</time></trkpt><trkpt lat="44.5550484" lon="8.7710131"><ele>771.0</ele><time>2026-03-21T14:59:46.112Z</time></trkpt><trkpt lat="44.5549311" lon="8.770997"><ele>767.0</ele><time>2026-03-21T14:59:47.112Z</time></trkpt><trkpt lat="44.5548246" lon="8.7709897"><ele>763.0</ele><time>2026-03-21T14:59:48.113Z</time></trkpt><trkpt lat="44.55472" lon="8.7710085"><ele>762.0</ele><time>2026-03-21T14:59:49.113Z</time></trkpt><trkpt lat="44.5546276" lon="8.7710605"><ele>761.0</ele><time>2026-03-21T14:59:50.113Z</time></trkpt><trkpt lat="44.5545404" lon="8.7711409"><ele>760.0</ele><time>2026-03-21T14:59:51.112Z</time></trkpt><trkpt lat="44.554443" lon="8.7712387"><ele>759.0</ele><time>2026-03-21T14:59:52.113Z</time></trkpt><trkpt lat="44.5543466" lon="8.7713335"><ele>758.0</ele><time>2026-03-21T14:59:53.113Z</time></trkpt><trkpt lat="44.5542542" lon="8.7714165"><ele>758.0</ele><time>2026-03-21T14:59:54.112Z</time></trkpt><trkpt lat="44.5541707" lon="8.7715056"><ele>758.0</ele><time>2026-03-21T14:59:55.113Z</time></trkpt><trkpt lat="44.5541011" lon="8.7716042"><ele>758.0</ele><time>2026-03-21T14:59:56.112Z</time></trkpt><trkpt lat="44.5540565" lon="8.7717263"><ele>758.0</ele><time>2026-03-21T14:59:57.113Z</time></trkpt><trkpt lat="44.5540231" lon="8.7718742"><ele>758.0</ele><time>2026-03-21T14:59:58.112Z</time></trkpt><trkpt lat="44.5539797" lon="8.7720367"><ele>760.25</ele><time>2026-03-21T14:59:59.113Z</time></trkpt><trkpt lat="44.5539239" lon="8.7721838"><ele>762.5</ele><time>2026-03-21T15:00:00.112Z</time></trkpt><trkpt lat="44.5538625" lon="8.7723238"><ele>764.75</ele><time>2026-03-21T15:00:01.113Z</time></trkpt><trkpt lat="44.5538048" lon="8.7724641"><ele>767.0</ele><time>2026-03-21T15:00:02.112Z</time></trkpt><trkpt lat="44.5536969" lon="8.7725253"><ele>765.2</ele><time>2026-03-21T15:00:03.112Z</time></trkpt><trkpt lat="44.553618" lon="8.7726133"><ele>763.4000000000001</ele><time>2026-03-21T15:00:04.112Z</time></trkpt><trkpt lat="44.5535406" lon="8.7727099"><ele>761.5999999999999</ele><time>2026-03-21T15:00:05.112Z</time></trkpt><trkpt lat="44.5534807" lon="8.7728075"><ele>759.8</ele><time>2026-03-21T15:00:06.113Z</time></trkpt><trkpt lat="44.5534244" lon="8.7729087"><ele>758.0</ele><time>2026-03-21T15:00:07.113Z</time></trkpt><trkpt lat="44.5533672" lon="8.7730148"><ele>758.0</ele><time>2026-03-21T15:00:08.112Z</time></trkpt><trkpt lat="44.5533169" lon="8.7731149"><ele>758.0</ele><time>2026-03-21T15:00:09.113Z</time></trkpt><trkpt lat="44.5532504" lon="8.7731978"><ele>758.0</ele><time>2026-03-21T15:00:10.112Z</time></trkpt><trkpt lat="44.5531669" lon="8.77322"><ele>758.0</ele><time>2026-03-21T15:00:11.113Z</time></trkpt><trkpt lat="44.5530849" lon="8.7732358"><ele>758.0</ele><time>2026-03-21T15:00:12.112Z</time></trkpt><trkpt lat="44.5530015" lon="8.7732457"><ele>758.0</ele><time>2026-03-21T15:00:13.113Z</time></trkpt><trkpt lat="44.5529096" lon="8.7732499"><ele>757.4</ele><time>2026-03-21T15:00:14.112Z</time></trkpt><trkpt lat="44.5528091" lon="8.7732528"><ele>756.8</ele><time>2026-03-21T15:00:15.113Z</time></trkpt><trkpt lat="44.5527117" lon="8.773253"><ele>756.2</ele><time>2026-03-21T15:00:16.113Z</time></trkpt><trkpt lat="44.5526233" lon="8.7732516"><ele>755.6</ele><time>2026-03-21T15:00:17.113Z</time></trkpt><trkpt lat="44.552538" lon="8.7732563"><ele>755.0</ele><time>2026-03-21T15:00:18.112Z</time></trkpt><trkpt lat="44.5524453" lon="8.7732876"><ele>755.0</ele><time>2026-03-21T15:00:19.113Z</time></trkpt><trkpt lat="44.5523421" lon="8.7733263"><ele>755.0</ele><time>2026-03-21T15:00:20.112Z</time></trkpt><trkpt lat="44.5522329" lon="8.7733829"><ele>755.0</ele><time>2026-03-21T15:00:21.112Z</time></trkpt><trkpt lat="44.552113" lon="8.7734421"><ele>755.0</ele><time>2026-03-21T15:00:22.112Z</time></trkpt><trkpt lat="44.551989" lon="8.7735047"><ele>757.5</ele><time>2026-03-21T15:00:23.113Z</time></trkpt><trkpt lat="44.5518609" lon="8.7735806"><ele>760.0</ele><time>2026-03-21T15:00:24.112Z</time></trkpt><trkpt lat="44.5517393" lon="8.7736637"><ele>762.5</ele><time>2026-03-21T15:00:25.113Z</time></trkpt><trkpt lat="44.5516308" lon="8.7737503"><ele>765.0</ele><time>2026-03-21T15:00:26.112Z</time></trkpt><trkpt lat="44.5515223" lon="8.7738184"><ele>765.0</ele><time>2026-03-21T15:00:27.113Z</time></trkpt><trkpt lat="44.5514176" lon="8.7738681"><ele>765.0</ele><time>2026-03-21T15:00:28.113Z</time></trkpt><trkpt lat="44.5513055" lon="8.7739007"><ele>765.0</ele><time>2026-03-21T15:00:29.112Z</time></trkpt><trkpt lat="44.5511872" lon="8.7739048"><ele>765.0</ele><time>2026-03-21T15:00:30.113Z</time></trkpt><trkpt lat="44.5510715" lon="8.7738825"><ele>764.0</ele><time>2026-03-21T15:00:31.113Z</time></trkpt><trkpt lat="44.5509714" lon="8.7738274"><ele>763.0</ele><time>2026-03-21T15:00:32.113Z</time></trkpt><trkpt lat="44.5509048" lon="8.7737366"><ele>762.0</ele><time>2026-03-21T15:00:33.113Z</time></trkpt><trkpt lat="44.5508541" lon="8.7736267"><ele>761.0</ele><time>2026-03-21T15:00:34.112Z</time></trkpt><trkpt lat="44.5508127" lon="8.7735033"><ele>760.0</ele><time>2026-03-21T15:00:35.113Z</time></trkpt><trkpt lat="44.5507522" lon="8.7733843"><ele>760.0</ele><time>2026-03-21T15:00:36.112Z</time></trkpt><trkpt lat="44.550672" lon="8.7732838"><ele>760.0</ele><time>2026-03-21T15:00:37.112Z</time></trkpt><trkpt lat="44.5505785" lon="8.7731946"><ele>760.0</ele><time>2026-03-21T15:00:38.113Z</time></trkpt><trkpt lat="44.5504764" lon="8.7731325"><ele>760.0</ele><time>2026-03-21T15:00:39.112Z</time></trkpt><trkpt lat="44.5503689" lon="8.7731027"><ele>760.0</ele><time>2026-03-21T15:00:40.112Z</time></trkpt><trkpt lat="44.5502618" lon="8.7731118"><ele>762.8</ele><time>2026-03-21T15:00:41.113Z</time></trkpt><trkpt lat="44.5501497" lon="8.77313"><ele>765.6</ele><time>2026-03-21T15:00:42.113Z</time></trkpt><trkpt lat="44.5500462" lon="8.7731388"><ele>768.4000000000001</ele><time>2026-03-21T15:00:43.112Z</time></trkpt><trkpt lat="44.5499476" lon="8.7731248"><ele>771.2</ele><time>2026-03-21T15:00:44.112Z</time></trkpt><trkpt lat="44.549869" lon="8.7730781"><ele>774.0</ele><time>2026-03-21T15:00:45.112Z</time></trkpt><trkpt lat="44.5498132" lon="8.7729934"><ele>774.0</ele><time>2026-03-21T15:00:46.113Z</time></trkpt><trkpt lat="44.5497672" lon="8.7729"><ele>774.0</ele><time>2026-03-21T15:00:47.112Z</time></trkpt><trkpt lat="44.5497174" lon="8.7728037"><ele>774.0</ele><time>2026-03-21T15:00:48.113Z</time></trkpt><trkpt lat="44.5496466" lon="8.7727094"><ele>774.0</ele><time>2026-03-21T15:00:49.113Z</time></trkpt><trkpt lat="44.5495667" lon="8.7726289"><ele>774.0</ele><time>2026-03-21T15:00:50.113Z</time></trkpt><trkpt lat="44.5494781" lon="8.7725579"><ele>773.5</ele><time>2026-03-21T15:00:51.112Z</time></trkpt><trkpt lat="44.5493934" lon="8.7725225"><ele>773.0</ele><time>2026-03-21T15:00:52.112Z</time></trkpt><trkpt lat="44.5493276" lon="8.7724777"><ele>772.5</ele><time>2026-03-21T15:00:54.113Z</time></trkpt><trkpt lat="44.5492588" lon="8.7724827"><ele>772.0</ele><time>2026-03-21T15:01:24.113Z</time></trkpt><trkpt lat="44.5491902" lon="8.7724944"><ele>771.5</ele><time>2026-03-21T15:01:27.112Z</time></trkpt><trkpt lat="44.5490776" lon="8.7725038"><ele>771.0</ele><time>2026-03-21T15:01:30.113Z</time></trkpt><trkpt lat="44.5490113" lon="8.7725012"><ele>771.0</ele><time>2026-03-21T15:01:31.112Z</time></trkpt><trkpt lat="44.5489402" lon="8.772492"><ele>771.0</ele><time>2026-03-21T15:01:32.113Z</time></trkpt><trkpt lat="44.5488607" lon="8.7724754"><ele>771.0</ele><time>2026-03-21T15:01:33.112Z</time></trkpt><trkpt lat="44.5487765" lon="8.7724555"><ele>771.0</ele><time>2026-03-21T15:01:34.113Z</time></trkpt><trkpt lat="44.5486917" lon="8.7724325"><ele>771.0</ele><time>2026-03-21T15:01:35.113Z</time></trkpt><trkpt lat="44.5485994" lon="8.7724153"><ele>771.0</ele><time>2026-03-21T15:01:36.112Z</time></trkpt><trkpt lat="44.5485113" lon="8.7724007"><ele>772.0</ele><time>2026-03-21T15:01:37.112Z</time></trkpt><trkpt lat="44.548439" lon="8.7723856"><ele>773.0</ele><time>2026-03-21T15:01:38.112Z</time></trkpt><trkpt lat="44.5483782" lon="8.7723621"><ele>774.0</ele><time>2026-03-21T15:01:40.113Z</time></trkpt><trkpt lat="44.5482522" lon="8.7723392"><ele>775.0</ele><time>2026-03-21T15:01:52.112Z</time></trkpt><trkpt lat="44.5481447" lon="8.772328"><ele>776.0</ele><time>2026-03-21T15:01:53.113Z</time></trkpt><trkpt lat="44.5480312" lon="8.7723155"><ele>776.0</ele><time>2026-03-21T15:01:54.112Z</time></trkpt><trkpt lat="44.5478954" lon="8.7723356"><ele>776.0</ele><time>2026-03-21T15:01:55.112Z</time></trkpt><trkpt lat="44.5477492" lon="8.7723698"><ele>776.0</ele><time>2026-03-21T15:01:56.113Z</time></trkpt><trkpt lat="44.547604" lon="8.7723772"><ele>776.0</ele><time>2026-03-21T15:01:57.113Z</time></trkpt><trkpt lat="44.5474779" lon="8.7723791"><ele>776.75</ele><time>2026-03-21T15:01:58.112Z</time></trkpt><trkpt lat="44.547347" lon="8.7723498"><ele>777.5</ele><time>2026-03-21T15:01:59.112Z</time></trkpt><trkpt lat="44.5472123" lon="8.7722876"><ele>778.25</ele><time>2026-03-21T15:02:00.112Z</time></trkpt><trkpt lat="44.5470914" lon="8.7722263"><ele>779.0</ele><time>2026-03-21T15:02:01.112Z</time></trkpt><trkpt lat="44.5469619" lon="8.7721788"><ele>781.3333333333334</ele><time>2026-03-21T15:02:02.112Z</time></trkpt><trkpt lat="44.5468134" lon="8.7721268"><ele>783.6666666666667</ele><time>2026-03-21T15:02:03.113Z</time></trkpt><trkpt lat="44.5466709" lon="8.7720706"><ele>786.0</ele><time>2026-03-21T15:02:04.112Z</time></trkpt><trkpt lat="44.5465076" lon="8.7720034"><ele>786.0</ele><time>2026-03-21T15:02:05.113Z</time></trkpt><trkpt lat="44.5463551" lon="8.7719433"><ele>786.0</ele><time>2026-03-21T15:02:06.113Z</time></trkpt><trkpt lat="44.5462567" lon="8.7718497"><ele>786.0</ele><time>2026-03-21T15:02:07.112Z</time></trkpt><trkpt lat="44.5461556" lon="8.7717737"><ele>786.0</ele><time>2026-03-21T15:02:08.112Z</time></trkpt><trkpt lat="44.546062" lon="8.7717162"><ele>783.3333333333334</ele><time>2026-03-21T15:02:09.113Z</time></trkpt><trkpt lat="44.5459606" lon="8.7716824"><ele>780.6666666666667</ele><time>2026-03-21T15:02:10.112Z</time></trkpt><trkpt lat="44.5458979" lon="8.7716668"><ele>778.0</ele><time>2026-03-21T15:02:11.113Z</time></trkpt><trkpt lat="44.5458273" lon="8.7716675"><ele>775.3333333333334</ele><time>2026-03-21T15:02:12.113Z</time></trkpt><trkpt lat="44.5457576" lon="8.7716832"><ele>772.6666666666667</ele><time>2026-03-21T15:02:13.113Z</time></trkpt><trkpt lat="44.5456773" lon="8.7717161"><ele>770.0</ele><time>2026-03-21T15:02:14.112Z</time></trkpt><trkpt lat="44.5455809" lon="8.7717423"><ele>770.0</ele><time>2026-03-21T15:02:15.112Z</time></trkpt><trkpt lat="44.5454716" lon="8.7717549"><ele>770.0</ele><time>2026-03-21T15:02:16.112Z</time></trkpt><trkpt lat="44.5453589" lon="8.771751"><ele>770.0</ele><time>2026-03-21T15:02:17.113Z</time></trkpt><trkpt lat="44.5452485" lon="8.7717254"><ele>770.0</ele><time>2026-03-21T15:02:18.112Z</time></trkpt><trkpt lat="44.545133" lon="8.7716918"><ele>772.5</ele><time>2026-03-21T15:02:19.113Z</time></trkpt><trkpt lat="44.5450189" lon="8.7716517"><ele>775.0</ele><time>2026-03-21T15:02:20.113Z</time></trkpt><trkpt lat="44.5449038" lon="8.7716109"><ele>777.5</ele><time>2026-03-21T15:02:21.112Z</time></trkpt><trkpt lat="44.5447935" lon="8.7715713"><ele>780.0</ele><time>2026-03-21T15:02:22.112Z</time></trkpt><trkpt lat="44.5446632" lon="8.7715566"><ele>781.0</ele><time>2026-03-21T15:02:23.113Z</time></trkpt><trkpt lat="44.5445294" lon="8.7715575"><ele>782.0</ele><time>2026-03-21T15:02:24.113Z</time></trkpt><trkpt lat="44.5443935" lon="8.7715737"><ele>783.0</ele><time>2026-03-21T15:02:25.113Z</time></trkpt><trkpt lat="44.5442567" lon="8.7716039"><ele>784.0</ele><time>2026-03-21T15:02:26.112Z</time></trkpt><trkpt lat="44.5441304" lon="8.7716456"><ele>784.0</ele><time>2026-03-21T15:02:27.113Z</time></trkpt><trkpt lat="44.5440175" lon="8.7717094"><ele>784.0</ele><time>2026-03-21T15:02:28.112Z</time></trkpt><trkpt lat="44.5439125" lon="8.7717901"><ele>784.0</ele><time>2026-03-21T15:02:29.113Z</time></trkpt><trkpt lat="44.5438122" lon="8.7718684"><ele>784.0</ele><time>2026-03-21T15:02:30.113Z</time></trkpt><trkpt lat="44.5437107" lon="8.7719532"><ele>787.75</ele><time>2026-03-21T15:02:31.113Z</time></trkpt><trkpt lat="44.5436231" lon="8.7720634"><ele>791.5</ele><time>2026-03-21T15:02:32.113Z</time></trkpt><trkpt lat="44.5435395" lon="8.7721785"><ele>795.25</ele><time>2026-03-21T15:02:33.112Z</time></trkpt><trkpt lat="44.5434517" lon="8.772287"><ele>799.0</ele><time>2026-03-21T15:02:34.112Z</time></trkpt><trkpt lat="44.5433436" lon="8.7723704"><ele>799.0</ele><time>2026-03-21T15:02:35.112Z</time></trkpt><trkpt lat="44.5432264" lon="8.7723884"><ele>799.0</ele><time>2026-03-21T15:02:36.113Z</time></trkpt><trkpt lat="44.5431385" lon="8.7723721"><ele>799.0</ele><time>2026-03-21T15:02:37.112Z</time></trkpt><trkpt lat="44.543035" lon="8.7723936"><ele>799.0</ele><time>2026-03-21T15:02:38.113Z</time></trkpt><trkpt lat="44.5429389" lon="8.7724448"><ele>799.0</ele><time>2026-03-21T15:02:39.113Z</time></trkpt><trkpt lat="44.5428656" lon="8.7725216"><ele>799.0</ele><time>2026-03-21T15:02:40.113Z</time></trkpt><trkpt lat="44.5428028" lon="8.7726348"><ele>799.0</ele><time>2026-03-21T15:02:41.112Z</time></trkpt><trkpt lat="44.5427529" lon="8.7727857"><ele>799.0</ele><time>2026-03-21T15:02:42.113Z</time></trkpt><trkpt lat="44.5427133" lon="8.7729558"><ele>799.0</ele><time>2026-03-21T15:02:43.112Z</time></trkpt><trkpt lat="44.5426685" lon="8.7731141"><ele>799.0</ele><time>2026-03-21T15:02:44.112Z</time></trkpt><trkpt lat="44.5426206" lon="8.7732596"><ele>799.0</ele><time>2026-03-21T15:02:45.112Z</time></trkpt><trkpt lat="44.5425814" lon="8.7733792"><ele>799.0</ele><time>2026-03-21T15:02:46.113Z</time></trkpt><trkpt lat="44.5425608" lon="8.7734979"><ele>799.0</ele><time>2026-03-21T15:02:47.112Z</time></trkpt><trkpt lat="44.5425413" lon="8.7736254"><ele>799.0</ele><time>2026-03-21T15:02:48.113Z</time></trkpt><trkpt lat="44.5425324" lon="8.7737467"><ele>797.8000000000001</ele><time>2026-03-21T15:02:49.113Z</time></trkpt><trkpt lat="44.5425453" lon="8.7738704"><ele>796.6</ele><time>2026-03-21T15:02:50.113Z</time></trkpt><trkpt lat="44.5425854" lon="8.7739827"><ele>795.4</ele><time>2026-03-21T15:02:51.112Z</time></trkpt><trkpt lat="44.5426368" lon="8.7740921"><ele>794.2</ele><time>2026-03-21T15:02:52.112Z</time></trkpt><trkpt lat="44.5427047" lon="8.7742119"><ele>793.0</ele><time>2026-03-21T15:02:53.112Z</time></trkpt><trkpt lat="44.5427715" lon="8.7743446"><ele>794.0</ele><time>2026-03-21T15:02:54.112Z</time></trkpt><trkpt lat="44.5428242" lon="8.774486"><ele>795.0</ele><time>2026-03-21T15:02:55.113Z</time></trkpt><trkpt lat="44.5428412" lon="8.7746209"><ele>796.0</ele><time>2026-03-21T15:02:56.113Z</time></trkpt><trkpt lat="44.5428403" lon="8.7747538"><ele>797.0</ele><time>2026-03-21T15:02:57.112Z</time></trkpt><trkpt lat="44.5428181" lon="8.7748837"><ele>798.0</ele><time>2026-03-21T15:02:58.113Z</time></trkpt><trkpt lat="44.5427965" lon="8.7750064"><ele>798.0</ele><time>2026-03-21T15:02:59.113Z</time></trkpt><trkpt lat="44.5427806" lon="8.775138"><ele>798.0</ele><time>2026-03-21T15:03:00.113Z</time></trkpt><trkpt lat="44.5427991" lon="8.7752814"><ele>798.0</ele><time>2026-03-21T15:03:01.112Z</time></trkpt><trkpt lat="44.542807" lon="8.7754385"><ele>798.0</ele><time>2026-03-21T15:03:02.113Z</time></trkpt><trkpt lat="44.5427938" lon="8.7755906"><ele>798.0</ele><time>2026-03-21T15:03:03.113Z</time></trkpt><trkpt lat="44.5427574" lon="8.7757122"><ele>799.8333333333334</ele><time>2026-03-21T15:03:04.112Z</time></trkpt><trkpt lat="44.5427287" lon="8.7758155"><ele>801.6666666666667</ele><time>2026-03-21T15:03:05.113Z</time></trkpt><trkpt lat="44.5427148" lon="8.7759335"><ele>803.5</ele><time>2026-03-21T15:03:06.113Z</time></trkpt><trkpt lat="44.5427195" lon="8.776055"><ele>805.3333333333334</ele><time>2026-03-21T15:03:07.112Z</time></trkpt><trkpt lat="44.5427345" lon="8.7761871"><ele>807.1666666666667</ele><time>2026-03-21T15:03:08.113Z</time></trkpt><trkpt lat="44.5427585" lon="8.7763143"><ele>809.0</ele><time>2026-03-21T15:03:09.113Z</time></trkpt><trkpt lat="44.5427995" lon="8.7764717"><ele>809.0</ele><time>2026-03-21T15:03:10.113Z</time></trkpt><trkpt lat="44.5428238" lon="8.7766272"><ele>809.0</ele><time>2026-03-21T15:03:11.113Z</time></trkpt><trkpt lat="44.5428413" lon="8.7767865"><ele>809.0</ele><time>2026-03-21T15:03:12.113Z</time></trkpt><trkpt lat="44.5428456" lon="8.7769629"><ele>809.0</ele><time>2026-03-21T15:03:13.112Z</time></trkpt><trkpt lat="44.5428393" lon="8.7771459"><ele>808.75</ele><time>2026-03-21T15:03:14.113Z</time></trkpt><trkpt lat="44.5428329" lon="8.7773383"><ele>808.5</ele><time>2026-03-21T15:03:15.112Z</time></trkpt><trkpt lat="44.5428223" lon="8.777526"><ele>808.25</ele><time>2026-03-21T15:03:16.113Z</time></trkpt><trkpt lat="44.5427997" lon="8.7777012"><ele>808.0</ele><time>2026-03-21T15:03:17.112Z</time></trkpt><trkpt lat="44.5427625" lon="8.7778558"><ele>810.25</ele><time>2026-03-21T15:03:18.113Z</time></trkpt><trkpt lat="44.5427132" lon="8.7780078"><ele>812.5</ele><time>2026-03-21T15:03:19.113Z</time></trkpt><trkpt lat="44.5426388" lon="8.778153"><ele>814.75</ele><time>2026-03-21T15:03:20.113Z</time></trkpt><trkpt lat="44.5425571" lon="8.778293"><ele>817.0</ele><time>2026-03-21T15:03:21.113Z</time></trkpt><trkpt lat="44.54247" lon="8.7784387"><ele>819.75</ele><time>2026-03-21T15:03:22.113Z</time></trkpt><trkpt lat="44.5423776" lon="8.7785885"><ele>822.5</ele><time>2026-03-21T15:03:23.113Z</time></trkpt><trkpt lat="44.5422902" lon="8.7787478"><ele>825.25</ele><time>2026-03-21T15:03:24.112Z</time></trkpt><trkpt lat="44.5422013" lon="8.7789138"><ele>828.0</ele><time>2026-03-21T15:03:25.113Z</time></trkpt><trkpt lat="44.5421086" lon="8.7790639"><ele>827.5</ele><time>2026-03-21T15:03:26.112Z</time></trkpt><trkpt lat="44.5420082" lon="8.7791955"><ele>827.0</ele><time>2026-03-21T15:03:27.113Z</time></trkpt><trkpt lat="44.5419108" lon="8.7793134"><ele>826.5</ele><time>2026-03-21T15:03:28.112Z</time></trkpt><trkpt lat="44.5418083" lon="8.7794455"><ele>826.0</ele><time>2026-03-21T15:03:29.112Z</time></trkpt><trkpt lat="44.5416986" lon="8.779559"><ele>826.0</ele><time>2026-03-21T15:03:30.112Z</time></trkpt><trkpt lat="44.5415849" lon="8.7796251"><ele>826.0</ele><time>2026-03-21T15:03:31.112Z</time></trkpt><trkpt lat="44.5414773" lon="8.7796648"><ele>826.0</ele><time>2026-03-21T15:03:32.113Z</time></trkpt><trkpt lat="44.5413764" lon="8.779706"><ele>826.0</ele><time>2026-03-21T15:03:33.112Z</time></trkpt><trkpt lat="44.541285" lon="8.7797615"><ele>826.0</ele><time>2026-03-21T15:03:34.113Z</time></trkpt><trkpt lat="44.5411948" lon="8.7798401"><ele>826.5</ele><time>2026-03-21T15:03:35.112Z</time></trkpt><trkpt lat="44.5411057" lon="8.7799434"><ele>827.0</ele><time>2026-03-21T15:03:36.112Z</time></trkpt><trkpt lat="44.541012" lon="8.7800461"><ele>827.5</ele><time>2026-03-21T15:03:37.113Z</time></trkpt><trkpt lat="44.540901" lon="8.7801439"><ele>828.0</ele><time>2026-03-21T15:03:38.114Z</time></trkpt><trkpt lat="44.540785" lon="8.7802276"><ele>828.0</ele><time>2026-03-21T15:03:39.114Z</time></trkpt><trkpt lat="44.5406733" lon="8.7802844"><ele>828.0</ele><time>2026-03-21T15:03:40.114Z</time></trkpt><trkpt lat="44.5405619" lon="8.7803305"><ele>828.0</ele><time>2026-03-21T15:03:41.117Z</time></trkpt><trkpt lat="44.540453" lon="8.7803909"><ele>828.0</ele><time>2026-03-21T15:03:42.113Z</time></trkpt><trkpt lat="44.5403513" lon="8.7804688"><ele>826.75</ele><time>2026-03-21T15:03:43.113Z</time></trkpt><trkpt lat="44.5402468" lon="8.7805626"><ele>825.5</ele><time>2026-03-21T15:03:44.114Z</time></trkpt><trkpt lat="44.5401303" lon="8.7806563"><ele>824.25</ele><time>2026-03-21T15:03:45.114Z</time></trkpt><trkpt lat="44.5400057" lon="8.7807276"><ele>823.0</ele><time>2026-03-21T15:03:46.114Z</time></trkpt><trkpt lat="44.5398663" lon="8.7807929"><ele>823.0</ele><time>2026-03-21T15:03:47.114Z</time></trkpt><trkpt lat="44.5397183" lon="8.7808535"><ele>823.0</ele><time>2026-03-21T15:03:48.113Z</time></trkpt><trkpt lat="44.5395558" lon="8.780913"><ele>823.0</ele><time>2026-03-21T15:03:49.113Z</time></trkpt><trkpt lat="44.5393923" lon="8.7809767"><ele>827.6666666666666</ele><time>2026-03-21T15:03:50.113Z</time></trkpt><trkpt lat="44.5392215" lon="8.7810358"><ele>832.3333333333333</ele><time>2026-03-21T15:03:51.113Z</time></trkpt><trkpt lat="44.5390426" lon="8.7810953"><ele>837.0</ele><time>2026-03-21T15:03:52.113Z</time></trkpt><trkpt lat="44.5388726" lon="8.7811561"><ele>839.6666666666667</ele><time>2026-03-21T15:03:53.114Z</time></trkpt><trkpt lat="44.538707" lon="8.7812133"><ele>842.3333333333334</ele><time>2026-03-21T15:03:54.114Z</time></trkpt><trkpt lat="44.5385531" lon="8.7812655"><ele>845.0</ele><time>2026-03-21T15:03:55.114Z</time></trkpt><trkpt lat="44.538414" lon="8.7813098"><ele>845.0</ele><time>2026-03-21T15:03:56.114Z</time></trkpt><trkpt lat="44.5382884" lon="8.7813301"><ele>845.0</ele><time>2026-03-21T15:03:57.113Z</time></trkpt><trkpt lat="44.5381838" lon="8.7813107"><ele>845.0</ele><time>2026-03-21T15:03:58.113Z</time></trkpt><trkpt lat="44.5380981" lon="8.7812397"><ele>845.0</ele><time>2026-03-21T15:03:59.114Z</time></trkpt><trkpt lat="44.5379913" lon="8.7811258"><ele>846.5</ele><time>2026-03-21T15:04:00.113Z</time></trkpt><trkpt lat="44.5378675" lon="8.7809836"><ele>848.0</ele><time>2026-03-21T15:04:01.114Z</time></trkpt><trkpt lat="44.5377618" lon="8.7808532"><ele>849.5</ele><time>2026-03-21T15:04:02.114Z</time></trkpt><trkpt lat="44.5376552" lon="8.7807213"><ele>851.0</ele><time>2026-03-21T15:04:03.113Z</time></trkpt><trkpt lat="44.5375524" lon="8.78059"><ele>851.0</ele><time>2026-03-21T15:04:04.113Z</time></trkpt><trkpt lat="44.5374505" lon="8.780463"><ele>851.0</ele><time>2026-03-21T15:04:05.113Z</time></trkpt><trkpt lat="44.5373528" lon="8.7803412"><ele>851.0</ele><time>2026-03-21T15:04:06.114Z</time></trkpt><trkpt lat="44.5372633" lon="8.7802364"><ele>851.0</ele><time>2026-03-21T15:04:07.114Z</time></trkpt><trkpt lat="44.5371708" lon="8.780129"><ele>853.6666666666667</ele><time>2026-03-21T15:04:08.114Z</time></trkpt><trkpt lat="44.5370598" lon="8.7800255"><ele>856.3333333333333</ele><time>2026-03-21T15:04:09.113Z</time></trkpt><trkpt lat="44.5369248" lon="8.7799193"><ele>859.0</ele><time>2026-03-21T15:04:10.113Z</time></trkpt><trkpt lat="44.5367717" lon="8.7798073"><ele>859.0</ele><time>2026-03-21T15:04:11.113Z</time></trkpt><trkpt lat="44.5366122" lon="8.7796849"><ele>859.0</ele><time>2026-03-21T15:04:12.114Z</time></trkpt><trkpt lat="44.5364401" lon="8.7795477"><ele>859.0</ele><time>2026-03-21T15:04:13.114Z</time></trkpt><trkpt lat="44.5362576" lon="8.7794038"><ele>859.0</ele><time>2026-03-21T15:04:14.114Z</time></trkpt><trkpt lat="44.5360737" lon="8.7792557"><ele>859.0</ele><time>2026-03-21T15:04:15.113Z</time></trkpt><trkpt lat="44.5359062" lon="8.7791145"><ele>859.0</ele><time>2026-03-21T15:04:16.114Z</time></trkpt><trkpt lat="44.535755" lon="8.7789785"><ele>859.0</ele><time>2026-03-21T15:04:17.113Z</time></trkpt><trkpt lat="44.5356064" lon="8.7788509"><ele>859.0</ele><time>2026-03-21T15:04:18.114Z</time></trkpt><trkpt lat="44.5354729" lon="8.7787296"><ele>859.0</ele><time>2026-03-21T15:04:19.114Z</time></trkpt><trkpt lat="44.5353433" lon="8.7786147"><ele>860.25</ele><time>2026-03-21T15:04:20.113Z</time></trkpt><trkpt lat="44.5352108" lon="8.7785032"><ele>861.5</ele><time>2026-03-21T15:04:21.113Z</time></trkpt><trkpt lat="44.5350858" lon="8.7783975"><ele>862.75</ele><time>2026-03-21T15:04:22.113Z</time></trkpt><trkpt lat="44.5349744" lon="8.7783038"><ele>864.0</ele><time>2026-03-21T15:04:23.113Z</time></trkpt><trkpt lat="44.5348601" lon="8.7782124"><ele>864.0</ele><time>2026-03-21T15:04:24.113Z</time></trkpt><trkpt lat="44.5347457" lon="8.7781182"><ele>864.0</ele><time>2026-03-21T15:04:25.114Z</time></trkpt><trkpt lat="44.5346242" lon="8.7780207"><ele>864.0</ele><time>2026-03-21T15:04:26.113Z</time></trkpt><trkpt lat="44.534491" lon="8.7779137"><ele>864.0</ele><time>2026-03-21T15:04:27.113Z</time></trkpt><trkpt lat="44.5343537" lon="8.7778025"><ele>865.6666666666667</ele><time>2026-03-21T15:04:28.114Z</time></trkpt><trkpt lat="44.534212" lon="8.7776834"><ele>867.3333333333334</ele><time>2026-03-21T15:04:29.113Z</time></trkpt><trkpt lat="44.534065" lon="8.7775604"><ele>869.0</ele><time>2026-03-21T15:04:30.113Z</time></trkpt><trkpt lat="44.5339147" lon="8.7774373"><ele>869.0</ele><time>2026-03-21T15:04:31.114Z</time></trkpt><trkpt lat="44.5337725" lon="8.7773127"><ele>869.0</ele><time>2026-03-21T15:04:32.114Z</time></trkpt><trkpt lat="44.5336417" lon="8.7771981"><ele>869.0</ele><time>2026-03-21T15:04:33.114Z</time></trkpt><trkpt lat="44.5335328" lon="8.7771003"><ele>869.1666666666667</ele><time>2026-03-21T15:04:34.114Z</time></trkpt><trkpt lat="44.5334443" lon="8.7770265"><ele>869.3333333333334</ele><time>2026-03-21T15:04:35.114Z</time></trkpt><trkpt lat="44.5333813" lon="8.7769707"><ele>869.5</ele><time>2026-03-21T15:04:36.113Z</time></trkpt><trkpt lat="44.5333059" lon="8.7769094"><ele>869.6666666666667</ele><time>2026-03-21T15:04:38.113Z</time></trkpt><trkpt lat="44.5332354" lon="8.7768421"><ele>869.8333333333334</ele><time>2026-03-21T15:04:40.114Z</time></trkpt><trkpt lat="44.5331646" lon="8.7768122"><ele>870.0</ele><time>2026-03-21T15:04:43.114Z</time></trkpt><trkpt lat="44.5332107" lon="8.7768943"><ele>872.0</ele><time>2026-03-21T15:04:47.114Z</time></trkpt><trkpt lat="44.5333006" lon="8.7769478"><ele>874.0</ele><time>2026-03-21T15:04:49.114Z</time></trkpt><trkpt lat="44.5333792" lon="8.7770066"><ele>876.0</ele><time>2026-03-21T15:04:51.113Z</time></trkpt><trkpt lat="44.5334472" lon="8.7769958"><ele>878.0</ele><time>2026-03-21T15:04:53.113Z</time></trkpt><trkpt lat="44.5335154" lon="8.7769261"><ele>880.0</ele><time>2026-03-21T15:05:00.113Z</time></trkpt><trkpt lat="44.5335936" lon="8.7769043"><ele>882.0</ele><time>2026-03-21T15:05:02.113Z</time></trkpt><trkpt lat="44.5336895" lon="8.7768579"><ele>878.2</ele><time>2026-03-21T15:05:04.114Z</time></trkpt><trkpt lat="44.5337948" lon="8.7768228"><ele>874.4000000000001</ele><time>2026-03-21T15:05:06.113Z</time></trkpt><trkpt lat="44.5339275" lon="8.7767796"><ele>870.5999999999999</ele><time>2026-03-21T15:05:08.113Z</time></trkpt><trkpt lat="44.5340033" lon="8.7767542"><ele>866.8</ele><time>2026-03-21T15:05:09.114Z</time></trkpt><trkpt lat="44.5340768" lon="8.7767268"><ele>863.0</ele><time>2026-03-21T15:05:10.113Z</time></trkpt><trkpt lat="44.534147" lon="8.7767077"><ele>863.0</ele><time>2026-03-21T15:05:11.113Z</time></trkpt><trkpt lat="44.5342172" lon="8.7766941"><ele>863.0</ele><time>2026-03-21T15:05:12.113Z</time></trkpt><trkpt lat="44.5343228" lon="8.7766143"><ele>863.0</ele><time>2026-03-21T15:05:14.113Z</time></trkpt><trkpt lat="44.5343954" lon="8.7764892"><ele>863.0</ele><time>2026-03-21T15:05:16.113Z</time></trkpt><trkpt lat="44.5344115" lon="8.7763676"><ele>863.0</ele><time>2026-03-21T15:05:18.113Z</time></trkpt><trkpt lat="44.5343704" lon="8.7762569"><ele>863.0000000000001</ele><time>2026-03-21T15:05:20.114Z</time></trkpt><trkpt lat="44.5343254" lon="8.7761891"><ele>863.0</ele><time>2026-03-21T15:05:21.114Z</time></trkpt><trkpt lat="44.5342718" lon="8.7761413"><ele>863.0</ele><time>2026-03-21T15:05:22.113Z</time></trkpt><trkpt lat="44.5341997" lon="8.7760977"><ele>863.0</ele><time>2026-03-21T15:05:23.114Z</time></trkpt><trkpt lat="44.534114" lon="8.7760598"><ele>863.0000000000001</ele><time>2026-03-21T15:05:24.114Z</time></trkpt><trkpt lat="44.5340343" lon="8.7760174"><ele>863.0</ele><time>2026-03-21T15:05:25.114Z</time></trkpt><trkpt lat="44.5339491" lon="8.7759679"><ele>862.5999999999999</ele><time>2026-03-21T15:05:26.113Z</time></trkpt><trkpt lat="44.5338736" lon="8.7759263"><ele>862.1999999999999</ele><time>2026-03-21T15:05:27.114Z</time></trkpt><trkpt lat="44.5337897" lon="8.7758533"><ele>861.8</ele><time>2026-03-21T15:05:28.114Z</time></trkpt><trkpt lat="44.5336705" lon="8.77576"><ele>861.4</ele><time>2026-03-21T15:05:29.113Z</time></trkpt><trkpt lat="44.5335619" lon="8.7756798"><ele>861.0</ele><time>2026-03-21T15:05:30.114Z</time></trkpt><trkpt lat="44.5334619" lon="8.7756105"><ele>861.0</ele><time>2026-03-21T15:05:31.114Z</time></trkpt><trkpt lat="44.5333634" lon="8.7755541"><ele>860.9999999999999</ele><time>2026-03-21T15:05:32.114Z</time></trkpt><trkpt lat="44.5332634" lon="8.7755076"><ele>860.9999999999999</ele><time>2026-03-21T15:05:33.113Z</time></trkpt><trkpt lat="44.5331622" lon="8.775468"><ele>861.0</ele><time>2026-03-21T15:05:34.114Z</time></trkpt><trkpt lat="44.5330681" lon="8.7754348"><ele>861.0</ele><time>2026-03-21T15:05:35.113Z</time></trkpt><trkpt lat="44.5329922" lon="8.775387"><ele>861.0</ele><time>2026-03-21T15:05:36.113Z</time></trkpt><trkpt lat="44.5329167" lon="8.775336"><ele>860.9999999999999</ele><time>2026-03-21T15:05:37.114Z</time></trkpt><trkpt lat="44.5328223" lon="8.7752477"><ele>860.9999999999999</ele><time>2026-03-21T15:05:39.114Z</time></trkpt><trkpt lat="44.5327465" lon="8.7751565"><ele>861.0</ele><time>2026-03-21T15:05:41.113Z</time></trkpt><trkpt lat="44.5326655" lon="8.7750624"><ele>861.0</ele><time>2026-03-21T15:05:43.113Z</time></trkpt><trkpt lat="44.5325533" lon="8.7749712"><ele>859.4</ele><time>2026-03-21T15:05:45.114Z</time></trkpt><trkpt lat="44.5325023" lon="8.7749003"><ele>857.8</ele><time>2026-03-21T15:05:46.114Z</time></trkpt><trkpt lat="44.5324487" lon="8.7748226"><ele>856.1999999999999</ele><time>2026-03-21T15:05:47.114Z</time></trkpt><trkpt lat="44.5324007" lon="8.7747537"><ele>854.5999999999999</ele><time>2026-03-21T15:05:48.113Z</time></trkpt><trkpt lat="44.5323265" lon="8.7746293"><ele>853.0</ele><time>2026-03-21T15:05:50.113Z</time></trkpt><trkpt lat="44.5322694" lon="8.774471"><ele>852.9999999999999</ele><time>2026-03-21T15:05:52.113Z</time></trkpt><trkpt lat="44.5322458" lon="8.7743703"><ele>853.0</ele><time>2026-03-21T15:05:53.113Z</time></trkpt><trkpt lat="44.5322236" lon="8.774277"><ele>853.0</ele><time>2026-03-21T15:05:54.113Z</time></trkpt><trkpt lat="44.5321993" lon="8.774181"><ele>853.0</ele><time>2026-03-21T15:05:55.114Z</time></trkpt><trkpt lat="44.5321684" lon="8.7741023"><ele>852.9999999999999</ele><time>2026-03-21T15:05:56.114Z</time></trkpt><trkpt lat="44.5321208" lon="8.7739666"><ele>853.0</ele><time>2026-03-21T15:05:58.113Z</time></trkpt><trkpt lat="44.5320862" lon="8.7738239"><ele>850.8</ele><time>2026-03-21T15:06:00.114Z</time></trkpt><trkpt lat="44.532053" lon="8.773674"><ele>848.5999999999999</ele><time>2026-03-21T15:06:02.113Z</time></trkpt><trkpt lat="44.5320203" lon="8.7735871"><ele>846.4000000000001</ele><time>2026-03-21T15:06:04.113Z</time></trkpt><trkpt lat="44.5319654" lon="8.773486"><ele>844.2</ele><time>2026-03-21T15:06:20.114Z</time></trkpt><trkpt lat="44.5318998" lon="8.773347"><ele>842.0</ele><time>2026-03-21T15:06:22.113Z</time></trkpt><trkpt lat="44.5318509" lon="8.7732834"><ele>841.5000000000001</ele><time>2026-03-21T15:06:23.113Z</time></trkpt><trkpt lat="44.531791" lon="8.7732211"><ele>841.0</ele><time>2026-03-21T15:06:24.113Z</time></trkpt><trkpt lat="44.5317332" lon="8.7731368"><ele>840.5</ele><time>2026-03-21T15:06:25.114Z</time></trkpt><trkpt lat="44.531668" lon="8.773042"><ele>840.0</ele><time>2026-03-21T15:06:26.114Z</time></trkpt><trkpt lat="44.5316123" lon="8.7729449"><ele>839.5000000000001</ele><time>2026-03-21T15:06:27.114Z</time></trkpt><trkpt lat="44.5315668" lon="8.7728321"><ele>839.0</ele><time>2026-03-21T15:06:28.113Z</time></trkpt><trkpt lat="44.5315355" lon="8.7727118"><ele>839.6666666666667</ele><time>2026-03-21T15:06:29.114Z</time></trkpt><trkpt lat="44.5315041" lon="8.7726051"><ele>840.3333333333334</ele><time>2026-03-21T15:06:30.114Z</time></trkpt><trkpt lat="44.531466" lon="8.7725149"><ele>841.0</ele><time>2026-03-21T15:06:31.113Z</time></trkpt><trkpt lat="44.531412" lon="8.7724469"><ele>841.6666666666667</ele><time>2026-03-21T15:06:32.113Z</time></trkpt><trkpt lat="44.53137" lon="8.7723802"><ele>842.3333333333334</ele><time>2026-03-21T15:06:33.113Z</time></trkpt><trkpt lat="44.5312671" lon="8.7723586"><ele>843.0</ele><time>2026-03-21T15:06:34.114Z</time></trkpt><trkpt lat="44.531202" lon="8.7723134"><ele>841.4</ele><time>2026-03-21T15:06:35.114Z</time></trkpt><trkpt lat="44.5311311" lon="8.7722118"><ele>839.8</ele><time>2026-03-21T15:06:36.113Z</time></trkpt><trkpt lat="44.5310611" lon="8.7721189"><ele>838.2</ele><time>2026-03-21T15:06:37.114Z</time></trkpt><trkpt lat="44.5309866" lon="8.7720607"><ele>836.6</ele><time>2026-03-21T15:06:38.113Z</time></trkpt><trkpt lat="44.5309015" lon="8.7720251"><ele>835.0</ele><time>2026-03-21T15:06:39.113Z</time></trkpt><trkpt lat="44.5308168" lon="8.772009"><ele>834.9999999999999</ele><time>2026-03-21T15:06:40.113Z</time></trkpt><trkpt lat="44.5307361" lon="8.7720228"><ele>835.0</ele><time>2026-03-21T15:06:41.114Z</time></trkpt><trkpt lat="44.5306481" lon="8.7720283"><ele>835.0</ele><time>2026-03-21T15:06:42.114Z</time></trkpt><trkpt lat="44.530569" lon="8.7720234"><ele>835.0</ele><time>2026-03-21T15:06:43.113Z</time></trkpt><trkpt lat="44.5304934" lon="8.7720169"><ele>834.9999999999999</ele><time>2026-03-21T15:06:44.114Z</time></trkpt><trkpt lat="44.5304061" lon="8.7720257"><ele>835.0</ele><time>2026-03-21T15:06:45.114Z</time></trkpt><trkpt lat="44.5303262" lon="8.7720434"><ele>833.6666666666666</ele><time>2026-03-21T15:06:46.113Z</time></trkpt><trkpt lat="44.5302123" lon="8.7720406"><ele>832.3333333333333</ele><time>2026-03-21T15:06:48.113Z</time></trkpt><trkpt lat="44.5301403" lon="8.771976"><ele>831.0</ele><time>2026-03-21T15:06:50.113Z</time></trkpt><trkpt lat="44.5301312" lon="8.7718766"><ele>829.6666666666667</ele><time>2026-03-21T15:06:52.114Z</time></trkpt><trkpt lat="44.5301777" lon="8.7717474"><ele>828.3333333333334</ele><time>2026-03-21T15:06:54.114Z</time></trkpt><trkpt lat="44.5302164" lon="8.771676"><ele>827.0</ele><time>2026-03-21T15:06:55.113Z</time></trkpt><trkpt lat="44.5302672" lon="8.771615"><ele>827.0000000000001</ele><time>2026-03-21T15:06:56.114Z</time></trkpt><trkpt lat="44.5303208" lon="8.7715548"><ele>827.0</ele><time>2026-03-21T15:06:57.113Z</time></trkpt><trkpt lat="44.5303708" lon="8.771475"><ele>827.0</ele><time>2026-03-21T15:06:58.114Z</time></trkpt><trkpt lat="44.530419" lon="8.7714115"><ele>827.0</ele><time>2026-03-21T15:06:59.114Z</time></trkpt><trkpt lat="44.5304522" lon="8.771332"><ele>827.0000000000001</ele><time>2026-03-21T15:07:00.114Z</time></trkpt><trkpt lat="44.5305277" lon="8.7711801"><ele>827.0</ele><time>2026-03-21T15:07:02.114Z</time></trkpt><trkpt lat="44.5305702" lon="8.7710417"><ele>826.8333333333334</ele><time>2026-03-21T15:07:04.114Z</time></trkpt><trkpt lat="44.5305902" lon="8.7709186"><ele>826.6666666666667</ele><time>2026-03-21T15:07:06.113Z</time></trkpt><trkpt lat="44.5306296" lon="8.7708113"><ele>826.5</ele><time>2026-03-21T15:07:08.113Z</time></trkpt><trkpt lat="44.530668" lon="8.7706866"><ele>826.3333333333333</ele><time>2026-03-21T15:07:10.113Z</time></trkpt><trkpt lat="44.5307109" lon="8.770573"><ele>826.1666666666666</ele><time>2026-03-21T15:07:12.114Z</time></trkpt><trkpt lat="44.5307536" lon="8.7705016"><ele>826.0</ele><time>2026-03-21T15:07:14.113Z</time></trkpt><trkpt lat="44.5308273" lon="8.7704081"><ele>825.9999999999999</ele><time>2026-03-21T15:07:16.114Z</time></trkpt><trkpt lat="44.5308963" lon="8.7702955"><ele>826.0</ele><time>2026-03-21T15:07:18.113Z</time></trkpt><trkpt lat="44.5309042" lon="8.770188"><ele>826.0</ele><time>2026-03-21T15:07:20.113Z</time></trkpt><trkpt lat="44.5308531" lon="8.7701225"><ele>826.0</ele><time>2026-03-21T15:07:22.113Z</time></trkpt><trkpt lat="44.5307867" lon="8.7700771"><ele>825.9999999999999</ele><time>2026-03-21T15:07:24.113Z</time></trkpt><trkpt lat="44.5307153" lon="8.769996"><ele>826.0</ele><time>2026-03-21T15:07:26.114Z</time></trkpt><trkpt lat="44.5306823" lon="8.7698896"><ele>823.8333333333333</ele><time>2026-03-21T15:07:28.114Z</time></trkpt><trkpt lat="44.5307024" lon="8.7697961"><ele>821.6666666666666</ele><time>2026-03-21T15:07:30.114Z</time></trkpt><trkpt lat="44.5307383" lon="8.7697229"><ele>819.5</ele><time>2026-03-21T15:07:32.114Z</time></trkpt><trkpt lat="44.5307862" lon="8.7696491"><ele>817.3333333333333</ele><time>2026-03-21T15:07:35.113Z</time></trkpt><trkpt lat="44.5308368" lon="8.7695867"><ele>815.1666666666666</ele><time>2026-03-21T15:07:37.113Z</time></trkpt><trkpt lat="44.5309062" lon="8.7695064"><ele>813.0</ele><time>2026-03-21T15:07:39.113Z</time></trkpt><trkpt lat="44.5309739" lon="8.7694005"><ele>811.0</ele><time>2026-03-21T15:07:41.114Z</time></trkpt><trkpt lat="44.5310359" lon="8.7692689"><ele>809.0</ele><time>2026-03-21T15:07:43.113Z</time></trkpt><trkpt lat="44.531072" lon="8.7691821"><ele>807.0</ele><time>2026-03-21T15:07:44.114Z</time></trkpt><trkpt lat="44.5311077" lon="8.7691025"><ele>805.0</ele><time>2026-03-21T15:07:45.113Z</time></trkpt><trkpt lat="44.5311381" lon="8.7690206"><ele>803.0</ele><time>2026-03-21T15:07:46.114Z</time></trkpt><trkpt lat="44.53117" lon="8.7689387"><ele>801.0</ele><time>2026-03-21T15:07:47.114Z</time></trkpt><trkpt lat="44.5311945" lon="8.7688565"><ele>799.0</ele><time>2026-03-21T15:07:48.113Z</time></trkpt><trkpt lat="44.5312122" lon="8.7686878"><ele>797.6</ele><time>2026-03-21T15:07:50.114Z</time></trkpt><trkpt lat="44.5312573" lon="8.768528"><ele>796.2</ele><time>2026-03-21T15:07:52.113Z</time></trkpt><trkpt lat="44.5313155" lon="8.7683957"><ele>794.8000000000001</ele><time>2026-03-21T15:07:54.113Z</time></trkpt><trkpt lat="44.5313628" lon="8.7682569"><ele>793.4000000000001</ele><time>2026-03-21T15:07:56.114Z</time></trkpt><trkpt lat="44.5313984" lon="8.768119"><ele>792.0</ele><time>2026-03-21T15:07:58.113Z</time></trkpt><trkpt lat="44.5314043" lon="8.7679808"><ele>791.8</ele><time>2026-03-21T15:08:00.113Z</time></trkpt><trkpt lat="44.531419" lon="8.7678358"><ele>791.6</ele><time>2026-03-21T15:08:02.113Z</time></trkpt><trkpt lat="44.5314668" lon="8.7677182"><ele>791.4</ele><time>2026-03-21T15:08:04.113Z</time></trkpt><trkpt lat="44.5315508" lon="8.7676904"><ele>791.1999999999999</ele><time>2026-03-21T15:08:06.114Z</time></trkpt><trkpt lat="44.5316439" lon="8.767708"><ele>791.0</ele><time>2026-03-21T15:08:08.114Z</time></trkpt><trkpt lat="44.5317237" lon="8.767687"><ele>791.0</ele><time>2026-03-21T15:08:09.113Z</time></trkpt><trkpt lat="44.5318275" lon="8.7676864"><ele>791.0</ele><time>2026-03-21T15:08:11.114Z</time></trkpt><trkpt lat="44.5319265" lon="8.7677414"><ele>791.0</ele><time>2026-03-21T15:08:13.114Z</time></trkpt><trkpt lat="44.5320196" lon="8.7677478"><ele>791.0</ele><time>2026-03-21T15:08:15.113Z</time></trkpt><trkpt lat="44.532086" lon="8.7676478"><ele>791.0</ele><time>2026-03-21T15:08:17.113Z</time></trkpt><trkpt lat="44.5321011" lon="8.7675168"><ele>788.4</ele><time>2026-03-21T15:08:19.113Z</time></trkpt><trkpt lat="44.5320819" lon="8.7673971"><ele>785.8</ele><time>2026-03-21T15:08:21.113Z</time></trkpt><trkpt lat="44.5320161" lon="8.7673086"><ele>783.1999999999999</ele><time>2026-03-21T15:08:23.114Z</time></trkpt><trkpt lat="44.5319358" lon="8.7672386"><ele>780.5999999999999</ele><time>2026-03-21T15:08:25.113Z</time></trkpt><trkpt lat="44.5318454" lon="8.7671367"><ele>778.0</ele><time>2026-03-21T15:08:27.113Z</time></trkpt><trkpt lat="44.5317433" lon="8.7670819"><ele>778.0</ele><time>2026-03-21T15:08:29.113Z</time></trkpt><trkpt lat="44.5316468" lon="8.7670526"><ele>778.0</ele><time>2026-03-21T15:08:31.114Z</time></trkpt><trkpt lat="44.5315539" lon="8.7670366"><ele>778.0</ele><time>2026-03-21T15:08:33.113Z</time></trkpt><trkpt lat="44.5314595" lon="8.7670022"><ele>778.0</ele><time>2026-03-21T15:08:35.113Z</time></trkpt><trkpt lat="44.5313833" lon="8.7669408"><ele>778.0</ele><time>2026-03-21T15:08:37.114Z</time></trkpt><trkpt lat="44.5313162" lon="8.7668844"><ele>775.4999999999999</ele><time>2026-03-21T15:08:39.113Z</time></trkpt><trkpt lat="44.5312261" lon="8.7668408"><ele>773.0</ele><time>2026-03-21T15:08:41.114Z</time></trkpt><trkpt lat="44.5311697" lon="8.7667449"><ele>770.5</ele><time>2026-03-21T15:08:43.114Z</time></trkpt><trkpt lat="44.5311833" lon="8.7666492"><ele>768.0</ele><time>2026-03-21T15:08:45.113Z</time></trkpt><trkpt lat="44.5312662" lon="8.7665698"><ele>765.5</ele><time>2026-03-21T15:08:47.113Z</time></trkpt><trkpt lat="44.5313259" lon="8.7665406"><ele>763.0</ele><time>2026-03-21T15:08:48.114Z</time></trkpt><trkpt lat="44.5313912" lon="8.7665165"><ele>763.0</ele><time>2026-03-21T15:08:49.113Z</time></trkpt><trkpt lat="44.5314725" lon="8.7664768"><ele>763.0</ele><time>2026-03-21T15:08:51.114Z</time></trkpt><trkpt lat="44.5315297" lon="8.7664168"><ele>763.0</ele><time>2026-03-21T15:09:15.114Z</time></trkpt><trkpt lat="44.5315285" lon="8.7662573"><ele>763.0</ele><time>2026-03-21T15:09:18.114Z</time></trkpt><trkpt lat="44.531517" lon="8.7660739"><ele>763.0</ele><time>2026-03-21T15:09:20.114Z</time></trkpt><trkpt lat="44.5315123" lon="8.765977"><ele>761.8333333333334</ele><time>2026-03-21T15:09:21.113Z</time></trkpt><trkpt lat="44.5314945" lon="8.7658775"><ele>760.6666666666667</ele><time>2026-03-21T15:09:22.113Z</time></trkpt><trkpt lat="44.531481" lon="8.7657625"><ele>759.5</ele><time>2026-03-21T15:09:23.114Z</time></trkpt><trkpt lat="44.5314716" lon="8.7656462"><ele>758.3333333333334</ele><time>2026-03-21T15:09:24.114Z</time></trkpt><trkpt lat="44.5314641" lon="8.7655317"><ele>757.1666666666666</ele><time>2026-03-21T15:09:25.113Z</time></trkpt><trkpt lat="44.5314519" lon="8.7654219"><ele>756.0</ele><time>2026-03-21T15:09:26.113Z</time></trkpt><trkpt lat="44.531437" lon="8.7653314"><ele>756.0</ele><time>2026-03-21T15:09:27.114Z</time></trkpt><trkpt lat="44.5314148" lon="8.7652397"><ele>756.0</ele><time>2026-03-21T15:09:28.113Z</time></trkpt><trkpt lat="44.531381" lon="8.7651594"><ele>756.0</ele><time>2026-03-21T15:09:29.114Z</time></trkpt><trkpt lat="44.5312804" lon="8.7650204"><ele>756.0</ele><time>2026-03-21T15:09:31.114Z</time></trkpt><trkpt lat="44.5312243" lon="8.764943"><ele>756.0</ele><time>2026-03-21T15:09:32.113Z</time></trkpt><trkpt lat="44.5311601" lon="8.7648643"><ele>756.0</ele><time>2026-03-21T15:09:33.114Z</time></trkpt><trkpt lat="44.5310973" lon="8.7647895"><ele>756.6666666666666</ele><time>2026-03-21T15:09:34.114Z</time></trkpt><trkpt lat="44.5310261" lon="8.7647263"><ele>757.3333333333334</ele><time>2026-03-21T15:09:35.114Z</time></trkpt><trkpt lat="44.5309479" lon="8.7646444"><ele>758.0</ele><time>2026-03-21T15:09:36.114Z</time></trkpt><trkpt lat="44.5308833" lon="8.7645664"><ele>758.6666666666667</ele><time>2026-03-21T15:09:37.113Z</time></trkpt><trkpt lat="44.5308126" lon="8.764479"><ele>759.3333333333334</ele><time>2026-03-21T15:09:38.113Z</time></trkpt><trkpt lat="44.5307537" lon="8.7643872"><ele>760.0</ele><time>2026-03-21T15:09:39.113Z</time></trkpt><trkpt lat="44.5306899" lon="8.7642982"><ele>760.0</ele><time>2026-03-21T15:09:40.113Z</time></trkpt><trkpt lat="44.5306297" lon="8.7642226"><ele>760.0</ele><time>2026-03-21T15:09:41.113Z</time></trkpt><trkpt lat="44.5305833" lon="8.764139"><ele>760.0</ele><time>2026-03-21T15:09:42.113Z</time></trkpt><trkpt lat="44.5305325" lon="8.764069"><ele>760.0</ele><time>2026-03-21T15:09:43.114Z</time></trkpt><trkpt lat="44.5304784" lon="8.7640072"><ele>760.0</ele><time>2026-03-21T15:09:44.114Z</time></trkpt><trkpt lat="44.5304275" lon="8.7639378"><ele>760.0</ele><time>2026-03-21T15:09:45.113Z</time></trkpt><trkpt lat="44.5303804" lon="8.7638558"><ele>760.0</ele><time>2026-03-21T15:09:46.114Z</time></trkpt><trkpt lat="44.5303361" lon="8.763768"><ele>759.8333333333334</ele><time>2026-03-21T15:09:47.113Z</time></trkpt><trkpt lat="44.530291" lon="8.7636765"><ele>759.6666666666667</ele><time>2026-03-21T15:09:48.114Z</time></trkpt><trkpt lat="44.5302465" lon="8.7635756"><ele>759.5</ele><time>2026-03-21T15:09:49.113Z</time></trkpt><trkpt lat="44.5302055" lon="8.763465"><ele>759.3333333333334</ele><time>2026-03-21T15:09:50.113Z</time></trkpt><trkpt lat="44.5301677" lon="8.7633514"><ele>759.1666666666666</ele><time>2026-03-21T15:09:51.113Z</time></trkpt><trkpt lat="44.5301316" lon="8.7632385"><ele>759.0</ele><time>2026-03-21T15:09:52.114Z</time></trkpt><trkpt lat="44.5300934" lon="8.7631225"><ele>759.0</ele><time>2026-03-21T15:09:53.114Z</time></trkpt><trkpt lat="44.5300681" lon="8.7630057"><ele>759.0</ele><time>2026-03-21T15:09:54.113Z</time></trkpt><trkpt lat="44.5300573" lon="8.7628866"><ele>759.0</ele><time>2026-03-21T15:09:55.114Z</time></trkpt><trkpt lat="44.5300524" lon="8.7627677"><ele>759.0</ele><time>2026-03-21T15:09:56.114Z</time></trkpt><trkpt lat="44.5300575" lon="8.7626495"><ele>759.0</ele><time>2026-03-21T15:09:57.114Z</time></trkpt><trkpt lat="44.5300646" lon="8.7625291"><ele>759.0</ele><time>2026-03-21T15:09:58.113Z</time></trkpt><trkpt lat="44.5300715" lon="8.7624121"><ele>760.1666666666666</ele><time>2026-03-21T15:09:59.113Z</time></trkpt><trkpt lat="44.5300863" lon="8.7623008"><ele>761.3333333333334</ele><time>2026-03-21T15:10:00.114Z</time></trkpt><trkpt lat="44.5300939" lon="8.7622005"><ele>762.5</ele><time>2026-03-21T15:10:01.114Z</time></trkpt><trkpt lat="44.5301111" lon="8.7621028"><ele>763.6666666666667</ele><time>2026-03-21T15:10:02.114Z</time></trkpt><trkpt lat="44.5301412" lon="8.7620022"><ele>764.8333333333334</ele><time>2026-03-21T15:10:03.113Z</time></trkpt><trkpt lat="44.5301472" lon="8.7618963"><ele>766.0</ele><time>2026-03-21T15:10:04.113Z</time></trkpt><trkpt lat="44.5301433" lon="8.7617751"><ele>767.8333333333334</ele><time>2026-03-21T15:10:05.113Z</time></trkpt><trkpt lat="44.5301387" lon="8.761657"><ele>769.6666666666667</ele><time>2026-03-21T15:10:06.113Z</time></trkpt><trkpt lat="44.5301344" lon="8.7615319"><ele>771.5</ele><time>2026-03-21T15:10:07.113Z</time></trkpt><trkpt lat="44.5301318" lon="8.7614171"><ele>773.3333333333334</ele><time>2026-03-21T15:10:08.114Z</time></trkpt><trkpt lat="44.5301421" lon="8.7612877"><ele>775.1666666666666</ele><time>2026-03-21T15:10:09.114Z</time></trkpt><trkpt lat="44.5301416" lon="8.7611649"><ele>777.0</ele><time>2026-03-21T15:10:10.114Z</time></trkpt><trkpt lat="44.5301482" lon="8.7610544"><ele>778.5</ele><time>2026-03-21T15:10:11.113Z</time></trkpt><trkpt lat="44.5301644" lon="8.7609338"><ele>780.0</ele><time>2026-03-21T15:10:12.114Z</time></trkpt><trkpt lat="44.5301778" lon="8.7608199"><ele>781.5</ele><time>2026-03-21T15:10:13.114Z</time></trkpt><trkpt lat="44.5302014" lon="8.7607162"><ele>783.0</ele><time>2026-03-21T15:10:14.113Z</time></trkpt><trkpt lat="44.5302175" lon="8.7606146"><ele>784.5</ele><time>2026-03-21T15:10:15.113Z</time></trkpt><trkpt lat="44.5302444" lon="8.7605125"><ele>786.0</ele><time>2026-03-21T15:10:16.113Z</time></trkpt><trkpt lat="44.5302711" lon="8.7604107"><ele>786.0</ele><time>2026-03-21T15:10:17.114Z</time></trkpt><trkpt lat="44.5302982" lon="8.7603175"><ele>786.0</ele><time>2026-03-21T15:10:18.114Z</time></trkpt><trkpt lat="44.530322" lon="8.7602266"><ele>786.0</ele><time>2026-03-21T15:10:19.114Z</time></trkpt><trkpt lat="44.5303392" lon="8.7601405"><ele>786.0</ele><time>2026-03-21T15:10:20.113Z</time></trkpt><trkpt lat="44.5303507" lon="8.7600524"><ele>786.0</ele><time>2026-03-21T15:10:21.113Z</time></trkpt><trkpt lat="44.5303893" lon="8.7598816"><ele>786.0</ele><time>2026-03-21T15:10:23.113Z</time></trkpt><trkpt lat="44.530408" lon="8.7597924"><ele>785.3333333333334</ele><time>2026-03-21T15:10:24.113Z</time></trkpt><trkpt lat="44.5304241" lon="8.7596373"><ele>784.6666666666667</ele><time>2026-03-21T15:10:26.113Z</time></trkpt><trkpt lat="44.5304243" lon="8.7595489"><ele>784.0</ele><time>2026-03-21T15:10:27.113Z</time></trkpt><trkpt lat="44.5304104" lon="8.7594514"><ele>783.3333333333334</ele><time>2026-03-21T15:10:28.114Z</time></trkpt><trkpt lat="44.5303934" lon="8.7593633"><ele>782.6666666666667</ele><time>2026-03-21T15:10:29.114Z</time></trkpt><trkpt lat="44.5303715" lon="8.759276"><ele>782.0</ele><time>2026-03-21T15:10:30.114Z</time></trkpt><trkpt lat="44.5303259" lon="8.7591803"><ele>780.9999999999999</ele><time>2026-03-21T15:10:31.114Z</time></trkpt><trkpt lat="44.5303061" lon="8.7590848"><ele>780.0</ele><time>2026-03-21T15:10:32.114Z</time></trkpt><trkpt lat="44.5302857" lon="8.7589836"><ele>779.0</ele><time>2026-03-21T15:10:33.113Z</time></trkpt><trkpt lat="44.5302782" lon="8.758885"><ele>778.0</ele><time>2026-03-21T15:10:34.114Z</time></trkpt><trkpt lat="44.5302534" lon="8.7587932"><ele>777.0</ele><time>2026-03-21T15:10:35.114Z</time></trkpt><trkpt lat="44.5302253" lon="8.7587022"><ele>775.9999999999999</ele><time>2026-03-21T15:10:36.114Z</time></trkpt><trkpt lat="44.5301757" lon="8.7586054"><ele>775.0</ele><time>2026-03-21T15:10:37.113Z</time></trkpt><trkpt lat="44.5301177" lon="8.7585084"><ele>774.8</ele><time>2026-03-21T15:10:38.114Z</time></trkpt><trkpt lat="44.5300622" lon="8.7584092"><ele>774.6</ele><time>2026-03-21T15:10:39.114Z</time></trkpt><trkpt lat="44.5300049" lon="8.7582962"><ele>774.4000000000001</ele><time>2026-03-21T15:10:40.113Z</time></trkpt><trkpt lat="44.5299449" lon="8.7581823"><ele>774.2</ele><time>2026-03-21T15:10:41.113Z</time></trkpt><trkpt lat="44.5298825" lon="8.75807"><ele>774.0</ele><time>2026-03-21T15:10:42.113Z</time></trkpt><trkpt lat="44.5298268" lon="8.7579591"><ele>774.0</ele><time>2026-03-21T15:10:43.114Z</time></trkpt><trkpt lat="44.5297701" lon="8.7578522"><ele>774.0</ele><time>2026-03-21T15:10:44.113Z</time></trkpt><trkpt lat="44.5297085" lon="8.7577502"><ele>774.0</ele><time>2026-03-21T15:10:45.114Z</time></trkpt><trkpt lat="44.5296448" lon="8.7576546"><ele>774.0</ele><time>2026-03-21T15:10:46.114Z</time></trkpt><trkpt lat="44.5295896" lon="8.7575614"><ele>774.0</ele><time>2026-03-21T15:10:47.114Z</time></trkpt><trkpt lat="44.5295375" lon="8.7574766"><ele>774.1666666666666</ele><time>2026-03-21T15:10:48.114Z</time></trkpt><trkpt lat="44.529489" lon="8.7574012"><ele>774.3333333333333</ele><time>2026-03-21T15:10:49.113Z</time></trkpt><trkpt lat="44.5294433" lon="8.7573354"><ele>774.5</ele><time>2026-03-21T15:10:50.114Z</time></trkpt><trkpt lat="44.5293526" lon="8.7572474"><ele>774.6666666666666</ele><time>2026-03-21T15:10:52.113Z</time></trkpt><trkpt lat="44.529294" lon="8.7571835"><ele>774.8333333333333</ele><time>2026-03-21T15:10:54.114Z</time></trkpt><trkpt lat="44.5292392" lon="8.75709"><ele>775.0</ele><time>2026-03-21T15:11:13.113Z</time></trkpt><trkpt lat="44.5292209" lon="8.7569895"><ele>775.0</ele><time>2026-03-21T15:11:16.114Z</time></trkpt><trkpt lat="44.5291688" lon="8.7569113"><ele>775.0</ele><time>2026-03-21T15:11:18.114Z</time></trkpt><trkpt lat="44.5291196" lon="8.7567796"><ele>775.0</ele><time>2026-03-21T15:11:21.114Z</time></trkpt><trkpt lat="44.5290542" lon="8.7566921"><ele>775.0</ele><time>2026-03-21T15:11:23.113Z</time></trkpt><trkpt lat="44.5290097" lon="8.7565747"><ele>775.0</ele><time>2026-03-21T15:11:25.113Z</time></trkpt><trkpt lat="44.5289612" lon="8.7564101"><ele>775.1666666666666</ele><time>2026-03-21T15:11:27.113Z</time></trkpt><trkpt lat="44.528934" lon="8.7563058"><ele>775.3333333333333</ele><time>2026-03-21T15:11:28.113Z</time></trkpt><trkpt lat="44.5289002" lon="8.7562079"><ele>775.5</ele><time>2026-03-21T15:11:29.114Z</time></trkpt><trkpt lat="44.528864" lon="8.7561201"><ele>775.6666666666667</ele><time>2026-03-21T15:11:30.114Z</time></trkpt><trkpt lat="44.5288242" lon="8.7560375"><ele>775.8333333333334</ele><time>2026-03-21T15:11:31.113Z</time></trkpt><trkpt lat="44.5287851" lon="8.755951"><ele>776.0</ele><time>2026-03-21T15:11:32.113Z</time></trkpt><trkpt lat="44.5286959" lon="8.7558109"><ele>777.0000000000001</ele><time>2026-03-21T15:11:34.114Z</time></trkpt><trkpt lat="44.5285974" lon="8.7557335"><ele>778.0</ele><time>2026-03-21T15:11:36.114Z</time></trkpt><trkpt lat="44.5285312" lon="8.7557261"><ele>779.0</ele><time>2026-03-21T15:11:37.114Z</time></trkpt><trkpt lat="44.5284557" lon="8.7557179"><ele>780.0</ele><time>2026-03-21T15:11:38.114Z</time></trkpt><trkpt lat="44.5283849" lon="8.7557088"><ele>781.0000000000001</ele><time>2026-03-21T15:11:39.113Z</time></trkpt><trkpt lat="44.5282644" lon="8.7556854"><ele>782.0</ele><time>2026-03-21T15:11:41.113Z</time></trkpt><trkpt lat="44.5281413" lon="8.7556833"><ele>782.0</ele><time>2026-03-21T15:11:43.114Z</time></trkpt><trkpt lat="44.5280196" lon="8.7557069"><ele>782.0</ele><time>2026-03-21T15:11:45.113Z</time></trkpt><trkpt lat="44.5279538" lon="8.7557216"><ele>782.0</ele><time>2026-03-21T15:11:46.114Z</time></trkpt><trkpt lat="44.5278561" lon="8.7556477"><ele>782.0</ele><time>2026-03-21T15:11:48.113Z</time></trkpt><trkpt lat="44.5277973" lon="8.7554628"><ele>782.0</ele><time>2026-03-21T15:11:50.113Z</time></trkpt><trkpt lat="44.5277442" lon="8.7553818"><ele>781.5000000000001</ele><time>2026-03-21T15:11:51.114Z</time></trkpt><trkpt lat="44.5276974" lon="8.7553059"><ele>781.0</ele><time>2026-03-21T15:11:52.113Z</time></trkpt><trkpt lat="44.5276426" lon="8.7552164"><ele>780.5</ele><time>2026-03-21T15:11:53.114Z</time></trkpt><trkpt lat="44.5276146" lon="8.7551175"><ele>780.0</ele><time>2026-03-21T15:11:54.113Z</time></trkpt><trkpt lat="44.5275594" lon="8.7550301"><ele>779.5000000000001</ele><time>2026-03-21T15:11:55.114Z</time></trkpt><trkpt lat="44.5275081" lon="8.7549288"><ele>779.0</ele><time>2026-03-21T15:11:56.114Z</time></trkpt><trkpt lat="44.5274772" lon="8.7547722"><ele>779.0</ele><time>2026-03-21T15:11:58.114Z</time></trkpt><trkpt lat="44.5274516" lon="8.7546394"><ele>779.0</ele><time>2026-03-21T15:12:00.114Z</time></trkpt><trkpt lat="44.5274163" lon="8.7545072"><ele>779.0</ele><time>2026-03-21T15:12:02.114Z</time></trkpt><trkpt lat="44.5273786" lon="8.7543745"><ele>779.0</ele><time>2026-03-21T15:12:04.114Z</time></trkpt><trkpt lat="44.5273897" lon="8.754218"><ele>779.0</ele><time>2026-03-21T15:12:06.113Z</time></trkpt><trkpt lat="44.5273908" lon="8.7540538"><ele>778.0000000000001</ele><time>2026-03-21T15:12:08.113Z</time></trkpt><trkpt lat="44.5273703" lon="8.7539594"><ele>777.0</ele><time>2026-03-21T15:12:09.113Z</time></trkpt><trkpt lat="44.5273514" lon="8.7538683"><ele>776.0</ele><time>2026-03-21T15:12:10.113Z</time></trkpt><trkpt lat="44.5273346" lon="8.753772"><ele>775.0</ele><time>2026-03-21T15:12:11.114Z</time></trkpt><trkpt lat="44.5273264" lon="8.7536775"><ele>774.0</ele><time>2026-03-21T15:12:12.114Z</time></trkpt><trkpt lat="44.527322" lon="8.7535818"><ele>773.0000000000001</ele><time>2026-03-21T15:12:13.113Z</time></trkpt><trkpt lat="44.5273182" lon="8.7534936"><ele>772.0</ele><time>2026-03-21T15:12:14.113Z</time></trkpt><trkpt lat="44.5272888" lon="8.7534147"><ele>771.2</ele><time>2026-03-21T15:12:15.113Z</time></trkpt><trkpt lat="44.5272039" lon="8.753299"><ele>770.4000000000001</ele><time>2026-03-21T15:12:17.113Z</time></trkpt><trkpt lat="44.5271538" lon="8.7532433"><ele>769.5999999999999</ele><time>2026-03-21T15:12:18.113Z</time></trkpt><trkpt lat="44.5271114" lon="8.7531192"><ele>768.8</ele><time>2026-03-21T15:12:20.113Z</time></trkpt><trkpt lat="44.5271277" lon="8.7529877"><ele>768.0</ele><time>2026-03-21T15:12:22.113Z</time></trkpt><trkpt lat="44.5271208" lon="8.752826"><ele>768.4</ele><time>2026-03-21T15:12:24.113Z</time></trkpt><trkpt lat="44.5270593" lon="8.7527063"><ele>768.8</ele><time>2026-03-21T15:12:26.114Z</time></trkpt><trkpt lat="44.5270191" lon="8.752633"><ele>769.2</ele><time>2026-03-21T15:12:27.113Z</time></trkpt><trkpt lat="44.5269678" lon="8.7524831"><ele>769.6</ele><time>2026-03-21T15:12:29.114Z</time></trkpt><trkpt lat="44.5268987" lon="8.7523385"><ele>770.0</ele><time>2026-03-21T15:12:31.113Z</time></trkpt><trkpt lat="44.526845" lon="8.7522085"><ele>770.0000000000001</ele><time>2026-03-21T15:12:33.114Z</time></trkpt><trkpt lat="44.5268495" lon="8.7520548"><ele>770.0</ele><time>2026-03-21T15:12:35.113Z</time></trkpt><trkpt lat="44.5268369" lon="8.7519669"><ele>770.0</ele><time>2026-03-21T15:12:36.113Z</time></trkpt><trkpt lat="44.5268154" lon="8.75187"><ele>770.0</ele><time>2026-03-21T15:12:37.114Z</time></trkpt><trkpt lat="44.5267889" lon="8.7517854"><ele>770.0000000000001</ele><time>2026-03-21T15:12:38.113Z</time></trkpt><trkpt lat="44.5267395" lon="8.7516283"><ele>770.0</ele><time>2026-03-21T15:12:40.113Z</time></trkpt><trkpt lat="44.5266679" lon="8.7515159"><ele>768.1666666666667</ele><time>2026-03-21T15:12:42.113Z</time></trkpt><trkpt lat="44.5265981" lon="8.7514336"><ele>766.3333333333334</ele><time>2026-03-21T15:12:44.113Z</time></trkpt><trkpt lat="44.5265233" lon="8.7514461"><ele>764.5</ele><time>2026-03-21T15:14:09.114Z</time></trkpt><trkpt lat="44.5264529" lon="8.751411"><ele>762.6666666666667</ele><time>2026-03-21T15:14:11.113Z</time></trkpt><trkpt lat="44.5263736" lon="8.7512872"><ele>760.8333333333334</ele><time>2026-03-21T15:14:13.114Z</time></trkpt><trkpt lat="44.5263245" lon="8.751211"><ele>759.0</ele><time>2026-03-21T15:14:14.114Z</time></trkpt><trkpt lat="44.5262656" lon="8.751145"><ele>759.8000000000001</ele><time>2026-03-21T15:14:15.114Z</time></trkpt><trkpt lat="44.5261982" lon="8.7510884"><ele>760.6</ele><time>2026-03-21T15:14:16.114Z</time></trkpt><trkpt lat="44.5261319" lon="8.7510273"><ele>761.4</ele><time>2026-03-21T15:14:17.113Z</time></trkpt><trkpt lat="44.5260624" lon="8.7509703"><ele>762.2</ele><time>2026-03-21T15:14:18.114Z</time></trkpt><trkpt lat="44.5259849" lon="8.7509106"><ele>763.0</ele><time>2026-03-21T15:14:19.113Z</time></trkpt><trkpt lat="44.5258474" lon="8.7507965"><ele>763.0</ele><time>2026-03-21T15:14:21.113Z</time></trkpt><trkpt lat="44.5257754" lon="8.7507624"><ele>763.0</ele><time>2026-03-21T15:14:22.114Z</time></trkpt><trkpt lat="44.5257104" lon="8.7507489"><ele>763.0</ele><time>2026-03-21T15:14:23.114Z</time></trkpt><trkpt lat="44.5256318" lon="8.7507678"><ele>763.0</ele><time>2026-03-21T15:14:24.113Z</time></trkpt><trkpt lat="44.5255702" lon="8.7507964"><ele>763.0</ele><time>2026-03-21T15:14:25.114Z</time></trkpt><trkpt lat="44.52551" lon="8.7508654"><ele>763.0</ele><time>2026-03-21T15:14:26.113Z</time></trkpt><trkpt lat="44.5254706" lon="8.7509605"><ele>763.0</ele><time>2026-03-21T15:14:27.114Z</time></trkpt><trkpt lat="44.525428" lon="8.7511938"><ele>763.0</ele><time>2026-03-21T15:14:29.113Z</time></trkpt><trkpt lat="44.5254003" lon="8.7512993"><ele>763.0</ele><time>2026-03-21T15:14:30.114Z</time></trkpt><trkpt lat="44.5253558" lon="8.7513955"><ele>763.0</ele><time>2026-03-21T15:14:31.114Z</time></trkpt><trkpt lat="44.5253026" lon="8.7514738"><ele>763.0</ele><time>2026-03-21T15:14:32.113Z</time></trkpt><trkpt lat="44.5252474" lon="8.7515244"><ele>763.0</ele><time>2026-03-21T15:14:33.114Z</time></trkpt><trkpt lat="44.5251667" lon="8.7515278"><ele>763.0</ele><time>2026-03-21T15:14:34.114Z</time></trkpt><trkpt lat="44.5250879" lon="8.7515176"><ele>760.0</ele><time>2026-03-21T15:14:35.113Z</time></trkpt><trkpt lat="44.525002" lon="8.7515054"><ele>757.0</ele><time>2026-03-21T15:14:36.114Z</time></trkpt><trkpt lat="44.5249114" lon="8.7514646"><ele>754.0</ele><time>2026-03-21T15:14:37.114Z</time></trkpt><trkpt lat="44.5248207" lon="8.7514095"><ele>751.0</ele><time>2026-03-21T15:14:38.113Z</time></trkpt><trkpt lat="44.5247399" lon="8.7513297"><ele>748.0</ele><time>2026-03-21T15:14:39.113Z</time></trkpt><trkpt lat="44.5246554" lon="8.7512548"><ele>748.0</ele><time>2026-03-21T15:14:40.114Z</time></trkpt><trkpt lat="44.5245898" lon="8.7511693"><ele>748.0</ele><time>2026-03-21T15:14:41.114Z</time></trkpt><trkpt lat="44.5244967" lon="8.7511051"><ele>748.0</ele><time>2026-03-21T15:14:42.114Z</time></trkpt><trkpt lat="44.524416" lon="8.7510494"><ele>748.0</ele><time>2026-03-21T15:14:43.114Z</time></trkpt><trkpt lat="44.5243143" lon="8.7510105"><ele>748.0</ele><time>2026-03-21T15:14:44.114Z</time></trkpt><trkpt lat="44.5242305" lon="8.7509765"><ele>745.0</ele><time>2026-03-21T15:14:45.114Z</time></trkpt><trkpt lat="44.5241543" lon="8.7509391"><ele>742.0</ele><time>2026-03-21T15:14:46.113Z</time></trkpt><trkpt lat="44.5240799" lon="8.7509262"><ele>739.0</ele><time>2026-03-21T15:14:47.113Z</time></trkpt><trkpt lat="44.5239769" lon="8.7509173"><ele>736.0</ele><time>2026-03-21T15:14:48.113Z</time></trkpt><trkpt lat="44.5238813" lon="8.7509139"><ele>733.0</ele><time>2026-03-21T15:14:49.113Z</time></trkpt><trkpt lat="44.5237891" lon="8.7509197"><ele>730.0</ele><time>2026-03-21T15:14:50.114Z</time></trkpt><trkpt lat="44.5236961" lon="8.750909"><ele>729.0</ele><time>2026-03-21T15:14:51.114Z</time></trkpt><trkpt lat="44.5235933" lon="8.7509034"><ele>728.0</ele><time>2026-03-21T15:14:52.113Z</time></trkpt><trkpt lat="44.5234898" lon="8.7508735"><ele>727.0</ele><time>2026-03-21T15:14:53.114Z</time></trkpt><trkpt lat="44.5233944" lon="8.750825"><ele>726.0</ele><time>2026-03-21T15:14:54.113Z</time></trkpt><trkpt lat="44.5232955" lon="8.7507834"><ele>725.0</ele><time>2026-03-21T15:14:55.113Z</time></trkpt><trkpt lat="44.5231986" lon="8.75075"><ele>725.0</ele><time>2026-03-21T15:14:56.114Z</time></trkpt><trkpt lat="44.5230979" lon="8.7507213"><ele>725.0</ele><time>2026-03-21T15:14:57.113Z</time></trkpt><trkpt lat="44.5230038" lon="8.7506884"><ele>725.0</ele><time>2026-03-21T15:14:58.113Z</time></trkpt><trkpt lat="44.522915" lon="8.7506658"><ele>725.0</ele><time>2026-03-21T15:14:59.113Z</time></trkpt><trkpt lat="44.5228262" lon="8.7506733"><ele>725.0</ele><time>2026-03-21T15:15:00.114Z</time></trkpt><trkpt lat="44.5227341" lon="8.7506997"><ele>723.8</ele><time>2026-03-21T15:15:01.114Z</time></trkpt><trkpt lat="44.5226354" lon="8.7507331"><ele>722.6</ele><time>2026-03-21T15:15:02.113Z</time></trkpt><trkpt lat="44.5225336" lon="8.7507619"><ele>721.4000000000001</ele><time>2026-03-21T15:15:03.113Z</time></trkpt><trkpt lat="44.5224317" lon="8.7507769"><ele>720.2</ele><time>2026-03-21T15:15:04.114Z</time></trkpt><trkpt lat="44.5223293" lon="8.7507934"><ele>719.0</ele><time>2026-03-21T15:15:05.113Z</time></trkpt><trkpt lat="44.5222279" lon="8.7508155"><ele>719.0</ele><time>2026-03-21T15:15:06.114Z</time></trkpt><trkpt lat="44.522122" lon="8.7508423"><ele>719.0</ele><time>2026-03-21T15:15:07.114Z</time></trkpt><trkpt lat="44.5220214" lon="8.7508735"><ele>719.0</ele><time>2026-03-21T15:15:08.113Z</time></trkpt><trkpt lat="44.5219169" lon="8.7509053"><ele>719.0</ele><time>2026-03-21T15:15:09.113Z</time></trkpt><trkpt lat="44.5218068" lon="8.7509132"><ele>719.0</ele><time>2026-03-21T15:15:10.113Z</time></trkpt><trkpt lat="44.5217009" lon="8.7509043"><ele>718.8000000000001</ele><time>2026-03-21T15:15:11.113Z</time></trkpt><trkpt lat="44.5215973" lon="8.7509129"><ele>718.6</ele><time>2026-03-21T15:15:12.113Z</time></trkpt><trkpt lat="44.5214935" lon="8.7509291"><ele>718.4</ele><time>2026-03-21T15:15:13.113Z</time></trkpt><trkpt lat="44.5213887" lon="8.7509675"><ele>718.2</ele><time>2026-03-21T15:15:14.113Z</time></trkpt><trkpt lat="44.5212888" lon="8.7510143"><ele>718.0</ele><time>2026-03-21T15:15:15.114Z</time></trkpt><trkpt lat="44.5211812" lon="8.751044"><ele>718.0</ele><time>2026-03-21T15:15:16.114Z</time></trkpt><trkpt lat="44.5210805" lon="8.7510652"><ele>718.0</ele><time>2026-03-21T15:15:17.113Z</time></trkpt><trkpt lat="44.5209707" lon="8.7510669"><ele>718.0</ele><time>2026-03-21T15:15:18.113Z</time></trkpt><trkpt lat="44.5208612" lon="8.7510682"><ele>718.0</ele><time>2026-03-21T15:15:19.113Z</time></trkpt><trkpt lat="44.5207485" lon="8.751086"><ele>718.0</ele><time>2026-03-21T15:15:20.113Z</time></trkpt><trkpt lat="44.5206401" lon="8.7511079"><ele>718.0</ele><time>2026-03-21T15:15:21.114Z</time></trkpt><trkpt lat="44.520534" lon="8.75114"><ele>718.0</ele><time>2026-03-21T15:15:22.114Z</time></trkpt><trkpt lat="44.5204299" lon="8.7511751"><ele>718.0</ele><time>2026-03-21T15:15:23.114Z</time></trkpt><trkpt lat="44.5203242" lon="8.7512088"><ele>718.0</ele><time>2026-03-21T15:15:24.114Z</time></trkpt><trkpt lat="44.5202153" lon="8.7512283"><ele>718.0</ele><time>2026-03-21T15:15:25.114Z</time></trkpt><trkpt lat="44.520116" lon="8.751232"><ele>716.5</ele><time>2026-03-21T15:15:26.113Z</time></trkpt><trkpt lat="44.5200393" lon="8.7511965"><ele>715.0</ele><time>2026-03-21T15:15:27.113Z</time></trkpt><trkpt lat="44.5199682" lon="8.7511725"><ele>713.5</ele><time>2026-03-21T15:15:28.113Z</time></trkpt><trkpt lat="44.5199058" lon="8.7511527"><ele>712.0</ele><time>2026-03-21T15:15:29.114Z</time></trkpt><trkpt lat="44.5198621" lon="8.7510516"><ele>710.5</ele><time>2026-03-21T15:15:31.114Z</time></trkpt><trkpt lat="44.5199469" lon="8.7509878"><ele>709.0</ele><time>2026-03-21T15:15:33.114Z</time></trkpt><trkpt lat="44.5200139" lon="8.7509786"><ele>704.1666666666667</ele><time>2026-03-21T15:15:34.114Z</time></trkpt><trkpt lat="44.5200905" lon="8.750966"><ele>699.3333333333334</ele><time>2026-03-21T15:15:35.113Z</time></trkpt><trkpt lat="44.52017" lon="8.750933"><ele>694.5</ele><time>2026-03-21T15:15:36.113Z</time></trkpt><trkpt lat="44.5202378" lon="8.7508948"><ele>689.6666666666666</ele><time>2026-03-21T15:15:37.114Z</time></trkpt><trkpt lat="44.5203059" lon="8.7508406"><ele>684.8333333333333</ele><time>2026-03-21T15:15:38.114Z</time></trkpt><trkpt lat="44.5203082" lon="8.7507249"><ele>680.0</ele><time>2026-03-21T15:15:39.113Z</time></trkpt><trkpt lat="44.5203163" lon="8.7506075"><ele>680.0</ele><time>2026-03-21T15:15:40.114Z</time></trkpt><trkpt lat="44.5203203" lon="8.750483"><ele>680.0</ele><time>2026-03-21T15:15:41.113Z</time></trkpt><trkpt lat="44.5203249" lon="8.7503603"><ele>680.0</ele><time>2026-03-21T15:15:42.114Z</time></trkpt><trkpt lat="44.5203413" lon="8.7502342"><ele>680.0</ele><time>2026-03-21T15:15:43.114Z</time></trkpt><trkpt lat="44.5203577" lon="8.7501137"><ele>680.0</ele><time>2026-03-21T15:15:44.113Z</time></trkpt><trkpt lat="44.52037" lon="8.7499957"><ele>680.0</ele><time>2026-03-21T15:15:45.113Z</time></trkpt><trkpt lat="44.520364" lon="8.7498771"><ele>678.2857142857143</ele><time>2026-03-21T15:15:46.114Z</time></trkpt><trkpt lat="44.5203395" lon="8.7497666"><ele>676.5714285714286</ele><time>2026-03-21T15:15:47.113Z</time></trkpt><trkpt lat="44.520325" lon="8.749656"><ele>674.8571428571429</ele><time>2026-03-21T15:15:48.113Z</time></trkpt><trkpt lat="44.5203171" lon="8.7495548"><ele>673.1428571428571</ele><time>2026-03-21T15:15:49.113Z</time></trkpt><trkpt lat="44.5203172" lon="8.7494588"><ele>671.4285714285714</ele><time>2026-03-21T15:15:50.114Z</time></trkpt><trkpt lat="44.5203465" lon="8.749372"><ele>669.7142857142857</ele><time>2026-03-21T15:15:51.114Z</time></trkpt><trkpt lat="44.5204027" lon="8.7493172"><ele>668.0</ele><time>2026-03-21T15:15:52.113Z</time></trkpt><trkpt lat="44.5204755" lon="8.7492703"><ele>668.0</ele><time>2026-03-21T15:15:53.113Z</time></trkpt><trkpt lat="44.5205571" lon="8.7492095"><ele>668.0</ele><time>2026-03-21T15:15:54.114Z</time></trkpt><trkpt lat="44.5206372" lon="8.7491511"><ele>668.0</ele><time>2026-03-21T15:15:55.114Z</time></trkpt><trkpt lat="44.5207151" lon="8.7490868"><ele>668.0</ele><time>2026-03-21T15:15:56.113Z</time></trkpt><trkpt lat="44.5207787" lon="8.7490189"><ele>668.0</ele><time>2026-03-21T15:15:57.114Z</time></trkpt><trkpt lat="44.5208399" lon="8.748956"><ele>668.0</ele><time>2026-03-21T15:15:58.113Z</time></trkpt><trkpt lat="44.5208873" lon="8.7488749"><ele>668.0</ele><time>2026-03-21T15:15:59.114Z</time></trkpt><trkpt lat="44.5209133" lon="8.7487895"><ele>668.0</ele><time>2026-03-21T15:16:00.114Z</time></trkpt><trkpt lat="44.5208907" lon="8.748703"><ele>668.0</ele><time>2026-03-21T15:16:01.113Z</time></trkpt><trkpt lat="44.5207991" lon="8.7485593"><ele>668.0</ele><time>2026-03-21T15:16:03.114Z</time></trkpt><trkpt lat="44.5207354" lon="8.7484873"><ele>668.0</ele><time>2026-03-21T15:16:04.114Z</time></trkpt><trkpt lat="44.5206594" lon="8.7484182"><ele>668.0</ele><time>2026-03-21T15:16:05.114Z</time></trkpt><trkpt lat="44.5205757" lon="8.7483699"><ele>666.0</ele><time>2026-03-21T15:16:06.114Z</time></trkpt><trkpt lat="44.5204908" lon="8.7483183"><ele>664.0</ele><time>2026-03-21T15:16:07.114Z</time></trkpt><trkpt lat="44.5204059" lon="8.7482758"><ele>662.0</ele><time>2026-03-21T15:16:08.113Z</time></trkpt><trkpt lat="44.5203264" lon="8.7482354"><ele>660.0</ele><time>2026-03-21T15:16:09.113Z</time></trkpt><trkpt lat="44.5202497" lon="8.7481829"><ele>658.0</ele><time>2026-03-21T15:16:10.113Z</time></trkpt><trkpt lat="44.5201958" lon="8.7481048"><ele>656.0</ele><time>2026-03-21T15:16:11.113Z</time></trkpt><trkpt lat="44.5201614" lon="8.7480065"><ele>653.4</ele><time>2026-03-21T15:16:12.114Z</time></trkpt><trkpt lat="44.5201233" lon="8.7478874"><ele>650.8</ele><time>2026-03-21T15:16:13.113Z</time></trkpt><trkpt lat="44.5200812" lon="8.7477549"><ele>648.1999999999999</ele><time>2026-03-21T15:16:14.113Z</time></trkpt><trkpt lat="44.5200369" lon="8.7476347"><ele>645.5999999999999</ele><time>2026-03-21T15:16:15.113Z</time></trkpt><trkpt lat="44.5199799" lon="8.7475359"><ele>643.0</ele><time>2026-03-21T15:16:16.113Z</time></trkpt><trkpt lat="44.5199146" lon="8.7474291"><ele>643.0</ele><time>2026-03-21T15:16:17.113Z</time></trkpt><trkpt lat="44.5198625" lon="8.7473181"><ele>643.0</ele><time>2026-03-21T15:16:18.113Z</time></trkpt><trkpt lat="44.5198503" lon="8.7471873"><ele>643.0</ele><time>2026-03-21T15:16:19.114Z</time></trkpt><trkpt lat="44.5198351" lon="8.7470576"><ele>643.0</ele><time>2026-03-21T15:16:20.114Z</time></trkpt><trkpt lat="44.519827" lon="8.7469196"><ele>643.0</ele><time>2026-03-21T15:16:21.114Z</time></trkpt><trkpt lat="44.5198011" lon="8.7467934"><ele>642.8</ele><time>2026-03-21T15:16:22.114Z</time></trkpt><trkpt lat="44.5197821" lon="8.7466488"><ele>642.5999999999999</ele><time>2026-03-21T15:16:23.114Z</time></trkpt><trkpt lat="44.5197696" lon="8.7465073"><ele>642.4000000000001</ele><time>2026-03-21T15:16:24.113Z</time></trkpt><trkpt lat="44.5197531" lon="8.7463686"><ele>642.2</ele><time>2026-03-21T15:16:25.113Z</time></trkpt><trkpt lat="44.5197388" lon="8.746242"><ele>642.0</ele><time>2026-03-21T15:16:26.113Z</time></trkpt><trkpt lat="44.5197267" lon="8.7461285"><ele>642.0</ele><time>2026-03-21T15:16:27.113Z</time></trkpt><trkpt lat="44.5196922" lon="8.7460471"><ele>642.0</ele><time>2026-03-21T15:16:28.114Z</time></trkpt><trkpt lat="44.5195949" lon="8.7460126"><ele>642.0</ele><time>2026-03-21T15:16:30.114Z</time></trkpt><trkpt lat="44.519535" lon="8.7461689"><ele>642.0</ele><time>2026-03-21T15:16:32.114Z</time></trkpt><trkpt lat="44.5195318" lon="8.7462756"><ele>642.0</ele><time>2026-03-21T15:16:33.114Z</time></trkpt><trkpt lat="44.5195366" lon="8.7463929"><ele>638.6666666666666</ele><time>2026-03-21T15:16:34.114Z</time></trkpt><trkpt lat="44.5195436" lon="8.7465088"><ele>635.3333333333334</ele><time>2026-03-21T15:16:35.113Z</time></trkpt><trkpt lat="44.5195513" lon="8.7466346"><ele>632.0</ele><time>2026-03-21T15:16:36.114Z</time></trkpt><trkpt lat="44.5195529" lon="8.7467626"><ele>628.6666666666667</ele><time>2026-03-21T15:16:37.113Z</time></trkpt><trkpt lat="44.5195331" lon="8.7468823"><ele>625.3333333333334</ele><time>2026-03-21T15:16:38.114Z</time></trkpt><trkpt lat="44.5195054" lon="8.7469985"><ele>622.0</ele><time>2026-03-21T15:16:39.113Z</time></trkpt><trkpt lat="44.519457" lon="8.7470995"><ele>622.0</ele><time>2026-03-21T15:16:40.114Z</time></trkpt><trkpt lat="44.5193921" lon="8.7471826"><ele>622.0</ele><time>2026-03-21T15:16:41.113Z</time></trkpt><trkpt lat="44.5193171" lon="8.7472303"><ele>622.0</ele><time>2026-03-21T15:16:42.113Z</time></trkpt><trkpt lat="44.5192375" lon="8.7472734"><ele>622.0</ele><time>2026-03-21T15:16:43.114Z</time></trkpt><trkpt lat="44.5191598" lon="8.7473131"><ele>622.0</ele><time>2026-03-21T15:16:44.114Z</time></trkpt><trkpt lat="44.5190889" lon="8.7473464"><ele>622.0</ele><time>2026-03-21T15:16:45.113Z</time></trkpt><trkpt lat="44.5190225" lon="8.7473528"><ele>622.0</ele><time>2026-03-21T15:16:46.113Z</time></trkpt><trkpt lat="44.518962" lon="8.7473213"><ele>622.0</ele><time>2026-03-21T15:16:47.114Z</time></trkpt><trkpt lat="44.5189241" lon="8.7471955"><ele>622.0</ele><time>2026-03-21T15:16:49.113Z</time></trkpt><trkpt lat="44.5189453" lon="8.7471043"><ele>622.0</ele><time>2026-03-21T15:16:50.114Z</time></trkpt><trkpt lat="44.5189832" lon="8.7470106"><ele>622.0</ele><time>2026-03-21T15:16:51.114Z</time></trkpt><trkpt lat="44.5190269" lon="8.7469197"><ele>622.0</ele><time>2026-03-21T15:16:52.114Z</time></trkpt><trkpt lat="44.5190736" lon="8.7468385"><ele>621.5</ele><time>2026-03-21T15:16:53.113Z</time></trkpt><trkpt lat="44.5191188" lon="8.7467521"><ele>621.0</ele><time>2026-03-21T15:16:54.114Z</time></trkpt><trkpt lat="44.5191563" lon="8.7466777"><ele>620.5</ele><time>2026-03-21T15:16:55.114Z</time></trkpt><trkpt lat="44.5191446" lon="8.7465778"><ele>620.0</ele><time>2026-03-21T15:16:56.113Z</time></trkpt><trkpt lat="44.5191076" lon="8.7464102"><ele>619.5</ele><time>2026-03-21T15:16:58.113Z</time></trkpt><trkpt lat="44.5190319" lon="8.7462987"><ele>619.0</ele><time>2026-03-21T15:16:59.114Z</time></trkpt><trkpt lat="44.5189578" lon="8.7462118"><ele>619.0</ele><time>2026-03-21T15:17:00.114Z</time></trkpt><trkpt lat="44.5188817" lon="8.7461286"><ele>619.0</ele><time>2026-03-21T15:17:01.113Z</time></trkpt><trkpt lat="44.518796" lon="8.7460428"><ele>619.0</ele><time>2026-03-21T15:17:02.113Z</time></trkpt><trkpt lat="44.5187146" lon="8.7459574"><ele>619.0</ele><time>2026-03-21T15:17:03.113Z</time></trkpt><trkpt lat="44.5186301" lon="8.7458766"><ele>619.0</ele><time>2026-03-21T15:17:04.114Z</time></trkpt><trkpt lat="44.5185506" lon="8.7457907"><ele>615.2</ele><time>2026-03-21T15:17:05.114Z</time></trkpt><trkpt lat="44.5184688" lon="8.7457014"><ele>611.4</ele><time>2026-03-21T15:17:06.113Z</time></trkpt><trkpt lat="44.518392" lon="8.745613"><ele>607.6</ele><time>2026-03-21T15:17:07.114Z</time></trkpt><trkpt lat="44.5183286" lon="8.7455103"><ele>603.8</ele><time>2026-03-21T15:17:08.114Z</time></trkpt><trkpt lat="44.5182674" lon="8.7454092"><ele>600.0</ele><time>2026-03-21T15:17:09.114Z</time></trkpt><trkpt lat="44.5182041" lon="8.7453322"><ele>600.0</ele><time>2026-03-21T15:17:10.113Z</time></trkpt><trkpt lat="44.5181296" lon="8.745282"><ele>600.0</ele><time>2026-03-21T15:17:11.113Z</time></trkpt><trkpt lat="44.5180552" lon="8.7452547"><ele>600.0</ele><time>2026-03-21T15:17:12.114Z</time></trkpt><trkpt lat="44.517975" lon="8.7452577"><ele>600.0</ele><time>2026-03-21T15:17:13.113Z</time></trkpt><trkpt lat="44.5178949" lon="8.7452588"><ele>600.0</ele><time>2026-03-21T15:17:14.113Z</time></trkpt><trkpt lat="44.5178099" lon="8.7452856"><ele>600.0</ele><time>2026-03-21T15:17:15.114Z</time></trkpt><trkpt lat="44.517721" lon="8.7453194"><ele>597.0</ele><time>2026-03-21T15:17:16.114Z</time></trkpt><trkpt lat="44.5176313" lon="8.7453552"><ele>594.0</ele><time>2026-03-21T15:17:17.114Z</time></trkpt><trkpt lat="44.5175433" lon="8.7453962"><ele>591.0</ele><time>2026-03-21T15:17:18.114Z</time></trkpt><trkpt lat="44.5174573" lon="8.7454334"><ele>588.0</ele><time>2026-03-21T15:17:19.113Z</time></trkpt><trkpt lat="44.5173699" lon="8.7454722"><ele>585.0</ele><time>2026-03-21T15:17:20.113Z</time></trkpt><trkpt lat="44.5172847" lon="8.7455177"><ele>585.0</ele><time>2026-03-21T15:17:21.114Z</time></trkpt><trkpt lat="44.5172159" lon="8.7455778"><ele>585.0</ele><time>2026-03-21T15:17:22.114Z</time></trkpt><trkpt lat="44.5171689" lon="8.7456621"><ele>585.0</ele><time>2026-03-21T15:17:23.114Z</time></trkpt><trkpt lat="44.5171573" lon="8.7457542"><ele>585.0</ele><time>2026-03-21T15:17:24.114Z</time></trkpt><trkpt lat="44.5171771" lon="8.7458454"><ele>585.0</ele><time>2026-03-21T15:17:25.114Z</time></trkpt><trkpt lat="44.5172168" lon="8.7459483"><ele>585.0</ele><time>2026-03-21T15:17:26.114Z</time></trkpt><trkpt lat="44.5172682" lon="8.7460581"><ele>584.8</ele><time>2026-03-21T15:17:27.114Z</time></trkpt><trkpt lat="44.5173215" lon="8.7461719"><ele>584.6</ele><time>2026-03-21T15:17:28.114Z</time></trkpt><trkpt lat="44.5173755" lon="8.7462822"><ele>584.4</ele><time>2026-03-21T15:17:29.113Z</time></trkpt><trkpt lat="44.5174365" lon="8.7463914"><ele>584.2</ele><time>2026-03-21T15:17:30.113Z</time></trkpt><trkpt lat="44.5174843" lon="8.7464947"><ele>584.0</ele><time>2026-03-21T15:17:31.113Z</time></trkpt><trkpt lat="44.5175225" lon="8.746583"><ele>584.0</ele><time>2026-03-21T15:17:32.113Z</time></trkpt><trkpt lat="44.5175102" lon="8.7467415"><ele>584.0</ele><time>2026-03-21T15:17:34.113Z</time></trkpt><trkpt lat="44.5174585" lon="8.7468026"><ele>584.0</ele><time>2026-03-21T15:17:35.114Z</time></trkpt><trkpt lat="44.517394" lon="8.7468558"><ele>584.0</ele><time>2026-03-21T15:17:36.114Z</time></trkpt><trkpt lat="44.5173249" lon="8.746917"><ele>584.0</ele><time>2026-03-21T15:17:37.114Z</time></trkpt><trkpt lat="44.5172479" lon="8.7469682"><ele>584.0</ele><time>2026-03-21T15:17:38.114Z</time></trkpt><trkpt lat="44.517169" lon="8.746993"><ele>585.3333333333333</ele><time>2026-03-21T15:17:39.113Z</time></trkpt><trkpt lat="44.5170964" lon="8.746981"><ele>586.6666666666666</ele><time>2026-03-21T15:17:40.114Z</time></trkpt><trkpt lat="44.5170268" lon="8.746942"><ele>588.0</ele><time>2026-03-21T15:17:41.114Z</time></trkpt><trkpt lat="44.5169583" lon="8.7468921"><ele>589.3333333333334</ele><time>2026-03-21T15:17:42.114Z</time></trkpt><trkpt lat="44.5168797" lon="8.7468499"><ele>590.6666666666667</ele><time>2026-03-21T15:17:43.114Z</time></trkpt><trkpt lat="44.5167947" lon="8.7468132"><ele>592.0</ele><time>2026-03-21T15:17:44.114Z</time></trkpt><trkpt lat="44.5167048" lon="8.7467918"><ele>588.8000000000001</ele><time>2026-03-21T15:17:45.113Z</time></trkpt><trkpt lat="44.5165949" lon="8.746782"><ele>585.6</ele><time>2026-03-21T15:17:46.113Z</time></trkpt><trkpt lat="44.5164872" lon="8.7467814"><ele>582.4000000000001</ele><time>2026-03-21T15:17:47.114Z</time></trkpt><trkpt lat="44.5163808" lon="8.7467802"><ele>579.2</ele><time>2026-03-21T15:17:48.113Z</time></trkpt><trkpt lat="44.5162751" lon="8.7467844"><ele>576.0</ele><time>2026-03-21T15:17:49.113Z</time></trkpt><trkpt lat="44.5161757" lon="8.7468225"><ele>575.2</ele><time>2026-03-21T15:17:50.114Z</time></trkpt><trkpt lat="44.5160803" lon="8.74686"><ele>574.4000000000001</ele><time>2026-03-21T15:17:51.113Z</time></trkpt><trkpt lat="44.5159915" lon="8.7468969"><ele>573.6</ele><time>2026-03-21T15:17:52.113Z</time></trkpt><trkpt lat="44.5159069" lon="8.7468717"><ele>572.8000000000001</ele><time>2026-03-21T15:17:53.114Z</time></trkpt><trkpt lat="44.5158356" lon="8.7468036"><ele>572.0</ele><time>2026-03-21T15:17:54.113Z</time></trkpt><trkpt lat="44.5157684" lon="8.7467212"><ele>572.0</ele><time>2026-03-21T15:17:55.114Z</time></trkpt><trkpt lat="44.5156866" lon="8.7466558"><ele>572.0</ele><time>2026-03-21T15:17:56.114Z</time></trkpt><trkpt lat="44.5156038" lon="8.7465962"><ele>572.0</ele><time>2026-03-21T15:17:57.113Z</time></trkpt><trkpt lat="44.5155201" lon="8.746542"><ele>572.0</ele><time>2026-03-21T15:17:58.114Z</time></trkpt><trkpt lat="44.5154345" lon="8.7464827"><ele>572.0</ele><time>2026-03-21T15:17:59.113Z</time></trkpt><trkpt lat="44.5153582" lon="8.7463933"><ele>572.0</ele><time>2026-03-21T15:18:00.113Z</time></trkpt><trkpt lat="44.5152825" lon="8.74629"><ele>572.0</ele><time>2026-03-21T15:18:01.114Z</time></trkpt><trkpt lat="44.5152026" lon="8.7461924"><ele>572.0</ele><time>2026-03-21T15:18:02.113Z</time></trkpt><trkpt lat="44.5151198" lon="8.7461003"><ele>572.0</ele><time>2026-03-21T15:18:03.113Z</time></trkpt><trkpt lat="44.5150364" lon="8.7460022"><ele>572.0</ele><time>2026-03-21T15:18:04.114Z</time></trkpt><trkpt lat="44.5149534" lon="8.7459036"><ele>569.6</ele><time>2026-03-21T15:18:05.113Z</time></trkpt><trkpt lat="44.5148683" lon="8.7458159"><ele>567.2</ele><time>2026-03-21T15:18:06.113Z</time></trkpt><trkpt lat="44.5147886" lon="8.7457274"><ele>564.8</ele><time>2026-03-21T15:18:07.114Z</time></trkpt><trkpt lat="44.5147082" lon="8.7456458"><ele>562.4</ele><time>2026-03-21T15:18:08.113Z</time></trkpt><trkpt lat="44.5146214" lon="8.745577"><ele>560.0</ele><time>2026-03-21T15:18:09.113Z</time></trkpt><trkpt lat="44.5145291" lon="8.7455275"><ele>560.0</ele><time>2026-03-21T15:18:10.114Z</time></trkpt><trkpt lat="44.5144361" lon="8.7454701"><ele>560.0</ele><time>2026-03-21T15:18:11.114Z</time></trkpt><trkpt lat="44.5143387" lon="8.7454235"><ele>560.0</ele><time>2026-03-21T15:18:12.114Z</time></trkpt><trkpt lat="44.5142349" lon="8.7453382"><ele>560.0</ele><time>2026-03-21T15:18:13.113Z</time></trkpt><trkpt lat="44.5141409" lon="8.7452611"><ele>560.0</ele><time>2026-03-21T15:18:14.113Z</time></trkpt><trkpt lat="44.5140485" lon="8.745173"><ele>556.6</ele><time>2026-03-21T15:18:15.114Z</time></trkpt><trkpt lat="44.5139516" lon="8.7450922"><ele>553.2</ele><time>2026-03-21T15:18:16.113Z</time></trkpt><trkpt lat="44.5138586" lon="8.7450163"><ele>549.8</ele><time>2026-03-21T15:18:17.114Z</time></trkpt><trkpt lat="44.5137659" lon="8.744939"><ele>546.4</ele><time>2026-03-21T15:18:18.114Z</time></trkpt><trkpt lat="44.5136872" lon="8.7448627"><ele>543.0</ele><time>2026-03-21T15:18:19.113Z</time></trkpt><trkpt lat="44.5136213" lon="8.7447926"><ele>540.5</ele><time>2026-03-21T15:18:20.113Z</time></trkpt><trkpt lat="44.5135522" lon="8.7447674"><ele>538.0</ele><time>2026-03-21T15:18:21.113Z</time></trkpt><trkpt lat="44.5134894" lon="8.7447841"><ele>535.5</ele><time>2026-03-21T15:18:22.114Z</time></trkpt><trkpt lat="44.5134365" lon="8.7448461"><ele>533.0</ele><time>2026-03-21T15:18:23.114Z</time></trkpt><trkpt lat="44.5133851" lon="8.7449335"><ele>530.5</ele><time>2026-03-21T15:18:24.114Z</time></trkpt><trkpt lat="44.5133373" lon="8.7450596"><ele>528.0</ele><time>2026-03-21T15:18:25.114Z</time></trkpt><trkpt lat="44.5132865" lon="8.7451857"><ele>531.1999999999999</ele><time>2026-03-21T15:18:26.114Z</time></trkpt><trkpt lat="44.5132318" lon="8.7453202"><ele>534.4</ele><time>2026-03-21T15:18:27.113Z</time></trkpt><trkpt lat="44.5131753" lon="8.7454479"><ele>537.5999999999999</ele><time>2026-03-21T15:18:28.114Z</time></trkpt><trkpt lat="44.5131092" lon="8.7455618"><ele>540.8</ele><time>2026-03-21T15:18:29.113Z</time></trkpt><trkpt lat="44.5130376" lon="8.7456709"><ele>544.0</ele><time>2026-03-21T15:18:30.113Z</time></trkpt><trkpt lat="44.5129561" lon="8.745761"><ele>542.1666666666667</ele><time>2026-03-21T15:18:31.114Z</time></trkpt><trkpt lat="44.5128873" lon="8.7458485"><ele>540.3333333333334</ele><time>2026-03-21T15:18:32.113Z</time></trkpt><trkpt lat="44.5128409" lon="8.7459305"><ele>538.5</ele><time>2026-03-21T15:18:33.113Z</time></trkpt><trkpt lat="44.5128227" lon="8.7460285"><ele>536.6666666666666</ele><time>2026-03-21T15:18:34.113Z</time></trkpt><trkpt lat="44.5128371" lon="8.746121"><ele>534.8333333333333</ele><time>2026-03-21T15:18:35.114Z</time></trkpt><trkpt lat="44.5128831" lon="8.7461994"><ele>533.0</ele><time>2026-03-21T15:18:36.113Z</time></trkpt><trkpt lat="44.5129528" lon="8.7462596"><ele>533.0</ele><time>2026-03-21T15:18:37.114Z</time></trkpt><trkpt lat="44.5130401" lon="8.7463337"><ele>533.0</ele><time>2026-03-21T15:18:38.114Z</time></trkpt><trkpt lat="44.5131245" lon="8.7464179"><ele>533.0</ele><time>2026-03-21T15:18:39.114Z</time></trkpt><trkpt lat="44.513205" lon="8.7465262"><ele>533.0</ele><time>2026-03-21T15:18:40.113Z</time></trkpt><trkpt lat="44.51327" lon="8.7466497"><ele>533.0</ele><time>2026-03-21T15:18:41.114Z</time></trkpt><trkpt lat="44.5133222" lon="8.7467876"><ele>529.0</ele><time>2026-03-21T15:18:42.113Z</time></trkpt><trkpt lat="44.5133677" lon="8.7469328"><ele>525.0</ele><time>2026-03-21T15:18:43.113Z</time></trkpt><trkpt lat="44.5134053" lon="8.7470862"><ele>521.0</ele><time>2026-03-21T15:18:44.113Z</time></trkpt><trkpt lat="44.5134451" lon="8.7472384"><ele>517.0</ele><time>2026-03-21T15:18:45.114Z</time></trkpt><trkpt lat="44.5134791" lon="8.7473925"><ele>517.0</ele><time>2026-03-21T15:18:46.113Z</time></trkpt><trkpt lat="44.5135031" lon="8.747544"><ele>517.0</ele><time>2026-03-21T15:18:47.113Z</time></trkpt><trkpt lat="44.5135259" lon="8.7476949"><ele>517.0</ele><time>2026-03-21T15:18:48.114Z</time></trkpt><trkpt lat="44.5135463" lon="8.7478389"><ele>517.0</ele><time>2026-03-21T15:18:49.114Z</time></trkpt><trkpt lat="44.5135907" lon="8.7479641"><ele>517.0</ele><time>2026-03-21T15:18:50.114Z</time></trkpt><trkpt lat="44.5136539" lon="8.7480643"><ele>517.4</ele><time>2026-03-21T15:18:51.114Z</time></trkpt><trkpt lat="44.5137198" lon="8.7481664"><ele>517.8000000000001</ele><time>2026-03-21T15:18:52.114Z</time></trkpt><trkpt lat="44.5137714" lon="8.7482703"><ele>518.2</ele><time>2026-03-21T15:18:53.113Z</time></trkpt><trkpt lat="44.5138012" lon="8.748392"><ele>518.6</ele><time>2026-03-21T15:18:54.113Z</time></trkpt><trkpt lat="44.5138321" lon="8.7485165"><ele>519.0</ele><time>2026-03-21T15:18:55.114Z</time></trkpt><trkpt lat="44.5138781" lon="8.748638"><ele>519.0</ele><time>2026-03-21T15:18:56.114Z</time></trkpt><trkpt lat="44.5139516" lon="8.7487496"><ele>519.0</ele><time>2026-03-21T15:18:57.113Z</time></trkpt><trkpt lat="44.5140134" lon="8.7488523"><ele>519.0</ele><time>2026-03-21T15:18:58.113Z</time></trkpt><trkpt lat="44.5140538" lon="8.7489587"><ele>519.0</ele><time>2026-03-21T15:18:59.113Z</time></trkpt><trkpt lat="44.5140657" lon="8.7490715"><ele>519.0</ele><time>2026-03-21T15:19:00.114Z</time></trkpt><trkpt lat="44.5140329" lon="8.7491585"><ele>519.0</ele><time>2026-03-21T15:19:01.114Z</time></trkpt><trkpt lat="44.5139699" lon="8.74919"><ele>519.0</ele><time>2026-03-21T15:19:02.113Z</time></trkpt><trkpt lat="44.5139024" lon="8.7491697"><ele>519.0</ele><time>2026-03-21T15:19:03.114Z</time></trkpt><trkpt lat="44.513838" lon="8.7491081"><ele>519.0</ele><time>2026-03-21T15:19:04.113Z</time></trkpt><trkpt lat="44.5137754" lon="8.7490341"><ele>519.0</ele><time>2026-03-21T15:19:05.114Z</time></trkpt><trkpt lat="44.5137073" lon="8.7489542"><ele>519.0</ele><time>2026-03-21T15:19:06.113Z</time></trkpt><trkpt lat="44.5136265" lon="8.748899"><ele>519.0</ele><time>2026-03-21T15:19:07.114Z</time></trkpt><trkpt lat="44.5135326" lon="8.7488561"><ele>523.5</ele><time>2026-03-21T15:19:08.113Z</time></trkpt><trkpt lat="44.5134421" lon="8.748825"><ele>528.0</ele><time>2026-03-21T15:19:09.114Z</time></trkpt><trkpt lat="44.5133524" lon="8.7487939"><ele>532.5</ele><time>2026-03-21T15:19:10.113Z</time></trkpt><trkpt lat="44.5131766" lon="8.7487296"><ele>537.0</ele><time>2026-03-21T15:19:12.114Z</time></trkpt><trkpt lat="44.5130898" lon="8.748692"><ele>537.0</ele><time>2026-03-21T15:19:13.113Z</time></trkpt><trkpt lat="44.5130095" lon="8.7486513"><ele>537.0</ele><time>2026-03-21T15:19:14.113Z</time></trkpt><trkpt lat="44.5129288" lon="8.7486035"><ele>537.0</ele><time>2026-03-21T15:19:15.114Z</time></trkpt><trkpt lat="44.5128551" lon="8.7485271"><ele>537.0</ele><time>2026-03-21T15:19:16.113Z</time></trkpt><trkpt lat="44.5127938" lon="8.7484458"><ele>537.0</ele><time>2026-03-21T15:19:17.114Z</time></trkpt><trkpt lat="44.512724" lon="8.7483594"><ele>537.0</ele><time>2026-03-21T15:19:18.114Z</time></trkpt><trkpt lat="44.5126502" lon="8.7482893"><ele>537.8333333333334</ele><time>2026-03-21T15:19:19.113Z</time></trkpt><trkpt lat="44.5125757" lon="8.7482375"><ele>538.6666666666666</ele><time>2026-03-21T15:19:20.113Z</time></trkpt><trkpt lat="44.5124935" lon="8.748216"><ele>539.5</ele><time>2026-03-21T15:19:21.114Z</time></trkpt><trkpt lat="44.5124121" lon="8.7482337"><ele>540.3333333333333</ele><time>2026-03-21T15:19:22.114Z</time></trkpt><trkpt lat="44.5123439" lon="8.7482961"><ele>541.1666666666666</ele><time>2026-03-21T15:19:23.114Z</time></trkpt><trkpt lat="44.5122806" lon="8.748378"><ele>542.0</ele><time>2026-03-21T15:19:24.114Z</time></trkpt><trkpt lat="44.5122128" lon="8.7484792"><ele>545.2</ele><time>2026-03-21T15:19:25.114Z</time></trkpt><trkpt lat="44.512146" lon="8.7485858"><ele>548.4000000000001</ele><time>2026-03-21T15:19:26.114Z</time></trkpt><trkpt lat="44.5120754" lon="8.7487045"><ele>551.5999999999999</ele><time>2026-03-21T15:19:27.114Z</time></trkpt><trkpt lat="44.5119919" lon="8.7488158"><ele>554.8</ele><time>2026-03-21T15:19:28.113Z</time></trkpt><trkpt lat="44.511899" lon="8.748904"><ele>558.0</ele><time>2026-03-21T15:19:29.113Z</time></trkpt><trkpt lat="44.5117948" lon="8.748978"><ele>558.0</ele><time>2026-03-21T15:19:30.114Z</time></trkpt><trkpt lat="44.5116808" lon="8.7490288"><ele>558.0</ele><time>2026-03-21T15:19:31.113Z</time></trkpt><trkpt lat="44.5115594" lon="8.7490588"><ele>558.0</ele><time>2026-03-21T15:19:32.113Z</time></trkpt><trkpt lat="44.5114326" lon="8.749072"><ele>558.0</ele><time>2026-03-21T15:19:33.113Z</time></trkpt><trkpt lat="44.5113096" lon="8.749066"><ele>557.25</ele><time>2026-03-21T15:19:34.114Z</time></trkpt><trkpt lat="44.5111897" lon="8.7490487"><ele>556.5</ele><time>2026-03-21T15:19:35.114Z</time></trkpt><trkpt lat="44.5110757" lon="8.7490346"><ele>555.75</ele><time>2026-03-21T15:19:36.113Z</time></trkpt><trkpt lat="44.5109673" lon="8.7490365"><ele>555.0</ele><time>2026-03-21T15:19:37.114Z</time></trkpt><trkpt lat="44.5108533" lon="8.7490616"><ele>555.0</ele><time>2026-03-21T15:19:38.113Z</time></trkpt><trkpt lat="44.5107423" lon="8.7491116"><ele>555.0</ele><time>2026-03-21T15:19:39.114Z</time></trkpt><trkpt lat="44.510632" lon="8.7491775"><ele>555.0</ele><time>2026-03-21T15:19:40.114Z</time></trkpt><trkpt lat="44.5105184" lon="8.7492613"><ele>555.0</ele><time>2026-03-21T15:19:41.114Z</time></trkpt><trkpt lat="44.5104097" lon="8.7493491"><ele>555.2</ele><time>2026-03-21T15:19:42.114Z</time></trkpt><trkpt lat="44.5103141" lon="8.7494439"><ele>555.4</ele><time>2026-03-21T15:19:43.114Z</time></trkpt><trkpt lat="44.5102289" lon="8.7495373"><ele>555.6</ele><time>2026-03-21T15:19:44.113Z</time></trkpt><trkpt lat="44.5101455" lon="8.749609"><ele>555.8</ele><time>2026-03-21T15:19:45.114Z</time></trkpt><trkpt lat="44.510046" lon="8.7496686"><ele>556.0</ele><time>2026-03-21T15:19:46.114Z</time></trkpt><trkpt lat="44.5099374" lon="8.7497105"><ele>556.0</ele><time>2026-03-21T15:19:47.114Z</time></trkpt><trkpt lat="44.5098259" lon="8.749751"><ele>556.0</ele><time>2026-03-21T15:19:48.113Z</time></trkpt><trkpt lat="44.509718" lon="8.7497881"><ele>556.0</ele><time>2026-03-21T15:19:49.113Z</time></trkpt><trkpt lat="44.5096239" lon="8.7498228"><ele>556.0</ele><time>2026-03-21T15:19:50.114Z</time></trkpt><trkpt lat="44.5095436" lon="8.749845"><ele>556.0</ele><time>2026-03-21T15:19:51.113Z</time></trkpt><trkpt lat="44.5094808" lon="8.7498556"><ele>558.6</ele><time>2026-03-21T15:19:52.114Z</time></trkpt><trkpt lat="44.5094056" lon="8.7498484"><ele>561.2</ele><time>2026-03-21T15:19:54.114Z</time></trkpt><trkpt lat="44.5093513" lon="8.7497511"><ele>563.8</ele><time>2026-03-21T15:19:56.114Z</time></trkpt><trkpt lat="44.5092382" lon="8.7496551"><ele>566.4</ele><time>2026-03-21T15:19:58.114Z</time></trkpt><trkpt lat="44.509157" lon="8.7496238"><ele>569.0</ele><time>2026-03-21T15:19:59.114Z</time></trkpt><trkpt lat="44.5090708" lon="8.7496036"><ele>569.0</ele><time>2026-03-21T15:20:00.113Z</time></trkpt><trkpt lat="44.5089751" lon="8.7495782"><ele>569.0</ele><time>2026-03-21T15:20:01.113Z</time></trkpt><trkpt lat="44.5088676" lon="8.7495462"><ele>569.0</ele><time>2026-03-21T15:20:02.113Z</time></trkpt><trkpt lat="44.5087514" lon="8.749515"><ele>569.0</ele><time>2026-03-21T15:20:03.113Z</time></trkpt><trkpt lat="44.5086315" lon="8.7494756"><ele>569.0</ele><time>2026-03-21T15:20:04.114Z</time></trkpt><trkpt lat="44.5085103" lon="8.74941"><ele>568.0</ele><time>2026-03-21T15:20:05.114Z</time></trkpt><trkpt lat="44.5083859" lon="8.7493266"><ele>567.0</ele><time>2026-03-21T15:20:06.113Z</time></trkpt><trkpt lat="44.5082752" lon="8.749221"><ele>566.0</ele><time>2026-03-21T15:20:07.114Z</time></trkpt><trkpt lat="44.5081764" lon="8.7491117"><ele>565.0</ele><time>2026-03-21T15:20:08.113Z</time></trkpt><trkpt lat="44.5080913" lon="8.7489943"><ele>565.0</ele><time>2026-03-21T15:20:09.113Z</time></trkpt><trkpt lat="44.5080161" lon="8.7488793"><ele>565.0</ele><time>2026-03-21T15:20:10.114Z</time></trkpt><trkpt lat="44.50794" lon="8.7487715"><ele>565.0</ele><time>2026-03-21T15:20:11.114Z</time></trkpt><trkpt lat="44.5078818" lon="8.7486645"><ele>565.0</ele><time>2026-03-21T15:20:12.114Z</time></trkpt><trkpt lat="44.5078478" lon="8.7485496"><ele>565.0</ele><time>2026-03-21T15:20:13.113Z</time></trkpt><trkpt lat="44.5078467" lon="8.7484331"><ele>563.8</ele><time>2026-03-21T15:20:14.113Z</time></trkpt><trkpt lat="44.5078776" lon="8.748322"><ele>562.6</ele><time>2026-03-21T15:20:15.113Z</time></trkpt><trkpt lat="44.5079508" lon="8.7482285"><ele>561.4</ele><time>2026-03-21T15:20:16.113Z</time></trkpt><trkpt lat="44.5080381" lon="8.7481362"><ele>560.2</ele><time>2026-03-21T15:20:17.113Z</time></trkpt><trkpt lat="44.5081211" lon="8.7480371"><ele>559.0</ele><time>2026-03-21T15:20:18.113Z</time></trkpt><trkpt lat="44.5082001" lon="8.7479401"><ele>559.0</ele><time>2026-03-21T15:20:19.114Z</time></trkpt><trkpt lat="44.5082682" lon="8.7478456"><ele>559.0</ele><time>2026-03-21T15:20:20.113Z</time></trkpt><trkpt lat="44.5083279" lon="8.7477458"><ele>559.0</ele><time>2026-03-21T15:20:21.113Z</time></trkpt><trkpt lat="44.5083148" lon="8.7476171"><ele>559.0</ele><time>2026-03-21T15:20:22.113Z</time></trkpt><trkpt lat="44.5082901" lon="8.747518"><ele>559.0</ele><time>2026-03-21T15:20:23.113Z</time></trkpt><trkpt lat="44.5082419" lon="8.7473647"><ele>559.2</ele><time>2026-03-21T15:20:25.114Z</time></trkpt><trkpt lat="44.5082633" lon="8.7471879"><ele>559.4</ele><time>2026-03-21T15:20:27.113Z</time></trkpt><trkpt lat="44.5082745" lon="8.7469996"><ele>559.6</ele><time>2026-03-21T15:20:29.113Z</time></trkpt><trkpt lat="44.5082562" lon="8.7469035"><ele>559.8</ele><time>2026-03-21T15:20:30.114Z</time></trkpt><trkpt lat="44.508183" lon="8.7468227"><ele>560.0</ele><time>2026-03-21T15:20:31.113Z</time></trkpt><trkpt lat="44.5081251" lon="8.746716"><ele>558.1666666666666</ele><time>2026-03-21T15:20:32.113Z</time></trkpt><trkpt lat="44.5081001" lon="8.7465889"><ele>556.3333333333333</ele><time>2026-03-21T15:20:33.114Z</time></trkpt><trkpt lat="44.5081194" lon="8.7464602"><ele>554.5</ele><time>2026-03-21T15:20:34.114Z</time></trkpt><trkpt lat="44.5081434" lon="8.7463411"><ele>552.6666666666666</ele><time>2026-03-21T15:20:35.114Z</time></trkpt><trkpt lat="44.5081288" lon="8.7462264"><ele>550.8333333333334</ele><time>2026-03-21T15:20:36.114Z</time></trkpt><trkpt lat="44.508109" lon="8.7461057"><ele>549.0</ele><time>2026-03-21T15:20:37.113Z</time></trkpt><trkpt lat="44.5080622" lon="8.7459426"><ele>545.0</ele><time>2026-03-21T15:20:38.113Z</time></trkpt><trkpt lat="44.5080862" lon="8.74577"><ele>541.0</ele><time>2026-03-21T15:20:39.114Z</time></trkpt><trkpt lat="44.5081102" lon="8.7456072"><ele>537.0</ele><time>2026-03-21T15:20:40.114Z</time></trkpt><trkpt lat="44.5081186" lon="8.7454468"><ele>533.0</ele><time>2026-03-21T15:20:41.113Z</time></trkpt><trkpt lat="44.5081105" lon="8.7452904"><ele>530.0</ele><time>2026-03-21T15:20:42.113Z</time></trkpt><trkpt lat="44.5080616" lon="8.745135"><ele>527.0</ele><time>2026-03-21T15:20:43.113Z</time></trkpt><trkpt lat="44.5079864" lon="8.7449722"><ele>524.0</ele><time>2026-03-21T15:20:44.113Z</time></trkpt><trkpt lat="44.5079057" lon="8.744802"><ele>521.0</ele><time>2026-03-21T15:20:45.113Z</time></trkpt><trkpt lat="44.5078292" lon="8.7446315"><ele>525.5</ele><time>2026-03-21T15:20:46.114Z</time></trkpt><trkpt lat="44.5077678" lon="8.7444514"><ele>530.0</ele><time>2026-03-21T15:20:47.114Z</time></trkpt><trkpt lat="44.5077263" lon="8.7442621"><ele>534.5</ele><time>2026-03-21T15:20:48.113Z</time></trkpt><trkpt lat="44.5077092" lon="8.7440758"><ele>539.0</ele><time>2026-03-21T15:20:49.114Z</time></trkpt><trkpt lat="44.5077156" lon="8.743893"><ele>539.0</ele><time>2026-03-21T15:20:50.114Z</time></trkpt><trkpt lat="44.5077303" lon="8.7437135"><ele>539.0</ele><time>2026-03-21T15:20:51.113Z</time></trkpt><trkpt lat="44.5077589" lon="8.7435395"><ele>539.0</ele><time>2026-03-21T15:20:52.113Z</time></trkpt><trkpt lat="44.5078187" lon="8.7433894"><ele>539.0</ele><time>2026-03-21T15:20:53.114Z</time></trkpt><trkpt lat="44.5079041" lon="8.7432632"><ele>532.75</ele><time>2026-03-21T15:20:54.113Z</time></trkpt><trkpt lat="44.5080199" lon="8.7431614"><ele>526.5</ele><time>2026-03-21T15:20:55.114Z</time></trkpt><trkpt lat="44.5081434" lon="8.7430801"><ele>520.25</ele><time>2026-03-21T15:20:56.113Z</time></trkpt><trkpt lat="44.5082655" lon="8.7429989"><ele>514.0</ele><time>2026-03-21T15:20:57.113Z</time></trkpt><trkpt lat="44.5083866" lon="8.7429106"><ele>514.0</ele><time>2026-03-21T15:20:58.113Z</time></trkpt><trkpt lat="44.5084604" lon="8.7428129"><ele>514.0</ele><time>2026-03-21T15:20:59.114Z</time></trkpt><trkpt lat="44.5085208" lon="8.7426892"><ele>514.0</ele><time>2026-03-21T15:21:00.114Z</time></trkpt><trkpt lat="44.50854" lon="8.7425501"><ele>514.0</ele><time>2026-03-21T15:21:01.114Z</time></trkpt><trkpt lat="44.5085229" lon="8.7423976"><ele>514.0</ele><time>2026-03-21T15:21:02.114Z</time></trkpt><trkpt lat="44.5085066" lon="8.742241"><ele>514.5</ele><time>2026-03-21T15:21:03.114Z</time></trkpt><trkpt lat="44.5084341" lon="8.7420554"><ele>515.0</ele><time>2026-03-21T15:21:04.114Z</time></trkpt><trkpt lat="44.5083794" lon="8.7419099"><ele>515.5</ele><time>2026-03-21T15:21:05.113Z</time></trkpt><trkpt lat="44.5082867" lon="8.7417721"><ele>516.0</ele><time>2026-03-21T15:21:06.114Z</time></trkpt><trkpt lat="44.5081586" lon="8.7416371"><ele>514.0</ele><time>2026-03-21T15:21:07.113Z</time></trkpt><trkpt lat="44.5080094" lon="8.7414968"><ele>512.0</ele><time>2026-03-21T15:21:08.113Z</time></trkpt><trkpt lat="44.5078437" lon="8.7413776"><ele>510.0</ele><time>2026-03-21T15:21:09.113Z</time></trkpt><trkpt lat="44.5076775" lon="8.7412896"><ele>510.0</ele><time>2026-03-21T15:21:10.113Z</time></trkpt><trkpt lat="44.5075236" lon="8.7412109"><ele>510.0</ele><time>2026-03-21T15:21:11.113Z</time></trkpt><trkpt lat="44.5074039" lon="8.7411535"><ele>510.0</ele><time>2026-03-21T15:21:12.114Z</time></trkpt><trkpt lat="44.5072983" lon="8.7411341"><ele>510.0</ele><time>2026-03-21T15:21:13.114Z</time></trkpt><trkpt lat="44.5071999" lon="8.7411585"><ele>510.0</ele><time>2026-03-21T15:21:14.113Z</time></trkpt><trkpt lat="44.5071079" lon="8.7412389"><ele>510.0</ele><time>2026-03-21T15:21:15.114Z</time></trkpt><trkpt lat="44.5070144" lon="8.7413062"><ele>510.0</ele><time>2026-03-21T15:21:16.114Z</time></trkpt><trkpt lat="44.506921" lon="8.7413213"><ele>510.0</ele><time>2026-03-21T15:21:17.113Z</time></trkpt><trkpt lat="44.506846" lon="8.7412739"><ele>510.0</ele><time>2026-03-21T15:21:18.113Z</time></trkpt><trkpt lat="44.5067955" lon="8.7411677"><ele>505.6</ele><time>2026-03-21T15:21:19.113Z</time></trkpt><trkpt lat="44.5067659" lon="8.7410238"><ele>501.2</ele><time>2026-03-21T15:21:20.114Z</time></trkpt><trkpt lat="44.5067147" lon="8.7408821"><ele>496.79999999999995</ele><time>2026-03-21T15:21:21.114Z</time></trkpt><trkpt lat="44.5066489" lon="8.7407719"><ele>492.4</ele><time>2026-03-21T15:21:22.114Z</time></trkpt><trkpt lat="44.5065711" lon="8.740705"><ele>488.0</ele><time>2026-03-21T15:21:23.113Z</time></trkpt><trkpt lat="44.5064757" lon="8.7407003"><ele>488.0</ele><time>2026-03-21T15:21:24.113Z</time></trkpt><trkpt lat="44.5063618" lon="8.7407421"><ele>488.0</ele><time>2026-03-21T15:21:25.114Z</time></trkpt><trkpt lat="44.5062202" lon="8.7407659"><ele>488.0</ele><time>2026-03-21T15:21:26.114Z</time></trkpt><trkpt lat="44.5060771" lon="8.7407495"><ele>488.0</ele><time>2026-03-21T15:21:27.113Z</time></trkpt><trkpt lat="44.5059374" lon="8.7407123"><ele>489.75</ele><time>2026-03-21T15:21:28.113Z</time></trkpt><trkpt lat="44.5058159" lon="8.7406699"><ele>491.5</ele><time>2026-03-21T15:21:29.114Z</time></trkpt><trkpt lat="44.5057094" lon="8.7406068"><ele>493.25</ele><time>2026-03-21T15:21:30.113Z</time></trkpt><trkpt lat="44.5056356" lon="8.7404893"><ele>495.0</ele><time>2026-03-21T15:21:31.114Z</time></trkpt><trkpt lat="44.5055925" lon="8.7403399"><ele>495.0</ele><time>2026-03-21T15:21:32.114Z</time></trkpt><trkpt lat="44.5055447" lon="8.7401932"><ele>495.0</ele><time>2026-03-21T15:21:33.113Z</time></trkpt><trkpt lat="44.5054586" lon="8.7400578"><ele>495.0</ele><time>2026-03-21T15:21:34.114Z</time></trkpt><trkpt lat="44.5053443" lon="8.7398795"><ele>495.0</ele><time>2026-03-21T15:21:35.114Z</time></trkpt><trkpt lat="44.5052211" lon="8.7396457"><ele>495.0</ele><time>2026-03-21T15:21:36.113Z</time></trkpt><trkpt lat="44.5051167" lon="8.7394412"><ele>495.0</ele><time>2026-03-21T15:21:37.114Z</time></trkpt><trkpt lat="44.5050303" lon="8.7392261"><ele>495.0</ele><time>2026-03-21T15:21:38.113Z</time></trkpt><trkpt lat="44.5049683" lon="8.7390048"><ele>489.0</ele><time>2026-03-21T15:21:39.114Z</time></trkpt><trkpt lat="44.5049252" lon="8.7387987"><ele>483.0</ele><time>2026-03-21T15:21:40.113Z</time></trkpt><trkpt lat="44.5049094" lon="8.7385975"><ele>477.0</ele><time>2026-03-21T15:21:41.113Z</time></trkpt><trkpt lat="44.5048947" lon="8.7384111"><ele>471.0</ele><time>2026-03-21T15:21:42.113Z</time></trkpt><trkpt lat="44.5048535" lon="8.7382501"><ele>473.0</ele><time>2026-03-21T15:21:43.114Z</time></trkpt><trkpt lat="44.5048059" lon="8.7381162"><ele>475.0</ele><time>2026-03-21T15:21:44.114Z</time></trkpt><trkpt lat="44.5047404" lon="8.7380255"><ele>477.0</ele><time>2026-03-21T15:21:45.114Z</time></trkpt><trkpt lat="44.5046592" lon="8.7379824"><ele>479.0</ele><time>2026-03-21T15:21:46.113Z</time></trkpt><trkpt lat="44.5045789" lon="8.7379295"><ele>481.0</ele><time>2026-03-21T15:21:47.113Z</time></trkpt><trkpt lat="44.5045282" lon="8.737807"><ele>478.8</ele><time>2026-03-21T15:21:48.113Z</time></trkpt><trkpt lat="44.5045027" lon="8.7376831"><ele>476.6</ele><time>2026-03-21T15:21:49.113Z</time></trkpt><trkpt lat="44.5045093" lon="8.7375499"><ele>474.4</ele><time>2026-03-21T15:21:50.113Z</time></trkpt><trkpt lat="44.5045525" lon="8.7374401"><ele>472.2</ele><time>2026-03-21T15:21:51.114Z</time></trkpt><trkpt lat="44.5046249" lon="8.7373462"><ele>470.0</ele><time>2026-03-21T15:21:52.114Z</time></trkpt><trkpt lat="44.5046865" lon="8.7372415"><ele>466.75</ele><time>2026-03-21T15:21:53.114Z</time></trkpt><trkpt lat="44.5047079" lon="8.7371238"><ele>463.5</ele><time>2026-03-21T15:21:54.114Z</time></trkpt><trkpt lat="44.5046721" lon="8.736974"><ele>460.25</ele><time>2026-03-21T15:21:55.113Z</time></trkpt><trkpt lat="44.504614" lon="8.7367637"><ele>457.0</ele><time>2026-03-21T15:21:56.113Z</time></trkpt><trkpt lat="44.5045516" lon="8.7365401"><ele>457.0</ele><time>2026-03-21T15:21:57.113Z</time></trkpt><trkpt lat="44.5044928" lon="8.7363328"><ele>457.0</ele><time>2026-03-21T15:21:58.114Z</time></trkpt><trkpt lat="44.5044304" lon="8.7361407"><ele>457.0</ele><time>2026-03-21T15:21:59.113Z</time></trkpt><trkpt lat="44.5043749" lon="8.7359796"><ele>457.0</ele><time>2026-03-21T15:22:00.114Z</time></trkpt><trkpt lat="44.5043364" lon="8.7358337"><ele>454.0</ele><time>2026-03-21T15:22:01.113Z</time></trkpt><trkpt lat="44.5043365" lon="8.7356963"><ele>451.0</ele><time>2026-03-21T15:22:02.114Z</time></trkpt><trkpt lat="44.5043777" lon="8.7355624"><ele>448.0</ele><time>2026-03-21T15:22:03.114Z</time></trkpt><trkpt lat="44.50445" lon="8.7354241"><ele>445.0</ele><time>2026-03-21T15:22:04.114Z</time></trkpt><trkpt lat="44.5045358" lon="8.735296"><ele>443.0</ele><time>2026-03-21T15:22:05.114Z</time></trkpt><trkpt lat="44.5046162" lon="8.7351695"><ele>441.0</ele><time>2026-03-21T15:22:06.114Z</time></trkpt><trkpt lat="44.5046922" lon="8.735041"><ele>439.0</ele><time>2026-03-21T15:22:07.113Z</time></trkpt><trkpt lat="44.5047658" lon="8.7349202"><ele>437.0</ele><time>2026-03-21T15:22:08.113Z</time></trkpt><trkpt lat="44.5048267" lon="8.7348079"><ele>436.99999999999994</ele><time>2026-03-21T15:22:09.114Z</time></trkpt><trkpt lat="44.504872" lon="8.7347057"><ele>437.0</ele><time>2026-03-21T15:22:10.113Z</time></trkpt><trkpt lat="44.5049061" lon="8.7346158"><ele>437.0</ele><time>2026-03-21T15:22:11.113Z</time></trkpt><trkpt lat="44.5049137" lon="8.7344813"><ele>437.0</ele><time>2026-03-21T15:22:13.114Z</time></trkpt><trkpt lat="44.5048597" lon="8.7343926"><ele>436.99999999999994</ele><time>2026-03-21T15:22:37.114Z</time></trkpt><trkpt lat="44.5048088" lon="8.7342724"><ele>437.0</ele><time>2026-03-21T15:22:39.113Z</time></trkpt><trkpt lat="44.5047779" lon="8.7341888"><ele>438.20000000000005</ele><time>2026-03-21T15:22:40.113Z</time></trkpt><trkpt lat="44.5047431" lon="8.7340906"><ele>439.40000000000003</ele><time>2026-03-21T15:22:41.113Z</time></trkpt><trkpt lat="44.5047017" lon="8.733976"><ele>440.59999999999997</ele><time>2026-03-21T15:22:42.114Z</time></trkpt><trkpt lat="44.5046607" lon="8.7338453"><ele>441.79999999999995</ele><time>2026-03-21T15:22:43.114Z</time></trkpt><trkpt lat="44.5046215" lon="8.7337064"><ele>443.0</ele><time>2026-03-21T15:22:44.113Z</time></trkpt><trkpt lat="44.5045909" lon="8.7335548"><ele>440.5</ele><time>2026-03-21T15:22:45.113Z</time></trkpt><trkpt lat="44.5045645" lon="8.7333905"><ele>438.0</ele><time>2026-03-21T15:22:46.114Z</time></trkpt><trkpt lat="44.5045362" lon="8.7332152"><ele>435.5</ele><time>2026-03-21T15:22:47.113Z</time></trkpt><trkpt lat="44.5045127" lon="8.7330345"><ele>433.0</ele><time>2026-03-21T15:22:48.114Z</time></trkpt><trkpt lat="44.5044875" lon="8.7328409"><ele>432.75</ele><time>2026-03-21T15:22:49.114Z</time></trkpt><trkpt lat="44.5044599" lon="8.7326444"><ele>432.5</ele><time>2026-03-21T15:22:50.113Z</time></trkpt><trkpt lat="44.5044481" lon="8.7324433"><ele>432.25</ele><time>2026-03-21T15:22:51.113Z</time></trkpt><trkpt lat="44.5044494" lon="8.7322299"><ele>432.0</ele><time>2026-03-21T15:22:52.114Z</time></trkpt><trkpt lat="44.5044544" lon="8.7320092"><ele>430.33333333333337</ele><time>2026-03-21T15:22:53.113Z</time></trkpt><trkpt lat="44.5044613" lon="8.7317819"><ele>428.6666666666667</ele><time>2026-03-21T15:22:54.114Z</time></trkpt><trkpt lat="44.5044678" lon="8.731555"><ele>427.0</ele><time>2026-03-21T15:22:55.113Z</time></trkpt><trkpt lat="44.5044689" lon="8.7313331"><ele>427.0</ele><time>2026-03-21T15:22:56.114Z</time></trkpt><trkpt lat="44.5044685" lon="8.731117"><ele>427.0</ele><time>2026-03-21T15:22:57.114Z</time></trkpt><trkpt lat="44.5044593" lon="8.7308987"><ele>427.0</ele><time>2026-03-21T15:22:58.114Z</time></trkpt><trkpt lat="44.5044244" lon="8.7306863"><ele>425.6666666666667</ele><time>2026-03-21T15:22:59.113Z</time></trkpt><trkpt lat="44.5043594" lon="8.7304839"><ele>424.33333333333337</ele><time>2026-03-21T15:23:00.113Z</time></trkpt><trkpt lat="44.5042675" lon="8.7302954"><ele>423.0</ele><time>2026-03-21T15:23:01.114Z</time></trkpt><trkpt lat="44.5041609" lon="8.7301129"><ele>427.0</ele><time>2026-03-21T15:23:02.114Z</time></trkpt><trkpt lat="44.5040504" lon="8.7299236"><ele>431.0</ele><time>2026-03-21T15:23:03.113Z</time></trkpt><trkpt lat="44.5039402" lon="8.7297286"><ele>435.0</ele><time>2026-03-21T15:23:04.114Z</time></trkpt><trkpt lat="44.5038315" lon="8.7295247"><ele>431.33333333333337</ele><time>2026-03-21T15:23:05.114Z</time></trkpt><trkpt lat="44.5037398" lon="8.7293183"><ele>427.6666666666667</ele><time>2026-03-21T15:23:06.113Z</time></trkpt><trkpt lat="44.5036581" lon="8.729121"><ele>424.0</ele><time>2026-03-21T15:23:07.114Z</time></trkpt><trkpt lat="44.5035858" lon="8.7289273"><ele>424.0</ele><time>2026-03-21T15:23:08.113Z</time></trkpt><trkpt lat="44.5035286" lon="8.7287155"><ele>424.0</ele><time>2026-03-21T15:23:09.113Z</time></trkpt><trkpt lat="44.503474" lon="8.7284898"><ele>424.0</ele><time>2026-03-21T15:23:10.114Z</time></trkpt><trkpt lat="44.5034304" lon="8.7282694"><ele>425.75</ele><time>2026-03-21T15:23:11.114Z</time></trkpt><trkpt lat="44.5033874" lon="8.7280646"><ele>427.5</ele><time>2026-03-21T15:23:12.113Z</time></trkpt><trkpt lat="44.5033304" lon="8.7278723"><ele>429.25</ele><time>2026-03-21T15:23:13.114Z</time></trkpt><trkpt lat="44.5032646" lon="8.7276935"><ele>431.0</ele><time>2026-03-21T15:23:14.114Z</time></trkpt><trkpt lat="44.5032162" lon="8.7275155"><ele>430.3333333333333</ele><time>2026-03-21T15:23:15.114Z</time></trkpt><trkpt lat="44.5031906" lon="8.7273141"><ele>429.66666666666663</ele><time>2026-03-21T15:23:16.113Z</time></trkpt><trkpt lat="44.503174" lon="8.7270967"><ele>429.0</ele><time>2026-03-21T15:23:17.113Z</time></trkpt><trkpt lat="44.5031644" lon="8.7268888"><ele>429.0</ele><time>2026-03-21T15:23:18.114Z</time></trkpt><trkpt lat="44.5031614" lon="8.7266898"><ele>429.0</ele><time>2026-03-21T15:23:19.114Z</time></trkpt><trkpt lat="44.5031873" lon="8.726508"><ele>429.0</ele><time>2026-03-21T15:23:20.113Z</time></trkpt><trkpt lat="44.503257" lon="8.7263302"><ele>429.0</ele><time>2026-03-21T15:23:21.114Z</time></trkpt><trkpt lat="44.5033353" lon="8.7261388"><ele>424.33333333333337</ele><time>2026-03-21T15:23:22.114Z</time></trkpt><trkpt lat="44.503411" lon="8.7259467"><ele>419.6666666666667</ele><time>2026-03-21T15:23:23.113Z</time></trkpt><trkpt lat="44.503484" lon="8.7257427"><ele>415.0</ele><time>2026-03-21T15:23:24.113Z</time></trkpt><trkpt lat="44.5035598" lon="8.7255351"><ele>415.0</ele><time>2026-03-21T15:23:25.113Z</time></trkpt><trkpt lat="44.5036409" lon="8.7253264"><ele>415.0</ele><time>2026-03-21T15:23:26.114Z</time></trkpt><trkpt lat="44.5037209" lon="8.7251208"><ele>415.0</ele><time>2026-03-21T15:23:27.113Z</time></trkpt><trkpt lat="44.5038027" lon="8.7249208"><ele>415.33333333333337</ele><time>2026-03-21T15:23:28.113Z</time></trkpt><trkpt lat="44.5038769" lon="8.7247252"><ele>415.66666666666663</ele><time>2026-03-21T15:23:29.113Z</time></trkpt><trkpt lat="44.5039486" lon="8.724534"><ele>416.0</ele><time>2026-03-21T15:23:30.113Z</time></trkpt><trkpt lat="44.5040202" lon="8.7243453"><ele>415.5</ele><time>2026-03-21T15:23:31.113Z</time></trkpt><trkpt lat="44.5040929" lon="8.7241591"><ele>415.0</ele><time>2026-03-21T15:23:32.113Z</time></trkpt><trkpt lat="44.5041624" lon="8.7239763"><ele>414.5</ele><time>2026-03-21T15:23:33.114Z</time></trkpt><trkpt lat="44.5042319" lon="8.723798"><ele>414.0</ele><time>2026-03-21T15:23:34.113Z</time></trkpt><trkpt lat="44.5042993" lon="8.7236286"><ele>413.75</ele><time>2026-03-21T15:23:35.113Z</time></trkpt><trkpt lat="44.5043604" lon="8.7234655"><ele>413.5</ele><time>2026-03-21T15:23:36.114Z</time></trkpt><trkpt lat="44.5044191" lon="8.7233126"><ele>413.25</ele><time>2026-03-21T15:23:37.113Z</time></trkpt><trkpt lat="44.504478" lon="8.7231661"><ele>413.0</ele><time>2026-03-21T15:23:38.114Z</time></trkpt><trkpt lat="44.5045335" lon="8.7230222"><ele>414.25</ele><time>2026-03-21T15:23:39.113Z</time></trkpt><trkpt lat="44.5045902" lon="8.7228795"><ele>415.5</ele><time>2026-03-21T15:23:40.114Z</time></trkpt><trkpt lat="44.5046453" lon="8.7227355"><ele>416.75</ele><time>2026-03-21T15:23:41.113Z</time></trkpt><trkpt lat="44.5047033" lon="8.722593"><ele>418.0</ele><time>2026-03-21T15:23:42.114Z</time></trkpt><trkpt lat="44.504751" lon="8.7224491"><ele>418.75</ele><time>2026-03-21T15:23:43.113Z</time></trkpt><trkpt lat="44.5047935" lon="8.7223019"><ele>419.5</ele><time>2026-03-21T15:23:44.114Z</time></trkpt><trkpt lat="44.5048252" lon="8.7221476"><ele>420.25</ele><time>2026-03-21T15:23:45.113Z</time></trkpt><trkpt lat="44.5048557" lon="8.7219936"><ele>421.0</ele><time>2026-03-21T15:23:46.114Z</time></trkpt><trkpt lat="44.5048698" lon="8.7218356"><ele>422.5</ele><time>2026-03-21T15:23:47.114Z</time></trkpt><trkpt lat="44.5048727" lon="8.7216737"><ele>424.0</ele><time>2026-03-21T15:23:48.114Z</time></trkpt><trkpt lat="44.5048554" lon="8.7215149"><ele>425.5</ele><time>2026-03-21T15:23:49.113Z</time></trkpt><trkpt lat="44.5048183" lon="8.7213611"><ele>427.0</ele><time>2026-03-21T15:23:50.113Z</time></trkpt><trkpt lat="44.5047629" lon="8.721226"><ele>427.0</ele><time>2026-03-21T15:23:51.113Z</time></trkpt><trkpt lat="44.504686" lon="8.7211121"><ele>427.0</ele><time>2026-03-21T15:23:52.114Z</time></trkpt><trkpt lat="44.5045932" lon="8.7210196"><ele>427.0</ele><time>2026-03-21T15:23:53.114Z</time></trkpt><trkpt lat="44.5044894" lon="8.7209457"><ele>427.0</ele><time>2026-03-21T15:23:54.114Z</time></trkpt><trkpt lat="44.5043741" lon="8.7208838"><ele>423.75</ele><time>2026-03-21T15:23:55.113Z</time></trkpt><trkpt lat="44.5042501" lon="8.7208329"><ele>420.5</ele><time>2026-03-21T15:23:56.114Z</time></trkpt><trkpt lat="44.5041295" lon="8.7207669"><ele>417.25</ele><time>2026-03-21T15:23:57.114Z</time></trkpt><trkpt lat="44.5040079" lon="8.720697"><ele>414.0</ele><time>2026-03-21T15:23:58.113Z</time></trkpt><trkpt lat="44.5038912" lon="8.7206051"><ele>414.0</ele><time>2026-03-21T15:23:59.114Z</time></trkpt><trkpt lat="44.5037818" lon="8.7204959"><ele>414.0</ele><time>2026-03-21T15:24:00.114Z</time></trkpt><trkpt lat="44.5036746" lon="8.7203867"><ele>414.0</ele><time>2026-03-21T15:24:01.114Z</time></trkpt><trkpt lat="44.5035664" lon="8.7202735"><ele>414.0</ele><time>2026-03-21T15:24:02.114Z</time></trkpt><trkpt lat="44.5034641" lon="8.7201589"><ele>412.25</ele><time>2026-03-21T15:24:03.114Z</time></trkpt><trkpt lat="44.5033627" lon="8.7200412"><ele>410.5</ele><time>2026-03-21T15:24:04.113Z</time></trkpt><trkpt lat="44.5032712" lon="8.7199167"><ele>408.75</ele><time>2026-03-21T15:24:05.114Z</time></trkpt><trkpt lat="44.5031879" lon="8.7197887"><ele>407.0</ele><time>2026-03-21T15:24:06.114Z</time></trkpt><trkpt lat="44.5031161" lon="8.7196474"><ele>407.0</ele><time>2026-03-21T15:24:07.113Z</time></trkpt><trkpt lat="44.5030504" lon="8.7195026"><ele>407.0</ele><time>2026-03-21T15:24:08.113Z</time></trkpt><trkpt lat="44.5029901" lon="8.7193567"><ele>407.0</ele><time>2026-03-21T15:24:09.113Z</time></trkpt><trkpt lat="44.5029349" lon="8.7192057"><ele>407.0</ele><time>2026-03-21T15:24:10.113Z</time></trkpt><trkpt lat="44.5028857" lon="8.7190528"><ele>407.0</ele><time>2026-03-21T15:24:11.114Z</time></trkpt><trkpt lat="44.5028321" lon="8.7189097"><ele>407.0</ele><time>2026-03-21T15:24:12.114Z</time></trkpt><trkpt lat="44.5027702" lon="8.718772"><ele>407.0</ele><time>2026-03-21T15:24:13.113Z</time></trkpt><trkpt lat="44.5027097" lon="8.7186339"><ele>407.0</ele><time>2026-03-21T15:24:14.113Z</time></trkpt><trkpt lat="44.5026419" lon="8.7185"><ele>407.0</ele><time>2026-03-21T15:24:15.114Z</time></trkpt><trkpt lat="44.5025794" lon="8.7183702"><ele>407.0</ele><time>2026-03-21T15:24:16.113Z</time></trkpt><trkpt lat="44.5025164" lon="8.7182422"><ele>407.0</ele><time>2026-03-21T15:24:17.113Z</time></trkpt><trkpt lat="44.502455" lon="8.7181151"><ele>407.0</ele><time>2026-03-21T15:24:18.113Z</time></trkpt><trkpt lat="44.5023939" lon="8.7179907"><ele>407.0</ele><time>2026-03-21T15:24:19.114Z</time></trkpt><trkpt lat="44.5023364" lon="8.7178739"><ele>407.0</ele><time>2026-03-21T15:24:20.114Z</time></trkpt><trkpt lat="44.5022764" lon="8.7177628"><ele>407.0</ele><time>2026-03-21T15:24:21.113Z</time></trkpt><trkpt lat="44.5022219" lon="8.7176548"><ele>407.0</ele><time>2026-03-21T15:24:22.113Z</time></trkpt><trkpt lat="44.5021669" lon="8.7175525"><ele>407.0</ele><time>2026-03-21T15:24:23.114Z</time></trkpt><trkpt lat="44.5021154" lon="8.7174506"><ele>407.0</ele><time>2026-03-21T15:24:24.114Z</time></trkpt><trkpt lat="44.5020716" lon="8.7173534"><ele>406.8333333333333</ele><time>2026-03-21T15:24:25.113Z</time></trkpt><trkpt lat="44.5020305" lon="8.7172616"><ele>406.66666666666663</ele><time>2026-03-21T15:24:26.114Z</time></trkpt><trkpt lat="44.5020037" lon="8.717166"><ele>406.5</ele><time>2026-03-21T15:24:27.113Z</time></trkpt><trkpt lat="44.5019662" lon="8.7170844"><ele>406.33333333333337</ele><time>2026-03-21T15:24:28.113Z</time></trkpt><trkpt lat="44.5019362" lon="8.7170065"><ele>406.1666666666667</ele><time>2026-03-21T15:24:29.113Z</time></trkpt><trkpt lat="44.5018777" lon="8.7168662"><ele>406.0</ele><time>2026-03-21T15:24:31.114Z</time></trkpt><trkpt lat="44.5018239" lon="8.7167574"><ele>406.00000000000006</ele><time>2026-03-21T15:24:33.113Z</time></trkpt><trkpt lat="44.5017743" lon="8.7166639"><ele>406.0</ele><time>2026-03-21T15:24:59.114Z</time></trkpt><trkpt lat="44.5017918" lon="8.7165252"><ele>406.0</ele><time>2026-03-21T15:25:01.114Z</time></trkpt><trkpt lat="44.5018153" lon="8.716427"><ele>406.0</ele><time>2026-03-21T15:25:02.114Z</time></trkpt><trkpt lat="44.5018458" lon="8.7163149"><ele>406.00000000000006</ele><time>2026-03-21T15:25:03.114Z</time></trkpt><trkpt lat="44.5018779" lon="8.7162067"><ele>406.0</ele><time>2026-03-21T15:25:04.114Z</time></trkpt><trkpt lat="44.5019196" lon="8.7160924"><ele>405.8</ele><time>2026-03-21T15:25:05.113Z</time></trkpt><trkpt lat="44.5019751" lon="8.7159771"><ele>405.6</ele><time>2026-03-21T15:25:06.113Z</time></trkpt><trkpt lat="44.502032" lon="8.7158679"><ele>405.4</ele><time>2026-03-21T15:25:07.114Z</time></trkpt><trkpt lat="44.502087" lon="8.7157498"><ele>405.2</ele><time>2026-03-21T15:25:08.113Z</time></trkpt><trkpt lat="44.5021513" lon="8.7156323"><ele>405.0</ele><time>2026-03-21T15:25:09.114Z</time></trkpt><trkpt lat="44.5022102" lon="8.7155049"><ele>405.6</ele><time>2026-03-21T15:25:10.113Z</time></trkpt><trkpt lat="44.5022756" lon="8.7153822"><ele>406.2</ele><time>2026-03-21T15:25:11.114Z</time></trkpt><trkpt lat="44.5023409" lon="8.7152515"><ele>406.79999999999995</ele><time>2026-03-21T15:25:12.114Z</time></trkpt><trkpt lat="44.5024058" lon="8.7151254"><ele>407.4</ele><time>2026-03-21T15:25:13.114Z</time></trkpt><trkpt lat="44.5024692" lon="8.7149932"><ele>408.0</ele><time>2026-03-21T15:25:14.114Z</time></trkpt><trkpt lat="44.5025351" lon="8.7148689"><ele>408.0</ele><time>2026-03-21T15:25:15.113Z</time></trkpt><trkpt lat="44.5026055" lon="8.7147434"><ele>408.0</ele><time>2026-03-21T15:25:16.113Z</time></trkpt><trkpt lat="44.5026712" lon="8.7146205"><ele>408.0</ele><time>2026-03-21T15:25:17.114Z</time></trkpt><trkpt lat="44.5027338" lon="8.7144968"><ele>408.0</ele><time>2026-03-21T15:25:18.113Z</time></trkpt><trkpt lat="44.5027961" lon="8.7143797"><ele>408.0</ele><time>2026-03-21T15:25:19.114Z</time></trkpt><trkpt lat="44.502851" lon="8.7142669"><ele>406.4</ele><time>2026-03-21T15:25:20.113Z</time></trkpt><trkpt lat="44.5029233" lon="8.7141746"><ele>404.79999999999995</ele><time>2026-03-21T15:25:21.114Z</time></trkpt><trkpt lat="44.5029938" lon="8.714092"><ele>403.2</ele><time>2026-03-21T15:25:22.114Z</time></trkpt><trkpt lat="44.5030686" lon="8.7140078"><ele>401.6</ele><time>2026-03-21T15:25:23.114Z</time></trkpt><trkpt lat="44.5031469" lon="8.7139219"><ele>400.0</ele><time>2026-03-21T15:25:24.113Z</time></trkpt><trkpt lat="44.5032241" lon="8.7138255"><ele>400.0</ele><time>2026-03-21T15:25:25.114Z</time></trkpt><trkpt lat="44.5033035" lon="8.7137226"><ele>400.0</ele><time>2026-03-21T15:25:26.114Z</time></trkpt><trkpt lat="44.5033806" lon="8.7136204"><ele>400.0</ele><time>2026-03-21T15:25:27.114Z</time></trkpt><trkpt lat="44.5034569" lon="8.7135271"><ele>400.0</ele><time>2026-03-21T15:25:28.114Z</time></trkpt><trkpt lat="44.5035332" lon="8.7134428"><ele>400.0</ele><time>2026-03-21T15:25:29.113Z</time></trkpt><trkpt lat="44.5036106" lon="8.7133915"><ele>399.83333333333337</ele><time>2026-03-21T15:25:30.114Z</time></trkpt><trkpt lat="44.5036982" lon="8.713385"><ele>399.6666666666667</ele><time>2026-03-21T15:25:31.114Z</time></trkpt><trkpt lat="44.5037709" lon="8.7133696"><ele>399.5</ele><time>2026-03-21T15:25:32.114Z</time></trkpt><trkpt lat="44.5038267" lon="8.7133143"><ele>399.33333333333337</ele><time>2026-03-21T15:25:33.114Z</time></trkpt><trkpt lat="44.5038712" lon="8.7132298"><ele>399.1666666666667</ele><time>2026-03-21T15:25:34.114Z</time></trkpt><trkpt lat="44.5038947" lon="8.7131302"><ele>399.0</ele><time>2026-03-21T15:25:35.114Z</time></trkpt><trkpt lat="44.5039117" lon="8.713018"><ele>399.1666666666667</ele><time>2026-03-21T15:25:36.114Z</time></trkpt><trkpt lat="44.5039289" lon="8.7129083"><ele>399.33333333333337</ele><time>2026-03-21T15:25:37.114Z</time></trkpt><trkpt lat="44.5039453" lon="8.7127925"><ele>399.5</ele><time>2026-03-21T15:25:38.114Z</time></trkpt><trkpt lat="44.5039594" lon="8.712681"><ele>399.6666666666667</ele><time>2026-03-21T15:25:39.113Z</time></trkpt><trkpt lat="44.5039742" lon="8.7125706"><ele>399.83333333333337</ele><time>2026-03-21T15:25:40.114Z</time></trkpt><trkpt lat="44.5039924" lon="8.7124635"><ele>400.0</ele><time>2026-03-21T15:25:41.114Z</time></trkpt><trkpt lat="44.5040107" lon="8.7123548"><ele>400.00000000000006</ele><time>2026-03-21T15:25:42.114Z</time></trkpt><trkpt lat="44.5040251" lon="8.7122449"><ele>400.0</ele><time>2026-03-21T15:25:43.113Z</time></trkpt><trkpt lat="44.5040395" lon="8.712138"><ele>400.0</ele><time>2026-03-21T15:25:44.113Z</time></trkpt><trkpt lat="44.5040581" lon="8.7120311"><ele>400.0</ele><time>2026-03-21T15:25:45.113Z</time></trkpt><trkpt lat="44.5040724" lon="8.7119185"><ele>400.00000000000006</ele><time>2026-03-21T15:25:46.113Z</time></trkpt><trkpt lat="44.504091" lon="8.7118066"><ele>400.0</ele><time>2026-03-21T15:25:47.113Z</time></trkpt><trkpt lat="44.5041298" lon="8.7117134"><ele>401.83333333333337</ele><time>2026-03-21T15:25:48.113Z</time></trkpt><trkpt lat="44.5041902" lon="8.7116549"><ele>403.6666666666667</ele><time>2026-03-21T15:25:49.113Z</time></trkpt><trkpt lat="44.50427" lon="8.711644"><ele>405.5</ele><time>2026-03-21T15:25:50.114Z</time></trkpt><trkpt lat="44.5043545" lon="8.7116543"><ele>407.33333333333337</ele><time>2026-03-21T15:25:51.114Z</time></trkpt><trkpt lat="44.5044472" lon="8.7116597"><ele>409.1666666666667</ele><time>2026-03-21T15:25:52.113Z</time></trkpt><trkpt lat="44.5045422" lon="8.7116536"><ele>411.0</ele><time>2026-03-21T15:25:53.113Z</time></trkpt><trkpt lat="44.5046299" lon="8.7116365"><ele>411.0</ele><time>2026-03-21T15:25:54.113Z</time></trkpt><trkpt lat="44.5047151" lon="8.711591"><ele>411.0</ele><time>2026-03-21T15:25:55.114Z</time></trkpt><trkpt lat="44.5047845" lon="8.7115092"><ele>411.0</ele><time>2026-03-21T15:25:56.113Z</time></trkpt><trkpt lat="44.504807" lon="8.7114085"><ele>411.0</ele><time>2026-03-21T15:25:57.113Z</time></trkpt><trkpt lat="44.5048035" lon="8.7112432"><ele>411.0</ele><time>2026-03-21T15:25:59.113Z</time></trkpt><trkpt lat="44.5047923" lon="8.7110903"><ele>412.4</ele><time>2026-03-21T15:26:01.114Z</time></trkpt><trkpt lat="44.504789" lon="8.7109992"><ele>413.8</ele><time>2026-03-21T15:26:02.114Z</time></trkpt><trkpt lat="44.5047699" lon="8.7107822"><ele>415.2</ele><time>2026-03-21T15:26:04.114Z</time></trkpt><trkpt lat="44.5047531" lon="8.7106531"><ele>416.59999999999997</ele><time>2026-03-21T15:26:05.113Z</time></trkpt><trkpt lat="44.5047134" lon="8.7105153"><ele>418.0</ele><time>2026-03-21T15:26:06.113Z</time></trkpt><trkpt lat="44.5046679" lon="8.7103756"><ele>416.79999999999995</ele><time>2026-03-21T15:26:07.114Z</time></trkpt><trkpt lat="44.5046078" lon="8.710241"><ele>415.6</ele><time>2026-03-21T15:26:08.113Z</time></trkpt><trkpt lat="44.5045441" lon="8.7101148"><ele>414.4</ele><time>2026-03-21T15:26:09.114Z</time></trkpt><trkpt lat="44.5044699" lon="8.7100028"><ele>413.20000000000005</ele><time>2026-03-21T15:26:10.113Z</time></trkpt><trkpt lat="44.504381" lon="8.709915"><ele>412.0</ele><time>2026-03-21T15:26:11.114Z</time></trkpt><trkpt lat="44.5043051" lon="8.7098636"><ele>415.1666666666667</ele><time>2026-03-21T15:26:12.113Z</time></trkpt><trkpt lat="44.5042415" lon="8.7098581"><ele>418.33333333333337</ele><time>2026-03-21T15:26:13.114Z</time></trkpt><trkpt lat="44.5041684" lon="8.7098567"><ele>421.5</ele><time>2026-03-21T15:26:14.113Z</time></trkpt><trkpt lat="44.5041751" lon="8.709977"><ele>424.66666666666663</ele><time>2026-03-21T15:26:15.114Z</time></trkpt><trkpt lat="44.5041632" lon="8.7100787"><ele>427.8333333333333</ele><time>2026-03-21T15:26:16.114Z</time></trkpt><trkpt lat="44.5041504" lon="8.7102033"><ele>431.0</ele><time>2026-03-21T15:26:17.114Z</time></trkpt><trkpt lat="44.5041476" lon="8.710313"><ele>430.99999999999994</ele><time>2026-03-21T15:26:18.114Z</time></trkpt><trkpt lat="44.5041257" lon="8.7104044"><ele>431.0</ele><time>2026-03-21T15:26:19.113Z</time></trkpt><trkpt lat="44.5040744" lon="8.7105308"><ele>431.0</ele><time>2026-03-21T15:26:21.114Z</time></trkpt><trkpt lat="44.5039675" lon="8.7105909"><ele>431.0</ele><time>2026-03-21T15:26:23.113Z</time></trkpt><trkpt lat="44.5038984" lon="8.7105927"><ele>430.99999999999994</ele><time>2026-03-21T15:26:24.113Z</time></trkpt><trkpt lat="44.5038293" lon="8.7105764"><ele>431.0</ele><time>2026-03-21T15:26:25.114Z</time></trkpt><trkpt lat="44.5037059" lon="8.7105154"><ele>430.66666666666663</ele><time>2026-03-21T15:26:27.114Z</time></trkpt><trkpt lat="44.5036421" lon="8.7104576"><ele>430.3333333333333</ele><time>2026-03-21T15:26:28.114Z</time></trkpt><trkpt lat="44.5035462" lon="8.7103314"><ele>430.0</ele><time>2026-03-21T15:26:30.114Z</time></trkpt><trkpt lat="44.503498" lon="8.7102607"><ele>429.66666666666663</ele><time>2026-03-21T15:26:31.113Z</time></trkpt><trkpt lat="44.503449" lon="8.7101855"><ele>429.3333333333333</ele><time>2026-03-21T15:26:32.113Z</time></trkpt><trkpt lat="44.5034025" lon="8.7101083"><ele>429.0</ele><time>2026-03-21T15:26:33.113Z</time></trkpt><trkpt lat="44.5033518" lon="8.7100519"><ele>429.0</ele><time>2026-03-21T15:26:34.113Z</time></trkpt><trkpt lat="44.5032558" lon="8.7100064"><ele>429.0</ele><time>2026-03-21T15:26:36.114Z</time></trkpt><trkpt lat="44.50319" lon="8.7100671"><ele>429.0</ele><time>2026-03-21T15:26:37.114Z</time></trkpt><trkpt lat="44.5031287" lon="8.7101054"><ele>429.0</ele><time>2026-03-21T15:26:38.114Z</time></trkpt><trkpt lat="44.5030848" lon="8.7101762"><ele>429.0</ele><time>2026-03-21T15:26:39.114Z</time></trkpt><trkpt lat="44.5029935" lon="8.7102604"><ele>429.0</ele><time>2026-03-21T15:26:41.113Z</time></trkpt><trkpt lat="44.5029112" lon="8.7102332"><ele>430.1666666666667</ele><time>2026-03-21T15:26:44.114Z</time></trkpt><trkpt lat="44.5028166" lon="8.7102404"><ele>431.33333333333337</ele><time>2026-03-21T15:26:46.113Z</time></trkpt><trkpt lat="44.5027557" lon="8.7102648"><ele>432.5</ele><time>2026-03-21T15:26:47.113Z</time></trkpt><trkpt lat="44.5026827" lon="8.7102956"><ele>433.6666666666667</ele><time>2026-03-21T15:26:48.113Z</time></trkpt><trkpt lat="44.5026016" lon="8.7103372"><ele>434.83333333333337</ele><time>2026-03-21T15:26:49.114Z</time></trkpt><trkpt lat="44.5025167" lon="8.7103715"><ele>436.0</ele><time>2026-03-21T15:26:50.113Z</time></trkpt><trkpt lat="44.5024301" lon="8.7104048"><ele>436.0</ele><time>2026-03-21T15:26:51.113Z</time></trkpt><trkpt lat="44.5023284" lon="8.7104081"><ele>436.0</ele><time>2026-03-21T15:26:52.114Z</time></trkpt><trkpt lat="44.5022264" lon="8.7104223"><ele>436.0</ele><time>2026-03-21T15:26:53.114Z</time></trkpt><trkpt lat="44.5021209" lon="8.7104542"><ele>436.0</ele><time>2026-03-21T15:26:54.114Z</time></trkpt><trkpt lat="44.5020132" lon="8.7105027"><ele>436.0</ele><time>2026-03-21T15:26:55.113Z</time></trkpt><trkpt lat="44.5019091" lon="8.7105631"><ele>439.6</ele><time>2026-03-21T15:26:56.114Z</time></trkpt><trkpt lat="44.5018028" lon="8.7106314"><ele>443.20000000000005</ele><time>2026-03-21T15:26:57.114Z</time></trkpt><trkpt lat="44.501707" lon="8.7106912"><ele>446.79999999999995</ele><time>2026-03-21T15:26:58.114Z</time></trkpt><trkpt lat="44.5016139" lon="8.7107421"><ele>450.4</ele><time>2026-03-21T15:26:59.114Z</time></trkpt><trkpt lat="44.5015144" lon="8.7107965"><ele>454.0</ele><time>2026-03-21T15:27:00.114Z</time></trkpt><trkpt lat="44.5014143" lon="8.7108584"><ele>454.0</ele><time>2026-03-21T15:27:01.113Z</time></trkpt><trkpt lat="44.501313" lon="8.7109235"><ele>454.0</ele><time>2026-03-21T15:27:02.113Z</time></trkpt><trkpt lat="44.5012043" lon="8.7109708"><ele>454.0</ele><time>2026-03-21T15:27:03.114Z</time></trkpt><trkpt lat="44.5010925" lon="8.7110103"><ele>454.0</ele><time>2026-03-21T15:27:04.114Z</time></trkpt><trkpt lat="44.5009781" lon="8.7110387"><ele>459.0</ele><time>2026-03-21T15:27:05.114Z</time></trkpt><trkpt lat="44.5008684" lon="8.7110489"><ele>464.0</ele><time>2026-03-21T15:27:06.114Z</time></trkpt><trkpt lat="44.500762" lon="8.7110402"><ele>469.0</ele><time>2026-03-21T15:27:07.113Z</time></trkpt><trkpt lat="44.5006628" lon="8.710996"><ele>474.0</ele><time>2026-03-21T15:27:08.113Z</time></trkpt><trkpt lat="44.5005584" lon="8.7109816"><ele>479.0</ele><time>2026-03-21T15:27:09.114Z</time></trkpt><trkpt lat="44.5004547" lon="8.7109986"><ele>479.25</ele><time>2026-03-21T15:27:10.114Z</time></trkpt><trkpt lat="44.5003512" lon="8.7110548"><ele>479.5</ele><time>2026-03-21T15:27:11.114Z</time></trkpt><trkpt lat="44.5002463" lon="8.7111269"><ele>479.75</ele><time>2026-03-21T15:27:12.113Z</time></trkpt><trkpt lat="44.5001391" lon="8.7112089"><ele>480.0</ele><time>2026-03-21T15:27:13.113Z</time></trkpt><trkpt lat="44.500028" lon="8.7112789"><ele>480.0</ele><time>2026-03-21T15:27:14.113Z</time></trkpt><trkpt lat="44.4999168" lon="8.7113223"><ele>480.0</ele><time>2026-03-21T15:27:15.113Z</time></trkpt><trkpt lat="44.4997976" lon="8.7113344"><ele>480.0</ele><time>2026-03-21T15:27:16.114Z</time></trkpt><trkpt lat="44.4996853" lon="8.7113364"><ele>480.0</ele><time>2026-03-21T15:27:17.113Z</time></trkpt><trkpt lat="44.499569" lon="8.7113499"><ele>483.6</ele><time>2026-03-21T15:27:18.113Z</time></trkpt><trkpt lat="44.4994538" lon="8.7113923"><ele>487.2</ele><time>2026-03-21T15:27:19.113Z</time></trkpt><trkpt lat="44.4993453" lon="8.7114277"><ele>490.79999999999995</ele><time>2026-03-21T15:27:20.114Z</time></trkpt><trkpt lat="44.4992463" lon="8.7114448"><ele>494.4</ele><time>2026-03-21T15:27:21.113Z</time></trkpt><trkpt lat="44.4991567" lon="8.711417"><ele>498.0</ele><time>2026-03-21T15:27:22.113Z</time></trkpt><trkpt lat="44.4990616" lon="8.7114099"><ele>498.0</ele><time>2026-03-21T15:27:23.114Z</time></trkpt><trkpt lat="44.4989638" lon="8.7114297"><ele>497.99999999999994</ele><time>2026-03-21T15:27:24.114Z</time></trkpt><trkpt lat="44.4988678" lon="8.7114787"><ele>497.99999999999994</ele><time>2026-03-21T15:27:25.114Z</time></trkpt><trkpt lat="44.4987845" lon="8.7115662"><ele>498.0</ele><time>2026-03-21T15:27:26.114Z</time></trkpt><trkpt lat="44.4986921" lon="8.71164"><ele>498.0</ele><time>2026-03-21T15:27:27.114Z</time></trkpt><trkpt lat="44.4985968" lon="8.7116695"><ele>500.59999999999997</ele><time>2026-03-21T15:27:28.113Z</time></trkpt><trkpt lat="44.4985026" lon="8.7116829"><ele>503.19999999999993</ele><time>2026-03-21T15:27:29.113Z</time></trkpt><trkpt lat="44.4984024" lon="8.7116458"><ele>505.8</ele><time>2026-03-21T15:27:30.114Z</time></trkpt><trkpt lat="44.4982917" lon="8.7115964"><ele>508.4</ele><time>2026-03-21T15:27:31.114Z</time></trkpt><trkpt lat="44.4982252" lon="8.7115115"><ele>511.0</ele><time>2026-03-21T15:27:32.113Z</time></trkpt><trkpt lat="44.498143" lon="8.7114848"><ele>511.0</ele><time>2026-03-21T15:27:33.114Z</time></trkpt><trkpt lat="44.4980708" lon="8.7114771"><ele>511.0</ele><time>2026-03-21T15:27:34.113Z</time></trkpt><trkpt lat="44.4979951" lon="8.7115403"><ele>511.0</ele><time>2026-03-21T15:27:35.114Z</time></trkpt><trkpt lat="44.4979134" lon="8.7116232"><ele>511.0</ele><time>2026-03-21T15:27:36.114Z</time></trkpt><trkpt lat="44.4978325" lon="8.7117153"><ele>511.0</ele><time>2026-03-21T15:27:37.113Z</time></trkpt><trkpt lat="44.4977509" lon="8.7118072"><ele>510.4</ele><time>2026-03-21T15:27:38.113Z</time></trkpt><trkpt lat="44.4976613" lon="8.7118927"><ele>509.8</ele><time>2026-03-21T15:27:39.114Z</time></trkpt><trkpt lat="44.4975706" lon="8.7119749"><ele>509.19999999999993</ele><time>2026-03-21T15:27:40.114Z</time></trkpt><trkpt lat="44.4974771" lon="8.7120522"><ele>508.59999999999997</ele><time>2026-03-21T15:27:41.113Z</time></trkpt><trkpt lat="44.4973865" lon="8.7121364"><ele>508.0</ele><time>2026-03-21T15:27:42.113Z</time></trkpt><trkpt lat="44.4973018" lon="8.7122167"><ele>514.1999999999999</ele><time>2026-03-21T15:27:43.113Z</time></trkpt><trkpt lat="44.4972419" lon="8.7123188"><ele>520.4</ele><time>2026-03-21T15:27:44.114Z</time></trkpt><trkpt lat="44.4971958" lon="8.7124298"><ele>526.5999999999999</ele><time>2026-03-21T15:27:45.114Z</time></trkpt><trkpt lat="44.4971743" lon="8.7125667"><ele>532.8</ele><time>2026-03-21T15:27:46.114Z</time></trkpt><trkpt lat="44.497166" lon="8.7127228"><ele>539.0</ele><time>2026-03-21T15:27:47.113Z</time></trkpt><trkpt lat="44.4971543" lon="8.7128867"><ele>538.25</ele><time>2026-03-21T15:27:48.114Z</time></trkpt><trkpt lat="44.4971381" lon="8.7130558"><ele>537.5</ele><time>2026-03-21T15:27:49.113Z</time></trkpt><trkpt lat="44.4971092" lon="8.7132196"><ele>536.75</ele><time>2026-03-21T15:27:50.113Z</time></trkpt><trkpt lat="44.4970777" lon="8.713378"><ele>536.0</ele><time>2026-03-21T15:27:51.113Z</time></trkpt><trkpt lat="44.4970552" lon="8.7135273"><ele>540.6</ele><time>2026-03-21T15:27:52.113Z</time></trkpt><trkpt lat="44.4970582" lon="8.7136734"><ele>545.2</ele><time>2026-03-21T15:27:53.114Z</time></trkpt><trkpt lat="44.4970486" lon="8.7138137"><ele>549.8</ele><time>2026-03-21T15:27:54.114Z</time></trkpt><trkpt lat="44.4970121" lon="8.7139486"><ele>554.4</ele><time>2026-03-21T15:27:55.114Z</time></trkpt><trkpt lat="44.49695" lon="8.7140532"><ele>559.0</ele><time>2026-03-21T15:27:56.114Z</time></trkpt><trkpt lat="44.4968588" lon="8.7141219"><ele>559.0</ele><time>2026-03-21T15:27:57.113Z</time></trkpt><trkpt lat="44.4967585" lon="8.7141611"><ele>559.0</ele><time>2026-03-21T15:27:58.114Z</time></trkpt><trkpt lat="44.4966565" lon="8.7141674"><ele>559.0</ele><time>2026-03-21T15:27:59.114Z</time></trkpt><trkpt lat="44.4965473" lon="8.7141449"><ele>559.0</ele><time>2026-03-21T15:28:00.114Z</time></trkpt><trkpt lat="44.4964482" lon="8.7141178"><ele>559.0</ele><time>2026-03-21T15:28:01.114Z</time></trkpt><trkpt lat="44.4963509" lon="8.7141266"><ele>559.0</ele><time>2026-03-21T15:28:02.113Z</time></trkpt><trkpt lat="44.4962565" lon="8.71418"><ele>559.0</ele><time>2026-03-21T15:28:03.113Z</time></trkpt><trkpt lat="44.4961541" lon="8.7142267"><ele>559.0</ele><time>2026-03-21T15:28:04.114Z</time></trkpt><trkpt lat="44.4960426" lon="8.7142702"><ele>559.0</ele><time>2026-03-21T15:28:05.114Z</time></trkpt><trkpt lat="44.4959246" lon="8.7143263"><ele>559.75</ele><time>2026-03-21T15:28:06.114Z</time></trkpt><trkpt lat="44.4958073" lon="8.7143955"><ele>560.5</ele><time>2026-03-21T15:28:07.113Z</time></trkpt><trkpt lat="44.4956877" lon="8.7144687"><ele>561.25</ele><time>2026-03-21T15:28:08.114Z</time></trkpt><trkpt lat="44.4955621" lon="8.714527"><ele>562.0</ele><time>2026-03-21T15:28:09.114Z</time></trkpt><trkpt lat="44.4954308" lon="8.7145671"><ele>570.25</ele><time>2026-03-21T15:28:10.114Z</time></trkpt><trkpt lat="44.4953011" lon="8.7146124"><ele>578.5</ele><time>2026-03-21T15:28:11.114Z</time></trkpt><trkpt lat="44.4951666" lon="8.7146445"><ele>586.75</ele><time>2026-03-21T15:28:12.113Z</time></trkpt><trkpt lat="44.4950383" lon="8.714689"><ele>595.0</ele><time>2026-03-21T15:28:13.113Z</time></trkpt><trkpt lat="44.4949165" lon="8.7147326"><ele>595.0</ele><time>2026-03-21T15:28:14.113Z</time></trkpt><trkpt lat="44.4948041" lon="8.714782"><ele>595.0</ele><time>2026-03-21T15:28:15.113Z</time></trkpt><trkpt lat="44.4946957" lon="8.7148506"><ele>595.0</ele><time>2026-03-21T15:28:16.114Z</time></trkpt><trkpt lat="44.4945878" lon="8.7149248"><ele>595.0</ele><time>2026-03-21T15:28:17.114Z</time></trkpt><trkpt lat="44.4944804" lon="8.7149884"><ele>598.6</ele><time>2026-03-21T15:28:18.114Z</time></trkpt><trkpt lat="44.4943815" lon="8.7150532"><ele>602.2</ele><time>2026-03-21T15:28:19.113Z</time></trkpt><trkpt lat="44.4942958" lon="8.7151429"><ele>605.8</ele><time>2026-03-21T15:28:20.113Z</time></trkpt><trkpt lat="44.4942139" lon="8.7152358"><ele>609.4</ele><time>2026-03-21T15:28:21.113Z</time></trkpt><trkpt lat="44.4941362" lon="8.7153417"><ele>613.0</ele><time>2026-03-21T15:28:22.113Z</time></trkpt><trkpt lat="44.4940906" lon="8.7154335"><ele>613.0</ele><time>2026-03-21T15:28:23.113Z</time></trkpt><trkpt lat="44.4940759" lon="8.7155525"><ele>613.0</ele><time>2026-03-21T15:28:24.114Z</time></trkpt><trkpt lat="44.4940893" lon="8.7156726"><ele>613.0</ele><time>2026-03-21T15:28:25.113Z</time></trkpt><trkpt lat="44.4940972" lon="8.7157879"><ele>613.0</ele><time>2026-03-21T15:28:26.113Z</time></trkpt><trkpt lat="44.4940914" lon="8.7158847"><ele>613.0</ele><time>2026-03-21T15:28:27.113Z</time></trkpt><trkpt lat="44.4940645" lon="8.7159751"><ele>613.0</ele><time>2026-03-21T15:28:28.113Z</time></trkpt><trkpt lat="44.4940225" lon="8.7160491"><ele>612.6666666666667</ele><time>2026-03-21T15:28:29.113Z</time></trkpt><trkpt lat="44.4939609" lon="8.7161292"><ele>612.3333333333334</ele><time>2026-03-21T15:28:30.114Z</time></trkpt><trkpt lat="44.4938982" lon="8.7162056"><ele>612.0</ele><time>2026-03-21T15:28:31.113Z</time></trkpt><trkpt lat="44.4938302" lon="8.7162521"><ele>611.6666666666666</ele><time>2026-03-21T15:28:32.113Z</time></trkpt><trkpt lat="44.4937558" lon="8.7162864"><ele>611.3333333333333</ele><time>2026-03-21T15:28:33.113Z</time></trkpt><trkpt lat="44.4936655" lon="8.716292"><ele>611.0</ele><time>2026-03-21T15:28:34.114Z</time></trkpt><trkpt lat="44.4935752" lon="8.716269"><ele>612.2</ele><time>2026-03-21T15:28:35.114Z</time></trkpt><trkpt lat="44.4934807" lon="8.7162457"><ele>613.4000000000001</ele><time>2026-03-21T15:28:36.114Z</time></trkpt><trkpt lat="44.4933867" lon="8.716235"><ele>614.6</ele><time>2026-03-21T15:28:37.114Z</time></trkpt><trkpt lat="44.4932864" lon="8.7162327"><ele>615.8000000000001</ele><time>2026-03-21T15:28:38.114Z</time></trkpt><trkpt lat="44.4931902" lon="8.7162512"><ele>617.0</ele><time>2026-03-21T15:28:39.113Z</time></trkpt><trkpt lat="44.4930948" lon="8.7162698"><ele>617.0</ele><time>2026-03-21T15:28:40.113Z</time></trkpt><trkpt lat="44.4929966" lon="8.7162994"><ele>617.0</ele><time>2026-03-21T15:28:41.113Z</time></trkpt><trkpt lat="44.4929045" lon="8.7163296"><ele>617.0</ele><time>2026-03-21T15:28:42.113Z</time></trkpt><trkpt lat="44.4928145" lon="8.716359"><ele>617.0</ele><time>2026-03-21T15:28:43.113Z</time></trkpt><trkpt lat="44.4927418" lon="8.7163716"><ele>617.0</ele><time>2026-03-21T15:28:44.114Z</time></trkpt><trkpt lat="44.4926611" lon="8.7163666"><ele>617.0</ele><time>2026-03-21T15:28:46.113Z</time></trkpt><trkpt lat="44.4925823" lon="8.7163178"><ele>620.0</ele><time>2026-03-21T15:28:51.114Z</time></trkpt><trkpt lat="44.4924859" lon="8.7162739"><ele>623.0</ele><time>2026-03-21T15:28:53.113Z</time></trkpt><trkpt lat="44.4923812" lon="8.7162907"><ele>626.0</ele><time>2026-03-21T15:28:55.114Z</time></trkpt><trkpt lat="44.4923292" lon="8.7163409"><ele>629.0</ele><time>2026-03-21T15:28:56.113Z</time></trkpt><trkpt lat="44.4922788" lon="8.7164142"><ele>632.0</ele><time>2026-03-21T15:28:57.114Z</time></trkpt><trkpt lat="44.4922226" lon="8.7164963"><ele>635.0</ele><time>2026-03-21T15:28:58.113Z</time></trkpt><trkpt lat="44.4921617" lon="8.7165606"><ele>635.0</ele><time>2026-03-21T15:28:59.113Z</time></trkpt><trkpt lat="44.4921067" lon="8.7166097"><ele>635.0</ele><time>2026-03-21T15:29:00.113Z</time></trkpt><trkpt lat="44.4920148" lon="8.7166644"><ele>635.0</ele><time>2026-03-21T15:29:02.114Z</time></trkpt><trkpt lat="44.4919178" lon="8.716617"><ele>635.0</ele><time>2026-03-21T15:29:04.114Z</time></trkpt><trkpt lat="44.491854" lon="8.7166279"><ele>635.0</ele><time>2026-03-21T15:29:05.113Z</time></trkpt><trkpt lat="44.4917881" lon="8.7166685"><ele>635.0</ele><time>2026-03-21T15:29:06.114Z</time></trkpt><trkpt lat="44.4917224" lon="8.716718"><ele>635.6666666666666</ele><time>2026-03-21T15:29:07.114Z</time></trkpt><trkpt lat="44.4916511" lon="8.7167568"><ele>636.3333333333333</ele><time>2026-03-21T15:29:08.113Z</time></trkpt><trkpt lat="44.4915698" lon="8.7167762"><ele>637.0</ele><time>2026-03-21T15:29:09.114Z</time></trkpt><trkpt lat="44.4914838" lon="8.7167716"><ele>637.6666666666666</ele><time>2026-03-21T15:29:10.114Z</time></trkpt><trkpt lat="44.4913929" lon="8.7167591"><ele>638.3333333333334</ele><time>2026-03-21T15:29:11.114Z</time></trkpt><trkpt lat="44.4913004" lon="8.7167655"><ele>639.0</ele><time>2026-03-21T15:29:12.114Z</time></trkpt><trkpt lat="44.4912263" lon="8.716773"><ele>640.6</ele><time>2026-03-21T15:29:13.113Z</time></trkpt><trkpt lat="44.4911296" lon="8.7168826"><ele>642.2</ele><time>2026-03-21T15:29:15.113Z</time></trkpt><trkpt lat="44.4911265" lon="8.7169873"><ele>643.8000000000001</ele><time>2026-03-21T15:29:16.113Z</time></trkpt><trkpt lat="44.4911159" lon="8.7171032"><ele>645.4</ele><time>2026-03-21T15:29:17.113Z</time></trkpt><trkpt lat="44.4911147" lon="8.7172312"><ele>647.0</ele><time>2026-03-21T15:29:18.114Z</time></trkpt><trkpt lat="44.4911014" lon="8.7173727"><ele>647.25</ele><time>2026-03-21T15:29:19.113Z</time></trkpt><trkpt lat="44.4910844" lon="8.717517"><ele>647.5</ele><time>2026-03-21T15:29:20.113Z</time></trkpt><trkpt lat="44.4910588" lon="8.7176724"><ele>647.75</ele><time>2026-03-21T15:29:21.114Z</time></trkpt><trkpt lat="44.491009" lon="8.7178257"><ele>648.0</ele><time>2026-03-21T15:29:22.113Z</time></trkpt><trkpt lat="44.4909407" lon="8.7179819"><ele>645.25</ele><time>2026-03-21T15:29:23.113Z</time></trkpt><trkpt lat="44.4908592" lon="8.7181309"><ele>642.5</ele><time>2026-03-21T15:29:24.114Z</time></trkpt><trkpt lat="44.4907788" lon="8.7182928"><ele>639.75</ele><time>2026-03-21T15:29:25.113Z</time></trkpt><trkpt lat="44.4906948" lon="8.7184462"><ele>637.0</ele><time>2026-03-21T15:29:26.114Z</time></trkpt><trkpt lat="44.4905972" lon="8.718619"><ele>632.3333333333334</ele><time>2026-03-21T15:29:27.113Z</time></trkpt><trkpt lat="44.4904994" lon="8.718799"><ele>627.6666666666666</ele><time>2026-03-21T15:29:28.113Z</time></trkpt><trkpt lat="44.4904052" lon="8.7189753"><ele>623.0</ele><time>2026-03-21T15:29:29.113Z</time></trkpt><trkpt lat="44.4903373" lon="8.7191372"><ele>627.0</ele><time>2026-03-21T15:29:30.114Z</time></trkpt><trkpt lat="44.4902834" lon="8.7192966"><ele>631.0</ele><time>2026-03-21T15:29:31.114Z</time></trkpt><trkpt lat="44.4902256" lon="8.7194452"><ele>635.0</ele><time>2026-03-21T15:29:32.113Z</time></trkpt><trkpt lat="44.4901531" lon="8.7195716"><ele>639.0</ele><time>2026-03-21T15:29:33.114Z</time></trkpt><trkpt lat="44.490072" lon="8.7196591"><ele>639.0</ele><time>2026-03-21T15:29:34.113Z</time></trkpt><trkpt lat="44.4899763" lon="8.719698"><ele>639.0</ele><time>2026-03-21T15:29:35.114Z</time></trkpt><trkpt lat="44.4898784" lon="8.7196918"><ele>639.0</ele><time>2026-03-21T15:29:36.114Z</time></trkpt><trkpt lat="44.4897784" lon="8.7196957"><ele>639.0</ele><time>2026-03-21T15:29:37.114Z</time></trkpt><trkpt lat="44.4896797" lon="8.7197514"><ele>639.0</ele><time>2026-03-21T15:29:38.113Z</time></trkpt><trkpt lat="44.4895921" lon="8.7198289"><ele>642.0</ele><time>2026-03-21T15:29:39.113Z</time></trkpt><trkpt lat="44.4895075" lon="8.7199511"><ele>645.0</ele><time>2026-03-21T15:29:40.113Z</time></trkpt><trkpt lat="44.4894095" lon="8.720074"><ele>648.0</ele><time>2026-03-21T15:29:41.113Z</time></trkpt><trkpt lat="44.4893036" lon="8.7201906"><ele>651.0</ele><time>2026-03-21T15:29:42.113Z</time></trkpt><trkpt lat="44.4891942" lon="8.7202878"><ele>648.75</ele><time>2026-03-21T15:29:43.114Z</time></trkpt><trkpt lat="44.4890726" lon="8.7203607"><ele>646.5</ele><time>2026-03-21T15:29:44.113Z</time></trkpt><trkpt lat="44.4889508" lon="8.7204046"><ele>644.25</ele><time>2026-03-21T15:29:45.113Z</time></trkpt><trkpt lat="44.4888345" lon="8.7204598"><ele>642.0</ele><time>2026-03-21T15:29:46.113Z</time></trkpt><trkpt lat="44.4887367" lon="8.7205476"><ele>642.0</ele><time>2026-03-21T15:29:47.113Z</time></trkpt><trkpt lat="44.4886543" lon="8.7206792"><ele>642.0</ele><time>2026-03-21T15:29:48.114Z</time></trkpt><trkpt lat="44.4885734" lon="8.7208276"><ele>642.0</ele><time>2026-03-21T15:29:49.113Z</time></trkpt><trkpt lat="44.4884892" lon="8.7209552"><ele>642.0</ele><time>2026-03-21T15:29:50.114Z</time></trkpt><trkpt lat="44.4884009" lon="8.7210825"><ele>635.25</ele><time>2026-03-21T15:29:51.113Z</time></trkpt><trkpt lat="44.4883016" lon="8.7211766"><ele>628.5</ele><time>2026-03-21T15:29:52.114Z</time></trkpt><trkpt lat="44.4881858" lon="8.721231"><ele>621.75</ele><time>2026-03-21T15:29:53.114Z</time></trkpt><trkpt lat="44.4880591" lon="8.7212853"><ele>615.0</ele><time>2026-03-21T15:29:54.114Z</time></trkpt><trkpt lat="44.4879373" lon="8.7213866"><ele>614.75</ele><time>2026-03-21T15:29:55.114Z</time></trkpt><trkpt lat="44.4878231" lon="8.7215094"><ele>614.5</ele><time>2026-03-21T15:29:56.114Z</time></trkpt><trkpt lat="44.4877281" lon="8.7216416"><ele>614.25</ele><time>2026-03-21T15:29:57.114Z</time></trkpt><trkpt lat="44.4876546" lon="8.7217769"><ele>614.0</ele><time>2026-03-21T15:29:58.113Z</time></trkpt><trkpt lat="44.487588" lon="8.7218998"><ele>614.0</ele><time>2026-03-21T15:29:59.113Z</time></trkpt><trkpt lat="44.487529" lon="8.7219927"><ele>614.0</ele><time>2026-03-21T15:30:00.114Z</time></trkpt><trkpt lat="44.4874562" lon="8.7220814"><ele>614.0</ele><time>2026-03-21T15:30:02.113Z</time></trkpt><trkpt lat="44.4873729" lon="8.7220588"><ele>614.0</ele><time>2026-03-21T15:30:10.113Z</time></trkpt><trkpt lat="44.4873019" lon="8.7220216"><ele>614.0</ele><time>2026-03-21T15:30:11.114Z</time></trkpt><trkpt lat="44.4872037" lon="8.7219817"><ele>614.0</ele><time>2026-03-21T15:30:12.113Z</time></trkpt><trkpt lat="44.4870932" lon="8.7219332"><ele>616.3333333333333</ele><time>2026-03-21T15:30:13.113Z</time></trkpt><trkpt lat="44.4869689" lon="8.7218475"><ele>618.6666666666666</ele><time>2026-03-21T15:30:14.113Z</time></trkpt><trkpt lat="44.486827" lon="8.7217323"><ele>621.0</ele><time>2026-03-21T15:30:15.114Z</time></trkpt><trkpt lat="44.4866821" lon="8.7216152"><ele>621.0</ele><time>2026-03-21T15:30:16.113Z</time></trkpt><trkpt lat="44.4865531" lon="8.7215142"><ele>621.0</ele><time>2026-03-21T15:30:17.114Z</time></trkpt><trkpt lat="44.4864373" lon="8.7214145"><ele>621.0</ele><time>2026-03-21T15:30:18.113Z</time></trkpt><trkpt lat="44.4863616" lon="8.7212971"><ele>621.0</ele><time>2026-03-21T15:30:19.114Z</time></trkpt><trkpt lat="44.4863266" lon="8.7211568"><ele>626.5</ele><time>2026-03-21T15:30:20.113Z</time></trkpt><trkpt lat="44.4863039" lon="8.7209535"><ele>632.0</ele><time>2026-03-21T15:30:21.113Z</time></trkpt><trkpt lat="44.486287" lon="8.7207622"><ele>637.5</ele><time>2026-03-21T15:30:22.113Z</time></trkpt><trkpt lat="44.4862818" lon="8.7205859"><ele>643.0</ele><time>2026-03-21T15:30:23.114Z</time></trkpt><trkpt lat="44.4862967" lon="8.7204351"><ele>643.0</ele><time>2026-03-21T15:30:24.113Z</time></trkpt><trkpt lat="44.4863526" lon="8.720268"><ele>643.0</ele><time>2026-03-21T15:30:25.113Z</time></trkpt><trkpt lat="44.4864398" lon="8.7200725"><ele>643.0</ele><time>2026-03-21T15:30:26.114Z</time></trkpt><trkpt lat="44.4865187" lon="8.7198495"><ele>643.6666666666667</ele><time>2026-03-21T15:30:27.113Z</time></trkpt><trkpt lat="44.4865979" lon="8.7196118"><ele>644.3333333333334</ele><time>2026-03-21T15:30:28.114Z</time></trkpt><trkpt lat="44.4866934" lon="8.7193974"><ele>645.0</ele><time>2026-03-21T15:30:29.114Z</time></trkpt><trkpt lat="44.4867891" lon="8.7192133"><ele>641.5</ele><time>2026-03-21T15:30:30.114Z</time></trkpt><trkpt lat="44.4868589" lon="8.719055"><ele>638.0</ele><time>2026-03-21T15:30:31.114Z</time></trkpt><trkpt lat="44.4868936" lon="8.7188956"><ele>634.5</ele><time>2026-03-21T15:30:32.114Z</time></trkpt><trkpt lat="44.4868901" lon="8.7187425"><ele>631.0</ele><time>2026-03-21T15:30:33.113Z</time></trkpt><trkpt lat="44.4868404" lon="8.71859"><ele>632.3333333333334</ele><time>2026-03-21T15:30:34.114Z</time></trkpt><trkpt lat="44.4867863" lon="8.7183968"><ele>633.6666666666666</ele><time>2026-03-21T15:30:35.113Z</time></trkpt><trkpt lat="44.486771" lon="8.7181827"><ele>635.0</ele><time>2026-03-21T15:30:36.114Z</time></trkpt><trkpt lat="44.486778" lon="8.7179579"><ele>637.6666666666666</ele><time>2026-03-21T15:30:37.114Z</time></trkpt><trkpt lat="44.4867965" lon="8.7177097"><ele>640.3333333333334</ele><time>2026-03-21T15:30:38.114Z</time></trkpt><trkpt lat="44.4868105" lon="8.717485"><ele>643.0</ele><time>2026-03-21T15:30:39.114Z</time></trkpt><trkpt lat="44.4868162" lon="8.7172777"><ele>643.0</ele><time>2026-03-21T15:30:40.114Z</time></trkpt><trkpt lat="44.4867909" lon="8.7170947"><ele>643.0</ele><time>2026-03-21T15:30:41.113Z</time></trkpt><trkpt lat="44.4867249" lon="8.7169346"><ele>643.0</ele><time>2026-03-21T15:30:42.113Z</time></trkpt><trkpt lat="44.4866227" lon="8.7168316"><ele>643.0</ele><time>2026-03-21T15:30:43.114Z</time></trkpt><trkpt lat="44.4865224" lon="8.7167222"><ele>645.6666666666667</ele><time>2026-03-21T15:30:44.113Z</time></trkpt><trkpt lat="44.486385" lon="8.7166562"><ele>648.3333333333334</ele><time>2026-03-21T15:30:45.113Z</time></trkpt><trkpt lat="44.4862009" lon="8.7166149"><ele>651.0</ele><time>2026-03-21T15:30:46.114Z</time></trkpt><trkpt lat="44.4859326" lon="8.7166436"><ele>651.0</ele><time>2026-03-21T15:30:47.114Z</time></trkpt><trkpt lat="44.4857643" lon="8.7166247"><ele>651.0</ele><time>2026-03-21T15:30:48.113Z</time></trkpt><trkpt lat="44.4856253" lon="8.7166012"><ele>651.0</ele><time>2026-03-21T15:30:49.113Z</time></trkpt><trkpt lat="44.4855316" lon="8.7165461"><ele>651.0</ele><time>2026-03-21T15:30:50.113Z</time></trkpt><trkpt lat="44.4854914" lon="8.7164398"><ele>651.0</ele><time>2026-03-21T15:30:51.114Z</time></trkpt><trkpt lat="44.4855027" lon="8.7163337"><ele>651.0</ele><time>2026-03-21T15:30:52.114Z</time></trkpt><trkpt lat="44.4855704" lon="8.7162158"><ele>651.0</ele><time>2026-03-21T15:30:53.114Z</time></trkpt><trkpt lat="44.4856809" lon="8.7160759"><ele>651.0</ele><time>2026-03-21T15:30:54.113Z</time></trkpt><trkpt lat="44.4858094" lon="8.7159118"><ele>653.0</ele><time>2026-03-21T15:30:55.113Z</time></trkpt><trkpt lat="44.4859162" lon="8.7157549"><ele>655.0</ele><time>2026-03-21T15:30:56.113Z</time></trkpt><trkpt lat="44.4859907" lon="8.7155894"><ele>657.0</ele><time>2026-03-21T15:30:57.113Z</time></trkpt><trkpt lat="44.4860203" lon="8.7154106"><ele>659.0</ele><time>2026-03-21T15:30:58.114Z</time></trkpt><trkpt lat="44.4860083" lon="8.7152385"><ele>660.75</ele><time>2026-03-21T15:30:59.113Z</time></trkpt><trkpt lat="44.4859568" lon="8.7150792"><ele>662.5</ele><time>2026-03-21T15:31:00.114Z</time></trkpt><trkpt lat="44.4858687" lon="8.7149575"><ele>664.25</ele><time>2026-03-21T15:31:01.113Z</time></trkpt><trkpt lat="44.48575" lon="8.7148769"><ele>666.0</ele><time>2026-03-21T15:31:02.114Z</time></trkpt><trkpt lat="44.4855867" lon="8.7148194"><ele>666.0</ele><time>2026-03-21T15:31:03.114Z</time></trkpt><trkpt lat="44.4854337" lon="8.7147749"><ele>666.0</ele><time>2026-03-21T15:31:04.113Z</time></trkpt><trkpt lat="44.4853349" lon="8.7147302"><ele>666.0</ele><time>2026-03-21T15:31:05.114Z</time></trkpt><trkpt lat="44.4852347" lon="8.7146841"><ele>666.0</ele><time>2026-03-21T15:31:07.113Z</time></trkpt><trkpt lat="44.4851703" lon="8.7146749"><ele>666.0</ele><time>2026-03-21T15:31:16.114Z</time></trkpt><trkpt lat="44.4851114" lon="8.714621"><ele>664.1999999999999</ele><time>2026-03-21T15:31:18.114Z</time></trkpt><trkpt lat="44.4850316" lon="8.7145637"><ele>662.4</ele><time>2026-03-21T15:31:20.114Z</time></trkpt><trkpt lat="44.484927" lon="8.7145175"><ele>660.6</ele><time>2026-03-21T15:31:43.114Z</time></trkpt><trkpt lat="44.4848214" lon="8.7145009"><ele>658.8</ele><time>2026-03-21T15:31:45.113Z</time></trkpt><trkpt lat="44.4847465" lon="8.7144941"><ele>657.0</ele><time>2026-03-21T15:31:46.113Z</time></trkpt><trkpt lat="44.4846733" lon="8.7144766"><ele>657.0</ele><time>2026-03-21T15:31:47.113Z</time></trkpt><trkpt lat="44.484606" lon="8.714426"><ele>657.0</ele><time>2026-03-21T15:31:48.114Z</time></trkpt><trkpt lat="44.4845349" lon="8.7143452"><ele>657.0</ele><time>2026-03-21T15:31:49.114Z</time></trkpt><trkpt lat="44.4844756" lon="8.7142227"><ele>657.0</ele><time>2026-03-21T15:31:50.113Z</time></trkpt><trkpt lat="44.4844245" lon="8.7141147"><ele>657.0</ele><time>2026-03-21T15:31:51.114Z</time></trkpt><trkpt lat="44.4843821" lon="8.7140135"><ele>657.8</ele><time>2026-03-21T15:31:52.114Z</time></trkpt><trkpt lat="44.4843283" lon="8.7139275"><ele>658.6</ele><time>2026-03-21T15:31:53.113Z</time></trkpt><trkpt lat="44.4842586" lon="8.7138621"><ele>659.4</ele><time>2026-03-21T15:31:54.114Z</time></trkpt><trkpt lat="44.4841699" lon="8.7138272"><ele>660.1999999999999</ele><time>2026-03-21T15:31:55.113Z</time></trkpt><trkpt lat="44.4840687" lon="8.7138123"><ele>661.0</ele><time>2026-03-21T15:31:56.114Z</time></trkpt><trkpt lat="44.4839549" lon="8.7137964"><ele>661.0</ele><time>2026-03-21T15:31:57.114Z</time></trkpt><trkpt lat="44.4838417" lon="8.7137737"><ele>661.0</ele><time>2026-03-21T15:31:58.114Z</time></trkpt><trkpt lat="44.4837325" lon="8.7137588"><ele>661.0</ele><time>2026-03-21T15:31:59.114Z</time></trkpt><trkpt lat="44.4836282" lon="8.7137551"><ele>661.0</ele><time>2026-03-21T15:32:00.113Z</time></trkpt><trkpt lat="44.4835355" lon="8.7137269"><ele>661.0</ele><time>2026-03-21T15:32:01.114Z</time></trkpt><trkpt lat="44.4834622" lon="8.7136852"><ele>658.5999999999999</ele><time>2026-03-21T15:32:02.113Z</time></trkpt><trkpt lat="44.4833949" lon="8.7136501"><ele>656.2</ele><time>2026-03-21T15:32:03.113Z</time></trkpt><trkpt lat="44.4833155" lon="8.7136498"><ele>653.8</ele><time>2026-03-21T15:32:04.114Z</time></trkpt><trkpt lat="44.4832206" lon="8.7136815"><ele>651.4000000000001</ele><time>2026-03-21T15:32:05.114Z</time></trkpt><trkpt lat="44.4831194" lon="8.7137188"><ele>649.0</ele><time>2026-03-21T15:32:06.113Z</time></trkpt><trkpt lat="44.4830084" lon="8.7137907"><ele>653.0</ele><time>2026-03-21T15:32:07.114Z</time></trkpt><trkpt lat="44.4828999" lon="8.7138789"><ele>657.0</ele><time>2026-03-21T15:32:08.114Z</time></trkpt><trkpt lat="44.4827827" lon="8.7139875"><ele>661.0</ele><time>2026-03-21T15:32:09.114Z</time></trkpt><trkpt lat="44.4826515" lon="8.7141133"><ele>665.0</ele><time>2026-03-21T15:32:10.114Z</time></trkpt><trkpt lat="44.482521" lon="8.7142326"><ele>665.0</ele><time>2026-03-21T15:32:11.114Z</time></trkpt><trkpt lat="44.4823953" lon="8.7143537"><ele>665.0</ele><time>2026-03-21T15:32:12.113Z</time></trkpt><trkpt lat="44.4822796" lon="8.7144575"><ele>665.0</ele><time>2026-03-21T15:32:13.113Z</time></trkpt><trkpt lat="44.4821695" lon="8.7145518"><ele>665.0</ele><time>2026-03-21T15:32:14.113Z</time></trkpt><trkpt lat="44.4820579" lon="8.7146241"><ele>660.2</ele><time>2026-03-21T15:32:15.113Z</time></trkpt><trkpt lat="44.4819474" lon="8.7146655"><ele>655.4</ele><time>2026-03-21T15:32:16.113Z</time></trkpt><trkpt lat="44.4818429" lon="8.7146865"><ele>650.5999999999999</ele><time>2026-03-21T15:32:17.113Z</time></trkpt><trkpt lat="44.4817458" lon="8.7147012"><ele>645.8</ele><time>2026-03-21T15:32:18.114Z</time></trkpt><trkpt lat="44.4816649" lon="8.7146625"><ele>641.0</ele><time>2026-03-21T15:32:19.113Z</time></trkpt><trkpt lat="44.4815937" lon="8.7146118"><ele>641.0</ele><time>2026-03-21T15:32:20.114Z</time></trkpt><trkpt lat="44.4815438" lon="8.7145196"><ele>641.0</ele><time>2026-03-21T15:32:21.114Z</time></trkpt><trkpt lat="44.4815057" lon="8.7144107"><ele>641.0</ele><time>2026-03-21T15:32:22.114Z</time></trkpt><trkpt lat="44.4814626" lon="8.7142854"><ele>641.0</ele><time>2026-03-21T15:32:23.114Z</time></trkpt><trkpt lat="44.4814113" lon="8.714183"><ele>641.0</ele><time>2026-03-21T15:32:24.114Z</time></trkpt><trkpt lat="44.4813559" lon="8.7141045"><ele>641.0</ele><time>2026-03-21T15:32:25.114Z</time></trkpt><trkpt lat="44.4812252" lon="8.7140699"><ele>640.6666666666666</ele><time>2026-03-21T15:32:27.113Z</time></trkpt><trkpt lat="44.4811571" lon="8.7140838"><ele>640.3333333333333</ele><time>2026-03-21T15:32:28.113Z</time></trkpt><trkpt lat="44.4810702" lon="8.7141079"><ele>640.0</ele><time>2026-03-21T15:32:29.114Z</time></trkpt><trkpt lat="44.4809844" lon="8.7141189"><ele>639.6666666666666</ele><time>2026-03-21T15:32:30.114Z</time></trkpt><trkpt lat="44.4809201" lon="8.7141018"><ele>639.3333333333334</ele><time>2026-03-21T15:32:31.113Z</time></trkpt><trkpt lat="44.4808568" lon="8.7139835"><ele>639.0</ele><time>2026-03-21T15:32:33.113Z</time></trkpt><trkpt lat="44.4808158" lon="8.7138927"><ele>639.0</ele><time>2026-03-21T15:32:34.114Z</time></trkpt><trkpt lat="44.4807543" lon="8.7138131"><ele>639.0</ele><time>2026-03-21T15:32:35.113Z</time></trkpt><trkpt lat="44.4806716" lon="8.7137488"><ele>639.0</ele><time>2026-03-21T15:32:36.114Z</time></trkpt><trkpt lat="44.4805975" lon="8.7136799"><ele>639.0</ele><time>2026-03-21T15:32:37.114Z</time></trkpt><trkpt lat="44.4805267" lon="8.7136355"><ele>639.0</ele><time>2026-03-21T15:32:38.113Z</time></trkpt><trkpt lat="44.4804527" lon="8.7135741"><ele>639.0</ele><time>2026-03-21T15:32:39.114Z</time></trkpt><trkpt lat="44.4803682" lon="8.7135467"><ele>639.8333333333334</ele><time>2026-03-21T15:32:40.114Z</time></trkpt><trkpt lat="44.4802787" lon="8.7135087"><ele>640.6666666666666</ele><time>2026-03-21T15:32:41.114Z</time></trkpt><trkpt lat="44.480205" lon="8.7134663"><ele>641.5</ele><time>2026-03-21T15:32:42.113Z</time></trkpt><trkpt lat="44.4801411" lon="8.713461"><ele>642.3333333333333</ele><time>2026-03-21T15:32:43.113Z</time></trkpt><trkpt lat="44.4800721" lon="8.7134784"><ele>643.1666666666666</ele><time>2026-03-21T15:32:44.114Z</time></trkpt><trkpt lat="44.480024" lon="8.7136591"><ele>644.0</ele><time>2026-03-21T15:32:46.114Z</time></trkpt><trkpt lat="44.4800038" lon="8.7137868"><ele>644.0</ele><time>2026-03-21T15:32:47.114Z</time></trkpt><trkpt lat="44.4799813" lon="8.7139278"><ele>644.0</ele><time>2026-03-21T15:32:48.114Z</time></trkpt><trkpt lat="44.4799583" lon="8.7140663"><ele>644.0</ele><time>2026-03-21T15:32:49.113Z</time></trkpt><trkpt lat="44.479916" lon="8.7142123"><ele>644.0</ele><time>2026-03-21T15:32:50.114Z</time></trkpt><trkpt lat="44.4798768" lon="8.7143498"><ele>644.0</ele><time>2026-03-21T15:32:51.114Z</time></trkpt><trkpt lat="44.4798342" lon="8.7144806"><ele>640.8333333333333</ele><time>2026-03-21T15:32:52.113Z</time></trkpt><trkpt lat="44.4797877" lon="8.7145991"><ele>637.6666666666666</ele><time>2026-03-21T15:32:53.113Z</time></trkpt><trkpt lat="44.4797425" lon="8.7146932"><ele>634.5</ele><time>2026-03-21T15:32:54.114Z</time></trkpt><trkpt lat="44.4796838" lon="8.7147651"><ele>631.3333333333334</ele><time>2026-03-21T15:32:55.114Z</time></trkpt><trkpt lat="44.479564" lon="8.7148129"><ele>628.1666666666667</ele><time>2026-03-21T15:32:57.114Z</time></trkpt><trkpt lat="44.4795037" lon="8.7147647"><ele>625.0</ele><time>2026-03-21T15:32:58.114Z</time></trkpt><trkpt lat="44.4794239" lon="8.7147085"><ele>624.6</ele><time>2026-03-21T15:32:59.113Z</time></trkpt><trkpt lat="44.4793444" lon="8.7146434"><ele>624.2</ele><time>2026-03-21T15:33:00.113Z</time></trkpt><trkpt lat="44.479256" lon="8.7145809"><ele>623.8</ele><time>2026-03-21T15:33:01.113Z</time></trkpt><trkpt lat="44.4791683" lon="8.7145197"><ele>623.4</ele><time>2026-03-21T15:33:02.113Z</time></trkpt><trkpt lat="44.4790891" lon="8.7144588"><ele>623.0</ele><time>2026-03-21T15:33:03.114Z</time></trkpt><trkpt lat="44.4790002" lon="8.7144313"><ele>623.0</ele><time>2026-03-21T15:33:04.113Z</time></trkpt><trkpt lat="44.4789176" lon="8.7144298"><ele>623.0</ele><time>2026-03-21T15:33:05.113Z</time></trkpt><trkpt lat="44.4788266" lon="8.7144344"><ele>623.0</ele><time>2026-03-21T15:33:06.114Z</time></trkpt><trkpt lat="44.4787399" lon="8.714441"><ele>623.0</ele><time>2026-03-21T15:33:07.113Z</time></trkpt><trkpt lat="44.4786509" lon="8.71443"><ele>623.0</ele><time>2026-03-21T15:33:08.114Z</time></trkpt><trkpt lat="44.4785591" lon="8.7144202"><ele>623.0</ele><time>2026-03-21T15:33:09.113Z</time></trkpt><trkpt lat="44.4784812" lon="8.7144018"><ele>627.8333333333333</ele><time>2026-03-21T15:33:10.114Z</time></trkpt><trkpt lat="44.4784046" lon="8.7143652"><ele>632.6666666666666</ele><time>2026-03-21T15:33:11.113Z</time></trkpt><trkpt lat="44.4783409" lon="8.7143099"><ele>637.5</ele><time>2026-03-21T15:33:12.114Z</time></trkpt><trkpt lat="44.4782901" lon="8.7142555"><ele>642.3333333333334</ele><time>2026-03-21T15:33:13.113Z</time></trkpt><trkpt lat="44.4782316" lon="8.7142138"><ele>647.1666666666667</ele><time>2026-03-21T15:33:14.113Z</time></trkpt><trkpt lat="44.4781145" lon="8.7142355"><ele>652.0</ele><time>2026-03-21T15:33:16.114Z</time></trkpt><trkpt lat="44.4780443" lon="8.7143629"><ele>651.3333333333334</ele><time>2026-03-21T15:33:18.113Z</time></trkpt><trkpt lat="44.4780164" lon="8.714448"><ele>650.6666666666667</ele><time>2026-03-21T15:33:19.114Z</time></trkpt><trkpt lat="44.4779618" lon="8.7145368"><ele>650.0</ele><time>2026-03-21T15:33:21.113Z</time></trkpt><trkpt lat="44.4778807" lon="8.7145865"><ele>649.3333333333334</ele><time>2026-03-21T15:39:50.113Z</time></trkpt><trkpt lat="44.4778431" lon="8.7146848"><ele>648.6666666666666</ele><time>2026-03-21T15:39:52.113Z</time></trkpt><trkpt lat="44.4778008" lon="8.7147771"><ele>648.0</ele><time>2026-03-21T15:39:54.113Z</time></trkpt><trkpt lat="44.477766" lon="8.714866"><ele>648.0</ele><time>2026-03-21T15:40:06.114Z</time></trkpt><trkpt lat="44.4777291" lon="8.7149891"><ele>648.0</ele><time>2026-03-21T15:40:08.114Z</time></trkpt><trkpt lat="44.4777039" lon="8.7150709"><ele>648.0</ele><time>2026-03-21T15:40:09.113Z</time></trkpt><trkpt lat="44.4776745" lon="8.7151614"><ele>648.0</ele><time>2026-03-21T15:40:10.114Z</time></trkpt><trkpt lat="44.4776468" lon="8.715244"><ele>648.0</ele><time>2026-03-21T15:40:11.113Z</time></trkpt><trkpt lat="44.4776189" lon="8.7153457"><ele>648.0</ele><time>2026-03-21T15:40:12.114Z</time></trkpt><trkpt lat="44.4775912" lon="8.7154479"><ele>645.1666666666666</ele><time>2026-03-21T15:40:13.113Z</time></trkpt><trkpt lat="44.4775608" lon="8.7155582"><ele>642.3333333333334</ele><time>2026-03-21T15:40:14.114Z</time></trkpt><trkpt lat="44.477534" lon="8.7156557"><ele>639.5</ele><time>2026-03-21T15:40:15.114Z</time></trkpt><trkpt lat="44.4775049" lon="8.7157621"><ele>636.6666666666667</ele><time>2026-03-21T15:40:16.113Z</time></trkpt><trkpt lat="44.4774778" lon="8.7158609"><ele>633.8333333333334</ele><time>2026-03-21T15:40:17.114Z</time></trkpt><trkpt lat="44.477444" lon="8.7159514"><ele>631.0</ele><time>2026-03-21T15:40:18.114Z</time></trkpt><trkpt lat="44.4774029" lon="8.7160282"><ele>628.8333333333334</ele><time>2026-03-21T15:40:19.114Z</time></trkpt><trkpt lat="44.4773501" lon="8.7160949"><ele>626.6666666666667</ele><time>2026-03-21T15:40:20.114Z</time></trkpt><trkpt lat="44.4772911" lon="8.7161642"><ele>624.5</ele><time>2026-03-21T15:40:21.113Z</time></trkpt><trkpt lat="44.4772381" lon="8.7162433"><ele>622.3333333333334</ele><time>2026-03-21T15:40:22.113Z</time></trkpt><trkpt lat="44.4771833" lon="8.7163299"><ele>620.1666666666666</ele><time>2026-03-21T15:40:23.113Z</time></trkpt><trkpt lat="44.4771306" lon="8.7164209"><ele>618.0</ele><time>2026-03-21T15:40:24.114Z</time></trkpt><trkpt lat="44.477085" lon="8.7165216"><ele>617.5</ele><time>2026-03-21T15:40:25.114Z</time></trkpt><trkpt lat="44.4770395" lon="8.7166156"><ele>617.0</ele><time>2026-03-21T15:40:26.113Z</time></trkpt><trkpt lat="44.4770001" lon="8.7166901"><ele>616.5</ele><time>2026-03-21T15:40:27.114Z</time></trkpt><trkpt lat="44.4769162" lon="8.7167852"><ele>616.0</ele><time>2026-03-21T15:40:29.114Z</time></trkpt><trkpt lat="44.4768336" lon="8.7166908"><ele>615.5</ele><time>2026-03-21T15:40:31.114Z</time></trkpt><trkpt lat="44.4767996" lon="8.7166"><ele>615.0</ele><time>2026-03-21T15:40:32.113Z</time></trkpt><trkpt lat="44.4767543" lon="8.7165051"><ele>615.0</ele><time>2026-03-21T15:40:33.113Z</time></trkpt><trkpt lat="44.4766987" lon="8.7163929"><ele>615.0</ele><time>2026-03-21T15:40:34.114Z</time></trkpt><trkpt lat="44.4766383" lon="8.7162886"><ele>615.0</ele><time>2026-03-21T15:40:35.113Z</time></trkpt><trkpt lat="44.4765718" lon="8.7161834"><ele>615.0</ele><time>2026-03-21T15:40:36.113Z</time></trkpt><trkpt lat="44.4765112" lon="8.7160723"><ele>615.0</ele><time>2026-03-21T15:40:37.114Z</time></trkpt><trkpt lat="44.4764619" lon="8.7159821"><ele>615.6666666666666</ele><time>2026-03-21T15:40:38.113Z</time></trkpt><trkpt lat="44.4764172" lon="8.7158967"><ele>616.3333333333334</ele><time>2026-03-21T15:40:39.114Z</time></trkpt><trkpt lat="44.476365" lon="8.7158345"><ele>617.0</ele><time>2026-03-21T15:40:40.114Z</time></trkpt><trkpt lat="44.4762769" lon="8.715792"><ele>617.6666666666667</ele><time>2026-03-21T15:40:42.113Z</time></trkpt><trkpt lat="44.4762033" lon="8.7158526"><ele>618.3333333333334</ele><time>2026-03-21T15:40:43.114Z</time></trkpt><trkpt lat="44.4761124" lon="8.7159453"><ele>619.0</ele><time>2026-03-21T15:40:45.113Z</time></trkpt><trkpt lat="44.4760642" lon="8.7160154"><ele>614.4</ele><time>2026-03-21T15:40:46.113Z</time></trkpt><trkpt lat="44.475942" lon="8.7161094"><ele>609.8</ele><time>2026-03-21T15:40:48.113Z</time></trkpt><trkpt lat="44.4758755" lon="8.7161217"><ele>605.2</ele><time>2026-03-21T15:40:49.113Z</time></trkpt><trkpt lat="44.4758035" lon="8.7161011"><ele>600.6</ele><time>2026-03-21T15:40:50.113Z</time></trkpt><trkpt lat="44.475711" lon="8.7160968"><ele>596.0</ele><time>2026-03-21T15:40:51.113Z</time></trkpt><trkpt lat="44.4756309" lon="8.7160904"><ele>596.8333333333333</ele><time>2026-03-21T15:40:52.114Z</time></trkpt><trkpt lat="44.4755578" lon="8.7160619"><ele>597.6666666666666</ele><time>2026-03-21T15:40:53.113Z</time></trkpt><trkpt lat="44.4754964" lon="8.7160146"><ele>598.5</ele><time>2026-03-21T15:40:54.114Z</time></trkpt><trkpt lat="44.4753927" lon="8.71603"><ele>599.3333333333334</ele><time>2026-03-21T15:40:56.113Z</time></trkpt><trkpt lat="44.4752999" lon="8.7161404"><ele>600.1666666666667</ele><time>2026-03-21T15:40:58.113Z</time></trkpt><trkpt lat="44.4752368" lon="8.7161915"><ele>601.0</ele><time>2026-03-21T15:40:59.113Z</time></trkpt><trkpt lat="44.4751721" lon="8.716217"><ele>601.0</ele><time>2026-03-21T15:41:00.114Z</time></trkpt><trkpt lat="44.4750559" lon="8.7162173"><ele>601.0</ele><time>2026-03-21T15:41:02.114Z</time></trkpt><trkpt lat="44.47495" lon="8.71622"><ele>601.0</ele><time>2026-03-21T15:41:04.113Z</time></trkpt><trkpt lat="44.4748777" lon="8.7162673"><ele>601.0</ele><time>2026-03-21T15:41:05.113Z</time></trkpt><trkpt lat="44.474808" lon="8.7164145"><ele>601.0</ele><time>2026-03-21T15:41:07.113Z</time></trkpt><trkpt lat="44.4747797" lon="8.7165539"><ele>601.0</ele><time>2026-03-21T15:41:09.113Z</time></trkpt><trkpt lat="44.4748198" lon="8.7167063"><ele>601.0</ele><time>2026-03-21T15:41:11.114Z</time></trkpt><trkpt lat="44.4748618" lon="8.7168556"><ele>601.0</ele><time>2026-03-21T15:41:13.114Z</time></trkpt><trkpt lat="44.4748758" lon="8.7170033"><ele>601.0</ele><time>2026-03-21T15:41:15.113Z</time></trkpt><trkpt lat="44.474885" lon="8.7170988"><ele>601.0</ele><time>2026-03-21T15:41:16.113Z</time></trkpt><trkpt lat="44.4748748" lon="8.7172218"><ele>598.8333333333334</ele><time>2026-03-21T15:41:17.113Z</time></trkpt><trkpt lat="44.4748501" lon="8.7173309"><ele>596.6666666666667</ele><time>2026-03-21T15:41:18.114Z</time></trkpt><trkpt lat="44.4748284" lon="8.7174429"><ele>594.5</ele><time>2026-03-21T15:41:19.114Z</time></trkpt><trkpt lat="44.4747972" lon="8.7175574"><ele>592.3333333333334</ele><time>2026-03-21T15:41:20.113Z</time></trkpt><trkpt lat="44.4747646" lon="8.7176608"><ele>590.1666666666666</ele><time>2026-03-21T15:41:21.114Z</time></trkpt><trkpt lat="44.4747247" lon="8.7177604"><ele>588.0</ele><time>2026-03-21T15:41:22.113Z</time></trkpt><trkpt lat="44.4746863" lon="8.7178615"><ele>588.8333333333334</ele><time>2026-03-21T15:41:23.113Z</time></trkpt><trkpt lat="44.4746433" lon="8.7179584"><ele>589.6666666666666</ele><time>2026-03-21T15:41:24.114Z</time></trkpt><trkpt lat="44.4746007" lon="8.7180593"><ele>590.5</ele><time>2026-03-21T15:41:25.113Z</time></trkpt><trkpt lat="44.4745585" lon="8.7181578"><ele>591.3333333333333</ele><time>2026-03-21T15:41:26.114Z</time></trkpt><trkpt lat="44.4745058" lon="8.7182551"><ele>592.1666666666666</ele><time>2026-03-21T15:41:27.114Z</time></trkpt><trkpt lat="44.4744647" lon="8.7183486"><ele>593.0</ele><time>2026-03-21T15:41:28.113Z</time></trkpt><trkpt lat="44.4744298" lon="8.718439"><ele>593.0</ele><time>2026-03-21T15:41:29.113Z</time></trkpt><trkpt lat="44.4743968" lon="8.7185208"><ele>593.0</ele><time>2026-03-21T15:41:30.114Z</time></trkpt><trkpt lat="44.4743629" lon="8.7185995"><ele>593.0</ele><time>2026-03-21T15:41:31.113Z</time></trkpt><trkpt lat="44.4742779" lon="8.7187133"><ele>593.0</ele><time>2026-03-21T15:41:33.113Z</time></trkpt><trkpt lat="44.4742218" lon="8.718768"><ele>593.0</ele><time>2026-03-21T15:41:34.114Z</time></trkpt><trkpt lat="44.4741506" lon="8.7188254"><ele>593.0</ele><time>2026-03-21T15:41:35.113Z</time></trkpt><trkpt lat="44.4740743" lon="8.7188764"><ele>590.3333333333333</ele><time>2026-03-21T15:41:36.114Z</time></trkpt><trkpt lat="44.4739968" lon="8.7189291"><ele>587.6666666666666</ele><time>2026-03-21T15:41:37.114Z</time></trkpt><trkpt lat="44.4739156" lon="8.7189838"><ele>585.0</ele><time>2026-03-21T15:41:38.113Z</time></trkpt><trkpt lat="44.4738358" lon="8.719029"><ele>582.3333333333334</ele><time>2026-03-21T15:41:39.113Z</time></trkpt><trkpt lat="44.4737576" lon="8.719082"><ele>579.6666666666667</ele><time>2026-03-21T15:41:40.113Z</time></trkpt><trkpt lat="44.4736835" lon="8.7191212"><ele>577.0</ele><time>2026-03-21T15:41:41.114Z</time></trkpt><trkpt lat="44.4736049" lon="8.7191714"><ele>577.0</ele><time>2026-03-21T15:41:42.114Z</time></trkpt><trkpt lat="44.4735222" lon="8.719228"><ele>577.0</ele><time>2026-03-21T15:41:43.114Z</time></trkpt><trkpt lat="44.4734386" lon="8.7192876"><ele>577.0</ele><time>2026-03-21T15:41:44.114Z</time></trkpt><trkpt lat="44.4733525" lon="8.7193527"><ele>577.0</ele><time>2026-03-21T15:41:45.113Z</time></trkpt><trkpt lat="44.473276" lon="8.7194358"><ele>577.0</ele><time>2026-03-21T15:41:46.114Z</time></trkpt><trkpt lat="44.4732034" lon="8.7194944"><ele>575.1666666666667</ele><time>2026-03-21T15:41:47.113Z</time></trkpt><trkpt lat="44.4731311" lon="8.7195803"><ele>573.3333333333334</ele><time>2026-03-21T15:41:48.113Z</time></trkpt><trkpt lat="44.4730555" lon="8.7196566"><ele>571.5</ele><time>2026-03-21T15:41:49.114Z</time></trkpt><trkpt lat="44.4729853" lon="8.7197346"><ele>569.6666666666666</ele><time>2026-03-21T15:41:50.114Z</time></trkpt><trkpt lat="44.4729182" lon="8.7198179"><ele>567.8333333333333</ele><time>2026-03-21T15:41:51.114Z</time></trkpt><trkpt lat="44.4728548" lon="8.71988"><ele>566.0</ele><time>2026-03-21T15:41:52.113Z</time></trkpt><trkpt lat="44.4727884" lon="8.7199472"><ele>566.0</ele><time>2026-03-21T15:41:53.114Z</time></trkpt><trkpt lat="44.4727179" lon="8.7200175"><ele>566.0</ele><time>2026-03-21T15:41:54.113Z</time></trkpt><trkpt lat="44.4726486" lon="8.7200647"><ele>566.0</ele><time>2026-03-21T15:41:55.113Z</time></trkpt><trkpt lat="44.4725689" lon="8.7201088"><ele>566.0</ele><time>2026-03-21T15:41:56.114Z</time></trkpt><trkpt lat="44.4724917" lon="8.7201337"><ele>566.0</ele><time>2026-03-21T15:41:57.114Z</time></trkpt><trkpt lat="44.4724053" lon="8.7201535"><ele>566.0</ele><time>2026-03-21T15:41:58.113Z</time></trkpt><trkpt lat="44.4723272" lon="8.7201643"><ele>566.0</ele><time>2026-03-21T15:41:59.113Z</time></trkpt><trkpt lat="44.4722384" lon="8.7201637"><ele>566.0</ele><time>2026-03-21T15:42:00.113Z</time></trkpt><trkpt lat="44.4721435" lon="8.7201493"><ele>566.0</ele><time>2026-03-21T15:42:01.114Z</time></trkpt><trkpt lat="44.4720481" lon="8.7201353"><ele>566.0</ele><time>2026-03-21T15:42:02.114Z</time></trkpt><trkpt lat="44.4719507" lon="8.7201023"><ele>566.0</ele><time>2026-03-21T15:42:03.114Z</time></trkpt><trkpt lat="44.4718533" lon="8.7200994"><ele>565.3333333333333</ele><time>2026-03-21T15:42:04.113Z</time></trkpt><trkpt lat="44.4717575" lon="8.7201017"><ele>564.6666666666666</ele><time>2026-03-21T15:42:05.113Z</time></trkpt><trkpt lat="44.4716635" lon="8.7201056"><ele>564.0</ele><time>2026-03-21T15:42:06.113Z</time></trkpt><trkpt lat="44.471569" lon="8.7201314"><ele>563.3333333333334</ele><time>2026-03-21T15:42:07.113Z</time></trkpt><trkpt lat="44.4714866" lon="8.7201443"><ele>562.6666666666667</ele><time>2026-03-21T15:42:08.113Z</time></trkpt><trkpt lat="44.4714065" lon="8.7201466"><ele>562.0</ele><time>2026-03-21T15:42:09.113Z</time></trkpt><trkpt lat="44.4713397" lon="8.7201388"><ele>561.1666666666667</ele><time>2026-03-21T15:42:10.113Z</time></trkpt><trkpt lat="44.4712713" lon="8.7201103"><ele>560.3333333333334</ele><time>2026-03-21T15:42:11.113Z</time></trkpt><trkpt lat="44.4712013" lon="8.7200938"><ele>559.5</ele><time>2026-03-21T15:42:12.113Z</time></trkpt><trkpt lat="44.4710845" lon="8.7200301"><ele>558.6666666666666</ele><time>2026-03-21T15:42:14.114Z</time></trkpt><trkpt lat="44.4710198" lon="8.7200371"><ele>557.8333333333333</ele><time>2026-03-21T15:42:15.114Z</time></trkpt><trkpt lat="44.4709558" lon="8.7200718"><ele>557.0</ele><time>2026-03-21T15:42:16.114Z</time></trkpt><trkpt lat="44.4708762" lon="8.7201214"><ele>557.0</ele><time>2026-03-21T15:42:17.114Z</time></trkpt><trkpt lat="44.4707988" lon="8.7201477"><ele>557.0</ele><time>2026-03-21T15:42:18.114Z</time></trkpt><trkpt lat="44.4707191" lon="8.7201844"><ele>557.0</ele><time>2026-03-21T15:42:19.113Z</time></trkpt><trkpt lat="44.4706439" lon="8.7202006"><ele>557.0</ele><time>2026-03-21T15:42:20.114Z</time></trkpt><trkpt lat="44.4705641" lon="8.7202006"><ele>557.0</ele><time>2026-03-21T15:42:21.114Z</time></trkpt><trkpt lat="44.4704856" lon="8.7201702"><ele>557.0</ele><time>2026-03-21T15:42:22.114Z</time></trkpt><trkpt lat="44.470401" lon="8.7201377"><ele>557.0</ele><time>2026-03-21T15:42:23.114Z</time></trkpt><trkpt lat="44.470309" lon="8.720089"><ele>557.0</ele><time>2026-03-21T15:42:24.114Z</time></trkpt><trkpt lat="44.4702081" lon="8.7200484"><ele>557.0</ele><time>2026-03-21T15:42:25.114Z</time></trkpt><trkpt lat="44.4701046" lon="8.7200189"><ele>557.0</ele><time>2026-03-21T15:42:26.113Z</time></trkpt><trkpt lat="44.4699992" lon="8.7200015"><ele>557.0</ele><time>2026-03-21T15:42:27.114Z</time></trkpt><trkpt lat="44.4698969" lon="8.7199927"><ele>557.0</ele><time>2026-03-21T15:42:28.113Z</time></trkpt><trkpt lat="44.4698014" lon="8.7199935"><ele>557.0</ele><time>2026-03-21T15:42:29.113Z</time></trkpt><trkpt lat="44.4697135" lon="8.7199865"><ele>557.0</ele><time>2026-03-21T15:42:30.113Z</time></trkpt><trkpt lat="44.4696252" lon="8.7199794"><ele>557.0</ele><time>2026-03-21T15:42:31.113Z</time></trkpt><trkpt lat="44.4695447" lon="8.7199517"><ele>557.0</ele><time>2026-03-21T15:42:32.113Z</time></trkpt><trkpt lat="44.4694588" lon="8.719929"><ele>557.0</ele><time>2026-03-21T15:42:33.114Z</time></trkpt><trkpt lat="44.4693755" lon="8.7198978"><ele>555.0</ele><time>2026-03-21T15:42:34.113Z</time></trkpt><trkpt lat="44.4692814" lon="8.7198767"><ele>553.0</ele><time>2026-03-21T15:42:35.114Z</time></trkpt><trkpt lat="44.4691806" lon="8.719855"><ele>551.0</ele><time>2026-03-21T15:42:36.114Z</time></trkpt><trkpt lat="44.469063" lon="8.7198328"><ele>549.0</ele><time>2026-03-21T15:42:37.114Z</time></trkpt><trkpt lat="44.4689346" lon="8.7198088"><ele>547.0</ele><time>2026-03-21T15:42:38.113Z</time></trkpt><trkpt lat="44.4688024" lon="8.7197885"><ele>544.5</ele><time>2026-03-21T15:42:39.113Z</time></trkpt><trkpt lat="44.4686789" lon="8.7197723"><ele>542.0</ele><time>2026-03-21T15:42:40.114Z</time></trkpt><trkpt lat="44.4685611" lon="8.7197384"><ele>539.5</ele><time>2026-03-21T15:42:41.114Z</time></trkpt><trkpt lat="44.4684512" lon="8.7197247"><ele>537.0</ele><time>2026-03-21T15:42:42.114Z</time></trkpt><trkpt lat="44.4683348" lon="8.7197"><ele>537.0</ele><time>2026-03-21T15:42:43.114Z</time></trkpt><trkpt lat="44.4682279" lon="8.7196703"><ele>537.0</ele><time>2026-03-21T15:42:44.114Z</time></trkpt><trkpt lat="44.4681153" lon="8.7196289"><ele>537.0</ele><time>2026-03-21T15:42:45.113Z</time></trkpt><trkpt lat="44.4680118" lon="8.7196027"><ele>537.0</ele><time>2026-03-21T15:42:46.113Z</time></trkpt><trkpt lat="44.4679059" lon="8.7195713"><ele>537.0</ele><time>2026-03-21T15:42:47.113Z</time></trkpt><trkpt lat="44.4677993" lon="8.7195539"><ele>537.0</ele><time>2026-03-21T15:42:48.114Z</time></trkpt><trkpt lat="44.4676919" lon="8.7195259"><ele>537.0</ele><time>2026-03-21T15:42:49.114Z</time></trkpt><trkpt lat="44.4675795" lon="8.7195081"><ele>537.0</ele><time>2026-03-21T15:42:50.114Z</time></trkpt><trkpt lat="44.4674712" lon="8.7194902"><ele>537.0</ele><time>2026-03-21T15:42:51.114Z</time></trkpt><trkpt lat="44.4673773" lon="8.7194524"><ele>537.0</ele><time>2026-03-21T15:42:52.113Z</time></trkpt><trkpt lat="44.467292" lon="8.7194123"><ele>536.4</ele><time>2026-03-21T15:42:53.114Z</time></trkpt><trkpt lat="44.4672049" lon="8.71937"><ele>535.8000000000001</ele><time>2026-03-21T15:42:54.114Z</time></trkpt><trkpt lat="44.4671105" lon="8.7193463"><ele>535.2</ele><time>2026-03-21T15:42:55.114Z</time></trkpt><trkpt lat="44.4670139" lon="8.7193577"><ele>534.6</ele><time>2026-03-21T15:42:56.114Z</time></trkpt><trkpt lat="44.4669166" lon="8.7193769"><ele>534.0</ele><time>2026-03-21T15:42:57.114Z</time></trkpt><trkpt lat="44.4668114" lon="8.7193957"><ele>535.6</ele><time>2026-03-21T15:42:58.114Z</time></trkpt><trkpt lat="44.466711" lon="8.7193903"><ele>537.2</ele><time>2026-03-21T15:42:59.113Z</time></trkpt><trkpt lat="44.4666152" lon="8.7193823"><ele>538.8000000000001</ele><time>2026-03-21T15:43:00.114Z</time></trkpt><trkpt lat="44.4665276" lon="8.7193771"><ele>540.4</ele><time>2026-03-21T15:43:01.114Z</time></trkpt><trkpt lat="44.4664356" lon="8.7193792"><ele>542.0</ele><time>2026-03-21T15:43:02.113Z</time></trkpt><trkpt lat="44.4663463" lon="8.7193872"><ele>544.6</ele><time>2026-03-21T15:43:03.114Z</time></trkpt><trkpt lat="44.4662544" lon="8.7194018"><ele>547.2</ele><time>2026-03-21T15:43:04.113Z</time></trkpt><trkpt lat="44.4661591" lon="8.7194198"><ele>549.8</ele><time>2026-03-21T15:43:05.113Z</time></trkpt><trkpt lat="44.4660649" lon="8.7194449"><ele>552.4</ele><time>2026-03-21T15:43:06.113Z</time></trkpt><trkpt lat="44.4659738" lon="8.7194619"><ele>555.0</ele><time>2026-03-21T15:43:07.113Z</time></trkpt><trkpt lat="44.4658823" lon="8.7194611"><ele>555.0</ele><time>2026-03-21T15:43:08.114Z</time></trkpt><trkpt lat="44.4657935" lon="8.7194371"><ele>555.0</ele><time>2026-03-21T15:43:09.113Z</time></trkpt><trkpt lat="44.4657111" lon="8.7193883"><ele>555.0</ele><time>2026-03-21T15:43:10.114Z</time></trkpt><trkpt lat="44.4656193" lon="8.7193481"><ele>555.0</ele><time>2026-03-21T15:43:11.114Z</time></trkpt><trkpt lat="44.4655262" lon="8.7193366"><ele>555.0</ele><time>2026-03-21T15:43:12.114Z</time></trkpt><trkpt lat="44.4654261" lon="8.7193267"><ele>552.4</ele><time>2026-03-21T15:43:13.114Z</time></trkpt><trkpt lat="44.4653235" lon="8.7193153"><ele>549.8</ele><time>2026-03-21T15:43:14.114Z</time></trkpt><trkpt lat="44.4652136" lon="8.7193066"><ele>547.2</ele><time>2026-03-21T15:43:15.114Z</time></trkpt><trkpt lat="44.4651173" lon="8.7192886"><ele>544.6</ele><time>2026-03-21T15:43:16.114Z</time></trkpt><trkpt lat="44.4650289" lon="8.7192831"><ele>542.0</ele><time>2026-03-21T15:43:17.113Z</time></trkpt><trkpt lat="44.4649377" lon="8.7192907"><ele>542.0</ele><time>2026-03-21T15:43:18.114Z</time></trkpt><trkpt lat="44.4648505" lon="8.7193099"><ele>542.0</ele><time>2026-03-21T15:43:19.114Z</time></trkpt><trkpt lat="44.4647447" lon="8.7193568"><ele>542.0</ele><time>2026-03-21T15:43:20.113Z</time></trkpt><trkpt lat="44.4646266" lon="8.7193892"><ele>542.0</ele><time>2026-03-21T15:43:21.113Z</time></trkpt><trkpt lat="44.4645184" lon="8.7194116"><ele>542.0</ele><time>2026-03-21T15:43:22.114Z</time></trkpt><trkpt lat="44.4644084" lon="8.7194266"><ele>543.6</ele><time>2026-03-21T15:43:23.113Z</time></trkpt><trkpt lat="44.4643081" lon="8.7194306"><ele>545.2</ele><time>2026-03-21T15:43:24.113Z</time></trkpt><trkpt lat="44.464214" lon="8.7194608"><ele>546.8</ele><time>2026-03-21T15:43:25.114Z</time></trkpt><trkpt lat="44.4641348" lon="8.7195131"><ele>548.4</ele><time>2026-03-21T15:43:26.114Z</time></trkpt><trkpt lat="44.4640596" lon="8.7195834"><ele>550.0</ele><time>2026-03-21T15:43:27.114Z</time></trkpt><trkpt lat="44.4638988" lon="8.7197633"><ele>550.0</ele><time>2026-03-21T15:43:29.114Z</time></trkpt><trkpt lat="44.4637998" lon="8.7198273"><ele>550.0</ele><time>2026-03-21T15:43:30.113Z</time></trkpt><trkpt lat="44.463693" lon="8.719916"><ele>550.0</ele><time>2026-03-21T15:43:31.113Z</time></trkpt><trkpt lat="44.4635986" lon="8.71999"><ele>550.0</ele><time>2026-03-21T15:43:32.113Z</time></trkpt><trkpt lat="44.4635147" lon="8.7200411"><ele>550.0</ele><time>2026-03-21T15:43:33.113Z</time></trkpt><trkpt lat="44.4634423" lon="8.7200686"><ele>549.3333333333334</ele><time>2026-03-21T15:43:34.113Z</time></trkpt><trkpt lat="44.4633696" lon="8.7200741"><ele>548.6666666666667</ele><time>2026-03-21T15:43:35.113Z</time></trkpt><trkpt lat="44.4632936" lon="8.7200605"><ele>548.0</ele><time>2026-03-21T15:43:36.114Z</time></trkpt><trkpt lat="44.463217" lon="8.7200274"><ele>547.3333333333334</ele><time>2026-03-21T15:43:37.113Z</time></trkpt><trkpt lat="44.4631336" lon="8.7199823"><ele>546.6666666666666</ele><time>2026-03-21T15:43:38.113Z</time></trkpt><trkpt lat="44.463036" lon="8.7199542"><ele>546.0</ele><time>2026-03-21T15:43:39.113Z</time></trkpt><trkpt lat="44.4629268" lon="8.7199326"><ele>545.0</ele><time>2026-03-21T15:43:40.113Z</time></trkpt><trkpt lat="44.4628035" lon="8.7199332"><ele>544.0</ele><time>2026-03-21T15:43:41.114Z</time></trkpt><trkpt lat="44.4626817" lon="8.7199426"><ele>543.0</ele><time>2026-03-21T15:43:42.114Z</time></trkpt><trkpt lat="44.4625573" lon="8.719972"><ele>542.0</ele><time>2026-03-21T15:43:43.114Z</time></trkpt><trkpt lat="44.4624411" lon="8.7200068"><ele>542.0</ele><time>2026-03-21T15:43:44.114Z</time></trkpt><trkpt lat="44.4623281" lon="8.7200533"><ele>542.0</ele><time>2026-03-21T15:43:45.114Z</time></trkpt><trkpt lat="44.4622201" lon="8.720108"><ele>542.0</ele><time>2026-03-21T15:43:46.113Z</time></trkpt><trkpt lat="44.4621133" lon="8.7201585"><ele>542.0</ele><time>2026-03-21T15:43:47.113Z</time></trkpt><trkpt lat="44.4620088" lon="8.7201805"><ele>540.8000000000001</ele><time>2026-03-21T15:43:48.113Z</time></trkpt><trkpt lat="44.4619062" lon="8.7201896"><ele>539.6</ele><time>2026-03-21T15:43:49.113Z</time></trkpt><trkpt lat="44.4618037" lon="8.7201947"><ele>538.4000000000001</ele><time>2026-03-21T15:43:50.113Z</time></trkpt><trkpt lat="44.4617" lon="8.7201904"><ele>537.2</ele><time>2026-03-21T15:43:51.114Z</time></trkpt><trkpt lat="44.4615915" lon="8.720174"><ele>536.0</ele><time>2026-03-21T15:43:52.114Z</time></trkpt><trkpt lat="44.461476" lon="8.7201451"><ele>536.0</ele><time>2026-03-21T15:43:53.114Z</time></trkpt><trkpt lat="44.4613542" lon="8.7201218"><ele>536.0</ele><time>2026-03-21T15:43:54.113Z</time></trkpt><trkpt lat="44.46123" lon="8.7201151"><ele>536.0</ele><time>2026-03-21T15:43:55.114Z</time></trkpt><trkpt lat="44.4611077" lon="8.7201191"><ele>536.0</ele><time>2026-03-21T15:43:56.113Z</time></trkpt><trkpt lat="44.4610006" lon="8.7201292"><ele>534.3333333333333</ele><time>2026-03-21T15:43:57.114Z</time></trkpt><trkpt lat="44.46091" lon="8.7201447"><ele>532.6666666666666</ele><time>2026-03-21T15:43:58.113Z</time></trkpt><trkpt lat="44.4608288" lon="8.7201809"><ele>531.0</ele><time>2026-03-21T15:43:59.114Z</time></trkpt><trkpt lat="44.4607602" lon="8.7202496"><ele>529.3333333333334</ele><time>2026-03-21T15:44:00.113Z</time></trkpt><trkpt lat="44.46069" lon="8.7203318"><ele>527.6666666666667</ele><time>2026-03-21T15:44:01.114Z</time></trkpt><trkpt lat="44.4606123" lon="8.7204067"><ele>526.0</ele><time>2026-03-21T15:44:02.114Z</time></trkpt><trkpt lat="44.4605336" lon="8.7204699"><ele>525.8</ele><time>2026-03-21T15:44:03.114Z</time></trkpt><trkpt lat="44.4604568" lon="8.720535"><ele>525.6</ele><time>2026-03-21T15:44:04.114Z</time></trkpt><trkpt lat="44.460381" lon="8.7205875"><ele>525.4</ele><time>2026-03-21T15:44:05.114Z</time></trkpt><trkpt lat="44.460312" lon="8.7206228"><ele>525.2</ele><time>2026-03-21T15:44:06.114Z</time></trkpt><trkpt lat="44.4601983" lon="8.7206681"><ele>525.0</ele><time>2026-03-21T15:44:08.113Z</time></trkpt><trkpt lat="44.4600751" lon="8.7206847"><ele>525.0</ele><time>2026-03-21T15:44:10.113Z</time></trkpt><trkpt lat="44.4599992" lon="8.7207028"><ele>525.0</ele><time>2026-03-21T15:44:11.113Z</time></trkpt><trkpt lat="44.4599306" lon="8.7207279"><ele>525.0</ele><time>2026-03-21T15:44:12.113Z</time></trkpt><trkpt lat="44.4598402" lon="8.7207524"><ele>525.0</ele><time>2026-03-21T15:44:13.113Z</time></trkpt><trkpt lat="44.4597606" lon="8.7207897"><ele>525.0</ele><time>2026-03-21T15:44:14.114Z</time></trkpt><trkpt lat="44.4596794" lon="8.7208305"><ele>525.0</ele><time>2026-03-21T15:44:15.113Z</time></trkpt><trkpt lat="44.4595927" lon="8.7208751"><ele>524.8</ele><time>2026-03-21T15:44:16.114Z</time></trkpt><trkpt lat="44.4595093" lon="8.7209026"><ele>524.6</ele><time>2026-03-21T15:44:17.114Z</time></trkpt><trkpt lat="44.4594215" lon="8.7209218"><ele>524.4</ele><time>2026-03-21T15:44:18.113Z</time></trkpt><trkpt lat="44.4593205" lon="8.7209277"><ele>524.2</ele><time>2026-03-21T15:44:19.113Z</time></trkpt><trkpt lat="44.4592183" lon="8.7209387"><ele>524.0</ele><time>2026-03-21T15:44:20.114Z</time></trkpt><trkpt lat="44.4591153" lon="8.7209422"><ele>524.0</ele><time>2026-03-21T15:44:21.114Z</time></trkpt><trkpt lat="44.459014" lon="8.7209251"><ele>524.0</ele><time>2026-03-21T15:44:22.114Z</time></trkpt><trkpt lat="44.4589163" lon="8.7209112"><ele>524.0</ele><time>2026-03-21T15:44:23.113Z</time></trkpt><trkpt lat="44.4588194" lon="8.720898"><ele>524.0</ele><time>2026-03-21T15:44:24.113Z</time></trkpt><trkpt lat="44.4587232" lon="8.7208931"><ele>524.0</ele><time>2026-03-21T15:44:25.113Z</time></trkpt><trkpt lat="44.4586283" lon="8.7208948"><ele>522.4</ele><time>2026-03-21T15:44:26.114Z</time></trkpt><trkpt lat="44.4585352" lon="8.7209017"><ele>520.8</ele><time>2026-03-21T15:44:27.113Z</time></trkpt><trkpt lat="44.4584359" lon="8.720907"><ele>519.2</ele><time>2026-03-21T15:44:28.114Z</time></trkpt><trkpt lat="44.4583429" lon="8.7209169"><ele>517.6</ele><time>2026-03-21T15:44:29.114Z</time></trkpt><trkpt lat="44.4582477" lon="8.7209233"><ele>516.0</ele><time>2026-03-21T15:44:30.113Z</time></trkpt><trkpt lat="44.4581501" lon="8.7209335"><ele>516.0</ele><time>2026-03-21T15:44:31.114Z</time></trkpt><trkpt lat="44.4580529" lon="8.7209404"><ele>516.0</ele><time>2026-03-21T15:44:32.114Z</time></trkpt><trkpt lat="44.4579564" lon="8.7209448"><ele>516.0</ele><time>2026-03-21T15:44:33.113Z</time></trkpt><trkpt lat="44.4578581" lon="8.7209528"><ele>516.0</ele><time>2026-03-21T15:44:34.114Z</time></trkpt><trkpt lat="44.4577611" lon="8.7209618"><ele>516.0</ele><time>2026-03-21T15:44:35.114Z</time></trkpt><trkpt lat="44.4576646" lon="8.7209663"><ele>511.4</ele><time>2026-03-21T15:44:36.113Z</time></trkpt><trkpt lat="44.4575701" lon="8.7209762"><ele>506.8</ele><time>2026-03-21T15:44:37.114Z</time></trkpt><trkpt lat="44.4574754" lon="8.7209788"><ele>502.19999999999993</ele><time>2026-03-21T15:44:38.113Z</time></trkpt><trkpt lat="44.4573804" lon="8.7209851"><ele>497.59999999999997</ele><time>2026-03-21T15:44:39.114Z</time></trkpt><trkpt lat="44.4572886" lon="8.7209987"><ele>493.0</ele><time>2026-03-21T15:44:40.114Z</time></trkpt><trkpt lat="44.4571896" lon="8.7210265"><ele>490.00000000000006</ele><time>2026-03-21T15:44:41.114Z</time></trkpt><trkpt lat="44.4570915" lon="8.7210668"><ele>487.0</ele><time>2026-03-21T15:44:42.114Z</time></trkpt><trkpt lat="44.457013" lon="8.7211395"><ele>484.0</ele><time>2026-03-21T15:44:43.113Z</time></trkpt><trkpt lat="44.4569411" lon="8.721219"><ele>481.0</ele><time>2026-03-21T15:44:44.113Z</time></trkpt><trkpt lat="44.4568949" lon="8.7213213"><ele>478.00000000000006</ele><time>2026-03-21T15:44:45.113Z</time></trkpt><trkpt lat="44.4568735" lon="8.7214196"><ele>475.0</ele><time>2026-03-21T15:44:46.113Z</time></trkpt><trkpt lat="44.4568769" lon="8.7215201"><ele>475.0</ele><time>2026-03-21T15:44:47.113Z</time></trkpt><trkpt lat="44.4569054" lon="8.7216166"><ele>475.0</ele><time>2026-03-21T15:44:48.113Z</time></trkpt><trkpt lat="44.4569506" lon="8.7217251"><ele>475.0</ele><time>2026-03-21T15:44:49.113Z</time></trkpt><trkpt lat="44.4570043" lon="8.7218483"><ele>475.0</ele><time>2026-03-21T15:44:50.113Z</time></trkpt><trkpt lat="44.4570612" lon="8.7219738"><ele>475.0</ele><time>2026-03-21T15:44:51.113Z</time></trkpt><trkpt lat="44.4571129" lon="8.7221147"><ele>479.0</ele><time>2026-03-21T15:44:52.114Z</time></trkpt><trkpt lat="44.4571546" lon="8.7222613"><ele>483.0</ele><time>2026-03-21T15:44:53.113Z</time></trkpt><trkpt lat="44.4571821" lon="8.7224152"><ele>487.0</ele><time>2026-03-21T15:44:54.114Z</time></trkpt><trkpt lat="44.4572032" lon="8.7225661"><ele>491.0</ele><time>2026-03-21T15:44:55.113Z</time></trkpt><trkpt lat="44.4572255" lon="8.7227066"><ele>495.0</ele><time>2026-03-21T15:44:56.113Z</time></trkpt><trkpt lat="44.4572546" lon="8.7228433"><ele>495.0</ele><time>2026-03-21T15:44:57.113Z</time></trkpt><trkpt lat="44.4572827" lon="8.7229616"><ele>495.0</ele><time>2026-03-21T15:44:58.113Z</time></trkpt><trkpt lat="44.4573" lon="8.7230576"><ele>495.0</ele><time>2026-03-21T15:44:59.114Z</time></trkpt><trkpt lat="44.4572847" lon="8.7232163"><ele>495.0</ele><time>2026-03-21T15:45:01.114Z</time></trkpt><trkpt lat="44.4572305" lon="8.723293"><ele>495.0</ele><time>2026-03-21T15:45:02.114Z</time></trkpt><trkpt lat="44.4571795" lon="8.7233888"><ele>495.0</ele><time>2026-03-21T15:45:03.114Z</time></trkpt><trkpt lat="44.4571335" lon="8.7234946"><ele>486.6</ele><time>2026-03-21T15:45:04.114Z</time></trkpt><trkpt lat="44.4571074" lon="8.7236059"><ele>478.2</ele><time>2026-03-21T15:45:05.114Z</time></trkpt><trkpt lat="44.4570903" lon="8.7237346"><ele>469.79999999999995</ele><time>2026-03-21T15:45:06.113Z</time></trkpt><trkpt lat="44.4570618" lon="8.7238672"><ele>461.4</ele><time>2026-03-21T15:45:07.114Z</time></trkpt><trkpt lat="44.4570291" lon="8.7240019"><ele>453.0</ele><time>2026-03-21T15:45:08.113Z</time></trkpt><trkpt lat="44.4569886" lon="8.7241304"><ele>453.0</ele><time>2026-03-21T15:45:09.113Z</time></trkpt><trkpt lat="44.4569549" lon="8.7242523"><ele>453.0</ele><time>2026-03-21T15:45:10.113Z</time></trkpt><trkpt lat="44.456938" lon="8.7243607"><ele>453.0</ele><time>2026-03-21T15:45:11.113Z</time></trkpt><trkpt lat="44.4569345" lon="8.7244622"><ele>453.0</ele><time>2026-03-21T15:45:12.113Z</time></trkpt><trkpt lat="44.4569449" lon="8.7245546"><ele>453.0</ele><time>2026-03-21T15:45:13.114Z</time></trkpt><trkpt lat="44.4569633" lon="8.7246409"><ele>453.0</ele><time>2026-03-21T15:45:14.113Z</time></trkpt><trkpt lat="44.4569986" lon="8.7247323"><ele>452.8571428571428</ele><time>2026-03-21T15:45:15.113Z</time></trkpt><trkpt lat="44.4570321" lon="8.7248227"><ele>452.71428571428567</ele><time>2026-03-21T15:45:16.113Z</time></trkpt><trkpt lat="44.4570514" lon="8.724916"><ele>452.57142857142856</ele><time>2026-03-21T15:45:17.113Z</time></trkpt><trkpt lat="44.4570545" lon="8.725005"><ele>452.4285714285714</ele><time>2026-03-21T15:45:18.114Z</time></trkpt><trkpt lat="44.4570347" lon="8.7250929"><ele>452.2857142857142</ele><time>2026-03-21T15:45:19.114Z</time></trkpt><trkpt lat="44.4570051" lon="8.7251869"><ele>452.14285714285717</ele><time>2026-03-21T15:45:20.114Z</time></trkpt><trkpt lat="44.4569657" lon="8.7252909"><ele>452.0</ele><time>2026-03-21T15:45:21.113Z</time></trkpt><trkpt lat="44.4569265" lon="8.7253835"><ele>451.99999999999994</ele><time>2026-03-21T15:45:22.113Z</time></trkpt><trkpt lat="44.4568955" lon="8.7254782"><ele>452.0</ele><time>2026-03-21T15:45:23.113Z</time></trkpt><trkpt lat="44.4568695" lon="8.7255751"><ele>452.0</ele><time>2026-03-21T15:45:24.114Z</time></trkpt><trkpt lat="44.4568641" lon="8.7256845"><ele>452.0</ele><time>2026-03-21T15:45:25.114Z</time></trkpt><trkpt lat="44.4568759" lon="8.7257961"><ele>451.99999999999994</ele><time>2026-03-21T15:45:26.114Z</time></trkpt><trkpt lat="44.4568998" lon="8.7259098"><ele>452.0</ele><time>2026-03-21T15:45:27.114Z</time></trkpt><trkpt lat="44.4569282" lon="8.726028"><ele>449.8333333333333</ele><time>2026-03-21T15:45:28.114Z</time></trkpt><trkpt lat="44.4569552" lon="8.7261446"><ele>447.66666666666663</ele><time>2026-03-21T15:45:29.114Z</time></trkpt><trkpt lat="44.4569867" lon="8.7262587"><ele>445.5</ele><time>2026-03-21T15:45:30.113Z</time></trkpt><trkpt lat="44.4570199" lon="8.7263779"><ele>443.33333333333337</ele><time>2026-03-21T15:45:31.113Z</time></trkpt><trkpt lat="44.4570594" lon="8.7264824"><ele>441.1666666666667</ele><time>2026-03-21T15:45:32.113Z</time></trkpt><trkpt lat="44.457106" lon="8.7265658"><ele>439.0</ele><time>2026-03-21T15:45:33.114Z</time></trkpt><trkpt lat="44.457165" lon="8.7266278"><ele>441.83333333333337</ele><time>2026-03-21T15:45:34.113Z</time></trkpt><trkpt lat="44.457252" lon="8.7267289"><ele>444.6666666666667</ele><time>2026-03-21T15:45:36.113Z</time></trkpt><trkpt lat="44.4573209" lon="8.7268037"><ele>447.5</ele><time>2026-03-21T15:45:38.114Z</time></trkpt><trkpt lat="44.4573653" lon="8.7268672"><ele>450.33333333333337</ele><time>2026-03-21T15:45:39.113Z</time></trkpt><trkpt lat="44.4573933" lon="8.7269491"><ele>453.1666666666667</ele><time>2026-03-21T15:45:40.114Z</time></trkpt><trkpt lat="44.4573986" lon="8.7271025"><ele>456.0</ele><time>2026-03-21T15:45:42.114Z</time></trkpt><trkpt lat="44.4573887" lon="8.7272653"><ele>456.0</ele><time>2026-03-21T15:45:44.114Z</time></trkpt><trkpt lat="44.4573898" lon="8.7273569"><ele>455.99999999999994</ele><time>2026-03-21T15:45:45.113Z</time></trkpt><trkpt lat="44.4573935" lon="8.7274605"><ele>456.0</ele><time>2026-03-21T15:45:46.114Z</time></trkpt><trkpt lat="44.4573898" lon="8.7275704"><ele>456.0</ele><time>2026-03-21T15:45:47.113Z</time></trkpt><trkpt lat="44.4573866" lon="8.7276765"><ele>455.99999999999994</ele><time>2026-03-21T15:45:48.113Z</time></trkpt><trkpt lat="44.4573735" lon="8.7277825"><ele>456.0</ele><time>2026-03-21T15:45:49.114Z</time></trkpt><trkpt lat="44.4573462" lon="8.7278731"><ele>456.0</ele><time>2026-03-21T15:45:50.113Z</time></trkpt><trkpt lat="44.4573034" lon="8.7279433"><ele>455.0</ele><time>2026-03-21T15:45:51.113Z</time></trkpt><trkpt lat="44.4572431" lon="8.7280061"><ele>454.0</ele><time>2026-03-21T15:45:52.113Z</time></trkpt><trkpt lat="44.4571678" lon="8.7280517"><ele>453.0</ele><time>2026-03-21T15:45:53.113Z</time></trkpt><trkpt lat="44.4570881" lon="8.7281125"><ele>452.0</ele><time>2026-03-21T15:45:54.114Z</time></trkpt><trkpt lat="44.4570077" lon="8.7281686"><ele>451.0</ele><time>2026-03-21T15:45:55.114Z</time></trkpt><trkpt lat="44.4569103" lon="8.7282198"><ele>450.0</ele><time>2026-03-21T15:45:56.113Z</time></trkpt><trkpt lat="44.4568124" lon="8.728269"><ele>445.0</ele><time>2026-03-21T15:45:57.114Z</time></trkpt><trkpt lat="44.4567119" lon="8.7283219"><ele>440.0</ele><time>2026-03-21T15:45:58.113Z</time></trkpt><trkpt lat="44.4566154" lon="8.728397"><ele>435.0</ele><time>2026-03-21T15:45:59.114Z</time></trkpt><trkpt lat="44.4565264" lon="8.7284705"><ele>430.0</ele><time>2026-03-21T15:46:00.114Z</time></trkpt><trkpt lat="44.4564497" lon="8.72856"><ele>425.0</ele><time>2026-03-21T15:46:01.114Z</time></trkpt><trkpt lat="44.4563791" lon="8.7286488"><ele>424.6</ele><time>2026-03-21T15:46:02.114Z</time></trkpt><trkpt lat="44.4563159" lon="8.7287281"><ele>424.2</ele><time>2026-03-21T15:46:03.114Z</time></trkpt><trkpt lat="44.4562471" lon="8.728811"><ele>423.79999999999995</ele><time>2026-03-21T15:46:04.113Z</time></trkpt><trkpt lat="44.456174" lon="8.7288955"><ele>423.4</ele><time>2026-03-21T15:46:05.113Z</time></trkpt><trkpt lat="44.4561004" lon="8.7289748"><ele>423.0</ele><time>2026-03-21T15:46:06.114Z</time></trkpt><trkpt lat="44.4560218" lon="8.7290505"><ele>421.4</ele><time>2026-03-21T15:46:07.113Z</time></trkpt><trkpt lat="44.4559409" lon="8.7291278"><ele>419.79999999999995</ele><time>2026-03-21T15:46:08.114Z</time></trkpt><trkpt lat="44.4558669" lon="8.7292009"><ele>418.2</ele><time>2026-03-21T15:46:09.113Z</time></trkpt><trkpt lat="44.4557935" lon="8.7292894"><ele>416.6</ele><time>2026-03-21T15:46:10.114Z</time></trkpt><trkpt lat="44.455717" lon="8.7293563"><ele>415.0</ele><time>2026-03-21T15:46:11.114Z</time></trkpt><trkpt lat="44.4556293" lon="8.7294079"><ele>415.0</ele><time>2026-03-21T15:46:12.113Z</time></trkpt><trkpt lat="44.4555376" lon="8.7294432"><ele>415.0</ele><time>2026-03-21T15:46:13.114Z</time></trkpt><trkpt lat="44.4554485" lon="8.7294792"><ele>415.0</ele><time>2026-03-21T15:46:14.113Z</time></trkpt><trkpt lat="44.455356" lon="8.7295282"><ele>415.0</ele><time>2026-03-21T15:46:15.114Z</time></trkpt><trkpt lat="44.4552626" lon="8.7295866"><ele>415.0</ele><time>2026-03-21T15:46:16.113Z</time></trkpt><trkpt lat="44.4551702" lon="8.7296439"><ele>413.8</ele><time>2026-03-21T15:46:17.113Z</time></trkpt><trkpt lat="44.4550722" lon="8.7296914"><ele>412.6</ele><time>2026-03-21T15:46:18.113Z</time></trkpt><trkpt lat="44.4549721" lon="8.7297258"><ele>411.4</ele><time>2026-03-21T15:46:19.113Z</time></trkpt><trkpt lat="44.45488" lon="8.7297375"><ele>410.2</ele><time>2026-03-21T15:46:20.113Z</time></trkpt><trkpt lat="44.454765" lon="8.7297681"><ele>409.0</ele><time>2026-03-21T15:46:21.114Z</time></trkpt><trkpt lat="44.4546717" lon="8.7297868"><ele>402.79999999999995</ele><time>2026-03-21T15:46:22.114Z</time></trkpt><trkpt lat="44.4545742" lon="8.7298207"><ele>396.59999999999997</ele><time>2026-03-21T15:46:23.113Z</time></trkpt><trkpt lat="44.4544813" lon="8.7298661"><ele>390.4</ele><time>2026-03-21T15:46:24.113Z</time></trkpt><trkpt lat="44.4544099" lon="8.729946"><ele>384.2</ele><time>2026-03-21T15:46:25.113Z</time></trkpt><trkpt lat="44.4543471" lon="8.7300363"><ele>378.0</ele><time>2026-03-21T15:46:26.114Z</time></trkpt><trkpt lat="44.4542893" lon="8.7301319"><ele>382.0</ele><time>2026-03-21T15:46:27.113Z</time></trkpt><trkpt lat="44.4542361" lon="8.7302277"><ele>386.0</ele><time>2026-03-21T15:46:28.113Z</time></trkpt><trkpt lat="44.4541752" lon="8.7303167"><ele>390.0</ele><time>2026-03-21T15:46:29.113Z</time></trkpt><trkpt lat="44.4541142" lon="8.730398"><ele>394.0</ele><time>2026-03-21T15:46:30.113Z</time></trkpt><trkpt lat="44.4540452" lon="8.7304697"><ele>398.0</ele><time>2026-03-21T15:46:31.113Z</time></trkpt><trkpt lat="44.453965" lon="8.730512"><ele>402.0</ele><time>2026-03-21T15:46:32.113Z</time></trkpt><trkpt lat="44.4538821" lon="8.7305352"><ele>397.0</ele><time>2026-03-21T15:46:33.114Z</time></trkpt><trkpt lat="44.4537884" lon="8.7305487"><ele>392.0</ele><time>2026-03-21T15:46:34.114Z</time></trkpt><trkpt lat="44.4536959" lon="8.7305696"><ele>387.0</ele><time>2026-03-21T15:46:35.113Z</time></trkpt><trkpt lat="44.4535972" lon="8.7305872"><ele>382.0</ele><time>2026-03-21T15:46:36.114Z</time></trkpt><trkpt lat="44.4534999" lon="8.7306207"><ele>377.0</ele><time>2026-03-21T15:46:37.114Z</time></trkpt><trkpt lat="44.4534014" lon="8.7306347"><ele>377.0</ele><time>2026-03-21T15:46:38.113Z</time></trkpt><trkpt lat="44.4533146" lon="8.7306768"><ele>377.0</ele><time>2026-03-21T15:46:39.114Z</time></trkpt><trkpt lat="44.4532144" lon="8.7306929"><ele>377.0</ele><time>2026-03-21T15:46:40.114Z</time></trkpt><trkpt lat="44.4531103" lon="8.7307461"><ele>377.0</ele><time>2026-03-21T15:46:41.114Z</time></trkpt><trkpt lat="44.4530201" lon="8.7308048"><ele>377.0</ele><time>2026-03-21T15:46:42.114Z</time></trkpt><trkpt lat="44.4529201" lon="8.7308536"><ele>377.6</ele><time>2026-03-21T15:46:43.114Z</time></trkpt><trkpt lat="44.4528523" lon="8.7308983"><ele>378.20000000000005</ele><time>2026-03-21T15:46:44.114Z</time></trkpt><trkpt lat="44.4527675" lon="8.7309545"><ele>378.8</ele><time>2026-03-21T15:46:45.114Z</time></trkpt><trkpt lat="44.4526758" lon="8.7310056"><ele>379.4</ele><time>2026-03-21T15:46:46.113Z</time></trkpt><trkpt lat="44.4525854" lon="8.7310444"><ele>380.0</ele><time>2026-03-21T15:46:47.113Z</time></trkpt><trkpt lat="44.4524894" lon="8.7310739"><ele>380.0</ele><time>2026-03-21T15:46:48.113Z</time></trkpt><trkpt lat="44.4523896" lon="8.7310999"><ele>380.0</ele><time>2026-03-21T15:46:49.113Z</time></trkpt><trkpt lat="44.4522964" lon="8.7310923"><ele>380.0</ele><time>2026-03-21T15:46:50.114Z</time></trkpt><trkpt lat="44.4521989" lon="8.7311389"><ele>380.0</ele><time>2026-03-21T15:46:51.114Z</time></trkpt><trkpt lat="44.4521076" lon="8.7311622"><ele>380.0</ele><time>2026-03-21T15:46:52.114Z</time></trkpt><trkpt lat="44.4520058" lon="8.7312001"><ele>376.6</ele><time>2026-03-21T15:46:53.113Z</time></trkpt><trkpt lat="44.4519031" lon="8.7312141"><ele>373.2</ele><time>2026-03-21T15:46:54.114Z</time></trkpt><trkpt lat="44.4517949" lon="8.7312198"><ele>369.79999999999995</ele><time>2026-03-21T15:46:55.114Z</time></trkpt><trkpt lat="44.4516871" lon="8.7312237"><ele>366.4</ele><time>2026-03-21T15:46:56.113Z</time></trkpt><trkpt lat="44.4515764" lon="8.7312258"><ele>363.0</ele><time>2026-03-21T15:46:57.114Z</time></trkpt><trkpt lat="44.45147" lon="8.7312332"><ele>363.0</ele><time>2026-03-21T15:46:58.113Z</time></trkpt><trkpt lat="44.4513704" lon="8.7312627"><ele>363.0</ele><time>2026-03-21T15:46:59.113Z</time></trkpt><trkpt lat="44.4512617" lon="8.7312917"><ele>363.0</ele><time>2026-03-21T15:47:00.113Z</time></trkpt><trkpt lat="44.4511566" lon="8.7313329"><ele>363.0</ele><time>2026-03-21T15:47:01.114Z</time></trkpt><trkpt lat="44.4510639" lon="8.7313975"><ele>363.0</ele><time>2026-03-21T15:47:02.114Z</time></trkpt><trkpt lat="44.4509758" lon="8.7314681"><ele>356.4</ele><time>2026-03-21T15:47:03.113Z</time></trkpt><trkpt lat="44.4508747" lon="8.7315313"><ele>349.79999999999995</ele><time>2026-03-21T15:47:04.113Z</time></trkpt><trkpt lat="44.4508063" lon="8.7316031"><ele>343.2</ele><time>2026-03-21T15:47:05.113Z</time></trkpt><trkpt lat="44.4507317" lon="8.731705"><ele>336.6</ele><time>2026-03-21T15:47:06.114Z</time></trkpt><trkpt lat="44.45067" lon="8.7317926"><ele>330.0</ele><time>2026-03-21T15:47:07.114Z</time></trkpt><trkpt lat="44.4506086" lon="8.7318439"><ele>332.2</ele><time>2026-03-21T15:47:08.114Z</time></trkpt><trkpt lat="44.4505247" lon="8.7318901"><ele>334.4</ele><time>2026-03-21T15:47:09.114Z</time></trkpt><trkpt lat="44.4504324" lon="8.7319197"><ele>336.6</ele><time>2026-03-21T15:47:10.113Z</time></trkpt><trkpt lat="44.4503394" lon="8.7318991"><ele>338.8</ele><time>2026-03-21T15:47:11.113Z</time></trkpt><trkpt lat="44.450243" lon="8.7318931"><ele>341.0</ele><time>2026-03-21T15:47:12.113Z</time></trkpt><trkpt lat="44.4501449" lon="8.7318898"><ele>341.0</ele><time>2026-03-21T15:47:13.114Z</time></trkpt><trkpt lat="44.4500489" lon="8.7318896"><ele>341.0</ele><time>2026-03-21T15:47:14.113Z</time></trkpt><trkpt lat="44.4499477" lon="8.7318801"><ele>341.0</ele><time>2026-03-21T15:47:15.113Z</time></trkpt><trkpt lat="44.4498434" lon="8.7319213"><ele>341.0</ele><time>2026-03-21T15:47:16.114Z</time></trkpt><trkpt lat="44.4497555" lon="8.7319864"><ele>341.0</ele><time>2026-03-21T15:47:17.113Z</time></trkpt><trkpt lat="44.4496624" lon="8.7320319"><ele>334.6</ele><time>2026-03-21T15:47:18.114Z</time></trkpt><trkpt lat="44.4495664" lon="8.732069"><ele>328.20000000000005</ele><time>2026-03-21T15:47:19.113Z</time></trkpt><trkpt lat="44.4494643" lon="8.732108"><ele>321.79999999999995</ele><time>2026-03-21T15:47:20.113Z</time></trkpt><trkpt lat="44.4493705" lon="8.7321381"><ele>315.4</ele><time>2026-03-21T15:47:21.114Z</time></trkpt><trkpt lat="44.4492712" lon="8.7321601"><ele>309.0</ele><time>2026-03-21T15:47:22.114Z</time></trkpt><trkpt lat="44.4491874" lon="8.7322222"><ele>309.0</ele><time>2026-03-21T15:47:23.114Z</time></trkpt><trkpt lat="44.4491054" lon="8.7322649"><ele>309.0</ele><time>2026-03-21T15:47:24.114Z</time></trkpt><trkpt lat="44.4490077" lon="8.7323736"><ele>309.0</ele><time>2026-03-21T15:47:25.114Z</time></trkpt><trkpt lat="44.4489092" lon="8.7324576"><ele>309.0</ele><time>2026-03-21T15:47:26.114Z</time></trkpt><trkpt lat="44.4487975" lon="8.7325384"><ele>303.75</ele><time>2026-03-21T15:47:27.113Z</time></trkpt><trkpt lat="44.4486911" lon="8.7326182"><ele>298.5</ele><time>2026-03-21T15:47:28.114Z</time></trkpt><trkpt lat="44.4485883" lon="8.732683"><ele>293.25</ele><time>2026-03-21T15:47:29.114Z</time></trkpt><trkpt lat="44.4484756" lon="8.7327624"><ele>288.0</ele><time>2026-03-21T15:47:30.114Z</time></trkpt><trkpt lat="44.4483803" lon="8.7328388"><ele>288.0</ele><time>2026-03-21T15:47:31.114Z</time></trkpt><trkpt lat="44.4482873" lon="8.7329171"><ele>288.0</ele><time>2026-03-21T15:47:32.114Z</time></trkpt><trkpt lat="44.4481994" lon="8.7329897"><ele>288.0</ele><time>2026-03-21T15:47:33.114Z</time></trkpt><trkpt lat="44.4481178" lon="8.7330525"><ele>288.0</ele><time>2026-03-21T15:47:34.114Z</time></trkpt><trkpt lat="44.4480468" lon="8.7331048"><ele>288.0</ele><time>2026-03-21T15:47:35.114Z</time></trkpt><trkpt lat="44.4479764" lon="8.7331719"><ele>283.6666666666667</ele><time>2026-03-21T15:47:36.113Z</time></trkpt><trkpt lat="44.4479277" lon="8.73326"><ele>279.3333333333333</ele><time>2026-03-21T15:47:37.113Z</time></trkpt><trkpt lat="44.4478929" lon="8.7333439"><ele>275.0</ele><time>2026-03-21T15:47:38.113Z</time></trkpt><trkpt lat="44.4478795" lon="8.7334591"><ele>270.66666666666663</ele><time>2026-03-21T15:47:39.113Z</time></trkpt><trkpt lat="44.4478604" lon="8.7335719"><ele>266.3333333333333</ele><time>2026-03-21T15:47:40.113Z</time></trkpt><trkpt lat="44.4478446" lon="8.7336941"><ele>262.0</ele><time>2026-03-21T15:47:41.113Z</time></trkpt><trkpt lat="44.4478278" lon="8.7338258"><ele>262.0</ele><time>2026-03-21T15:47:42.114Z</time></trkpt><trkpt lat="44.4478192" lon="8.7339535"><ele>262.0</ele><time>2026-03-21T15:47:43.113Z</time></trkpt><trkpt lat="44.447822" lon="8.7340723"><ele>262.0</ele><time>2026-03-21T15:47:44.114Z</time></trkpt><trkpt lat="44.447826" lon="8.7341851"><ele>262.0</ele><time>2026-03-21T15:47:45.114Z</time></trkpt><trkpt lat="44.4478327" lon="8.7342832"><ele>262.0</ele><time>2026-03-21T15:47:46.113Z</time></trkpt><trkpt lat="44.4478021" lon="8.7343725"><ele>262.0</ele><time>2026-03-21T15:47:47.113Z</time></trkpt><trkpt lat="44.4477618" lon="8.7344404"><ele>265.0</ele><time>2026-03-21T15:47:48.113Z</time></trkpt><trkpt lat="44.4477002" lon="8.7344858"><ele>268.0</ele><time>2026-03-21T15:47:49.113Z</time></trkpt><trkpt lat="44.4476154" lon="8.7345091"><ele>271.0</ele><time>2026-03-21T15:47:50.113Z</time></trkpt><trkpt lat="44.4475298" lon="8.7345326"><ele>274.0</ele><time>2026-03-21T15:47:51.114Z</time></trkpt><trkpt lat="44.4474355" lon="8.7345623"><ele>277.0</ele><time>2026-03-21T15:47:52.113Z</time></trkpt><trkpt lat="44.4473405" lon="8.7345973"><ele>280.0</ele><time>2026-03-21T15:47:53.113Z</time></trkpt><trkpt lat="44.4472414" lon="8.7346409"><ele>280.0</ele><time>2026-03-21T15:47:54.113Z</time></trkpt><trkpt lat="44.4471404" lon="8.7346873"><ele>280.0</ele><time>2026-03-21T15:47:55.113Z</time></trkpt><trkpt lat="44.4470496" lon="8.734738"><ele>280.0</ele><time>2026-03-21T15:47:56.113Z</time></trkpt><trkpt lat="44.4469586" lon="8.7347753"><ele>280.0</ele><time>2026-03-21T15:47:57.114Z</time></trkpt><trkpt lat="44.4468596" lon="8.7347886"><ele>280.0</ele><time>2026-03-21T15:47:58.114Z</time></trkpt><trkpt lat="44.4467576" lon="8.7347668"><ele>276.2</ele><time>2026-03-21T15:47:59.114Z</time></trkpt><trkpt lat="44.4466511" lon="8.7347255"><ele>272.4</ele><time>2026-03-21T15:48:00.113Z</time></trkpt><trkpt lat="44.4465441" lon="8.7346721"><ele>268.6</ele><time>2026-03-21T15:48:01.114Z</time></trkpt><trkpt lat="44.4464559" lon="8.7345979"><ele>264.8</ele><time>2026-03-21T15:48:02.113Z</time></trkpt><trkpt lat="44.4463757" lon="8.7345363"><ele>261.0</ele><time>2026-03-21T15:48:03.114Z</time></trkpt><trkpt lat="44.4462971" lon="8.7345026"><ele>259.25</ele><time>2026-03-21T15:48:04.113Z</time></trkpt><trkpt lat="44.4462086" lon="8.7344724"><ele>257.5</ele><time>2026-03-21T15:48:05.113Z</time></trkpt><trkpt lat="44.4461189" lon="8.7344511"><ele>255.75</ele><time>2026-03-21T15:48:06.114Z</time></trkpt><trkpt lat="44.4459942" lon="8.7345654"><ele>254.0</ele><time>2026-03-21T15:48:07.114Z</time></trkpt><trkpt lat="44.4458777" lon="8.734653"><ele>254.0</ele><time>2026-03-21T15:48:08.114Z</time></trkpt><trkpt lat="44.4457682" lon="8.7347462"><ele>254.0</ele><time>2026-03-21T15:48:09.113Z</time></trkpt><trkpt lat="44.4456652" lon="8.7348441"><ele>254.0</ele><time>2026-03-21T15:48:10.113Z</time></trkpt><trkpt lat="44.4455662" lon="8.7349332"><ele>254.0</ele><time>2026-03-21T15:48:11.114Z</time></trkpt><trkpt lat="44.4454788" lon="8.7350084"><ele>251.33333333333334</ele><time>2026-03-21T15:48:12.113Z</time></trkpt><trkpt lat="44.4453931" lon="8.7350571"><ele>248.66666666666669</ele><time>2026-03-21T15:48:13.113Z</time></trkpt><trkpt lat="44.4453053" lon="8.7350852"><ele>246.0</ele><time>2026-03-21T15:48:14.113Z</time></trkpt><trkpt lat="44.4452222" lon="8.7350937"><ele>243.33333333333331</ele><time>2026-03-21T15:48:15.114Z</time></trkpt><trkpt lat="44.4451518" lon="8.7350612"><ele>240.66666666666666</ele><time>2026-03-21T15:48:16.113Z</time></trkpt><trkpt lat="44.4450917" lon="8.7350049"><ele>238.0</ele><time>2026-03-21T15:48:17.113Z</time></trkpt><trkpt lat="44.4450342" lon="8.7349336"><ele>237.99999999999997</ele><time>2026-03-21T15:48:18.113Z</time></trkpt><trkpt lat="44.4449641" lon="8.7348781"><ele>238.0</ele><time>2026-03-21T15:48:19.113Z</time></trkpt><trkpt lat="44.4448818" lon="8.7348306"><ele>238.0</ele><time>2026-03-21T15:48:20.113Z</time></trkpt><trkpt lat="44.4447923" lon="8.7347834"><ele>238.0</ele><time>2026-03-21T15:48:21.113Z</time></trkpt><trkpt lat="44.4447095" lon="8.734737"><ele>237.99999999999997</ele><time>2026-03-21T15:48:22.113Z</time></trkpt><trkpt lat="44.4446226" lon="8.7346906"><ele>238.0</ele><time>2026-03-21T15:48:23.114Z</time></trkpt><trkpt lat="44.4445304" lon="8.7346624"><ele>234.2</ele><time>2026-03-21T15:48:24.114Z</time></trkpt><trkpt lat="44.4444394" lon="8.7346564"><ele>230.4</ele><time>2026-03-21T15:48:25.114Z</time></trkpt><trkpt lat="44.4443494" lon="8.7346992"><ele>226.59999999999997</ele><time>2026-03-21T15:48:26.113Z</time></trkpt><trkpt lat="44.4442672" lon="8.734762"><ele>222.79999999999998</ele><time>2026-03-21T15:48:27.114Z</time></trkpt><trkpt lat="44.4441773" lon="8.7348232"><ele>219.0</ele><time>2026-03-21T15:48:28.114Z</time></trkpt><trkpt lat="44.4440859" lon="8.734885"><ele>219.0</ele><time>2026-03-21T15:48:29.113Z</time></trkpt><trkpt lat="44.4439997" lon="8.7349649"><ele>218.99999999999997</ele><time>2026-03-21T15:48:30.114Z</time></trkpt><trkpt lat="44.4439183" lon="8.7350503"><ele>218.99999999999997</ele><time>2026-03-21T15:48:31.114Z</time></trkpt><trkpt lat="44.4438449" lon="8.7351263"><ele>219.0</ele><time>2026-03-21T15:48:32.113Z</time></trkpt><trkpt lat="44.4437551" lon="8.7351816"><ele>219.0</ele><time>2026-03-21T15:48:33.113Z</time></trkpt><trkpt lat="44.4436716" lon="8.7352148"><ele>221.6</ele><time>2026-03-21T15:48:34.113Z</time></trkpt><trkpt lat="44.4435809" lon="8.7352385"><ele>224.2</ele><time>2026-03-21T15:48:35.113Z</time></trkpt><trkpt lat="44.4434875" lon="8.735239"><ele>226.79999999999998</ele><time>2026-03-21T15:48:36.113Z</time></trkpt><trkpt lat="44.4433924" lon="8.7352115"><ele>229.39999999999998</ele><time>2026-03-21T15:48:37.114Z</time></trkpt><trkpt lat="44.4432961" lon="8.7351793"><ele>232.0</ele><time>2026-03-21T15:48:38.113Z</time></trkpt><trkpt lat="44.4432085" lon="8.7351652"><ele>225.99999999999997</ele><time>2026-03-21T15:48:39.113Z</time></trkpt><trkpt lat="44.4431241" lon="8.7351503"><ele>220.0</ele><time>2026-03-21T15:48:40.114Z</time></trkpt><trkpt lat="44.443041" lon="8.7351378"><ele>214.0</ele><time>2026-03-21T15:48:41.113Z</time></trkpt><trkpt lat="44.4429706" lon="8.7351145"><ele>208.0</ele><time>2026-03-21T15:48:42.114Z</time></trkpt><trkpt lat="44.4428939" lon="8.7350844"><ele>201.99999999999997</ele><time>2026-03-21T15:48:43.114Z</time></trkpt><trkpt lat="44.4428316" lon="8.7350319"><ele>196.0</ele><time>2026-03-21T15:48:44.114Z</time></trkpt><trkpt lat="44.4427665" lon="8.7349818"><ele>195.20000000000002</ele><time>2026-03-21T15:48:45.113Z</time></trkpt><trkpt lat="44.4427081" lon="8.7349429"><ele>194.4</ele><time>2026-03-21T15:48:46.114Z</time></trkpt><trkpt lat="44.4425693" lon="8.7348944"><ele>193.6</ele><time>2026-03-21T15:48:48.113Z</time></trkpt><trkpt lat="44.4424985" lon="8.7349112"><ele>192.8</ele><time>2026-03-21T15:48:49.114Z</time></trkpt><trkpt lat="44.4424195" lon="8.735035"><ele>192.0</ele><time>2026-03-21T15:48:51.113Z</time></trkpt><trkpt lat="44.4423986" lon="8.7351357"><ele>194.33333333333334</ele><time>2026-03-21T15:48:52.113Z</time></trkpt><trkpt lat="44.4423918" lon="8.7352551"><ele>196.66666666666669</ele><time>2026-03-21T15:48:53.114Z</time></trkpt><trkpt lat="44.4423847" lon="8.735377"><ele>199.0</ele><time>2026-03-21T15:48:54.113Z</time></trkpt><trkpt lat="44.4423835" lon="8.7355032"><ele>201.33333333333334</ele><time>2026-03-21T15:48:55.113Z</time></trkpt><trkpt lat="44.4423808" lon="8.7356379"><ele>203.66666666666669</ele><time>2026-03-21T15:48:56.114Z</time></trkpt><trkpt lat="44.4423742" lon="8.7357594"><ele>206.0</ele><time>2026-03-21T15:48:57.114Z</time></trkpt><trkpt lat="44.4423708" lon="8.7358795"><ele>205.99999999999997</ele><time>2026-03-21T15:48:58.114Z</time></trkpt><trkpt lat="44.4423695" lon="8.7359793"><ele>206.0</ele><time>2026-03-21T15:48:59.113Z</time></trkpt><trkpt lat="44.4423518" lon="8.7360683"><ele>206.0</ele><time>2026-03-21T15:49:00.113Z</time></trkpt><trkpt lat="44.4423233" lon="8.7361504"><ele>206.0</ele><time>2026-03-21T15:49:01.114Z</time></trkpt><trkpt lat="44.4422626" lon="8.7361877"><ele>206.0</ele><time>2026-03-21T15:49:02.113Z</time></trkpt><trkpt lat="44.4422013" lon="8.7362368"><ele>205.99999999999997</ele><time>2026-03-21T15:49:03.113Z</time></trkpt><trkpt lat="44.4421309" lon="8.7362916"><ele>206.0</ele><time>2026-03-21T15:49:04.114Z</time></trkpt><trkpt lat="44.4420592" lon="8.7363517"><ele>201.8</ele><time>2026-03-21T15:49:05.114Z</time></trkpt><trkpt lat="44.4419862" lon="8.7364253"><ele>197.60000000000002</ele><time>2026-03-21T15:49:06.114Z</time></trkpt><trkpt lat="44.4419164" lon="8.7365146"><ele>193.4</ele><time>2026-03-21T15:49:07.114Z</time></trkpt><trkpt lat="44.4418572" lon="8.7366045"><ele>189.2</ele><time>2026-03-21T15:49:08.113Z</time></trkpt><trkpt lat="44.4417988" lon="8.7367014"><ele>185.0</ele><time>2026-03-21T15:49:09.114Z</time></trkpt><trkpt lat="44.441738" lon="8.7367963"><ele>185.0</ele><time>2026-03-21T15:49:10.113Z</time></trkpt><trkpt lat="44.4416757" lon="8.7368803"><ele>185.0</ele><time>2026-03-21T15:49:11.113Z</time></trkpt><trkpt lat="44.4416042" lon="8.7369557"><ele>185.0</ele><time>2026-03-21T15:49:12.114Z</time></trkpt><trkpt lat="44.4415275" lon="8.7370213"><ele>185.0</ele><time>2026-03-21T15:49:13.114Z</time></trkpt><trkpt lat="44.4414528" lon="8.7370804"><ele>185.0</ele><time>2026-03-21T15:49:14.114Z</time></trkpt><trkpt lat="44.4413846" lon="8.7371201"><ele>185.0</ele><time>2026-03-21T15:49:15.114Z</time></trkpt><trkpt lat="44.4413214" lon="8.737148"><ele>186.66666666666666</ele><time>2026-03-21T15:49:16.114Z</time></trkpt><trkpt lat="44.4412547" lon="8.7371546"><ele>188.33333333333331</ele><time>2026-03-21T15:49:17.113Z</time></trkpt><trkpt lat="44.4411909" lon="8.7371686"><ele>190.0</ele><time>2026-03-21T15:49:18.114Z</time></trkpt><trkpt lat="44.4411254" lon="8.7371247"><ele>191.66666666666666</ele><time>2026-03-21T15:49:19.114Z</time></trkpt><trkpt lat="44.4410685" lon="8.7370702"><ele>193.33333333333334</ele><time>2026-03-21T15:49:20.113Z</time></trkpt><trkpt lat="44.4410273" lon="8.7370009"><ele>195.0</ele><time>2026-03-21T15:49:21.114Z</time></trkpt><trkpt lat="44.4409443" lon="8.7368828"><ele>191.71428571428572</ele><time>2026-03-21T15:49:23.113Z</time></trkpt><trkpt lat="44.4408756" lon="8.7367467"><ele>188.42857142857142</ele><time>2026-03-21T15:49:25.114Z</time></trkpt><trkpt lat="44.4408256" lon="8.7366882"><ele>185.14285714285717</ele><time>2026-03-21T15:49:26.113Z</time></trkpt><trkpt lat="44.4407717" lon="8.7366414"><ele>181.85714285714286</ele><time>2026-03-21T15:49:27.113Z</time></trkpt><trkpt lat="44.4407096" lon="8.7366061"><ele>178.57142857142858</ele><time>2026-03-21T15:49:28.113Z</time></trkpt><trkpt lat="44.4406485" lon="8.7365814"><ele>175.2857142857143</ele><time>2026-03-21T15:49:29.113Z</time></trkpt><trkpt lat="44.440587" lon="8.736551"><ele>172.0</ele><time>2026-03-21T15:49:30.114Z</time></trkpt><trkpt lat="44.4405228" lon="8.7365351"><ele>167.0</ele><time>2026-03-21T15:49:31.114Z</time></trkpt><trkpt lat="44.4404522" lon="8.7365313"><ele>162.0</ele><time>2026-03-21T15:49:32.114Z</time></trkpt><trkpt lat="44.4403804" lon="8.7365475"><ele>157.0</ele><time>2026-03-21T15:49:33.113Z</time></trkpt><trkpt lat="44.4403002" lon="8.7365639"><ele>152.0</ele><time>2026-03-21T15:49:34.113Z</time></trkpt><trkpt lat="44.4402165" lon="8.7365918"><ele>147.0</ele><time>2026-03-21T15:49:35.114Z</time></trkpt><trkpt lat="44.4401296" lon="8.7366322"><ele>142.0</ele><time>2026-03-21T15:49:36.114Z</time></trkpt><trkpt lat="44.4400486" lon="8.7366739"><ele>142.0</ele><time>2026-03-21T15:49:37.113Z</time></trkpt><trkpt lat="44.439979" lon="8.736713"><ele>142.0</ele><time>2026-03-21T15:49:38.114Z</time></trkpt><trkpt lat="44.4399127" lon="8.736762"><ele>142.0</ele><time>2026-03-21T15:49:39.114Z</time></trkpt><trkpt lat="44.4398624" lon="8.7368316"><ele>142.0</ele><time>2026-03-21T15:49:40.113Z</time></trkpt><trkpt lat="44.4398205" lon="8.7369095"><ele>142.0</ele><time>2026-03-21T15:49:41.114Z</time></trkpt><trkpt lat="44.4397849" lon="8.7370067"><ele>142.0</ele><time>2026-03-21T15:49:42.113Z</time></trkpt><trkpt lat="44.4397597" lon="8.7371157"><ele>143.0</ele><time>2026-03-21T15:49:43.113Z</time></trkpt><trkpt lat="44.4397284" lon="8.7372059"><ele>144.0</ele><time>2026-03-21T15:49:44.113Z</time></trkpt><trkpt lat="44.4397014" lon="8.7372972"><ele>145.0</ele><time>2026-03-21T15:49:45.113Z</time></trkpt><trkpt lat="44.4396345" lon="8.7373769"><ele>146.0</ele><time>2026-03-21T15:49:46.114Z</time></trkpt><trkpt lat="44.439583" lon="8.7374335"><ele>147.0</ele><time>2026-03-21T15:49:47.113Z</time></trkpt><trkpt lat="44.4395167" lon="8.7374961"><ele>148.0</ele><time>2026-03-21T15:49:48.114Z</time></trkpt><trkpt lat="44.4394412" lon="8.737534"><ele>148.0</ele><time>2026-03-21T15:49:49.113Z</time></trkpt><trkpt lat="44.4393661" lon="8.7376049"><ele>148.0</ele><time>2026-03-21T15:49:50.114Z</time></trkpt><trkpt lat="44.4392879" lon="8.7376992"><ele>148.0</ele><time>2026-03-21T15:49:51.113Z</time></trkpt><trkpt lat="44.4392143" lon="8.7377739"><ele>148.0</ele><time>2026-03-21T15:49:52.113Z</time></trkpt><trkpt lat="44.4391226" lon="8.7378437"><ele>148.0</ele><time>2026-03-21T15:49:53.114Z</time></trkpt><trkpt lat="44.4390404" lon="8.7378771"><ele>148.57142857142858</ele><time>2026-03-21T15:49:54.114Z</time></trkpt><trkpt lat="44.4389692" lon="8.7378823"><ele>149.14285714285714</ele><time>2026-03-21T15:49:55.113Z</time></trkpt><trkpt lat="44.4389009" lon="8.737888"><ele>149.71428571428572</ele><time>2026-03-21T15:49:56.114Z</time></trkpt><trkpt lat="44.4388373" lon="8.7378944"><ele>150.28571428571428</ele><time>2026-03-21T15:49:57.113Z</time></trkpt><trkpt lat="44.4387744" lon="8.7379397"><ele>150.85714285714286</ele><time>2026-03-21T15:49:58.114Z</time></trkpt><trkpt lat="44.4387111" lon="8.737987"><ele>151.42857142857142</ele><time>2026-03-21T15:49:59.114Z</time></trkpt><trkpt lat="44.4386429" lon="8.7380488"><ele>152.0</ele><time>2026-03-21T15:50:00.114Z</time></trkpt><trkpt lat="44.4385867" lon="8.7381043"><ele>152.0</ele><time>2026-03-21T15:50:01.113Z</time></trkpt><trkpt lat="44.4385144" lon="8.738202"><ele>152.0</ele><time>2026-03-21T15:50:02.113Z</time></trkpt><trkpt lat="44.4384168" lon="8.7382863"><ele>152.0</ele><time>2026-03-21T15:50:03.113Z</time></trkpt><trkpt lat="44.4382992" lon="8.7383721"><ele>152.0</ele><time>2026-03-21T15:50:04.113Z</time></trkpt><trkpt lat="44.4381932" lon="8.7384522"><ele>152.0</ele><time>2026-03-21T15:50:05.114Z</time></trkpt><trkpt lat="44.4380841" lon="8.73852"><ele>152.0</ele><time>2026-03-21T15:50:06.113Z</time></trkpt><trkpt lat="44.4379957" lon="8.7385634"><ele>152.0</ele><time>2026-03-21T15:50:07.113Z</time></trkpt><trkpt lat="44.4378964" lon="8.7385931"><ele>152.0</ele><time>2026-03-21T15:50:08.114Z</time></trkpt><trkpt lat="44.4378113" lon="8.7386144"><ele>152.0</ele><time>2026-03-21T15:50:09.114Z</time></trkpt><trkpt lat="44.4377211" lon="8.7386261"><ele>151.5</ele><time>2026-03-21T15:50:10.113Z</time></trkpt><trkpt lat="44.4376263" lon="8.7386426"><ele>151.0</ele><time>2026-03-21T15:50:11.113Z</time></trkpt><trkpt lat="44.4375445" lon="8.7386761"><ele>150.5</ele><time>2026-03-21T15:50:12.113Z</time></trkpt><trkpt lat="44.4374604" lon="8.7387202"><ele>150.0</ele><time>2026-03-21T15:50:13.113Z</time></trkpt><trkpt lat="44.4373914" lon="8.7387627"><ele>149.5</ele><time>2026-03-21T15:50:14.113Z</time></trkpt><trkpt lat="44.4373222" lon="8.738805"><ele>149.0</ele><time>2026-03-21T15:50:15.114Z</time></trkpt><trkpt lat="44.4372597" lon="8.7388501"><ele>149.0</ele><time>2026-03-21T15:50:16.114Z</time></trkpt><trkpt lat="44.4371793" lon="8.7389821"><ele>149.0</ele><time>2026-03-21T15:50:18.114Z</time></trkpt><trkpt lat="44.4371801" lon="8.739145"><ele>149.0</ele><time>2026-03-21T15:50:20.113Z</time></trkpt><trkpt lat="44.4372059" lon="8.7392264"><ele>149.0</ele><time>2026-03-21T15:50:21.113Z</time></trkpt><trkpt lat="44.43722" lon="8.7393134"><ele>149.0</ele><time>2026-03-21T15:50:22.114Z</time></trkpt><trkpt lat="44.4372429" lon="8.739436"><ele>149.0</ele><time>2026-03-21T15:50:23.114Z</time></trkpt><trkpt lat="44.4372513" lon="8.7395415"><ele>149.0</ele><time>2026-03-21T15:50:24.114Z</time></trkpt><trkpt lat="44.4372531" lon="8.7396516"><ele>149.0</ele><time>2026-03-21T15:50:25.114Z</time></trkpt><trkpt lat="44.4372596" lon="8.7397996"><ele>149.0</ele><time>2026-03-21T15:50:27.113Z</time></trkpt><trkpt lat="44.437261" lon="8.7399321"><ele>149.0</ele><time>2026-03-21T15:50:29.113Z</time></trkpt><trkpt lat="44.4372449" lon="8.7400519"><ele>149.0</ele><time>2026-03-21T15:50:31.114Z</time></trkpt><trkpt lat="44.4371829" lon="8.7401484"><ele>150.0</ele><time>2026-03-21T15:50:33.113Z</time></trkpt><trkpt lat="44.4370684" lon="8.7402278"><ele>151.0</ele><time>2026-03-21T15:50:35.113Z</time></trkpt><trkpt lat="44.4369948" lon="8.7402519"><ele>152.0</ele><time>2026-03-21T15:50:36.114Z</time></trkpt><trkpt lat="44.4369127" lon="8.7402731"><ele>153.0</ele><time>2026-03-21T15:50:37.113Z</time></trkpt><trkpt lat="44.4368229" lon="8.7402984"><ele>154.0</ele><time>2026-03-21T15:50:38.113Z</time></trkpt><trkpt lat="44.4367295" lon="8.7403192"><ele>154.0</ele><time>2026-03-21T15:50:39.114Z</time></trkpt><trkpt lat="44.4366339" lon="8.7403409"><ele>154.0</ele><time>2026-03-21T15:50:40.113Z</time></trkpt><trkpt lat="44.4365408" lon="8.7403606"><ele>154.0</ele><time>2026-03-21T15:50:41.113Z</time></trkpt><trkpt lat="44.4364471" lon="8.7403682"><ele>154.0</ele><time>2026-03-21T15:50:42.114Z</time></trkpt><trkpt lat="44.4363593" lon="8.7403685"><ele>154.0</ele><time>2026-03-21T15:50:43.114Z</time></trkpt><trkpt lat="44.4362718" lon="8.740373"><ele>151.8</ele><time>2026-03-21T15:50:44.113Z</time></trkpt><trkpt lat="44.4361858" lon="8.7403868"><ele>149.60000000000002</ele><time>2026-03-21T15:50:45.114Z</time></trkpt><trkpt lat="44.4360946" lon="8.7404121"><ele>147.4</ele><time>2026-03-21T15:50:46.113Z</time></trkpt><trkpt lat="44.4359954" lon="8.7404462"><ele>145.20000000000002</ele><time>2026-03-21T15:50:47.114Z</time></trkpt><trkpt lat="44.4358843" lon="8.7404857"><ele>143.0</ele><time>2026-03-21T15:50:48.114Z</time></trkpt><trkpt lat="44.4357751" lon="8.7405151"><ele>143.0</ele><time>2026-03-21T15:50:49.114Z</time></trkpt><trkpt lat="44.4356655" lon="8.7405419"><ele>143.0</ele><time>2026-03-21T15:50:50.113Z</time></trkpt><trkpt lat="44.4355667" lon="8.7405657"><ele>143.0</ele><time>2026-03-21T15:50:51.114Z</time></trkpt><trkpt lat="44.4354828" lon="8.7405992"><ele>143.0</ele><time>2026-03-21T15:50:52.114Z</time></trkpt><trkpt lat="44.4354185" lon="8.7406368"><ele>143.0</ele><time>2026-03-21T15:50:53.113Z</time></trkpt><trkpt lat="44.4353315" lon="8.7406885"><ele>140.5</ele><time>2026-03-21T15:50:54.113Z</time></trkpt><trkpt lat="44.4352612" lon="8.7407272"><ele>138.0</ele><time>2026-03-21T15:50:55.113Z</time></trkpt><trkpt lat="44.4351922" lon="8.7408201"><ele>135.5</ele><time>2026-03-21T15:50:56.114Z</time></trkpt><trkpt lat="44.4351472" lon="8.740888"><ele>133.0</ele><time>2026-03-21T15:50:57.113Z</time></trkpt><trkpt lat="44.4350843" lon="8.7409545"><ele>130.5</ele><time>2026-03-21T15:50:58.114Z</time></trkpt><trkpt lat="44.4349705" lon="8.740978"><ele>128.0</ele><time>2026-03-21T15:51:15.113Z</time></trkpt><trkpt lat="44.434844" lon="8.7410029"><ele>127.99999999999999</ele><time>2026-03-21T15:51:17.113Z</time></trkpt><trkpt lat="44.4347668" lon="8.7409997"><ele>128.0</ele><time>2026-03-21T15:51:18.113Z</time></trkpt><trkpt lat="44.434702" lon="8.740988"><ele>128.0</ele><time>2026-03-21T15:51:19.113Z</time></trkpt><trkpt lat="44.4346093" lon="8.740936"><ele>128.0</ele><time>2026-03-21T15:51:20.113Z</time></trkpt><trkpt lat="44.4345281" lon="8.7408897"><ele>127.99999999999999</ele><time>2026-03-21T15:51:21.113Z</time></trkpt><trkpt lat="44.4344455" lon="8.7408633"><ele>128.0</ele><time>2026-03-21T15:51:22.114Z</time></trkpt><trkpt lat="44.4343628" lon="8.74083"><ele>126.16666666666666</ele><time>2026-03-21T15:51:23.114Z</time></trkpt><trkpt lat="44.4342813" lon="8.740816"><ele>124.33333333333333</ele><time>2026-03-21T15:51:24.113Z</time></trkpt><trkpt lat="44.4341993" lon="8.7407853"><ele>122.5</ele><time>2026-03-21T15:51:25.113Z</time></trkpt><trkpt lat="44.4341122" lon="8.7407658"><ele>120.66666666666666</ele><time>2026-03-21T15:51:26.114Z</time></trkpt><trkpt lat="44.4340248" lon="8.740742"><ele>118.83333333333333</ele><time>2026-03-21T15:51:27.114Z</time></trkpt><trkpt lat="44.4339487" lon="8.7407113"><ele>117.0</ele><time>2026-03-21T15:51:28.114Z</time></trkpt><trkpt lat="44.4338763" lon="8.7407232"><ele>112.0</ele><time>2026-03-21T15:51:29.114Z</time></trkpt><trkpt lat="44.4337998" lon="8.7407271"><ele>107.0</ele><time>2026-03-21T15:51:30.113Z</time></trkpt><trkpt lat="44.43373" lon="8.7408081"><ele>102.0</ele><time>2026-03-21T15:51:31.114Z</time></trkpt><trkpt lat="44.4336561" lon="8.7408466"><ele>97.0</ele><time>2026-03-21T15:51:32.114Z</time></trkpt><trkpt lat="44.4335831" lon="8.7409004"><ele>92.0</ele><time>2026-03-21T15:51:33.114Z</time></trkpt><trkpt lat="44.4335077" lon="8.7409551"><ele>87.0</ele><time>2026-03-21T15:51:34.113Z</time></trkpt><trkpt lat="44.4334449" lon="8.7410184"><ele>87.0</ele><time>2026-03-21T15:51:35.113Z</time></trkpt><trkpt lat="44.4333251" lon="8.7410976"><ele>87.0</ele><time>2026-03-21T15:51:37.114Z</time></trkpt><trkpt lat="44.4332443" lon="8.7411153"><ele>87.0</ele><time>2026-03-21T15:51:38.113Z</time></trkpt><trkpt lat="44.4331304" lon="8.7410507"><ele>87.0</ele><time>2026-03-21T15:51:40.114Z</time></trkpt><trkpt lat="44.4330723" lon="8.7410095"><ele>87.0</ele><time>2026-03-21T15:51:41.113Z</time></trkpt><trkpt lat="44.432951" lon="8.7409936"><ele>88.66666666666667</ele><time>2026-03-21T15:51:43.114Z</time></trkpt><trkpt lat="44.4328331" lon="8.7410294"><ele>90.33333333333334</ele><time>2026-03-21T15:51:45.113Z</time></trkpt><trkpt lat="44.4327839" lon="8.7411248"><ele>92.0</ele><time>2026-03-21T15:51:46.114Z</time></trkpt><trkpt lat="44.4327252" lon="8.7411784"><ele>93.66666666666667</ele><time>2026-03-21T15:51:47.114Z</time></trkpt><trkpt lat="44.4326579" lon="8.7412313"><ele>95.33333333333334</ele><time>2026-03-21T15:51:48.113Z</time></trkpt><trkpt lat="44.4325993" lon="8.7412658"><ele>97.0</ele><time>2026-03-21T15:51:49.114Z</time></trkpt><trkpt lat="44.4325258" lon="8.7413057"><ele>97.0</ele><time>2026-03-21T15:51:50.114Z</time></trkpt><trkpt lat="44.4324573" lon="8.7413552"><ele>97.0</ele><time>2026-03-21T15:51:51.113Z</time></trkpt><trkpt lat="44.4323736" lon="8.7414079"><ele>97.0</ele><time>2026-03-21T15:51:52.113Z</time></trkpt><trkpt lat="44.4322905" lon="8.7414657"><ele>97.0</ele><time>2026-03-21T15:51:53.113Z</time></trkpt><trkpt lat="44.4321896" lon="8.7415277"><ele>97.0</ele><time>2026-03-21T15:51:54.113Z</time></trkpt><trkpt lat="44.4320854" lon="8.7416017"><ele>92.39999999999999</ele><time>2026-03-21T15:51:55.114Z</time></trkpt><trkpt lat="44.4319866" lon="8.7416869"><ele>87.8</ele><time>2026-03-21T15:51:56.113Z</time></trkpt><trkpt lat="44.4318956" lon="8.7417809"><ele>83.2</ele><time>2026-03-21T15:51:57.114Z</time></trkpt><trkpt lat="44.4318034" lon="8.7418553"><ele>78.6</ele><time>2026-03-21T15:51:58.114Z</time></trkpt><trkpt lat="44.4317304" lon="8.7419246"><ele>74.0</ele><time>2026-03-21T15:51:59.113Z</time></trkpt><trkpt lat="44.4316668" lon="8.7419857"><ele>74.0</ele><time>2026-03-21T15:52:00.114Z</time></trkpt><trkpt lat="44.4316172" lon="8.7420591"><ele>74.0</ele><time>2026-03-21T15:52:01.113Z</time></trkpt><trkpt lat="44.4315717" lon="8.7421319"><ele>74.0</ele><time>2026-03-21T15:52:02.114Z</time></trkpt><trkpt lat="44.4315387" lon="8.7422414"><ele>74.0</ele><time>2026-03-21T15:52:03.113Z</time></trkpt><trkpt lat="44.4314982" lon="8.7423292"><ele>74.0</ele><time>2026-03-21T15:52:04.113Z</time></trkpt><trkpt lat="44.4314631" lon="8.7424116"><ele>74.0</ele><time>2026-03-21T15:52:05.113Z</time></trkpt><trkpt lat="44.4314236" lon="8.7424914"><ele>74.0</ele><time>2026-03-21T15:52:06.114Z</time></trkpt><trkpt lat="44.4313767" lon="8.7425528"><ele>72.5</ele><time>2026-03-21T15:52:07.114Z</time></trkpt><trkpt lat="44.4312748" lon="8.7426513"><ele>71.0</ele><time>2026-03-21T15:52:09.113Z</time></trkpt><trkpt lat="44.4312263" lon="8.7427148"><ele>69.5</ele><time>2026-03-21T15:52:10.114Z</time></trkpt><trkpt lat="44.4311834" lon="8.7427861"><ele>68.0</ele><time>2026-03-21T15:52:11.113Z</time></trkpt><trkpt lat="44.4311464" lon="8.7428753"><ele>66.5</ele><time>2026-03-21T15:52:12.114Z</time></trkpt><trkpt lat="44.4311158" lon="8.7429693"><ele>65.0</ele><time>2026-03-21T15:52:13.114Z</time></trkpt><trkpt lat="44.4310726" lon="8.7430577"><ele>65.0</ele><time>2026-03-21T15:52:14.113Z</time></trkpt><trkpt lat="44.4310237" lon="8.7431332"><ele>65.0</ele><time>2026-03-21T15:52:15.114Z</time></trkpt><trkpt lat="44.4309685" lon="8.7431935"><ele>65.0</ele><time>2026-03-21T15:52:16.114Z</time></trkpt><trkpt lat="44.430902" lon="8.7432263"><ele>65.0</ele><time>2026-03-21T15:52:17.114Z</time></trkpt><trkpt lat="44.4308368" lon="8.7432472"><ele>65.0</ele><time>2026-03-21T15:52:18.114Z</time></trkpt><trkpt lat="44.4307271" lon="8.7432581"><ele>65.0</ele><time>2026-03-21T15:52:20.113Z</time></trkpt><trkpt lat="44.4306385" lon="8.7432155"><ele>65.0</ele><time>2026-03-21T15:52:22.114Z</time></trkpt><trkpt lat="44.4305472" lon="8.7431691"><ele>65.0</ele><time>2026-03-21T15:52:24.114Z</time></trkpt><trkpt lat="44.4304632" lon="8.7431503"><ele>65.0</ele><time>2026-03-21T15:52:26.114Z</time></trkpt><trkpt lat="44.4304855" lon="8.7430433"><ele>65.0</ele><time>2026-03-21T15:52:30.114Z</time></trkpt><trkpt lat="44.4305572" lon="8.7430051"><ele>65.0</ele><time>2026-03-21T15:52:31.113Z</time></trkpt><trkpt lat="44.4306401" lon="8.7429518"><ele>65.0</ele><time>2026-03-21T15:52:32.113Z</time></trkpt><trkpt lat="44.4307143" lon="8.7428898"><ele>65.0</ele><time>2026-03-21T15:52:33.114Z</time></trkpt><trkpt lat="44.4307824" lon="8.7428225"><ele>65.0</ele><time>2026-03-21T15:52:34.114Z</time></trkpt><trkpt lat="44.430848" lon="8.7427476"><ele>65.0</ele><time>2026-03-21T15:52:35.113Z</time></trkpt><trkpt lat="44.4309036" lon="8.7426651"><ele>65.0</ele><time>2026-03-21T15:52:36.114Z</time></trkpt><trkpt lat="44.4309582" lon="8.7425949"><ele>65.0</ele><time>2026-03-21T15:52:37.113Z</time></trkpt><trkpt lat="44.4310094" lon="8.742519"><ele>65.0</ele><time>2026-03-21T15:52:38.114Z</time></trkpt><trkpt lat="44.4310547" lon="8.7424443"><ele>60.71428571428572</ele><time>2026-03-21T15:52:39.113Z</time></trkpt><trkpt lat="44.4310908" lon="8.742361"><ele>56.42857142857143</ele><time>2026-03-21T15:52:40.113Z</time></trkpt><trkpt lat="44.4311091" lon="8.7422713"><ele>52.142857142857146</ele><time>2026-03-21T15:52:41.114Z</time></trkpt><trkpt lat="44.4311081" lon="8.7421714"><ele>47.85714285714286</ele><time>2026-03-21T15:52:42.113Z</time></trkpt><trkpt lat="44.431082" lon="8.7420888"><ele>43.57142857142857</ele><time>2026-03-21T15:52:43.113Z</time></trkpt><trkpt lat="44.4310374" lon="8.7420175"><ele>39.285714285714285</ele><time>2026-03-21T15:52:44.113Z</time></trkpt><trkpt lat="44.4309759" lon="8.7419791"><ele>35.0</ele><time>2026-03-21T15:52:45.113Z</time></trkpt><trkpt lat="44.4309028" lon="8.7419709"><ele>35.0</ele><time>2026-03-21T15:52:46.113Z</time></trkpt><trkpt lat="44.4308317" lon="8.7420038"><ele>35.0</ele><time>2026-03-21T15:52:47.114Z</time></trkpt><trkpt lat="44.430758" lon="8.7420736"><ele>35.0</ele><time>2026-03-21T15:52:48.113Z</time></trkpt><trkpt lat="44.4306775" lon="8.7421594"><ele>35.0</ele><time>2026-03-21T15:52:49.114Z</time></trkpt><trkpt lat="44.4305965" lon="8.7422464"><ele>35.0</ele><time>2026-03-21T15:52:50.113Z</time></trkpt><trkpt lat="44.4305148" lon="8.742338"><ele>31.8</ele><time>2026-03-21T15:52:51.114Z</time></trkpt><trkpt lat="44.4304362" lon="8.742426"><ele>28.6</ele><time>2026-03-21T15:52:52.114Z</time></trkpt><trkpt lat="44.4303556" lon="8.7425135"><ele>25.4</ele><time>2026-03-21T15:52:53.113Z</time></trkpt><trkpt lat="44.4302719" lon="8.7425981"><ele>22.2</ele><time>2026-03-21T15:52:54.114Z</time></trkpt><trkpt lat="44.4301843" lon="8.7426736"><ele>19.0</ele><time>2026-03-21T15:52:55.114Z</time></trkpt><trkpt lat="44.4300915" lon="8.7427318"><ele>23.2</ele><time>2026-03-21T15:52:56.113Z</time></trkpt><trkpt lat="44.4299957" lon="8.7427724"><ele>27.4</ele><time>2026-03-21T15:52:57.113Z</time></trkpt><trkpt lat="44.4298956" lon="8.7427908"><ele>31.6</ele><time>2026-03-21T15:52:58.113Z</time></trkpt><trkpt lat="44.4297975" lon="8.7428101"><ele>35.8</ele><time>2026-03-21T15:52:59.114Z</time></trkpt><trkpt lat="44.429702" lon="8.7428212"><ele>40.0</ele><time>2026-03-21T15:53:00.113Z</time></trkpt><trkpt lat="44.4296069" lon="8.7428343"><ele>40.0</ele><time>2026-03-21T15:53:01.113Z</time></trkpt><trkpt lat="44.4295118" lon="8.742851"><ele>40.0</ele><time>2026-03-21T15:53:02.114Z</time></trkpt><trkpt lat="44.4294157" lon="8.7428639"><ele>40.0</ele><time>2026-03-21T15:53:03.113Z</time></trkpt><trkpt lat="44.4293187" lon="8.7428744"><ele>40.0</ele><time>2026-03-21T15:53:04.113Z</time></trkpt><trkpt lat="44.4292188" lon="8.7428861"><ele>40.0</ele><time>2026-03-21T15:53:05.113Z</time></trkpt><trkpt lat="44.4291174" lon="8.7428922"><ele>40.0</ele><time>2026-03-21T15:53:06.113Z</time></trkpt><trkpt lat="44.4290162" lon="8.7428862"><ele>40.0</ele><time>2026-03-21T15:53:07.113Z</time></trkpt><trkpt lat="44.4289128" lon="8.7428833"><ele>40.0</ele><time>2026-03-21T15:53:08.113Z</time></trkpt><trkpt lat="44.4288124" lon="8.7428738"><ele>40.0</ele><time>2026-03-21T15:53:09.114Z</time></trkpt><trkpt lat="44.4287124" lon="8.742882"><ele>40.0</ele><time>2026-03-21T15:53:10.114Z</time></trkpt><trkpt lat="44.4286309" lon="8.7428993"><ele>37.0</ele><time>2026-03-21T15:53:11.114Z</time></trkpt><trkpt lat="44.4285341" lon="8.7428932"><ele>34.0</ele><time>2026-03-21T15:53:12.114Z</time></trkpt><trkpt lat="44.428463" lon="8.7428587"><ele>31.0</ele><time>2026-03-21T15:53:13.113Z</time></trkpt><trkpt lat="44.4283871" lon="8.7428312"><ele>28.0</ele><time>2026-03-21T15:53:14.114Z</time></trkpt><trkpt lat="44.4283076" lon="8.7427948"><ele>25.0</ele><time>2026-03-21T15:53:16.114Z</time></trkpt><trkpt lat="44.4282335" lon="8.7427425"><ele>22.0</ele><time>2026-03-21T15:53:19.114Z</time></trkpt><trkpt lat="44.4281135" lon="8.7426952"><ele>20.833333333333332</ele><time>2026-03-21T15:53:21.114Z</time></trkpt><trkpt lat="44.4280375" lon="8.7426981"><ele>19.666666666666664</ele><time>2026-03-21T15:53:22.114Z</time></trkpt><trkpt lat="44.4279465" lon="8.7427079"><ele>18.5</ele><time>2026-03-21T15:53:23.114Z</time></trkpt><trkpt lat="44.4278531" lon="8.7427279"><ele>17.333333333333332</ele><time>2026-03-21T15:53:24.113Z</time></trkpt><trkpt lat="44.4277627" lon="8.7427602"><ele>16.166666666666668</ele><time>2026-03-21T15:53:25.114Z</time></trkpt><trkpt lat="44.4276821" lon="8.7428064"><ele>15.0</ele><time>2026-03-21T15:53:26.114Z</time></trkpt><trkpt lat="44.4276127" lon="8.7428573"><ele>13.5</ele><time>2026-03-21T15:53:27.114Z</time></trkpt><trkpt lat="44.4275481" lon="8.7428982"><ele>12.0</ele><time>2026-03-21T15:53:28.113Z</time></trkpt><trkpt lat="44.4274477" lon="8.7429402"><ele>10.5</ele><time>2026-03-21T15:53:30.114Z</time></trkpt><trkpt lat="44.4273776" lon="8.7428697"><ele>9.0</ele><time>2026-03-21T15:53:32.114Z</time></trkpt><trkpt lat="44.4273629" lon="8.7427758"><ele>7.5</ele><time>2026-03-21T15:53:33.114Z</time></trkpt><trkpt lat="44.427349" lon="8.7426624"><ele>6.0</ele><time>2026-03-21T15:53:34.114Z</time></trkpt><trkpt lat="44.4273348" lon="8.7425458"><ele>5.833333333333333</ele><time>2026-03-21T15:53:35.113Z</time></trkpt><trkpt lat="44.427318" lon="8.742428"><ele>5.666666666666667</ele><time>2026-03-21T15:53:36.114Z</time></trkpt><trkpt lat="44.4273073" lon="8.742314"><ele>5.5</ele><time>2026-03-21T15:53:37.113Z</time></trkpt><trkpt lat="44.4272933" lon="8.7421983"><ele>5.333333333333334</ele><time>2026-03-21T15:53:38.114Z</time></trkpt><trkpt lat="44.4272757" lon="8.7420871"><ele>5.166666666666667</ele><time>2026-03-21T15:53:39.114Z</time></trkpt><trkpt lat="44.4272476" lon="8.7419719"><ele>5.0</ele><time>2026-03-21T15:53:40.113Z</time></trkpt><trkpt lat="44.4272023" lon="8.7418564"><ele>4.75</ele><time>2026-03-21T15:53:41.113Z</time></trkpt><trkpt lat="44.4271331" lon="8.7417443"><ele>4.5</ele><time>2026-03-21T15:53:42.114Z</time></trkpt><trkpt lat="44.4270473" lon="8.7416264"><ele>4.25</ele><time>2026-03-21T15:53:43.114Z</time></trkpt><trkpt lat="44.4269505" lon="8.7414938"><ele>4.0</ele><time>2026-03-21T15:53:44.113Z</time></trkpt><trkpt lat="44.4268519" lon="8.7413609"><ele>4.0</ele><time>2026-03-21T15:53:45.113Z</time></trkpt><trkpt lat="44.4267449" lon="8.7412321"><ele>4.0</ele><time>2026-03-21T15:53:46.113Z</time></trkpt><trkpt lat="44.4266377" lon="8.7411104"><ele>4.0</ele><time>2026-03-21T15:53:47.113Z</time></trkpt><trkpt lat="44.4265273" lon="8.7409946"><ele>4.0</ele><time>2026-03-21T15:53:48.113Z</time></trkpt><trkpt lat="44.4264434" lon="8.7408711"><ele>3.75</ele><time>2026-03-21T15:53:49.114Z</time></trkpt><trkpt lat="44.4263874" lon="8.7407207"><ele>3.5</ele><time>2026-03-21T15:53:50.113Z</time></trkpt><trkpt lat="44.4263417" lon="8.7405574"><ele>3.25</ele><time>2026-03-21T15:53:51.114Z</time></trkpt><trkpt lat="44.4262733" lon="8.740403"><ele>3.0</ele><time>2026-03-21T15:53:52.113Z</time></trkpt><trkpt lat="44.4261811" lon="8.7402686"><ele>5.25</ele><time>2026-03-21T15:53:53.114Z</time></trkpt><trkpt lat="44.4260866" lon="8.7401383"><ele>7.5</ele><time>2026-03-21T15:53:54.114Z</time></trkpt><trkpt lat="44.4259917" lon="8.7400088"><ele>9.75</ele><time>2026-03-21T15:53:55.114Z</time></trkpt><trkpt lat="44.4258984" lon="8.7398783"><ele>12.0</ele><time>2026-03-21T15:53:56.113Z</time></trkpt><trkpt lat="44.4258094" lon="8.7397479"><ele>12.0</ele><time>2026-03-21T15:53:57.113Z</time></trkpt><trkpt lat="44.4257284" lon="8.7396039"><ele>12.0</ele><time>2026-03-21T15:53:58.114Z</time></trkpt><trkpt lat="44.4256475" lon="8.7394547"><ele>12.0</ele><time>2026-03-21T15:53:59.113Z</time></trkpt><trkpt lat="44.4255631" lon="8.7393146"><ele>12.0</ele><time>2026-03-21T15:54:00.114Z</time></trkpt><trkpt lat="44.4254712" lon="8.7391813"><ele>11.75</ele><time>2026-03-21T15:54:01.113Z</time></trkpt><trkpt lat="44.4253757" lon="8.7390565"><ele>11.5</ele><time>2026-03-21T15:54:02.114Z</time></trkpt><trkpt lat="44.4252717" lon="8.7389355"><ele>11.25</ele><time>2026-03-21T15:54:03.114Z</time></trkpt><trkpt lat="44.4251664" lon="8.7388094"><ele>11.0</ele><time>2026-03-21T15:54:04.113Z</time></trkpt><trkpt lat="44.4250634" lon="8.7386834"><ele>14.75</ele><time>2026-03-21T15:54:05.113Z</time></trkpt><trkpt lat="44.4249681" lon="8.73855"><ele>18.5</ele><time>2026-03-21T15:54:06.114Z</time></trkpt><trkpt lat="44.4248765" lon="8.7384135"><ele>22.25</ele><time>2026-03-21T15:54:07.114Z</time></trkpt><trkpt lat="44.4247971" lon="8.7382732"><ele>26.0</ele><time>2026-03-21T15:54:08.113Z</time></trkpt><trkpt lat="44.4247348" lon="8.7381296"><ele>26.0</ele><time>2026-03-21T15:54:09.114Z</time></trkpt><trkpt lat="44.4246875" lon="8.7379927"><ele>26.0</ele><time>2026-03-21T15:54:10.114Z</time></trkpt><trkpt lat="44.4246318" lon="8.7378713"><ele>26.0</ele><time>2026-03-21T15:54:11.113Z</time></trkpt><trkpt lat="44.4245599" lon="8.7377863"><ele>26.0</ele><time>2026-03-21T15:54:12.114Z</time></trkpt><trkpt lat="44.4244777" lon="8.737724"><ele>26.0</ele><time>2026-03-21T15:54:13.114Z</time></trkpt><trkpt lat="44.4243859" lon="8.7376962"><ele>24.8</ele><time>2026-03-21T15:54:14.114Z</time></trkpt><trkpt lat="44.4242868" lon="8.737695"><ele>23.6</ele><time>2026-03-21T15:54:15.114Z</time></trkpt><trkpt lat="44.4241863" lon="8.7377176"><ele>22.4</ele><time>2026-03-21T15:54:16.113Z</time></trkpt><trkpt lat="44.424084" lon="8.7377414"><ele>21.2</ele><time>2026-03-21T15:54:17.114Z</time></trkpt><trkpt lat="44.4239805" lon="8.7377509"><ele>20.0</ele><time>2026-03-21T15:54:18.113Z</time></trkpt><trkpt lat="44.423882" lon="8.7377154"><ele>18.6</ele><time>2026-03-21T15:54:19.114Z</time></trkpt><trkpt lat="44.4237989" lon="8.7376287"><ele>17.2</ele><time>2026-03-21T15:54:20.113Z</time></trkpt><trkpt lat="44.4237138" lon="8.7375292"><ele>15.8</ele><time>2026-03-21T15:54:21.113Z</time></trkpt><trkpt lat="44.4236257" lon="8.7374296"><ele>14.4</ele><time>2026-03-21T15:54:22.113Z</time></trkpt><trkpt lat="44.423536" lon="8.7373164"><ele>13.0</ele><time>2026-03-21T15:54:23.113Z</time></trkpt><trkpt lat="44.4234437" lon="8.7371988"><ele>13.0</ele><time>2026-03-21T15:54:24.114Z</time></trkpt><trkpt lat="44.4233492" lon="8.7370722"><ele>13.0</ele><time>2026-03-21T15:54:25.113Z</time></trkpt><trkpt lat="44.4232496" lon="8.7369421"><ele>13.0</ele><time>2026-03-21T15:54:26.113Z</time></trkpt><trkpt lat="44.4231483" lon="8.7368108"><ele>13.0</ele><time>2026-03-21T15:54:27.114Z</time></trkpt><trkpt lat="44.4230518" lon="8.7366708"><ele>13.0</ele><time>2026-03-21T15:54:28.114Z</time></trkpt><trkpt lat="44.4229705" lon="8.7365099"><ele>13.0</ele><time>2026-03-21T15:54:29.114Z</time></trkpt><trkpt lat="44.4229258" lon="8.7363242"><ele>13.0</ele><time>2026-03-21T15:54:30.114Z</time></trkpt><trkpt lat="44.4228849" lon="8.7361418"><ele>13.0</ele><time>2026-03-21T15:54:31.113Z</time></trkpt><trkpt lat="44.422814" lon="8.7359642"><ele>13.0</ele><time>2026-03-21T15:54:32.114Z</time></trkpt><trkpt lat="44.4227225" lon="8.7358067"><ele>13.0</ele><time>2026-03-21T15:54:33.114Z</time></trkpt><trkpt lat="44.4226271" lon="8.7356463"><ele>13.0</ele><time>2026-03-21T15:54:34.113Z</time></trkpt><trkpt lat="44.4225371" lon="8.7354941"><ele>13.0</ele><time>2026-03-21T15:54:35.114Z</time></trkpt><trkpt lat="44.4224503" lon="8.7353497"><ele>16.0</ele><time>2026-03-21T15:54:36.114Z</time></trkpt><trkpt lat="44.4223715" lon="8.7352061"><ele>19.0</ele><time>2026-03-21T15:54:37.113Z</time></trkpt><trkpt lat="44.4223038" lon="8.7350567"><ele>22.0</ele><time>2026-03-21T15:54:38.114Z</time></trkpt><trkpt lat="44.4222616" lon="8.7348926"><ele>25.0</ele><time>2026-03-21T15:54:39.114Z</time></trkpt><trkpt lat="44.42226" lon="8.7347232"><ele>25.0</ele><time>2026-03-21T15:54:40.114Z</time></trkpt><trkpt lat="44.4222875" lon="8.7345538"><ele>25.0</ele><time>2026-03-21T15:54:41.113Z</time></trkpt><trkpt lat="44.4223218" lon="8.7343842"><ele>25.0</ele><time>2026-03-21T15:54:42.113Z</time></trkpt><trkpt lat="44.4223351" lon="8.7342035"><ele>25.0</ele><time>2026-03-21T15:54:43.113Z</time></trkpt><trkpt lat="44.422324" lon="8.7340227"><ele>28.5</ele><time>2026-03-21T15:54:44.114Z</time></trkpt><trkpt lat="44.4222917" lon="8.7338495"><ele>32.0</ele><time>2026-03-21T15:54:45.114Z</time></trkpt><trkpt lat="44.4222341" lon="8.7336908"><ele>35.5</ele><time>2026-03-21T15:54:46.114Z</time></trkpt><trkpt lat="44.4221563" lon="8.7335448"><ele>39.0</ele><time>2026-03-21T15:54:47.114Z</time></trkpt><trkpt lat="44.4220738" lon="8.7333921"><ele>31.25</ele><time>2026-03-21T15:54:48.113Z</time></trkpt><trkpt lat="44.422" lon="8.7332364"><ele>23.5</ele><time>2026-03-21T15:54:49.114Z</time></trkpt><trkpt lat="44.4219382" lon="8.733078"><ele>15.75</ele><time>2026-03-21T15:54:50.113Z</time></trkpt><trkpt lat="44.4218915" lon="8.7329092"><ele>8.0</ele><time>2026-03-21T15:54:51.113Z</time></trkpt><trkpt lat="44.4218722" lon="8.7327381"><ele>8.75</ele><time>2026-03-21T15:54:52.114Z</time></trkpt><trkpt lat="44.4218826" lon="8.7325587"><ele>9.5</ele><time>2026-03-21T15:54:53.114Z</time></trkpt><trkpt lat="44.4218888" lon="8.7323785"><ele>10.25</ele><time>2026-03-21T15:54:54.114Z</time></trkpt><trkpt lat="44.4218726" lon="8.7321916"><ele>11.0</ele><time>2026-03-21T15:54:55.114Z</time></trkpt><trkpt lat="44.421835" lon="8.7320157"><ele>12.25</ele><time>2026-03-21T15:54:56.113Z</time></trkpt><trkpt lat="44.4217758" lon="8.7318461"><ele>13.5</ele><time>2026-03-21T15:54:57.114Z</time></trkpt><trkpt lat="44.4216951" lon="8.7316882"><ele>14.75</ele><time>2026-03-21T15:54:58.113Z</time></trkpt><trkpt lat="44.4216267" lon="8.731523"><ele>16.0</ele><time>2026-03-21T15:54:59.113Z</time></trkpt><trkpt lat="44.4215781" lon="8.7313461"><ele>16.0</ele><time>2026-03-21T15:55:00.113Z</time></trkpt><trkpt lat="44.4215588" lon="8.7311606"><ele>16.0</ele><time>2026-03-21T15:55:01.113Z</time></trkpt><trkpt lat="44.4215588" lon="8.7309683"><ele>16.0</ele><time>2026-03-21T15:55:02.113Z</time></trkpt><trkpt lat="44.4215348" lon="8.7307691"><ele>16.0</ele><time>2026-03-21T15:55:03.114Z</time></trkpt><trkpt lat="44.4214832" lon="8.7305763"><ele>14.0</ele><time>2026-03-21T15:55:04.114Z</time></trkpt><trkpt lat="44.4214085" lon="8.7303995"><ele>12.0</ele><time>2026-03-21T15:55:05.113Z</time></trkpt><trkpt lat="44.4213041" lon="8.7302384"><ele>10.0</ele><time>2026-03-21T15:55:06.114Z</time></trkpt><trkpt lat="44.4211938" lon="8.7300771"><ele>10.0</ele><time>2026-03-21T15:55:07.113Z</time></trkpt><trkpt lat="44.421081" lon="8.7299176"><ele>10.0</ele><time>2026-03-21T15:55:08.113Z</time></trkpt><trkpt lat="44.4209637" lon="8.7297539"><ele>10.0</ele><time>2026-03-21T15:55:09.114Z</time></trkpt><trkpt lat="44.4208519" lon="8.7295846"><ele>10.0</ele><time>2026-03-21T15:55:10.113Z</time></trkpt><trkpt lat="44.4207389" lon="8.729418"><ele>10.0</ele><time>2026-03-21T15:55:11.114Z</time></trkpt><trkpt lat="44.4206248" lon="8.7292457"><ele>10.0</ele><time>2026-03-21T15:55:12.114Z</time></trkpt><trkpt lat="44.4205076" lon="8.7290743"><ele>9.0</ele><time>2026-03-21T15:55:13.114Z</time></trkpt><trkpt lat="44.4203828" lon="8.7289067"><ele>8.0</ele><time>2026-03-21T15:55:14.113Z</time></trkpt><trkpt lat="44.4202495" lon="8.7287472"><ele>7.0</ele><time>2026-03-21T15:55:15.114Z</time></trkpt><trkpt lat="44.4201097" lon="8.72859"><ele>5.666666666666667</ele><time>2026-03-21T15:55:16.114Z</time></trkpt><trkpt lat="44.4199588" lon="8.7284309"><ele>4.333333333333334</ele><time>2026-03-21T15:55:17.113Z</time></trkpt><trkpt lat="44.4197993" lon="8.7282697"><ele>3.0</ele><time>2026-03-21T15:55:18.113Z</time></trkpt><trkpt lat="44.419631" lon="8.7281033"><ele>3.0</ele><time>2026-03-21T15:55:19.114Z</time></trkpt><trkpt lat="44.4194583" lon="8.7279301"><ele>3.0</ele><time>2026-03-21T15:55:20.113Z</time></trkpt><trkpt lat="44.4192964" lon="8.7277701"><ele>3.0</ele><time>2026-03-21T15:55:21.114Z</time></trkpt><trkpt lat="44.4191393" lon="8.7276172"><ele>3.333333333333333</ele><time>2026-03-21T15:55:22.113Z</time></trkpt><trkpt lat="44.4189926" lon="8.7274728"><ele>3.6666666666666665</ele><time>2026-03-21T15:55:23.113Z</time></trkpt><trkpt lat="44.4188573" lon="8.7273286"><ele>4.0</ele><time>2026-03-21T15:55:24.114Z</time></trkpt><trkpt lat="44.4187272" lon="8.7271929"><ele>4.0</ele><time>2026-03-21T15:55:25.113Z</time></trkpt><trkpt lat="44.4186016" lon="8.7270599"><ele>4.0</ele><time>2026-03-21T15:55:26.114Z</time></trkpt><trkpt lat="44.4184877" lon="8.7269293"><ele>4.0</ele><time>2026-03-21T15:55:27.114Z</time></trkpt><trkpt lat="44.4183798" lon="8.7267924"><ele>9.25</ele><time>2026-03-21T15:55:28.114Z</time></trkpt><trkpt lat="44.4182782" lon="8.7266507"><ele>14.5</ele><time>2026-03-21T15:55:29.114Z</time></trkpt><trkpt lat="44.4181787" lon="8.726503"><ele>19.75</ele><time>2026-03-21T15:55:30.114Z</time></trkpt><trkpt lat="44.4180852" lon="8.7263509"><ele>25.0</ele><time>2026-03-21T15:55:31.114Z</time></trkpt><trkpt lat="44.4179939" lon="8.7261956"><ele>21.5</ele><time>2026-03-21T15:55:32.114Z</time></trkpt><trkpt lat="44.4179022" lon="8.7260401"><ele>18.0</ele><time>2026-03-21T15:55:33.113Z</time></trkpt><trkpt lat="44.4170919" lon="8.7241504"><ele>16.0</ele><time>2026-03-21T15:55:45.114Z</time></trkpt><trkpt lat="44.4170626" lon="8.7239643"><ele>14.0</ele><time>2026-03-21T15:55:46.113Z</time></trkpt><trkpt lat="44.417017" lon="8.72378"><ele>12.0</ele><time>2026-03-21T15:55:47.113Z</time></trkpt><trkpt lat="44.4169892" lon="8.7235759"><ele>10.0</ele><time>2026-03-21T15:55:48.114Z</time></trkpt><trkpt lat="44.4169607" lon="8.7233677"><ele>10.0</ele><time>2026-03-21T15:55:49.113Z</time></trkpt><trkpt lat="44.4169208" lon="8.7231582"><ele>10.0</ele><time>2026-03-21T15:55:50.114Z</time></trkpt><trkpt lat="44.4168854" lon="8.7229476"><ele>10.0</ele><time>2026-03-21T15:55:51.114Z</time></trkpt><trkpt lat="44.4168476" lon="8.7227363"><ele>11.666666666666668</ele><time>2026-03-21T15:55:52.114Z</time></trkpt><trkpt lat="44.41681" lon="8.7225246"><ele>13.333333333333334</ele><time>2026-03-21T15:55:53.113Z</time></trkpt><trkpt lat="44.4167683" lon="8.7223162"><ele>15.0</ele><time>2026-03-21T15:55:54.114Z</time></trkpt><trkpt lat="44.4167295" lon="8.7221113"><ele>15.0</ele><time>2026-03-21T15:55:55.114Z</time></trkpt><trkpt lat="44.4166934" lon="8.7219084"><ele>15.0</ele><time>2026-03-21T15:55:56.114Z</time></trkpt><trkpt lat="44.4166567" lon="8.7217113"><ele>15.0</ele><time>2026-03-21T15:55:57.114Z</time></trkpt><trkpt lat="44.4166234" lon="8.7215175"><ele>15.0</ele><time>2026-03-21T15:55:58.114Z</time></trkpt><trkpt lat="44.41659" lon="8.7213281"><ele>15.25</ele><time>2026-03-21T15:55:59.113Z</time></trkpt><trkpt lat="44.4165618" lon="8.721145"><ele>15.5</ele><time>2026-03-21T15:56:00.113Z</time></trkpt><trkpt lat="44.4165417" lon="8.7209719"><ele>15.75</ele><time>2026-03-21T15:56:01.114Z</time></trkpt><trkpt lat="44.4165263" lon="8.7208065"><ele>16.0</ele><time>2026-03-21T15:56:02.113Z</time></trkpt><trkpt lat="44.416514" lon="8.7206356"><ele>18.75</ele><time>2026-03-21T15:56:03.113Z</time></trkpt><trkpt lat="44.4165088" lon="8.7204597"><ele>21.5</ele><time>2026-03-21T15:56:04.113Z</time></trkpt><trkpt lat="44.4165006" lon="8.7202792"><ele>24.25</ele><time>2026-03-21T15:56:05.114Z</time></trkpt><trkpt lat="44.4164943" lon="8.7200861"><ele>27.0</ele><time>2026-03-21T15:56:06.113Z</time></trkpt><trkpt lat="44.4164903" lon="8.7198846"><ele>27.333333333333336</ele><time>2026-03-21T15:56:07.113Z</time></trkpt><trkpt lat="44.4164851" lon="8.7196739"><ele>27.666666666666668</ele><time>2026-03-21T15:56:08.114Z</time></trkpt><trkpt lat="44.4164782" lon="8.7194545"><ele>28.0</ele><time>2026-03-21T15:56:09.114Z</time></trkpt><trkpt lat="44.4164683" lon="8.719229"><ele>29.666666666666668</ele><time>2026-03-21T15:56:10.114Z</time></trkpt><trkpt lat="44.4164594" lon="8.7190029"><ele>31.333333333333336</ele><time>2026-03-21T15:56:11.113Z</time></trkpt><trkpt lat="44.4164445" lon="8.7187731"><ele>33.0</ele><time>2026-03-21T15:56:12.113Z</time></trkpt><trkpt lat="44.416434" lon="8.7185484"><ele>36.333333333333336</ele><time>2026-03-21T15:56:13.113Z</time></trkpt><trkpt lat="44.4164236" lon="8.7183251"><ele>39.66666666666667</ele><time>2026-03-21T15:56:14.113Z</time></trkpt><trkpt lat="44.4164127" lon="8.7181016"><ele>43.0</ele><time>2026-03-21T15:56:15.113Z</time></trkpt><trkpt lat="44.4163677" lon="8.7171459"><ele>44.0</ele><time>2026-03-21T15:56:19.113Z</time></trkpt><trkpt lat="44.4163541" lon="8.7169141"><ele>45.0</ele><time>2026-03-21T15:56:20.114Z</time></trkpt><trkpt lat="44.4163375" lon="8.7166883"><ele>46.0</ele><time>2026-03-21T15:56:21.114Z</time></trkpt><trkpt lat="44.416326" lon="8.7164589"><ele>32.0</ele><time>2026-03-21T15:56:22.113Z</time></trkpt><trkpt lat="44.4163153" lon="8.7162303"><ele>18.0</ele><time>2026-03-21T15:56:23.114Z</time></trkpt><trkpt lat="44.4163116" lon="8.716001"><ele>4.0</ele><time>2026-03-21T15:56:24.114Z</time></trkpt><trkpt lat="44.4162981" lon="8.7157698"><ele>3.6666666666666665</ele><time>2026-03-21T15:56:25.114Z</time></trkpt><trkpt lat="44.4162871" lon="8.7155417"><ele>3.333333333333333</ele><time>2026-03-21T15:56:26.113Z</time></trkpt><trkpt lat="44.4162727" lon="8.7153149"><ele>3.0</ele><time>2026-03-21T15:56:27.113Z</time></trkpt><trkpt lat="44.4162456" lon="8.7150857"><ele>3.0</ele><time>2026-03-21T15:56:28.113Z</time></trkpt><trkpt lat="44.4162145" lon="8.7148569"><ele>3.0</ele><time>2026-03-21T15:56:29.113Z</time></trkpt><trkpt lat="44.4161844" lon="8.7146296"><ele>3.0</ele><time>2026-03-21T15:56:30.113Z</time></trkpt><trkpt lat="44.4161478" lon="8.7144061"><ele>3.333333333333333</ele><time>2026-03-21T15:56:31.114Z</time></trkpt><trkpt lat="44.4161046" lon="8.7141855"><ele>3.6666666666666665</ele><time>2026-03-21T15:56:32.114Z</time></trkpt><trkpt lat="44.4160583" lon="8.7139651"><ele>4.0</ele><time>2026-03-21T15:56:33.114Z</time></trkpt><trkpt lat="44.4160042" lon="8.7137451"><ele>4.333333333333333</ele><time>2026-03-21T15:56:34.114Z</time></trkpt><trkpt lat="44.4159474" lon="8.7135297"><ele>4.666666666666667</ele><time>2026-03-21T15:56:35.113Z</time></trkpt><trkpt lat="44.4158894" lon="8.7133192"><ele>5.0</ele><time>2026-03-21T15:56:36.113Z</time></trkpt><trkpt lat="44.4158285" lon="8.7131103"><ele>5.0</ele><time>2026-03-21T15:56:37.114Z</time></trkpt><trkpt lat="44.415763" lon="8.712897"><ele>5.0</ele><time>2026-03-21T15:56:38.113Z</time></trkpt><trkpt lat="44.4156976" lon="8.7126886"><ele>5.0</ele><time>2026-03-21T15:56:39.114Z</time></trkpt><trkpt lat="44.415626" lon="8.7124825"><ele>4.666666666666667</ele><time>2026-03-21T15:56:40.114Z</time></trkpt><trkpt lat="44.4155503" lon="8.7122853"><ele>4.333333333333333</ele><time>2026-03-21T15:56:41.114Z</time></trkpt><trkpt lat="44.4154667" lon="8.7120857"><ele>4.0</ele><time>2026-03-21T15:56:42.114Z</time></trkpt><trkpt lat="44.4153848" lon="8.7118804"><ele>4.0</ele><time>2026-03-21T15:56:43.114Z</time></trkpt><trkpt lat="44.4153071" lon="8.7116694"><ele>4.0</ele><time>2026-03-21T15:56:44.113Z</time></trkpt><trkpt lat="44.4152367" lon="8.7114635"><ele>4.0</ele><time>2026-03-21T15:56:45.114Z</time></trkpt><trkpt lat="44.4151942" lon="8.7112488"><ele>6.666666666666666</ele><time>2026-03-21T15:56:46.113Z</time></trkpt><trkpt lat="44.415153" lon="8.7110219"><ele>9.333333333333334</ele><time>2026-03-21T15:56:47.114Z</time></trkpt><trkpt lat="44.4151113" lon="8.7107949"><ele>12.0</ele><time>2026-03-21T15:56:48.113Z</time></trkpt><trkpt lat="44.4150835" lon="8.7105619"><ele>12.0</ele><time>2026-03-21T15:56:49.114Z</time></trkpt><trkpt lat="44.4150357" lon="8.7103207"><ele>12.0</ele><time>2026-03-21T15:56:50.113Z</time></trkpt><trkpt lat="44.4149558" lon="8.7100858"><ele>12.0</ele><time>2026-03-21T15:56:51.114Z</time></trkpt><trkpt lat="44.4148545" lon="8.7098607"><ele>11.666666666666666</ele><time>2026-03-21T15:56:52.113Z</time></trkpt><trkpt lat="44.4147203" lon="8.7096483"><ele>11.333333333333332</ele><time>2026-03-21T15:56:53.113Z</time></trkpt><trkpt lat="44.4145679" lon="8.7094571"><ele>11.0</ele><time>2026-03-21T15:56:54.114Z</time></trkpt><trkpt lat="44.4144269" lon="8.7092581"><ele>11.0</ele><time>2026-03-21T15:56:55.113Z</time></trkpt><trkpt lat="44.4143147" lon="8.7090326"><ele>11.0</ele><time>2026-03-21T15:56:56.113Z</time></trkpt><trkpt lat="44.4142356" lon="8.7087847"><ele>11.0</ele><time>2026-03-21T15:56:57.113Z</time></trkpt><trkpt lat="44.4142022" lon="8.7085275"><ele>12.0</ele><time>2026-03-21T15:56:58.114Z</time></trkpt><trkpt lat="44.4142173" lon="8.7082694"><ele>13.0</ele><time>2026-03-21T15:56:59.113Z</time></trkpt><trkpt lat="44.414268" lon="8.7080217"><ele>14.0</ele><time>2026-03-21T15:57:00.114Z</time></trkpt><trkpt lat="44.4143573" lon="8.7077822"><ele>14.0</ele><time>2026-03-21T15:57:01.114Z</time></trkpt><trkpt lat="44.4144641" lon="8.7075589"><ele>14.0</ele><time>2026-03-21T15:57:02.113Z</time></trkpt><trkpt lat="44.4145667" lon="8.707352"><ele>14.0</ele><time>2026-03-21T15:57:03.114Z</time></trkpt><trkpt lat="44.4146549" lon="8.7071437"><ele>22.0</ele><time>2026-03-21T15:57:04.114Z</time></trkpt><trkpt lat="44.4147183" lon="8.706935"><ele>30.0</ele><time>2026-03-21T15:57:05.113Z</time></trkpt><trkpt lat="44.4147604" lon="8.7067198"><ele>38.0</ele><time>2026-03-21T15:57:06.113Z</time></trkpt><trkpt lat="44.4147838" lon="8.7064958"><ele>38.0</ele><time>2026-03-21T15:57:07.113Z</time></trkpt><trkpt lat="44.4148055" lon="8.7062748"><ele>38.0</ele><time>2026-03-21T15:57:08.114Z</time></trkpt><trkpt lat="44.4148201" lon="8.706051"><ele>38.0</ele><time>2026-03-21T15:57:09.113Z</time></trkpt><trkpt lat="44.4148157" lon="8.7058275"><ele>37.33333333333333</ele><time>2026-03-21T15:57:10.113Z</time></trkpt><trkpt lat="44.4147984" lon="8.7056071"><ele>36.666666666666664</ele><time>2026-03-21T15:57:11.114Z</time></trkpt><trkpt lat="44.414764" lon="8.7054005"><ele>36.0</ele><time>2026-03-21T15:57:12.114Z</time></trkpt><trkpt lat="44.4147254" lon="8.7052086"><ele>35.0</ele><time>2026-03-21T15:57:13.113Z</time></trkpt><trkpt lat="44.4146585" lon="8.7050384"><ele>34.0</ele><time>2026-03-21T15:57:14.114Z</time></trkpt><trkpt lat="44.414594" lon="8.7048838"><ele>33.0</ele><time>2026-03-21T15:57:15.113Z</time></trkpt><trkpt lat="44.4145175" lon="8.7047422"><ele>32.0</ele><time>2026-03-21T15:57:16.113Z</time></trkpt><trkpt lat="44.414433" lon="8.7046022"><ele>28.25</ele><time>2026-03-21T15:57:17.114Z</time></trkpt><trkpt lat="44.4143457" lon="8.7044683"><ele>24.5</ele><time>2026-03-21T15:57:18.114Z</time></trkpt><trkpt lat="44.4142535" lon="8.7043323"><ele>20.75</ele><time>2026-03-21T15:57:19.114Z</time></trkpt><trkpt lat="44.4141614" lon="8.7042032"><ele>17.0</ele><time>2026-03-21T15:57:20.113Z</time></trkpt><trkpt lat="44.4140632" lon="8.7040862"><ele>17.0</ele><time>2026-03-21T15:57:21.114Z</time></trkpt><trkpt lat="44.4139563" lon="8.7039861"><ele>17.0</ele><time>2026-03-21T15:57:22.114Z</time></trkpt><trkpt lat="44.413846" lon="8.703912"><ele>17.0</ele><time>2026-03-21T15:57:23.114Z</time></trkpt><trkpt lat="44.4137292" lon="8.7038534"><ele>17.0</ele><time>2026-03-21T15:57:24.113Z</time></trkpt><trkpt lat="44.4136128" lon="8.7038136"><ele>15.2</ele><time>2026-03-21T15:57:25.114Z</time></trkpt><trkpt lat="44.4135012" lon="8.7037927"><ele>13.399999999999999</ele><time>2026-03-21T15:57:26.113Z</time></trkpt><trkpt lat="44.4133906" lon="8.703784"><ele>11.600000000000001</ele><time>2026-03-21T15:57:27.114Z</time></trkpt><trkpt lat="44.4132829" lon="8.7037806"><ele>9.8</ele><time>2026-03-21T15:57:28.114Z</time></trkpt><trkpt lat="44.413178" lon="8.7037776"><ele>8.0</ele><time>2026-03-21T15:57:29.113Z</time></trkpt><trkpt lat="44.4130686" lon="8.7037754"><ele>6.25</ele><time>2026-03-21T15:57:30.114Z</time></trkpt><trkpt lat="44.412955" lon="8.7037604"><ele>4.5</ele><time>2026-03-21T15:57:31.114Z</time></trkpt><trkpt lat="44.4128397" lon="8.7037198"><ele>2.75</ele><time>2026-03-21T15:57:32.114Z</time></trkpt><trkpt lat="44.4127267" lon="8.7036398"><ele>1.0</ele><time>2026-03-21T15:57:33.114Z</time></trkpt><trkpt lat="44.4126264" lon="8.7035194"><ele>5.25</ele><time>2026-03-21T15:57:34.114Z</time></trkpt><trkpt lat="44.412545" lon="8.7033684"><ele>9.5</ele><time>2026-03-21T15:57:35.113Z</time></trkpt><trkpt lat="44.4124926" lon="8.7031819"><ele>13.75</ele><time>2026-03-21T15:57:36.114Z</time></trkpt><trkpt lat="44.4124525" lon="8.7029891"><ele>18.0</ele><time>2026-03-21T15:57:37.114Z</time></trkpt><trkpt lat="44.4123987" lon="8.7027889"><ele>13.0</ele><time>2026-03-21T15:57:38.114Z</time></trkpt><trkpt lat="44.4123318" lon="8.7025871"><ele>8.0</ele><time>2026-03-21T15:57:39.113Z</time></trkpt><trkpt lat="44.4122457" lon="8.7023917"><ele>3.0</ele><time>2026-03-21T15:57:40.114Z</time></trkpt><trkpt lat="44.4121442" lon="8.7022013"><ele>3.0</ele><time>2026-03-21T15:57:41.113Z</time></trkpt><trkpt lat="44.4120317" lon="8.7020073"><ele>3.0</ele><time>2026-03-21T15:57:42.114Z</time></trkpt><trkpt lat="44.4119198" lon="8.7018076"><ele>3.0</ele><time>2026-03-21T15:57:43.113Z</time></trkpt><trkpt lat="44.4118114" lon="8.7016164"><ele>6.333333333333333</ele><time>2026-03-21T15:57:44.113Z</time></trkpt><trkpt lat="44.4117074" lon="8.7014188"><ele>9.666666666666666</ele><time>2026-03-21T15:57:45.113Z</time></trkpt><trkpt lat="44.4116088" lon="8.701229"><ele>13.0</ele><time>2026-03-21T15:57:46.114Z</time></trkpt><trkpt lat="44.4115107" lon="8.7010424"><ele>16.333333333333332</ele><time>2026-03-21T15:57:47.114Z</time></trkpt><trkpt lat="44.4114192" lon="8.7008574"><ele>19.666666666666668</ele><time>2026-03-21T15:57:48.114Z</time></trkpt><trkpt lat="44.4113389" lon="8.7006826"><ele>23.0</ele><time>2026-03-21T15:57:49.114Z</time></trkpt><trkpt lat="44.4112649" lon="8.700512"><ele>19.75</ele><time>2026-03-21T15:57:50.113Z</time></trkpt><trkpt lat="44.4111935" lon="8.7003486"><ele>16.5</ele><time>2026-03-21T15:57:51.113Z</time></trkpt><trkpt lat="44.411118" lon="8.7001893"><ele>13.25</ele><time>2026-03-21T15:57:52.113Z</time></trkpt><trkpt lat="44.411043" lon="8.700028"><ele>10.0</ele><time>2026-03-21T15:57:53.114Z</time></trkpt><trkpt lat="44.4109731" lon="8.6998503"><ele>10.0</ele><time>2026-03-21T15:57:54.114Z</time></trkpt><trkpt lat="44.4109112" lon="8.6996664"><ele>10.0</ele><time>2026-03-21T15:57:55.113Z</time></trkpt><trkpt lat="44.4108553" lon="8.6994752"><ele>10.0</ele><time>2026-03-21T15:57:56.114Z</time></trkpt><trkpt lat="44.410797" lon="8.699275"><ele>10.0</ele><time>2026-03-21T15:57:57.114Z</time></trkpt><trkpt lat="44.4107419" lon="8.69907"><ele>16.0</ele><time>2026-03-21T15:57:58.113Z</time></trkpt><trkpt lat="44.4106894" lon="8.6988521"><ele>22.0</ele><time>2026-03-21T15:57:59.113Z</time></trkpt><trkpt lat="44.4106401" lon="8.6986231"><ele>28.0</ele><time>2026-03-21T15:58:00.113Z</time></trkpt><trkpt lat="44.4105968" lon="8.6983911"><ele>32.333333333333336</ele><time>2026-03-21T15:58:01.113Z</time></trkpt><trkpt lat="44.4105573" lon="8.6981541"><ele>36.666666666666664</ele><time>2026-03-21T15:58:02.114Z</time></trkpt><trkpt lat="44.4105323" lon="8.6979122"><ele>41.0</ele><time>2026-03-21T15:58:03.114Z</time></trkpt><trkpt lat="44.4105164" lon="8.6976766"><ele>43.33333333333333</ele><time>2026-03-21T15:58:04.114Z</time></trkpt><trkpt lat="44.4104966" lon="8.6974425"><ele>45.666666666666664</ele><time>2026-03-21T15:58:05.113Z</time></trkpt><trkpt lat="44.4104688" lon="8.697217"><ele>48.0</ele><time>2026-03-21T15:58:06.114Z</time></trkpt><trkpt lat="44.410434" lon="8.6970014"><ele>39.333333333333336</ele><time>2026-03-21T15:58:07.114Z</time></trkpt><trkpt lat="44.4103967" lon="8.6967866"><ele>30.666666666666664</ele><time>2026-03-21T15:58:08.113Z</time></trkpt><trkpt lat="44.4103616" lon="8.6965626"><ele>22.0</ele><time>2026-03-21T15:58:09.113Z</time></trkpt><trkpt lat="44.4103211" lon="8.6963576"><ele>22.0</ele><time>2026-03-21T15:58:10.113Z</time></trkpt><trkpt lat="44.410282" lon="8.6961477"><ele>22.0</ele><time>2026-03-21T15:58:11.113Z</time></trkpt><trkpt lat="44.410245" lon="8.6959432"><ele>22.0</ele><time>2026-03-21T15:58:12.114Z</time></trkpt><trkpt lat="44.410144" lon="8.6957946"><ele>26.0</ele><time>2026-03-21T15:58:13.114Z</time></trkpt><trkpt lat="44.4100358" lon="8.6956438"><ele>30.0</ele><time>2026-03-21T15:58:14.113Z</time></trkpt><trkpt lat="44.409944" lon="8.6954838"><ele>34.0</ele><time>2026-03-21T15:58:15.114Z</time></trkpt><trkpt lat="44.4097959" lon="8.6952488"><ele>35.333333333333336</ele><time>2026-03-21T15:58:16.113Z</time></trkpt><trkpt lat="44.4097124" lon="8.6950232"><ele>36.666666666666664</ele><time>2026-03-21T15:58:17.114Z</time></trkpt><trkpt lat="44.4096305" lon="8.6948795"><ele>38.0</ele><time>2026-03-21T15:58:18.113Z</time></trkpt><trkpt lat="44.4095284" lon="8.6946892"><ele>29.666666666666664</ele><time>2026-03-21T15:58:19.113Z</time></trkpt><trkpt lat="44.409437" lon="8.6944908"><ele>21.333333333333332</ele><time>2026-03-21T15:58:20.114Z</time></trkpt><trkpt lat="44.4093306" lon="8.694308"><ele>13.0</ele><time>2026-03-21T15:58:21.114Z</time></trkpt><trkpt lat="44.4092312" lon="8.6941167"><ele>13.0</ele><time>2026-03-21T15:58:22.114Z</time></trkpt><trkpt lat="44.4091324" lon="8.6939311"><ele>13.0</ele><time>2026-03-21T15:58:23.114Z</time></trkpt><trkpt lat="44.4090306" lon="8.6937403"><ele>13.0</ele><time>2026-03-21T15:58:24.114Z</time></trkpt><trkpt lat="44.4089286" lon="8.6935521"><ele>11.333333333333332</ele><time>2026-03-21T15:58:25.113Z</time></trkpt><trkpt lat="44.4088238" lon="8.6933641"><ele>9.666666666666666</ele><time>2026-03-21T15:58:26.113Z</time></trkpt><trkpt lat="44.4087254" lon="8.6931732"><ele>8.0</ele><time>2026-03-21T15:58:27.113Z</time></trkpt><trkpt lat="44.4086288" lon="8.6929842"><ele>8.0</ele><time>2026-03-21T15:58:28.113Z</time></trkpt><trkpt lat="44.4085333" lon="8.6927972"><ele>8.0</ele><time>2026-03-21T15:58:29.113Z</time></trkpt><trkpt lat="44.4084416" lon="8.6926173"><ele>8.0</ele><time>2026-03-21T15:58:30.113Z</time></trkpt><trkpt lat="44.4083538" lon="8.6924391"><ele>10.0</ele><time>2026-03-21T15:58:31.113Z</time></trkpt><trkpt lat="44.4082683" lon="8.6922693"><ele>12.0</ele><time>2026-03-21T15:58:32.113Z</time></trkpt><trkpt lat="44.4081853" lon="8.6921028"><ele>14.0</ele><time>2026-03-21T15:58:33.114Z</time></trkpt><trkpt lat="44.4081039" lon="8.6919443"><ele>16.0</ele><time>2026-03-21T15:58:34.114Z</time></trkpt><trkpt lat="44.4080243" lon="8.6917884"><ele>13.25</ele><time>2026-03-21T15:58:35.114Z</time></trkpt><trkpt lat="44.4079448" lon="8.6916423"><ele>10.5</ele><time>2026-03-21T15:58:36.114Z</time></trkpt><trkpt lat="44.4078714" lon="8.6915049"><ele>7.75</ele><time>2026-03-21T15:58:37.113Z</time></trkpt><trkpt lat="44.4077977" lon="8.69137"><ele>5.0</ele><time>2026-03-21T15:58:38.114Z</time></trkpt><trkpt lat="44.4077302" lon="8.6912407"><ele>5.0</ele><time>2026-03-21T15:58:39.113Z</time></trkpt><trkpt lat="44.4076692" lon="8.6911144"><ele>5.0</ele><time>2026-03-21T15:58:40.114Z</time></trkpt><trkpt lat="44.4076096" lon="8.6909926"><ele>5.0</ele><time>2026-03-21T15:58:41.114Z</time></trkpt><trkpt lat="44.4075516" lon="8.6908828"><ele>5.0</ele><time>2026-03-21T15:58:42.113Z</time></trkpt><trkpt lat="44.407495" lon="8.6907733"><ele>5.0</ele><time>2026-03-21T15:58:43.113Z</time></trkpt><trkpt lat="44.4074433" lon="8.6906777"><ele>4.833333333333334</ele><time>2026-03-21T15:58:44.113Z</time></trkpt><trkpt lat="44.4073957" lon="8.6905897"><ele>4.666666666666667</ele><time>2026-03-21T15:58:45.114Z</time></trkpt><trkpt lat="44.4073465" lon="8.6905001"><ele>4.5</ele><time>2026-03-21T15:58:46.114Z</time></trkpt><trkpt lat="44.4073002" lon="8.6904276"><ele>4.333333333333333</ele><time>2026-03-21T15:58:47.113Z</time></trkpt><trkpt lat="44.4072399" lon="8.6903094"><ele>4.166666666666666</ele><time>2026-03-21T15:58:49.114Z</time></trkpt><trkpt lat="44.4071812" lon="8.6902042"><ele>4.0</ele><time>2026-03-21T15:59:21.113Z</time></trkpt><trkpt lat="44.4071163" lon="8.6900671"><ele>4.0</ele><time>2026-03-21T15:59:23.113Z</time></trkpt><trkpt lat="44.407071" lon="8.6899744"><ele>4.0</ele><time>2026-03-21T15:59:24.114Z</time></trkpt><trkpt lat="44.4070171" lon="8.6898645"><ele>4.0</ele><time>2026-03-21T15:59:25.113Z</time></trkpt><trkpt lat="44.4069495" lon="8.6897386"><ele>4.0</ele><time>2026-03-21T15:59:26.113Z</time></trkpt><trkpt lat="44.4068887" lon="8.6896091"><ele>4.0</ele><time>2026-03-21T15:59:27.114Z</time></trkpt><trkpt lat="44.4068125" lon="8.6894704"><ele>5.25</ele><time>2026-03-21T15:59:28.114Z</time></trkpt><trkpt lat="44.4067341" lon="8.6893282"><ele>6.5</ele><time>2026-03-21T15:59:29.114Z</time></trkpt><trkpt lat="44.4066539" lon="8.6891955"><ele>7.75</ele><time>2026-03-21T15:59:30.114Z</time></trkpt><trkpt lat="44.406565" lon="8.6890759"><ele>9.0</ele><time>2026-03-21T15:59:31.113Z</time></trkpt><trkpt lat="44.406475" lon="8.6889756"><ele>9.0</ele><time>2026-03-21T15:59:32.114Z</time></trkpt><trkpt lat="44.4063736" lon="8.6888882"><ele>9.0</ele><time>2026-03-21T15:59:33.113Z</time></trkpt><trkpt lat="44.4062686" lon="8.6888074"><ele>9.0</ele><time>2026-03-21T15:59:34.113Z</time></trkpt><trkpt lat="44.4061697" lon="8.6887202"><ele>9.0</ele><time>2026-03-21T15:59:35.113Z</time></trkpt><trkpt lat="44.4060761" lon="8.6886274"><ele>8.4</ele><time>2026-03-21T15:59:36.113Z</time></trkpt><trkpt lat="44.4059877" lon="8.6885304"><ele>7.800000000000001</ele><time>2026-03-21T15:59:37.113Z</time></trkpt><trkpt lat="44.4059033" lon="8.6884251"><ele>7.199999999999999</ele><time>2026-03-21T15:59:38.114Z</time></trkpt><trkpt lat="44.4058279" lon="8.6883115"><ele>6.6</ele><time>2026-03-21T15:59:39.113Z</time></trkpt><trkpt lat="44.4057618" lon="8.6882006"><ele>6.0</ele><time>2026-03-21T15:59:40.113Z</time></trkpt><trkpt lat="44.4057008" lon="8.6880868"><ele>6.0</ele><time>2026-03-21T15:59:41.114Z</time></trkpt><trkpt lat="44.4056419" lon="8.6879772"><ele>6.0</ele><time>2026-03-21T15:59:42.113Z</time></trkpt><trkpt lat="44.4055874" lon="8.6878688"><ele>6.0</ele><time>2026-03-21T15:59:43.114Z</time></trkpt><trkpt lat="44.4055331" lon="8.687769"><ele>6.0</ele><time>2026-03-21T15:59:44.114Z</time></trkpt><trkpt lat="44.4054804" lon="8.6876664"><ele>6.0</ele><time>2026-03-21T15:59:45.114Z</time></trkpt><trkpt lat="44.4054293" lon="8.6875652"><ele>5.833333333333333</ele><time>2026-03-21T15:59:46.114Z</time></trkpt><trkpt lat="44.405376" lon="8.687468"><ele>5.666666666666667</ele><time>2026-03-21T15:59:47.114Z</time></trkpt><trkpt lat="44.4053234" lon="8.6873825"><ele>5.5</ele><time>2026-03-21T15:59:48.113Z</time></trkpt><trkpt lat="44.4052699" lon="8.6872884"><ele>5.333333333333334</ele><time>2026-03-21T15:59:49.113Z</time></trkpt><trkpt lat="44.4052055" lon="8.6872131"><ele>5.166666666666667</ele><time>2026-03-21T15:59:50.114Z</time></trkpt><trkpt lat="44.4051435" lon="8.6871339"><ele>5.0</ele><time>2026-03-21T15:59:51.114Z</time></trkpt><trkpt lat="44.4050778" lon="8.6870705"><ele>5.0</ele><time>2026-03-21T15:59:52.113Z</time></trkpt><trkpt lat="44.4050146" lon="8.6869967"><ele>5.0</ele><time>2026-03-21T15:59:53.113Z</time></trkpt><trkpt lat="44.4049503" lon="8.6869285"><ele>5.0</ele><time>2026-03-21T15:59:54.114Z</time></trkpt><trkpt lat="44.4048874" lon="8.6868673"><ele>5.0</ele><time>2026-03-21T15:59:55.113Z</time></trkpt><trkpt lat="44.4048337" lon="8.6868173"><ele>5.0</ele><time>2026-03-21T15:59:56.113Z</time></trkpt><trkpt lat="44.4047813" lon="8.6867676"><ele>5.0</ele><time>2026-03-21T15:59:57.114Z</time></trkpt><trkpt lat="44.4047089" lon="8.6866917"><ele>5.0</ele><time>2026-03-21T16:00:00.114Z</time></trkpt><trkpt lat="44.4046305" lon="8.6866198"><ele>5.0</ele><time>2026-03-21T16:00:02.113Z</time></trkpt><trkpt lat="44.4045751" lon="8.6865692"><ele>5.0</ele><time>2026-03-21T16:00:03.113Z</time></trkpt><trkpt lat="44.4045151" lon="8.6865157"><ele>5.0</ele><time>2026-03-21T16:00:04.113Z</time></trkpt><trkpt lat="44.404453" lon="8.6864601"><ele>5.0</ele><time>2026-03-21T16:00:05.113Z</time></trkpt><trkpt lat="44.4043854" lon="8.686404"><ele>5.0</ele><time>2026-03-21T16:00:06.114Z</time></trkpt><trkpt lat="44.404316" lon="8.6863347"><ele>5.0</ele><time>2026-03-21T16:00:07.113Z</time></trkpt><trkpt lat="44.4042468" lon="8.6862581"><ele>5.0</ele><time>2026-03-21T16:00:08.114Z</time></trkpt><trkpt lat="44.4041732" lon="8.6861933"><ele>5.0</ele><time>2026-03-21T16:00:09.114Z</time></trkpt><trkpt lat="44.4041019" lon="8.686121"><ele>5.0</ele><time>2026-03-21T16:00:10.113Z</time></trkpt><trkpt lat="44.404036" lon="8.6860597"><ele>5.0</ele><time>2026-03-21T16:00:11.114Z</time></trkpt><trkpt lat="44.4039829" lon="8.686007"><ele>5.0</ele><time>2026-03-21T16:00:12.113Z</time></trkpt><trkpt lat="44.40392" lon="8.6859518"><ele>5.166666666666667</ele><time>2026-03-21T16:00:14.114Z</time></trkpt><trkpt lat="44.4038347" lon="8.6858659"><ele>5.333333333333334</ele><time>2026-03-21T16:00:17.114Z</time></trkpt><trkpt lat="44.403791" lon="8.6857881"><ele>5.5</ele><time>2026-03-21T16:00:19.113Z</time></trkpt><trkpt lat="44.4037154" lon="8.6857729"><ele>5.666666666666667</ele><time>2026-03-21T16:00:59.114Z</time></trkpt><trkpt lat="44.4036213" lon="8.6857194"><ele>5.833333333333333</ele><time>2026-03-21T16:01:01.113Z</time></trkpt><trkpt lat="44.4035447" lon="8.6856855"><ele>6.0</ele><time>2026-03-21T16:01:03.114Z</time></trkpt><trkpt lat="44.4034617" lon="8.6856616"><ele>6.0</ele><time>2026-03-21T16:01:06.114Z</time></trkpt><trkpt lat="44.403374" lon="8.6856447"><ele>6.0</ele><time>2026-03-21T16:01:09.114Z</time></trkpt><trkpt lat="44.4032927" lon="8.6856163"><ele>6.0</ele><time>2026-03-21T16:01:12.114Z</time></trkpt><trkpt lat="44.4031817" lon="8.6855927"><ele>6.0</ele><time>2026-03-21T16:01:39.114Z</time></trkpt><trkpt lat="44.4030983" lon="8.6855828"><ele>6.0</ele><time>2026-03-21T16:01:40.114Z</time></trkpt><trkpt lat="44.4029975" lon="8.6855764"><ele>5.6</ele><time>2026-03-21T16:01:41.114Z</time></trkpt><trkpt lat="44.4028884" lon="8.6855671"><ele>5.199999999999999</ele><time>2026-03-21T16:01:42.113Z</time></trkpt><trkpt lat="44.4027827" lon="8.6855566"><ele>4.800000000000001</ele><time>2026-03-21T16:01:43.114Z</time></trkpt><trkpt lat="44.40268" lon="8.685551"><ele>4.4</ele><time>2026-03-21T16:01:44.113Z</time></trkpt><trkpt lat="44.4025721" lon="8.685545"><ele>4.0</ele><time>2026-03-21T16:01:45.113Z</time></trkpt><trkpt lat="44.4024591" lon="8.6855455"><ele>4.0</ele><time>2026-03-21T16:01:46.114Z</time></trkpt><trkpt lat="44.4023506" lon="8.6855384"><ele>4.0</ele><time>2026-03-21T16:01:47.113Z</time></trkpt><trkpt lat="44.4022453" lon="8.6855299"><ele>4.0</ele><time>2026-03-21T16:01:48.113Z</time></trkpt><trkpt lat="44.402139" lon="8.6855273"><ele>4.0</ele><time>2026-03-21T16:01:49.114Z</time></trkpt><trkpt lat="44.4020366" lon="8.6855231"><ele>4.0</ele><time>2026-03-21T16:01:50.114Z</time></trkpt><trkpt lat="44.4019375" lon="8.6855136"><ele>4.2</ele><time>2026-03-21T16:01:51.114Z</time></trkpt><trkpt lat="44.4018401" lon="8.6855031"><ele>4.4</ele><time>2026-03-21T16:01:52.114Z</time></trkpt><trkpt lat="44.4017466" lon="8.6854973"><ele>4.6</ele><time>2026-03-21T16:01:53.114Z</time></trkpt><trkpt lat="44.4016533" lon="8.6854924"><ele>4.8</ele><time>2026-03-21T16:01:54.114Z</time></trkpt><trkpt lat="44.4015637" lon="8.6854863"><ele>5.0</ele><time>2026-03-21T16:01:55.114Z</time></trkpt><trkpt lat="44.401477" lon="8.6854778"><ele>5.0</ele><time>2026-03-21T16:01:56.114Z</time></trkpt><trkpt lat="44.4013903" lon="8.6854676"><ele>5.0</ele><time>2026-03-21T16:01:57.113Z</time></trkpt><trkpt lat="44.4013019" lon="8.6854613"><ele>5.0</ele><time>2026-03-21T16:01:58.113Z</time></trkpt><trkpt lat="44.4012116" lon="8.6854572"><ele>5.0</ele><time>2026-03-21T16:01:59.113Z</time></trkpt><trkpt lat="44.4011171" lon="8.6854463"><ele>5.0</ele><time>2026-03-21T16:02:00.114Z</time></trkpt><trkpt lat="44.4010215" lon="8.6854272"><ele>5.0</ele><time>2026-03-21T16:02:01.114Z</time></trkpt><trkpt lat="44.4009229" lon="8.6854009"><ele>5.0</ele><time>2026-03-21T16:02:02.114Z</time></trkpt><trkpt lat="44.4008264" lon="8.6853629"><ele>5.0</ele><time>2026-03-21T16:02:03.114Z</time></trkpt><trkpt lat="44.400724" lon="8.685322"><ele>5.0</ele><time>2026-03-21T16:02:04.113Z</time></trkpt><trkpt lat="44.4006231" lon="8.6852683"><ele>5.0</ele><time>2026-03-21T16:02:05.113Z</time></trkpt><trkpt lat="44.4005212" lon="8.6852005"><ele>6.0</ele><time>2026-03-21T16:02:06.113Z</time></trkpt><trkpt lat="44.4004296" lon="8.6850985"><ele>7.0</ele><time>2026-03-21T16:02:07.113Z</time></trkpt><trkpt lat="44.4003612" lon="8.6849567"><ele>8.0</ele><time>2026-03-21T16:02:08.114Z</time></trkpt><trkpt lat="44.4003306" lon="8.6847905"><ele>9.0</ele><time>2026-03-21T16:02:09.114Z</time></trkpt><trkpt lat="44.4003306" lon="8.6846136"><ele>11.25</ele><time>2026-03-21T16:02:10.113Z</time></trkpt><trkpt lat="44.4003515" lon="8.6844277"><ele>13.5</ele><time>2026-03-21T16:02:11.114Z</time></trkpt><trkpt lat="44.4003849" lon="8.6842375"><ele>15.75</ele><time>2026-03-21T16:02:12.114Z</time></trkpt><trkpt lat="44.4004211" lon="8.6840278"><ele>18.0</ele><time>2026-03-21T16:02:13.114Z</time></trkpt><trkpt lat="44.4004568" lon="8.683813"><ele>14.0</ele><time>2026-03-21T16:02:14.113Z</time></trkpt><trkpt lat="44.4004938" lon="8.683594"><ele>10.0</ele><time>2026-03-21T16:02:15.113Z</time></trkpt><trkpt lat="44.4005723" lon="8.6831248"><ele>10.0</ele><time>2026-03-21T16:02:17.114Z</time></trkpt><trkpt lat="44.4006123" lon="8.6829132"><ele>10.0</ele><time>2026-03-21T16:02:18.113Z</time></trkpt><trkpt lat="44.4006467" lon="8.682713"><ele>10.0</ele><time>2026-03-21T16:02:19.113Z</time></trkpt><trkpt lat="44.4006753" lon="8.6825318"><ele>10.0</ele><time>2026-03-21T16:02:20.113Z</time></trkpt><trkpt lat="44.4006936" lon="8.6823625"><ele>10.0</ele><time>2026-03-21T16:02:21.113Z</time></trkpt><trkpt lat="44.4007039" lon="8.6821955"><ele>10.0</ele><time>2026-03-21T16:02:22.113Z</time></trkpt><trkpt lat="44.4006839" lon="8.68204"><ele>10.0</ele><time>2026-03-21T16:02:23.113Z</time></trkpt><trkpt lat="44.400642" lon="8.6818786"><ele>10.0</ele><time>2026-03-21T16:02:24.114Z</time></trkpt><trkpt lat="44.4005776" lon="8.6817013"><ele>10.0</ele><time>2026-03-21T16:02:25.113Z</time></trkpt><trkpt lat="44.4005292" lon="8.6815147"><ele>10.0</ele><time>2026-03-21T16:02:26.114Z</time></trkpt><trkpt lat="44.4005158" lon="8.6813357"><ele>10.0</ele><time>2026-03-21T16:02:27.113Z</time></trkpt><trkpt lat="44.4005309" lon="8.6811663"><ele>10.0</ele><time>2026-03-21T16:02:28.114Z</time></trkpt><trkpt lat="44.4005629" lon="8.6809993"><ele>10.4</ele><time>2026-03-21T16:02:29.113Z</time></trkpt><trkpt lat="44.400575" lon="8.6808499"><ele>10.8</ele><time>2026-03-21T16:02:30.114Z</time></trkpt><trkpt lat="44.4005797" lon="8.6807246"><ele>11.2</ele><time>2026-03-21T16:02:31.114Z</time></trkpt><trkpt lat="44.400567" lon="8.6805902"><ele>11.6</ele><time>2026-03-21T16:02:33.114Z</time></trkpt><trkpt lat="44.4005495" lon="8.6804714"><ele>12.0</ele><time>2026-03-21T16:02:35.114Z</time></trkpt><trkpt lat="44.4005522" lon="8.6803548"><ele>12.399999999999999</ele><time>2026-03-21T16:02:37.114Z</time></trkpt><trkpt lat="44.4005824" lon="8.6802015"><ele>12.799999999999999</ele><time>2026-03-21T16:02:39.114Z</time></trkpt><trkpt lat="44.4005874" lon="8.6800708"><ele>13.2</ele><time>2026-03-21T16:02:41.114Z</time></trkpt><trkpt lat="44.4005694" lon="8.679889"><ele>13.6</ele><time>2026-03-21T16:02:43.114Z</time></trkpt><trkpt lat="44.400582" lon="8.6797749"><ele>14.0</ele><time>2026-03-21T16:02:44.113Z</time></trkpt><trkpt lat="44.4006126" lon="8.6796749"><ele>14.0</ele><time>2026-03-21T16:02:45.114Z</time></trkpt><trkpt lat="44.4006509" lon="8.6795721"><ele>13.999999999999998</ele><time>2026-03-21T16:02:46.114Z</time></trkpt><trkpt lat="44.400702" lon="8.6794675"><ele>13.999999999999998</ele><time>2026-03-21T16:02:47.114Z</time></trkpt><trkpt lat="44.4007596" lon="8.6793522"><ele>14.0</ele><time>2026-03-21T16:02:48.114Z</time></trkpt><trkpt lat="44.4008198" lon="8.6792234"><ele>14.0</ele><time>2026-03-21T16:02:49.113Z</time></trkpt><trkpt lat="44.4008915" lon="8.6790853"><ele>17.666666666666668</ele><time>2026-03-21T16:02:50.114Z</time></trkpt><trkpt lat="44.4009688" lon="8.6789297"><ele>21.333333333333336</ele><time>2026-03-21T16:02:51.114Z</time></trkpt><trkpt lat="44.4010452" lon="8.6787491"><ele>25.0</ele><time>2026-03-21T16:02:52.114Z</time></trkpt><trkpt lat="44.40112" lon="8.6785384"><ele>23.0</ele><time>2026-03-21T16:02:53.114Z</time></trkpt><trkpt lat="44.4012049" lon="8.6783349"><ele>21.0</ele><time>2026-03-21T16:02:54.113Z</time></trkpt><trkpt lat="44.4012999" lon="8.6781589"><ele>19.0</ele><time>2026-03-21T16:02:55.114Z</time></trkpt><trkpt lat="44.4013982" lon="8.6780046"><ele>19.0</ele><time>2026-03-21T16:02:56.114Z</time></trkpt><trkpt lat="44.4014801" lon="8.6778194"><ele>19.0</ele><time>2026-03-21T16:02:57.113Z</time></trkpt><trkpt lat="44.4015673" lon="8.6776272"><ele>19.0</ele><time>2026-03-21T16:02:58.113Z</time></trkpt><trkpt lat="44.4015997" lon="8.6772601"><ele>21.0</ele><time>2026-03-21T16:02:59.113Z</time></trkpt><trkpt lat="44.4016445" lon="8.6769572"><ele>23.0</ele><time>2026-03-21T16:03:00.114Z</time></trkpt><trkpt lat="44.4016833" lon="8.6766567"><ele>25.0</ele><time>2026-03-21T16:03:01.114Z</time></trkpt><trkpt lat="44.4016886" lon="8.6764742"><ele>26.8</ele><time>2026-03-21T16:03:02.113Z</time></trkpt><trkpt lat="44.4016932" lon="8.6763788"><ele>28.6</ele><time>2026-03-21T16:03:03.113Z</time></trkpt><trkpt lat="44.4016725" lon="8.676229"><ele>30.4</ele><time>2026-03-21T16:03:04.114Z</time></trkpt><trkpt lat="44.4016435" lon="8.6760991"><ele>32.2</ele><time>2026-03-21T16:03:05.113Z</time></trkpt><trkpt lat="44.4016043" lon="8.6759592"><ele>34.0</ele><time>2026-03-21T16:03:06.113Z</time></trkpt><trkpt lat="44.4015743" lon="8.6758154"><ele>34.25</ele><time>2026-03-21T16:03:07.114Z</time></trkpt><trkpt lat="44.4015553" lon="8.6756662"><ele>34.5</ele><time>2026-03-21T16:03:08.114Z</time></trkpt><trkpt lat="44.401548" lon="8.6755055"><ele>34.75</ele><time>2026-03-21T16:03:09.113Z</time></trkpt><trkpt lat="44.4015638" lon="8.6753368"><ele>35.0</ele><time>2026-03-21T16:03:10.113Z</time></trkpt><trkpt lat="44.4016016" lon="8.6751717"><ele>35.6</ele><time>2026-03-21T16:03:11.114Z</time></trkpt><trkpt lat="44.4016439" lon="8.6750252"><ele>36.2</ele><time>2026-03-21T16:03:12.114Z</time></trkpt><trkpt lat="44.4016893" lon="8.6748965"><ele>36.8</ele><time>2026-03-21T16:03:13.114Z</time></trkpt><trkpt lat="44.4017233" lon="8.6747985"><ele>37.4</ele><time>2026-03-21T16:03:14.113Z</time></trkpt><trkpt lat="44.4017425" lon="8.6747099"><ele>38.0</ele><time>2026-03-21T16:03:15.113Z</time></trkpt><trkpt lat="44.4017518" lon="8.6745776"><ele>38.0</ele><time>2026-03-21T16:03:17.113Z</time></trkpt><trkpt lat="44.4017609" lon="8.6744739"><ele>38.0</ele><time>2026-03-21T16:03:20.114Z</time></trkpt></trkseg></trk></gpx>